<?xml version="1.0" encoding="UTF-8" standalone="no" ?>
<gpx xmlns="http://www.topografix.com/GPX/1/1" xmlns:xsi="http://www.w3.org/2001/XMLSchema-instance" xsi:schemaLocation="http://www.topografix.com/GPX/1/1 http://www.topografix.com/GPX/1/1/gpx.xsd" version="1.1" creator="VisuGPX - https://www.visugpx.com">
  <metadata>
    <name>Nez de Boeuf 72 km 2025</name>
    <desc><![CDATA[Rando VTT Maisse Nez de boeuf 72 km 2025]]></desc>
  </metadata>
  <trk>
    <name><![CDATA[70km Nez de Bœuf 2025]]></name>
    <trkseg>
      <trkpt lat="48.38257" lon="2.37852">
        <ele>62.799999237061</ele>
        <time>2025-06-06T16:26:45.000Z</time>
      </trkpt>
      <trkpt lat="48.38251" lon="2.37851">
        <ele>62</ele>
        <time>2025-06-06T16:26:56.000Z</time>
      </trkpt>
      <trkpt lat="48.38235" lon="2.3785">
        <ele>62.799999237061</ele>
        <time>2025-06-06T16:27:00.000Z</time>
      </trkpt>
      <trkpt lat="48.38204" lon="2.37843">
        <ele>61.799999237061</ele>
        <time>2025-06-06T16:27:07.000Z</time>
      </trkpt>
      <trkpt lat="48.38171" lon="2.37823">
        <ele>61.400001525879</ele>
        <time>2025-06-06T16:27:14.000Z</time>
      </trkpt>
      <trkpt lat="48.38141" lon="2.37801">
        <ele>61.599998474121</ele>
        <time>2025-06-06T16:27:21.000Z</time>
      </trkpt>
      <trkpt lat="48.38122" lon="2.37787">
        <ele>62</ele>
        <time>2025-06-06T16:27:27.000Z</time>
      </trkpt>
      <trkpt lat="48.3811" lon="2.37781">
        <ele>63.400001525879</ele>
        <time>2025-06-06T16:27:31.000Z</time>
      </trkpt>
      <trkpt lat="48.38103" lon="2.37779">
        <ele>63.799999237061</ele>
        <time>2025-06-06T16:27:33.000Z</time>
      </trkpt>
      <trkpt lat="48.38096" lon="2.37777">
        <ele>64.199996948242</ele>
        <time>2025-06-06T16:27:35.000Z</time>
      </trkpt>
      <trkpt lat="48.38083" lon="2.37775">
        <ele>65.400001525879</ele>
        <time>2025-06-06T16:27:38.000Z</time>
      </trkpt>
      <trkpt lat="48.38075" lon="2.37773">
        <ele>65.599998474121</ele>
        <time>2025-06-06T16:27:40.000Z</time>
      </trkpt>
      <trkpt lat="48.38057" lon="2.37768">
        <ele>66.400001525879</ele>
        <time>2025-06-06T16:27:44.000Z</time>
      </trkpt>
      <trkpt lat="48.38048" lon="2.37765">
        <ele>66.400001525879</ele>
        <time>2025-06-06T16:27:46.000Z</time>
      </trkpt>
      <trkpt lat="48.3804" lon="2.37762">
        <ele>66.599998474121</ele>
        <time>2025-06-06T16:27:48.000Z</time>
      </trkpt>
      <trkpt lat="48.38025" lon="2.37758">
        <ele>66.599998474121</ele>
        <time>2025-06-06T16:27:51.000Z</time>
      </trkpt>
      <trkpt lat="48.38011" lon="2.37754">
        <ele>66.800003051758</ele>
        <time>2025-06-06T16:27:54.000Z</time>
      </trkpt>
      <trkpt lat="48.38003" lon="2.37754">
        <ele>66.800003051758</ele>
        <time>2025-06-06T16:27:56.000Z</time>
      </trkpt>
      <trkpt lat="48.37995" lon="2.37756">
        <ele>67</ele>
        <time>2025-06-06T16:27:59.000Z</time>
      </trkpt>
      <trkpt lat="48.37991" lon="2.37757">
        <ele>67.199996948242</ele>
        <time>2025-06-06T16:28:01.000Z</time>
      </trkpt>
      <trkpt lat="48.37982" lon="2.3776">
        <ele>67.800003051758</ele>
        <time>2025-06-06T16:28:04.000Z</time>
      </trkpt>
      <trkpt lat="48.37976" lon="2.37762">
        <ele>68.199996948242</ele>
        <time>2025-06-06T16:28:07.000Z</time>
      </trkpt>
      <trkpt lat="48.37962" lon="2.37767">
        <ele>68.599998474121</ele>
        <time>2025-06-06T16:28:13.000Z</time>
      </trkpt>
      <trkpt lat="48.37959" lon="2.37769">
        <ele>68.599998474121</ele>
        <time>2025-06-06T16:28:20.000Z</time>
      </trkpt>
      <trkpt lat="48.37958" lon="2.37769">
        <ele>68.800003051758</ele>
        <time>2025-06-06T16:28:21.000Z</time>
      </trkpt>
      <trkpt lat="48.37952" lon="2.37769">
        <ele>68.800003051758</ele>
        <time>2025-06-06T16:28:30.000Z</time>
      </trkpt>
      <trkpt lat="48.3795" lon="2.3777">
        <ele>68.800003051758</ele>
        <time>2025-06-06T16:28:41.000Z</time>
      </trkpt>
      <trkpt lat="48.37949" lon="2.37772">
        <ele>68.800003051758</ele>
        <time>2025-06-06T16:28:51.000Z</time>
      </trkpt>
      <trkpt lat="48.3795" lon="2.37772">
        <ele>68.800003051758</ele>
        <time>2025-06-06T16:28:54.000Z</time>
      </trkpt>
      <trkpt lat="48.37947" lon="2.37776">
        <ele>69</ele>
        <time>2025-06-06T16:29:04.000Z</time>
      </trkpt>
      <trkpt lat="48.37935" lon="2.37778">
        <ele>68.599998474121</ele>
        <time>2025-06-06T16:29:12.000Z</time>
      </trkpt>
      <trkpt lat="48.37917" lon="2.37783">
        <ele>68.199996948242</ele>
        <time>2025-06-06T16:29:18.000Z</time>
      </trkpt>
      <trkpt lat="48.37892" lon="2.37785">
        <ele>67.400001525879</ele>
        <time>2025-06-06T16:29:25.000Z</time>
      </trkpt>
      <trkpt lat="48.3788" lon="2.37788">
        <ele>67.199996948242</ele>
        <time>2025-06-06T16:29:28.000Z</time>
      </trkpt>
      <trkpt lat="48.37865" lon="2.37791">
        <ele>66.800003051758</ele>
        <time>2025-06-06T16:29:31.000Z</time>
      </trkpt>
      <trkpt lat="48.37826" lon="2.37796">
        <ele>66.199996948242</ele>
        <time>2025-06-06T16:29:39.000Z</time>
      </trkpt>
      <trkpt lat="48.37816" lon="2.37797">
        <ele>65.800003051758</ele>
        <time>2025-06-06T16:29:41.000Z</time>
      </trkpt>
      <trkpt lat="48.37782" lon="2.378">
        <ele>65.400001525879</ele>
        <time>2025-06-06T16:29:48.000Z</time>
      </trkpt>
      <trkpt lat="48.37748" lon="2.37802">
        <ele>66</ele>
        <time>2025-06-06T16:29:55.000Z</time>
      </trkpt>
      <trkpt lat="48.37712" lon="2.37806">
        <ele>66.199996948242</ele>
        <time>2025-06-06T16:30:03.000Z</time>
      </trkpt>
      <trkpt lat="48.377" lon="2.37806">
        <ele>66.400001525879</ele>
        <time>2025-06-06T16:30:06.000Z</time>
      </trkpt>
      <trkpt lat="48.37684" lon="2.37808">
        <ele>66.199996948242</ele>
        <time>2025-06-06T16:30:10.000Z</time>
      </trkpt>
      <trkpt lat="48.37659" lon="2.37811">
        <ele>66.199996948242</ele>
        <time>2025-06-06T16:30:16.000Z</time>
      </trkpt>
      <trkpt lat="48.37642" lon="2.37814">
        <ele>66.199996948242</ele>
        <time>2025-06-06T16:30:19.000Z</time>
      </trkpt>
      <trkpt lat="48.37627" lon="2.37821">
        <ele>66.400001525879</ele>
        <time>2025-06-06T16:30:22.000Z</time>
      </trkpt>
      <trkpt lat="48.37613" lon="2.37828">
        <ele>66.599998474121</ele>
        <time>2025-06-06T16:30:25.000Z</time>
      </trkpt>
      <trkpt lat="48.37608" lon="2.3783">
        <ele>67</ele>
        <time>2025-06-06T16:30:26.000Z</time>
      </trkpt>
      <trkpt lat="48.37603" lon="2.37832">
        <ele>67</ele>
        <time>2025-06-06T16:30:27.000Z</time>
      </trkpt>
      <trkpt lat="48.37585" lon="2.37838">
        <ele>67.199996948242</ele>
        <time>2025-06-06T16:30:31.000Z</time>
      </trkpt>
      <trkpt lat="48.37574" lon="2.37838">
        <ele>67.199996948242</ele>
        <time>2025-06-06T16:30:33.000Z</time>
      </trkpt>
      <trkpt lat="48.37552" lon="2.37833">
        <ele>67.199996948242</ele>
        <time>2025-06-06T16:30:38.000Z</time>
      </trkpt>
      <trkpt lat="48.37551" lon="2.3783">
        <ele>67.199996948242</ele>
        <time>2025-06-06T16:30:39.000Z</time>
      </trkpt>
      <trkpt lat="48.37552" lon="2.37829">
        <ele>67.199996948242</ele>
        <time>2025-06-06T16:30:41.000Z</time>
      </trkpt>
      <trkpt lat="48.37555" lon="2.37824">
        <ele>67.199996948242</ele>
        <time>2025-06-06T16:30:46.000Z</time>
      </trkpt>
      <trkpt lat="48.37554" lon="2.37822">
        <ele>67.599998474121</ele>
        <time>2025-06-06T16:30:47.000Z</time>
      </trkpt>
      <trkpt lat="48.37554" lon="2.3782">
        <ele>67.800003051758</ele>
        <time>2025-06-06T16:30:48.000Z</time>
      </trkpt>
      <trkpt lat="48.37552" lon="2.37815">
        <ele>68.599998474121</ele>
        <time>2025-06-06T16:30:50.000Z</time>
      </trkpt>
      <trkpt lat="48.3755" lon="2.37815">
        <ele>68.800003051758</ele>
        <time>2025-06-06T16:30:51.000Z</time>
      </trkpt>
      <trkpt lat="48.37533" lon="2.37816">
        <ele>69.599998474121</ele>
        <time>2025-06-06T16:30:56.000Z</time>
      </trkpt>
      <trkpt lat="48.37509" lon="2.3782">
        <ele>69.400001525879</ele>
        <time>2025-06-06T16:31:01.000Z</time>
      </trkpt>
      <trkpt lat="48.37503" lon="2.37821">
        <ele>69.400001525879</ele>
        <time>2025-06-06T16:31:02.000Z</time>
      </trkpt>
      <trkpt lat="48.37488" lon="2.37824">
        <ele>69</ele>
        <time>2025-06-06T16:31:05.000Z</time>
      </trkpt>
      <trkpt lat="48.37478" lon="2.37826">
        <ele>68.800003051758</ele>
        <time>2025-06-06T16:31:07.000Z</time>
      </trkpt>
      <trkpt lat="48.37473" lon="2.37828">
        <ele>68.599998474121</ele>
        <time>2025-06-06T16:31:08.000Z</time>
      </trkpt>
      <trkpt lat="48.37463" lon="2.37832">
        <ele>68.599998474121</ele>
        <time>2025-06-06T16:31:10.000Z</time>
      </trkpt>
      <trkpt lat="48.37452" lon="2.37833">
        <ele>68.599998474121</ele>
        <time>2025-06-06T16:31:12.000Z</time>
      </trkpt>
      <trkpt lat="48.37411" lon="2.37845">
        <ele>68</ele>
        <time>2025-06-06T16:31:20.000Z</time>
      </trkpt>
      <trkpt lat="48.37386" lon="2.37851">
        <ele>68.400001525879</ele>
        <time>2025-06-06T16:31:25.000Z</time>
      </trkpt>
      <trkpt lat="48.37381" lon="2.37849">
        <ele>68.400001525879</ele>
        <time>2025-06-06T16:31:26.000Z</time>
      </trkpt>
      <trkpt lat="48.37374" lon="2.37836">
        <ele>68.400001525879</ele>
        <time>2025-06-06T16:31:29.000Z</time>
      </trkpt>
      <trkpt lat="48.37372" lon="2.37827">
        <ele>68.800003051758</ele>
        <time>2025-06-06T16:31:31.000Z</time>
      </trkpt>
      <trkpt lat="48.3737" lon="2.37814">
        <ele>69.199996948242</ele>
        <time>2025-06-06T16:31:34.000Z</time>
      </trkpt>
      <trkpt lat="48.37369" lon="2.3781">
        <ele>69.400001525879</ele>
        <time>2025-06-06T16:31:35.000Z</time>
      </trkpt>
      <trkpt lat="48.37369" lon="2.37802">
        <ele>70.199996948242</ele>
        <time>2025-06-06T16:31:37.000Z</time>
      </trkpt>
      <trkpt lat="48.37368" lon="2.37795">
        <ele>71.400001525879</ele>
        <time>2025-06-06T16:31:39.000Z</time>
      </trkpt>
      <trkpt lat="48.37366" lon="2.37783">
        <ele>72.400001525879</ele>
        <time>2025-06-06T16:31:42.000Z</time>
      </trkpt>
      <trkpt lat="48.37364" lon="2.37764">
        <ele>73.400001525879</ele>
        <time>2025-06-06T16:31:47.000Z</time>
      </trkpt>
      <trkpt lat="48.37364" lon="2.37761">
        <ele>73.599998474121</ele>
        <time>2025-06-06T16:31:48.000Z</time>
      </trkpt>
      <trkpt lat="48.37364" lon="2.37746">
        <ele>74.800003051758</ele>
        <time>2025-06-06T16:31:52.000Z</time>
      </trkpt>
      <trkpt lat="48.37364" lon="2.37735">
        <ele>76</ele>
        <time>2025-06-06T16:31:55.000Z</time>
      </trkpt>
      <trkpt lat="48.37364" lon="2.37732">
        <ele>76.400001525879</ele>
        <time>2025-06-06T16:31:56.000Z</time>
      </trkpt>
      <trkpt lat="48.37363" lon="2.37722">
        <ele>76.800003051758</ele>
        <time>2025-06-06T16:31:59.000Z</time>
      </trkpt>
      <trkpt lat="48.37361" lon="2.3771">
        <ele>78</ele>
        <time>2025-06-06T16:32:03.000Z</time>
      </trkpt>
      <trkpt lat="48.37361" lon="2.37707">
        <ele>78.199996948242</ele>
        <time>2025-06-06T16:32:04.000Z</time>
      </trkpt>
      <trkpt lat="48.3736" lon="2.37696">
        <ele>78.800003051758</ele>
        <time>2025-06-06T16:32:08.000Z</time>
      </trkpt>
      <trkpt lat="48.3736" lon="2.37688">
        <ele>79.599998474121</ele>
        <time>2025-06-06T16:32:11.000Z</time>
      </trkpt>
      <trkpt lat="48.3736" lon="2.37685">
        <ele>79.800003051758</ele>
        <time>2025-06-06T16:32:12.000Z</time>
      </trkpt>
      <trkpt lat="48.37361" lon="2.3767">
        <ele>81</ele>
        <time>2025-06-06T16:32:17.000Z</time>
      </trkpt>
      <trkpt lat="48.37361" lon="2.37667">
        <ele>81.400001525879</ele>
        <time>2025-06-06T16:32:18.000Z</time>
      </trkpt>
      <trkpt lat="48.37361" lon="2.37661">
        <ele>82.199996948242</ele>
        <time>2025-06-06T16:32:20.000Z</time>
      </trkpt>
      <trkpt lat="48.37363" lon="2.37653">
        <ele>83.199996948242</ele>
        <time>2025-06-06T16:32:23.000Z</time>
      </trkpt>
      <trkpt lat="48.37364" lon="2.37647">
        <ele>83.800003051758</ele>
        <time>2025-06-06T16:32:25.000Z</time>
      </trkpt>
      <trkpt lat="48.37364" lon="2.37638">
        <ele>84.400001525879</ele>
        <time>2025-06-06T16:32:28.000Z</time>
      </trkpt>
      <trkpt lat="48.37364" lon="2.37628">
        <ele>85.199996948242</ele>
        <time>2025-06-06T16:32:32.000Z</time>
      </trkpt>
      <trkpt lat="48.37364" lon="2.37625">
        <ele>85.400001525879</ele>
        <time>2025-06-06T16:32:33.000Z</time>
      </trkpt>
      <trkpt lat="48.37366" lon="2.37615">
        <ele>86.599998474121</ele>
        <time>2025-06-06T16:32:37.000Z</time>
      </trkpt>
      <trkpt lat="48.37366" lon="2.3761">
        <ele>87.400001525879</ele>
        <time>2025-06-06T16:32:39.000Z</time>
      </trkpt>
      <trkpt lat="48.37367" lon="2.37607">
        <ele>87.599998474121</ele>
        <time>2025-06-06T16:32:40.000Z</time>
      </trkpt>
      <trkpt lat="48.37369" lon="2.37598">
        <ele>88.599998474121</ele>
        <time>2025-06-06T16:32:44.000Z</time>
      </trkpt>
      <trkpt lat="48.3737" lon="2.37594">
        <ele>89.199996948242</ele>
        <time>2025-06-06T16:32:46.000Z</time>
      </trkpt>
      <trkpt lat="48.37369" lon="2.37592">
        <ele>89.599998474121</ele>
        <time>2025-06-06T16:32:48.000Z</time>
      </trkpt>
      <trkpt lat="48.37368" lon="2.37592">
        <ele>89.800003051758</ele>
        <time>2025-06-06T16:32:49.000Z</time>
      </trkpt>
      <trkpt lat="48.37365" lon="2.37592">
        <ele>90.199996948242</ele>
        <time>2025-06-06T16:32:51.000Z</time>
      </trkpt>
      <trkpt lat="48.37364" lon="2.37592">
        <ele>90.599998474121</ele>
        <time>2025-06-06T16:32:56.000Z</time>
      </trkpt>
      <trkpt lat="48.37364" lon="2.37593">
        <ele>90.800003051758</ele>
        <time>2025-06-06T16:33:02.000Z</time>
      </trkpt>
      <trkpt lat="48.3736" lon="2.37596">
        <ele>91</ele>
        <time>2025-06-06T16:33:19.000Z</time>
      </trkpt>
      <trkpt lat="48.3736" lon="2.37598">
        <ele>91</ele>
        <time>2025-06-06T16:33:35.000Z</time>
      </trkpt>
      <trkpt lat="48.3736" lon="2.37599">
        <ele>91</ele>
        <time>2025-06-06T16:33:39.000Z</time>
      </trkpt>
      <trkpt lat="48.3736" lon="2.37598">
        <ele>90.800003051758</ele>
        <time>2025-06-06T16:33:54.000Z</time>
      </trkpt>
      <trkpt lat="48.37361" lon="2.37598">
        <ele>91</ele>
        <time>2025-06-06T16:34:10.000Z</time>
      </trkpt>
      <trkpt lat="48.3736" lon="2.37598">
        <ele>90.800003051758</ele>
        <time>2025-06-06T16:34:25.000Z</time>
      </trkpt>
      <trkpt lat="48.37361" lon="2.37594">
        <ele>91</ele>
        <time>2025-06-06T16:34:34.000Z</time>
      </trkpt>
      <trkpt lat="48.37361" lon="2.37593">
        <ele>91</ele>
        <time>2025-06-06T16:34:39.000Z</time>
      </trkpt>
      <trkpt lat="48.37361" lon="2.37593">
        <ele>91</ele>
        <time>2025-06-06T16:34:52.000Z</time>
      </trkpt>
      <trkpt lat="48.37363" lon="2.37593">
        <ele>91</ele>
        <time>2025-06-06T16:35:07.000Z</time>
      </trkpt>
      <trkpt lat="48.37364" lon="2.37594">
        <ele>90.800003051758</ele>
        <time>2025-06-06T16:35:22.000Z</time>
      </trkpt>
      <trkpt lat="48.37361" lon="2.37595">
        <ele>90.800003051758</ele>
        <time>2025-06-06T16:35:37.000Z</time>
      </trkpt>
      <trkpt lat="48.37362" lon="2.37593">
        <ele>90.800003051758</ele>
        <time>2025-06-06T16:35:45.000Z</time>
      </trkpt>
      <trkpt lat="48.37362" lon="2.37592">
        <ele>90.800003051758</ele>
        <time>2025-06-06T16:35:50.000Z</time>
      </trkpt>
      <trkpt lat="48.37357" lon="2.37588">
        <ele>90.800003051758</ele>
        <time>2025-06-06T16:35:57.000Z</time>
      </trkpt>
      <trkpt lat="48.37355" lon="2.37583">
        <ele>90.800003051758</ele>
        <time>2025-06-06T16:35:59.000Z</time>
      </trkpt>
      <trkpt lat="48.37346" lon="2.37568">
        <ele>91.199996948242</ele>
        <time>2025-06-06T16:36:07.000Z</time>
      </trkpt>
      <trkpt lat="48.37345" lon="2.37565">
        <ele>91.599998474121</ele>
        <time>2025-06-06T16:36:08.000Z</time>
      </trkpt>
      <trkpt lat="48.3734" lon="2.3756">
        <ele>92.800003051758</ele>
        <time>2025-06-06T16:36:12.000Z</time>
      </trkpt>
      <trkpt lat="48.37336" lon="2.37556">
        <ele>93.800003051758</ele>
        <time>2025-06-06T16:36:15.000Z</time>
      </trkpt>
      <trkpt lat="48.37332" lon="2.37551">
        <ele>95.199996948242</ele>
        <time>2025-06-06T16:36:18.000Z</time>
      </trkpt>
      <trkpt lat="48.37329" lon="2.37545">
        <ele>96.400001525879</ele>
        <time>2025-06-06T16:36:21.000Z</time>
      </trkpt>
      <trkpt lat="48.37327" lon="2.37543">
        <ele>97</ele>
        <time>2025-06-06T16:36:23.000Z</time>
      </trkpt>
      <trkpt lat="48.37325" lon="2.37541">
        <ele>97.199996948242</ele>
        <time>2025-06-06T16:36:24.000Z</time>
      </trkpt>
      <trkpt lat="48.37322" lon="2.37537">
        <ele>98.199996948242</ele>
        <time>2025-06-06T16:36:27.000Z</time>
      </trkpt>
      <trkpt lat="48.37318" lon="2.37531">
        <ele>99.400001525879</ele>
        <time>2025-06-06T16:36:31.000Z</time>
      </trkpt>
      <trkpt lat="48.37318" lon="2.3753">
        <ele>99.800003051758</ele>
        <time>2025-06-06T16:36:32.000Z</time>
      </trkpt>
      <trkpt lat="48.37315" lon="2.37525">
        <ele>100.80000305176</ele>
        <time>2025-06-06T16:36:35.000Z</time>
      </trkpt>
      <trkpt lat="48.37314" lon="2.37521">
        <ele>101.19999694824</ele>
        <time>2025-06-06T16:36:37.000Z</time>
      </trkpt>
      <trkpt lat="48.37315" lon="2.37519">
        <ele>101.40000152588</ele>
        <time>2025-06-06T16:36:38.000Z</time>
      </trkpt>
      <trkpt lat="48.37315" lon="2.37515">
        <ele>102</ele>
        <time>2025-06-06T16:36:40.000Z</time>
      </trkpt>
      <trkpt lat="48.37316" lon="2.37505">
        <ele>102.80000305176</ele>
        <time>2025-06-06T16:36:44.000Z</time>
      </trkpt>
      <trkpt lat="48.37315" lon="2.37501">
        <ele>103.19999694824</ele>
        <time>2025-06-06T16:36:45.000Z</time>
      </trkpt>
      <trkpt lat="48.37316" lon="2.37493">
        <ele>104</ele>
        <time>2025-06-06T16:36:48.000Z</time>
      </trkpt>
      <trkpt lat="48.37316" lon="2.37478">
        <ele>104.80000305176</ele>
        <time>2025-06-06T16:36:53.000Z</time>
      </trkpt>
      <trkpt lat="48.37316" lon="2.37472">
        <ele>104.80000305176</ele>
        <time>2025-06-06T16:36:55.000Z</time>
      </trkpt>
      <trkpt lat="48.37316" lon="2.3746">
        <ele>105.80000305176</ele>
        <time>2025-06-06T16:36:59.000Z</time>
      </trkpt>
      <trkpt lat="48.37316" lon="2.37457">
        <ele>106.19999694824</ele>
        <time>2025-06-06T16:37:00.000Z</time>
      </trkpt>
      <trkpt lat="48.37316" lon="2.37448">
        <ele>107.19999694824</ele>
        <time>2025-06-06T16:37:03.000Z</time>
      </trkpt>
      <trkpt lat="48.37318" lon="2.37435">
        <ele>108.40000152588</ele>
        <time>2025-06-06T16:37:07.000Z</time>
      </trkpt>
      <trkpt lat="48.37318" lon="2.37432">
        <ele>108.59999847412</ele>
        <time>2025-06-06T16:37:08.000Z</time>
      </trkpt>
      <trkpt lat="48.37319" lon="2.37418">
        <ele>109.40000152588</ele>
        <time>2025-06-06T16:37:12.000Z</time>
      </trkpt>
      <trkpt lat="48.37319" lon="2.37407">
        <ele>110.40000152588</ele>
        <time>2025-06-06T16:37:16.000Z</time>
      </trkpt>
      <trkpt lat="48.37318" lon="2.374">
        <ele>110.80000305176</ele>
        <time>2025-06-06T16:37:18.000Z</time>
      </trkpt>
      <trkpt lat="48.37319" lon="2.37392">
        <ele>111.40000152588</ele>
        <time>2025-06-06T16:37:21.000Z</time>
      </trkpt>
      <trkpt lat="48.37321" lon="2.37386">
        <ele>111.80000305176</ele>
        <time>2025-06-06T16:37:23.000Z</time>
      </trkpt>
      <trkpt lat="48.37326" lon="2.37374">
        <ele>112.19999694824</ele>
        <time>2025-06-06T16:37:27.000Z</time>
      </trkpt>
      <trkpt lat="48.37332" lon="2.37364">
        <ele>112.80000305176</ele>
        <time>2025-06-06T16:37:30.000Z</time>
      </trkpt>
      <trkpt lat="48.37338" lon="2.37354">
        <ele>113.40000152588</ele>
        <time>2025-06-06T16:37:33.000Z</time>
      </trkpt>
      <trkpt lat="48.37346" lon="2.37342">
        <ele>114.40000152588</ele>
        <time>2025-06-06T16:37:37.000Z</time>
      </trkpt>
      <trkpt lat="48.37351" lon="2.37336">
        <ele>114.59999847412</ele>
        <time>2025-06-06T16:37:39.000Z</time>
      </trkpt>
      <trkpt lat="48.37366" lon="2.37315">
        <ele>115.40000152588</ele>
        <time>2025-06-06T16:37:47.000Z</time>
      </trkpt>
      <trkpt lat="48.37369" lon="2.37298">
        <ele>116.59999847412</ele>
        <time>2025-06-06T16:37:52.000Z</time>
      </trkpt>
      <trkpt lat="48.3737" lon="2.3729">
        <ele>117</ele>
        <time>2025-06-06T16:37:54.000Z</time>
      </trkpt>
      <trkpt lat="48.37371" lon="2.37275">
        <ele>117.59999847412</ele>
        <time>2025-06-06T16:37:57.000Z</time>
      </trkpt>
      <trkpt lat="48.37373" lon="2.37256">
        <ele>117.59999847412</ele>
        <time>2025-06-06T16:38:01.000Z</time>
      </trkpt>
      <trkpt lat="48.37374" lon="2.37223">
        <ele>118</ele>
        <time>2025-06-06T16:38:08.000Z</time>
      </trkpt>
      <trkpt lat="48.37378" lon="2.3718">
        <ele>118</ele>
        <time>2025-06-06T16:38:16.000Z</time>
      </trkpt>
      <trkpt lat="48.37378" lon="2.37174">
        <ele>118.19999694824</ele>
        <time>2025-06-06T16:38:17.000Z</time>
      </trkpt>
      <trkpt lat="48.37383" lon="2.37118">
        <ele>118.80000305176</ele>
        <time>2025-06-06T16:38:27.000Z</time>
      </trkpt>
      <trkpt lat="48.37387" lon="2.37065">
        <ele>118.80000305176</ele>
        <time>2025-06-06T16:38:36.000Z</time>
      </trkpt>
      <trkpt lat="48.37389" lon="2.37015">
        <ele>118.80000305176</ele>
        <time>2025-06-06T16:38:44.000Z</time>
      </trkpt>
      <trkpt lat="48.37391" lon="2.36935">
        <ele>118.80000305176</ele>
        <time>2025-06-06T16:38:56.000Z</time>
      </trkpt>
      <trkpt lat="48.37392" lon="2.36871">
        <ele>118.59999847412</ele>
        <time>2025-06-06T16:39:05.000Z</time>
      </trkpt>
      <trkpt lat="48.37394" lon="2.36818">
        <ele>117.80000305176</ele>
        <time>2025-06-06T16:39:13.000Z</time>
      </trkpt>
      <trkpt lat="48.37395" lon="2.36766">
        <ele>117</ele>
        <time>2025-06-06T16:39:21.000Z</time>
      </trkpt>
      <trkpt lat="48.37396" lon="2.36711">
        <ele>117</ele>
        <time>2025-06-06T16:39:29.000Z</time>
      </trkpt>
      <trkpt lat="48.37397" lon="2.36638">
        <ele>117.40000152588</ele>
        <time>2025-06-06T16:39:39.000Z</time>
      </trkpt>
      <trkpt lat="48.37399" lon="2.36578">
        <ele>117.59999847412</ele>
        <time>2025-06-06T16:39:48.000Z</time>
      </trkpt>
      <trkpt lat="48.374" lon="2.3653">
        <ele>117.40000152588</ele>
        <time>2025-06-06T16:39:55.000Z</time>
      </trkpt>
      <trkpt lat="48.37402" lon="2.3647">
        <ele>117</ele>
        <time>2025-06-06T16:40:04.000Z</time>
      </trkpt>
      <trkpt lat="48.37403" lon="2.36412">
        <ele>116.80000305176</ele>
        <time>2025-06-06T16:40:13.000Z</time>
      </trkpt>
      <trkpt lat="48.37404" lon="2.3636">
        <ele>117.19999694824</ele>
        <time>2025-06-06T16:40:21.000Z</time>
      </trkpt>
      <trkpt lat="48.37406" lon="2.36312">
        <ele>117.59999847412</ele>
        <time>2025-06-06T16:40:28.000Z</time>
      </trkpt>
      <trkpt lat="48.37407" lon="2.36258">
        <ele>117.40000152588</ele>
        <time>2025-06-06T16:40:36.000Z</time>
      </trkpt>
      <trkpt lat="48.37408" lon="2.36245">
        <ele>117.40000152588</ele>
        <time>2025-06-06T16:40:38.000Z</time>
      </trkpt>
      <trkpt lat="48.37409" lon="2.36231">
        <ele>117.40000152588</ele>
        <time>2025-06-06T16:40:40.000Z</time>
      </trkpt>
      <trkpt lat="48.37409" lon="2.36218">
        <ele>117.40000152588</ele>
        <time>2025-06-06T16:40:42.000Z</time>
      </trkpt>
      <trkpt lat="48.37411" lon="2.36159">
        <ele>117</ele>
        <time>2025-06-06T16:40:51.000Z</time>
      </trkpt>
      <trkpt lat="48.37411" lon="2.36104">
        <ele>116.59999847412</ele>
        <time>2025-06-06T16:40:59.000Z</time>
      </trkpt>
      <trkpt lat="48.37413" lon="2.36042">
        <ele>116.59999847412</ele>
        <time>2025-06-06T16:41:08.000Z</time>
      </trkpt>
      <trkpt lat="48.37416" lon="2.35993">
        <ele>116.59999847412</ele>
        <time>2025-06-06T16:41:16.000Z</time>
      </trkpt>
      <trkpt lat="48.37427" lon="2.35993">
        <ele>116.59999847412</ele>
        <time>2025-06-06T16:41:19.000Z</time>
      </trkpt>
      <trkpt lat="48.37436" lon="2.35999">
        <ele>117</ele>
        <time>2025-06-06T16:41:21.000Z</time>
      </trkpt>
      <trkpt lat="48.37445" lon="2.36006">
        <ele>117</ele>
        <time>2025-06-06T16:41:23.000Z</time>
      </trkpt>
      <trkpt lat="48.37455" lon="2.36013">
        <ele>117</ele>
        <time>2025-06-06T16:41:25.000Z</time>
      </trkpt>
      <trkpt lat="48.37464" lon="2.3602">
        <ele>118.19999694824</ele>
        <time>2025-06-06T16:41:27.000Z</time>
      </trkpt>
      <trkpt lat="48.37497" lon="2.36043">
        <ele>118.80000305176</ele>
        <time>2025-06-06T16:41:34.000Z</time>
      </trkpt>
      <trkpt lat="48.3755" lon="2.36079">
        <ele>118.19999694824</ele>
        <time>2025-06-06T16:41:45.000Z</time>
      </trkpt>
      <trkpt lat="48.37592" lon="2.36105">
        <ele>117.59999847412</ele>
        <time>2025-06-06T16:41:53.000Z</time>
      </trkpt>
      <trkpt lat="48.37624" lon="2.36126">
        <ele>116.80000305176</ele>
        <time>2025-06-06T16:41:59.000Z</time>
      </trkpt>
      <trkpt lat="48.37629" lon="2.36129">
        <ele>116.59999847412</ele>
        <time>2025-06-06T16:42:00.000Z</time>
      </trkpt>
      <trkpt lat="48.37655" lon="2.36144">
        <ele>115.59999847412</ele>
        <time>2025-06-06T16:42:05.000Z</time>
      </trkpt>
      <trkpt lat="48.3767" lon="2.36153">
        <ele>115.19999694824</ele>
        <time>2025-06-06T16:42:08.000Z</time>
      </trkpt>
      <trkpt lat="48.37681" lon="2.3616">
        <ele>114.59999847412</ele>
        <time>2025-06-06T16:42:10.000Z</time>
      </trkpt>
      <trkpt lat="48.37702" lon="2.36179">
        <ele>113.19999694824</ele>
        <time>2025-06-06T16:42:14.000Z</time>
      </trkpt>
      <trkpt lat="48.37707" lon="2.36184">
        <ele>113.19999694824</ele>
        <time>2025-06-06T16:42:15.000Z</time>
      </trkpt>
      <trkpt lat="48.3771" lon="2.36189">
        <ele>113</ele>
        <time>2025-06-06T16:42:16.000Z</time>
      </trkpt>
      <trkpt lat="48.37712" lon="2.362">
        <ele>112.59999847412</ele>
        <time>2025-06-06T16:42:18.000Z</time>
      </trkpt>
      <trkpt lat="48.37715" lon="2.3622">
        <ele>112.40000152588</ele>
        <time>2025-06-06T16:42:22.000Z</time>
      </trkpt>
      <trkpt lat="48.37717" lon="2.36224">
        <ele>112.19999694824</ele>
        <time>2025-06-06T16:42:23.000Z</time>
      </trkpt>
      <trkpt lat="48.37721" lon="2.36233">
        <ele>112.19999694824</ele>
        <time>2025-06-06T16:42:25.000Z</time>
      </trkpt>
      <trkpt lat="48.37733" lon="2.36255">
        <ele>111.19999694824</ele>
        <time>2025-06-06T16:42:29.000Z</time>
      </trkpt>
      <trkpt lat="48.37736" lon="2.36263">
        <ele>110.80000305176</ele>
        <time>2025-06-06T16:42:30.000Z</time>
      </trkpt>
      <trkpt lat="48.3775" lon="2.36289">
        <ele>110.40000152588</ele>
        <time>2025-06-06T16:42:33.000Z</time>
      </trkpt>
      <trkpt lat="48.3776" lon="2.36309">
        <ele>109.59999847412</ele>
        <time>2025-06-06T16:42:35.000Z</time>
      </trkpt>
      <trkpt lat="48.37772" lon="2.36333">
        <ele>108.59999847412</ele>
        <time>2025-06-06T16:42:37.000Z</time>
      </trkpt>
      <trkpt lat="48.37782" lon="2.36358">
        <ele>105.19999694824</ele>
        <time>2025-06-06T16:42:39.000Z</time>
      </trkpt>
      <trkpt lat="48.37785" lon="2.36372">
        <ele>104</ele>
        <time>2025-06-06T16:42:40.000Z</time>
      </trkpt>
      <trkpt lat="48.37787" lon="2.36386">
        <ele>102.19999694824</ele>
        <time>2025-06-06T16:42:41.000Z</time>
      </trkpt>
      <trkpt lat="48.37789" lon="2.36401">
        <ele>100.59999847412</ele>
        <time>2025-06-06T16:42:42.000Z</time>
      </trkpt>
      <trkpt lat="48.37791" lon="2.36416">
        <ele>99</ele>
        <time>2025-06-06T16:42:43.000Z</time>
      </trkpt>
      <trkpt lat="48.37795" lon="2.36445">
        <ele>97</ele>
        <time>2025-06-06T16:42:45.000Z</time>
      </trkpt>
      <trkpt lat="48.37802" lon="2.36472">
        <ele>95.800003051758</ele>
        <time>2025-06-06T16:42:47.000Z</time>
      </trkpt>
      <trkpt lat="48.37814" lon="2.36511">
        <ele>94.199996948242</ele>
        <time>2025-06-06T16:42:50.000Z</time>
      </trkpt>
      <trkpt lat="48.37823" lon="2.36535">
        <ele>92.599998474121</ele>
        <time>2025-06-06T16:42:52.000Z</time>
      </trkpt>
      <trkpt lat="48.37828" lon="2.36546">
        <ele>91.599998474121</ele>
        <time>2025-06-06T16:42:53.000Z</time>
      </trkpt>
      <trkpt lat="48.37835" lon="2.36557">
        <ele>91</ele>
        <time>2025-06-06T16:42:54.000Z</time>
      </trkpt>
      <trkpt lat="48.37856" lon="2.36586">
        <ele>89.400001525879</ele>
        <time>2025-06-06T16:42:57.000Z</time>
      </trkpt>
      <trkpt lat="48.37869" lon="2.36608">
        <ele>88.400001525879</ele>
        <time>2025-06-06T16:42:59.000Z</time>
      </trkpt>
      <trkpt lat="48.37881" lon="2.36631">
        <ele>87.599998474121</ele>
        <time>2025-06-06T16:43:01.000Z</time>
      </trkpt>
      <trkpt lat="48.37885" lon="2.36644">
        <ele>87</ele>
        <time>2025-06-06T16:43:02.000Z</time>
      </trkpt>
      <trkpt lat="48.37894" lon="2.36669">
        <ele>85.400001525879</ele>
        <time>2025-06-06T16:43:04.000Z</time>
      </trkpt>
      <trkpt lat="48.37904" lon="2.36692">
        <ele>84</ele>
        <time>2025-06-06T16:43:06.000Z</time>
      </trkpt>
      <trkpt lat="48.37909" lon="2.36703">
        <ele>83.400001525879</ele>
        <time>2025-06-06T16:43:07.000Z</time>
      </trkpt>
      <trkpt lat="48.37917" lon="2.36724">
        <ele>82.599998474121</ele>
        <time>2025-06-06T16:43:09.000Z</time>
      </trkpt>
      <trkpt lat="48.37926" lon="2.36756">
        <ele>81.199996948242</ele>
        <time>2025-06-06T16:43:12.000Z</time>
      </trkpt>
      <trkpt lat="48.37929" lon="2.36779">
        <ele>80.599998474121</ele>
        <time>2025-06-06T16:43:14.000Z</time>
      </trkpt>
      <trkpt lat="48.3793" lon="2.368">
        <ele>80.199996948242</ele>
        <time>2025-06-06T16:43:16.000Z</time>
      </trkpt>
      <trkpt lat="48.37932" lon="2.3681">
        <ele>80</ele>
        <time>2025-06-06T16:43:17.000Z</time>
      </trkpt>
      <trkpt lat="48.3794" lon="2.36837">
        <ele>79.800003051758</ele>
        <time>2025-06-06T16:43:20.000Z</time>
      </trkpt>
      <trkpt lat="48.37959" lon="2.36879">
        <ele>79.199996948242</ele>
        <time>2025-06-06T16:43:25.000Z</time>
      </trkpt>
      <trkpt lat="48.37981" lon="2.36916">
        <ele>79</ele>
        <time>2025-06-06T16:43:30.000Z</time>
      </trkpt>
      <trkpt lat="48.37993" lon="2.36929">
        <ele>79</ele>
        <time>2025-06-06T16:43:32.000Z</time>
      </trkpt>
      <trkpt lat="48.38004" lon="2.3694">
        <ele>79</ele>
        <time>2025-06-06T16:43:34.000Z</time>
      </trkpt>
      <trkpt lat="48.38028" lon="2.3696">
        <ele>77.800003051758</ele>
        <time>2025-06-06T16:43:38.000Z</time>
      </trkpt>
      <trkpt lat="48.38034" lon="2.36965">
        <ele>77.599998474121</ele>
        <time>2025-06-06T16:43:39.000Z</time>
      </trkpt>
      <trkpt lat="48.38059" lon="2.36989">
        <ele>76.800003051758</ele>
        <time>2025-06-06T16:43:43.000Z</time>
      </trkpt>
      <trkpt lat="48.38081" lon="2.37005">
        <ele>76.400001525879</ele>
        <time>2025-06-06T16:43:46.000Z</time>
      </trkpt>
      <trkpt lat="48.38088" lon="2.37011">
        <ele>76.400001525879</ele>
        <time>2025-06-06T16:43:47.000Z</time>
      </trkpt>
      <trkpt lat="48.38095" lon="2.37017">
        <ele>76.199996948242</ele>
        <time>2025-06-06T16:43:48.000Z</time>
      </trkpt>
      <trkpt lat="48.38108" lon="2.3703">
        <ele>75.199996948242</ele>
        <time>2025-06-06T16:43:50.000Z</time>
      </trkpt>
      <trkpt lat="48.3812" lon="2.37044">
        <ele>74</ele>
        <time>2025-06-06T16:43:52.000Z</time>
      </trkpt>
      <trkpt lat="48.38136" lon="2.37065">
        <ele>73.400001525879</ele>
        <time>2025-06-06T16:43:55.000Z</time>
      </trkpt>
      <trkpt lat="48.3815" lon="2.37087">
        <ele>72.599998474121</ele>
        <time>2025-06-06T16:43:58.000Z</time>
      </trkpt>
      <trkpt lat="48.38162" lon="2.37111">
        <ele>71.400001525879</ele>
        <time>2025-06-06T16:44:01.000Z</time>
      </trkpt>
      <trkpt lat="48.38165" lon="2.37118">
        <ele>71.199996948242</ele>
        <time>2025-06-06T16:44:02.000Z</time>
      </trkpt>
      <trkpt lat="48.38169" lon="2.37123">
        <ele>71.199996948242</ele>
        <time>2025-06-06T16:44:03.000Z</time>
      </trkpt>
      <trkpt lat="48.38173" lon="2.37126">
        <ele>71.199996948242</ele>
        <time>2025-06-06T16:44:04.000Z</time>
      </trkpt>
      <trkpt lat="48.38185" lon="2.37131">
        <ele>71.199996948242</ele>
        <time>2025-06-06T16:44:07.000Z</time>
      </trkpt>
      <trkpt lat="48.38191" lon="2.37133">
        <ele>71.199996948242</ele>
        <time>2025-06-06T16:44:09.000Z</time>
      </trkpt>
      <trkpt lat="48.38202" lon="2.37135">
        <ele>72.400001525879</ele>
        <time>2025-06-06T16:44:14.000Z</time>
      </trkpt>
      <trkpt lat="48.38211" lon="2.3714">
        <ele>73.199996948242</ele>
        <time>2025-06-06T16:44:20.000Z</time>
      </trkpt>
      <trkpt lat="48.38213" lon="2.3714">
        <ele>74.199996948242</ele>
        <time>2025-06-06T16:44:22.000Z</time>
      </trkpt>
      <trkpt lat="48.38214" lon="2.3714">
        <ele>74.800003051758</ele>
        <time>2025-06-06T16:44:23.000Z</time>
      </trkpt>
      <trkpt lat="48.38218" lon="2.3714">
        <ele>75.800003051758</ele>
        <time>2025-06-06T16:44:25.000Z</time>
      </trkpt>
      <trkpt lat="48.38219" lon="2.3714">
        <ele>76.400001525879</ele>
        <time>2025-06-06T16:44:26.000Z</time>
      </trkpt>
      <trkpt lat="48.38223" lon="2.37141">
        <ele>77</ele>
        <time>2025-06-06T16:44:28.000Z</time>
      </trkpt>
      <trkpt lat="48.38225" lon="2.37143">
        <ele>77.400001525879</ele>
        <time>2025-06-06T16:44:30.000Z</time>
      </trkpt>
      <trkpt lat="48.38228" lon="2.37144">
        <ele>78.400001525879</ele>
        <time>2025-06-06T16:44:32.000Z</time>
      </trkpt>
      <trkpt lat="48.3823" lon="2.37146">
        <ele>79.599998474121</ele>
        <time>2025-06-06T16:44:34.000Z</time>
      </trkpt>
      <trkpt lat="48.38232" lon="2.37146">
        <ele>81.199996948242</ele>
        <time>2025-06-06T16:44:36.000Z</time>
      </trkpt>
      <trkpt lat="48.38232" lon="2.37147">
        <ele>82.199996948242</ele>
        <time>2025-06-06T16:44:37.000Z</time>
      </trkpt>
      <trkpt lat="48.38232" lon="2.37147">
        <ele>83.400001525879</ele>
        <time>2025-06-06T16:44:41.000Z</time>
      </trkpt>
      <trkpt lat="48.38241" lon="2.37143">
        <ele>84</ele>
        <time>2025-06-06T16:44:49.000Z</time>
      </trkpt>
      <trkpt lat="48.38249" lon="2.37144">
        <ele>84.400001525879</ele>
        <time>2025-06-06T16:44:53.000Z</time>
      </trkpt>
      <trkpt lat="48.38254" lon="2.37146">
        <ele>85</ele>
        <time>2025-06-06T16:44:56.000Z</time>
      </trkpt>
      <trkpt lat="48.3826" lon="2.37148">
        <ele>85.400001525879</ele>
        <time>2025-06-06T16:44:58.000Z</time>
      </trkpt>
      <trkpt lat="48.38272" lon="2.37152">
        <ele>85.599998474121</ele>
        <time>2025-06-06T16:45:02.000Z</time>
      </trkpt>
      <trkpt lat="48.38288" lon="2.37161">
        <ele>85.400001525879</ele>
        <time>2025-06-06T16:45:08.000Z</time>
      </trkpt>
      <trkpt lat="48.38305" lon="2.37179">
        <ele>85</ele>
        <time>2025-06-06T16:45:13.000Z</time>
      </trkpt>
      <trkpt lat="48.38318" lon="2.37194">
        <ele>85</ele>
        <time>2025-06-06T16:45:19.000Z</time>
      </trkpt>
      <trkpt lat="48.38328" lon="2.372">
        <ele>85.400001525879</ele>
        <time>2025-06-06T16:45:23.000Z</time>
      </trkpt>
      <trkpt lat="48.38333" lon="2.37203">
        <ele>86.400001525879</ele>
        <time>2025-06-06T16:45:25.000Z</time>
      </trkpt>
      <trkpt lat="48.38342" lon="2.37209">
        <ele>87.800003051758</ele>
        <time>2025-06-06T16:45:29.000Z</time>
      </trkpt>
      <trkpt lat="48.38349" lon="2.37212">
        <ele>88.599998474121</ele>
        <time>2025-06-06T16:45:31.000Z</time>
      </trkpt>
      <trkpt lat="48.38352" lon="2.37212">
        <ele>89</ele>
        <time>2025-06-06T16:45:32.000Z</time>
      </trkpt>
      <trkpt lat="48.38363" lon="2.37211">
        <ele>90</ele>
        <time>2025-06-06T16:45:35.000Z</time>
      </trkpt>
      <trkpt lat="48.38369" lon="2.37213">
        <ele>90.400001525879</ele>
        <time>2025-06-06T16:45:37.000Z</time>
      </trkpt>
      <trkpt lat="48.38379" lon="2.37225">
        <ele>90.400001525879</ele>
        <time>2025-06-06T16:45:41.000Z</time>
      </trkpt>
      <trkpt lat="48.38392" lon="2.37239">
        <ele>90.800003051758</ele>
        <time>2025-06-06T16:45:45.000Z</time>
      </trkpt>
      <trkpt lat="48.38406" lon="2.37248">
        <ele>91</ele>
        <time>2025-06-06T16:45:49.000Z</time>
      </trkpt>
      <trkpt lat="48.38413" lon="2.37254">
        <ele>91</ele>
        <time>2025-06-06T16:45:51.000Z</time>
      </trkpt>
      <trkpt lat="48.38427" lon="2.37273">
        <ele>91.400001525879</ele>
        <time>2025-06-06T16:45:57.000Z</time>
      </trkpt>
      <trkpt lat="48.38432" lon="2.37281">
        <ele>91.800003051758</ele>
        <time>2025-06-06T16:45:59.000Z</time>
      </trkpt>
      <trkpt lat="48.38437" lon="2.37287">
        <ele>92</ele>
        <time>2025-06-06T16:46:01.000Z</time>
      </trkpt>
      <trkpt lat="48.38453" lon="2.37308">
        <ele>92.400001525879</ele>
        <time>2025-06-06T16:46:08.000Z</time>
      </trkpt>
      <trkpt lat="48.38455" lon="2.37312">
        <ele>92.800003051758</ele>
        <time>2025-06-06T16:46:09.000Z</time>
      </trkpt>
      <trkpt lat="48.3847" lon="2.37323">
        <ele>92.800003051758</ele>
        <time>2025-06-06T16:46:13.000Z</time>
      </trkpt>
      <trkpt lat="48.38495" lon="2.3734">
        <ele>92.800003051758</ele>
        <time>2025-06-06T16:46:19.000Z</time>
      </trkpt>
      <trkpt lat="48.38509" lon="2.37359">
        <ele>92</ele>
        <time>2025-06-06T16:46:24.000Z</time>
      </trkpt>
      <trkpt lat="48.38525" lon="2.37366">
        <ele>91.599998474121</ele>
        <time>2025-06-06T16:46:28.000Z</time>
      </trkpt>
      <trkpt lat="48.38529" lon="2.37369">
        <ele>91</ele>
        <time>2025-06-06T16:46:29.000Z</time>
      </trkpt>
      <trkpt lat="48.38537" lon="2.37374">
        <ele>90.199996948242</ele>
        <time>2025-06-06T16:46:31.000Z</time>
      </trkpt>
      <trkpt lat="48.38554" lon="2.37386">
        <ele>89.599998474121</ele>
        <time>2025-06-06T16:46:35.000Z</time>
      </trkpt>
      <trkpt lat="48.38575" lon="2.37404">
        <ele>89.599998474121</ele>
        <time>2025-06-06T16:46:41.000Z</time>
      </trkpt>
      <trkpt lat="48.38587" lon="2.37413">
        <ele>89.599998474121</ele>
        <time>2025-06-06T16:46:46.000Z</time>
      </trkpt>
      <trkpt lat="48.38589" lon="2.37412">
        <ele>89.599998474121</ele>
        <time>2025-06-06T16:46:47.000Z</time>
      </trkpt>
      <trkpt lat="48.38592" lon="2.37406">
        <ele>89.800003051758</ele>
        <time>2025-06-06T16:46:50.000Z</time>
      </trkpt>
      <trkpt lat="48.38594" lon="2.37393">
        <ele>91.199996948242</ele>
        <time>2025-06-06T16:46:57.000Z</time>
      </trkpt>
      <trkpt lat="48.38594" lon="2.37392">
        <ele>91.599998474121</ele>
        <time>2025-06-06T16:46:58.000Z</time>
      </trkpt>
      <trkpt lat="48.38595" lon="2.37389">
        <ele>92.199996948242</ele>
        <time>2025-06-06T16:47:00.000Z</time>
      </trkpt>
      <trkpt lat="48.38595" lon="2.37384">
        <ele>93.599998474121</ele>
        <time>2025-06-06T16:47:04.000Z</time>
      </trkpt>
      <trkpt lat="48.38594" lon="2.37383">
        <ele>94</ele>
        <time>2025-06-06T16:47:05.000Z</time>
      </trkpt>
      <trkpt lat="48.38594" lon="2.37382">
        <ele>94.199996948242</ele>
        <time>2025-06-06T16:47:06.000Z</time>
      </trkpt>
      <trkpt lat="48.38593" lon="2.3738">
        <ele>95</ele>
        <time>2025-06-06T16:47:08.000Z</time>
      </trkpt>
      <trkpt lat="48.38593" lon="2.37379">
        <ele>95.400001525879</ele>
        <time>2025-06-06T16:47:09.000Z</time>
      </trkpt>
      <trkpt lat="48.38593" lon="2.37374">
        <ele>96.199996948242</ele>
        <time>2025-06-06T16:47:11.000Z</time>
      </trkpt>
      <trkpt lat="48.38593" lon="2.37371">
        <ele>96.800003051758</ele>
        <time>2025-06-06T16:47:13.000Z</time>
      </trkpt>
      <trkpt lat="48.38594" lon="2.37367">
        <ele>97.400001525879</ele>
        <time>2025-06-06T16:47:15.000Z</time>
      </trkpt>
      <trkpt lat="48.38594" lon="2.37363">
        <ele>98.599998474121</ele>
        <time>2025-06-06T16:47:18.000Z</time>
      </trkpt>
      <trkpt lat="48.38594" lon="2.3736">
        <ele>99.400001525879</ele>
        <time>2025-06-06T16:47:20.000Z</time>
      </trkpt>
      <trkpt lat="48.38594" lon="2.37359">
        <ele>99.800003051758</ele>
        <time>2025-06-06T16:47:21.000Z</time>
      </trkpt>
      <trkpt lat="48.38594" lon="2.37353">
        <ele>101</ele>
        <time>2025-06-06T16:47:24.000Z</time>
      </trkpt>
      <trkpt lat="48.38594" lon="2.37348">
        <ele>102</ele>
        <time>2025-06-06T16:47:27.000Z</time>
      </trkpt>
      <trkpt lat="48.38595" lon="2.37345">
        <ele>103.19999694824</ele>
        <time>2025-06-06T16:47:30.000Z</time>
      </trkpt>
      <trkpt lat="48.38595" lon="2.37341">
        <ele>104.40000152588</ele>
        <time>2025-06-06T16:47:33.000Z</time>
      </trkpt>
      <trkpt lat="48.38595" lon="2.37338">
        <ele>105.59999847412</ele>
        <time>2025-06-06T16:47:35.000Z</time>
      </trkpt>
      <trkpt lat="48.38593" lon="2.3733">
        <ele>106.59999847412</ele>
        <time>2025-06-06T16:47:40.000Z</time>
      </trkpt>
      <trkpt lat="48.38593" lon="2.37326">
        <ele>107</ele>
        <time>2025-06-06T16:47:43.000Z</time>
      </trkpt>
      <trkpt lat="48.38592" lon="2.37316">
        <ele>107.80000305176</ele>
        <time>2025-06-06T16:47:47.000Z</time>
      </trkpt>
      <trkpt lat="48.3859" lon="2.37306">
        <ele>108.80000305176</ele>
        <time>2025-06-06T16:47:50.000Z</time>
      </trkpt>
      <trkpt lat="48.38591" lon="2.37302">
        <ele>109</ele>
        <time>2025-06-06T16:47:51.000Z</time>
      </trkpt>
      <trkpt lat="48.38594" lon="2.37284">
        <ele>109.59999847412</ele>
        <time>2025-06-06T16:47:57.000Z</time>
      </trkpt>
      <trkpt lat="48.38595" lon="2.37272">
        <ele>110</ele>
        <time>2025-06-06T16:48:00.000Z</time>
      </trkpt>
      <trkpt lat="48.38594" lon="2.37257">
        <ele>111</ele>
        <time>2025-06-06T16:48:04.000Z</time>
      </trkpt>
      <trkpt lat="48.38595" lon="2.37254">
        <ele>111.19999694824</ele>
        <time>2025-06-06T16:48:05.000Z</time>
      </trkpt>
      <trkpt lat="48.38596" lon="2.37238">
        <ele>112</ele>
        <time>2025-06-06T16:48:10.000Z</time>
      </trkpt>
      <trkpt lat="48.38596" lon="2.37235">
        <ele>112</ele>
        <time>2025-06-06T16:48:11.000Z</time>
      </trkpt>
      <trkpt lat="48.38599" lon="2.37223">
        <ele>113.19999694824</ele>
        <time>2025-06-06T16:48:15.000Z</time>
      </trkpt>
      <trkpt lat="48.38601" lon="2.37215">
        <ele>114.19999694824</ele>
        <time>2025-06-06T16:48:18.000Z</time>
      </trkpt>
      <trkpt lat="48.38601" lon="2.37212">
        <ele>114.40000152588</ele>
        <time>2025-06-06T16:48:19.000Z</time>
      </trkpt>
      <trkpt lat="48.38606" lon="2.37198">
        <ele>115.80000305176</ele>
        <time>2025-06-06T16:48:23.000Z</time>
      </trkpt>
      <trkpt lat="48.38608" lon="2.37195">
        <ele>116</ele>
        <time>2025-06-06T16:48:24.000Z</time>
      </trkpt>
      <trkpt lat="48.38617" lon="2.37183">
        <ele>116.59999847412</ele>
        <time>2025-06-06T16:48:29.000Z</time>
      </trkpt>
      <trkpt lat="48.38621" lon="2.37177">
        <ele>117</ele>
        <time>2025-06-06T16:48:31.000Z</time>
      </trkpt>
      <trkpt lat="48.38635" lon="2.37159">
        <ele>117.59999847412</ele>
        <time>2025-06-06T16:48:38.000Z</time>
      </trkpt>
      <trkpt lat="48.38637" lon="2.37156">
        <ele>117.59999847412</ele>
        <time>2025-06-06T16:48:39.000Z</time>
      </trkpt>
      <trkpt lat="48.3864" lon="2.37143">
        <ele>117.59999847412</ele>
        <time>2025-06-06T16:48:42.000Z</time>
      </trkpt>
      <trkpt lat="48.38638" lon="2.37109">
        <ele>117.80000305176</ele>
        <time>2025-06-06T16:48:49.000Z</time>
      </trkpt>
      <trkpt lat="48.38643" lon="2.3707">
        <ele>117.80000305176</ele>
        <time>2025-06-06T16:48:54.000Z</time>
      </trkpt>
      <trkpt lat="48.38645" lon="2.37041">
        <ele>117.19999694824</ele>
        <time>2025-06-06T16:48:59.000Z</time>
      </trkpt>
      <trkpt lat="48.38638" lon="2.37005">
        <ele>116.80000305176</ele>
        <time>2025-06-06T16:49:04.000Z</time>
      </trkpt>
      <trkpt lat="48.38636" lon="2.36996">
        <ele>116.59999847412</ele>
        <time>2025-06-06T16:49:05.000Z</time>
      </trkpt>
      <trkpt lat="48.38637" lon="2.36981">
        <ele>116.19999694824</ele>
        <time>2025-06-06T16:49:07.000Z</time>
      </trkpt>
      <trkpt lat="48.38636" lon="2.36967">
        <ele>115.80000305176</ele>
        <time>2025-06-06T16:49:09.000Z</time>
      </trkpt>
      <trkpt lat="48.38632" lon="2.36953">
        <ele>115.59999847412</ele>
        <time>2025-06-06T16:49:11.000Z</time>
      </trkpt>
      <trkpt lat="48.38629" lon="2.36931">
        <ele>115.40000152588</ele>
        <time>2025-06-06T16:49:14.000Z</time>
      </trkpt>
      <trkpt lat="48.38632" lon="2.36918">
        <ele>115.19999694824</ele>
        <time>2025-06-06T16:49:16.000Z</time>
      </trkpt>
      <trkpt lat="48.38634" lon="2.36902">
        <ele>115</ele>
        <time>2025-06-06T16:49:18.000Z</time>
      </trkpt>
      <trkpt lat="48.38635" lon="2.36894">
        <ele>114.80000305176</ele>
        <time>2025-06-06T16:49:19.000Z</time>
      </trkpt>
      <trkpt lat="48.38642" lon="2.36882">
        <ele>114.40000152588</ele>
        <time>2025-06-06T16:49:23.000Z</time>
      </trkpt>
      <trkpt lat="48.38653" lon="2.36899">
        <ele>113.80000305176</ele>
        <time>2025-06-06T16:49:27.000Z</time>
      </trkpt>
      <trkpt lat="48.38666" lon="2.36918">
        <ele>112.80000305176</ele>
        <time>2025-06-06T16:49:31.000Z</time>
      </trkpt>
      <trkpt lat="48.38672" lon="2.3693">
        <ele>112.19999694824</ele>
        <time>2025-06-06T16:49:33.000Z</time>
      </trkpt>
      <trkpt lat="48.38679" lon="2.36943">
        <ele>111.40000152588</ele>
        <time>2025-06-06T16:49:35.000Z</time>
      </trkpt>
      <trkpt lat="48.38689" lon="2.36964">
        <ele>110</ele>
        <time>2025-06-06T16:49:38.000Z</time>
      </trkpt>
      <trkpt lat="48.38692" lon="2.36971">
        <ele>109.40000152588</ele>
        <time>2025-06-06T16:49:39.000Z</time>
      </trkpt>
      <trkpt lat="48.38695" lon="2.36977">
        <ele>108.80000305176</ele>
        <time>2025-06-06T16:49:40.000Z</time>
      </trkpt>
      <trkpt lat="48.38709" lon="2.37008">
        <ele>108</ele>
        <time>2025-06-06T16:49:46.000Z</time>
      </trkpt>
      <trkpt lat="48.38714" lon="2.37031">
        <ele>108</ele>
        <time>2025-06-06T16:49:51.000Z</time>
      </trkpt>
      <trkpt lat="48.38721" lon="2.37054">
        <ele>108.80000305176</ele>
        <time>2025-06-06T16:49:56.000Z</time>
      </trkpt>
      <trkpt lat="48.38728" lon="2.3708">
        <ele>109.19999694824</ele>
        <time>2025-06-06T16:50:02.000Z</time>
      </trkpt>
      <trkpt lat="48.38733" lon="2.37087">
        <ele>109.59999847412</ele>
        <time>2025-06-06T16:50:04.000Z</time>
      </trkpt>
      <trkpt lat="48.38742" lon="2.37097">
        <ele>110.40000152588</ele>
        <time>2025-06-06T16:50:07.000Z</time>
      </trkpt>
      <trkpt lat="48.38746" lon="2.37101">
        <ele>110.80000305176</ele>
        <time>2025-06-06T16:50:08.000Z</time>
      </trkpt>
      <trkpt lat="48.38761" lon="2.37119">
        <ele>111.40000152588</ele>
        <time>2025-06-06T16:50:13.000Z</time>
      </trkpt>
      <trkpt lat="48.38769" lon="2.37142">
        <ele>111.40000152588</ele>
        <time>2025-06-06T16:50:18.000Z</time>
      </trkpt>
      <trkpt lat="48.38773" lon="2.37162">
        <ele>111.40000152588</ele>
        <time>2025-06-06T16:50:23.000Z</time>
      </trkpt>
      <trkpt lat="48.38777" lon="2.37192">
        <ele>111.40000152588</ele>
        <time>2025-06-06T16:50:30.000Z</time>
      </trkpt>
      <trkpt lat="48.38784" lon="2.37212">
        <ele>111.40000152588</ele>
        <time>2025-06-06T16:50:35.000Z</time>
      </trkpt>
      <trkpt lat="48.38788" lon="2.37218">
        <ele>111.40000152588</ele>
        <time>2025-06-06T16:50:39.000Z</time>
      </trkpt>
      <trkpt lat="48.38791" lon="2.37222">
        <ele>111.59999847412</ele>
        <time>2025-06-06T16:50:43.000Z</time>
      </trkpt>
      <trkpt lat="48.38793" lon="2.37227">
        <ele>110.80000305176</ele>
        <time>2025-06-06T16:50:56.000Z</time>
      </trkpt>
      <trkpt lat="48.3879" lon="2.37223">
        <ele>111</ele>
        <time>2025-06-06T16:51:09.000Z</time>
      </trkpt>
      <trkpt lat="48.38786" lon="2.37229">
        <ele>110.80000305176</ele>
        <time>2025-06-06T16:51:12.000Z</time>
      </trkpt>
      <trkpt lat="48.38784" lon="2.37233">
        <ele>111</ele>
        <time>2025-06-06T16:51:14.000Z</time>
      </trkpt>
      <trkpt lat="48.38778" lon="2.37237">
        <ele>111.80000305176</ele>
        <time>2025-06-06T16:51:19.000Z</time>
      </trkpt>
      <trkpt lat="48.38777" lon="2.37237">
        <ele>112</ele>
        <time>2025-06-06T16:51:20.000Z</time>
      </trkpt>
      <trkpt lat="48.38775" lon="2.37237">
        <ele>112.19999694824</ele>
        <time>2025-06-06T16:51:21.000Z</time>
      </trkpt>
      <trkpt lat="48.38772" lon="2.37236">
        <ele>113.59999847412</ele>
        <time>2025-06-06T16:51:24.000Z</time>
      </trkpt>
      <trkpt lat="48.3877" lon="2.37236">
        <ele>114.59999847412</ele>
        <time>2025-06-06T16:51:26.000Z</time>
      </trkpt>
      <trkpt lat="48.38766" lon="2.37235">
        <ele>115.80000305176</ele>
        <time>2025-06-06T16:51:28.000Z</time>
      </trkpt>
      <trkpt lat="48.38757" lon="2.37236">
        <ele>116.80000305176</ele>
        <time>2025-06-06T16:51:32.000Z</time>
      </trkpt>
      <trkpt lat="48.38754" lon="2.37237">
        <ele>117</ele>
        <time>2025-06-06T16:51:33.000Z</time>
      </trkpt>
      <trkpt lat="48.3873" lon="2.37244">
        <ele>117.19999694824</ele>
        <time>2025-06-06T16:51:40.000Z</time>
      </trkpt>
      <trkpt lat="48.38696" lon="2.37254">
        <ele>117.19999694824</ele>
        <time>2025-06-06T16:51:48.000Z</time>
      </trkpt>
      <trkpt lat="48.38679" lon="2.37258">
        <ele>117</ele>
        <time>2025-06-06T16:51:52.000Z</time>
      </trkpt>
      <trkpt lat="48.3867" lon="2.37261">
        <ele>117</ele>
        <time>2025-06-06T16:51:54.000Z</time>
      </trkpt>
      <trkpt lat="48.38652" lon="2.37269">
        <ele>116.59999847412</ele>
        <time>2025-06-06T16:51:58.000Z</time>
      </trkpt>
      <trkpt lat="48.38647" lon="2.37278">
        <ele>116.59999847412</ele>
        <time>2025-06-06T16:52:00.000Z</time>
      </trkpt>
      <trkpt lat="48.38648" lon="2.37296">
        <ele>116.40000152588</ele>
        <time>2025-06-06T16:52:04.000Z</time>
      </trkpt>
      <trkpt lat="48.38648" lon="2.37301">
        <ele>116.40000152588</ele>
        <time>2025-06-06T16:52:05.000Z</time>
      </trkpt>
      <trkpt lat="48.38653" lon="2.37315">
        <ele>115.40000152588</ele>
        <time>2025-06-06T16:52:08.000Z</time>
      </trkpt>
      <trkpt lat="48.38658" lon="2.37326">
        <ele>114.80000305176</ele>
        <time>2025-06-06T16:52:10.000Z</time>
      </trkpt>
      <trkpt lat="48.38668" lon="2.37349">
        <ele>114.19999694824</ele>
        <time>2025-06-06T16:52:14.000Z</time>
      </trkpt>
      <trkpt lat="48.3867" lon="2.37353">
        <ele>114.19999694824</ele>
        <time>2025-06-06T16:52:15.000Z</time>
      </trkpt>
      <trkpt lat="48.38678" lon="2.37359">
        <ele>114</ele>
        <time>2025-06-06T16:52:17.000Z</time>
      </trkpt>
      <trkpt lat="48.38685" lon="2.37364">
        <ele>113.80000305176</ele>
        <time>2025-06-06T16:52:19.000Z</time>
      </trkpt>
      <trkpt lat="48.3869" lon="2.37372">
        <ele>113.19999694824</ele>
        <time>2025-06-06T16:52:21.000Z</time>
      </trkpt>
      <trkpt lat="48.38693" lon="2.37382">
        <ele>112.59999847412</ele>
        <time>2025-06-06T16:52:23.000Z</time>
      </trkpt>
      <trkpt lat="48.38695" lon="2.37386">
        <ele>112</ele>
        <time>2025-06-06T16:52:24.000Z</time>
      </trkpt>
      <trkpt lat="48.38697" lon="2.3739">
        <ele>110.59999847412</ele>
        <time>2025-06-06T16:52:25.000Z</time>
      </trkpt>
      <trkpt lat="48.387" lon="2.37393">
        <ele>108.80000305176</ele>
        <time>2025-06-06T16:52:26.000Z</time>
      </trkpt>
      <trkpt lat="48.38702" lon="2.37394">
        <ele>108.40000152588</ele>
        <time>2025-06-06T16:52:27.000Z</time>
      </trkpt>
      <trkpt lat="48.38707" lon="2.37395">
        <ele>108.19999694824</ele>
        <time>2025-06-06T16:52:30.000Z</time>
      </trkpt>
      <trkpt lat="48.3871" lon="2.37394">
        <ele>108</ele>
        <time>2025-06-06T16:52:32.000Z</time>
      </trkpt>
      <trkpt lat="48.38718" lon="2.37396">
        <ele>109.40000152588</ele>
        <time>2025-06-06T16:52:36.000Z</time>
      </trkpt>
      <trkpt lat="48.38719" lon="2.37398">
        <ele>110</ele>
        <time>2025-06-06T16:52:37.000Z</time>
      </trkpt>
      <trkpt lat="48.38721" lon="2.374">
        <ele>110.80000305176</ele>
        <time>2025-06-06T16:52:38.000Z</time>
      </trkpt>
      <trkpt lat="48.38723" lon="2.37404">
        <ele>111.40000152588</ele>
        <time>2025-06-06T16:52:39.000Z</time>
      </trkpt>
      <trkpt lat="48.38727" lon="2.37411">
        <ele>112.19999694824</ele>
        <time>2025-06-06T16:52:41.000Z</time>
      </trkpt>
      <trkpt lat="48.3873" lon="2.37414">
        <ele>112.40000152588</ele>
        <time>2025-06-06T16:52:42.000Z</time>
      </trkpt>
      <trkpt lat="48.38733" lon="2.37417">
        <ele>112.59999847412</ele>
        <time>2025-06-06T16:52:43.000Z</time>
      </trkpt>
      <trkpt lat="48.38747" lon="2.37429">
        <ele>112.59999847412</ele>
        <time>2025-06-06T16:52:47.000Z</time>
      </trkpt>
      <trkpt lat="48.38757" lon="2.37438">
        <ele>112.59999847412</ele>
        <time>2025-06-06T16:52:51.000Z</time>
      </trkpt>
      <trkpt lat="48.3877" lon="2.37447">
        <ele>112.19999694824</ele>
        <time>2025-06-06T16:52:56.000Z</time>
      </trkpt>
      <trkpt lat="48.38784" lon="2.37439">
        <ele>112</ele>
        <time>2025-06-06T16:53:00.000Z</time>
      </trkpt>
      <trkpt lat="48.38791" lon="2.37437">
        <ele>110.80000305176</ele>
        <time>2025-06-06T16:53:02.000Z</time>
      </trkpt>
      <trkpt lat="48.38797" lon="2.37436">
        <ele>108.80000305176</ele>
        <time>2025-06-06T16:53:04.000Z</time>
      </trkpt>
      <trkpt lat="48.38798" lon="2.37435">
        <ele>108.19999694824</ele>
        <time>2025-06-06T16:53:05.000Z</time>
      </trkpt>
      <trkpt lat="48.38806" lon="2.37427">
        <ele>107.59999847412</ele>
        <time>2025-06-06T16:53:09.000Z</time>
      </trkpt>
      <trkpt lat="48.38809" lon="2.37425">
        <ele>107.59999847412</ele>
        <time>2025-06-06T16:53:10.000Z</time>
      </trkpt>
      <trkpt lat="48.38813" lon="2.37421">
        <ele>107.40000152588</ele>
        <time>2025-06-06T16:53:12.000Z</time>
      </trkpt>
      <trkpt lat="48.38819" lon="2.37414">
        <ele>106.59999847412</ele>
        <time>2025-06-06T16:53:14.000Z</time>
      </trkpt>
      <trkpt lat="48.38823" lon="2.37403">
        <ele>106.40000152588</ele>
        <time>2025-06-06T16:53:18.000Z</time>
      </trkpt>
      <trkpt lat="48.38828" lon="2.3739">
        <ele>105</ele>
        <time>2025-06-06T16:53:23.000Z</time>
      </trkpt>
      <trkpt lat="48.38829" lon="2.37388">
        <ele>104</ele>
        <time>2025-06-06T16:53:25.000Z</time>
      </trkpt>
      <trkpt lat="48.38831" lon="2.37381">
        <ele>102.80000305176</ele>
        <time>2025-06-06T16:53:28.000Z</time>
      </trkpt>
      <trkpt lat="48.38833" lon="2.37377">
        <ele>102.40000152588</ele>
        <time>2025-06-06T16:53:29.000Z</time>
      </trkpt>
      <trkpt lat="48.38842" lon="2.37358">
        <ele>101.80000305176</ele>
        <time>2025-06-06T16:53:33.000Z</time>
      </trkpt>
      <trkpt lat="48.38847" lon="2.37346">
        <ele>101.40000152588</ele>
        <time>2025-06-06T16:53:36.000Z</time>
      </trkpt>
      <trkpt lat="48.38849" lon="2.37341">
        <ele>100.40000152588</ele>
        <time>2025-06-06T16:53:38.000Z</time>
      </trkpt>
      <trkpt lat="48.3885" lon="2.37339">
        <ele>100</ele>
        <time>2025-06-06T16:53:39.000Z</time>
      </trkpt>
      <trkpt lat="48.38851" lon="2.37332">
        <ele>98.599998474121</ele>
        <time>2025-06-06T16:53:42.000Z</time>
      </trkpt>
      <trkpt lat="48.38852" lon="2.37322">
        <ele>98.199996948242</ele>
        <time>2025-06-06T16:53:45.000Z</time>
      </trkpt>
      <trkpt lat="48.38846" lon="2.37305">
        <ele>98.199996948242</ele>
        <time>2025-06-06T16:53:50.000Z</time>
      </trkpt>
      <trkpt lat="48.38841" lon="2.3729">
        <ele>99.199996948242</ele>
        <time>2025-06-06T16:53:56.000Z</time>
      </trkpt>
      <trkpt lat="48.3884" lon="2.37287">
        <ele>99.599998474121</ele>
        <time>2025-06-06T16:53:57.000Z</time>
      </trkpt>
      <trkpt lat="48.38839" lon="2.37282">
        <ele>101</ele>
        <time>2025-06-06T16:53:59.000Z</time>
      </trkpt>
      <trkpt lat="48.38838" lon="2.37276">
        <ele>101.80000305176</ele>
        <time>2025-06-06T16:54:01.000Z</time>
      </trkpt>
      <trkpt lat="48.38838" lon="2.3727">
        <ele>102.19999694824</ele>
        <time>2025-06-06T16:54:03.000Z</time>
      </trkpt>
      <trkpt lat="48.38843" lon="2.37256">
        <ele>102.40000152588</ele>
        <time>2025-06-06T16:54:08.000Z</time>
      </trkpt>
      <trkpt lat="48.38857" lon="2.37239">
        <ele>102.40000152588</ele>
        <time>2025-06-06T16:54:13.000Z</time>
      </trkpt>
      <trkpt lat="48.38861" lon="2.37232">
        <ele>99.800003051758</ele>
        <time>2025-06-06T16:54:16.000Z</time>
      </trkpt>
      <trkpt lat="48.38861" lon="2.3723">
        <ele>98.199996948242</ele>
        <time>2025-06-06T16:54:17.000Z</time>
      </trkpt>
      <trkpt lat="48.3886" lon="2.37228">
        <ele>96.599998474121</ele>
        <time>2025-06-06T16:54:18.000Z</time>
      </trkpt>
      <trkpt lat="48.3886" lon="2.37226">
        <ele>94.599998474121</ele>
        <time>2025-06-06T16:54:19.000Z</time>
      </trkpt>
      <trkpt lat="48.38859" lon="2.37224">
        <ele>93</ele>
        <time>2025-06-06T16:54:20.000Z</time>
      </trkpt>
      <trkpt lat="48.38859" lon="2.37221">
        <ele>91.599998474121</ele>
        <time>2025-06-06T16:54:21.000Z</time>
      </trkpt>
      <trkpt lat="48.3886" lon="2.37218">
        <ele>89</ele>
        <time>2025-06-06T16:54:22.000Z</time>
      </trkpt>
      <trkpt lat="48.38863" lon="2.37212">
        <ele>87.800003051758</ele>
        <time>2025-06-06T16:54:25.000Z</time>
      </trkpt>
      <trkpt lat="48.38866" lon="2.37207">
        <ele>87.400001525879</ele>
        <time>2025-06-06T16:54:28.000Z</time>
      </trkpt>
      <trkpt lat="48.38868" lon="2.37202">
        <ele>87.199996948242</ele>
        <time>2025-06-06T16:54:30.000Z</time>
      </trkpt>
      <trkpt lat="48.38868" lon="2.37199">
        <ele>86.800003051758</ele>
        <time>2025-06-06T16:54:31.000Z</time>
      </trkpt>
      <trkpt lat="48.38866" lon="2.37192">
        <ele>86</ele>
        <time>2025-06-06T16:54:33.000Z</time>
      </trkpt>
      <trkpt lat="48.38864" lon="2.37188">
        <ele>85.800003051758</ele>
        <time>2025-06-06T16:54:34.000Z</time>
      </trkpt>
      <trkpt lat="48.38857" lon="2.37173">
        <ele>85.599998474121</ele>
        <time>2025-06-06T16:54:40.000Z</time>
      </trkpt>
      <trkpt lat="48.3885" lon="2.37157">
        <ele>85.400001525879</ele>
        <time>2025-06-06T16:54:46.000Z</time>
      </trkpt>
      <trkpt lat="48.38844" lon="2.37144">
        <ele>86.800003051758</ele>
        <time>2025-06-06T16:54:51.000Z</time>
      </trkpt>
      <trkpt lat="48.38841" lon="2.37141">
        <ele>87</ele>
        <time>2025-06-06T16:54:53.000Z</time>
      </trkpt>
      <trkpt lat="48.38835" lon="2.37133">
        <ele>88</ele>
        <time>2025-06-06T16:54:57.000Z</time>
      </trkpt>
      <trkpt lat="48.38832" lon="2.37129">
        <ele>88.400001525879</ele>
        <time>2025-06-06T16:54:59.000Z</time>
      </trkpt>
      <trkpt lat="48.38829" lon="2.37124">
        <ele>88.800003051758</ele>
        <time>2025-06-06T16:55:01.000Z</time>
      </trkpt>
      <trkpt lat="48.3882" lon="2.37111">
        <ele>89.400001525879</ele>
        <time>2025-06-06T16:55:06.000Z</time>
      </trkpt>
      <trkpt lat="48.38818" lon="2.37105">
        <ele>89.800003051758</ele>
        <time>2025-06-06T16:55:08.000Z</time>
      </trkpt>
      <trkpt lat="48.3881" lon="2.37092">
        <ele>90.599998474121</ele>
        <time>2025-06-06T16:55:13.000Z</time>
      </trkpt>
      <trkpt lat="48.38802" lon="2.37081">
        <ele>91</ele>
        <time>2025-06-06T16:55:17.000Z</time>
      </trkpt>
      <trkpt lat="48.38796" lon="2.37074">
        <ele>91.599998474121</ele>
        <time>2025-06-06T16:55:20.000Z</time>
      </trkpt>
      <trkpt lat="48.38791" lon="2.37069">
        <ele>92</ele>
        <time>2025-06-06T16:55:22.000Z</time>
      </trkpt>
      <trkpt lat="48.38782" lon="2.3706">
        <ele>92.400001525879</ele>
        <time>2025-06-06T16:55:26.000Z</time>
      </trkpt>
      <trkpt lat="48.38778" lon="2.37053">
        <ele>92.800003051758</ele>
        <time>2025-06-06T16:55:29.000Z</time>
      </trkpt>
      <trkpt lat="48.38778" lon="2.37051">
        <ele>93.199996948242</ele>
        <time>2025-06-06T16:55:30.000Z</time>
      </trkpt>
      <trkpt lat="48.38783" lon="2.37045">
        <ele>94.199996948242</ele>
        <time>2025-06-06T16:55:33.000Z</time>
      </trkpt>
      <trkpt lat="48.38784" lon="2.37043">
        <ele>94.199996948242</ele>
        <time>2025-06-06T16:55:34.000Z</time>
      </trkpt>
      <trkpt lat="48.3879" lon="2.37034">
        <ele>94.800003051758</ele>
        <time>2025-06-06T16:55:40.000Z</time>
      </trkpt>
      <trkpt lat="48.38801" lon="2.37026">
        <ele>94.800003051758</ele>
        <time>2025-06-06T16:55:45.000Z</time>
      </trkpt>
      <trkpt lat="48.38813" lon="2.37016">
        <ele>90.199996948242</ele>
        <time>2025-06-06T16:55:50.000Z</time>
      </trkpt>
      <trkpt lat="48.38815" lon="2.37014">
        <ele>88.400001525879</ele>
        <time>2025-06-06T16:55:51.000Z</time>
      </trkpt>
      <trkpt lat="48.38817" lon="2.3701">
        <ele>86.800003051758</ele>
        <time>2025-06-06T16:55:52.000Z</time>
      </trkpt>
      <trkpt lat="48.38819" lon="2.37007">
        <ele>85.599998474121</ele>
        <time>2025-06-06T16:55:53.000Z</time>
      </trkpt>
      <trkpt lat="48.38821" lon="2.37003">
        <ele>84.400001525879</ele>
        <time>2025-06-06T16:55:54.000Z</time>
      </trkpt>
      <trkpt lat="48.38825" lon="2.36994">
        <ele>83.199996948242</ele>
        <time>2025-06-06T16:55:56.000Z</time>
      </trkpt>
      <trkpt lat="48.38831" lon="2.36986">
        <ele>82.199996948242</ele>
        <time>2025-06-06T16:55:58.000Z</time>
      </trkpt>
      <trkpt lat="48.38835" lon="2.36976">
        <ele>81.599998474121</ele>
        <time>2025-06-06T16:56:00.000Z</time>
      </trkpt>
      <trkpt lat="48.38835" lon="2.36962">
        <ele>81</ele>
        <time>2025-06-06T16:56:02.000Z</time>
      </trkpt>
      <trkpt lat="48.38834" lon="2.36951">
        <ele>79.800003051758</ele>
        <time>2025-06-06T16:56:04.000Z</time>
      </trkpt>
      <trkpt lat="48.38831" lon="2.36943">
        <ele>78.800003051758</ele>
        <time>2025-06-06T16:56:06.000Z</time>
      </trkpt>
      <trkpt lat="48.3883" lon="2.36939">
        <ele>78.199996948242</ele>
        <time>2025-06-06T16:56:07.000Z</time>
      </trkpt>
      <trkpt lat="48.38826" lon="2.36926">
        <ele>77.800003051758</ele>
        <time>2025-06-06T16:56:10.000Z</time>
      </trkpt>
      <trkpt lat="48.38823" lon="2.36918">
        <ele>77.599998474121</ele>
        <time>2025-06-06T16:56:12.000Z</time>
      </trkpt>
      <trkpt lat="48.38813" lon="2.36888">
        <ele>77.599998474121</ele>
        <time>2025-06-06T16:56:20.000Z</time>
      </trkpt>
      <trkpt lat="48.38817" lon="2.36873">
        <ele>78.199996948242</ele>
        <time>2025-06-06T16:56:25.000Z</time>
      </trkpt>
      <trkpt lat="48.38821" lon="2.36867">
        <ele>78.599998474121</ele>
        <time>2025-06-06T16:56:28.000Z</time>
      </trkpt>
      <trkpt lat="48.38827" lon="2.36862">
        <ele>80</ele>
        <time>2025-06-06T16:56:32.000Z</time>
      </trkpt>
      <trkpt lat="48.38836" lon="2.36859">
        <ele>81</ele>
        <time>2025-06-06T16:56:36.000Z</time>
      </trkpt>
      <trkpt lat="48.38841" lon="2.36858">
        <ele>81.800003051758</ele>
        <time>2025-06-06T16:56:38.000Z</time>
      </trkpt>
      <trkpt lat="48.38847" lon="2.36856">
        <ele>82.199996948242</ele>
        <time>2025-06-06T16:56:40.000Z</time>
      </trkpt>
      <trkpt lat="48.38858" lon="2.36856">
        <ele>82.400001525879</ele>
        <time>2025-06-06T16:56:44.000Z</time>
      </trkpt>
      <trkpt lat="48.38878" lon="2.36861">
        <ele>82.199996948242</ele>
        <time>2025-06-06T16:56:51.000Z</time>
      </trkpt>
      <trkpt lat="48.38893" lon="2.36865">
        <ele>81</ele>
        <time>2025-06-06T16:56:55.000Z</time>
      </trkpt>
      <trkpt lat="48.38897" lon="2.36868">
        <ele>80.800003051758</ele>
        <time>2025-06-06T16:56:56.000Z</time>
      </trkpt>
      <trkpt lat="48.38909" lon="2.3689">
        <ele>80</ele>
        <time>2025-06-06T16:57:00.000Z</time>
      </trkpt>
      <trkpt lat="48.38919" lon="2.36912">
        <ele>78.800003051758</ele>
        <time>2025-06-06T16:57:03.000Z</time>
      </trkpt>
      <trkpt lat="48.38928" lon="2.3694">
        <ele>78.199996948242</ele>
        <time>2025-06-06T16:57:06.000Z</time>
      </trkpt>
      <trkpt lat="48.38935" lon="2.36959">
        <ele>77.599998474121</ele>
        <time>2025-06-06T16:57:08.000Z</time>
      </trkpt>
      <trkpt lat="48.38953" lon="2.36999">
        <ele>76.800003051758</ele>
        <time>2025-06-06T16:57:12.000Z</time>
      </trkpt>
      <trkpt lat="48.38958" lon="2.3701">
        <ele>76.400001525879</ele>
        <time>2025-06-06T16:57:13.000Z</time>
      </trkpt>
      <trkpt lat="48.38972" lon="2.37044">
        <ele>75.199996948242</ele>
        <time>2025-06-06T16:57:16.000Z</time>
      </trkpt>
      <trkpt lat="48.38981" lon="2.37068">
        <ele>74.199996948242</ele>
        <time>2025-06-06T16:57:18.000Z</time>
      </trkpt>
      <trkpt lat="48.39006" lon="2.37125">
        <ele>72.800003051758</ele>
        <time>2025-06-06T16:57:23.000Z</time>
      </trkpt>
      <trkpt lat="48.39016" lon="2.37147">
        <ele>71.400001525879</ele>
        <time>2025-06-06T16:57:25.000Z</time>
      </trkpt>
      <trkpt lat="48.3902" lon="2.37158">
        <ele>71</ele>
        <time>2025-06-06T16:57:26.000Z</time>
      </trkpt>
      <trkpt lat="48.39029" lon="2.3718">
        <ele>70.199996948242</ele>
        <time>2025-06-06T16:57:28.000Z</time>
      </trkpt>
      <trkpt lat="48.39039" lon="2.37203">
        <ele>68.800003051758</ele>
        <time>2025-06-06T16:57:30.000Z</time>
      </trkpt>
      <trkpt lat="48.39052" lon="2.37236">
        <ele>67.599998474121</ele>
        <time>2025-06-06T16:57:33.000Z</time>
      </trkpt>
      <trkpt lat="48.3908" lon="2.37299">
        <ele>66.400001525879</ele>
        <time>2025-06-06T16:57:39.000Z</time>
      </trkpt>
      <trkpt lat="48.39085" lon="2.37308">
        <ele>66.400001525879</ele>
        <time>2025-06-06T16:57:40.000Z</time>
      </trkpt>
      <trkpt lat="48.39123" lon="2.37376">
        <ele>66</ele>
        <time>2025-06-06T16:57:48.000Z</time>
      </trkpt>
      <trkpt lat="48.39128" lon="2.3738">
        <ele>66</ele>
        <time>2025-06-06T16:57:49.000Z</time>
      </trkpt>
      <trkpt lat="48.39134" lon="2.3738">
        <ele>66</ele>
        <time>2025-06-06T16:57:50.000Z</time>
      </trkpt>
      <trkpt lat="48.39147" lon="2.3737">
        <ele>66.400001525879</ele>
        <time>2025-06-06T16:57:53.000Z</time>
      </trkpt>
      <trkpt lat="48.39159" lon="2.37355">
        <ele>67.599998474121</ele>
        <time>2025-06-06T16:57:57.000Z</time>
      </trkpt>
      <trkpt lat="48.3916" lon="2.3735">
        <ele>67.599998474121</ele>
        <time>2025-06-06T16:57:58.000Z</time>
      </trkpt>
      <trkpt lat="48.39162" lon="2.37337">
        <ele>68</ele>
        <time>2025-06-06T16:58:00.000Z</time>
      </trkpt>
      <trkpt lat="48.39164" lon="2.37317">
        <ele>68.199996948242</ele>
        <time>2025-06-06T16:58:03.000Z</time>
      </trkpt>
      <trkpt lat="48.39165" lon="2.37311">
        <ele>68.400001525879</ele>
        <time>2025-06-06T16:58:04.000Z</time>
      </trkpt>
      <trkpt lat="48.39171" lon="2.37293">
        <ele>68.599998474121</ele>
        <time>2025-06-06T16:58:07.000Z</time>
      </trkpt>
      <trkpt lat="48.39175" lon="2.37282">
        <ele>68.599998474121</ele>
        <time>2025-06-06T16:58:09.000Z</time>
      </trkpt>
      <trkpt lat="48.39192" lon="2.37242">
        <ele>69.400001525879</ele>
        <time>2025-06-06T16:58:16.000Z</time>
      </trkpt>
      <trkpt lat="48.39195" lon="2.37236">
        <ele>69.599998474121</ele>
        <time>2025-06-06T16:58:17.000Z</time>
      </trkpt>
      <trkpt lat="48.39203" lon="2.3722">
        <ele>70</ele>
        <time>2025-06-06T16:58:20.000Z</time>
      </trkpt>
      <trkpt lat="48.39211" lon="2.37215">
        <ele>70.400001525879</ele>
        <time>2025-06-06T16:58:22.000Z</time>
      </trkpt>
      <trkpt lat="48.39215" lon="2.37214">
        <ele>70.400001525879</ele>
        <time>2025-06-06T16:58:23.000Z</time>
      </trkpt>
      <trkpt lat="48.39223" lon="2.37216">
        <ele>70.599998474121</ele>
        <time>2025-06-06T16:58:25.000Z</time>
      </trkpt>
      <trkpt lat="48.39227" lon="2.37218">
        <ele>70.800003051758</ele>
        <time>2025-06-06T16:58:26.000Z</time>
      </trkpt>
      <trkpt lat="48.39238" lon="2.37224">
        <ele>71.599998474121</ele>
        <time>2025-06-06T16:58:29.000Z</time>
      </trkpt>
      <trkpt lat="48.39249" lon="2.3723">
        <ele>71.800003051758</ele>
        <time>2025-06-06T16:58:32.000Z</time>
      </trkpt>
      <trkpt lat="48.39256" lon="2.37235">
        <ele>72</ele>
        <time>2025-06-06T16:58:34.000Z</time>
      </trkpt>
      <trkpt lat="48.39278" lon="2.37249">
        <ele>72.599998474121</ele>
        <time>2025-06-06T16:58:40.000Z</time>
      </trkpt>
      <trkpt lat="48.39285" lon="2.37252">
        <ele>73.199996948242</ele>
        <time>2025-06-06T16:58:42.000Z</time>
      </trkpt>
      <trkpt lat="48.39293" lon="2.37255">
        <ele>73.599998474121</ele>
        <time>2025-06-06T16:58:44.000Z</time>
      </trkpt>
      <trkpt lat="48.39305" lon="2.3726">
        <ele>74.400001525879</ele>
        <time>2025-06-06T16:58:47.000Z</time>
      </trkpt>
      <trkpt lat="48.39322" lon="2.37261">
        <ele>75.199996948242</ele>
        <time>2025-06-06T16:58:51.000Z</time>
      </trkpt>
      <trkpt lat="48.39339" lon="2.37269">
        <ele>75.800003051758</ele>
        <time>2025-06-06T16:58:55.000Z</time>
      </trkpt>
      <trkpt lat="48.39346" lon="2.37276">
        <ele>76.199996948242</ele>
        <time>2025-06-06T16:58:57.000Z</time>
      </trkpt>
      <trkpt lat="48.39351" lon="2.37285">
        <ele>77</ele>
        <time>2025-06-06T16:58:59.000Z</time>
      </trkpt>
      <trkpt lat="48.39356" lon="2.373">
        <ele>78.199996948242</ele>
        <time>2025-06-06T16:59:02.000Z</time>
      </trkpt>
      <trkpt lat="48.39365" lon="2.37332">
        <ele>79</ele>
        <time>2025-06-06T16:59:08.000Z</time>
      </trkpt>
      <trkpt lat="48.39366" lon="2.37337">
        <ele>79.400001525879</ele>
        <time>2025-06-06T16:59:09.000Z</time>
      </trkpt>
      <trkpt lat="48.39371" lon="2.37354">
        <ele>80.400001525879</ele>
        <time>2025-06-06T16:59:13.000Z</time>
      </trkpt>
      <trkpt lat="48.39378" lon="2.37369">
        <ele>81.400001525879</ele>
        <time>2025-06-06T16:59:17.000Z</time>
      </trkpt>
      <trkpt lat="48.39381" lon="2.37371">
        <ele>81.800003051758</ele>
        <time>2025-06-06T16:59:19.000Z</time>
      </trkpt>
      <trkpt lat="48.39389" lon="2.37361">
        <ele>81.800003051758</ele>
        <time>2025-06-06T16:59:22.000Z</time>
      </trkpt>
      <trkpt lat="48.39391" lon="2.37358">
        <ele>82</ele>
        <time>2025-06-06T16:59:23.000Z</time>
      </trkpt>
      <trkpt lat="48.39402" lon="2.37342">
        <ele>82.599998474121</ele>
        <time>2025-06-06T16:59:28.000Z</time>
      </trkpt>
      <trkpt lat="48.39403" lon="2.37339">
        <ele>82.800003051758</ele>
        <time>2025-06-06T16:59:29.000Z</time>
      </trkpt>
      <trkpt lat="48.39413" lon="2.37327">
        <ele>83.400001525879</ele>
        <time>2025-06-06T16:59:34.000Z</time>
      </trkpt>
      <trkpt lat="48.39418" lon="2.37318">
        <ele>84.199996948242</ele>
        <time>2025-06-06T16:59:37.000Z</time>
      </trkpt>
      <trkpt lat="48.39421" lon="2.37314">
        <ele>84.800003051758</ele>
        <time>2025-06-06T16:59:39.000Z</time>
      </trkpt>
      <trkpt lat="48.39429" lon="2.37302">
        <ele>86</ele>
        <time>2025-06-06T16:59:44.000Z</time>
      </trkpt>
      <trkpt lat="48.39434" lon="2.37293">
        <ele>87</ele>
        <time>2025-06-06T16:59:48.000Z</time>
      </trkpt>
      <trkpt lat="48.3944" lon="2.37284">
        <ele>87.800003051758</ele>
        <time>2025-06-06T16:59:52.000Z</time>
      </trkpt>
      <trkpt lat="48.39443" lon="2.37279">
        <ele>88.400001525879</ele>
        <time>2025-06-06T16:59:54.000Z</time>
      </trkpt>
      <trkpt lat="48.3945" lon="2.3727">
        <ele>89.400001525879</ele>
        <time>2025-06-06T16:59:58.000Z</time>
      </trkpt>
      <trkpt lat="48.39451" lon="2.37268">
        <ele>89.800003051758</ele>
        <time>2025-06-06T16:59:59.000Z</time>
      </trkpt>
      <trkpt lat="48.39454" lon="2.37259">
        <ele>90.599998474121</ele>
        <time>2025-06-06T17:00:02.000Z</time>
      </trkpt>
      <trkpt lat="48.39458" lon="2.37245">
        <ele>91.800003051758</ele>
        <time>2025-06-06T17:00:06.000Z</time>
      </trkpt>
      <trkpt lat="48.39461" lon="2.37237">
        <ele>92.599998474121</ele>
        <time>2025-06-06T17:00:09.000Z</time>
      </trkpt>
      <trkpt lat="48.39467" lon="2.37226">
        <ele>93.400001525879</ele>
        <time>2025-06-06T17:00:13.000Z</time>
      </trkpt>
      <trkpt lat="48.3947" lon="2.37216">
        <ele>94</ele>
        <time>2025-06-06T17:00:16.000Z</time>
      </trkpt>
      <trkpt lat="48.39473" lon="2.37203">
        <ele>94.599998474121</ele>
        <time>2025-06-06T17:00:20.000Z</time>
      </trkpt>
      <trkpt lat="48.39475" lon="2.37196">
        <ele>95</ele>
        <time>2025-06-06T17:00:22.000Z</time>
      </trkpt>
      <trkpt lat="48.39477" lon="2.37179">
        <ele>96.199996948242</ele>
        <time>2025-06-06T17:00:27.000Z</time>
      </trkpt>
      <trkpt lat="48.39479" lon="2.37174">
        <ele>96.599998474121</ele>
        <time>2025-06-06T17:00:29.000Z</time>
      </trkpt>
      <trkpt lat="48.3948" lon="2.37163">
        <ele>97</ele>
        <time>2025-06-06T17:00:32.000Z</time>
      </trkpt>
      <trkpt lat="48.39482" lon="2.37152">
        <ele>97.800003051758</ele>
        <time>2025-06-06T17:00:35.000Z</time>
      </trkpt>
      <trkpt lat="48.39484" lon="2.37147">
        <ele>98</ele>
        <time>2025-06-06T17:00:37.000Z</time>
      </trkpt>
      <trkpt lat="48.39484" lon="2.37137">
        <ele>98.800003051758</ele>
        <time>2025-06-06T17:00:40.000Z</time>
      </trkpt>
      <trkpt lat="48.39484" lon="2.3713">
        <ele>99.199996948242</ele>
        <time>2025-06-06T17:00:42.000Z</time>
      </trkpt>
      <trkpt lat="48.39478" lon="2.37121">
        <ele>100.19999694824</ele>
        <time>2025-06-06T17:00:45.000Z</time>
      </trkpt>
      <trkpt lat="48.39471" lon="2.37111">
        <ele>101.40000152588</ele>
        <time>2025-06-06T17:00:50.000Z</time>
      </trkpt>
      <trkpt lat="48.3947" lon="2.37108">
        <ele>101.40000152588</ele>
        <time>2025-06-06T17:00:51.000Z</time>
      </trkpt>
      <trkpt lat="48.39467" lon="2.37099">
        <ele>102.40000152588</ele>
        <time>2025-06-06T17:00:54.000Z</time>
      </trkpt>
      <trkpt lat="48.39466" lon="2.37092">
        <ele>103.59999847412</ele>
        <time>2025-06-06T17:00:57.000Z</time>
      </trkpt>
      <trkpt lat="48.39465" lon="2.3709">
        <ele>104</ele>
        <time>2025-06-06T17:00:58.000Z</time>
      </trkpt>
      <trkpt lat="48.39464" lon="2.37082">
        <ele>105</ele>
        <time>2025-06-06T17:01:03.000Z</time>
      </trkpt>
      <trkpt lat="48.39465" lon="2.3708">
        <ele>105.40000152588</ele>
        <time>2025-06-06T17:01:04.000Z</time>
      </trkpt>
      <trkpt lat="48.39466" lon="2.37076">
        <ele>106.19999694824</ele>
        <time>2025-06-06T17:01:06.000Z</time>
      </trkpt>
      <trkpt lat="48.39467" lon="2.37073">
        <ele>106.80000305176</ele>
        <time>2025-06-06T17:01:08.000Z</time>
      </trkpt>
      <trkpt lat="48.39468" lon="2.3707">
        <ele>107.59999847412</ele>
        <time>2025-06-06T17:01:10.000Z</time>
      </trkpt>
      <trkpt lat="48.39469" lon="2.37069">
        <ele>108</ele>
        <time>2025-06-06T17:01:11.000Z</time>
      </trkpt>
      <trkpt lat="48.3947" lon="2.37067">
        <ele>108.80000305176</ele>
        <time>2025-06-06T17:01:12.000Z</time>
      </trkpt>
      <trkpt lat="48.39473" lon="2.37061">
        <ele>110.19999694824</ele>
        <time>2025-06-06T17:01:15.000Z</time>
      </trkpt>
      <trkpt lat="48.39475" lon="2.37057">
        <ele>111.19999694824</ele>
        <time>2025-06-06T17:01:17.000Z</time>
      </trkpt>
      <trkpt lat="48.39477" lon="2.37052">
        <ele>112.19999694824</ele>
        <time>2025-06-06T17:01:19.000Z</time>
      </trkpt>
      <trkpt lat="48.39478" lon="2.3705">
        <ele>112.40000152588</ele>
        <time>2025-06-06T17:01:20.000Z</time>
      </trkpt>
      <trkpt lat="48.39481" lon="2.37034">
        <ele>113.40000152588</ele>
        <time>2025-06-06T17:01:25.000Z</time>
      </trkpt>
      <trkpt lat="48.39482" lon="2.37033">
        <ele>113.40000152588</ele>
        <time>2025-06-06T17:01:26.000Z</time>
      </trkpt>
      <trkpt lat="48.39488" lon="2.37034">
        <ele>113.80000305176</ele>
        <time>2025-06-06T17:01:29.000Z</time>
      </trkpt>
      <trkpt lat="48.39492" lon="2.37039">
        <ele>113.80000305176</ele>
        <time>2025-06-06T17:01:31.000Z</time>
      </trkpt>
      <trkpt lat="48.395" lon="2.3705">
        <ele>114.40000152588</ele>
        <time>2025-06-06T17:01:35.000Z</time>
      </trkpt>
      <trkpt lat="48.39502" lon="2.37053">
        <ele>114.59999847412</ele>
        <time>2025-06-06T17:01:36.000Z</time>
      </trkpt>
      <trkpt lat="48.39505" lon="2.37071">
        <ele>115</ele>
        <time>2025-06-06T17:01:41.000Z</time>
      </trkpt>
      <trkpt lat="48.39505" lon="2.37094">
        <ele>115</ele>
        <time>2025-06-06T17:01:46.000Z</time>
      </trkpt>
      <trkpt lat="48.39507" lon="2.37107">
        <ele>115</ele>
        <time>2025-06-06T17:01:50.000Z</time>
      </trkpt>
      <trkpt lat="48.39513" lon="2.37118">
        <ele>115.19999694824</ele>
        <time>2025-06-06T17:01:55.000Z</time>
      </trkpt>
      <trkpt lat="48.39519" lon="2.37131">
        <ele>115</ele>
        <time>2025-06-06T17:02:00.000Z</time>
      </trkpt>
      <trkpt lat="48.3952" lon="2.37141">
        <ele>115.40000152588</ele>
        <time>2025-06-06T17:02:04.000Z</time>
      </trkpt>
      <trkpt lat="48.39521" lon="2.37149">
        <ele>115.40000152588</ele>
        <time>2025-06-06T17:02:06.000Z</time>
      </trkpt>
      <trkpt lat="48.39522" lon="2.37156">
        <ele>115.19999694824</ele>
        <time>2025-06-06T17:02:08.000Z</time>
      </trkpt>
      <trkpt lat="48.39525" lon="2.37159">
        <ele>115.19999694824</ele>
        <time>2025-06-06T17:02:10.000Z</time>
      </trkpt>
      <trkpt lat="48.3954" lon="2.37169">
        <ele>115</ele>
        <time>2025-06-06T17:02:15.000Z</time>
      </trkpt>
      <trkpt lat="48.3955" lon="2.37169">
        <ele>114.59999847412</ele>
        <time>2025-06-06T17:02:19.000Z</time>
      </trkpt>
      <trkpt lat="48.39558" lon="2.37176">
        <ele>114.40000152588</ele>
        <time>2025-06-06T17:02:22.000Z</time>
      </trkpt>
      <trkpt lat="48.39561" lon="2.37197">
        <ele>114.40000152588</ele>
        <time>2025-06-06T17:02:27.000Z</time>
      </trkpt>
      <trkpt lat="48.39556" lon="2.3721">
        <ele>114.80000305176</ele>
        <time>2025-06-06T17:02:31.000Z</time>
      </trkpt>
      <trkpt lat="48.39544" lon="2.37216">
        <ele>115.40000152588</ele>
        <time>2025-06-06T17:02:35.000Z</time>
      </trkpt>
      <trkpt lat="48.39534" lon="2.37233">
        <ele>115.40000152588</ele>
        <time>2025-06-06T17:02:39.000Z</time>
      </trkpt>
      <trkpt lat="48.39532" lon="2.37243">
        <ele>115.40000152588</ele>
        <time>2025-06-06T17:02:42.000Z</time>
      </trkpt>
      <trkpt lat="48.39533" lon="2.37247">
        <ele>115.40000152588</ele>
        <time>2025-06-06T17:02:43.000Z</time>
      </trkpt>
      <trkpt lat="48.39533" lon="2.3725">
        <ele>115.40000152588</ele>
        <time>2025-06-06T17:02:44.000Z</time>
      </trkpt>
      <trkpt lat="48.39528" lon="2.37263">
        <ele>114.80000305176</ele>
        <time>2025-06-06T17:02:47.000Z</time>
      </trkpt>
      <trkpt lat="48.3952" lon="2.37287">
        <ele>114.19999694824</ele>
        <time>2025-06-06T17:02:51.000Z</time>
      </trkpt>
      <trkpt lat="48.39524" lon="2.37296">
        <ele>113.80000305176</ele>
        <time>2025-06-06T17:02:53.000Z</time>
      </trkpt>
      <trkpt lat="48.39527" lon="2.37299">
        <ele>113</ele>
        <time>2025-06-06T17:02:54.000Z</time>
      </trkpt>
      <trkpt lat="48.3953" lon="2.37301">
        <ele>111.80000305176</ele>
        <time>2025-06-06T17:02:55.000Z</time>
      </trkpt>
      <trkpt lat="48.39533" lon="2.37301">
        <ele>110.40000152588</ele>
        <time>2025-06-06T17:02:56.000Z</time>
      </trkpt>
      <trkpt lat="48.39536" lon="2.37302">
        <ele>108.59999847412</ele>
        <time>2025-06-06T17:02:57.000Z</time>
      </trkpt>
      <trkpt lat="48.39539" lon="2.37303">
        <ele>107.19999694824</ele>
        <time>2025-06-06T17:02:58.000Z</time>
      </trkpt>
      <trkpt lat="48.39542" lon="2.37305">
        <ele>106</ele>
        <time>2025-06-06T17:02:59.000Z</time>
      </trkpt>
      <trkpt lat="48.39546" lon="2.37309">
        <ele>105</ele>
        <time>2025-06-06T17:03:01.000Z</time>
      </trkpt>
      <trkpt lat="48.39548" lon="2.37312">
        <ele>104.80000305176</ele>
        <time>2025-06-06T17:03:02.000Z</time>
      </trkpt>
      <trkpt lat="48.39551" lon="2.37315">
        <ele>104.59999847412</ele>
        <time>2025-06-06T17:03:03.000Z</time>
      </trkpt>
      <trkpt lat="48.39565" lon="2.37328">
        <ele>103.80000305176</ele>
        <time>2025-06-06T17:03:07.000Z</time>
      </trkpt>
      <trkpt lat="48.39568" lon="2.37329">
        <ele>103.40000152588</ele>
        <time>2025-06-06T17:03:08.000Z</time>
      </trkpt>
      <trkpt lat="48.3958" lon="2.37331">
        <ele>102.80000305176</ele>
        <time>2025-06-06T17:03:11.000Z</time>
      </trkpt>
      <trkpt lat="48.39587" lon="2.37335">
        <ele>101.80000305176</ele>
        <time>2025-06-06T17:03:13.000Z</time>
      </trkpt>
      <trkpt lat="48.39602" lon="2.37338">
        <ele>100.59999847412</ele>
        <time>2025-06-06T17:03:17.000Z</time>
      </trkpt>
      <trkpt lat="48.39604" lon="2.37337">
        <ele>100.40000152588</ele>
        <time>2025-06-06T17:03:18.000Z</time>
      </trkpt>
      <trkpt lat="48.39605" lon="2.37335">
        <ele>100.19999694824</ele>
        <time>2025-06-06T17:03:19.000Z</time>
      </trkpt>
      <trkpt lat="48.39606" lon="2.37329">
        <ele>99</ele>
        <time>2025-06-06T17:03:21.000Z</time>
      </trkpt>
      <trkpt lat="48.39607" lon="2.37326">
        <ele>98.599998474121</ele>
        <time>2025-06-06T17:03:22.000Z</time>
      </trkpt>
      <trkpt lat="48.39614" lon="2.37314">
        <ele>98.400001525879</ele>
        <time>2025-06-06T17:03:28.000Z</time>
      </trkpt>
      <trkpt lat="48.39614" lon="2.37312">
        <ele>98.400001525879</ele>
        <time>2025-06-06T17:03:29.000Z</time>
      </trkpt>
      <trkpt lat="48.39617" lon="2.37301">
        <ele>99.800003051758</ele>
        <time>2025-06-06T17:03:35.000Z</time>
      </trkpt>
      <trkpt lat="48.39618" lon="2.373">
        <ele>100.19999694824</ele>
        <time>2025-06-06T17:03:36.000Z</time>
      </trkpt>
      <trkpt lat="48.39619" lon="2.37298">
        <ele>101</ele>
        <time>2025-06-06T17:03:38.000Z</time>
      </trkpt>
      <trkpt lat="48.39621" lon="2.37293">
        <ele>102.40000152588</ele>
        <time>2025-06-06T17:03:41.000Z</time>
      </trkpt>
      <trkpt lat="48.39623" lon="2.37286">
        <ele>103.19999694824</ele>
        <time>2025-06-06T17:03:44.000Z</time>
      </trkpt>
      <trkpt lat="48.39624" lon="2.37282">
        <ele>103.59999847412</ele>
        <time>2025-06-06T17:03:46.000Z</time>
      </trkpt>
      <trkpt lat="48.39626" lon="2.37275">
        <ele>104.59999847412</ele>
        <time>2025-06-06T17:03:49.000Z</time>
      </trkpt>
      <trkpt lat="48.39628" lon="2.37271">
        <ele>105</ele>
        <time>2025-06-06T17:03:51.000Z</time>
      </trkpt>
      <trkpt lat="48.39627" lon="2.37266">
        <ele>105.59999847412</ele>
        <time>2025-06-06T17:03:53.000Z</time>
      </trkpt>
      <trkpt lat="48.39627" lon="2.37257">
        <ele>106.80000305176</ele>
        <time>2025-06-06T17:03:57.000Z</time>
      </trkpt>
      <trkpt lat="48.39627" lon="2.37255">
        <ele>107.19999694824</ele>
        <time>2025-06-06T17:03:58.000Z</time>
      </trkpt>
      <trkpt lat="48.39631" lon="2.37245">
        <ele>108</ele>
        <time>2025-06-06T17:04:02.000Z</time>
      </trkpt>
      <trkpt lat="48.39632" lon="2.37241">
        <ele>108.59999847412</ele>
        <time>2025-06-06T17:04:04.000Z</time>
      </trkpt>
      <trkpt lat="48.39633" lon="2.37239">
        <ele>109</ele>
        <time>2025-06-06T17:04:05.000Z</time>
      </trkpt>
      <trkpt lat="48.39634" lon="2.37232">
        <ele>110</ele>
        <time>2025-06-06T17:04:08.000Z</time>
      </trkpt>
      <trkpt lat="48.39635" lon="2.3722">
        <ele>110.40000152588</ele>
        <time>2025-06-06T17:04:11.000Z</time>
      </trkpt>
      <trkpt lat="48.39636" lon="2.37213">
        <ele>111</ele>
        <time>2025-06-06T17:04:13.000Z</time>
      </trkpt>
      <trkpt lat="48.39638" lon="2.37195">
        <ele>111.80000305176</ele>
        <time>2025-06-06T17:04:18.000Z</time>
      </trkpt>
      <trkpt lat="48.39637" lon="2.37186">
        <ele>112</ele>
        <time>2025-06-06T17:04:21.000Z</time>
      </trkpt>
      <trkpt lat="48.39637" lon="2.37179">
        <ele>112</ele>
        <time>2025-06-06T17:04:23.000Z</time>
      </trkpt>
      <trkpt lat="48.39641" lon="2.37164">
        <ele>112.80000305176</ele>
        <time>2025-06-06T17:04:27.000Z</time>
      </trkpt>
      <trkpt lat="48.39642" lon="2.37161">
        <ele>113</ele>
        <time>2025-06-06T17:04:28.000Z</time>
      </trkpt>
      <trkpt lat="48.39643" lon="2.37159">
        <ele>113.19999694824</ele>
        <time>2025-06-06T17:04:29.000Z</time>
      </trkpt>
      <trkpt lat="48.39651" lon="2.37145">
        <ele>113.40000152588</ele>
        <time>2025-06-06T17:04:33.000Z</time>
      </trkpt>
      <trkpt lat="48.39661" lon="2.37134">
        <ele>114.19999694824</ele>
        <time>2025-06-06T17:04:37.000Z</time>
      </trkpt>
      <trkpt lat="48.39669" lon="2.37124">
        <ele>114.80000305176</ele>
        <time>2025-06-06T17:04:40.000Z</time>
      </trkpt>
      <trkpt lat="48.39682" lon="2.37103">
        <ele>115.40000152588</ele>
        <time>2025-06-06T17:04:46.000Z</time>
      </trkpt>
      <trkpt lat="48.39699" lon="2.37074">
        <ele>115.80000305176</ele>
        <time>2025-06-06T17:04:54.000Z</time>
      </trkpt>
      <trkpt lat="48.39714" lon="2.37045">
        <ele>116.19999694824</ele>
        <time>2025-06-06T17:05:00.000Z</time>
      </trkpt>
      <trkpt lat="48.39714" lon="2.3704">
        <ele>116.19999694824</ele>
        <time>2025-06-06T17:05:01.000Z</time>
      </trkpt>
      <trkpt lat="48.39707" lon="2.37018">
        <ele>115.80000305176</ele>
        <time>2025-06-06T17:05:05.000Z</time>
      </trkpt>
      <trkpt lat="48.39693" lon="2.37004">
        <ele>115.40000152588</ele>
        <time>2025-06-06T17:05:09.000Z</time>
      </trkpt>
      <trkpt lat="48.39687" lon="2.36998">
        <ele>114.80000305176</ele>
        <time>2025-06-06T17:05:11.000Z</time>
      </trkpt>
      <trkpt lat="48.39674" lon="2.36992">
        <ele>114.40000152588</ele>
        <time>2025-06-06T17:05:15.000Z</time>
      </trkpt>
      <trkpt lat="48.39657" lon="2.36981">
        <ele>114.19999694824</ele>
        <time>2025-06-06T17:05:20.000Z</time>
      </trkpt>
      <trkpt lat="48.39651" lon="2.36978">
        <ele>114.19999694824</ele>
        <time>2025-06-06T17:05:22.000Z</time>
      </trkpt>
      <trkpt lat="48.39646" lon="2.36978">
        <ele>114.19999694824</ele>
        <time>2025-06-06T17:05:24.000Z</time>
      </trkpt>
      <trkpt lat="48.39636" lon="2.36971">
        <ele>114.59999847412</ele>
        <time>2025-06-06T17:05:28.000Z</time>
      </trkpt>
      <trkpt lat="48.39624" lon="2.36973">
        <ele>114.40000152588</ele>
        <time>2025-06-06T17:05:32.000Z</time>
      </trkpt>
      <trkpt lat="48.39619" lon="2.36979">
        <ele>114</ele>
        <time>2025-06-06T17:05:34.000Z</time>
      </trkpt>
      <trkpt lat="48.39614" lon="2.36985">
        <ele>113.80000305176</ele>
        <time>2025-06-06T17:05:36.000Z</time>
      </trkpt>
      <trkpt lat="48.39603" lon="2.36988">
        <ele>113.80000305176</ele>
        <time>2025-06-06T17:05:39.000Z</time>
      </trkpt>
      <trkpt lat="48.39595" lon="2.36991">
        <ele>113.80000305176</ele>
        <time>2025-06-06T17:05:41.000Z</time>
      </trkpt>
      <trkpt lat="48.3957" lon="2.37">
        <ele>114</ele>
        <time>2025-06-06T17:05:48.000Z</time>
      </trkpt>
      <trkpt lat="48.39553" lon="2.37007">
        <ele>115</ele>
        <time>2025-06-06T17:05:52.000Z</time>
      </trkpt>
      <trkpt lat="48.39545" lon="2.37007">
        <ele>115</ele>
        <time>2025-06-06T17:05:54.000Z</time>
      </trkpt>
      <trkpt lat="48.39543" lon="2.37005">
        <ele>115</ele>
        <time>2025-06-06T17:05:55.000Z</time>
      </trkpt>
      <trkpt lat="48.3954" lon="2.36996">
        <ele>115.19999694824</ele>
        <time>2025-06-06T17:05:57.000Z</time>
      </trkpt>
      <trkpt lat="48.39546" lon="2.36973">
        <ele>115.19999694824</ele>
        <time>2025-06-06T17:06:02.000Z</time>
      </trkpt>
      <trkpt lat="48.39549" lon="2.36966">
        <ele>115.19999694824</ele>
        <time>2025-06-06T17:06:04.000Z</time>
      </trkpt>
      <trkpt lat="48.39558" lon="2.36959">
        <ele>115.40000152588</ele>
        <time>2025-06-06T17:06:08.000Z</time>
      </trkpt>
      <trkpt lat="48.39563" lon="2.36955">
        <ele>115.80000305176</ele>
        <time>2025-06-06T17:06:10.000Z</time>
      </trkpt>
      <trkpt lat="48.3957" lon="2.36951">
        <ele>117</ele>
        <time>2025-06-06T17:06:13.000Z</time>
      </trkpt>
      <trkpt lat="48.39578" lon="2.36949">
        <ele>117.59999847412</ele>
        <time>2025-06-06T17:06:16.000Z</time>
      </trkpt>
      <trkpt lat="48.39587" lon="2.36945">
        <ele>118</ele>
        <time>2025-06-06T17:06:19.000Z</time>
      </trkpt>
      <trkpt lat="48.39599" lon="2.36939">
        <ele>118.80000305176</ele>
        <time>2025-06-06T17:06:23.000Z</time>
      </trkpt>
      <trkpt lat="48.39606" lon="2.36938">
        <ele>119.19999694824</ele>
        <time>2025-06-06T17:06:25.000Z</time>
      </trkpt>
      <trkpt lat="48.39625" lon="2.36937">
        <ele>120.19999694824</ele>
        <time>2025-06-06T17:06:30.000Z</time>
      </trkpt>
      <trkpt lat="48.39629" lon="2.36937">
        <ele>120.40000152588</ele>
        <time>2025-06-06T17:06:31.000Z</time>
      </trkpt>
      <trkpt lat="48.39656" lon="2.36937">
        <ele>121.19999694824</ele>
        <time>2025-06-06T17:06:38.000Z</time>
      </trkpt>
      <trkpt lat="48.39665" lon="2.36938">
        <ele>121.19999694824</ele>
        <time>2025-06-06T17:06:40.000Z</time>
      </trkpt>
      <trkpt lat="48.39673" lon="2.36941">
        <ele>121.40000152588</ele>
        <time>2025-06-06T17:06:42.000Z</time>
      </trkpt>
      <trkpt lat="48.39687" lon="2.36947">
        <ele>121.59999847412</ele>
        <time>2025-06-06T17:06:45.000Z</time>
      </trkpt>
      <trkpt lat="48.39722" lon="2.3696">
        <ele>121.80000305176</ele>
        <time>2025-06-06T17:06:52.000Z</time>
      </trkpt>
      <trkpt lat="48.39756" lon="2.3697">
        <ele>121.59999847412</ele>
        <time>2025-06-06T17:06:59.000Z</time>
      </trkpt>
      <trkpt lat="48.39789" lon="2.36977">
        <ele>121.40000152588</ele>
        <time>2025-06-06T17:07:05.000Z</time>
      </trkpt>
      <trkpt lat="48.39794" lon="2.36977">
        <ele>121.40000152588</ele>
        <time>2025-06-06T17:07:06.000Z</time>
      </trkpt>
      <trkpt lat="48.39807" lon="2.36967">
        <ele>121.19999694824</ele>
        <time>2025-06-06T17:07:09.000Z</time>
      </trkpt>
      <trkpt lat="48.39809" lon="2.3696">
        <ele>121</ele>
        <time>2025-06-06T17:07:10.000Z</time>
      </trkpt>
      <trkpt lat="48.39813" lon="2.36946">
        <ele>120.80000305176</ele>
        <time>2025-06-06T17:07:12.000Z</time>
      </trkpt>
      <trkpt lat="48.39817" lon="2.36922">
        <ele>120.59999847412</ele>
        <time>2025-06-06T17:07:15.000Z</time>
      </trkpt>
      <trkpt lat="48.39817" lon="2.36896">
        <ele>120</ele>
        <time>2025-06-06T17:07:18.000Z</time>
      </trkpt>
      <trkpt lat="48.39814" lon="2.36871">
        <ele>119.59999847412</ele>
        <time>2025-06-06T17:07:21.000Z</time>
      </trkpt>
      <trkpt lat="48.39811" lon="2.36847">
        <ele>119</ele>
        <time>2025-06-06T17:07:24.000Z</time>
      </trkpt>
      <trkpt lat="48.3981" lon="2.36817">
        <ele>118.59999847412</ele>
        <time>2025-06-06T17:07:28.000Z</time>
      </trkpt>
      <trkpt lat="48.39812" lon="2.36804">
        <ele>118.59999847412</ele>
        <time>2025-06-06T17:07:30.000Z</time>
      </trkpt>
      <trkpt lat="48.39818" lon="2.36796">
        <ele>118.59999847412</ele>
        <time>2025-06-06T17:07:32.000Z</time>
      </trkpt>
      <trkpt lat="48.39829" lon="2.368">
        <ele>119</ele>
        <time>2025-06-06T17:07:35.000Z</time>
      </trkpt>
      <trkpt lat="48.39838" lon="2.36815">
        <ele>119</ele>
        <time>2025-06-06T17:07:38.000Z</time>
      </trkpt>
      <trkpt lat="48.39843" lon="2.36836">
        <ele>119</ele>
        <time>2025-06-06T17:07:42.000Z</time>
      </trkpt>
      <trkpt lat="48.39848" lon="2.36853">
        <ele>119</ele>
        <time>2025-06-06T17:07:45.000Z</time>
      </trkpt>
      <trkpt lat="48.3985" lon="2.36859">
        <ele>119</ele>
        <time>2025-06-06T17:07:46.000Z</time>
      </trkpt>
      <trkpt lat="48.39852" lon="2.36864">
        <ele>119</ele>
        <time>2025-06-06T17:07:47.000Z</time>
      </trkpt>
      <trkpt lat="48.39864" lon="2.36884">
        <ele>118.40000152588</ele>
        <time>2025-06-06T17:07:52.000Z</time>
      </trkpt>
      <trkpt lat="48.39868" lon="2.3689">
        <ele>117.59999847412</ele>
        <time>2025-06-06T17:07:54.000Z</time>
      </trkpt>
      <trkpt lat="48.39874" lon="2.36899">
        <ele>116.40000152588</ele>
        <time>2025-06-06T17:07:57.000Z</time>
      </trkpt>
      <trkpt lat="48.39878" lon="2.36901">
        <ele>116.40000152588</ele>
        <time>2025-06-06T17:07:58.000Z</time>
      </trkpt>
      <trkpt lat="48.39888" lon="2.36915">
        <ele>115.59999847412</ele>
        <time>2025-06-06T17:08:02.000Z</time>
      </trkpt>
      <trkpt lat="48.39893" lon="2.36924">
        <ele>115.40000152588</ele>
        <time>2025-06-06T17:08:04.000Z</time>
      </trkpt>
      <trkpt lat="48.39904" lon="2.36942">
        <ele>115.40000152588</ele>
        <time>2025-06-06T17:08:08.000Z</time>
      </trkpt>
      <trkpt lat="48.39914" lon="2.36961">
        <ele>115.59999847412</ele>
        <time>2025-06-06T17:08:13.000Z</time>
      </trkpt>
      <trkpt lat="48.39911" lon="2.36969">
        <ele>115.59999847412</ele>
        <time>2025-06-06T17:08:18.000Z</time>
      </trkpt>
      <trkpt lat="48.39906" lon="2.36974">
        <ele>116.80000305176</ele>
        <time>2025-06-06T17:08:22.000Z</time>
      </trkpt>
      <trkpt lat="48.39906" lon="2.36977">
        <ele>117.19999694824</ele>
        <time>2025-06-06T17:08:23.000Z</time>
      </trkpt>
      <trkpt lat="48.39907" lon="2.36979">
        <ele>117.80000305176</ele>
        <time>2025-06-06T17:08:24.000Z</time>
      </trkpt>
      <trkpt lat="48.39912" lon="2.36985">
        <ele>119</ele>
        <time>2025-06-06T17:08:27.000Z</time>
      </trkpt>
      <trkpt lat="48.3993" lon="2.36999">
        <ele>119.59999847412</ele>
        <time>2025-06-06T17:08:34.000Z</time>
      </trkpt>
      <trkpt lat="48.39948" lon="2.37014">
        <ele>119.59999847412</ele>
        <time>2025-06-06T17:08:38.000Z</time>
      </trkpt>
      <trkpt lat="48.39954" lon="2.37017">
        <ele>119.59999847412</ele>
        <time>2025-06-06T17:08:39.000Z</time>
      </trkpt>
      <trkpt lat="48.39976" lon="2.3703">
        <ele>119</ele>
        <time>2025-06-06T17:08:44.000Z</time>
      </trkpt>
      <trkpt lat="48.39995" lon="2.37052">
        <ele>118.80000305176</ele>
        <time>2025-06-06T17:08:50.000Z</time>
      </trkpt>
      <trkpt lat="48.40004" lon="2.3706">
        <ele>118.80000305176</ele>
        <time>2025-06-06T17:08:54.000Z</time>
      </trkpt>
      <trkpt lat="48.40009" lon="2.37063">
        <ele>119.80000305176</ele>
        <time>2025-06-06T17:09:00.000Z</time>
      </trkpt>
      <trkpt lat="48.4001" lon="2.37064">
        <ele>120</ele>
        <time>2025-06-06T17:09:01.000Z</time>
      </trkpt>
      <trkpt lat="48.40022" lon="2.37072">
        <ele>120.40000152588</ele>
        <time>2025-06-06T17:09:05.000Z</time>
      </trkpt>
      <trkpt lat="48.40025" lon="2.37076">
        <ele>120.40000152588</ele>
        <time>2025-06-06T17:09:06.000Z</time>
      </trkpt>
      <trkpt lat="48.40028" lon="2.37085">
        <ele>120.40000152588</ele>
        <time>2025-06-06T17:09:08.000Z</time>
      </trkpt>
      <trkpt lat="48.40035" lon="2.37108">
        <ele>120.59999847412</ele>
        <time>2025-06-06T17:09:14.000Z</time>
      </trkpt>
      <trkpt lat="48.40036" lon="2.37117">
        <ele>121.59999847412</ele>
        <time>2025-06-06T17:09:17.000Z</time>
      </trkpt>
      <trkpt lat="48.40037" lon="2.37119">
        <ele>122</ele>
        <time>2025-06-06T17:09:18.000Z</time>
      </trkpt>
      <trkpt lat="48.40038" lon="2.37121">
        <ele>122.40000152588</ele>
        <time>2025-06-06T17:09:19.000Z</time>
      </trkpt>
      <trkpt lat="48.40039" lon="2.37124">
        <ele>122.59999847412</ele>
        <time>2025-06-06T17:09:20.000Z</time>
      </trkpt>
      <trkpt lat="48.4004" lon="2.37132">
        <ele>122.80000305176</ele>
        <time>2025-06-06T17:09:22.000Z</time>
      </trkpt>
      <trkpt lat="48.40044" lon="2.37154">
        <ele>123</ele>
        <time>2025-06-06T17:09:27.000Z</time>
      </trkpt>
      <trkpt lat="48.40046" lon="2.37167">
        <ele>123</ele>
        <time>2025-06-06T17:09:29.000Z</time>
      </trkpt>
      <trkpt lat="48.40049" lon="2.37179">
        <ele>123</ele>
        <time>2025-06-06T17:09:31.000Z</time>
      </trkpt>
      <trkpt lat="48.40055" lon="2.37188">
        <ele>121.59999847412</ele>
        <time>2025-06-06T17:09:34.000Z</time>
      </trkpt>
      <trkpt lat="48.40056" lon="2.3719">
        <ele>120.59999847412</ele>
        <time>2025-06-06T17:09:35.000Z</time>
      </trkpt>
      <trkpt lat="48.40056" lon="2.37193">
        <ele>119</ele>
        <time>2025-06-06T17:09:36.000Z</time>
      </trkpt>
      <trkpt lat="48.40056" lon="2.37196">
        <ele>117.40000152588</ele>
        <time>2025-06-06T17:09:37.000Z</time>
      </trkpt>
      <trkpt lat="48.40057" lon="2.372">
        <ele>116.19999694824</ele>
        <time>2025-06-06T17:09:38.000Z</time>
      </trkpt>
      <trkpt lat="48.40059" lon="2.37205">
        <ele>115.19999694824</ele>
        <time>2025-06-06T17:09:40.000Z</time>
      </trkpt>
      <trkpt lat="48.40065" lon="2.37206">
        <ele>114.80000305176</ele>
        <time>2025-06-06T17:09:42.000Z</time>
      </trkpt>
      <trkpt lat="48.40072" lon="2.37206">
        <ele>113.40000152588</ele>
        <time>2025-06-06T17:09:44.000Z</time>
      </trkpt>
      <trkpt lat="48.4008" lon="2.37208">
        <ele>111.80000305176</ele>
        <time>2025-06-06T17:09:46.000Z</time>
      </trkpt>
      <trkpt lat="48.40083" lon="2.37207">
        <ele>110.80000305176</ele>
        <time>2025-06-06T17:09:47.000Z</time>
      </trkpt>
      <trkpt lat="48.40085" lon="2.37205">
        <ele>110</ele>
        <time>2025-06-06T17:09:48.000Z</time>
      </trkpt>
      <trkpt lat="48.40089" lon="2.37199">
        <ele>107.59999847412</ele>
        <time>2025-06-06T17:09:50.000Z</time>
      </trkpt>
      <trkpt lat="48.4009" lon="2.37195">
        <ele>106.19999694824</ele>
        <time>2025-06-06T17:09:51.000Z</time>
      </trkpt>
      <trkpt lat="48.40091" lon="2.37191">
        <ele>104.80000305176</ele>
        <time>2025-06-06T17:09:52.000Z</time>
      </trkpt>
      <trkpt lat="48.4009" lon="2.37187">
        <ele>103.40000152588</ele>
        <time>2025-06-06T17:09:53.000Z</time>
      </trkpt>
      <trkpt lat="48.4009" lon="2.37184">
        <ele>102</ele>
        <time>2025-06-06T17:09:54.000Z</time>
      </trkpt>
      <trkpt lat="48.4009" lon="2.37181">
        <ele>101.40000152588</ele>
        <time>2025-06-06T17:09:55.000Z</time>
      </trkpt>
      <trkpt lat="48.40089" lon="2.37178">
        <ele>100.80000305176</ele>
        <time>2025-06-06T17:09:56.000Z</time>
      </trkpt>
      <trkpt lat="48.40086" lon="2.37163">
        <ele>100.40000152588</ele>
        <time>2025-06-06T17:10:02.000Z</time>
      </trkpt>
      <trkpt lat="48.40085" lon="2.37161">
        <ele>100.80000305176</ele>
        <time>2025-06-06T17:10:07.000Z</time>
      </trkpt>
      <trkpt lat="48.40084" lon="2.37159">
        <ele>102.40000152588</ele>
        <time>2025-06-06T17:10:11.000Z</time>
      </trkpt>
      <trkpt lat="48.40083" lon="2.37156">
        <ele>103.59999847412</ele>
        <time>2025-06-06T17:10:14.000Z</time>
      </trkpt>
      <trkpt lat="48.40081" lon="2.37153">
        <ele>103.59999847412</ele>
        <time>2025-06-06T17:10:16.000Z</time>
      </trkpt>
      <trkpt lat="48.40078" lon="2.37144">
        <ele>104.19999694824</ele>
        <time>2025-06-06T17:10:22.000Z</time>
      </trkpt>
      <trkpt lat="48.40078" lon="2.37142">
        <ele>104.19999694824</ele>
        <time>2025-06-06T17:10:23.000Z</time>
      </trkpt>
      <trkpt lat="48.40079" lon="2.37123">
        <ele>104.19999694824</ele>
        <time>2025-06-06T17:10:28.000Z</time>
      </trkpt>
      <trkpt lat="48.40084" lon="2.37115">
        <ele>103</ele>
        <time>2025-06-06T17:10:31.000Z</time>
      </trkpt>
      <trkpt lat="48.40087" lon="2.37116">
        <ele>102</ele>
        <time>2025-06-06T17:10:33.000Z</time>
      </trkpt>
      <trkpt lat="48.40088" lon="2.37117">
        <ele>100.40000152588</ele>
        <time>2025-06-06T17:10:35.000Z</time>
      </trkpt>
      <trkpt lat="48.40089" lon="2.37117">
        <ele>99.199996948242</ele>
        <time>2025-06-06T17:10:36.000Z</time>
      </trkpt>
      <trkpt lat="48.40089" lon="2.37117">
        <ele>98</ele>
        <time>2025-06-06T17:10:37.000Z</time>
      </trkpt>
      <trkpt lat="48.40091" lon="2.37119">
        <ele>97</ele>
        <time>2025-06-06T17:10:40.000Z</time>
      </trkpt>
      <trkpt lat="48.40096" lon="2.37121">
        <ele>96.800003051758</ele>
        <time>2025-06-06T17:10:43.000Z</time>
      </trkpt>
      <trkpt lat="48.40097" lon="2.37116">
        <ele>97</ele>
        <time>2025-06-06T17:10:48.000Z</time>
      </trkpt>
      <trkpt lat="48.40095" lon="2.37111">
        <ele>97.400001525879</ele>
        <time>2025-06-06T17:10:52.000Z</time>
      </trkpt>
      <trkpt lat="48.4009" lon="2.371">
        <ele>97.800003051758</ele>
        <time>2025-06-06T17:10:57.000Z</time>
      </trkpt>
      <trkpt lat="48.40085" lon="2.37093">
        <ele>97.800003051758</ele>
        <time>2025-06-06T17:10:59.000Z</time>
      </trkpt>
      <trkpt lat="48.40079" lon="2.37084">
        <ele>98</ele>
        <time>2025-06-06T17:11:02.000Z</time>
      </trkpt>
      <trkpt lat="48.40067" lon="2.37064">
        <ele>98</ele>
        <time>2025-06-06T17:11:08.000Z</time>
      </trkpt>
      <trkpt lat="48.40053" lon="2.37042">
        <ele>98.400001525879</ele>
        <time>2025-06-06T17:11:14.000Z</time>
      </trkpt>
      <trkpt lat="48.40041" lon="2.37028">
        <ele>98.800003051758</ele>
        <time>2025-06-06T17:11:18.000Z</time>
      </trkpt>
      <trkpt lat="48.40036" lon="2.37021">
        <ele>99</ele>
        <time>2025-06-06T17:11:20.000Z</time>
      </trkpt>
      <trkpt lat="48.40021" lon="2.37005">
        <ele>99.599998474121</ele>
        <time>2025-06-06T17:11:25.000Z</time>
      </trkpt>
      <trkpt lat="48.40007" lon="2.36991">
        <ele>100</ele>
        <time>2025-06-06T17:11:29.000Z</time>
      </trkpt>
      <trkpt lat="48.4" lon="2.36982">
        <ele>100.59999847412</ele>
        <time>2025-06-06T17:11:32.000Z</time>
      </trkpt>
      <trkpt lat="48.39986" lon="2.36964">
        <ele>101.19999694824</ele>
        <time>2025-06-06T17:11:38.000Z</time>
      </trkpt>
      <trkpt lat="48.39983" lon="2.36961">
        <ele>101.19999694824</ele>
        <time>2025-06-06T17:11:39.000Z</time>
      </trkpt>
      <trkpt lat="48.39968" lon="2.36946">
        <ele>102.40000152588</ele>
        <time>2025-06-06T17:11:44.000Z</time>
      </trkpt>
      <trkpt lat="48.3996" lon="2.36941">
        <ele>102.80000305176</ele>
        <time>2025-06-06T17:11:46.000Z</time>
      </trkpt>
      <trkpt lat="48.39938" lon="2.36917">
        <ele>103.19999694824</ele>
        <time>2025-06-06T17:11:52.000Z</time>
      </trkpt>
      <trkpt lat="48.39935" lon="2.36915">
        <ele>103.40000152588</ele>
        <time>2025-06-06T17:11:53.000Z</time>
      </trkpt>
      <trkpt lat="48.39916" lon="2.36895">
        <ele>104.40000152588</ele>
        <time>2025-06-06T17:11:59.000Z</time>
      </trkpt>
      <trkpt lat="48.39914" lon="2.36892">
        <ele>104.59999847412</ele>
        <time>2025-06-06T17:12:00.000Z</time>
      </trkpt>
      <trkpt lat="48.39905" lon="2.36879">
        <ele>105.40000152588</ele>
        <time>2025-06-06T17:12:04.000Z</time>
      </trkpt>
      <trkpt lat="48.39903" lon="2.36876">
        <ele>105.40000152588</ele>
        <time>2025-06-06T17:12:05.000Z</time>
      </trkpt>
      <trkpt lat="48.39892" lon="2.36851">
        <ele>106.19999694824</ele>
        <time>2025-06-06T17:12:12.000Z</time>
      </trkpt>
      <trkpt lat="48.39886" lon="2.36819">
        <ele>106.80000305176</ele>
        <time>2025-06-06T17:12:18.000Z</time>
      </trkpt>
      <trkpt lat="48.39883" lon="2.36802">
        <ele>107.40000152588</ele>
        <time>2025-06-06T17:12:21.000Z</time>
      </trkpt>
      <trkpt lat="48.39879" lon="2.36785">
        <ele>107.80000305176</ele>
        <time>2025-06-06T17:12:24.000Z</time>
      </trkpt>
      <trkpt lat="48.39878" lon="2.36767">
        <ele>108.40000152588</ele>
        <time>2025-06-06T17:12:28.000Z</time>
      </trkpt>
      <trkpt lat="48.39876" lon="2.36756">
        <ele>108.59999847412</ele>
        <time>2025-06-06T17:12:30.000Z</time>
      </trkpt>
      <trkpt lat="48.39872" lon="2.36726">
        <ele>109</ele>
        <time>2025-06-06T17:12:36.000Z</time>
      </trkpt>
      <trkpt lat="48.3987" lon="2.36719">
        <ele>109.19999694824</ele>
        <time>2025-06-06T17:12:37.000Z</time>
      </trkpt>
      <trkpt lat="48.39864" lon="2.36693">
        <ele>110</ele>
        <time>2025-06-06T17:12:41.000Z</time>
      </trkpt>
      <trkpt lat="48.3986" lon="2.36679">
        <ele>110.40000152588</ele>
        <time>2025-06-06T17:12:43.000Z</time>
      </trkpt>
      <trkpt lat="48.39856" lon="2.36661">
        <ele>110.59999847412</ele>
        <time>2025-06-06T17:12:46.000Z</time>
      </trkpt>
      <trkpt lat="48.39855" lon="2.36633">
        <ele>111.59999847412</ele>
        <time>2025-06-06T17:12:51.000Z</time>
      </trkpt>
      <trkpt lat="48.39853" lon="2.36621">
        <ele>112</ele>
        <time>2025-06-06T17:12:53.000Z</time>
      </trkpt>
      <trkpt lat="48.3985" lon="2.36585">
        <ele>112.40000152588</ele>
        <time>2025-06-06T17:12:59.000Z</time>
      </trkpt>
      <trkpt lat="48.3985" lon="2.3657">
        <ele>112.80000305176</ele>
        <time>2025-06-06T17:13:01.000Z</time>
      </trkpt>
      <trkpt lat="48.39848" lon="2.36548">
        <ele>113.59999847412</ele>
        <time>2025-06-06T17:13:05.000Z</time>
      </trkpt>
      <trkpt lat="48.39847" lon="2.36537">
        <ele>113.80000305176</ele>
        <time>2025-06-06T17:13:07.000Z</time>
      </trkpt>
      <trkpt lat="48.39844" lon="2.36513">
        <ele>114</ele>
        <time>2025-06-06T17:13:12.000Z</time>
      </trkpt>
      <trkpt lat="48.39842" lon="2.36491">
        <ele>114.59999847412</ele>
        <time>2025-06-06T17:13:16.000Z</time>
      </trkpt>
      <trkpt lat="48.39841" lon="2.3648">
        <ele>114.80000305176</ele>
        <time>2025-06-06T17:13:18.000Z</time>
      </trkpt>
      <trkpt lat="48.39839" lon="2.36457">
        <ele>115.59999847412</ele>
        <time>2025-06-06T17:13:23.000Z</time>
      </trkpt>
      <trkpt lat="48.39838" lon="2.36445">
        <ele>115.80000305176</ele>
        <time>2025-06-06T17:13:25.000Z</time>
      </trkpt>
      <trkpt lat="48.39833" lon="2.36408">
        <ele>116.40000152588</ele>
        <time>2025-06-06T17:13:30.000Z</time>
      </trkpt>
      <trkpt lat="48.39831" lon="2.36398">
        <ele>116.80000305176</ele>
        <time>2025-06-06T17:13:32.000Z</time>
      </trkpt>
      <trkpt lat="48.39826" lon="2.36382">
        <ele>117</ele>
        <time>2025-06-06T17:13:35.000Z</time>
      </trkpt>
      <trkpt lat="48.39821" lon="2.36359">
        <ele>117.59999847412</ele>
        <time>2025-06-06T17:13:39.000Z</time>
      </trkpt>
      <trkpt lat="48.39821" lon="2.36353">
        <ele>117.59999847412</ele>
        <time>2025-06-06T17:13:40.000Z</time>
      </trkpt>
      <trkpt lat="48.39825" lon="2.36342">
        <ele>118.19999694824</ele>
        <time>2025-06-06T17:13:44.000Z</time>
      </trkpt>
      <trkpt lat="48.39827" lon="2.36351">
        <ele>118.80000305176</ele>
        <time>2025-06-06T17:13:48.000Z</time>
      </trkpt>
      <trkpt lat="48.39828" lon="2.36354">
        <ele>119</ele>
        <time>2025-06-06T17:13:49.000Z</time>
      </trkpt>
      <trkpt lat="48.39832" lon="2.36364">
        <ele>120</ele>
        <time>2025-06-06T17:13:52.000Z</time>
      </trkpt>
      <trkpt lat="48.39835" lon="2.36368">
        <ele>120.19999694824</ele>
        <time>2025-06-06T17:13:53.000Z</time>
      </trkpt>
      <trkpt lat="48.39837" lon="2.36373">
        <ele>120.19999694824</ele>
        <time>2025-06-06T17:13:54.000Z</time>
      </trkpt>
      <trkpt lat="48.39837" lon="2.36383">
        <ele>120.40000152588</ele>
        <time>2025-06-06T17:13:56.000Z</time>
      </trkpt>
      <trkpt lat="48.39837" lon="2.36413">
        <ele>120.59999847412</ele>
        <time>2025-06-06T17:14:02.000Z</time>
      </trkpt>
      <trkpt lat="48.39838" lon="2.36444">
        <ele>120.40000152588</ele>
        <time>2025-06-06T17:14:08.000Z</time>
      </trkpt>
      <trkpt lat="48.39848" lon="2.36489">
        <ele>120.19999694824</ele>
        <time>2025-06-06T17:14:15.000Z</time>
      </trkpt>
      <trkpt lat="48.39865" lon="2.36505">
        <ele>120</ele>
        <time>2025-06-06T17:14:19.000Z</time>
      </trkpt>
      <trkpt lat="48.39877" lon="2.3652">
        <ele>118.59999847412</ele>
        <time>2025-06-06T17:14:23.000Z</time>
      </trkpt>
      <trkpt lat="48.39884" lon="2.36524">
        <ele>117.59999847412</ele>
        <time>2025-06-06T17:14:25.000Z</time>
      </trkpt>
      <trkpt lat="48.39898" lon="2.36532">
        <ele>116.40000152588</ele>
        <time>2025-06-06T17:14:28.000Z</time>
      </trkpt>
      <trkpt lat="48.39911" lon="2.36545">
        <ele>115.80000305176</ele>
        <time>2025-06-06T17:14:32.000Z</time>
      </trkpt>
      <trkpt lat="48.39915" lon="2.36559">
        <ele>114.80000305176</ele>
        <time>2025-06-06T17:14:35.000Z</time>
      </trkpt>
      <trkpt lat="48.39916" lon="2.36564">
        <ele>113.59999847412</ele>
        <time>2025-06-06T17:14:36.000Z</time>
      </trkpt>
      <trkpt lat="48.39916" lon="2.36567">
        <ele>112.80000305176</ele>
        <time>2025-06-06T17:14:37.000Z</time>
      </trkpt>
      <trkpt lat="48.39915" lon="2.3657">
        <ele>112.40000152588</ele>
        <time>2025-06-06T17:14:38.000Z</time>
      </trkpt>
      <trkpt lat="48.39914" lon="2.36581">
        <ele>112</ele>
        <time>2025-06-06T17:14:42.000Z</time>
      </trkpt>
      <trkpt lat="48.39919" lon="2.36594">
        <ele>111.59999847412</ele>
        <time>2025-06-06T17:14:46.000Z</time>
      </trkpt>
      <trkpt lat="48.39925" lon="2.36612">
        <ele>111.40000152588</ele>
        <time>2025-06-06T17:14:51.000Z</time>
      </trkpt>
      <trkpt lat="48.39927" lon="2.36622">
        <ele>111.19999694824</ele>
        <time>2025-06-06T17:14:53.000Z</time>
      </trkpt>
      <trkpt lat="48.39932" lon="2.36633">
        <ele>110.40000152588</ele>
        <time>2025-06-06T17:14:55.000Z</time>
      </trkpt>
      <trkpt lat="48.39934" lon="2.3664">
        <ele>109.59999847412</ele>
        <time>2025-06-06T17:14:56.000Z</time>
      </trkpt>
      <trkpt lat="48.39938" lon="2.36651">
        <ele>107.59999847412</ele>
        <time>2025-06-06T17:14:58.000Z</time>
      </trkpt>
      <trkpt lat="48.39939" lon="2.36654">
        <ele>106.40000152588</ele>
        <time>2025-06-06T17:14:59.000Z</time>
      </trkpt>
      <trkpt lat="48.39939" lon="2.36662">
        <ele>105</ele>
        <time>2025-06-06T17:15:01.000Z</time>
      </trkpt>
      <trkpt lat="48.39942" lon="2.36678">
        <ele>103.80000305176</ele>
        <time>2025-06-06T17:15:04.000Z</time>
      </trkpt>
      <trkpt lat="48.39944" lon="2.36685">
        <ele>103.59999847412</ele>
        <time>2025-06-06T17:15:05.000Z</time>
      </trkpt>
      <trkpt lat="48.39944" lon="2.36699">
        <ele>103.19999694824</ele>
        <time>2025-06-06T17:15:08.000Z</time>
      </trkpt>
      <trkpt lat="48.39941" lon="2.36724">
        <ele>103.40000152588</ele>
        <time>2025-06-06T17:15:14.000Z</time>
      </trkpt>
      <trkpt lat="48.39947" lon="2.36758">
        <ele>102.59999847412</ele>
        <time>2025-06-06T17:15:20.000Z</time>
      </trkpt>
      <trkpt lat="48.39948" lon="2.36763">
        <ele>102.19999694824</ele>
        <time>2025-06-06T17:15:21.000Z</time>
      </trkpt>
      <trkpt lat="48.39953" lon="2.36777">
        <ele>100.59999847412</ele>
        <time>2025-06-06T17:15:24.000Z</time>
      </trkpt>
      <trkpt lat="48.39957" lon="2.3679">
        <ele>99.199996948242</ele>
        <time>2025-06-06T17:15:26.000Z</time>
      </trkpt>
      <trkpt lat="48.39962" lon="2.36797">
        <ele>98</ele>
        <time>2025-06-06T17:15:28.000Z</time>
      </trkpt>
      <trkpt lat="48.39976" lon="2.36805">
        <ele>97</ele>
        <time>2025-06-06T17:15:32.000Z</time>
      </trkpt>
      <trkpt lat="48.39979" lon="2.36808">
        <ele>96.800003051758</ele>
        <time>2025-06-06T17:15:33.000Z</time>
      </trkpt>
      <trkpt lat="48.39984" lon="2.36816">
        <ele>96.199996948242</ele>
        <time>2025-06-06T17:15:36.000Z</time>
      </trkpt>
      <trkpt lat="48.39985" lon="2.36821">
        <ele>96</ele>
        <time>2025-06-06T17:15:38.000Z</time>
      </trkpt>
      <trkpt lat="48.39986" lon="2.36823">
        <ele>96</ele>
        <time>2025-06-06T17:15:39.000Z</time>
      </trkpt>
      <trkpt lat="48.3999" lon="2.36833">
        <ele>96</ele>
        <time>2025-06-06T17:15:43.000Z</time>
      </trkpt>
      <trkpt lat="48.39997" lon="2.36849">
        <ele>96</ele>
        <time>2025-06-06T17:15:47.000Z</time>
      </trkpt>
      <trkpt lat="48.40003" lon="2.36873">
        <ele>96.199996948242</ele>
        <time>2025-06-06T17:15:52.000Z</time>
      </trkpt>
      <trkpt lat="48.40009" lon="2.36888">
        <ele>96.199996948242</ele>
        <time>2025-06-06T17:15:56.000Z</time>
      </trkpt>
      <trkpt lat="48.40017" lon="2.36912">
        <ele>95.800003051758</ele>
        <time>2025-06-06T17:16:02.000Z</time>
      </trkpt>
      <trkpt lat="48.40017" lon="2.36917">
        <ele>95.599998474121</ele>
        <time>2025-06-06T17:16:03.000Z</time>
      </trkpt>
      <trkpt lat="48.4002" lon="2.36936">
        <ele>94.800003051758</ele>
        <time>2025-06-06T17:16:07.000Z</time>
      </trkpt>
      <trkpt lat="48.40021" lon="2.36941">
        <ele>94.400001525879</ele>
        <time>2025-06-06T17:16:08.000Z</time>
      </trkpt>
      <trkpt lat="48.40022" lon="2.36955">
        <ele>93.800003051758</ele>
        <time>2025-06-06T17:16:10.000Z</time>
      </trkpt>
      <trkpt lat="48.40023" lon="2.36963">
        <ele>93.599998474121</ele>
        <time>2025-06-06T17:16:11.000Z</time>
      </trkpt>
      <trkpt lat="48.40027" lon="2.36985">
        <ele>93.199996948242</ele>
        <time>2025-06-06T17:16:15.000Z</time>
      </trkpt>
      <trkpt lat="48.40038" lon="2.37007">
        <ele>93</ele>
        <time>2025-06-06T17:16:21.000Z</time>
      </trkpt>
      <trkpt lat="48.40054" lon="2.37028">
        <ele>92.400001525879</ele>
        <time>2025-06-06T17:16:27.000Z</time>
      </trkpt>
      <trkpt lat="48.40072" lon="2.37047">
        <ele>92.199996948242</ele>
        <time>2025-06-06T17:16:32.000Z</time>
      </trkpt>
      <trkpt lat="48.40078" lon="2.37053">
        <ele>91.800003051758</ele>
        <time>2025-06-06T17:16:34.000Z</time>
      </trkpt>
      <trkpt lat="48.40087" lon="2.37064">
        <ele>90.199996948242</ele>
        <time>2025-06-06T17:16:37.000Z</time>
      </trkpt>
      <trkpt lat="48.40094" lon="2.37078">
        <ele>89</ele>
        <time>2025-06-06T17:16:40.000Z</time>
      </trkpt>
      <trkpt lat="48.40101" lon="2.37086">
        <ele>88</ele>
        <time>2025-06-06T17:16:42.000Z</time>
      </trkpt>
      <trkpt lat="48.40105" lon="2.37091">
        <ele>87.599998474121</ele>
        <time>2025-06-06T17:16:43.000Z</time>
      </trkpt>
      <trkpt lat="48.40109" lon="2.37102">
        <ele>86.400001525879</ele>
        <time>2025-06-06T17:16:45.000Z</time>
      </trkpt>
      <trkpt lat="48.40113" lon="2.37106">
        <ele>86</ele>
        <time>2025-06-06T17:16:46.000Z</time>
      </trkpt>
      <trkpt lat="48.40118" lon="2.37111">
        <ele>85.400001525879</ele>
        <time>2025-06-06T17:16:48.000Z</time>
      </trkpt>
      <trkpt lat="48.40123" lon="2.37114">
        <ele>85.199996948242</ele>
        <time>2025-06-06T17:16:50.000Z</time>
      </trkpt>
      <trkpt lat="48.40134" lon="2.37121">
        <ele>85.199996948242</ele>
        <time>2025-06-06T17:16:55.000Z</time>
      </trkpt>
      <trkpt lat="48.40137" lon="2.37121">
        <ele>85</ele>
        <time>2025-06-06T17:16:56.000Z</time>
      </trkpt>
      <trkpt lat="48.40145" lon="2.37121">
        <ele>84.800003051758</ele>
        <time>2025-06-06T17:16:59.000Z</time>
      </trkpt>
      <trkpt lat="48.40152" lon="2.37129">
        <ele>84.800003051758</ele>
        <time>2025-06-06T17:17:03.000Z</time>
      </trkpt>
      <trkpt lat="48.40153" lon="2.37133">
        <ele>84.800003051758</ele>
        <time>2025-06-06T17:17:04.000Z</time>
      </trkpt>
      <trkpt lat="48.40154" lon="2.37143">
        <ele>84.199996948242</ele>
        <time>2025-06-06T17:17:06.000Z</time>
      </trkpt>
      <trkpt lat="48.40154" lon="2.37147">
        <ele>83.199996948242</ele>
        <time>2025-06-06T17:17:07.000Z</time>
      </trkpt>
      <trkpt lat="48.40154" lon="2.37154">
        <ele>82.800003051758</ele>
        <time>2025-06-06T17:17:09.000Z</time>
      </trkpt>
      <trkpt lat="48.40152" lon="2.37159">
        <ele>82.599998474121</ele>
        <time>2025-06-06T17:17:11.000Z</time>
      </trkpt>
      <trkpt lat="48.40146" lon="2.3718">
        <ele>83.800003051758</ele>
        <time>2025-06-06T17:17:19.000Z</time>
      </trkpt>
      <trkpt lat="48.40146" lon="2.37183">
        <ele>84</ele>
        <time>2025-06-06T17:17:20.000Z</time>
      </trkpt>
      <trkpt lat="48.40146" lon="2.3719">
        <ele>85.199996948242</ele>
        <time>2025-06-06T17:17:23.000Z</time>
      </trkpt>
      <trkpt lat="48.40147" lon="2.37197">
        <ele>86</ele>
        <time>2025-06-06T17:17:25.000Z</time>
      </trkpt>
      <trkpt lat="48.40147" lon="2.372">
        <ele>86.400001525879</ele>
        <time>2025-06-06T17:17:26.000Z</time>
      </trkpt>
      <trkpt lat="48.40145" lon="2.37207">
        <ele>87.599998474121</ele>
        <time>2025-06-06T17:17:29.000Z</time>
      </trkpt>
      <trkpt lat="48.40145" lon="2.37209">
        <ele>88.199996948242</ele>
        <time>2025-06-06T17:17:30.000Z</time>
      </trkpt>
      <trkpt lat="48.40144" lon="2.37212">
        <ele>88.599998474121</ele>
        <time>2025-06-06T17:17:31.000Z</time>
      </trkpt>
      <trkpt lat="48.40144" lon="2.37214">
        <ele>89</ele>
        <time>2025-06-06T17:17:32.000Z</time>
      </trkpt>
      <trkpt lat="48.40144" lon="2.37216">
        <ele>89.199996948242</ele>
        <time>2025-06-06T17:17:33.000Z</time>
      </trkpt>
      <trkpt lat="48.40149" lon="2.37226">
        <ele>89.800003051758</ele>
        <time>2025-06-06T17:17:37.000Z</time>
      </trkpt>
      <trkpt lat="48.40151" lon="2.37229">
        <ele>90</ele>
        <time>2025-06-06T17:17:38.000Z</time>
      </trkpt>
      <trkpt lat="48.40157" lon="2.37251">
        <ele>90.800003051758</ele>
        <time>2025-06-06T17:17:43.000Z</time>
      </trkpt>
      <trkpt lat="48.40161" lon="2.37286">
        <ele>90.800003051758</ele>
        <time>2025-06-06T17:17:47.000Z</time>
      </trkpt>
      <trkpt lat="48.40159" lon="2.37324">
        <ele>89.400001525879</ele>
        <time>2025-06-06T17:17:51.000Z</time>
      </trkpt>
      <trkpt lat="48.40159" lon="2.37332">
        <ele>88</ele>
        <time>2025-06-06T17:17:52.000Z</time>
      </trkpt>
      <trkpt lat="48.40159" lon="2.37338">
        <ele>86.199996948242</ele>
        <time>2025-06-06T17:17:53.000Z</time>
      </trkpt>
      <trkpt lat="48.40159" lon="2.37343">
        <ele>84.400001525879</ele>
        <time>2025-06-06T17:17:54.000Z</time>
      </trkpt>
      <trkpt lat="48.40158" lon="2.37347">
        <ele>83.599998474121</ele>
        <time>2025-06-06T17:17:55.000Z</time>
      </trkpt>
      <trkpt lat="48.40156" lon="2.3735">
        <ele>83.199996948242</ele>
        <time>2025-06-06T17:17:56.000Z</time>
      </trkpt>
      <trkpt lat="48.40152" lon="2.37356">
        <ele>82.800003051758</ele>
        <time>2025-06-06T17:17:58.000Z</time>
      </trkpt>
      <trkpt lat="48.40141" lon="2.37359">
        <ele>82.800003051758</ele>
        <time>2025-06-06T17:18:03.000Z</time>
      </trkpt>
      <trkpt lat="48.4014" lon="2.37359">
        <ele>82.800003051758</ele>
        <time>2025-06-06T17:18:04.000Z</time>
      </trkpt>
      <trkpt lat="48.40136" lon="2.37365">
        <ele>83</ele>
        <time>2025-06-06T17:18:07.000Z</time>
      </trkpt>
      <trkpt lat="48.40128" lon="2.37378">
        <ele>84.199996948242</ele>
        <time>2025-06-06T17:18:12.000Z</time>
      </trkpt>
      <trkpt lat="48.40128" lon="2.3738">
        <ele>84.599998474121</ele>
        <time>2025-06-06T17:18:13.000Z</time>
      </trkpt>
      <trkpt lat="48.40128" lon="2.37382">
        <ele>85.599998474121</ele>
        <time>2025-06-06T17:18:14.000Z</time>
      </trkpt>
      <trkpt lat="48.4013" lon="2.37385">
        <ele>86.800003051758</ele>
        <time>2025-06-06T17:18:16.000Z</time>
      </trkpt>
      <trkpt lat="48.40132" lon="2.37389">
        <ele>87.599998474121</ele>
        <time>2025-06-06T17:18:18.000Z</time>
      </trkpt>
      <trkpt lat="48.40134" lon="2.3739">
        <ele>87.800003051758</ele>
        <time>2025-06-06T17:18:19.000Z</time>
      </trkpt>
      <trkpt lat="48.40139" lon="2.37392">
        <ele>88.199996948242</ele>
        <time>2025-06-06T17:18:22.000Z</time>
      </trkpt>
      <trkpt lat="48.40142" lon="2.37397">
        <ele>88.400001525879</ele>
        <time>2025-06-06T17:18:24.000Z</time>
      </trkpt>
      <trkpt lat="48.40145" lon="2.37407">
        <ele>88.800003051758</ele>
        <time>2025-06-06T17:18:28.000Z</time>
      </trkpt>
      <trkpt lat="48.40145" lon="2.37409">
        <ele>88.800003051758</ele>
        <time>2025-06-06T17:18:29.000Z</time>
      </trkpt>
      <trkpt lat="48.40143" lon="2.37429">
        <ele>89.199996948242</ele>
        <time>2025-06-06T17:18:35.000Z</time>
      </trkpt>
      <trkpt lat="48.40143" lon="2.37436">
        <ele>90</ele>
        <time>2025-06-06T17:18:37.000Z</time>
      </trkpt>
      <trkpt lat="48.40142" lon="2.37451">
        <ele>90.800003051758</ele>
        <time>2025-06-06T17:18:42.000Z</time>
      </trkpt>
      <trkpt lat="48.40142" lon="2.37454">
        <ele>91.199996948242</ele>
        <time>2025-06-06T17:18:43.000Z</time>
      </trkpt>
      <trkpt lat="48.40138" lon="2.37467">
        <ele>91.599998474121</ele>
        <time>2025-06-06T17:18:47.000Z</time>
      </trkpt>
      <trkpt lat="48.40142" lon="2.37475">
        <ele>91.800003051758</ele>
        <time>2025-06-06T17:18:50.000Z</time>
      </trkpt>
      <trkpt lat="48.40144" lon="2.37476">
        <ele>92</ele>
        <time>2025-06-06T17:18:52.000Z</time>
      </trkpt>
      <trkpt lat="48.40144" lon="2.37481">
        <ele>92.199996948242</ele>
        <time>2025-06-06T17:18:55.000Z</time>
      </trkpt>
      <trkpt lat="48.40144" lon="2.37489">
        <ele>92.400001525879</ele>
        <time>2025-06-06T17:18:59.000Z</time>
      </trkpt>
      <trkpt lat="48.40146" lon="2.3749">
        <ele>92.599998474121</ele>
        <time>2025-06-06T17:19:01.000Z</time>
      </trkpt>
      <trkpt lat="48.40149" lon="2.37492">
        <ele>93.400001525879</ele>
        <time>2025-06-06T17:19:04.000Z</time>
      </trkpt>
      <trkpt lat="48.40153" lon="2.37495">
        <ele>94.400001525879</ele>
        <time>2025-06-06T17:19:07.000Z</time>
      </trkpt>
      <trkpt lat="48.40154" lon="2.37497">
        <ele>95</ele>
        <time>2025-06-06T17:19:08.000Z</time>
      </trkpt>
      <trkpt lat="48.40154" lon="2.37498">
        <ele>95.400001525879</ele>
        <time>2025-06-06T17:19:09.000Z</time>
      </trkpt>
      <trkpt lat="48.40157" lon="2.375">
        <ele>96</ele>
        <time>2025-06-06T17:19:11.000Z</time>
      </trkpt>
      <trkpt lat="48.40159" lon="2.37502">
        <ele>97</ele>
        <time>2025-06-06T17:19:13.000Z</time>
      </trkpt>
      <trkpt lat="48.40161" lon="2.37503">
        <ele>97.400001525879</ele>
        <time>2025-06-06T17:19:14.000Z</time>
      </trkpt>
      <trkpt lat="48.40162" lon="2.37503">
        <ele>97.599998474121</ele>
        <time>2025-06-06T17:19:15.000Z</time>
      </trkpt>
      <trkpt lat="48.40163" lon="2.37502">
        <ele>98.199996948242</ele>
        <time>2025-06-06T17:19:16.000Z</time>
      </trkpt>
      <trkpt lat="48.40165" lon="2.37502">
        <ele>99.400001525879</ele>
        <time>2025-06-06T17:19:20.000Z</time>
      </trkpt>
      <trkpt lat="48.40165" lon="2.37502">
        <ele>99.800003051758</ele>
        <time>2025-06-06T17:19:21.000Z</time>
      </trkpt>
      <trkpt lat="48.40165" lon="2.37503">
        <ele>100.59999847412</ele>
        <time>2025-06-06T17:19:23.000Z</time>
      </trkpt>
      <trkpt lat="48.40162" lon="2.37506">
        <ele>101.59999847412</ele>
        <time>2025-06-06T17:19:30.000Z</time>
      </trkpt>
      <trkpt lat="48.40157" lon="2.37503">
        <ele>101.19999694824</ele>
        <time>2025-06-06T17:19:37.000Z</time>
      </trkpt>
      <trkpt lat="48.40153" lon="2.37505">
        <ele>101</ele>
        <time>2025-06-06T17:19:39.000Z</time>
      </trkpt>
      <trkpt lat="48.40152" lon="2.37509">
        <ele>100.59999847412</ele>
        <time>2025-06-06T17:19:41.000Z</time>
      </trkpt>
      <trkpt lat="48.40153" lon="2.37514">
        <ele>100</ele>
        <time>2025-06-06T17:19:43.000Z</time>
      </trkpt>
      <trkpt lat="48.40155" lon="2.37519">
        <ele>99</ele>
        <time>2025-06-06T17:19:45.000Z</time>
      </trkpt>
      <trkpt lat="48.40157" lon="2.37522">
        <ele>97.800003051758</ele>
        <time>2025-06-06T17:19:47.000Z</time>
      </trkpt>
      <trkpt lat="48.40161" lon="2.37523">
        <ele>97.199996948242</ele>
        <time>2025-06-06T17:19:49.000Z</time>
      </trkpt>
      <trkpt lat="48.40172" lon="2.37527">
        <ele>97</ele>
        <time>2025-06-06T17:19:56.000Z</time>
      </trkpt>
      <trkpt lat="48.4018" lon="2.3753">
        <ele>98.199996948242</ele>
        <time>2025-06-06T17:20:02.000Z</time>
      </trkpt>
      <trkpt lat="48.40182" lon="2.37531">
        <ele>99.199996948242</ele>
        <time>2025-06-06T17:20:04.000Z</time>
      </trkpt>
      <trkpt lat="48.40187" lon="2.37532">
        <ele>100.59999847412</ele>
        <time>2025-06-06T17:20:07.000Z</time>
      </trkpt>
      <trkpt lat="48.40189" lon="2.37532">
        <ele>100.80000305176</ele>
        <time>2025-06-06T17:20:08.000Z</time>
      </trkpt>
      <trkpt lat="48.40195" lon="2.37532">
        <ele>102</ele>
        <time>2025-06-06T17:20:11.000Z</time>
      </trkpt>
      <trkpt lat="48.40201" lon="2.37532">
        <ele>102.40000152588</ele>
        <time>2025-06-06T17:20:14.000Z</time>
      </trkpt>
      <trkpt lat="48.40211" lon="2.37532">
        <ele>102.80000305176</ele>
        <time>2025-06-06T17:20:18.000Z</time>
      </trkpt>
      <trkpt lat="48.40222" lon="2.37538">
        <ele>103</ele>
        <time>2025-06-06T17:20:21.000Z</time>
      </trkpt>
      <trkpt lat="48.40226" lon="2.37543">
        <ele>103</ele>
        <time>2025-06-06T17:20:22.000Z</time>
      </trkpt>
      <trkpt lat="48.40234" lon="2.37552">
        <ele>103</ele>
        <time>2025-06-06T17:20:24.000Z</time>
      </trkpt>
      <trkpt lat="48.40241" lon="2.3756">
        <ele>103</ele>
        <time>2025-06-06T17:20:26.000Z</time>
      </trkpt>
      <trkpt lat="48.40245" lon="2.37569">
        <ele>102.59999847412</ele>
        <time>2025-06-06T17:20:28.000Z</time>
      </trkpt>
      <trkpt lat="48.40251" lon="2.37578">
        <ele>100.80000305176</ele>
        <time>2025-06-06T17:20:30.000Z</time>
      </trkpt>
      <trkpt lat="48.40255" lon="2.37581">
        <ele>99.400001525879</ele>
        <time>2025-06-06T17:20:31.000Z</time>
      </trkpt>
      <trkpt lat="48.4026" lon="2.37583">
        <ele>98</ele>
        <time>2025-06-06T17:20:32.000Z</time>
      </trkpt>
      <trkpt lat="48.40264" lon="2.37584">
        <ele>96.800003051758</ele>
        <time>2025-06-06T17:20:33.000Z</time>
      </trkpt>
      <trkpt lat="48.40269" lon="2.37583">
        <ele>95.800003051758</ele>
        <time>2025-06-06T17:20:34.000Z</time>
      </trkpt>
      <trkpt lat="48.40275" lon="2.37575">
        <ele>94.199996948242</ele>
        <time>2025-06-06T17:20:36.000Z</time>
      </trkpt>
      <trkpt lat="48.40277" lon="2.37569">
        <ele>93.400001525879</ele>
        <time>2025-06-06T17:20:37.000Z</time>
      </trkpt>
      <trkpt lat="48.40279" lon="2.37566">
        <ele>92.599998474121</ele>
        <time>2025-06-06T17:20:38.000Z</time>
      </trkpt>
      <trkpt lat="48.40285" lon="2.37562">
        <ele>89.800003051758</ele>
        <time>2025-06-06T17:20:40.000Z</time>
      </trkpt>
      <trkpt lat="48.40289" lon="2.37563">
        <ele>88.599998474121</ele>
        <time>2025-06-06T17:20:41.000Z</time>
      </trkpt>
      <trkpt lat="48.40298" lon="2.37568">
        <ele>87</ele>
        <time>2025-06-06T17:20:43.000Z</time>
      </trkpt>
      <trkpt lat="48.40302" lon="2.3757">
        <ele>86</ele>
        <time>2025-06-06T17:20:44.000Z</time>
      </trkpt>
      <trkpt lat="48.40306" lon="2.37567">
        <ele>85.400001525879</ele>
        <time>2025-06-06T17:20:45.000Z</time>
      </trkpt>
      <trkpt lat="48.40309" lon="2.37564">
        <ele>84.800003051758</ele>
        <time>2025-06-06T17:20:46.000Z</time>
      </trkpt>
      <trkpt lat="48.40314" lon="2.37555">
        <ele>83.800003051758</ele>
        <time>2025-06-06T17:20:48.000Z</time>
      </trkpt>
      <trkpt lat="48.40316" lon="2.37551">
        <ele>82.599998474121</ele>
        <time>2025-06-06T17:20:49.000Z</time>
      </trkpt>
      <trkpt lat="48.40316" lon="2.37548">
        <ele>81.400001525879</ele>
        <time>2025-06-06T17:20:50.000Z</time>
      </trkpt>
      <trkpt lat="48.40315" lon="2.37547">
        <ele>80</ele>
        <time>2025-06-06T17:20:51.000Z</time>
      </trkpt>
      <trkpt lat="48.40315" lon="2.37546">
        <ele>78.400001525879</ele>
        <time>2025-06-06T17:20:52.000Z</time>
      </trkpt>
      <trkpt lat="48.40314" lon="2.37543">
        <ele>77</ele>
        <time>2025-06-06T17:20:54.000Z</time>
      </trkpt>
      <trkpt lat="48.40313" lon="2.37542">
        <ele>76.800003051758</ele>
        <time>2025-06-06T17:20:55.000Z</time>
      </trkpt>
      <trkpt lat="48.40309" lon="2.37535">
        <ele>76.599998474121</ele>
        <time>2025-06-06T17:21:01.000Z</time>
      </trkpt>
      <trkpt lat="48.40306" lon="2.37519">
        <ele>77.599998474121</ele>
        <time>2025-06-06T17:21:07.000Z</time>
      </trkpt>
      <trkpt lat="48.40304" lon="2.37517">
        <ele>78</ele>
        <time>2025-06-06T17:21:08.000Z</time>
      </trkpt>
      <trkpt lat="48.40301" lon="2.37503">
        <ele>79</ele>
        <time>2025-06-06T17:21:13.000Z</time>
      </trkpt>
      <trkpt lat="48.40293" lon="2.37489">
        <ele>80.199996948242</ele>
        <time>2025-06-06T17:21:19.000Z</time>
      </trkpt>
      <trkpt lat="48.40289" lon="2.37483">
        <ele>80.800003051758</ele>
        <time>2025-06-06T17:21:24.000Z</time>
      </trkpt>
      <trkpt lat="48.40287" lon="2.3748">
        <ele>81.199996948242</ele>
        <time>2025-06-06T17:21:26.000Z</time>
      </trkpt>
      <trkpt lat="48.40285" lon="2.37478">
        <ele>82.199996948242</ele>
        <time>2025-06-06T17:21:28.000Z</time>
      </trkpt>
      <trkpt lat="48.40283" lon="2.37476">
        <ele>83.199996948242</ele>
        <time>2025-06-06T17:21:30.000Z</time>
      </trkpt>
      <trkpt lat="48.40282" lon="2.37475">
        <ele>83.599998474121</ele>
        <time>2025-06-06T17:21:32.000Z</time>
      </trkpt>
      <trkpt lat="48.40279" lon="2.37471">
        <ele>84.599998474121</ele>
        <time>2025-06-06T17:21:36.000Z</time>
      </trkpt>
      <trkpt lat="48.40279" lon="2.37469">
        <ele>85</ele>
        <time>2025-06-06T17:21:37.000Z</time>
      </trkpt>
      <trkpt lat="48.40279" lon="2.37463">
        <ele>85.199996948242</ele>
        <time>2025-06-06T17:21:39.000Z</time>
      </trkpt>
      <trkpt lat="48.40281" lon="2.37445">
        <ele>85.199996948242</ele>
        <time>2025-06-06T17:21:44.000Z</time>
      </trkpt>
      <trkpt lat="48.40284" lon="2.37423">
        <ele>83.400001525879</ele>
        <time>2025-06-06T17:21:48.000Z</time>
      </trkpt>
      <trkpt lat="48.40286" lon="2.37418">
        <ele>82.800003051758</ele>
        <time>2025-06-06T17:21:49.000Z</time>
      </trkpt>
      <trkpt lat="48.4029" lon="2.37414">
        <ele>81.400001525879</ele>
        <time>2025-06-06T17:21:51.000Z</time>
      </trkpt>
      <trkpt lat="48.40292" lon="2.37414">
        <ele>80.800003051758</ele>
        <time>2025-06-06T17:21:52.000Z</time>
      </trkpt>
      <trkpt lat="48.40294" lon="2.37415">
        <ele>80.199996948242</ele>
        <time>2025-06-06T17:21:53.000Z</time>
      </trkpt>
      <trkpt lat="48.40296" lon="2.37416">
        <ele>79.199996948242</ele>
        <time>2025-06-06T17:21:54.000Z</time>
      </trkpt>
      <trkpt lat="48.403" lon="2.37416">
        <ele>78.199996948242</ele>
        <time>2025-06-06T17:21:55.000Z</time>
      </trkpt>
      <trkpt lat="48.40304" lon="2.37416">
        <ele>77</ele>
        <time>2025-06-06T17:21:56.000Z</time>
      </trkpt>
      <trkpt lat="48.40308" lon="2.37415">
        <ele>75.800003051758</ele>
        <time>2025-06-06T17:21:57.000Z</time>
      </trkpt>
      <trkpt lat="48.40317" lon="2.37414">
        <ele>74</ele>
        <time>2025-06-06T17:21:59.000Z</time>
      </trkpt>
      <trkpt lat="48.40332" lon="2.37415">
        <ele>73.400001525879</ele>
        <time>2025-06-06T17:22:02.000Z</time>
      </trkpt>
      <trkpt lat="48.40337" lon="2.37418">
        <ele>72.800003051758</ele>
        <time>2025-06-06T17:22:03.000Z</time>
      </trkpt>
      <trkpt lat="48.40345" lon="2.37427">
        <ele>71.800003051758</ele>
        <time>2025-06-06T17:22:05.000Z</time>
      </trkpt>
      <trkpt lat="48.40351" lon="2.3744">
        <ele>70.800003051758</ele>
        <time>2025-06-06T17:22:07.000Z</time>
      </trkpt>
      <trkpt lat="48.40353" lon="2.37448">
        <ele>70.800003051758</ele>
        <time>2025-06-06T17:22:08.000Z</time>
      </trkpt>
      <trkpt lat="48.40354" lon="2.37471">
        <ele>70.400001525879</ele>
        <time>2025-06-06T17:22:11.000Z</time>
      </trkpt>
      <trkpt lat="48.40354" lon="2.37479">
        <ele>70.400001525879</ele>
        <time>2025-06-06T17:22:12.000Z</time>
      </trkpt>
      <trkpt lat="48.40353" lon="2.37526">
        <ele>70</ele>
        <time>2025-06-06T17:22:18.000Z</time>
      </trkpt>
      <trkpt lat="48.40356" lon="2.37575">
        <ele>69.400001525879</ele>
        <time>2025-06-06T17:22:24.000Z</time>
      </trkpt>
      <trkpt lat="48.40357" lon="2.37583">
        <ele>69.199996948242</ele>
        <time>2025-06-06T17:22:25.000Z</time>
      </trkpt>
      <trkpt lat="48.40357" lon="2.37591">
        <ele>68.800003051758</ele>
        <time>2025-06-06T17:22:26.000Z</time>
      </trkpt>
      <trkpt lat="48.40353" lon="2.37615">
        <ele>68.199996948242</ele>
        <time>2025-06-06T17:22:29.000Z</time>
      </trkpt>
      <trkpt lat="48.40345" lon="2.37672">
        <ele>67.599998474121</ele>
        <time>2025-06-06T17:22:36.000Z</time>
      </trkpt>
      <trkpt lat="48.40341" lon="2.37687">
        <ele>67.400001525879</ele>
        <time>2025-06-06T17:22:38.000Z</time>
      </trkpt>
      <trkpt lat="48.40338" lon="2.37694">
        <ele>67.199996948242</ele>
        <time>2025-06-06T17:22:39.000Z</time>
      </trkpt>
      <trkpt lat="48.40333" lon="2.37708">
        <ele>67</ele>
        <time>2025-06-06T17:22:41.000Z</time>
      </trkpt>
      <trkpt lat="48.40324" lon="2.37725">
        <ele>66.800003051758</ele>
        <time>2025-06-06T17:22:44.000Z</time>
      </trkpt>
      <trkpt lat="48.40317" lon="2.37733">
        <ele>66.599998474121</ele>
        <time>2025-06-06T17:22:46.000Z</time>
      </trkpt>
      <trkpt lat="48.40292" lon="2.37764">
        <ele>66.400001525879</ele>
        <time>2025-06-06T17:22:52.000Z</time>
      </trkpt>
      <trkpt lat="48.40281" lon="2.37782">
        <ele>66</ele>
        <time>2025-06-06T17:22:55.000Z</time>
      </trkpt>
      <trkpt lat="48.40268" lon="2.37808">
        <ele>65.400001525879</ele>
        <time>2025-06-06T17:22:59.000Z</time>
      </trkpt>
      <trkpt lat="48.40251" lon="2.37844">
        <ele>65.199996948242</ele>
        <time>2025-06-06T17:23:05.000Z</time>
      </trkpt>
      <trkpt lat="48.40249" lon="2.37862">
        <ele>65.199996948242</ele>
        <time>2025-06-06T17:23:08.000Z</time>
      </trkpt>
      <trkpt lat="48.4025" lon="2.37869">
        <ele>65.199996948242</ele>
        <time>2025-06-06T17:23:09.000Z</time>
      </trkpt>
      <trkpt lat="48.40258" lon="2.3789">
        <ele>65.199996948242</ele>
        <time>2025-06-06T17:23:12.000Z</time>
      </trkpt>
      <trkpt lat="48.40257" lon="2.37915">
        <ele>65.199996948242</ele>
        <time>2025-06-06T17:23:15.000Z</time>
      </trkpt>
      <trkpt lat="48.40253" lon="2.37931">
        <ele>65.199996948242</ele>
        <time>2025-06-06T17:23:17.000Z</time>
      </trkpt>
      <trkpt lat="48.40245" lon="2.37965">
        <ele>64.800003051758</ele>
        <time>2025-06-06T17:23:21.000Z</time>
      </trkpt>
      <trkpt lat="48.40243" lon="2.37974">
        <ele>64.800003051758</ele>
        <time>2025-06-06T17:23:22.000Z</time>
      </trkpt>
      <trkpt lat="48.40233" lon="2.38012">
        <ele>63.799999237061</ele>
        <time>2025-06-06T17:23:26.000Z</time>
      </trkpt>
      <trkpt lat="48.40226" lon="2.38039">
        <ele>63.400001525879</ele>
        <time>2025-06-06T17:23:29.000Z</time>
      </trkpt>
      <trkpt lat="48.40217" lon="2.38075">
        <ele>62.799999237061</ele>
        <time>2025-06-06T17:23:33.000Z</time>
      </trkpt>
      <trkpt lat="48.4021" lon="2.381">
        <ele>62.400001525879</ele>
        <time>2025-06-06T17:23:36.000Z</time>
      </trkpt>
      <trkpt lat="48.40201" lon="2.38131">
        <ele>62</ele>
        <time>2025-06-06T17:23:40.000Z</time>
      </trkpt>
      <trkpt lat="48.40198" lon="2.38136">
        <ele>61.799999237061</ele>
        <time>2025-06-06T17:23:41.000Z</time>
      </trkpt>
      <trkpt lat="48.40184" lon="2.38138">
        <ele>61.799999237061</ele>
        <time>2025-06-06T17:23:44.000Z</time>
      </trkpt>
      <trkpt lat="48.40173" lon="2.38135">
        <ele>61.799999237061</ele>
        <time>2025-06-06T17:23:46.000Z</time>
      </trkpt>
      <trkpt lat="48.40151" lon="2.38128">
        <ele>61.599998474121</ele>
        <time>2025-06-06T17:23:50.000Z</time>
      </trkpt>
      <trkpt lat="48.40115" lon="2.38118">
        <ele>60.799999237061</ele>
        <time>2025-06-06T17:23:56.000Z</time>
      </trkpt>
      <trkpt lat="48.40067" lon="2.38106">
        <ele>60</ele>
        <time>2025-06-06T17:24:04.000Z</time>
      </trkpt>
      <trkpt lat="48.40016" lon="2.38096">
        <ele>60.200000762939</ele>
        <time>2025-06-06T17:24:13.000Z</time>
      </trkpt>
      <trkpt lat="48.39978" lon="2.38092">
        <ele>61</ele>
        <time>2025-06-06T17:24:20.000Z</time>
      </trkpt>
      <trkpt lat="48.39941" lon="2.38086">
        <ele>61.599998474121</ele>
        <time>2025-06-06T17:24:27.000Z</time>
      </trkpt>
      <trkpt lat="48.39936" lon="2.38085">
        <ele>61.799999237061</ele>
        <time>2025-06-06T17:24:28.000Z</time>
      </trkpt>
      <trkpt lat="48.39909" lon="2.38086">
        <ele>62.799999237061</ele>
        <time>2025-06-06T17:24:33.000Z</time>
      </trkpt>
      <trkpt lat="48.39903" lon="2.38087">
        <ele>63</ele>
        <time>2025-06-06T17:24:34.000Z</time>
      </trkpt>
      <trkpt lat="48.39864" lon="2.381">
        <ele>63.400001525879</ele>
        <time>2025-06-06T17:24:41.000Z</time>
      </trkpt>
      <trkpt lat="48.39828" lon="2.38109">
        <ele>63.200000762939</ele>
        <time>2025-06-06T17:24:47.000Z</time>
      </trkpt>
      <trkpt lat="48.39791" lon="2.38109">
        <ele>62.799999237061</ele>
        <time>2025-06-06T17:24:53.000Z</time>
      </trkpt>
      <trkpt lat="48.39768" lon="2.3809">
        <ele>62.599998474121</ele>
        <time>2025-06-06T17:24:57.000Z</time>
      </trkpt>
      <trkpt lat="48.39725" lon="2.38041">
        <ele>61.799999237061</ele>
        <time>2025-06-06T17:25:05.000Z</time>
      </trkpt>
      <trkpt lat="48.39719" lon="2.38036">
        <ele>61.599998474121</ele>
        <time>2025-06-06T17:25:06.000Z</time>
      </trkpt>
      <trkpt lat="48.39673" lon="2.37995">
        <ele>61</ele>
        <time>2025-06-06T17:25:14.000Z</time>
      </trkpt>
      <trkpt lat="48.39657" lon="2.37981">
        <ele>61</ele>
        <time>2025-06-06T17:25:17.000Z</time>
      </trkpt>
      <trkpt lat="48.39652" lon="2.37982">
        <ele>61</ele>
        <time>2025-06-06T17:25:18.000Z</time>
      </trkpt>
      <trkpt lat="48.39646" lon="2.37994">
        <ele>61</ele>
        <time>2025-06-06T17:25:20.000Z</time>
      </trkpt>
      <trkpt lat="48.39645" lon="2.38012">
        <ele>61</ele>
        <time>2025-06-06T17:25:22.000Z</time>
      </trkpt>
      <trkpt lat="48.39644" lon="2.38032">
        <ele>60.799999237061</ele>
        <time>2025-06-06T17:25:24.000Z</time>
      </trkpt>
      <trkpt lat="48.3964" lon="2.38116">
        <ele>60.599998474121</ele>
        <time>2025-06-06T17:25:32.000Z</time>
      </trkpt>
      <trkpt lat="48.3964" lon="2.38126">
        <ele>60.200000762939</ele>
        <time>2025-06-06T17:25:33.000Z</time>
      </trkpt>
      <trkpt lat="48.39637" lon="2.38188">
        <ele>59.200000762939</ele>
        <time>2025-06-06T17:25:39.000Z</time>
      </trkpt>
      <trkpt lat="48.39635" lon="2.38229">
        <ele>58.599998474121</ele>
        <time>2025-06-06T17:25:43.000Z</time>
      </trkpt>
      <trkpt lat="48.39631" lon="2.38295">
        <ele>58.200000762939</ele>
        <time>2025-06-06T17:25:50.000Z</time>
      </trkpt>
      <trkpt lat="48.3963" lon="2.38329">
        <ele>58.200000762939</ele>
        <time>2025-06-06T17:25:54.000Z</time>
      </trkpt>
      <trkpt lat="48.39622" lon="2.38346">
        <ele>58</ele>
        <time>2025-06-06T17:25:57.000Z</time>
      </trkpt>
      <trkpt lat="48.39612" lon="2.38349">
        <ele>58</ele>
        <time>2025-06-06T17:25:59.000Z</time>
      </trkpt>
      <trkpt lat="48.39607" lon="2.3835">
        <ele>58</ele>
        <time>2025-06-06T17:26:00.000Z</time>
      </trkpt>
      <trkpt lat="48.39567" lon="2.38357">
        <ele>57.599998474121</ele>
        <time>2025-06-06T17:26:07.000Z</time>
      </trkpt>
      <trkpt lat="48.39534" lon="2.38358">
        <ele>57.799999237061</ele>
        <time>2025-06-06T17:26:13.000Z</time>
      </trkpt>
      <trkpt lat="48.39493" lon="2.38358">
        <ele>57.599998474121</ele>
        <time>2025-06-06T17:26:20.000Z</time>
      </trkpt>
      <trkpt lat="48.3948" lon="2.38357">
        <ele>57.599998474121</ele>
        <time>2025-06-06T17:26:23.000Z</time>
      </trkpt>
      <trkpt lat="48.39474" lon="2.3835">
        <ele>57.799999237061</ele>
        <time>2025-06-06T17:26:25.000Z</time>
      </trkpt>
      <trkpt lat="48.39458" lon="2.38326">
        <ele>58</ele>
        <time>2025-06-06T17:26:30.000Z</time>
      </trkpt>
      <trkpt lat="48.39443" lon="2.38316">
        <ele>58</ele>
        <time>2025-06-06T17:26:34.000Z</time>
      </trkpt>
      <trkpt lat="48.39441" lon="2.38318">
        <ele>58</ele>
        <time>2025-06-06T17:26:35.000Z</time>
      </trkpt>
      <trkpt lat="48.39439" lon="2.38326">
        <ele>58</ele>
        <time>2025-06-06T17:26:37.000Z</time>
      </trkpt>
      <trkpt lat="48.39437" lon="2.38339">
        <ele>58</ele>
        <time>2025-06-06T17:26:40.000Z</time>
      </trkpt>
      <trkpt lat="48.39436" lon="2.38349">
        <ele>58.400001525879</ele>
        <time>2025-06-06T17:26:42.000Z</time>
      </trkpt>
      <trkpt lat="48.39433" lon="2.38353">
        <ele>58.799999237061</ele>
        <time>2025-06-06T17:26:43.000Z</time>
      </trkpt>
      <trkpt lat="48.3943" lon="2.38359">
        <ele>59</ele>
        <time>2025-06-06T17:26:44.000Z</time>
      </trkpt>
      <trkpt lat="48.39427" lon="2.38365">
        <ele>59.200000762939</ele>
        <time>2025-06-06T17:26:45.000Z</time>
      </trkpt>
      <trkpt lat="48.39424" lon="2.3839">
        <ele>59.200000762939</ele>
        <time>2025-06-06T17:26:48.000Z</time>
      </trkpt>
      <trkpt lat="48.39423" lon="2.38399">
        <ele>59.200000762939</ele>
        <time>2025-06-06T17:26:49.000Z</time>
      </trkpt>
      <trkpt lat="48.39419" lon="2.38444">
        <ele>59.200000762939</ele>
        <time>2025-06-06T17:26:54.000Z</time>
      </trkpt>
      <trkpt lat="48.39405" lon="2.38484">
        <ele>58.799999237061</ele>
        <time>2025-06-06T17:26:59.000Z</time>
      </trkpt>
      <trkpt lat="48.39372" lon="2.38556">
        <ele>58.200000762939</ele>
        <time>2025-06-06T17:27:08.000Z</time>
      </trkpt>
      <trkpt lat="48.39361" lon="2.38592">
        <ele>58</ele>
        <time>2025-06-06T17:27:12.000Z</time>
      </trkpt>
      <trkpt lat="48.39357" lon="2.3861">
        <ele>58</ele>
        <time>2025-06-06T17:27:14.000Z</time>
      </trkpt>
      <trkpt lat="48.39354" lon="2.38619">
        <ele>58</ele>
        <time>2025-06-06T17:27:15.000Z</time>
      </trkpt>
      <trkpt lat="48.39344" lon="2.38654">
        <ele>58</ele>
        <time>2025-06-06T17:27:19.000Z</time>
      </trkpt>
      <trkpt lat="48.3934" lon="2.38661">
        <ele>58</ele>
        <time>2025-06-06T17:27:20.000Z</time>
      </trkpt>
      <trkpt lat="48.39328" lon="2.38701">
        <ele>58</ele>
        <time>2025-06-06T17:27:25.000Z</time>
      </trkpt>
      <trkpt lat="48.39326" lon="2.3871">
        <ele>58</ele>
        <time>2025-06-06T17:27:26.000Z</time>
      </trkpt>
      <trkpt lat="48.39313" lon="2.38774">
        <ele>58.200000762939</ele>
        <time>2025-06-06T17:27:33.000Z</time>
      </trkpt>
      <trkpt lat="48.39306" lon="2.38809">
        <ele>58</ele>
        <time>2025-06-06T17:27:37.000Z</time>
      </trkpt>
      <trkpt lat="48.39303" lon="2.38826">
        <ele>58</ele>
        <time>2025-06-06T17:27:39.000Z</time>
      </trkpt>
      <trkpt lat="48.3929" lon="2.38898">
        <ele>57.599998474121</ele>
        <time>2025-06-06T17:27:47.000Z</time>
      </trkpt>
      <trkpt lat="48.39278" lon="2.38962">
        <ele>57.400001525879</ele>
        <time>2025-06-06T17:27:54.000Z</time>
      </trkpt>
      <trkpt lat="48.39267" lon="2.39015">
        <ele>57.799999237061</ele>
        <time>2025-06-06T17:28:00.000Z</time>
      </trkpt>
      <trkpt lat="48.39258" lon="2.39069">
        <ele>58.200000762939</ele>
        <time>2025-06-06T17:28:06.000Z</time>
      </trkpt>
      <trkpt lat="48.39256" lon="2.39077">
        <ele>58.200000762939</ele>
        <time>2025-06-06T17:28:07.000Z</time>
      </trkpt>
      <trkpt lat="48.39248" lon="2.39117">
        <ele>58.400001525879</ele>
        <time>2025-06-06T17:28:12.000Z</time>
      </trkpt>
      <trkpt lat="48.39242" lon="2.39151">
        <ele>58.599998474121</ele>
        <time>2025-06-06T17:28:18.000Z</time>
      </trkpt>
      <trkpt lat="48.39242" lon="2.39161">
        <ele>58.799999237061</ele>
        <time>2025-06-06T17:28:20.000Z</time>
      </trkpt>
      <trkpt lat="48.39242" lon="2.39178">
        <ele>59.599998474121</ele>
        <time>2025-06-06T17:28:24.000Z</time>
      </trkpt>
      <trkpt lat="48.39242" lon="2.39186">
        <ele>60</ele>
        <time>2025-06-06T17:28:26.000Z</time>
      </trkpt>
      <trkpt lat="48.39239" lon="2.392">
        <ele>60.200000762939</ele>
        <time>2025-06-06T17:28:31.000Z</time>
      </trkpt>
      <trkpt lat="48.3924" lon="2.39213">
        <ele>60.599998474121</ele>
        <time>2025-06-06T17:28:38.000Z</time>
      </trkpt>
      <trkpt lat="48.39244" lon="2.39223">
        <ele>60.599998474121</ele>
        <time>2025-06-06T17:28:44.000Z</time>
      </trkpt>
      <trkpt lat="48.39245" lon="2.39224">
        <ele>60.599998474121</ele>
        <time>2025-06-06T17:28:57.000Z</time>
      </trkpt>
      <trkpt lat="48.39245" lon="2.39224">
        <ele>60.400001525879</ele>
        <time>2025-06-06T17:29:13.000Z</time>
      </trkpt>
      <trkpt lat="48.39245" lon="2.39224">
        <ele>60.400001525879</ele>
        <time>2025-06-06T17:29:24.000Z</time>
      </trkpt>
      <trkpt lat="48.39245" lon="2.39224">
        <ele>60.400001525879</ele>
        <time>2025-06-06T17:30:01.000Z</time>
      </trkpt>
      <trkpt lat="48.39245" lon="2.39232">
        <ele>60.400001525879</ele>
        <time>2025-06-06T17:30:08.000Z</time>
      </trkpt>
      <trkpt lat="48.39245" lon="2.39251">
        <ele>60.400001525879</ele>
        <time>2025-06-06T17:30:12.000Z</time>
      </trkpt>
      <trkpt lat="48.39248" lon="2.39281">
        <ele>60.599998474121</ele>
        <time>2025-06-06T17:30:17.000Z</time>
      </trkpt>
      <trkpt lat="48.39251" lon="2.39326">
        <ele>60.400001525879</ele>
        <time>2025-06-06T17:30:24.000Z</time>
      </trkpt>
      <trkpt lat="48.39257" lon="2.39367">
        <ele>60.599998474121</ele>
        <time>2025-06-06T17:30:30.000Z</time>
      </trkpt>
      <trkpt lat="48.39261" lon="2.39386">
        <ele>60.799999237061</ele>
        <time>2025-06-06T17:30:33.000Z</time>
      </trkpt>
      <trkpt lat="48.39266" lon="2.39406">
        <ele>60.799999237061</ele>
        <time>2025-06-06T17:30:36.000Z</time>
      </trkpt>
      <trkpt lat="48.39283" lon="2.39461">
        <ele>61.400001525879</ele>
        <time>2025-06-06T17:30:44.000Z</time>
      </trkpt>
      <trkpt lat="48.39296" lon="2.39505">
        <ele>61.799999237061</ele>
        <time>2025-06-06T17:30:50.000Z</time>
      </trkpt>
      <trkpt lat="48.39298" lon="2.39512">
        <ele>61.799999237061</ele>
        <time>2025-06-06T17:30:51.000Z</time>
      </trkpt>
      <trkpt lat="48.39298" lon="2.3952">
        <ele>61.799999237061</ele>
        <time>2025-06-06T17:30:52.000Z</time>
      </trkpt>
      <trkpt lat="48.39295" lon="2.39525">
        <ele>61.799999237061</ele>
        <time>2025-06-06T17:30:53.000Z</time>
      </trkpt>
      <trkpt lat="48.39288" lon="2.39528">
        <ele>61.799999237061</ele>
        <time>2025-06-06T17:30:55.000Z</time>
      </trkpt>
      <trkpt lat="48.39277" lon="2.39518">
        <ele>61.799999237061</ele>
        <time>2025-06-06T17:30:58.000Z</time>
      </trkpt>
      <trkpt lat="48.39274" lon="2.39514">
        <ele>61.799999237061</ele>
        <time>2025-06-06T17:30:59.000Z</time>
      </trkpt>
      <trkpt lat="48.39271" lon="2.39509">
        <ele>61.799999237061</ele>
        <time>2025-06-06T17:31:00.000Z</time>
      </trkpt>
      <trkpt lat="48.39258" lon="2.39485">
        <ele>61.799999237061</ele>
        <time>2025-06-06T17:31:04.000Z</time>
      </trkpt>
      <trkpt lat="48.39255" lon="2.39478">
        <ele>61.799999237061</ele>
        <time>2025-06-06T17:31:05.000Z</time>
      </trkpt>
      <trkpt lat="48.39243" lon="2.39446">
        <ele>61.799999237061</ele>
        <time>2025-06-06T17:31:10.000Z</time>
      </trkpt>
      <trkpt lat="48.39227" lon="2.39403">
        <ele>60.200000762939</ele>
        <time>2025-06-06T17:31:17.000Z</time>
      </trkpt>
      <trkpt lat="48.39206" lon="2.39343">
        <ele>59.599998474121</ele>
        <time>2025-06-06T17:31:25.000Z</time>
      </trkpt>
      <trkpt lat="48.39185" lon="2.39292">
        <ele>59.400001525879</ele>
        <time>2025-06-06T17:31:32.000Z</time>
      </trkpt>
      <trkpt lat="48.39167" lon="2.39276">
        <ele>59.400001525879</ele>
        <time>2025-06-06T17:31:36.000Z</time>
      </trkpt>
      <trkpt lat="48.39149" lon="2.39273">
        <ele>59.799999237061</ele>
        <time>2025-06-06T17:31:39.000Z</time>
      </trkpt>
      <trkpt lat="48.39137" lon="2.39269">
        <ele>60</ele>
        <time>2025-06-06T17:31:41.000Z</time>
      </trkpt>
      <trkpt lat="48.39101" lon="2.39249">
        <ele>60.599998474121</ele>
        <time>2025-06-06T17:31:48.000Z</time>
      </trkpt>
      <trkpt lat="48.39087" lon="2.39235">
        <ele>61.400001525879</ele>
        <time>2025-06-06T17:31:51.000Z</time>
      </trkpt>
      <trkpt lat="48.39077" lon="2.39224">
        <ele>61.400001525879</ele>
        <time>2025-06-06T17:31:53.000Z</time>
      </trkpt>
      <trkpt lat="48.39063" lon="2.39211">
        <ele>61.400001525879</ele>
        <time>2025-06-06T17:31:56.000Z</time>
      </trkpt>
      <trkpt lat="48.39054" lon="2.39204">
        <ele>61.400001525879</ele>
        <time>2025-06-06T17:31:58.000Z</time>
      </trkpt>
      <trkpt lat="48.39038" lon="2.39188">
        <ele>61.400001525879</ele>
        <time>2025-06-06T17:32:01.000Z</time>
      </trkpt>
      <trkpt lat="48.39029" lon="2.39177">
        <ele>61.400001525879</ele>
        <time>2025-06-06T17:32:03.000Z</time>
      </trkpt>
      <trkpt lat="48.38997" lon="2.39142">
        <ele>61.400001525879</ele>
        <time>2025-06-06T17:32:10.000Z</time>
      </trkpt>
      <trkpt lat="48.38966" lon="2.39097">
        <ele>61.599998474121</ele>
        <time>2025-06-06T17:32:18.000Z</time>
      </trkpt>
      <trkpt lat="48.3894" lon="2.39058">
        <ele>62.200000762939</ele>
        <time>2025-06-06T17:32:25.000Z</time>
      </trkpt>
      <trkpt lat="48.38935" lon="2.39053">
        <ele>62.400001525879</ele>
        <time>2025-06-06T17:32:26.000Z</time>
      </trkpt>
      <trkpt lat="48.38919" lon="2.39044">
        <ele>62.400001525879</ele>
        <time>2025-06-06T17:32:29.000Z</time>
      </trkpt>
      <trkpt lat="48.38884" lon="2.39034">
        <ele>62.799999237061</ele>
        <time>2025-06-06T17:32:36.000Z</time>
      </trkpt>
      <trkpt lat="48.3886" lon="2.39033">
        <ele>63</ele>
        <time>2025-06-06T17:32:41.000Z</time>
      </trkpt>
      <trkpt lat="48.3885" lon="2.39033">
        <ele>63.599998474121</ele>
        <time>2025-06-06T17:32:43.000Z</time>
      </trkpt>
      <trkpt lat="48.38841" lon="2.39034">
        <ele>64.400001525879</ele>
        <time>2025-06-06T17:32:45.000Z</time>
      </trkpt>
      <trkpt lat="48.38827" lon="2.39037">
        <ele>65.199996948242</ele>
        <time>2025-06-06T17:32:48.000Z</time>
      </trkpt>
      <trkpt lat="48.38822" lon="2.39037">
        <ele>65.599998474121</ele>
        <time>2025-06-06T17:32:49.000Z</time>
      </trkpt>
      <trkpt lat="48.38802" lon="2.39033">
        <ele>66.599998474121</ele>
        <time>2025-06-06T17:32:53.000Z</time>
      </trkpt>
      <trkpt lat="48.38789" lon="2.39031">
        <ele>66.800003051758</ele>
        <time>2025-06-06T17:32:55.000Z</time>
      </trkpt>
      <trkpt lat="48.38747" lon="2.39031">
        <ele>66.800003051758</ele>
        <time>2025-06-06T17:33:01.000Z</time>
      </trkpt>
      <trkpt lat="48.38727" lon="2.39032">
        <ele>65.400001525879</ele>
        <time>2025-06-06T17:33:04.000Z</time>
      </trkpt>
      <trkpt lat="48.38714" lon="2.39032">
        <ele>63.799999237061</ele>
        <time>2025-06-06T17:33:06.000Z</time>
      </trkpt>
      <trkpt lat="48.38708" lon="2.39033">
        <ele>63.599998474121</ele>
        <time>2025-06-06T17:33:07.000Z</time>
      </trkpt>
      <trkpt lat="48.38665" lon="2.39039">
        <ele>63.400001525879</ele>
        <time>2025-06-06T17:33:14.000Z</time>
      </trkpt>
      <trkpt lat="48.3861" lon="2.39051">
        <ele>63.599998474121</ele>
        <time>2025-06-06T17:33:23.000Z</time>
      </trkpt>
      <trkpt lat="48.38562" lon="2.39062">
        <ele>63.400001525879</ele>
        <time>2025-06-06T17:33:31.000Z</time>
      </trkpt>
      <trkpt lat="48.38527" lon="2.3907">
        <ele>63.599998474121</ele>
        <time>2025-06-06T17:33:37.000Z</time>
      </trkpt>
      <trkpt lat="48.38522" lon="2.39072">
        <ele>63.599998474121</ele>
        <time>2025-06-06T17:33:38.000Z</time>
      </trkpt>
      <trkpt lat="48.38493" lon="2.39085">
        <ele>63.799999237061</ele>
        <time>2025-06-06T17:33:44.000Z</time>
      </trkpt>
      <trkpt lat="48.38487" lon="2.39092">
        <ele>64</ele>
        <time>2025-06-06T17:33:47.000Z</time>
      </trkpt>
      <trkpt lat="48.38487" lon="2.39104">
        <ele>64.400001525879</ele>
        <time>2025-06-06T17:33:51.000Z</time>
      </trkpt>
      <trkpt lat="48.38486" lon="2.39114">
        <ele>65</ele>
        <time>2025-06-06T17:33:54.000Z</time>
      </trkpt>
      <trkpt lat="48.38486" lon="2.39117">
        <ele>65.400001525879</ele>
        <time>2025-06-06T17:33:55.000Z</time>
      </trkpt>
      <trkpt lat="48.38487" lon="2.39119">
        <ele>66.199996948242</ele>
        <time>2025-06-06T17:33:56.000Z</time>
      </trkpt>
      <trkpt lat="48.38484" lon="2.39129">
        <ele>67</ele>
        <time>2025-06-06T17:34:01.000Z</time>
      </trkpt>
      <trkpt lat="48.38484" lon="2.39132">
        <ele>67.199996948242</ele>
        <time>2025-06-06T17:34:02.000Z</time>
      </trkpt>
      <trkpt lat="48.38482" lon="2.39136">
        <ele>67.800003051758</ele>
        <time>2025-06-06T17:34:04.000Z</time>
      </trkpt>
      <trkpt lat="48.38478" lon="2.3914">
        <ele>68.199996948242</ele>
        <time>2025-06-06T17:34:06.000Z</time>
      </trkpt>
      <trkpt lat="48.38475" lon="2.39141">
        <ele>68.400001525879</ele>
        <time>2025-06-06T17:34:07.000Z</time>
      </trkpt>
      <trkpt lat="48.38473" lon="2.39142">
        <ele>68.599998474121</ele>
        <time>2025-06-06T17:34:08.000Z</time>
      </trkpt>
      <trkpt lat="48.38462" lon="2.39149">
        <ele>69.199996948242</ele>
        <time>2025-06-06T17:34:12.000Z</time>
      </trkpt>
      <trkpt lat="48.38454" lon="2.39154">
        <ele>69.400001525879</ele>
        <time>2025-06-06T17:34:15.000Z</time>
      </trkpt>
      <trkpt lat="48.38444" lon="2.39158">
        <ele>69.599998474121</ele>
        <time>2025-06-06T17:34:18.000Z</time>
      </trkpt>
      <trkpt lat="48.38431" lon="2.39164">
        <ele>70.599998474121</ele>
        <time>2025-06-06T17:34:23.000Z</time>
      </trkpt>
      <trkpt lat="48.38426" lon="2.39165">
        <ele>71.599998474121</ele>
        <time>2025-06-06T17:34:28.000Z</time>
      </trkpt>
      <trkpt lat="48.38425" lon="2.39166">
        <ele>71.800003051758</ele>
        <time>2025-06-06T17:34:29.000Z</time>
      </trkpt>
      <trkpt lat="48.38424" lon="2.39167">
        <ele>72</ele>
        <time>2025-06-06T17:34:30.000Z</time>
      </trkpt>
      <trkpt lat="48.38418" lon="2.39169">
        <ele>72.599998474121</ele>
        <time>2025-06-06T17:34:34.000Z</time>
      </trkpt>
      <trkpt lat="48.38413" lon="2.39172">
        <ele>72.800003051758</ele>
        <time>2025-06-06T17:34:39.000Z</time>
      </trkpt>
      <trkpt lat="48.38401" lon="2.39181">
        <ele>72.800003051758</ele>
        <time>2025-06-06T17:34:44.000Z</time>
      </trkpt>
      <trkpt lat="48.38383" lon="2.39194">
        <ele>72.800003051758</ele>
        <time>2025-06-06T17:34:50.000Z</time>
      </trkpt>
      <trkpt lat="48.38362" lon="2.39207">
        <ele>71.599998474121</ele>
        <time>2025-06-06T17:34:55.000Z</time>
      </trkpt>
      <trkpt lat="48.38358" lon="2.39209">
        <ele>71.599998474121</ele>
        <time>2025-06-06T17:34:56.000Z</time>
      </trkpt>
      <trkpt lat="48.38337" lon="2.39212">
        <ele>70</ele>
        <time>2025-06-06T17:35:01.000Z</time>
      </trkpt>
      <trkpt lat="48.38312" lon="2.39214">
        <ele>69.400001525879</ele>
        <time>2025-06-06T17:35:06.000Z</time>
      </trkpt>
      <trkpt lat="48.38303" lon="2.39216">
        <ele>69.400001525879</ele>
        <time>2025-06-06T17:35:08.000Z</time>
      </trkpt>
      <trkpt lat="48.38293" lon="2.39218">
        <ele>68.800003051758</ele>
        <time>2025-06-06T17:35:10.000Z</time>
      </trkpt>
      <trkpt lat="48.38276" lon="2.39224">
        <ele>68.199996948242</ele>
        <time>2025-06-06T17:35:14.000Z</time>
      </trkpt>
      <trkpt lat="48.38266" lon="2.39235">
        <ele>68.199996948242</ele>
        <time>2025-06-06T17:35:18.000Z</time>
      </trkpt>
      <trkpt lat="48.38253" lon="2.39253">
        <ele>69.400001525879</ele>
        <time>2025-06-06T17:35:24.000Z</time>
      </trkpt>
      <trkpt lat="48.3825" lon="2.39259">
        <ele>70.199996948242</ele>
        <time>2025-06-06T17:35:26.000Z</time>
      </trkpt>
      <trkpt lat="48.38244" lon="2.39267">
        <ele>71.400001525879</ele>
        <time>2025-06-06T17:35:29.000Z</time>
      </trkpt>
      <trkpt lat="48.38242" lon="2.3927">
        <ele>71.599998474121</ele>
        <time>2025-06-06T17:35:30.000Z</time>
      </trkpt>
      <trkpt lat="48.38236" lon="2.39277">
        <ele>72.599998474121</ele>
        <time>2025-06-06T17:35:33.000Z</time>
      </trkpt>
      <trkpt lat="48.38227" lon="2.39286">
        <ele>73.199996948242</ele>
        <time>2025-06-06T17:35:36.000Z</time>
      </trkpt>
      <trkpt lat="48.38218" lon="2.39298">
        <ele>73.599998474121</ele>
        <time>2025-06-06T17:35:40.000Z</time>
      </trkpt>
      <trkpt lat="48.38208" lon="2.39314">
        <ele>74</ele>
        <time>2025-06-06T17:35:45.000Z</time>
      </trkpt>
      <trkpt lat="48.38203" lon="2.39328">
        <ele>74.599998474121</ele>
        <time>2025-06-06T17:35:49.000Z</time>
      </trkpt>
      <trkpt lat="48.38202" lon="2.39333">
        <ele>75</ele>
        <time>2025-06-06T17:35:51.000Z</time>
      </trkpt>
      <trkpt lat="48.38199" lon="2.39343">
        <ele>75.599998474121</ele>
        <time>2025-06-06T17:35:55.000Z</time>
      </trkpt>
      <trkpt lat="48.38198" lon="2.39345">
        <ele>75.800003051758</ele>
        <time>2025-06-06T17:35:56.000Z</time>
      </trkpt>
      <trkpt lat="48.38197" lon="2.39345">
        <ele>76.199996948242</ele>
        <time>2025-06-06T17:35:57.000Z</time>
      </trkpt>
      <trkpt lat="48.38192" lon="2.39345">
        <ele>77</ele>
        <time>2025-06-06T17:35:59.000Z</time>
      </trkpt>
      <trkpt lat="48.38182" lon="2.39341">
        <ele>77.400001525879</ele>
        <time>2025-06-06T17:36:02.000Z</time>
      </trkpt>
      <trkpt lat="48.38165" lon="2.39347">
        <ele>77.400001525879</ele>
        <time>2025-06-06T17:36:07.000Z</time>
      </trkpt>
      <trkpt lat="48.38148" lon="2.39365">
        <ele>76.599998474121</ele>
        <time>2025-06-06T17:36:13.000Z</time>
      </trkpt>
      <trkpt lat="48.38141" lon="2.39389">
        <ele>76</ele>
        <time>2025-06-06T17:36:18.000Z</time>
      </trkpt>
      <trkpt lat="48.38141" lon="2.39396">
        <ele>75.800003051758</ele>
        <time>2025-06-06T17:36:19.000Z</time>
      </trkpt>
      <trkpt lat="48.38144" lon="2.39413">
        <ele>75.599998474121</ele>
        <time>2025-06-06T17:36:22.000Z</time>
      </trkpt>
      <trkpt lat="48.38152" lon="2.39438">
        <ele>75.599998474121</ele>
        <time>2025-06-06T17:36:29.000Z</time>
      </trkpt>
      <trkpt lat="48.38158" lon="2.39455">
        <ele>77</ele>
        <time>2025-06-06T17:36:34.000Z</time>
      </trkpt>
      <trkpt lat="48.38158" lon="2.39458">
        <ele>77.400001525879</ele>
        <time>2025-06-06T17:36:35.000Z</time>
      </trkpt>
      <trkpt lat="48.3816" lon="2.39467">
        <ele>78.400001525879</ele>
        <time>2025-06-06T17:36:38.000Z</time>
      </trkpt>
      <trkpt lat="48.38163" lon="2.3948">
        <ele>79.400001525879</ele>
        <time>2025-06-06T17:36:42.000Z</time>
      </trkpt>
      <trkpt lat="48.38163" lon="2.39483">
        <ele>79.599998474121</ele>
        <time>2025-06-06T17:36:43.000Z</time>
      </trkpt>
      <trkpt lat="48.38166" lon="2.39496">
        <ele>80.599998474121</ele>
        <time>2025-06-06T17:36:47.000Z</time>
      </trkpt>
      <trkpt lat="48.38169" lon="2.39503">
        <ele>81.400001525879</ele>
        <time>2025-06-06T17:36:50.000Z</time>
      </trkpt>
      <trkpt lat="48.38171" lon="2.39508">
        <ele>81.800003051758</ele>
        <time>2025-06-06T17:36:52.000Z</time>
      </trkpt>
      <trkpt lat="48.38173" lon="2.39522">
        <ele>82.599998474121</ele>
        <time>2025-06-06T17:36:57.000Z</time>
      </trkpt>
      <trkpt lat="48.38173" lon="2.39525">
        <ele>83</ele>
        <time>2025-06-06T17:36:58.000Z</time>
      </trkpt>
      <trkpt lat="48.38175" lon="2.39531">
        <ele>83.400001525879</ele>
        <time>2025-06-06T17:37:00.000Z</time>
      </trkpt>
      <trkpt lat="48.38179" lon="2.3954">
        <ele>84</ele>
        <time>2025-06-06T17:37:03.000Z</time>
      </trkpt>
      <trkpt lat="48.3818" lon="2.39543">
        <ele>84.199996948242</ele>
        <time>2025-06-06T17:37:04.000Z</time>
      </trkpt>
      <trkpt lat="48.38183" lon="2.39553">
        <ele>85.199996948242</ele>
        <time>2025-06-06T17:37:07.000Z</time>
      </trkpt>
      <trkpt lat="48.38187" lon="2.39563">
        <ele>86</ele>
        <time>2025-06-06T17:37:11.000Z</time>
      </trkpt>
      <trkpt lat="48.38192" lon="2.39572">
        <ele>86.400001525879</ele>
        <time>2025-06-06T17:37:14.000Z</time>
      </trkpt>
      <trkpt lat="48.38199" lon="2.39589">
        <ele>87.599998474121</ele>
        <time>2025-06-06T17:37:19.000Z</time>
      </trkpt>
      <trkpt lat="48.38201" lon="2.39592">
        <ele>87.800003051758</ele>
        <time>2025-06-06T17:37:20.000Z</time>
      </trkpt>
      <trkpt lat="48.3821" lon="2.39606">
        <ele>88.400001525879</ele>
        <time>2025-06-06T17:37:26.000Z</time>
      </trkpt>
      <trkpt lat="48.38212" lon="2.39608">
        <ele>88.599998474121</ele>
        <time>2025-06-06T17:37:27.000Z</time>
      </trkpt>
      <trkpt lat="48.38217" lon="2.39617">
        <ele>89.800003051758</ele>
        <time>2025-06-06T17:37:31.000Z</time>
      </trkpt>
      <trkpt lat="48.38219" lon="2.39621">
        <ele>90.199996948242</ele>
        <time>2025-06-06T17:37:33.000Z</time>
      </trkpt>
      <trkpt lat="48.38222" lon="2.39625">
        <ele>90.800003051758</ele>
        <time>2025-06-06T17:37:35.000Z</time>
      </trkpt>
      <trkpt lat="48.38228" lon="2.39637">
        <ele>92</ele>
        <time>2025-06-06T17:37:40.000Z</time>
      </trkpt>
      <trkpt lat="48.3823" lon="2.39642">
        <ele>92.599998474121</ele>
        <time>2025-06-06T17:37:42.000Z</time>
      </trkpt>
      <trkpt lat="48.38233" lon="2.39649">
        <ele>93</ele>
        <time>2025-06-06T17:37:45.000Z</time>
      </trkpt>
      <trkpt lat="48.38236" lon="2.39659">
        <ele>94</ele>
        <time>2025-06-06T17:37:49.000Z</time>
      </trkpt>
      <trkpt lat="48.38237" lon="2.39661">
        <ele>94.400001525879</ele>
        <time>2025-06-06T17:37:50.000Z</time>
      </trkpt>
      <trkpt lat="48.38238" lon="2.39668">
        <ele>95.199996948242</ele>
        <time>2025-06-06T17:37:53.000Z</time>
      </trkpt>
      <trkpt lat="48.3824" lon="2.39677">
        <ele>96.199996948242</ele>
        <time>2025-06-06T17:37:57.000Z</time>
      </trkpt>
      <trkpt lat="48.38242" lon="2.39681">
        <ele>96.800003051758</ele>
        <time>2025-06-06T17:37:59.000Z</time>
      </trkpt>
      <trkpt lat="48.38243" lon="2.39685">
        <ele>97.400001525879</ele>
        <time>2025-06-06T17:38:01.000Z</time>
      </trkpt>
      <trkpt lat="48.38246" lon="2.3969">
        <ele>98.599998474121</ele>
        <time>2025-06-06T17:38:04.000Z</time>
      </trkpt>
      <trkpt lat="48.38247" lon="2.39691">
        <ele>99</ele>
        <time>2025-06-06T17:38:05.000Z</time>
      </trkpt>
      <trkpt lat="48.3825" lon="2.39696">
        <ele>99.800003051758</ele>
        <time>2025-06-06T17:38:08.000Z</time>
      </trkpt>
      <trkpt lat="48.38253" lon="2.39702">
        <ele>100.80000305176</ele>
        <time>2025-06-06T17:38:11.000Z</time>
      </trkpt>
      <trkpt lat="48.38255" lon="2.39703">
        <ele>101</ele>
        <time>2025-06-06T17:38:12.000Z</time>
      </trkpt>
      <trkpt lat="48.38258" lon="2.39711">
        <ele>102.19999694824</ele>
        <time>2025-06-06T17:38:16.000Z</time>
      </trkpt>
      <trkpt lat="48.38259" lon="2.39717">
        <ele>102.80000305176</ele>
        <time>2025-06-06T17:38:18.000Z</time>
      </trkpt>
      <trkpt lat="48.3826" lon="2.39722">
        <ele>103.19999694824</ele>
        <time>2025-06-06T17:38:20.000Z</time>
      </trkpt>
      <trkpt lat="48.38263" lon="2.39739">
        <ele>103.80000305176</ele>
        <time>2025-06-06T17:38:25.000Z</time>
      </trkpt>
      <trkpt lat="48.38269" lon="2.39766">
        <ele>104</ele>
        <time>2025-06-06T17:38:31.000Z</time>
      </trkpt>
      <trkpt lat="48.38268" lon="2.39793">
        <ele>103.80000305176</ele>
        <time>2025-06-06T17:38:37.000Z</time>
      </trkpt>
      <trkpt lat="48.38266" lon="2.39824">
        <ele>103.40000152588</ele>
        <time>2025-06-06T17:38:42.000Z</time>
      </trkpt>
      <trkpt lat="48.38269" lon="2.3985">
        <ele>102</ele>
        <time>2025-06-06T17:38:47.000Z</time>
      </trkpt>
      <trkpt lat="48.38271" lon="2.39875">
        <ele>101</ele>
        <time>2025-06-06T17:38:51.000Z</time>
      </trkpt>
      <trkpt lat="48.38272" lon="2.39888">
        <ele>100.80000305176</ele>
        <time>2025-06-06T17:38:53.000Z</time>
      </trkpt>
      <trkpt lat="48.38279" lon="2.39919">
        <ele>100.59999847412</ele>
        <time>2025-06-06T17:38:59.000Z</time>
      </trkpt>
      <trkpt lat="48.38285" lon="2.39942">
        <ele>100.59999847412</ele>
        <time>2025-06-06T17:39:05.000Z</time>
      </trkpt>
      <trkpt lat="48.38283" lon="2.39954">
        <ele>100.80000305176</ele>
        <time>2025-06-06T17:39:08.000Z</time>
      </trkpt>
      <trkpt lat="48.3828" lon="2.39955">
        <ele>100.80000305176</ele>
        <time>2025-06-06T17:39:09.000Z</time>
      </trkpt>
      <trkpt lat="48.38269" lon="2.39968">
        <ele>100.80000305176</ele>
        <time>2025-06-06T17:39:13.000Z</time>
      </trkpt>
      <trkpt lat="48.38271" lon="2.39983">
        <ele>100.40000152588</ele>
        <time>2025-06-06T17:39:16.000Z</time>
      </trkpt>
      <trkpt lat="48.38271" lon="2.39987">
        <ele>99.599998474121</ele>
        <time>2025-06-06T17:39:17.000Z</time>
      </trkpt>
      <trkpt lat="48.38272" lon="2.39992">
        <ele>98.599998474121</ele>
        <time>2025-06-06T17:39:18.000Z</time>
      </trkpt>
      <trkpt lat="48.38272" lon="2.39996">
        <ele>97.400001525879</ele>
        <time>2025-06-06T17:39:19.000Z</time>
      </trkpt>
      <trkpt lat="48.38273" lon="2.4">
        <ele>96.199996948242</ele>
        <time>2025-06-06T17:39:20.000Z</time>
      </trkpt>
      <trkpt lat="48.38274" lon="2.40008">
        <ele>95.400001525879</ele>
        <time>2025-06-06T17:39:22.000Z</time>
      </trkpt>
      <trkpt lat="48.38275" lon="2.40011">
        <ele>95.199996948242</ele>
        <time>2025-06-06T17:39:23.000Z</time>
      </trkpt>
      <trkpt lat="48.38281" lon="2.40034">
        <ele>95</ele>
        <time>2025-06-06T17:39:30.000Z</time>
      </trkpt>
      <trkpt lat="48.38287" lon="2.40048">
        <ele>96.199996948242</ele>
        <time>2025-06-06T17:39:35.000Z</time>
      </trkpt>
      <trkpt lat="48.38288" lon="2.40053">
        <ele>97</ele>
        <time>2025-06-06T17:39:37.000Z</time>
      </trkpt>
      <trkpt lat="48.38289" lon="2.40056">
        <ele>97.199996948242</ele>
        <time>2025-06-06T17:39:38.000Z</time>
      </trkpt>
      <trkpt lat="48.38293" lon="2.40063">
        <ele>98.199996948242</ele>
        <time>2025-06-06T17:39:41.000Z</time>
      </trkpt>
      <trkpt lat="48.38294" lon="2.40067">
        <ele>98.800003051758</ele>
        <time>2025-06-06T17:39:43.000Z</time>
      </trkpt>
      <trkpt lat="48.38295" lon="2.40072">
        <ele>99.400001525879</ele>
        <time>2025-06-06T17:39:45.000Z</time>
      </trkpt>
      <trkpt lat="48.38296" lon="2.40082">
        <ele>100.40000152588</ele>
        <time>2025-06-06T17:39:49.000Z</time>
      </trkpt>
      <trkpt lat="48.38296" lon="2.40088">
        <ele>101</ele>
        <time>2025-06-06T17:39:51.000Z</time>
      </trkpt>
      <trkpt lat="48.38294" lon="2.40096">
        <ele>101.40000152588</ele>
        <time>2025-06-06T17:39:53.000Z</time>
      </trkpt>
      <trkpt lat="48.38291" lon="2.40109">
        <ele>101.59999847412</ele>
        <time>2025-06-06T17:39:56.000Z</time>
      </trkpt>
      <trkpt lat="48.38287" lon="2.40143">
        <ele>101.80000305176</ele>
        <time>2025-06-06T17:40:03.000Z</time>
      </trkpt>
      <trkpt lat="48.38286" lon="2.4017">
        <ele>101.80000305176</ele>
        <time>2025-06-06T17:40:08.000Z</time>
      </trkpt>
      <trkpt lat="48.38285" lon="2.40175">
        <ele>101.80000305176</ele>
        <time>2025-06-06T17:40:09.000Z</time>
      </trkpt>
      <trkpt lat="48.38274" lon="2.4018">
        <ele>102.19999694824</ele>
        <time>2025-06-06T17:40:12.000Z</time>
      </trkpt>
      <trkpt lat="48.38258" lon="2.40171">
        <ele>102</ele>
        <time>2025-06-06T17:40:15.000Z</time>
      </trkpt>
      <trkpt lat="48.38254" lon="2.40169">
        <ele>102</ele>
        <time>2025-06-06T17:40:16.000Z</time>
      </trkpt>
      <trkpt lat="48.38249" lon="2.40157">
        <ele>102.19999694824</ele>
        <time>2025-06-06T17:40:19.000Z</time>
      </trkpt>
      <trkpt lat="48.3824" lon="2.40134">
        <ele>100.80000305176</ele>
        <time>2025-06-06T17:40:26.000Z</time>
      </trkpt>
      <trkpt lat="48.38233" lon="2.40123">
        <ele>101.59999847412</ele>
        <time>2025-06-06T17:40:32.000Z</time>
      </trkpt>
      <trkpt lat="48.38233" lon="2.40121">
        <ele>102.19999694824</ele>
        <time>2025-06-06T17:40:33.000Z</time>
      </trkpt>
      <trkpt lat="48.38232" lon="2.40119">
        <ele>103.59999847412</ele>
        <time>2025-06-06T17:40:35.000Z</time>
      </trkpt>
      <trkpt lat="48.3823" lon="2.40117">
        <ele>104.59999847412</ele>
        <time>2025-06-06T17:40:37.000Z</time>
      </trkpt>
      <trkpt lat="48.38228" lon="2.40116">
        <ele>104.80000305176</ele>
        <time>2025-06-06T17:40:38.000Z</time>
      </trkpt>
      <trkpt lat="48.38226" lon="2.40114">
        <ele>105.19999694824</ele>
        <time>2025-06-06T17:40:39.000Z</time>
      </trkpt>
      <trkpt lat="48.38224" lon="2.40109">
        <ele>106</ele>
        <time>2025-06-06T17:40:41.000Z</time>
      </trkpt>
      <trkpt lat="48.3822" lon="2.40096">
        <ele>106.40000152588</ele>
        <time>2025-06-06T17:40:44.000Z</time>
      </trkpt>
      <trkpt lat="48.38214" lon="2.4007">
        <ele>106.40000152588</ele>
        <time>2025-06-06T17:40:50.000Z</time>
      </trkpt>
      <trkpt lat="48.38203" lon="2.40052">
        <ele>106</ele>
        <time>2025-06-06T17:40:55.000Z</time>
      </trkpt>
      <trkpt lat="48.38184" lon="2.40029">
        <ele>105.40000152588</ele>
        <time>2025-06-06T17:41:00.000Z</time>
      </trkpt>
      <trkpt lat="48.38164" lon="2.40006">
        <ele>105.19999694824</ele>
        <time>2025-06-06T17:41:07.000Z</time>
      </trkpt>
      <trkpt lat="48.38148" lon="2.40004">
        <ele>105.19999694824</ele>
        <time>2025-06-06T17:41:12.000Z</time>
      </trkpt>
      <trkpt lat="48.38129" lon="2.40011">
        <ele>106.80000305176</ele>
        <time>2025-06-06T17:41:18.000Z</time>
      </trkpt>
      <trkpt lat="48.38126" lon="2.40012">
        <ele>106.80000305176</ele>
        <time>2025-06-06T17:41:19.000Z</time>
      </trkpt>
      <trkpt lat="48.38116" lon="2.40009">
        <ele>107.59999847412</ele>
        <time>2025-06-06T17:41:24.000Z</time>
      </trkpt>
      <trkpt lat="48.38112" lon="2.40005">
        <ele>108</ele>
        <time>2025-06-06T17:41:26.000Z</time>
      </trkpt>
      <trkpt lat="48.38105" lon="2.39997">
        <ele>108.40000152588</ele>
        <time>2025-06-06T17:41:29.000Z</time>
      </trkpt>
      <trkpt lat="48.38089" lon="2.39983">
        <ele>108.40000152588</ele>
        <time>2025-06-06T17:41:36.000Z</time>
      </trkpt>
      <trkpt lat="48.38074" lon="2.39958">
        <ele>108</ele>
        <time>2025-06-06T17:41:42.000Z</time>
      </trkpt>
      <trkpt lat="48.38064" lon="2.39945">
        <ele>107.59999847412</ele>
        <time>2025-06-06T17:41:46.000Z</time>
      </trkpt>
      <trkpt lat="48.38056" lon="2.39936">
        <ele>107.40000152588</ele>
        <time>2025-06-06T17:41:49.000Z</time>
      </trkpt>
      <trkpt lat="48.38055" lon="2.39932">
        <ele>107.40000152588</ele>
        <time>2025-06-06T17:41:50.000Z</time>
      </trkpt>
      <trkpt lat="48.38047" lon="2.39912">
        <ele>107.59999847412</ele>
        <time>2025-06-06T17:41:56.000Z</time>
      </trkpt>
      <trkpt lat="48.38043" lon="2.39891">
        <ele>107.59999847412</ele>
        <time>2025-06-06T17:42:01.000Z</time>
      </trkpt>
      <trkpt lat="48.38035" lon="2.3987">
        <ele>107.19999694824</ele>
        <time>2025-06-06T17:42:07.000Z</time>
      </trkpt>
      <trkpt lat="48.38033" lon="2.39865">
        <ele>106.80000305176</ele>
        <time>2025-06-06T17:42:08.000Z</time>
      </trkpt>
      <trkpt lat="48.38027" lon="2.39858">
        <ele>106.19999694824</ele>
        <time>2025-06-06T17:42:11.000Z</time>
      </trkpt>
      <trkpt lat="48.38024" lon="2.39857">
        <ele>105.80000305176</ele>
        <time>2025-06-06T17:42:12.000Z</time>
      </trkpt>
      <trkpt lat="48.3802" lon="2.39855">
        <ele>105.59999847412</ele>
        <time>2025-06-06T17:42:13.000Z</time>
      </trkpt>
      <trkpt lat="48.38012" lon="2.39851">
        <ele>105.59999847412</ele>
        <time>2025-06-06T17:42:17.000Z</time>
      </trkpt>
      <trkpt lat="48.38002" lon="2.39844">
        <ele>106.40000152588</ele>
        <time>2025-06-06T17:42:23.000Z</time>
      </trkpt>
      <trkpt lat="48.38" lon="2.39844">
        <ele>107.19999694824</ele>
        <time>2025-06-06T17:42:24.000Z</time>
      </trkpt>
      <trkpt lat="48.37994" lon="2.39845">
        <ele>108.19999694824</ele>
        <time>2025-06-06T17:42:28.000Z</time>
      </trkpt>
      <trkpt lat="48.37993" lon="2.39846">
        <ele>108.40000152588</ele>
        <time>2025-06-06T17:42:29.000Z</time>
      </trkpt>
      <trkpt lat="48.37991" lon="2.39846">
        <ele>108.59999847412</ele>
        <time>2025-06-06T17:42:31.000Z</time>
      </trkpt>
      <trkpt lat="48.37989" lon="2.39847">
        <ele>109</ele>
        <time>2025-06-06T17:42:32.000Z</time>
      </trkpt>
      <trkpt lat="48.37987" lon="2.39848">
        <ele>109.40000152588</ele>
        <time>2025-06-06T17:42:33.000Z</time>
      </trkpt>
      <trkpt lat="48.37982" lon="2.39848">
        <ele>110.59999847412</ele>
        <time>2025-06-06T17:42:36.000Z</time>
      </trkpt>
      <trkpt lat="48.37981" lon="2.39848">
        <ele>111</ele>
        <time>2025-06-06T17:42:37.000Z</time>
      </trkpt>
      <trkpt lat="48.37978" lon="2.39849">
        <ele>111.59999847412</ele>
        <time>2025-06-06T17:42:39.000Z</time>
      </trkpt>
      <trkpt lat="48.37975" lon="2.39853">
        <ele>112.80000305176</ele>
        <time>2025-06-06T17:42:43.000Z</time>
      </trkpt>
      <trkpt lat="48.37974" lon="2.39854">
        <ele>113.19999694824</ele>
        <time>2025-06-06T17:42:44.000Z</time>
      </trkpt>
      <trkpt lat="48.37973" lon="2.39855">
        <ele>113.40000152588</ele>
        <time>2025-06-06T17:42:45.000Z</time>
      </trkpt>
      <trkpt lat="48.37971" lon="2.39858">
        <ele>114.19999694824</ele>
        <time>2025-06-06T17:42:47.000Z</time>
      </trkpt>
      <trkpt lat="48.37963" lon="2.39863">
        <ele>115.40000152588</ele>
        <time>2025-06-06T17:42:52.000Z</time>
      </trkpt>
      <trkpt lat="48.37959" lon="2.39867">
        <ele>116</ele>
        <time>2025-06-06T17:42:54.000Z</time>
      </trkpt>
      <trkpt lat="48.37956" lon="2.39871">
        <ele>116.40000152588</ele>
        <time>2025-06-06T17:42:56.000Z</time>
      </trkpt>
      <trkpt lat="48.37951" lon="2.39878">
        <ele>117</ele>
        <time>2025-06-06T17:43:00.000Z</time>
      </trkpt>
      <trkpt lat="48.3795" lon="2.39881">
        <ele>117.19999694824</ele>
        <time>2025-06-06T17:43:01.000Z</time>
      </trkpt>
      <trkpt lat="48.37948" lon="2.39894">
        <ele>117.40000152588</ele>
        <time>2025-06-06T17:43:05.000Z</time>
      </trkpt>
      <trkpt lat="48.37947" lon="2.39896">
        <ele>117.40000152588</ele>
        <time>2025-06-06T17:43:06.000Z</time>
      </trkpt>
      <trkpt lat="48.3794" lon="2.39903">
        <ele>117.80000305176</ele>
        <time>2025-06-06T17:43:10.000Z</time>
      </trkpt>
      <trkpt lat="48.37936" lon="2.39903">
        <ele>117.80000305176</ele>
        <time>2025-06-06T17:43:12.000Z</time>
      </trkpt>
      <trkpt lat="48.37935" lon="2.399">
        <ele>117.80000305176</ele>
        <time>2025-06-06T17:43:14.000Z</time>
      </trkpt>
      <trkpt lat="48.37935" lon="2.39898">
        <ele>117.80000305176</ele>
        <time>2025-06-06T17:43:15.000Z</time>
      </trkpt>
      <trkpt lat="48.37937" lon="2.39887">
        <ele>117.80000305176</ele>
        <time>2025-06-06T17:43:18.000Z</time>
      </trkpt>
      <trkpt lat="48.37934" lon="2.39866">
        <ele>117.80000305176</ele>
        <time>2025-06-06T17:43:23.000Z</time>
      </trkpt>
      <trkpt lat="48.37926" lon="2.39848">
        <ele>117.19999694824</ele>
        <time>2025-06-06T17:43:28.000Z</time>
      </trkpt>
      <trkpt lat="48.37921" lon="2.39837">
        <ele>117</ele>
        <time>2025-06-06T17:43:31.000Z</time>
      </trkpt>
      <trkpt lat="48.3792" lon="2.39832">
        <ele>116.80000305176</ele>
        <time>2025-06-06T17:43:32.000Z</time>
      </trkpt>
      <trkpt lat="48.37919" lon="2.39814">
        <ele>116.59999847412</ele>
        <time>2025-06-06T17:43:35.000Z</time>
      </trkpt>
      <trkpt lat="48.37919" lon="2.398">
        <ele>116.40000152588</ele>
        <time>2025-06-06T17:43:37.000Z</time>
      </trkpt>
      <trkpt lat="48.3792" lon="2.39788">
        <ele>116.40000152588</ele>
        <time>2025-06-06T17:43:39.000Z</time>
      </trkpt>
      <trkpt lat="48.37918" lon="2.39767">
        <ele>115.19999694824</ele>
        <time>2025-06-06T17:43:42.000Z</time>
      </trkpt>
      <trkpt lat="48.37915" lon="2.39748">
        <ele>113.80000305176</ele>
        <time>2025-06-06T17:43:45.000Z</time>
      </trkpt>
      <trkpt lat="48.37915" lon="2.39743">
        <ele>113.19999694824</ele>
        <time>2025-06-06T17:43:46.000Z</time>
      </trkpt>
      <trkpt lat="48.37913" lon="2.39739">
        <ele>113</ele>
        <time>2025-06-06T17:43:47.000Z</time>
      </trkpt>
      <trkpt lat="48.37911" lon="2.39736">
        <ele>112.40000152588</ele>
        <time>2025-06-06T17:43:48.000Z</time>
      </trkpt>
      <trkpt lat="48.37907" lon="2.39724">
        <ele>111.19999694824</ele>
        <time>2025-06-06T17:43:51.000Z</time>
      </trkpt>
      <trkpt lat="48.37905" lon="2.39719">
        <ele>111</ele>
        <time>2025-06-06T17:43:52.000Z</time>
      </trkpt>
      <trkpt lat="48.37895" lon="2.39705">
        <ele>110.80000305176</ele>
        <time>2025-06-06T17:43:56.000Z</time>
      </trkpt>
      <trkpt lat="48.37885" lon="2.39687">
        <ele>110.59999847412</ele>
        <time>2025-06-06T17:44:01.000Z</time>
      </trkpt>
      <trkpt lat="48.37869" lon="2.39665">
        <ele>110.19999694824</ele>
        <time>2025-06-06T17:44:07.000Z</time>
      </trkpt>
      <trkpt lat="48.37867" lon="2.3966">
        <ele>110.19999694824</ele>
        <time>2025-06-06T17:44:08.000Z</time>
      </trkpt>
      <trkpt lat="48.37868" lon="2.39654">
        <ele>110</ele>
        <time>2025-06-06T17:44:10.000Z</time>
      </trkpt>
      <trkpt lat="48.37868" lon="2.39653">
        <ele>109.59999847412</ele>
        <time>2025-06-06T17:44:11.000Z</time>
      </trkpt>
      <trkpt lat="48.37871" lon="2.39646">
        <ele>108.80000305176</ele>
        <time>2025-06-06T17:44:14.000Z</time>
      </trkpt>
      <trkpt lat="48.37872" lon="2.39641">
        <ele>107.40000152588</ele>
        <time>2025-06-06T17:44:15.000Z</time>
      </trkpt>
      <trkpt lat="48.37874" lon="2.39632">
        <ele>106.40000152588</ele>
        <time>2025-06-06T17:44:17.000Z</time>
      </trkpt>
      <trkpt lat="48.37875" lon="2.39627">
        <ele>106.19999694824</ele>
        <time>2025-06-06T17:44:18.000Z</time>
      </trkpt>
      <trkpt lat="48.37875" lon="2.39618">
        <ele>105.40000152588</ele>
        <time>2025-06-06T17:44:20.000Z</time>
      </trkpt>
      <trkpt lat="48.37874" lon="2.39615">
        <ele>105.40000152588</ele>
        <time>2025-06-06T17:44:21.000Z</time>
      </trkpt>
      <trkpt lat="48.37872" lon="2.39607">
        <ele>103.80000305176</ele>
        <time>2025-06-06T17:44:23.000Z</time>
      </trkpt>
      <trkpt lat="48.3787" lon="2.39598">
        <ele>102.59999847412</ele>
        <time>2025-06-06T17:44:25.000Z</time>
      </trkpt>
      <trkpt lat="48.37872" lon="2.39588">
        <ele>101.40000152588</ele>
        <time>2025-06-06T17:44:28.000Z</time>
      </trkpt>
      <trkpt lat="48.37873" lon="2.39585">
        <ele>100.59999847412</ele>
        <time>2025-06-06T17:44:29.000Z</time>
      </trkpt>
      <trkpt lat="48.37875" lon="2.39582">
        <ele>100.19999694824</ele>
        <time>2025-06-06T17:44:30.000Z</time>
      </trkpt>
      <trkpt lat="48.37878" lon="2.39577">
        <ele>98</ele>
        <time>2025-06-06T17:44:32.000Z</time>
      </trkpt>
      <trkpt lat="48.37881" lon="2.39575">
        <ele>97.199996948242</ele>
        <time>2025-06-06T17:44:33.000Z</time>
      </trkpt>
      <trkpt lat="48.37884" lon="2.39574">
        <ele>96.599998474121</ele>
        <time>2025-06-06T17:44:34.000Z</time>
      </trkpt>
      <trkpt lat="48.3789" lon="2.39572">
        <ele>95.599998474121</ele>
        <time>2025-06-06T17:44:37.000Z</time>
      </trkpt>
      <trkpt lat="48.3789" lon="2.3957">
        <ele>94.800003051758</ele>
        <time>2025-06-06T17:44:38.000Z</time>
      </trkpt>
      <trkpt lat="48.3789" lon="2.3957">
        <ele>94.199996948242</ele>
        <time>2025-06-06T17:44:39.000Z</time>
      </trkpt>
      <trkpt lat="48.37891" lon="2.39565">
        <ele>93.199996948242</ele>
        <time>2025-06-06T17:44:44.000Z</time>
      </trkpt>
      <trkpt lat="48.37892" lon="2.39563">
        <ele>93</ele>
        <time>2025-06-06T17:44:47.000Z</time>
      </trkpt>
      <trkpt lat="48.37896" lon="2.39555">
        <ele>92.199996948242</ele>
        <time>2025-06-06T17:44:54.000Z</time>
      </trkpt>
      <trkpt lat="48.37897" lon="2.39553">
        <ele>92</ele>
        <time>2025-06-06T17:44:55.000Z</time>
      </trkpt>
      <trkpt lat="48.37899" lon="2.39551">
        <ele>91.599998474121</ele>
        <time>2025-06-06T17:44:56.000Z</time>
      </trkpt>
      <trkpt lat="48.37902" lon="2.39548">
        <ele>91.400001525879</ele>
        <time>2025-06-06T17:44:58.000Z</time>
      </trkpt>
      <trkpt lat="48.3791" lon="2.3954">
        <ele>91</ele>
        <time>2025-06-06T17:45:02.000Z</time>
      </trkpt>
      <trkpt lat="48.37912" lon="2.39541">
        <ele>90.199996948242</ele>
        <time>2025-06-06T17:45:03.000Z</time>
      </trkpt>
      <trkpt lat="48.37915" lon="2.39541">
        <ele>89.599998474121</ele>
        <time>2025-06-06T17:45:04.000Z</time>
      </trkpt>
      <trkpt lat="48.3792" lon="2.39544">
        <ele>89</ele>
        <time>2025-06-06T17:45:06.000Z</time>
      </trkpt>
      <trkpt lat="48.37924" lon="2.39546">
        <ele>88.599998474121</ele>
        <time>2025-06-06T17:45:08.000Z</time>
      </trkpt>
      <trkpt lat="48.3793" lon="2.39551">
        <ele>88</ele>
        <time>2025-06-06T17:45:12.000Z</time>
      </trkpt>
      <trkpt lat="48.37933" lon="2.39553">
        <ele>87.400001525879</ele>
        <time>2025-06-06T17:45:14.000Z</time>
      </trkpt>
      <trkpt lat="48.37936" lon="2.39554">
        <ele>87</ele>
        <time>2025-06-06T17:45:16.000Z</time>
      </trkpt>
      <trkpt lat="48.37941" lon="2.39553">
        <ele>86.599998474121</ele>
        <time>2025-06-06T17:45:18.000Z</time>
      </trkpt>
      <trkpt lat="48.37944" lon="2.39552">
        <ele>85.599998474121</ele>
        <time>2025-06-06T17:45:19.000Z</time>
      </trkpt>
      <trkpt lat="48.37951" lon="2.39548">
        <ele>84.199996948242</ele>
        <time>2025-06-06T17:45:21.000Z</time>
      </trkpt>
      <trkpt lat="48.37958" lon="2.39545">
        <ele>83</ele>
        <time>2025-06-06T17:45:23.000Z</time>
      </trkpt>
      <trkpt lat="48.37962" lon="2.39544">
        <ele>82.199996948242</ele>
        <time>2025-06-06T17:45:24.000Z</time>
      </trkpt>
      <trkpt lat="48.37966" lon="2.39542">
        <ele>81.199996948242</ele>
        <time>2025-06-06T17:45:25.000Z</time>
      </trkpt>
      <trkpt lat="48.37969" lon="2.3954">
        <ele>79.800003051758</ele>
        <time>2025-06-06T17:45:26.000Z</time>
      </trkpt>
      <trkpt lat="48.37972" lon="2.39538">
        <ele>78</ele>
        <time>2025-06-06T17:45:27.000Z</time>
      </trkpt>
      <trkpt lat="48.37973" lon="2.39535">
        <ele>76.400001525879</ele>
        <time>2025-06-06T17:45:28.000Z</time>
      </trkpt>
      <trkpt lat="48.37973" lon="2.39533">
        <ele>74.800003051758</ele>
        <time>2025-06-06T17:45:29.000Z</time>
      </trkpt>
      <trkpt lat="48.37972" lon="2.39529">
        <ele>73.599998474121</ele>
        <time>2025-06-06T17:45:30.000Z</time>
      </trkpt>
      <trkpt lat="48.37972" lon="2.39525">
        <ele>72.599998474121</ele>
        <time>2025-06-06T17:45:31.000Z</time>
      </trkpt>
      <trkpt lat="48.37971" lon="2.39521">
        <ele>71.599998474121</ele>
        <time>2025-06-06T17:45:32.000Z</time>
      </trkpt>
      <trkpt lat="48.3797" lon="2.39517">
        <ele>70.599998474121</ele>
        <time>2025-06-06T17:45:33.000Z</time>
      </trkpt>
      <trkpt lat="48.37969" lon="2.39514">
        <ele>69.800003051758</ele>
        <time>2025-06-06T17:45:34.000Z</time>
      </trkpt>
      <trkpt lat="48.37968" lon="2.39507">
        <ele>69.199996948242</ele>
        <time>2025-06-06T17:45:37.000Z</time>
      </trkpt>
      <trkpt lat="48.37964" lon="2.39496">
        <ele>68.800003051758</ele>
        <time>2025-06-06T17:45:41.000Z</time>
      </trkpt>
      <trkpt lat="48.37962" lon="2.39488">
        <ele>68.599998474121</ele>
        <time>2025-06-06T17:45:43.000Z</time>
      </trkpt>
      <trkpt lat="48.37959" lon="2.3947">
        <ele>67.800003051758</ele>
        <time>2025-06-06T17:45:48.000Z</time>
      </trkpt>
      <trkpt lat="48.37956" lon="2.39456">
        <ele>67.599998474121</ele>
        <time>2025-06-06T17:45:51.000Z</time>
      </trkpt>
      <trkpt lat="48.37946" lon="2.39439">
        <ele>67.400001525879</ele>
        <time>2025-06-06T17:45:56.000Z</time>
      </trkpt>
      <trkpt lat="48.3793" lon="2.39416">
        <ele>67.199996948242</ele>
        <time>2025-06-06T17:46:01.000Z</time>
      </trkpt>
      <trkpt lat="48.3791" lon="2.3939">
        <ele>66.599998474121</ele>
        <time>2025-06-06T17:46:07.000Z</time>
      </trkpt>
      <trkpt lat="48.37902" lon="2.39378">
        <ele>66.400001525879</ele>
        <time>2025-06-06T17:46:09.000Z</time>
      </trkpt>
      <trkpt lat="48.37885" lon="2.3936">
        <ele>66.199996948242</ele>
        <time>2025-06-06T17:46:13.000Z</time>
      </trkpt>
      <trkpt lat="48.37876" lon="2.39353">
        <ele>66</ele>
        <time>2025-06-06T17:46:15.000Z</time>
      </trkpt>
      <trkpt lat="48.37859" lon="2.39343">
        <ele>65.800003051758</ele>
        <time>2025-06-06T17:46:19.000Z</time>
      </trkpt>
      <trkpt lat="48.37838" lon="2.39339">
        <ele>65.800003051758</ele>
        <time>2025-06-06T17:46:24.000Z</time>
      </trkpt>
      <trkpt lat="48.37812" lon="2.39334">
        <ele>66</ele>
        <time>2025-06-06T17:46:30.000Z</time>
      </trkpt>
      <trkpt lat="48.37797" lon="2.39337">
        <ele>66.199996948242</ele>
        <time>2025-06-06T17:46:33.000Z</time>
      </trkpt>
      <trkpt lat="48.3779" lon="2.39344">
        <ele>66.400001525879</ele>
        <time>2025-06-06T17:46:35.000Z</time>
      </trkpt>
      <trkpt lat="48.37772" lon="2.39379">
        <ele>66.599998474121</ele>
        <time>2025-06-06T17:46:42.000Z</time>
      </trkpt>
      <trkpt lat="48.37754" lon="2.3942">
        <ele>67.400001525879</ele>
        <time>2025-06-06T17:46:50.000Z</time>
      </trkpt>
      <trkpt lat="48.37749" lon="2.3943">
        <ele>67.800003051758</ele>
        <time>2025-06-06T17:46:52.000Z</time>
      </trkpt>
      <trkpt lat="48.37741" lon="2.3945">
        <ele>68.599998474121</ele>
        <time>2025-06-06T17:46:56.000Z</time>
      </trkpt>
      <trkpt lat="48.37736" lon="2.39469">
        <ele>69.199996948242</ele>
        <time>2025-06-06T17:47:00.000Z</time>
      </trkpt>
      <trkpt lat="48.37733" lon="2.39478">
        <ele>69.599998474121</ele>
        <time>2025-06-06T17:47:02.000Z</time>
      </trkpt>
      <trkpt lat="48.37725" lon="2.39511">
        <ele>70.599998474121</ele>
        <time>2025-06-06T17:47:09.000Z</time>
      </trkpt>
      <trkpt lat="48.37723" lon="2.39539">
        <ele>71.400001525879</ele>
        <time>2025-06-06T17:47:15.000Z</time>
      </trkpt>
      <trkpt lat="48.37724" lon="2.39543">
        <ele>71.800003051758</ele>
        <time>2025-06-06T17:47:16.000Z</time>
      </trkpt>
      <trkpt lat="48.37729" lon="2.39562">
        <ele>73</ele>
        <time>2025-06-06T17:47:20.000Z</time>
      </trkpt>
      <trkpt lat="48.37731" lon="2.3957">
        <ele>73.400001525879</ele>
        <time>2025-06-06T17:47:22.000Z</time>
      </trkpt>
      <trkpt lat="48.37736" lon="2.39581">
        <ele>74.199996948242</ele>
        <time>2025-06-06T17:47:25.000Z</time>
      </trkpt>
      <trkpt lat="48.3774" lon="2.39592">
        <ele>74.599998474121</ele>
        <time>2025-06-06T17:47:28.000Z</time>
      </trkpt>
      <trkpt lat="48.37748" lon="2.39607">
        <ele>75.400001525879</ele>
        <time>2025-06-06T17:47:32.000Z</time>
      </trkpt>
      <trkpt lat="48.37753" lon="2.39617">
        <ele>75.800003051758</ele>
        <time>2025-06-06T17:47:35.000Z</time>
      </trkpt>
      <trkpt lat="48.37757" lon="2.39625">
        <ele>76.400001525879</ele>
        <time>2025-06-06T17:47:37.000Z</time>
      </trkpt>
      <trkpt lat="48.37766" lon="2.39642">
        <ele>77.599998474121</ele>
        <time>2025-06-06T17:47:42.000Z</time>
      </trkpt>
      <trkpt lat="48.37772" lon="2.39656">
        <ele>78.800003051758</ele>
        <time>2025-06-06T17:47:46.000Z</time>
      </trkpt>
      <trkpt lat="48.37774" lon="2.39663">
        <ele>79.199996948242</ele>
        <time>2025-06-06T17:47:48.000Z</time>
      </trkpt>
      <trkpt lat="48.37777" lon="2.39672">
        <ele>80.199996948242</ele>
        <time>2025-06-06T17:47:51.000Z</time>
      </trkpt>
      <trkpt lat="48.37782" lon="2.39684">
        <ele>81.400001525879</ele>
        <time>2025-06-06T17:47:55.000Z</time>
      </trkpt>
      <trkpt lat="48.37787" lon="2.39698">
        <ele>82.400001525879</ele>
        <time>2025-06-06T17:47:59.000Z</time>
      </trkpt>
      <trkpt lat="48.37791" lon="2.39707">
        <ele>83.199996948242</ele>
        <time>2025-06-06T17:48:02.000Z</time>
      </trkpt>
      <trkpt lat="48.37794" lon="2.39713">
        <ele>83.599998474121</ele>
        <time>2025-06-06T17:48:04.000Z</time>
      </trkpt>
      <trkpt lat="48.37799" lon="2.39726">
        <ele>84.400001525879</ele>
        <time>2025-06-06T17:48:08.000Z</time>
      </trkpt>
      <trkpt lat="48.37801" lon="2.39732">
        <ele>84.800003051758</ele>
        <time>2025-06-06T17:48:10.000Z</time>
      </trkpt>
      <trkpt lat="48.37804" lon="2.39744">
        <ele>85.800003051758</ele>
        <time>2025-06-06T17:48:14.000Z</time>
      </trkpt>
      <trkpt lat="48.37805" lon="2.3975">
        <ele>86.199996948242</ele>
        <time>2025-06-06T17:48:16.000Z</time>
      </trkpt>
      <trkpt lat="48.37805" lon="2.39756">
        <ele>87</ele>
        <time>2025-06-06T17:48:18.000Z</time>
      </trkpt>
      <trkpt lat="48.37805" lon="2.3977">
        <ele>88.199996948242</ele>
        <time>2025-06-06T17:48:22.000Z</time>
      </trkpt>
      <trkpt lat="48.37806" lon="2.39773">
        <ele>88.400001525879</ele>
        <time>2025-06-06T17:48:23.000Z</time>
      </trkpt>
      <trkpt lat="48.37807" lon="2.39784">
        <ele>89.199996948242</ele>
        <time>2025-06-06T17:48:26.000Z</time>
      </trkpt>
      <trkpt lat="48.37808" lon="2.39799">
        <ele>90.400001525879</ele>
        <time>2025-06-06T17:48:31.000Z</time>
      </trkpt>
      <trkpt lat="48.37812" lon="2.3981">
        <ele>91.400001525879</ele>
        <time>2025-06-06T17:48:35.000Z</time>
      </trkpt>
      <trkpt lat="48.37814" lon="2.39816">
        <ele>91.800003051758</ele>
        <time>2025-06-06T17:48:37.000Z</time>
      </trkpt>
      <trkpt lat="48.37816" lon="2.39824">
        <ele>92.599998474121</ele>
        <time>2025-06-06T17:48:40.000Z</time>
      </trkpt>
      <trkpt lat="48.37818" lon="2.39831">
        <ele>93.800003051758</ele>
        <time>2025-06-06T17:48:43.000Z</time>
      </trkpt>
      <trkpt lat="48.37819" lon="2.39842">
        <ele>95</ele>
        <time>2025-06-06T17:48:47.000Z</time>
      </trkpt>
      <trkpt lat="48.37821" lon="2.39851">
        <ele>95.800003051758</ele>
        <time>2025-06-06T17:48:50.000Z</time>
      </trkpt>
      <trkpt lat="48.37821" lon="2.39855">
        <ele>96</ele>
        <time>2025-06-06T17:48:51.000Z</time>
      </trkpt>
      <trkpt lat="48.37822" lon="2.39864">
        <ele>97</ele>
        <time>2025-06-06T17:48:55.000Z</time>
      </trkpt>
      <trkpt lat="48.37822" lon="2.39869">
        <ele>97.800003051758</ele>
        <time>2025-06-06T17:48:57.000Z</time>
      </trkpt>
      <trkpt lat="48.37823" lon="2.39874">
        <ele>98.199996948242</ele>
        <time>2025-06-06T17:48:59.000Z</time>
      </trkpt>
      <trkpt lat="48.37824" lon="2.3989">
        <ele>99.400001525879</ele>
        <time>2025-06-06T17:49:05.000Z</time>
      </trkpt>
      <trkpt lat="48.37825" lon="2.39895">
        <ele>100.19999694824</ele>
        <time>2025-06-06T17:49:07.000Z</time>
      </trkpt>
      <trkpt lat="48.37825" lon="2.39898">
        <ele>100.59999847412</ele>
        <time>2025-06-06T17:49:08.000Z</time>
      </trkpt>
      <trkpt lat="48.37824" lon="2.39903">
        <ele>101.19999694824</ele>
        <time>2025-06-06T17:49:10.000Z</time>
      </trkpt>
      <trkpt lat="48.37825" lon="2.39907">
        <ele>101.40000152588</ele>
        <time>2025-06-06T17:49:11.000Z</time>
      </trkpt>
      <trkpt lat="48.37825" lon="2.3991">
        <ele>101.59999847412</ele>
        <time>2025-06-06T17:49:12.000Z</time>
      </trkpt>
      <trkpt lat="48.37824" lon="2.3993">
        <ele>102.59999847412</ele>
        <time>2025-06-06T17:49:17.000Z</time>
      </trkpt>
      <trkpt lat="48.37824" lon="2.39941">
        <ele>103.40000152588</ele>
        <time>2025-06-06T17:49:20.000Z</time>
      </trkpt>
      <trkpt lat="48.37825" lon="2.3995">
        <ele>103.80000305176</ele>
        <time>2025-06-06T17:49:22.000Z</time>
      </trkpt>
      <trkpt lat="48.3783" lon="2.39976">
        <ele>104.40000152588</ele>
        <time>2025-06-06T17:49:28.000Z</time>
      </trkpt>
      <trkpt lat="48.37837" lon="2.39993">
        <ele>104.80000305176</ele>
        <time>2025-06-06T17:49:32.000Z</time>
      </trkpt>
      <trkpt lat="48.3784" lon="2.40001">
        <ele>105.19999694824</ele>
        <time>2025-06-06T17:49:34.000Z</time>
      </trkpt>
      <trkpt lat="48.37847" lon="2.40018">
        <ele>106</ele>
        <time>2025-06-06T17:49:38.000Z</time>
      </trkpt>
      <trkpt lat="48.37851" lon="2.4003">
        <ele>106.40000152588</ele>
        <time>2025-06-06T17:49:41.000Z</time>
      </trkpt>
      <trkpt lat="48.37854" lon="2.40047">
        <ele>107</ele>
        <time>2025-06-06T17:49:45.000Z</time>
      </trkpt>
      <trkpt lat="48.37855" lon="2.40055">
        <ele>107.19999694824</ele>
        <time>2025-06-06T17:49:47.000Z</time>
      </trkpt>
      <trkpt lat="48.37861" lon="2.40085">
        <ele>108</ele>
        <time>2025-06-06T17:49:53.000Z</time>
      </trkpt>
      <trkpt lat="48.37862" lon="2.40091">
        <ele>108.19999694824</ele>
        <time>2025-06-06T17:49:54.000Z</time>
      </trkpt>
      <trkpt lat="48.37867" lon="2.40122">
        <ele>108.40000152588</ele>
        <time>2025-06-06T17:50:00.000Z</time>
      </trkpt>
      <trkpt lat="48.37872" lon="2.4016">
        <ele>109</ele>
        <time>2025-06-06T17:50:07.000Z</time>
      </trkpt>
      <trkpt lat="48.37872" lon="2.40165">
        <ele>109.19999694824</ele>
        <time>2025-06-06T17:50:08.000Z</time>
      </trkpt>
      <trkpt lat="48.37875" lon="2.40193">
        <ele>109.80000305176</ele>
        <time>2025-06-06T17:50:13.000Z</time>
      </trkpt>
      <trkpt lat="48.37878" lon="2.40209">
        <ele>110.19999694824</ele>
        <time>2025-06-06T17:50:16.000Z</time>
      </trkpt>
      <trkpt lat="48.37884" lon="2.40234">
        <ele>111.40000152588</ele>
        <time>2025-06-06T17:50:21.000Z</time>
      </trkpt>
      <trkpt lat="48.37889" lon="2.40255">
        <ele>112.40000152588</ele>
        <time>2025-06-06T17:50:25.000Z</time>
      </trkpt>
      <trkpt lat="48.37895" lon="2.40269">
        <ele>113.19999694824</ele>
        <time>2025-06-06T17:50:28.000Z</time>
      </trkpt>
      <trkpt lat="48.379" lon="2.40277">
        <ele>113.59999847412</ele>
        <time>2025-06-06T17:50:30.000Z</time>
      </trkpt>
      <trkpt lat="48.37911" lon="2.40292">
        <ele>114</ele>
        <time>2025-06-06T17:50:34.000Z</time>
      </trkpt>
      <trkpt lat="48.37925" lon="2.40312">
        <ele>114.59999847412</ele>
        <time>2025-06-06T17:50:39.000Z</time>
      </trkpt>
      <trkpt lat="48.37936" lon="2.40329">
        <ele>115.19999694824</ele>
        <time>2025-06-06T17:50:43.000Z</time>
      </trkpt>
      <trkpt lat="48.37939" lon="2.40334">
        <ele>115.40000152588</ele>
        <time>2025-06-06T17:50:44.000Z</time>
      </trkpt>
      <trkpt lat="48.37948" lon="2.40347">
        <ele>115.80000305176</ele>
        <time>2025-06-06T17:50:47.000Z</time>
      </trkpt>
      <trkpt lat="48.37957" lon="2.40362">
        <ele>116.19999694824</ele>
        <time>2025-06-06T17:50:50.000Z</time>
      </trkpt>
      <trkpt lat="48.37975" lon="2.4039">
        <ele>116.80000305176</ele>
        <time>2025-06-06T17:50:56.000Z</time>
      </trkpt>
      <trkpt lat="48.37986" lon="2.40404">
        <ele>117.19999694824</ele>
        <time>2025-06-06T17:50:59.000Z</time>
      </trkpt>
      <trkpt lat="48.38012" lon="2.4043">
        <ele>117.80000305176</ele>
        <time>2025-06-06T17:51:05.000Z</time>
      </trkpt>
      <trkpt lat="48.38056" lon="2.40471">
        <ele>117.80000305176</ele>
        <time>2025-06-06T17:51:15.000Z</time>
      </trkpt>
      <trkpt lat="48.38063" lon="2.40481">
        <ele>117.80000305176</ele>
        <time>2025-06-06T17:51:17.000Z</time>
      </trkpt>
      <trkpt lat="48.38072" lon="2.40498">
        <ele>117.80000305176</ele>
        <time>2025-06-06T17:51:20.000Z</time>
      </trkpt>
      <trkpt lat="48.38088" lon="2.40519">
        <ele>118</ele>
        <time>2025-06-06T17:51:25.000Z</time>
      </trkpt>
      <trkpt lat="48.38091" lon="2.40523">
        <ele>118.19999694824</ele>
        <time>2025-06-06T17:51:26.000Z</time>
      </trkpt>
      <trkpt lat="48.38098" lon="2.40532">
        <ele>119</ele>
        <time>2025-06-06T17:51:28.000Z</time>
      </trkpt>
      <trkpt lat="48.38101" lon="2.40538">
        <ele>119.19999694824</ele>
        <time>2025-06-06T17:51:29.000Z</time>
      </trkpt>
      <trkpt lat="48.38106" lon="2.4055">
        <ele>119.80000305176</ele>
        <time>2025-06-06T17:51:31.000Z</time>
      </trkpt>
      <trkpt lat="48.38114" lon="2.40569">
        <ele>120.19999694824</ele>
        <time>2025-06-06T17:51:34.000Z</time>
      </trkpt>
      <trkpt lat="48.38131" lon="2.40616">
        <ele>121</ele>
        <time>2025-06-06T17:51:41.000Z</time>
      </trkpt>
      <trkpt lat="48.38141" lon="2.40643">
        <ele>121.40000152588</ele>
        <time>2025-06-06T17:51:45.000Z</time>
      </trkpt>
      <trkpt lat="48.38155" lon="2.40685">
        <ele>121.59999847412</ele>
        <time>2025-06-06T17:51:51.000Z</time>
      </trkpt>
      <trkpt lat="48.38177" lon="2.40751">
        <ele>122.19999694824</ele>
        <time>2025-06-06T17:52:01.000Z</time>
      </trkpt>
      <trkpt lat="48.38179" lon="2.40757">
        <ele>122.40000152588</ele>
        <time>2025-06-06T17:52:02.000Z</time>
      </trkpt>
      <trkpt lat="48.38204" lon="2.40831">
        <ele>123.19999694824</ele>
        <time>2025-06-06T17:52:13.000Z</time>
      </trkpt>
      <trkpt lat="48.38208" lon="2.40845">
        <ele>123.40000152588</ele>
        <time>2025-06-06T17:52:15.000Z</time>
      </trkpt>
      <trkpt lat="48.38228" lon="2.40907">
        <ele>124.19999694824</ele>
        <time>2025-06-06T17:52:24.000Z</time>
      </trkpt>
      <trkpt lat="48.3824" lon="2.40943">
        <ele>124.40000152588</ele>
        <time>2025-06-06T17:52:29.000Z</time>
      </trkpt>
      <trkpt lat="48.38251" lon="2.40976">
        <ele>124.59999847412</ele>
        <time>2025-06-06T17:52:34.000Z</time>
      </trkpt>
      <trkpt lat="48.38262" lon="2.41007">
        <ele>124.80000305176</ele>
        <time>2025-06-06T17:52:39.000Z</time>
      </trkpt>
      <trkpt lat="48.38265" lon="2.4101">
        <ele>124.80000305176</ele>
        <time>2025-06-06T17:52:40.000Z</time>
      </trkpt>
      <trkpt lat="48.38279" lon="2.41007">
        <ele>124.80000305176</ele>
        <time>2025-06-06T17:52:43.000Z</time>
      </trkpt>
      <trkpt lat="48.38284" lon="2.41005">
        <ele>124.80000305176</ele>
        <time>2025-06-06T17:52:44.000Z</time>
      </trkpt>
      <trkpt lat="48.38324" lon="2.40985">
        <ele>124.80000305176</ele>
        <time>2025-06-06T17:52:52.000Z</time>
      </trkpt>
      <trkpt lat="48.38367" lon="2.40962">
        <ele>124.59999847412</ele>
        <time>2025-06-06T17:53:00.000Z</time>
      </trkpt>
      <trkpt lat="48.38407" lon="2.40943">
        <ele>123.40000152588</ele>
        <time>2025-06-06T17:53:07.000Z</time>
      </trkpt>
      <trkpt lat="48.38413" lon="2.4094">
        <ele>123.40000152588</ele>
        <time>2025-06-06T17:53:08.000Z</time>
      </trkpt>
      <trkpt lat="48.38459" lon="2.40916">
        <ele>122.59999847412</ele>
        <time>2025-06-06T17:53:16.000Z</time>
      </trkpt>
      <trkpt lat="48.38471" lon="2.4091">
        <ele>122.19999694824</ele>
        <time>2025-06-06T17:53:18.000Z</time>
      </trkpt>
      <trkpt lat="48.38505" lon="2.40892">
        <ele>121.19999694824</ele>
        <time>2025-06-06T17:53:24.000Z</time>
      </trkpt>
      <trkpt lat="48.38511" lon="2.40889">
        <ele>121</ele>
        <time>2025-06-06T17:53:25.000Z</time>
      </trkpt>
      <trkpt lat="48.38548" lon="2.40868">
        <ele>120.40000152588</ele>
        <time>2025-06-06T17:53:32.000Z</time>
      </trkpt>
      <trkpt lat="48.38567" lon="2.40856">
        <ele>120</ele>
        <time>2025-06-06T17:53:36.000Z</time>
      </trkpt>
      <trkpt lat="48.3858" lon="2.40848">
        <ele>119.80000305176</ele>
        <time>2025-06-06T17:53:39.000Z</time>
      </trkpt>
      <trkpt lat="48.38622" lon="2.40827">
        <ele>120</ele>
        <time>2025-06-06T17:53:49.000Z</time>
      </trkpt>
      <trkpt lat="48.38659" lon="2.40809">
        <ele>121</ele>
        <time>2025-06-06T17:53:58.000Z</time>
      </trkpt>
      <trkpt lat="48.38663" lon="2.40807">
        <ele>121</ele>
        <time>2025-06-06T17:53:59.000Z</time>
      </trkpt>
      <trkpt lat="48.38687" lon="2.40796">
        <ele>121.59999847412</ele>
        <time>2025-06-06T17:54:05.000Z</time>
      </trkpt>
      <trkpt lat="48.38699" lon="2.40784">
        <ele>121.80000305176</ele>
        <time>2025-06-06T17:54:09.000Z</time>
      </trkpt>
      <trkpt lat="48.38699" lon="2.4076">
        <ele>121.80000305176</ele>
        <time>2025-06-06T17:54:13.000Z</time>
      </trkpt>
      <trkpt lat="48.38693" lon="2.4071">
        <ele>121.59999847412</ele>
        <time>2025-06-06T17:54:20.000Z</time>
      </trkpt>
      <trkpt lat="48.38684" lon="2.40642">
        <ele>120.40000152588</ele>
        <time>2025-06-06T17:54:29.000Z</time>
      </trkpt>
      <trkpt lat="48.38676" lon="2.40581">
        <ele>120.19999694824</ele>
        <time>2025-06-06T17:54:37.000Z</time>
      </trkpt>
      <trkpt lat="48.38668" lon="2.40518">
        <ele>120.80000305176</ele>
        <time>2025-06-06T17:54:45.000Z</time>
      </trkpt>
      <trkpt lat="48.38659" lon="2.40471">
        <ele>120.80000305176</ele>
        <time>2025-06-06T17:54:51.000Z</time>
      </trkpt>
      <trkpt lat="48.38657" lon="2.40458">
        <ele>121</ele>
        <time>2025-06-06T17:54:53.000Z</time>
      </trkpt>
      <trkpt lat="48.38659" lon="2.40446">
        <ele>121</ele>
        <time>2025-06-06T17:54:55.000Z</time>
      </trkpt>
      <trkpt lat="48.38664" lon="2.40424">
        <ele>121</ele>
        <time>2025-06-06T17:54:59.000Z</time>
      </trkpt>
      <trkpt lat="48.38661" lon="2.404">
        <ele>121.59999847412</ele>
        <time>2025-06-06T17:55:03.000Z</time>
      </trkpt>
      <trkpt lat="48.3866" lon="2.40393">
        <ele>122</ele>
        <time>2025-06-06T17:55:04.000Z</time>
      </trkpt>
      <trkpt lat="48.38655" lon="2.40355">
        <ele>122.19999694824</ele>
        <time>2025-06-06T17:55:10.000Z</time>
      </trkpt>
      <trkpt lat="48.38653" lon="2.40342">
        <ele>122.19999694824</ele>
        <time>2025-06-06T17:55:12.000Z</time>
      </trkpt>
      <trkpt lat="48.38651" lon="2.40324">
        <ele>122.19999694824</ele>
        <time>2025-06-06T17:55:15.000Z</time>
      </trkpt>
      <trkpt lat="48.38651" lon="2.40314">
        <ele>122.19999694824</ele>
        <time>2025-06-06T17:55:17.000Z</time>
      </trkpt>
      <trkpt lat="48.38656" lon="2.40306">
        <ele>121.80000305176</ele>
        <time>2025-06-06T17:55:19.000Z</time>
      </trkpt>
      <trkpt lat="48.38663" lon="2.40303">
        <ele>121.80000305176</ele>
        <time>2025-06-06T17:55:21.000Z</time>
      </trkpt>
      <trkpt lat="48.38673" lon="2.40302">
        <ele>121.59999847412</ele>
        <time>2025-06-06T17:55:24.000Z</time>
      </trkpt>
      <trkpt lat="48.38701" lon="2.40295">
        <ele>121.80000305176</ele>
        <time>2025-06-06T17:55:31.000Z</time>
      </trkpt>
      <trkpt lat="48.38725" lon="2.4029">
        <ele>122.19999694824</ele>
        <time>2025-06-06T17:55:37.000Z</time>
      </trkpt>
      <trkpt lat="48.38755" lon="2.40283">
        <ele>122.59999847412</ele>
        <time>2025-06-06T17:55:44.000Z</time>
      </trkpt>
      <trkpt lat="48.3878" lon="2.40278">
        <ele>122.59999847412</ele>
        <time>2025-06-06T17:55:50.000Z</time>
      </trkpt>
      <trkpt lat="48.38787" lon="2.40278">
        <ele>122.59999847412</ele>
        <time>2025-06-06T17:55:54.000Z</time>
      </trkpt>
      <trkpt lat="48.3879" lon="2.40279">
        <ele>122.59999847412</ele>
        <time>2025-06-06T17:55:56.000Z</time>
      </trkpt>
      <trkpt lat="48.38793" lon="2.4028">
        <ele>122.59999847412</ele>
        <time>2025-06-06T17:55:58.000Z</time>
      </trkpt>
      <trkpt lat="48.38794" lon="2.4028">
        <ele>122.59999847412</ele>
        <time>2025-06-06T17:55:59.000Z</time>
      </trkpt>
      <trkpt lat="48.38795" lon="2.40282">
        <ele>122.80000305176</ele>
        <time>2025-06-06T17:56:00.000Z</time>
      </trkpt>
      <trkpt lat="48.38799" lon="2.40283">
        <ele>123.19999694824</ele>
        <time>2025-06-06T17:56:04.000Z</time>
      </trkpt>
      <trkpt lat="48.38805" lon="2.40281">
        <ele>123.19999694824</ele>
        <time>2025-06-06T17:56:10.000Z</time>
      </trkpt>
      <trkpt lat="48.38815" lon="2.40276">
        <ele>123.19999694824</ele>
        <time>2025-06-06T17:56:15.000Z</time>
      </trkpt>
      <trkpt lat="48.38827" lon="2.40278">
        <ele>123</ele>
        <time>2025-06-06T17:56:20.000Z</time>
      </trkpt>
      <trkpt lat="48.38849" lon="2.40283">
        <ele>122.80000305176</ele>
        <time>2025-06-06T17:56:26.000Z</time>
      </trkpt>
      <trkpt lat="48.38886" lon="2.40281">
        <ele>122.80000305176</ele>
        <time>2025-06-06T17:56:34.000Z</time>
      </trkpt>
      <trkpt lat="48.38904" lon="2.40283">
        <ele>122.40000152588</ele>
        <time>2025-06-06T17:56:39.000Z</time>
      </trkpt>
      <trkpt lat="48.38921" lon="2.40287">
        <ele>122.19999694824</ele>
        <time>2025-06-06T17:56:45.000Z</time>
      </trkpt>
      <trkpt lat="48.38943" lon="2.40286">
        <ele>121.80000305176</ele>
        <time>2025-06-06T17:56:51.000Z</time>
      </trkpt>
      <trkpt lat="48.38964" lon="2.40285">
        <ele>121.40000152588</ele>
        <time>2025-06-06T17:56:56.000Z</time>
      </trkpt>
      <trkpt lat="48.38968" lon="2.40286">
        <ele>121.19999694824</ele>
        <time>2025-06-06T17:56:57.000Z</time>
      </trkpt>
      <trkpt lat="48.3899" lon="2.40283">
        <ele>120.40000152588</ele>
        <time>2025-06-06T17:57:02.000Z</time>
      </trkpt>
      <trkpt lat="48.38994" lon="2.40283">
        <ele>120.19999694824</ele>
        <time>2025-06-06T17:57:03.000Z</time>
      </trkpt>
      <trkpt lat="48.39021" lon="2.40276">
        <ele>119.59999847412</ele>
        <time>2025-06-06T17:57:09.000Z</time>
      </trkpt>
      <trkpt lat="48.39029" lon="2.40271">
        <ele>119.40000152588</ele>
        <time>2025-06-06T17:57:11.000Z</time>
      </trkpt>
      <trkpt lat="48.39051" lon="2.40261">
        <ele>118.80000305176</ele>
        <time>2025-06-06T17:57:16.000Z</time>
      </trkpt>
      <trkpt lat="48.39073" lon="2.40251">
        <ele>118.19999694824</ele>
        <time>2025-06-06T17:57:21.000Z</time>
      </trkpt>
      <trkpt lat="48.39077" lon="2.4025">
        <ele>118</ele>
        <time>2025-06-06T17:57:22.000Z</time>
      </trkpt>
      <trkpt lat="48.39097" lon="2.40248">
        <ele>117.19999694824</ele>
        <time>2025-06-06T17:57:27.000Z</time>
      </trkpt>
      <trkpt lat="48.39101" lon="2.40248">
        <ele>117</ele>
        <time>2025-06-06T17:57:28.000Z</time>
      </trkpt>
      <trkpt lat="48.39106" lon="2.4025">
        <ele>116.40000152588</ele>
        <time>2025-06-06T17:57:30.000Z</time>
      </trkpt>
      <trkpt lat="48.39109" lon="2.40253">
        <ele>116.40000152588</ele>
        <time>2025-06-06T17:57:31.000Z</time>
      </trkpt>
      <trkpt lat="48.39118" lon="2.40255">
        <ele>116</ele>
        <time>2025-06-06T17:57:34.000Z</time>
      </trkpt>
      <trkpt lat="48.39122" lon="2.40255">
        <ele>115.80000305176</ele>
        <time>2025-06-06T17:57:35.000Z</time>
      </trkpt>
      <trkpt lat="48.39138" lon="2.40249">
        <ele>115.40000152588</ele>
        <time>2025-06-06T17:57:40.000Z</time>
      </trkpt>
      <trkpt lat="48.39148" lon="2.40246">
        <ele>114.80000305176</ele>
        <time>2025-06-06T17:57:44.000Z</time>
      </trkpt>
      <trkpt lat="48.39155" lon="2.40243">
        <ele>114.59999847412</ele>
        <time>2025-06-06T17:57:47.000Z</time>
      </trkpt>
      <trkpt lat="48.39157" lon="2.40241">
        <ele>114.40000152588</ele>
        <time>2025-06-06T17:57:48.000Z</time>
      </trkpt>
      <trkpt lat="48.39159" lon="2.40232">
        <ele>114.19999694824</ele>
        <time>2025-06-06T17:57:51.000Z</time>
      </trkpt>
      <trkpt lat="48.39159" lon="2.40228">
        <ele>114</ele>
        <time>2025-06-06T17:57:52.000Z</time>
      </trkpt>
      <trkpt lat="48.3916" lon="2.40218">
        <ele>113.80000305176</ele>
        <time>2025-06-06T17:57:54.000Z</time>
      </trkpt>
      <trkpt lat="48.39159" lon="2.40202">
        <ele>113</ele>
        <time>2025-06-06T17:57:57.000Z</time>
      </trkpt>
      <trkpt lat="48.39159" lon="2.40197">
        <ele>112.40000152588</ele>
        <time>2025-06-06T17:57:58.000Z</time>
      </trkpt>
      <trkpt lat="48.39153" lon="2.40172">
        <ele>111.80000305176</ele>
        <time>2025-06-06T17:58:03.000Z</time>
      </trkpt>
      <trkpt lat="48.39147" lon="2.40146">
        <ele>111.40000152588</ele>
        <time>2025-06-06T17:58:07.000Z</time>
      </trkpt>
      <trkpt lat="48.39143" lon="2.40133">
        <ele>111</ele>
        <time>2025-06-06T17:58:09.000Z</time>
      </trkpt>
      <trkpt lat="48.39141" lon="2.40126">
        <ele>110.40000152588</ele>
        <time>2025-06-06T17:58:10.000Z</time>
      </trkpt>
      <trkpt lat="48.39136" lon="2.40107">
        <ele>109.40000152588</ele>
        <time>2025-06-06T17:58:13.000Z</time>
      </trkpt>
      <trkpt lat="48.39136" lon="2.40101">
        <ele>109.19999694824</ele>
        <time>2025-06-06T17:58:14.000Z</time>
      </trkpt>
      <trkpt lat="48.39135" lon="2.40095">
        <ele>109</ele>
        <time>2025-06-06T17:58:15.000Z</time>
      </trkpt>
      <trkpt lat="48.39128" lon="2.4005">
        <ele>109</ele>
        <time>2025-06-06T17:58:21.000Z</time>
      </trkpt>
      <trkpt lat="48.39118" lon="2.40008">
        <ele>110</ele>
        <time>2025-06-06T17:58:28.000Z</time>
      </trkpt>
      <trkpt lat="48.39114" lon="2.39989">
        <ele>110.19999694824</ele>
        <time>2025-06-06T17:58:31.000Z</time>
      </trkpt>
      <trkpt lat="48.39111" lon="2.39974">
        <ele>110.59999847412</ele>
        <time>2025-06-06T17:58:34.000Z</time>
      </trkpt>
      <trkpt lat="48.39108" lon="2.3996">
        <ele>111.40000152588</ele>
        <time>2025-06-06T17:58:37.000Z</time>
      </trkpt>
      <trkpt lat="48.39103" lon="2.39936">
        <ele>112.59999847412</ele>
        <time>2025-06-06T17:58:42.000Z</time>
      </trkpt>
      <trkpt lat="48.39096" lon="2.39915">
        <ele>113.80000305176</ele>
        <time>2025-06-06T17:58:47.000Z</time>
      </trkpt>
      <trkpt lat="48.39093" lon="2.39906">
        <ele>113.80000305176</ele>
        <time>2025-06-06T17:58:49.000Z</time>
      </trkpt>
      <trkpt lat="48.39086" lon="2.39874">
        <ele>114.19999694824</ele>
        <time>2025-06-06T17:58:55.000Z</time>
      </trkpt>
      <trkpt lat="48.39079" lon="2.39846">
        <ele>114.80000305176</ele>
        <time>2025-06-06T17:59:00.000Z</time>
      </trkpt>
      <trkpt lat="48.39076" lon="2.39833">
        <ele>114.80000305176</ele>
        <time>2025-06-06T17:59:02.000Z</time>
      </trkpt>
      <trkpt lat="48.39062" lon="2.39788">
        <ele>114.80000305176</ele>
        <time>2025-06-06T17:59:08.000Z</time>
      </trkpt>
      <trkpt lat="48.39048" lon="2.3975">
        <ele>114</ele>
        <time>2025-06-06T17:59:14.000Z</time>
      </trkpt>
      <trkpt lat="48.39037" lon="2.39724">
        <ele>114</ele>
        <time>2025-06-06T17:59:19.000Z</time>
      </trkpt>
      <trkpt lat="48.39019" lon="2.39705">
        <ele>113.80000305176</ele>
        <time>2025-06-06T17:59:24.000Z</time>
      </trkpt>
      <trkpt lat="48.39013" lon="2.39694">
        <ele>113.80000305176</ele>
        <time>2025-06-06T17:59:26.000Z</time>
      </trkpt>
      <trkpt lat="48.39008" lon="2.39685">
        <ele>113.80000305176</ele>
        <time>2025-06-06T17:59:28.000Z</time>
      </trkpt>
      <trkpt lat="48.38989" lon="2.39658">
        <ele>113.80000305176</ele>
        <time>2025-06-06T17:59:34.000Z</time>
      </trkpt>
      <trkpt lat="48.38988" lon="2.39652">
        <ele>113.80000305176</ele>
        <time>2025-06-06T17:59:35.000Z</time>
      </trkpt>
      <trkpt lat="48.38989" lon="2.39626">
        <ele>113.59999847412</ele>
        <time>2025-06-06T17:59:38.000Z</time>
      </trkpt>
      <trkpt lat="48.39" lon="2.39604">
        <ele>113.40000152588</ele>
        <time>2025-06-06T17:59:41.000Z</time>
      </trkpt>
      <trkpt lat="48.3901" lon="2.39595">
        <ele>112.59999847412</ele>
        <time>2025-06-06T17:59:43.000Z</time>
      </trkpt>
      <trkpt lat="48.39021" lon="2.3959">
        <ele>111.40000152588</ele>
        <time>2025-06-06T17:59:45.000Z</time>
      </trkpt>
      <trkpt lat="48.39026" lon="2.39588">
        <ele>110.80000305176</ele>
        <time>2025-06-06T17:59:46.000Z</time>
      </trkpt>
      <trkpt lat="48.39031" lon="2.39588">
        <ele>110</ele>
        <time>2025-06-06T17:59:47.000Z</time>
      </trkpt>
      <trkpt lat="48.39039" lon="2.39589">
        <ele>109.40000152588</ele>
        <time>2025-06-06T17:59:49.000Z</time>
      </trkpt>
      <trkpt lat="48.39043" lon="2.39587">
        <ele>109.19999694824</ele>
        <time>2025-06-06T17:59:51.000Z</time>
      </trkpt>
      <trkpt lat="48.39044" lon="2.39585">
        <ele>109.19999694824</ele>
        <time>2025-06-06T17:59:52.000Z</time>
      </trkpt>
      <trkpt lat="48.39041" lon="2.39573">
        <ele>109.19999694824</ele>
        <time>2025-06-06T17:59:56.000Z</time>
      </trkpt>
      <trkpt lat="48.39039" lon="2.39571">
        <ele>109.40000152588</ele>
        <time>2025-06-06T17:59:57.000Z</time>
      </trkpt>
      <trkpt lat="48.39027" lon="2.39564">
        <ele>109.59999847412</ele>
        <time>2025-06-06T18:00:01.000Z</time>
      </trkpt>
      <trkpt lat="48.3902" lon="2.39564">
        <ele>109.59999847412</ele>
        <time>2025-06-06T18:00:05.000Z</time>
      </trkpt>
      <trkpt lat="48.39017" lon="2.39564">
        <ele>109.40000152588</ele>
        <time>2025-06-06T18:00:07.000Z</time>
      </trkpt>
      <trkpt lat="48.39016" lon="2.39562">
        <ele>108.80000305176</ele>
        <time>2025-06-06T18:00:09.000Z</time>
      </trkpt>
      <trkpt lat="48.39017" lon="2.39549">
        <ele>107.40000152588</ele>
        <time>2025-06-06T18:00:14.000Z</time>
      </trkpt>
      <trkpt lat="48.39017" lon="2.39542">
        <ele>105.40000152588</ele>
        <time>2025-06-06T18:00:16.000Z</time>
      </trkpt>
      <trkpt lat="48.39018" lon="2.3954">
        <ele>104.40000152588</ele>
        <time>2025-06-06T18:00:17.000Z</time>
      </trkpt>
      <trkpt lat="48.39019" lon="2.39535">
        <ele>103</ele>
        <time>2025-06-06T18:00:19.000Z</time>
      </trkpt>
      <trkpt lat="48.3902" lon="2.39531">
        <ele>101.80000305176</ele>
        <time>2025-06-06T18:00:21.000Z</time>
      </trkpt>
      <trkpt lat="48.39022" lon="2.39527">
        <ele>100</ele>
        <time>2025-06-06T18:00:23.000Z</time>
      </trkpt>
      <trkpt lat="48.39021" lon="2.39526">
        <ele>98</ele>
        <time>2025-06-06T18:00:24.000Z</time>
      </trkpt>
      <trkpt lat="48.39021" lon="2.39525">
        <ele>97.199996948242</ele>
        <time>2025-06-06T18:00:25.000Z</time>
      </trkpt>
      <trkpt lat="48.39021" lon="2.39524">
        <ele>96.400001525879</ele>
        <time>2025-06-06T18:00:26.000Z</time>
      </trkpt>
      <trkpt lat="48.39017" lon="2.39521">
        <ele>94.199996948242</ele>
        <time>2025-06-06T18:00:28.000Z</time>
      </trkpt>
      <trkpt lat="48.39016" lon="2.39519">
        <ele>93</ele>
        <time>2025-06-06T18:00:29.000Z</time>
      </trkpt>
      <trkpt lat="48.39015" lon="2.39518">
        <ele>92.199996948242</ele>
        <time>2025-06-06T18:00:30.000Z</time>
      </trkpt>
      <trkpt lat="48.39015" lon="2.39517">
        <ele>91.400001525879</ele>
        <time>2025-06-06T18:00:31.000Z</time>
      </trkpt>
      <trkpt lat="48.39016" lon="2.39515">
        <ele>89.800003051758</ele>
        <time>2025-06-06T18:00:33.000Z</time>
      </trkpt>
      <trkpt lat="48.39017" lon="2.39514">
        <ele>88.800003051758</ele>
        <time>2025-06-06T18:00:34.000Z</time>
      </trkpt>
      <trkpt lat="48.39018" lon="2.39514">
        <ele>87.599998474121</ele>
        <time>2025-06-06T18:00:35.000Z</time>
      </trkpt>
      <trkpt lat="48.39019" lon="2.39513">
        <ele>86.400001525879</ele>
        <time>2025-06-06T18:00:36.000Z</time>
      </trkpt>
      <trkpt lat="48.39023" lon="2.39511">
        <ele>85.400001525879</ele>
        <time>2025-06-06T18:00:38.000Z</time>
      </trkpt>
      <trkpt lat="48.39028" lon="2.39509">
        <ele>85</ele>
        <time>2025-06-06T18:00:40.000Z</time>
      </trkpt>
      <trkpt lat="48.39052" lon="2.3951">
        <ele>85</ele>
        <time>2025-06-06T18:00:47.000Z</time>
      </trkpt>
      <trkpt lat="48.3908" lon="2.39515">
        <ele>85.800003051758</ele>
        <time>2025-06-06T18:00:54.000Z</time>
      </trkpt>
      <trkpt lat="48.39092" lon="2.3952">
        <ele>86</ele>
        <time>2025-06-06T18:00:57.000Z</time>
      </trkpt>
      <trkpt lat="48.39104" lon="2.39526">
        <ele>86</ele>
        <time>2025-06-06T18:01:00.000Z</time>
      </trkpt>
      <trkpt lat="48.39108" lon="2.3953">
        <ele>86.199996948242</ele>
        <time>2025-06-06T18:01:01.000Z</time>
      </trkpt>
      <trkpt lat="48.39124" lon="2.39546">
        <ele>86.199996948242</ele>
        <time>2025-06-06T18:01:05.000Z</time>
      </trkpt>
      <trkpt lat="48.39142" lon="2.39572">
        <ele>86.400001525879</ele>
        <time>2025-06-06T18:01:10.000Z</time>
      </trkpt>
      <trkpt lat="48.39145" lon="2.39578">
        <ele>86.199996948242</ele>
        <time>2025-06-06T18:01:11.000Z</time>
      </trkpt>
      <trkpt lat="48.39148" lon="2.39583">
        <ele>86.400001525879</ele>
        <time>2025-06-06T18:01:12.000Z</time>
      </trkpt>
      <trkpt lat="48.39161" lon="2.39609">
        <ele>87.199996948242</ele>
        <time>2025-06-06T18:01:17.000Z</time>
      </trkpt>
      <trkpt lat="48.39163" lon="2.39613">
        <ele>87.199996948242</ele>
        <time>2025-06-06T18:01:18.000Z</time>
      </trkpt>
      <trkpt lat="48.39173" lon="2.39629">
        <ele>87.800003051758</ele>
        <time>2025-06-06T18:01:22.000Z</time>
      </trkpt>
      <trkpt lat="48.39183" lon="2.39645">
        <ele>87.800003051758</ele>
        <time>2025-06-06T18:01:25.000Z</time>
      </trkpt>
      <trkpt lat="48.39187" lon="2.39646">
        <ele>87.800003051758</ele>
        <time>2025-06-06T18:01:26.000Z</time>
      </trkpt>
      <trkpt lat="48.39193" lon="2.39638">
        <ele>87.800003051758</ele>
        <time>2025-06-06T18:01:28.000Z</time>
      </trkpt>
      <trkpt lat="48.39196" lon="2.39625">
        <ele>86.800003051758</ele>
        <time>2025-06-06T18:01:30.000Z</time>
      </trkpt>
      <trkpt lat="48.39198" lon="2.39616">
        <ele>85.199996948242</ele>
        <time>2025-06-06T18:01:31.000Z</time>
      </trkpt>
      <trkpt lat="48.39201" lon="2.39608">
        <ele>83.400001525879</ele>
        <time>2025-06-06T18:01:32.000Z</time>
      </trkpt>
      <trkpt lat="48.39205" lon="2.39601">
        <ele>82</ele>
        <time>2025-06-06T18:01:33.000Z</time>
      </trkpt>
      <trkpt lat="48.39213" lon="2.39598">
        <ele>80.400001525879</ele>
        <time>2025-06-06T18:01:35.000Z</time>
      </trkpt>
      <trkpt lat="48.39219" lon="2.39608">
        <ele>78.800003051758</ele>
        <time>2025-06-06T18:01:37.000Z</time>
      </trkpt>
      <trkpt lat="48.39221" lon="2.39614">
        <ele>78</ele>
        <time>2025-06-06T18:01:38.000Z</time>
      </trkpt>
      <trkpt lat="48.39225" lon="2.39621">
        <ele>77</ele>
        <time>2025-06-06T18:01:39.000Z</time>
      </trkpt>
      <trkpt lat="48.39229" lon="2.39628">
        <ele>75.800003051758</ele>
        <time>2025-06-06T18:01:40.000Z</time>
      </trkpt>
      <trkpt lat="48.39234" lon="2.39643">
        <ele>74.199996948242</ele>
        <time>2025-06-06T18:01:42.000Z</time>
      </trkpt>
      <trkpt lat="48.39236" lon="2.3965">
        <ele>73.599998474121</ele>
        <time>2025-06-06T18:01:43.000Z</time>
      </trkpt>
      <trkpt lat="48.3924" lon="2.39663">
        <ele>72.599998474121</ele>
        <time>2025-06-06T18:01:45.000Z</time>
      </trkpt>
      <trkpt lat="48.39241" lon="2.39669">
        <ele>72</ele>
        <time>2025-06-06T18:01:46.000Z</time>
      </trkpt>
      <trkpt lat="48.39242" lon="2.39676">
        <ele>71</ele>
        <time>2025-06-06T18:01:47.000Z</time>
      </trkpt>
      <trkpt lat="48.39243" lon="2.39683">
        <ele>70.400001525879</ele>
        <time>2025-06-06T18:01:48.000Z</time>
      </trkpt>
      <trkpt lat="48.39242" lon="2.39689">
        <ele>70</ele>
        <time>2025-06-06T18:01:49.000Z</time>
      </trkpt>
      <trkpt lat="48.39241" lon="2.39698">
        <ele>69.599998474121</ele>
        <time>2025-06-06T18:01:51.000Z</time>
      </trkpt>
      <trkpt lat="48.3924" lon="2.39703">
        <ele>69.400001525879</ele>
        <time>2025-06-06T18:01:52.000Z</time>
      </trkpt>
      <trkpt lat="48.39245" lon="2.39726">
        <ele>69.400001525879</ele>
        <time>2025-06-06T18:01:57.000Z</time>
      </trkpt>
      <trkpt lat="48.3925" lon="2.39752">
        <ele>69.599998474121</ele>
        <time>2025-06-06T18:02:03.000Z</time>
      </trkpt>
      <trkpt lat="48.39254" lon="2.39773">
        <ele>69.599998474121</ele>
        <time>2025-06-06T18:02:06.000Z</time>
      </trkpt>
      <trkpt lat="48.39257" lon="2.39781">
        <ele>69.599998474121</ele>
        <time>2025-06-06T18:02:07.000Z</time>
      </trkpt>
      <trkpt lat="48.39259" lon="2.3981">
        <ele>69.199996948242</ele>
        <time>2025-06-06T18:02:12.000Z</time>
      </trkpt>
      <trkpt lat="48.39255" lon="2.39816">
        <ele>68.800003051758</ele>
        <time>2025-06-06T18:02:14.000Z</time>
      </trkpt>
      <trkpt lat="48.3925" lon="2.39821">
        <ele>68.599998474121</ele>
        <time>2025-06-06T18:02:16.000Z</time>
      </trkpt>
      <trkpt lat="48.39245" lon="2.3984">
        <ele>68.599998474121</ele>
        <time>2025-06-06T18:02:21.000Z</time>
      </trkpt>
      <trkpt lat="48.39244" lon="2.39844">
        <ele>68.599998474121</ele>
        <time>2025-06-06T18:02:22.000Z</time>
      </trkpt>
      <trkpt lat="48.39242" lon="2.39865">
        <ele>69.800003051758</ele>
        <time>2025-06-06T18:02:26.000Z</time>
      </trkpt>
      <trkpt lat="48.39241" lon="2.39872">
        <ele>70</ele>
        <time>2025-06-06T18:02:27.000Z</time>
      </trkpt>
      <trkpt lat="48.39237" lon="2.39903">
        <ele>71</ele>
        <time>2025-06-06T18:02:32.000Z</time>
      </trkpt>
      <trkpt lat="48.39233" lon="2.39932">
        <ele>71.400001525879</ele>
        <time>2025-06-06T18:02:37.000Z</time>
      </trkpt>
      <trkpt lat="48.39235" lon="2.39942">
        <ele>71.400001525879</ele>
        <time>2025-06-06T18:02:39.000Z</time>
      </trkpt>
      <trkpt lat="48.3924" lon="2.39947">
        <ele>71.400001525879</ele>
        <time>2025-06-06T18:02:41.000Z</time>
      </trkpt>
      <trkpt lat="48.39253" lon="2.39947">
        <ele>71.400001525879</ele>
        <time>2025-06-06T18:02:45.000Z</time>
      </trkpt>
      <trkpt lat="48.39273" lon="2.39952">
        <ele>71.199996948242</ele>
        <time>2025-06-06T18:02:50.000Z</time>
      </trkpt>
      <trkpt lat="48.39289" lon="2.39961">
        <ele>70</ele>
        <time>2025-06-06T18:02:55.000Z</time>
      </trkpt>
      <trkpt lat="48.39297" lon="2.39964">
        <ele>69.599998474121</ele>
        <time>2025-06-06T18:02:58.000Z</time>
      </trkpt>
      <trkpt lat="48.393" lon="2.39967">
        <ele>69.599998474121</ele>
        <time>2025-06-06T18:02:59.000Z</time>
      </trkpt>
      <trkpt lat="48.39319" lon="2.39973">
        <ele>69.400001525879</ele>
        <time>2025-06-06T18:03:03.000Z</time>
      </trkpt>
      <trkpt lat="48.39336" lon="2.39982">
        <ele>68.800003051758</ele>
        <time>2025-06-06T18:03:07.000Z</time>
      </trkpt>
      <trkpt lat="48.3934" lon="2.39982">
        <ele>68.599998474121</ele>
        <time>2025-06-06T18:03:08.000Z</time>
      </trkpt>
      <trkpt lat="48.39352" lon="2.39989">
        <ele>68</ele>
        <time>2025-06-06T18:03:11.000Z</time>
      </trkpt>
      <trkpt lat="48.39355" lon="2.40007">
        <ele>67.400001525879</ele>
        <time>2025-06-06T18:03:15.000Z</time>
      </trkpt>
      <trkpt lat="48.39357" lon="2.4003">
        <ele>67</ele>
        <time>2025-06-06T18:03:20.000Z</time>
      </trkpt>
      <trkpt lat="48.39362" lon="2.4006">
        <ele>67.599998474121</ele>
        <time>2025-06-06T18:03:27.000Z</time>
      </trkpt>
      <trkpt lat="48.39361" lon="2.4008">
        <ele>68.599998474121</ele>
        <time>2025-06-06T18:03:32.000Z</time>
      </trkpt>
      <trkpt lat="48.3936" lon="2.40088">
        <ele>69.199996948242</ele>
        <time>2025-06-06T18:03:34.000Z</time>
      </trkpt>
      <trkpt lat="48.39359" lon="2.40092">
        <ele>69.599998474121</ele>
        <time>2025-06-06T18:03:35.000Z</time>
      </trkpt>
      <trkpt lat="48.39355" lon="2.40104">
        <ele>70.599998474121</ele>
        <time>2025-06-06T18:03:39.000Z</time>
      </trkpt>
      <trkpt lat="48.39344" lon="2.40116">
        <ele>71.800003051758</ele>
        <time>2025-06-06T18:03:45.000Z</time>
      </trkpt>
      <trkpt lat="48.39338" lon="2.40125">
        <ele>72.800003051758</ele>
        <time>2025-06-06T18:03:49.000Z</time>
      </trkpt>
      <trkpt lat="48.39336" lon="2.4013">
        <ele>73.199996948242</ele>
        <time>2025-06-06T18:03:51.000Z</time>
      </trkpt>
      <trkpt lat="48.39331" lon="2.40136">
        <ele>73.800003051758</ele>
        <time>2025-06-06T18:03:55.000Z</time>
      </trkpt>
      <trkpt lat="48.39328" lon="2.40142">
        <ele>75.199996948242</ele>
        <time>2025-06-06T18:03:59.000Z</time>
      </trkpt>
      <trkpt lat="48.39323" lon="2.40146">
        <ele>76.400001525879</ele>
        <time>2025-06-06T18:04:02.000Z</time>
      </trkpt>
      <trkpt lat="48.3932" lon="2.40151">
        <ele>77.400001525879</ele>
        <time>2025-06-06T18:04:05.000Z</time>
      </trkpt>
      <trkpt lat="48.39319" lon="2.40154">
        <ele>77.800003051758</ele>
        <time>2025-06-06T18:04:07.000Z</time>
      </trkpt>
      <trkpt lat="48.39318" lon="2.40155">
        <ele>77.800003051758</ele>
        <time>2025-06-06T18:04:08.000Z</time>
      </trkpt>
      <trkpt lat="48.39315" lon="2.40159">
        <ele>78.400001525879</ele>
        <time>2025-06-06T18:04:10.000Z</time>
      </trkpt>
      <trkpt lat="48.39312" lon="2.40162">
        <ele>79.199996948242</ele>
        <time>2025-06-06T18:04:13.000Z</time>
      </trkpt>
      <trkpt lat="48.39311" lon="2.40164">
        <ele>79.599998474121</ele>
        <time>2025-06-06T18:04:14.000Z</time>
      </trkpt>
      <trkpt lat="48.39307" lon="2.40171">
        <ele>81</ele>
        <time>2025-06-06T18:04:18.000Z</time>
      </trkpt>
      <trkpt lat="48.39304" lon="2.40175">
        <ele>81.800003051758</ele>
        <time>2025-06-06T18:04:21.000Z</time>
      </trkpt>
      <trkpt lat="48.39303" lon="2.40177">
        <ele>82</ele>
        <time>2025-06-06T18:04:22.000Z</time>
      </trkpt>
      <trkpt lat="48.39297" lon="2.40183">
        <ele>83.400001525879</ele>
        <time>2025-06-06T18:04:27.000Z</time>
      </trkpt>
      <trkpt lat="48.39293" lon="2.40188">
        <ele>84.599998474121</ele>
        <time>2025-06-06T18:04:32.000Z</time>
      </trkpt>
      <trkpt lat="48.39292" lon="2.4019">
        <ele>84.800003051758</ele>
        <time>2025-06-06T18:04:33.000Z</time>
      </trkpt>
      <trkpt lat="48.39289" lon="2.40195">
        <ele>85.800003051758</ele>
        <time>2025-06-06T18:04:36.000Z</time>
      </trkpt>
      <trkpt lat="48.39286" lon="2.402">
        <ele>87</ele>
        <time>2025-06-06T18:04:40.000Z</time>
      </trkpt>
      <trkpt lat="48.39282" lon="2.40204">
        <ele>88.199996948242</ele>
        <time>2025-06-06T18:04:44.000Z</time>
      </trkpt>
      <trkpt lat="48.39277" lon="2.40213">
        <ele>89.199996948242</ele>
        <time>2025-06-06T18:04:49.000Z</time>
      </trkpt>
      <trkpt lat="48.39273" lon="2.40216">
        <ele>89.800003051758</ele>
        <time>2025-06-06T18:04:52.000Z</time>
      </trkpt>
      <trkpt lat="48.39272" lon="2.40217">
        <ele>90.199996948242</ele>
        <time>2025-06-06T18:04:54.000Z</time>
      </trkpt>
      <trkpt lat="48.39268" lon="2.40222">
        <ele>91.400001525879</ele>
        <time>2025-06-06T18:04:59.000Z</time>
      </trkpt>
      <trkpt lat="48.39263" lon="2.40227">
        <ele>92.400001525879</ele>
        <time>2025-06-06T18:05:03.000Z</time>
      </trkpt>
      <trkpt lat="48.39262" lon="2.40229">
        <ele>92.599998474121</ele>
        <time>2025-06-06T18:05:04.000Z</time>
      </trkpt>
      <trkpt lat="48.39259" lon="2.40243">
        <ele>93.599998474121</ele>
        <time>2025-06-06T18:05:09.000Z</time>
      </trkpt>
      <trkpt lat="48.39259" lon="2.4025">
        <ele>94</ele>
        <time>2025-06-06T18:05:11.000Z</time>
      </trkpt>
      <trkpt lat="48.39258" lon="2.40266">
        <ele>94.599998474121</ele>
        <time>2025-06-06T18:05:16.000Z</time>
      </trkpt>
      <trkpt lat="48.39259" lon="2.40269">
        <ele>94.599998474121</ele>
        <time>2025-06-06T18:05:17.000Z</time>
      </trkpt>
      <trkpt lat="48.39261" lon="2.40288">
        <ele>94.800003051758</ele>
        <time>2025-06-06T18:05:23.000Z</time>
      </trkpt>
      <trkpt lat="48.39264" lon="2.40308">
        <ele>95</ele>
        <time>2025-06-06T18:05:29.000Z</time>
      </trkpt>
      <trkpt lat="48.39269" lon="2.40327">
        <ele>95.400001525879</ele>
        <time>2025-06-06T18:05:34.000Z</time>
      </trkpt>
      <trkpt lat="48.3927" lon="2.40336">
        <ele>95.599998474121</ele>
        <time>2025-06-06T18:05:36.000Z</time>
      </trkpt>
      <trkpt lat="48.39272" lon="2.40366">
        <ele>96.199996948242</ele>
        <time>2025-06-06T18:05:43.000Z</time>
      </trkpt>
      <trkpt lat="48.39274" lon="2.40383">
        <ele>96.400001525879</ele>
        <time>2025-06-06T18:05:47.000Z</time>
      </trkpt>
      <trkpt lat="48.39275" lon="2.40387">
        <ele>96.599998474121</ele>
        <time>2025-06-06T18:05:48.000Z</time>
      </trkpt>
      <trkpt lat="48.39278" lon="2.40417">
        <ele>97.199996948242</ele>
        <time>2025-06-06T18:05:55.000Z</time>
      </trkpt>
      <trkpt lat="48.39279" lon="2.4043">
        <ele>97.599998474121</ele>
        <time>2025-06-06T18:05:58.000Z</time>
      </trkpt>
      <trkpt lat="48.39279" lon="2.40446">
        <ele>98</ele>
        <time>2025-06-06T18:06:02.000Z</time>
      </trkpt>
      <trkpt lat="48.39279" lon="2.40469">
        <ele>98.800003051758</ele>
        <time>2025-06-06T18:06:07.000Z</time>
      </trkpt>
      <trkpt lat="48.39278" lon="2.40478">
        <ele>99.199996948242</ele>
        <time>2025-06-06T18:06:09.000Z</time>
      </trkpt>
      <trkpt lat="48.39271" lon="2.40514">
        <ele>99.800003051758</ele>
        <time>2025-06-06T18:06:17.000Z</time>
      </trkpt>
      <trkpt lat="48.39259" lon="2.40542">
        <ele>100.40000152588</ele>
        <time>2025-06-06T18:06:24.000Z</time>
      </trkpt>
      <trkpt lat="48.39254" lon="2.40549">
        <ele>100.80000305176</ele>
        <time>2025-06-06T18:06:26.000Z</time>
      </trkpt>
      <trkpt lat="48.39239" lon="2.40575">
        <ele>101.80000305176</ele>
        <time>2025-06-06T18:06:34.000Z</time>
      </trkpt>
      <trkpt lat="48.39226" lon="2.40599">
        <ele>103</ele>
        <time>2025-06-06T18:06:40.000Z</time>
      </trkpt>
      <trkpt lat="48.39213" lon="2.40629">
        <ele>103.80000305176</ele>
        <time>2025-06-06T18:06:47.000Z</time>
      </trkpt>
      <trkpt lat="48.39208" lon="2.40639">
        <ele>104</ele>
        <time>2025-06-06T18:06:49.000Z</time>
      </trkpt>
      <trkpt lat="48.392" lon="2.40657">
        <ele>104.80000305176</ele>
        <time>2025-06-06T18:06:53.000Z</time>
      </trkpt>
      <trkpt lat="48.39193" lon="2.40677">
        <ele>105</ele>
        <time>2025-06-06T18:06:57.000Z</time>
      </trkpt>
      <trkpt lat="48.39189" lon="2.40698">
        <ele>105.59999847412</ele>
        <time>2025-06-06T18:07:01.000Z</time>
      </trkpt>
      <trkpt lat="48.39187" lon="2.40717">
        <ele>106.19999694824</ele>
        <time>2025-06-06T18:07:05.000Z</time>
      </trkpt>
      <trkpt lat="48.39187" lon="2.40727">
        <ele>106.40000152588</ele>
        <time>2025-06-06T18:07:07.000Z</time>
      </trkpt>
      <trkpt lat="48.39188" lon="2.40757">
        <ele>106.80000305176</ele>
        <time>2025-06-06T18:07:13.000Z</time>
      </trkpt>
      <trkpt lat="48.39189" lon="2.40769">
        <ele>107.19999694824</ele>
        <time>2025-06-06T18:07:15.000Z</time>
      </trkpt>
      <trkpt lat="48.39194" lon="2.40794">
        <ele>108</ele>
        <time>2025-06-06T18:07:20.000Z</time>
      </trkpt>
      <trkpt lat="48.39197" lon="2.40809">
        <ele>108.40000152588</ele>
        <time>2025-06-06T18:07:23.000Z</time>
      </trkpt>
      <trkpt lat="48.39203" lon="2.40829">
        <ele>108.80000305176</ele>
        <time>2025-06-06T18:07:27.000Z</time>
      </trkpt>
      <trkpt lat="48.39213" lon="2.40854">
        <ele>109.59999847412</ele>
        <time>2025-06-06T18:07:32.000Z</time>
      </trkpt>
      <trkpt lat="48.39217" lon="2.40865">
        <ele>109.80000305176</ele>
        <time>2025-06-06T18:07:34.000Z</time>
      </trkpt>
      <trkpt lat="48.39224" lon="2.40885">
        <ele>110.59999847412</ele>
        <time>2025-06-06T18:07:38.000Z</time>
      </trkpt>
      <trkpt lat="48.39233" lon="2.40908">
        <ele>111.19999694824</ele>
        <time>2025-06-06T18:07:43.000Z</time>
      </trkpt>
      <trkpt lat="48.39236" lon="2.40918">
        <ele>111.40000152588</ele>
        <time>2025-06-06T18:07:45.000Z</time>
      </trkpt>
      <trkpt lat="48.39246" lon="2.40941">
        <ele>112.19999694824</ele>
        <time>2025-06-06T18:07:50.000Z</time>
      </trkpt>
      <trkpt lat="48.39251" lon="2.40949">
        <ele>112.40000152588</ele>
        <time>2025-06-06T18:07:52.000Z</time>
      </trkpt>
      <trkpt lat="48.39258" lon="2.40956">
        <ele>112.80000305176</ele>
        <time>2025-06-06T18:07:55.000Z</time>
      </trkpt>
      <trkpt lat="48.39269" lon="2.40973">
        <ele>113.59999847412</ele>
        <time>2025-06-06T18:08:00.000Z</time>
      </trkpt>
      <trkpt lat="48.3928" lon="2.40995">
        <ele>114.80000305176</ele>
        <time>2025-06-06T18:08:06.000Z</time>
      </trkpt>
      <trkpt lat="48.39284" lon="2.41005">
        <ele>115.19999694824</ele>
        <time>2025-06-06T18:08:08.000Z</time>
      </trkpt>
      <trkpt lat="48.3929" lon="2.41017">
        <ele>116</ele>
        <time>2025-06-06T18:08:11.000Z</time>
      </trkpt>
      <trkpt lat="48.39298" lon="2.41031">
        <ele>117</ele>
        <time>2025-06-06T18:08:15.000Z</time>
      </trkpt>
      <trkpt lat="48.39301" lon="2.41035">
        <ele>117</ele>
        <time>2025-06-06T18:08:16.000Z</time>
      </trkpt>
      <trkpt lat="48.39311" lon="2.41048">
        <ele>117.40000152588</ele>
        <time>2025-06-06T18:08:20.000Z</time>
      </trkpt>
      <trkpt lat="48.3932" lon="2.4106">
        <ele>117.59999847412</ele>
        <time>2025-06-06T18:08:23.000Z</time>
      </trkpt>
      <trkpt lat="48.39339" lon="2.41082">
        <ele>118</ele>
        <time>2025-06-06T18:08:29.000Z</time>
      </trkpt>
      <trkpt lat="48.39345" lon="2.4109">
        <ele>118.19999694824</ele>
        <time>2025-06-06T18:08:31.000Z</time>
      </trkpt>
      <trkpt lat="48.39361" lon="2.41105">
        <ele>119</ele>
        <time>2025-06-06T18:08:36.000Z</time>
      </trkpt>
      <trkpt lat="48.39367" lon="2.4111">
        <ele>119.19999694824</ele>
        <time>2025-06-06T18:08:38.000Z</time>
      </trkpt>
      <trkpt lat="48.39382" lon="2.41123">
        <ele>119.59999847412</ele>
        <time>2025-06-06T18:08:42.000Z</time>
      </trkpt>
      <trkpt lat="48.39406" lon="2.41153">
        <ele>120</ele>
        <time>2025-06-06T18:08:49.000Z</time>
      </trkpt>
      <trkpt lat="48.39426" lon="2.41179">
        <ele>120.19999694824</ele>
        <time>2025-06-06T18:08:55.000Z</time>
      </trkpt>
      <trkpt lat="48.3943" lon="2.41183">
        <ele>120.40000152588</ele>
        <time>2025-06-06T18:08:56.000Z</time>
      </trkpt>
      <trkpt lat="48.39459" lon="2.4121">
        <ele>120.80000305176</ele>
        <time>2025-06-06T18:09:03.000Z</time>
      </trkpt>
      <trkpt lat="48.39491" lon="2.41242">
        <ele>121.19999694824</ele>
        <time>2025-06-06T18:09:11.000Z</time>
      </trkpt>
      <trkpt lat="48.39523" lon="2.41274">
        <ele>121.19999694824</ele>
        <time>2025-06-06T18:09:19.000Z</time>
      </trkpt>
      <trkpt lat="48.39555" lon="2.41302">
        <ele>121</ele>
        <time>2025-06-06T18:09:26.000Z</time>
      </trkpt>
      <trkpt lat="48.39592" lon="2.4133">
        <ele>120</ele>
        <time>2025-06-06T18:09:34.000Z</time>
      </trkpt>
      <trkpt lat="48.39596" lon="2.41334">
        <ele>119.80000305176</ele>
        <time>2025-06-06T18:09:35.000Z</time>
      </trkpt>
      <trkpt lat="48.39605" lon="2.4135">
        <ele>119.59999847412</ele>
        <time>2025-06-06T18:09:38.000Z</time>
      </trkpt>
      <trkpt lat="48.39607" lon="2.41356">
        <ele>119.40000152588</ele>
        <time>2025-06-06T18:09:39.000Z</time>
      </trkpt>
      <trkpt lat="48.39606" lon="2.41369">
        <ele>119.19999694824</ele>
        <time>2025-06-06T18:09:41.000Z</time>
      </trkpt>
      <trkpt lat="48.39604" lon="2.41376">
        <ele>119.19999694824</ele>
        <time>2025-06-06T18:09:42.000Z</time>
      </trkpt>
      <trkpt lat="48.39595" lon="2.41415">
        <ele>119.19999694824</ele>
        <time>2025-06-06T18:09:47.000Z</time>
      </trkpt>
      <trkpt lat="48.39594" lon="2.41423">
        <ele>119.19999694824</ele>
        <time>2025-06-06T18:09:48.000Z</time>
      </trkpt>
      <trkpt lat="48.39591" lon="2.41458">
        <ele>119.19999694824</ele>
        <time>2025-06-06T18:09:52.000Z</time>
      </trkpt>
      <trkpt lat="48.39591" lon="2.41515">
        <ele>119.40000152588</ele>
        <time>2025-06-06T18:09:58.000Z</time>
      </trkpt>
      <trkpt lat="48.39592" lon="2.41587">
        <ele>119.59999847412</ele>
        <time>2025-06-06T18:10:05.000Z</time>
      </trkpt>
      <trkpt lat="48.39594" lon="2.41657">
        <ele>120.40000152588</ele>
        <time>2025-06-06T18:10:13.000Z</time>
      </trkpt>
      <trkpt lat="48.39598" lon="2.41694">
        <ele>121.59999847412</ele>
        <time>2025-06-06T18:10:18.000Z</time>
      </trkpt>
      <trkpt lat="48.39599" lon="2.41701">
        <ele>121.80000305176</ele>
        <time>2025-06-06T18:10:19.000Z</time>
      </trkpt>
      <trkpt lat="48.39601" lon="2.4173">
        <ele>122.59999847412</ele>
        <time>2025-06-06T18:10:23.000Z</time>
      </trkpt>
      <trkpt lat="48.39603" lon="2.41758">
        <ele>123.40000152588</ele>
        <time>2025-06-06T18:10:27.000Z</time>
      </trkpt>
      <trkpt lat="48.39605" lon="2.41784">
        <ele>123.80000305176</ele>
        <time>2025-06-06T18:10:31.000Z</time>
      </trkpt>
      <trkpt lat="48.39606" lon="2.41804">
        <ele>124</ele>
        <time>2025-06-06T18:10:34.000Z</time>
      </trkpt>
      <trkpt lat="48.39611" lon="2.41839">
        <ele>124.80000305176</ele>
        <time>2025-06-06T18:10:39.000Z</time>
      </trkpt>
      <trkpt lat="48.39613" lon="2.41853">
        <ele>125.19999694824</ele>
        <time>2025-06-06T18:10:41.000Z</time>
      </trkpt>
      <trkpt lat="48.39625" lon="2.4192">
        <ele>125.40000152588</ele>
        <time>2025-06-06T18:10:50.000Z</time>
      </trkpt>
      <trkpt lat="48.39638" lon="2.42003">
        <ele>125.59999847412</ele>
        <time>2025-06-06T18:11:01.000Z</time>
      </trkpt>
      <trkpt lat="48.39641" lon="2.42018">
        <ele>125.80000305176</ele>
        <time>2025-06-06T18:11:03.000Z</time>
      </trkpt>
      <trkpt lat="48.39646" lon="2.4205">
        <ele>126</ele>
        <time>2025-06-06T18:11:07.000Z</time>
      </trkpt>
      <trkpt lat="48.39653" lon="2.42098">
        <ele>126.19999694824</ele>
        <time>2025-06-06T18:11:13.000Z</time>
      </trkpt>
      <trkpt lat="48.39663" lon="2.42173">
        <ele>126.19999694824</ele>
        <time>2025-06-06T18:11:22.000Z</time>
      </trkpt>
      <trkpt lat="48.39666" lon="2.42198">
        <ele>126</ele>
        <time>2025-06-06T18:11:25.000Z</time>
      </trkpt>
      <trkpt lat="48.39661" lon="2.4222">
        <ele>125.80000305176</ele>
        <time>2025-06-06T18:11:28.000Z</time>
      </trkpt>
      <trkpt lat="48.39658" lon="2.42226">
        <ele>125.80000305176</ele>
        <time>2025-06-06T18:11:29.000Z</time>
      </trkpt>
      <trkpt lat="48.39653" lon="2.4224">
        <ele>125.80000305176</ele>
        <time>2025-06-06T18:11:31.000Z</time>
      </trkpt>
      <trkpt lat="48.39652" lon="2.42255">
        <ele>125.80000305176</ele>
        <time>2025-06-06T18:11:33.000Z</time>
      </trkpt>
      <trkpt lat="48.39659" lon="2.42275">
        <ele>125.59999847412</ele>
        <time>2025-06-06T18:11:36.000Z</time>
      </trkpt>
      <trkpt lat="48.39674" lon="2.4228">
        <ele>125.40000152588</ele>
        <time>2025-06-06T18:11:39.000Z</time>
      </trkpt>
      <trkpt lat="48.39695" lon="2.42269">
        <ele>125.19999694824</ele>
        <time>2025-06-06T18:11:43.000Z</time>
      </trkpt>
      <trkpt lat="48.39704" lon="2.42261">
        <ele>125.19999694824</ele>
        <time>2025-06-06T18:11:45.000Z</time>
      </trkpt>
      <trkpt lat="48.3972" lon="2.42253">
        <ele>124.80000305176</ele>
        <time>2025-06-06T18:11:48.000Z</time>
      </trkpt>
      <trkpt lat="48.39726" lon="2.42252">
        <ele>124.59999847412</ele>
        <time>2025-06-06T18:11:49.000Z</time>
      </trkpt>
      <trkpt lat="48.39767" lon="2.42244">
        <ele>124.19999694824</ele>
        <time>2025-06-06T18:11:56.000Z</time>
      </trkpt>
      <trkpt lat="48.39808" lon="2.42233">
        <ele>124.19999694824</ele>
        <time>2025-06-06T18:12:03.000Z</time>
      </trkpt>
      <trkpt lat="48.39836" lon="2.42225">
        <ele>124</ele>
        <time>2025-06-06T18:12:08.000Z</time>
      </trkpt>
      <trkpt lat="48.39842" lon="2.42223">
        <ele>123.80000305176</ele>
        <time>2025-06-06T18:12:09.000Z</time>
      </trkpt>
      <trkpt lat="48.39888" lon="2.42202">
        <ele>123.19999694824</ele>
        <time>2025-06-06T18:12:17.000Z</time>
      </trkpt>
      <trkpt lat="48.39904" lon="2.4219">
        <ele>123</ele>
        <time>2025-06-06T18:12:20.000Z</time>
      </trkpt>
      <trkpt lat="48.39917" lon="2.42173">
        <ele>123</ele>
        <time>2025-06-06T18:12:23.000Z</time>
      </trkpt>
      <trkpt lat="48.39922" lon="2.42168">
        <ele>123</ele>
        <time>2025-06-06T18:12:24.000Z</time>
      </trkpt>
      <trkpt lat="48.3994" lon="2.42147">
        <ele>123</ele>
        <time>2025-06-06T18:12:28.000Z</time>
      </trkpt>
      <trkpt lat="48.39961" lon="2.42114">
        <ele>123</ele>
        <time>2025-06-06T18:12:34.000Z</time>
      </trkpt>
      <trkpt lat="48.39966" lon="2.42103">
        <ele>123</ele>
        <time>2025-06-06T18:12:36.000Z</time>
      </trkpt>
      <trkpt lat="48.40023" lon="2.4205">
        <ele>134.60000610352</ele>
        <time>2025-06-07T13:23:28.000Z</time>
      </trkpt>
      <trkpt lat="48.40027" lon="2.4202">
        <ele>134.60000610352</ele>
        <time>2025-06-07T13:23:34.000Z</time>
      </trkpt>
      <trkpt lat="48.40027" lon="2.41976">
        <ele>135.80000305176</ele>
        <time>2025-06-07T13:23:40.000Z</time>
      </trkpt>
      <trkpt lat="48.40028" lon="2.41968">
        <ele>135.39999389648</ele>
        <time>2025-06-07T13:23:41.000Z</time>
      </trkpt>
      <trkpt lat="48.4001" lon="2.41846">
        <ele>134.80000305176</ele>
        <time>2025-06-07T13:23:50.000Z</time>
      </trkpt>
      <trkpt lat="48.40003" lon="2.41817">
        <ele>134.80000305176</ele>
        <time>2025-06-07T13:23:51.000Z</time>
      </trkpt>
      <trkpt lat="48.39994" lon="2.41761">
        <ele>134.60000610352</ele>
        <time>2025-06-07T13:23:55.000Z</time>
      </trkpt>
      <trkpt lat="48.39995" lon="2.41727">
        <ele>134.39999389648</ele>
        <time>2025-06-07T13:23:59.000Z</time>
      </trkpt>
      <trkpt lat="48.40001" lon="2.41718">
        <ele>134.39999389648</ele>
        <time>2025-06-07T13:24:02.000Z</time>
      </trkpt>
      <trkpt lat="48.40012" lon="2.41718">
        <ele>134.60000610352</ele>
        <time>2025-06-07T13:24:05.000Z</time>
      </trkpt>
      <trkpt lat="48.40016" lon="2.41717">
        <ele>134.60000610352</ele>
        <time>2025-06-07T13:24:06.000Z</time>
      </trkpt>
      <trkpt lat="48.40045" lon="2.41718">
        <ele>134.60000610352</ele>
        <time>2025-06-07T13:24:12.000Z</time>
      </trkpt>
      <trkpt lat="48.40067" lon="2.41721">
        <ele>134.19999694824</ele>
        <time>2025-06-07T13:24:17.000Z</time>
      </trkpt>
      <trkpt lat="48.40095" lon="2.4172">
        <ele>133.80000305176</ele>
        <time>2025-06-07T13:24:23.000Z</time>
      </trkpt>
      <trkpt lat="48.40112" lon="2.41721">
        <ele>133.60000610352</ele>
        <time>2025-06-07T13:24:26.000Z</time>
      </trkpt>
      <trkpt lat="48.40127" lon="2.41721">
        <ele>132.60000610352</ele>
        <time>2025-06-07T13:24:29.000Z</time>
      </trkpt>
      <trkpt lat="48.40133" lon="2.4172">
        <ele>132.39999389648</ele>
        <time>2025-06-07T13:24:30.000Z</time>
      </trkpt>
      <trkpt lat="48.40161" lon="2.41721">
        <ele>131.80000305176</ele>
        <time>2025-06-07T13:24:35.000Z</time>
      </trkpt>
      <trkpt lat="48.40189" lon="2.4172">
        <ele>131.39999389648</ele>
        <time>2025-06-07T13:24:40.000Z</time>
      </trkpt>
      <trkpt lat="48.402" lon="2.41718">
        <ele>131.39999389648</ele>
        <time>2025-06-07T13:24:42.000Z</time>
      </trkpt>
      <trkpt lat="48.40236" lon="2.41708">
        <ele>131.39999389648</ele>
        <time>2025-06-07T13:24:49.000Z</time>
      </trkpt>
      <trkpt lat="48.40241" lon="2.41707">
        <ele>131.60000610352</ele>
        <time>2025-06-07T13:24:50.000Z</time>
      </trkpt>
      <trkpt lat="48.40263" lon="2.41703">
        <ele>131.80000305176</ele>
        <time>2025-06-07T13:24:55.000Z</time>
      </trkpt>
      <trkpt lat="48.40278" lon="2.41705">
        <ele>131.80000305176</ele>
        <time>2025-06-07T13:24:58.000Z</time>
      </trkpt>
      <trkpt lat="48.40288" lon="2.41705">
        <ele>131.80000305176</ele>
        <time>2025-06-07T13:25:00.000Z</time>
      </trkpt>
      <trkpt lat="48.40305" lon="2.41697">
        <ele>132</ele>
        <time>2025-06-07T13:25:04.000Z</time>
      </trkpt>
      <trkpt lat="48.40308" lon="2.41693">
        <ele>132</ele>
        <time>2025-06-07T13:25:05.000Z</time>
      </trkpt>
      <trkpt lat="48.40311" lon="2.41682">
        <ele>132.19999694824</ele>
        <time>2025-06-07T13:25:07.000Z</time>
      </trkpt>
      <trkpt lat="48.40315" lon="2.41665">
        <ele>132.39999389648</ele>
        <time>2025-06-07T13:25:10.000Z</time>
      </trkpt>
      <trkpt lat="48.40315" lon="2.41662">
        <ele>132.60000610352</ele>
        <time>2025-06-07T13:25:11.000Z</time>
      </trkpt>
      <trkpt lat="48.40314" lon="2.41658">
        <ele>132.80000305176</ele>
        <time>2025-06-07T13:25:12.000Z</time>
      </trkpt>
      <trkpt lat="48.40305" lon="2.41641">
        <ele>133</ele>
        <time>2025-06-07T13:25:16.000Z</time>
      </trkpt>
      <trkpt lat="48.40304" lon="2.41634">
        <ele>133</ele>
        <time>2025-06-07T13:25:17.000Z</time>
      </trkpt>
      <trkpt lat="48.40296" lon="2.41607">
        <ele>133</ele>
        <time>2025-06-07T13:25:22.000Z</time>
      </trkpt>
      <trkpt lat="48.40293" lon="2.41589">
        <ele>132.80000305176</ele>
        <time>2025-06-07T13:25:25.000Z</time>
      </trkpt>
      <trkpt lat="48.40293" lon="2.41577">
        <ele>132.60000610352</ele>
        <time>2025-06-07T13:25:27.000Z</time>
      </trkpt>
      <trkpt lat="48.40288" lon="2.41559">
        <ele>132.19999694824</ele>
        <time>2025-06-07T13:25:30.000Z</time>
      </trkpt>
      <trkpt lat="48.40284" lon="2.41544">
        <ele>132.19999694824</ele>
        <time>2025-06-07T13:25:32.000Z</time>
      </trkpt>
      <trkpt lat="48.40279" lon="2.41525">
        <ele>131.60000610352</ele>
        <time>2025-06-07T13:25:35.000Z</time>
      </trkpt>
      <trkpt lat="48.4028" lon="2.41511">
        <ele>131.39999389648</ele>
        <time>2025-06-07T13:25:37.000Z</time>
      </trkpt>
      <trkpt lat="48.40282" lon="2.41503">
        <ele>131.39999389648</ele>
        <time>2025-06-07T13:25:38.000Z</time>
      </trkpt>
      <trkpt lat="48.40285" lon="2.41478">
        <ele>131.19999694824</ele>
        <time>2025-06-07T13:25:41.000Z</time>
      </trkpt>
      <trkpt lat="48.40278" lon="2.41457">
        <ele>131.19999694824</ele>
        <time>2025-06-07T13:25:45.000Z</time>
      </trkpt>
      <trkpt lat="48.40275" lon="2.41454">
        <ele>131.19999694824</ele>
        <time>2025-06-07T13:25:46.000Z</time>
      </trkpt>
      <trkpt lat="48.40268" lon="2.41429">
        <ele>131.19999694824</ele>
        <time>2025-06-07T13:25:50.000Z</time>
      </trkpt>
      <trkpt lat="48.40259" lon="2.4138">
        <ele>131.19999694824</ele>
        <time>2025-06-07T13:25:57.000Z</time>
      </trkpt>
      <trkpt lat="48.40257" lon="2.41367">
        <ele>131.19999694824</ele>
        <time>2025-06-07T13:25:59.000Z</time>
      </trkpt>
      <trkpt lat="48.40259" lon="2.41357">
        <ele>131.19999694824</ele>
        <time>2025-06-07T13:26:01.000Z</time>
      </trkpt>
      <trkpt lat="48.40257" lon="2.41336">
        <ele>131.19999694824</ele>
        <time>2025-06-07T13:26:05.000Z</time>
      </trkpt>
      <trkpt lat="48.4026" lon="2.41318">
        <ele>131.19999694824</ele>
        <time>2025-06-07T13:26:08.000Z</time>
      </trkpt>
      <trkpt lat="48.40261" lon="2.41311">
        <ele>131.19999694824</ele>
        <time>2025-06-07T13:26:09.000Z</time>
      </trkpt>
      <trkpt lat="48.40271" lon="2.41279">
        <ele>131.19999694824</ele>
        <time>2025-06-07T13:26:15.000Z</time>
      </trkpt>
      <trkpt lat="48.40269" lon="2.41258">
        <ele>131</ele>
        <time>2025-06-07T13:26:19.000Z</time>
      </trkpt>
      <trkpt lat="48.40274" lon="2.41243">
        <ele>130.80000305176</ele>
        <time>2025-06-07T13:26:23.000Z</time>
      </trkpt>
      <trkpt lat="48.40275" lon="2.41243">
        <ele>130.80000305176</ele>
        <time>2025-06-07T13:26:24.000Z</time>
      </trkpt>
      <trkpt lat="48.4028" lon="2.41239">
        <ele>130.60000610352</ele>
        <time>2025-06-07T13:26:28.000Z</time>
      </trkpt>
      <trkpt lat="48.40283" lon="2.41238">
        <ele>130.39999389648</ele>
        <time>2025-06-07T13:26:31.000Z</time>
      </trkpt>
      <trkpt lat="48.40289" lon="2.41233">
        <ele>129.60000610352</ele>
        <time>2025-06-07T13:26:35.000Z</time>
      </trkpt>
      <trkpt lat="48.40291" lon="2.41226">
        <ele>128.39999389648</ele>
        <time>2025-06-07T13:26:37.000Z</time>
      </trkpt>
      <trkpt lat="48.40292" lon="2.41218">
        <ele>127</ele>
        <time>2025-06-07T13:26:39.000Z</time>
      </trkpt>
      <trkpt lat="48.40292" lon="2.41214">
        <ele>126.19999694824</ele>
        <time>2025-06-07T13:26:40.000Z</time>
      </trkpt>
      <trkpt lat="48.40291" lon="2.4121">
        <ele>125.59999847412</ele>
        <time>2025-06-07T13:26:41.000Z</time>
      </trkpt>
      <trkpt lat="48.40291" lon="2.41203">
        <ele>124</ele>
        <time>2025-06-07T13:26:43.000Z</time>
      </trkpt>
      <trkpt lat="48.40291" lon="2.412">
        <ele>122.80000305176</ele>
        <time>2025-06-07T13:26:44.000Z</time>
      </trkpt>
      <trkpt lat="48.4029" lon="2.41198">
        <ele>121.59999847412</ele>
        <time>2025-06-07T13:26:45.000Z</time>
      </trkpt>
      <trkpt lat="48.40287" lon="2.41191">
        <ele>119.80000305176</ele>
        <time>2025-06-07T13:26:47.000Z</time>
      </trkpt>
      <trkpt lat="48.40285" lon="2.41187">
        <ele>118.80000305176</ele>
        <time>2025-06-07T13:26:48.000Z</time>
      </trkpt>
      <trkpt lat="48.40283" lon="2.41181">
        <ele>117.19999694824</ele>
        <time>2025-06-07T13:26:50.000Z</time>
      </trkpt>
      <trkpt lat="48.40274" lon="2.41168">
        <ele>115.80000305176</ele>
        <time>2025-06-07T13:26:54.000Z</time>
      </trkpt>
      <trkpt lat="48.40271" lon="2.41162">
        <ele>115</ele>
        <time>2025-06-07T13:26:55.000Z</time>
      </trkpt>
      <trkpt lat="48.40269" lon="2.41159">
        <ele>114.19999694824</ele>
        <time>2025-06-07T13:26:56.000Z</time>
      </trkpt>
      <trkpt lat="48.40265" lon="2.41153">
        <ele>112.80000305176</ele>
        <time>2025-06-07T13:26:58.000Z</time>
      </trkpt>
      <trkpt lat="48.40263" lon="2.41153">
        <ele>111.59999847412</ele>
        <time>2025-06-07T13:26:59.000Z</time>
      </trkpt>
      <trkpt lat="48.40262" lon="2.41153">
        <ele>110.59999847412</ele>
        <time>2025-06-07T13:27:00.000Z</time>
      </trkpt>
      <trkpt lat="48.40255" lon="2.41154">
        <ele>109.40000152588</ele>
        <time>2025-06-07T13:27:03.000Z</time>
      </trkpt>
      <trkpt lat="48.40249" lon="2.41155">
        <ele>108.59999847412</ele>
        <time>2025-06-07T13:27:05.000Z</time>
      </trkpt>
      <trkpt lat="48.4024" lon="2.41166">
        <ele>107.80000305176</ele>
        <time>2025-06-07T13:27:09.000Z</time>
      </trkpt>
      <trkpt lat="48.40237" lon="2.41173">
        <ele>107.40000152588</ele>
        <time>2025-06-07T13:27:11.000Z</time>
      </trkpt>
      <trkpt lat="48.4023" lon="2.41176">
        <ele>107</ele>
        <time>2025-06-07T13:27:14.000Z</time>
      </trkpt>
      <trkpt lat="48.40218" lon="2.41184">
        <ele>106.59999847412</ele>
        <time>2025-06-07T13:27:17.000Z</time>
      </trkpt>
      <trkpt lat="48.40213" lon="2.41185">
        <ele>106.59999847412</ele>
        <time>2025-06-07T13:27:18.000Z</time>
      </trkpt>
      <trkpt lat="48.40208" lon="2.41185">
        <ele>106.19999694824</ele>
        <time>2025-06-07T13:27:19.000Z</time>
      </trkpt>
      <trkpt lat="48.40191" lon="2.41175">
        <ele>105.80000305176</ele>
        <time>2025-06-07T13:27:22.000Z</time>
      </trkpt>
      <trkpt lat="48.40183" lon="2.41174">
        <ele>105.59999847412</ele>
        <time>2025-06-07T13:27:24.000Z</time>
      </trkpt>
      <trkpt lat="48.40178" lon="2.41175">
        <ele>105</ele>
        <time>2025-06-07T13:27:25.000Z</time>
      </trkpt>
      <trkpt lat="48.40172" lon="2.41173">
        <ele>103.59999847412</ele>
        <time>2025-06-07T13:27:26.000Z</time>
      </trkpt>
      <trkpt lat="48.40166" lon="2.41172">
        <ele>103.40000152588</ele>
        <time>2025-06-07T13:27:27.000Z</time>
      </trkpt>
      <trkpt lat="48.40158" lon="2.41163">
        <ele>102.59999847412</ele>
        <time>2025-06-07T13:27:29.000Z</time>
      </trkpt>
      <trkpt lat="48.40154" lon="2.41151">
        <ele>101.19999694824</ele>
        <time>2025-06-07T13:27:30.000Z</time>
      </trkpt>
      <trkpt lat="48.40151" lon="2.41142">
        <ele>100</ele>
        <time>2025-06-07T13:27:31.000Z</time>
      </trkpt>
      <trkpt lat="48.40148" lon="2.41134">
        <ele>98.800003051758</ele>
        <time>2025-06-07T13:27:32.000Z</time>
      </trkpt>
      <trkpt lat="48.40146" lon="2.41127">
        <ele>97.800003051758</ele>
        <time>2025-06-07T13:27:33.000Z</time>
      </trkpt>
      <trkpt lat="48.40147" lon="2.41118">
        <ele>96</ele>
        <time>2025-06-07T13:27:35.000Z</time>
      </trkpt>
      <trkpt lat="48.4015" lon="2.41111">
        <ele>95</ele>
        <time>2025-06-07T13:27:37.000Z</time>
      </trkpt>
      <trkpt lat="48.40155" lon="2.411">
        <ele>93.199996948242</ele>
        <time>2025-06-07T13:27:39.000Z</time>
      </trkpt>
      <trkpt lat="48.40158" lon="2.41095">
        <ele>92</ele>
        <time>2025-06-07T13:27:40.000Z</time>
      </trkpt>
      <trkpt lat="48.40167" lon="2.4109">
        <ele>90.800003051758</ele>
        <time>2025-06-07T13:27:42.000Z</time>
      </trkpt>
      <trkpt lat="48.40171" lon="2.41089">
        <ele>90.199996948242</ele>
        <time>2025-06-07T13:27:43.000Z</time>
      </trkpt>
      <trkpt lat="48.40175" lon="2.41089">
        <ele>89.599998474121</ele>
        <time>2025-06-07T13:27:44.000Z</time>
      </trkpt>
      <trkpt lat="48.40184" lon="2.41082">
        <ele>88.400001525879</ele>
        <time>2025-06-07T13:27:47.000Z</time>
      </trkpt>
      <trkpt lat="48.40188" lon="2.41078">
        <ele>88</ele>
        <time>2025-06-07T13:27:48.000Z</time>
      </trkpt>
      <trkpt lat="48.40205" lon="2.41066">
        <ele>87.199996948242</ele>
        <time>2025-06-07T13:27:52.000Z</time>
      </trkpt>
      <trkpt lat="48.40214" lon="2.4106">
        <ele>87.199996948242</ele>
        <time>2025-06-07T13:27:54.000Z</time>
      </trkpt>
      <trkpt lat="48.40231" lon="2.41051">
        <ele>86.800003051758</ele>
        <time>2025-06-07T13:27:58.000Z</time>
      </trkpt>
      <trkpt lat="48.40249" lon="2.41041">
        <ele>86.800003051758</ele>
        <time>2025-06-07T13:28:03.000Z</time>
      </trkpt>
      <trkpt lat="48.40256" lon="2.41028">
        <ele>86.800003051758</ele>
        <time>2025-06-07T13:28:05.000Z</time>
      </trkpt>
      <trkpt lat="48.40268" lon="2.41019">
        <ele>86.400001525879</ele>
        <time>2025-06-07T13:28:07.000Z</time>
      </trkpt>
      <trkpt lat="48.40282" lon="2.41005">
        <ele>86.199996948242</ele>
        <time>2025-06-07T13:28:10.000Z</time>
      </trkpt>
      <trkpt lat="48.40291" lon="2.41002">
        <ele>86.199996948242</ele>
        <time>2025-06-07T13:28:12.000Z</time>
      </trkpt>
      <trkpt lat="48.40295" lon="2.41001">
        <ele>86</ele>
        <time>2025-06-07T13:28:13.000Z</time>
      </trkpt>
      <trkpt lat="48.40308" lon="2.41">
        <ele>85.400001525879</ele>
        <time>2025-06-07T13:28:17.000Z</time>
      </trkpt>
      <trkpt lat="48.40323" lon="2.41004">
        <ele>85.400001525879</ele>
        <time>2025-06-07T13:28:22.000Z</time>
      </trkpt>
      <trkpt lat="48.40336" lon="2.41">
        <ele>85.400001525879</ele>
        <time>2025-06-07T13:28:27.000Z</time>
      </trkpt>
      <trkpt lat="48.4036" lon="2.41003">
        <ele>85.199996948242</ele>
        <time>2025-06-07T13:28:33.000Z</time>
      </trkpt>
      <trkpt lat="48.40364" lon="2.41004">
        <ele>85</ele>
        <time>2025-06-07T13:28:34.000Z</time>
      </trkpt>
      <trkpt lat="48.4038" lon="2.41017">
        <ele>83.800003051758</ele>
        <time>2025-06-07T13:28:38.000Z</time>
      </trkpt>
      <trkpt lat="48.40386" lon="2.41021">
        <ele>82.400001525879</ele>
        <time>2025-06-07T13:28:40.000Z</time>
      </trkpt>
      <trkpt lat="48.40392" lon="2.41026">
        <ele>81.199996948242</ele>
        <time>2025-06-07T13:28:42.000Z</time>
      </trkpt>
      <trkpt lat="48.40395" lon="2.41028">
        <ele>81</ele>
        <time>2025-06-07T13:28:43.000Z</time>
      </trkpt>
      <trkpt lat="48.40409" lon="2.41039">
        <ele>80.199996948242</ele>
        <time>2025-06-07T13:28:47.000Z</time>
      </trkpt>
      <trkpt lat="48.40413" lon="2.41041">
        <ele>80</ele>
        <time>2025-06-07T13:28:48.000Z</time>
      </trkpt>
      <trkpt lat="48.40418" lon="2.4104">
        <ele>80</ele>
        <time>2025-06-07T13:28:49.000Z</time>
      </trkpt>
      <trkpt lat="48.40429" lon="2.4104">
        <ele>79.800003051758</ele>
        <time>2025-06-07T13:28:52.000Z</time>
      </trkpt>
      <trkpt lat="48.40432" lon="2.41043">
        <ele>79.599998474121</ele>
        <time>2025-06-07T13:28:53.000Z</time>
      </trkpt>
      <trkpt lat="48.40435" lon="2.41052">
        <ele>79.599998474121</ele>
        <time>2025-06-07T13:28:55.000Z</time>
      </trkpt>
      <trkpt lat="48.40437" lon="2.41065">
        <ele>79.400001525879</ele>
        <time>2025-06-07T13:28:58.000Z</time>
      </trkpt>
      <trkpt lat="48.40438" lon="2.41072">
        <ele>79.400001525879</ele>
        <time>2025-06-07T13:29:00.000Z</time>
      </trkpt>
      <trkpt lat="48.40441" lon="2.41093">
        <ele>79.400001525879</ele>
        <time>2025-06-07T13:29:06.000Z</time>
      </trkpt>
      <trkpt lat="48.40442" lon="2.41108">
        <ele>80.199996948242</ele>
        <time>2025-06-07T13:29:12.000Z</time>
      </trkpt>
      <trkpt lat="48.40444" lon="2.41129">
        <ele>81.400001525879</ele>
        <time>2025-06-07T13:29:18.000Z</time>
      </trkpt>
      <trkpt lat="48.40444" lon="2.41143">
        <ele>82.800003051758</ele>
        <time>2025-06-07T13:29:21.000Z</time>
      </trkpt>
      <trkpt lat="48.40441" lon="2.4116">
        <ele>84</ele>
        <time>2025-06-07T13:29:25.000Z</time>
      </trkpt>
      <trkpt lat="48.40438" lon="2.41196">
        <ele>84.800003051758</ele>
        <time>2025-06-07T13:29:33.000Z</time>
      </trkpt>
      <trkpt lat="48.40438" lon="2.41204">
        <ele>85</ele>
        <time>2025-06-07T13:29:35.000Z</time>
      </trkpt>
      <trkpt lat="48.40435" lon="2.41212">
        <ele>85.400001525879</ele>
        <time>2025-06-07T13:29:38.000Z</time>
      </trkpt>
      <trkpt lat="48.40434" lon="2.41212">
        <ele>85.599998474121</ele>
        <time>2025-06-07T13:29:39.000Z</time>
      </trkpt>
      <trkpt lat="48.40429" lon="2.41206">
        <ele>86</ele>
        <time>2025-06-07T13:29:43.000Z</time>
      </trkpt>
      <trkpt lat="48.40427" lon="2.41202">
        <ele>86.199996948242</ele>
        <time>2025-06-07T13:29:45.000Z</time>
      </trkpt>
      <trkpt lat="48.40424" lon="2.41193">
        <ele>86.199996948242</ele>
        <time>2025-06-07T13:29:49.000Z</time>
      </trkpt>
      <trkpt lat="48.4042" lon="2.41188">
        <ele>87.400001525879</ele>
        <time>2025-06-07T13:29:55.000Z</time>
      </trkpt>
      <trkpt lat="48.40418" lon="2.41185">
        <ele>88.599998474121</ele>
        <time>2025-06-07T13:29:58.000Z</time>
      </trkpt>
      <trkpt lat="48.40417" lon="2.41181">
        <ele>89.199996948242</ele>
        <time>2025-06-07T13:30:01.000Z</time>
      </trkpt>
      <trkpt lat="48.40415" lon="2.41182">
        <ele>89.400001525879</ele>
        <time>2025-06-07T13:30:04.000Z</time>
      </trkpt>
      <trkpt lat="48.40414" lon="2.41184">
        <ele>89.599998474121</ele>
        <time>2025-06-07T13:30:05.000Z</time>
      </trkpt>
      <trkpt lat="48.40413" lon="2.41185">
        <ele>90</ele>
        <time>2025-06-07T13:30:06.000Z</time>
      </trkpt>
      <trkpt lat="48.40411" lon="2.41189">
        <ele>90.599998474121</ele>
        <time>2025-06-07T13:30:08.000Z</time>
      </trkpt>
      <trkpt lat="48.4041" lon="2.41198">
        <ele>91.599998474121</ele>
        <time>2025-06-07T13:30:12.000Z</time>
      </trkpt>
      <trkpt lat="48.40408" lon="2.41202">
        <ele>91.800003051758</ele>
        <time>2025-06-07T13:30:14.000Z</time>
      </trkpt>
      <trkpt lat="48.40404" lon="2.41209">
        <ele>92.800003051758</ele>
        <time>2025-06-07T13:30:18.000Z</time>
      </trkpt>
      <trkpt lat="48.40402" lon="2.41234">
        <ele>92.800003051758</ele>
        <time>2025-06-07T13:30:23.000Z</time>
      </trkpt>
      <trkpt lat="48.40392" lon="2.41265">
        <ele>92.199996948242</ele>
        <time>2025-06-07T13:30:28.000Z</time>
      </trkpt>
      <trkpt lat="48.40393" lon="2.41287">
        <ele>91.599998474121</ele>
        <time>2025-06-07T13:30:32.000Z</time>
      </trkpt>
      <trkpt lat="48.40401" lon="2.41322">
        <ele>91.199996948242</ele>
        <time>2025-06-07T13:30:39.000Z</time>
      </trkpt>
      <trkpt lat="48.40403" lon="2.41325">
        <ele>90.800003051758</ele>
        <time>2025-06-07T13:30:41.000Z</time>
      </trkpt>
      <trkpt lat="48.40404" lon="2.41326">
        <ele>90.199996948242</ele>
        <time>2025-06-07T13:30:44.000Z</time>
      </trkpt>
      <trkpt lat="48.40408" lon="2.41326">
        <ele>89.800003051758</ele>
        <time>2025-06-07T13:30:47.000Z</time>
      </trkpt>
      <trkpt lat="48.40405" lon="2.41334">
        <ele>89.599998474121</ele>
        <time>2025-06-07T13:30:51.000Z</time>
      </trkpt>
      <trkpt lat="48.40403" lon="2.41341">
        <ele>89.599998474121</ele>
        <time>2025-06-07T13:30:54.000Z</time>
      </trkpt>
      <trkpt lat="48.4041" lon="2.4135">
        <ele>89.599998474121</ele>
        <time>2025-06-07T13:30:57.000Z</time>
      </trkpt>
      <trkpt lat="48.40415" lon="2.41357">
        <ele>89.599998474121</ele>
        <time>2025-06-07T13:30:59.000Z</time>
      </trkpt>
      <trkpt lat="48.40421" lon="2.41357">
        <ele>89.400001525879</ele>
        <time>2025-06-07T13:31:01.000Z</time>
      </trkpt>
      <trkpt lat="48.40424" lon="2.41356">
        <ele>89</ele>
        <time>2025-06-07T13:31:02.000Z</time>
      </trkpt>
      <trkpt lat="48.40426" lon="2.41355">
        <ele>88.599998474121</ele>
        <time>2025-06-07T13:31:03.000Z</time>
      </trkpt>
      <trkpt lat="48.40428" lon="2.41351">
        <ele>87.400001525879</ele>
        <time>2025-06-07T13:31:05.000Z</time>
      </trkpt>
      <trkpt lat="48.4043" lon="2.41349">
        <ele>86.800003051758</ele>
        <time>2025-06-07T13:31:06.000Z</time>
      </trkpt>
      <trkpt lat="48.40431" lon="2.41347">
        <ele>86.599998474121</ele>
        <time>2025-06-07T13:31:07.000Z</time>
      </trkpt>
      <trkpt lat="48.40432" lon="2.41343">
        <ele>86.400001525879</ele>
        <time>2025-06-07T13:31:08.000Z</time>
      </trkpt>
      <trkpt lat="48.40435" lon="2.41348">
        <ele>86</ele>
        <time>2025-06-07T13:31:10.000Z</time>
      </trkpt>
      <trkpt lat="48.40436" lon="2.41352">
        <ele>86</ele>
        <time>2025-06-07T13:31:11.000Z</time>
      </trkpt>
      <trkpt lat="48.40442" lon="2.41382">
        <ele>84.800003051758</ele>
        <time>2025-06-07T13:31:17.000Z</time>
      </trkpt>
      <trkpt lat="48.40444" lon="2.41393">
        <ele>84.199996948242</ele>
        <time>2025-06-07T13:31:19.000Z</time>
      </trkpt>
      <trkpt lat="48.40451" lon="2.41415">
        <ele>84.199996948242</ele>
        <time>2025-06-07T13:31:24.000Z</time>
      </trkpt>
      <trkpt lat="48.40453" lon="2.41441">
        <ele>85.400001525879</ele>
        <time>2025-06-07T13:31:32.000Z</time>
      </trkpt>
      <trkpt lat="48.40427" lon="2.41534">
        <ele>91.400001525879</ele>
        <time>2025-06-07T13:31:56.000Z</time>
      </trkpt>
      <trkpt lat="48.40414" lon="2.41634">
        <ele>98</ele>
        <time>2025-06-07T13:32:28.000Z</time>
      </trkpt>
      <trkpt lat="48.40407" lon="2.41676">
        <ele>102.59999847412</ele>
        <time>2025-06-07T13:32:45.000Z</time>
      </trkpt>
      <trkpt lat="48.40399" lon="2.41729">
        <ele>110.80000305176</ele>
        <time>2025-06-07T13:33:17.000Z</time>
      </trkpt>
      <trkpt lat="48.40399" lon="2.41731">
        <ele>113</ele>
        <time>2025-06-07T13:33:24.000Z</time>
      </trkpt>
      <trkpt lat="48.40397" lon="2.41736">
        <ele>119.80000305176</ele>
        <time>2025-06-07T13:33:56.000Z</time>
      </trkpt>
      <trkpt lat="48.40397" lon="2.41738">
        <ele>122</ele>
        <time>2025-06-07T13:34:06.000Z</time>
      </trkpt>
      <trkpt lat="48.40395" lon="2.41743">
        <ele>125.80000305176</ele>
        <time>2025-06-07T13:34:21.000Z</time>
      </trkpt>
      <trkpt lat="48.40395" lon="2.41749">
        <ele>126.59999847412</ele>
        <time>2025-06-07T13:34:24.000Z</time>
      </trkpt>
      <trkpt lat="48.40395" lon="2.41755">
        <ele>127.40000152588</ele>
        <time>2025-06-07T13:34:27.000Z</time>
      </trkpt>
      <trkpt lat="48.40396" lon="2.4176">
        <ele>127.80000305176</ele>
        <time>2025-06-07T13:34:29.000Z</time>
      </trkpt>
      <trkpt lat="48.40393" lon="2.41772">
        <ele>128.80000305176</ele>
        <time>2025-06-07T13:34:32.000Z</time>
      </trkpt>
      <trkpt lat="48.40389" lon="2.41783">
        <ele>129.19999694824</ele>
        <time>2025-06-07T13:34:34.000Z</time>
      </trkpt>
      <trkpt lat="48.40393" lon="2.41811">
        <ele>129.80000305176</ele>
        <time>2025-06-07T13:34:39.000Z</time>
      </trkpt>
      <trkpt lat="48.40396" lon="2.4182">
        <ele>130</ele>
        <time>2025-06-07T13:34:41.000Z</time>
      </trkpt>
      <trkpt lat="48.40397" lon="2.41828">
        <ele>131</ele>
        <time>2025-06-07T13:34:44.000Z</time>
      </trkpt>
      <trkpt lat="48.40395" lon="2.41832">
        <ele>131.60000610352</ele>
        <time>2025-06-07T13:34:48.000Z</time>
      </trkpt>
      <trkpt lat="48.40386" lon="2.41839">
        <ele>132.39999389648</ele>
        <time>2025-06-07T13:34:54.000Z</time>
      </trkpt>
      <trkpt lat="48.40385" lon="2.4184">
        <ele>132.19999694824</ele>
        <time>2025-06-07T13:34:55.000Z</time>
      </trkpt>
      <trkpt lat="48.40386" lon="2.41845">
        <ele>132.39999389648</ele>
        <time>2025-06-07T13:35:01.000Z</time>
      </trkpt>
      <trkpt lat="48.40388" lon="2.41853">
        <ele>132.80000305176</ele>
        <time>2025-06-07T13:35:10.000Z</time>
      </trkpt>
      <trkpt lat="48.40389" lon="2.41853">
        <ele>132.80000305176</ele>
        <time>2025-06-07T13:35:18.000Z</time>
      </trkpt>
      <trkpt lat="48.40385" lon="2.41847">
        <ele>133</ele>
        <time>2025-06-07T13:35:26.000Z</time>
      </trkpt>
      <trkpt lat="48.40385" lon="2.41848">
        <ele>132.80000305176</ele>
        <time>2025-06-07T13:35:35.000Z</time>
      </trkpt>
      <trkpt lat="48.40384" lon="2.41851">
        <ele>132.19999694824</ele>
        <time>2025-06-07T13:35:45.000Z</time>
      </trkpt>
      <trkpt lat="48.40382" lon="2.41859">
        <ele>132.19999694824</ele>
        <time>2025-06-07T13:35:51.000Z</time>
      </trkpt>
      <trkpt lat="48.40377" lon="2.41869">
        <ele>132.19999694824</ele>
        <time>2025-06-07T13:35:57.000Z</time>
      </trkpt>
      <trkpt lat="48.40378" lon="2.41874">
        <ele>132.80000305176</ele>
        <time>2025-06-07T13:36:05.000Z</time>
      </trkpt>
      <trkpt lat="48.40377" lon="2.41876">
        <ele>133</ele>
        <time>2025-06-07T13:36:14.000Z</time>
      </trkpt>
      <trkpt lat="48.40376" lon="2.41875">
        <ele>133.19999694824</ele>
        <time>2025-06-07T13:36:23.000Z</time>
      </trkpt>
      <trkpt lat="48.40375" lon="2.41886">
        <ele>133.80000305176</ele>
        <time>2025-06-07T13:36:29.000Z</time>
      </trkpt>
      <trkpt lat="48.40374" lon="2.41888">
        <ele>134</ele>
        <time>2025-06-07T13:36:30.000Z</time>
      </trkpt>
      <trkpt lat="48.40366" lon="2.41908">
        <ele>134.19999694824</ele>
        <time>2025-06-07T13:36:38.000Z</time>
      </trkpt>
      <trkpt lat="48.40362" lon="2.4192">
        <ele>134.39999389648</ele>
        <time>2025-06-07T13:36:42.000Z</time>
      </trkpt>
      <trkpt lat="48.40362" lon="2.41923">
        <ele>134.39999389648</ele>
        <time>2025-06-07T13:36:43.000Z</time>
      </trkpt>
      <trkpt lat="48.40367" lon="2.41932">
        <ele>134.60000610352</ele>
        <time>2025-06-07T13:36:46.000Z</time>
      </trkpt>
      <trkpt lat="48.40369" lon="2.41935">
        <ele>134.60000610352</ele>
        <time>2025-06-07T13:36:47.000Z</time>
      </trkpt>
      <trkpt lat="48.40386" lon="2.41954">
        <ele>134.60000610352</ele>
        <time>2025-06-07T13:36:53.000Z</time>
      </trkpt>
      <trkpt lat="48.40407" lon="2.41981">
        <ele>134.60000610352</ele>
        <time>2025-06-07T13:36:59.000Z</time>
      </trkpt>
      <trkpt lat="48.40419" lon="2.41997">
        <ele>134.60000610352</ele>
        <time>2025-06-07T13:37:03.000Z</time>
      </trkpt>
      <trkpt lat="48.40423" lon="2.41999">
        <ele>134.60000610352</ele>
        <time>2025-06-07T13:37:04.000Z</time>
      </trkpt>
      <trkpt lat="48.40448" lon="2.4201">
        <ele>134.80000305176</ele>
        <time>2025-06-07T13:37:10.000Z</time>
      </trkpt>
      <trkpt lat="48.40459" lon="2.42014">
        <ele>134.80000305176</ele>
        <time>2025-06-07T13:37:12.000Z</time>
      </trkpt>
      <trkpt lat="48.40473" lon="2.42022">
        <ele>134.80000305176</ele>
        <time>2025-06-07T13:37:15.000Z</time>
      </trkpt>
      <trkpt lat="48.40478" lon="2.42023">
        <ele>134.80000305176</ele>
        <time>2025-06-07T13:37:16.000Z</time>
      </trkpt>
      <trkpt lat="48.40499" lon="2.42014">
        <ele>134.60000610352</ele>
        <time>2025-06-07T13:37:20.000Z</time>
      </trkpt>
      <trkpt lat="48.40504" lon="2.42012">
        <ele>134.60000610352</ele>
        <time>2025-06-07T13:37:21.000Z</time>
      </trkpt>
      <trkpt lat="48.40517" lon="2.42019">
        <ele>134.39999389648</ele>
        <time>2025-06-07T13:37:23.000Z</time>
      </trkpt>
      <trkpt lat="48.40526" lon="2.42041">
        <ele>134</ele>
        <time>2025-06-07T13:37:26.000Z</time>
      </trkpt>
      <trkpt lat="48.40531" lon="2.42063">
        <ele>134</ele>
        <time>2025-06-07T13:37:29.000Z</time>
      </trkpt>
      <trkpt lat="48.40536" lon="2.42078">
        <ele>133.80000305176</ele>
        <time>2025-06-07T13:37:31.000Z</time>
      </trkpt>
      <trkpt lat="48.4054" lon="2.42103">
        <ele>133.80000305176</ele>
        <time>2025-06-07T13:37:34.000Z</time>
      </trkpt>
      <trkpt lat="48.40541" lon="2.42127">
        <ele>133.60000610352</ele>
        <time>2025-06-07T13:37:37.000Z</time>
      </trkpt>
      <trkpt lat="48.40542" lon="2.42159">
        <ele>133.39999389648</ele>
        <time>2025-06-07T13:37:41.000Z</time>
      </trkpt>
      <trkpt lat="48.40542" lon="2.42166">
        <ele>133.39999389648</ele>
        <time>2025-06-07T13:37:42.000Z</time>
      </trkpt>
      <trkpt lat="48.40551" lon="2.42191">
        <ele>133.19999694824</ele>
        <time>2025-06-07T13:37:46.000Z</time>
      </trkpt>
      <trkpt lat="48.40554" lon="2.42198">
        <ele>133.19999694824</ele>
        <time>2025-06-07T13:37:47.000Z</time>
      </trkpt>
      <trkpt lat="48.40566" lon="2.42225">
        <ele>133</ele>
        <time>2025-06-07T13:37:51.000Z</time>
      </trkpt>
      <trkpt lat="48.40569" lon="2.42233">
        <ele>133</ele>
        <time>2025-06-07T13:37:52.000Z</time>
      </trkpt>
      <trkpt lat="48.40588" lon="2.42275">
        <ele>132.80000305176</ele>
        <time>2025-06-07T13:37:58.000Z</time>
      </trkpt>
      <trkpt lat="48.40592" lon="2.42281">
        <ele>132.80000305176</ele>
        <time>2025-06-07T13:37:59.000Z</time>
      </trkpt>
      <trkpt lat="48.40606" lon="2.42292">
        <ele>132.80000305176</ele>
        <time>2025-06-07T13:38:02.000Z</time>
      </trkpt>
      <trkpt lat="48.40625" lon="2.42294">
        <ele>132.80000305176</ele>
        <time>2025-06-07T13:38:05.000Z</time>
      </trkpt>
      <trkpt lat="48.40633" lon="2.42295">
        <ele>132.80000305176</ele>
        <time>2025-06-07T13:38:06.000Z</time>
      </trkpt>
      <trkpt lat="48.40641" lon="2.42293">
        <ele>132.80000305176</ele>
        <time>2025-06-07T13:38:07.000Z</time>
      </trkpt>
      <trkpt lat="48.40658" lon="2.42279">
        <ele>133</ele>
        <time>2025-06-07T13:38:10.000Z</time>
      </trkpt>
      <trkpt lat="48.40664" lon="2.42277">
        <ele>133</ele>
        <time>2025-06-07T13:38:11.000Z</time>
      </trkpt>
      <trkpt lat="48.40671" lon="2.42279">
        <ele>133</ele>
        <time>2025-06-07T13:38:12.000Z</time>
      </trkpt>
      <trkpt lat="48.40687" lon="2.4229">
        <ele>133</ele>
        <time>2025-06-07T13:38:15.000Z</time>
      </trkpt>
      <trkpt lat="48.40709" lon="2.42299">
        <ele>132.80000305176</ele>
        <time>2025-06-07T13:38:19.000Z</time>
      </trkpt>
      <trkpt lat="48.40715" lon="2.42301">
        <ele>132.60000610352</ele>
        <time>2025-06-07T13:38:20.000Z</time>
      </trkpt>
      <trkpt lat="48.40745" lon="2.42313">
        <ele>132.19999694824</ele>
        <time>2025-06-07T13:38:26.000Z</time>
      </trkpt>
      <trkpt lat="48.40777" lon="2.42325">
        <ele>132.19999694824</ele>
        <time>2025-06-07T13:38:33.000Z</time>
      </trkpt>
      <trkpt lat="48.40799" lon="2.42339">
        <ele>132.60000610352</ele>
        <time>2025-06-07T13:38:37.000Z</time>
      </trkpt>
      <trkpt lat="48.40823" lon="2.42356">
        <ele>133.19999694824</ele>
        <time>2025-06-07T13:38:43.000Z</time>
      </trkpt>
      <trkpt lat="48.40851" lon="2.4237">
        <ele>133.19999694824</ele>
        <time>2025-06-07T13:38:49.000Z</time>
      </trkpt>
      <trkpt lat="48.40881" lon="2.42377">
        <ele>132.80000305176</ele>
        <time>2025-06-07T13:38:54.000Z</time>
      </trkpt>
      <trkpt lat="48.4089" lon="2.42372">
        <ele>132.80000305176</ele>
        <time>2025-06-07T13:38:58.000Z</time>
      </trkpt>
      <trkpt lat="48.40888" lon="2.42363">
        <ele>133</ele>
        <time>2025-06-07T13:39:02.000Z</time>
      </trkpt>
      <trkpt lat="48.40886" lon="2.42361">
        <ele>134.19999694824</ele>
        <time>2025-06-07T13:39:03.000Z</time>
      </trkpt>
      <trkpt lat="48.40878" lon="2.4235">
        <ele>134.60000610352</ele>
        <time>2025-06-07T13:39:06.000Z</time>
      </trkpt>
      <trkpt lat="48.40871" lon="2.42325">
        <ele>134.60000610352</ele>
        <time>2025-06-07T13:39:11.000Z</time>
      </trkpt>
      <trkpt lat="48.40865" lon="2.42306">
        <ele>134.60000610352</ele>
        <time>2025-06-07T13:39:15.000Z</time>
      </trkpt>
      <trkpt lat="48.40864" lon="2.42279">
        <ele>134.19999694824</ele>
        <time>2025-06-07T13:39:20.000Z</time>
      </trkpt>
      <trkpt lat="48.40863" lon="2.42251">
        <ele>134.39999389648</ele>
        <time>2025-06-07T13:39:26.000Z</time>
      </trkpt>
      <trkpt lat="48.40857" lon="2.42235">
        <ele>134.39999389648</ele>
        <time>2025-06-07T13:39:30.000Z</time>
      </trkpt>
      <trkpt lat="48.40845" lon="2.42213">
        <ele>134.19999694824</ele>
        <time>2025-06-07T13:39:35.000Z</time>
      </trkpt>
      <trkpt lat="48.40831" lon="2.42191">
        <ele>134</ele>
        <time>2025-06-07T13:39:39.000Z</time>
      </trkpt>
      <trkpt lat="48.40829" lon="2.42184">
        <ele>134</ele>
        <time>2025-06-07T13:39:40.000Z</time>
      </trkpt>
      <trkpt lat="48.4082" lon="2.42158">
        <ele>133.80000305176</ele>
        <time>2025-06-07T13:39:45.000Z</time>
      </trkpt>
      <trkpt lat="48.40809" lon="2.42136">
        <ele>133.60000610352</ele>
        <time>2025-06-07T13:39:49.000Z</time>
      </trkpt>
      <trkpt lat="48.40805" lon="2.4213">
        <ele>133.60000610352</ele>
        <time>2025-06-07T13:39:50.000Z</time>
      </trkpt>
      <trkpt lat="48.40791" lon="2.42114">
        <ele>133.19999694824</ele>
        <time>2025-06-07T13:39:53.000Z</time>
      </trkpt>
      <trkpt lat="48.40784" lon="2.42108">
        <ele>133</ele>
        <time>2025-06-07T13:39:55.000Z</time>
      </trkpt>
      <trkpt lat="48.40769" lon="2.42106">
        <ele>133.19999694824</ele>
        <time>2025-06-07T13:39:59.000Z</time>
      </trkpt>
      <trkpt lat="48.40761" lon="2.42104">
        <ele>132.80000305176</ele>
        <time>2025-06-07T13:40:01.000Z</time>
      </trkpt>
      <trkpt lat="48.40756" lon="2.42104">
        <ele>132.60000610352</ele>
        <time>2025-06-07T13:40:02.000Z</time>
      </trkpt>
      <trkpt lat="48.40752" lon="2.42105">
        <ele>132.39999389648</ele>
        <time>2025-06-07T13:40:03.000Z</time>
      </trkpt>
      <trkpt lat="48.40748" lon="2.42106">
        <ele>132.39999389648</ele>
        <time>2025-06-07T13:40:04.000Z</time>
      </trkpt>
      <trkpt lat="48.40744" lon="2.42105">
        <ele>132.39999389648</ele>
        <time>2025-06-07T13:40:05.000Z</time>
      </trkpt>
      <trkpt lat="48.40742" lon="2.42101">
        <ele>132.19999694824</ele>
        <time>2025-06-07T13:40:06.000Z</time>
      </trkpt>
      <trkpt lat="48.4074" lon="2.4209">
        <ele>131.19999694824</ele>
        <time>2025-06-07T13:40:08.000Z</time>
      </trkpt>
      <trkpt lat="48.4074" lon="2.42085">
        <ele>130</ele>
        <time>2025-06-07T13:40:09.000Z</time>
      </trkpt>
      <trkpt lat="48.40739" lon="2.4208">
        <ele>128.39999389648</ele>
        <time>2025-06-07T13:40:10.000Z</time>
      </trkpt>
      <trkpt lat="48.40738" lon="2.42075">
        <ele>126.59999847412</ele>
        <time>2025-06-07T13:40:11.000Z</time>
      </trkpt>
      <trkpt lat="48.40736" lon="2.42068">
        <ele>125</ele>
        <time>2025-06-07T13:40:12.000Z</time>
      </trkpt>
      <trkpt lat="48.40734" lon="2.4206">
        <ele>123.59999847412</ele>
        <time>2025-06-07T13:40:13.000Z</time>
      </trkpt>
      <trkpt lat="48.40734" lon="2.42051">
        <ele>122.59999847412</ele>
        <time>2025-06-07T13:40:14.000Z</time>
      </trkpt>
      <trkpt lat="48.40736" lon="2.42034">
        <ele>121.19999694824</ele>
        <time>2025-06-07T13:40:16.000Z</time>
      </trkpt>
      <trkpt lat="48.40743" lon="2.42016">
        <ele>120.40000152588</ele>
        <time>2025-06-07T13:40:19.000Z</time>
      </trkpt>
      <trkpt lat="48.40745" lon="2.4201">
        <ele>119</ele>
        <time>2025-06-07T13:40:20.000Z</time>
      </trkpt>
      <trkpt lat="48.40748" lon="2.42003">
        <ele>117.40000152588</ele>
        <time>2025-06-07T13:40:21.000Z</time>
      </trkpt>
      <trkpt lat="48.40754" lon="2.4199">
        <ele>115.80000305176</ele>
        <time>2025-06-07T13:40:23.000Z</time>
      </trkpt>
      <trkpt lat="48.40757" lon="2.41984">
        <ele>115.40000152588</ele>
        <time>2025-06-07T13:40:24.000Z</time>
      </trkpt>
      <trkpt lat="48.40761" lon="2.41967">
        <ele>114.59999847412</ele>
        <time>2025-06-07T13:40:26.000Z</time>
      </trkpt>
      <trkpt lat="48.40767" lon="2.41931">
        <ele>113.19999694824</ele>
        <time>2025-06-07T13:40:30.000Z</time>
      </trkpt>
      <trkpt lat="48.4077" lon="2.41927">
        <ele>112.59999847412</ele>
        <time>2025-06-07T13:40:31.000Z</time>
      </trkpt>
      <trkpt lat="48.40773" lon="2.41923">
        <ele>111.40000152588</ele>
        <time>2025-06-07T13:40:32.000Z</time>
      </trkpt>
      <trkpt lat="48.40777" lon="2.41919">
        <ele>109.80000305176</ele>
        <time>2025-06-07T13:40:33.000Z</time>
      </trkpt>
      <trkpt lat="48.40781" lon="2.41916">
        <ele>108.40000152588</ele>
        <time>2025-06-07T13:40:34.000Z</time>
      </trkpt>
      <trkpt lat="48.40786" lon="2.41915">
        <ele>106.80000305176</ele>
        <time>2025-06-07T13:40:35.000Z</time>
      </trkpt>
      <trkpt lat="48.40792" lon="2.41915">
        <ele>105</ele>
        <time>2025-06-07T13:40:36.000Z</time>
      </trkpt>
      <trkpt lat="48.40797" lon="2.41916">
        <ele>103.80000305176</ele>
        <time>2025-06-07T13:40:37.000Z</time>
      </trkpt>
      <trkpt lat="48.408" lon="2.41913">
        <ele>103.19999694824</ele>
        <time>2025-06-07T13:40:38.000Z</time>
      </trkpt>
      <trkpt lat="48.40804" lon="2.419">
        <ele>102.40000152588</ele>
        <time>2025-06-07T13:40:40.000Z</time>
      </trkpt>
      <trkpt lat="48.40806" lon="2.4189">
        <ele>102</ele>
        <time>2025-06-07T13:40:41.000Z</time>
      </trkpt>
      <trkpt lat="48.40809" lon="2.41883">
        <ele>101</ele>
        <time>2025-06-07T13:40:42.000Z</time>
      </trkpt>
      <trkpt lat="48.40817" lon="2.4188">
        <ele>99.400001525879</ele>
        <time>2025-06-07T13:40:44.000Z</time>
      </trkpt>
      <trkpt lat="48.40822" lon="2.41879">
        <ele>98.199996948242</ele>
        <time>2025-06-07T13:40:45.000Z</time>
      </trkpt>
      <trkpt lat="48.40827" lon="2.41878">
        <ele>97.599998474121</ele>
        <time>2025-06-07T13:40:46.000Z</time>
      </trkpt>
      <trkpt lat="48.4083" lon="2.41874">
        <ele>96.800003051758</ele>
        <time>2025-06-07T13:40:47.000Z</time>
      </trkpt>
      <trkpt lat="48.40834" lon="2.41871">
        <ele>95.599998474121</ele>
        <time>2025-06-07T13:40:48.000Z</time>
      </trkpt>
      <trkpt lat="48.40837" lon="2.41866">
        <ele>93.800003051758</ele>
        <time>2025-06-07T13:40:49.000Z</time>
      </trkpt>
      <trkpt lat="48.4084" lon="2.41862">
        <ele>91.599998474121</ele>
        <time>2025-06-07T13:40:50.000Z</time>
      </trkpt>
      <trkpt lat="48.40844" lon="2.41854">
        <ele>90.199996948242</ele>
        <time>2025-06-07T13:40:51.000Z</time>
      </trkpt>
      <trkpt lat="48.40848" lon="2.41846">
        <ele>89.599998474121</ele>
        <time>2025-06-07T13:40:52.000Z</time>
      </trkpt>
      <trkpt lat="48.4085" lon="2.41836">
        <ele>89.199996948242</ele>
        <time>2025-06-07T13:40:53.000Z</time>
      </trkpt>
      <trkpt lat="48.40851" lon="2.4182">
        <ele>88</ele>
        <time>2025-06-07T13:40:55.000Z</time>
      </trkpt>
      <trkpt lat="48.40851" lon="2.41811">
        <ele>87.599998474121</ele>
        <time>2025-06-07T13:40:56.000Z</time>
      </trkpt>
      <trkpt lat="48.40848" lon="2.41798">
        <ele>86.800003051758</ele>
        <time>2025-06-07T13:40:58.000Z</time>
      </trkpt>
      <trkpt lat="48.40845" lon="2.41793">
        <ele>86.199996948242</ele>
        <time>2025-06-07T13:40:59.000Z</time>
      </trkpt>
      <trkpt lat="48.40843" lon="2.41788">
        <ele>85.599998474121</ele>
        <time>2025-06-07T13:41:00.000Z</time>
      </trkpt>
      <trkpt lat="48.40839" lon="2.41783">
        <ele>85.199996948242</ele>
        <time>2025-06-07T13:41:01.000Z</time>
      </trkpt>
      <trkpt lat="48.40828" lon="2.41769">
        <ele>84.599998474121</ele>
        <time>2025-06-07T13:41:04.000Z</time>
      </trkpt>
      <trkpt lat="48.40825" lon="2.41763">
        <ele>84.599998474121</ele>
        <time>2025-06-07T13:41:05.000Z</time>
      </trkpt>
      <trkpt lat="48.40809" lon="2.41733">
        <ele>84</ele>
        <time>2025-06-07T13:41:10.000Z</time>
      </trkpt>
      <trkpt lat="48.40784" lon="2.4169">
        <ele>83.599998474121</ele>
        <time>2025-06-07T13:41:17.000Z</time>
      </trkpt>
      <trkpt lat="48.4078" lon="2.41684">
        <ele>83.599998474121</ele>
        <time>2025-06-07T13:41:18.000Z</time>
      </trkpt>
      <trkpt lat="48.40756" lon="2.41646">
        <ele>82.800003051758</ele>
        <time>2025-06-07T13:41:24.000Z</time>
      </trkpt>
      <trkpt lat="48.40753" lon="2.41639">
        <ele>82.400001525879</ele>
        <time>2025-06-07T13:41:25.000Z</time>
      </trkpt>
      <trkpt lat="48.40751" lon="2.41633">
        <ele>82.199996948242</ele>
        <time>2025-06-07T13:41:26.000Z</time>
      </trkpt>
      <trkpt lat="48.40751" lon="2.41621">
        <ele>82</ele>
        <time>2025-06-07T13:41:29.000Z</time>
      </trkpt>
      <trkpt lat="48.40761" lon="2.41617">
        <ele>82</ele>
        <time>2025-06-07T13:41:33.000Z</time>
      </trkpt>
      <trkpt lat="48.40782" lon="2.41603">
        <ele>83</ele>
        <time>2025-06-07T13:41:39.000Z</time>
      </trkpt>
      <trkpt lat="48.40802" lon="2.41583">
        <ele>83</ele>
        <time>2025-06-07T13:41:45.000Z</time>
      </trkpt>
      <trkpt lat="48.40814" lon="2.41574">
        <ele>83.199996948242</ele>
        <time>2025-06-07T13:41:49.000Z</time>
      </trkpt>
      <trkpt lat="48.40817" lon="2.41572">
        <ele>83.199996948242</ele>
        <time>2025-06-07T13:41:50.000Z</time>
      </trkpt>
      <trkpt lat="48.40835" lon="2.41561">
        <ele>83.800003051758</ele>
        <time>2025-06-07T13:41:56.000Z</time>
      </trkpt>
      <trkpt lat="48.40843" lon="2.4155">
        <ele>84.599998474121</ele>
        <time>2025-06-07T13:42:00.000Z</time>
      </trkpt>
      <trkpt lat="48.40844" lon="2.41547">
        <ele>85</ele>
        <time>2025-06-07T13:42:01.000Z</time>
      </trkpt>
      <trkpt lat="48.40845" lon="2.41528">
        <ele>85.400001525879</ele>
        <time>2025-06-07T13:42:05.000Z</time>
      </trkpt>
      <trkpt lat="48.40844" lon="2.41517">
        <ele>85.800003051758</ele>
        <time>2025-06-07T13:42:07.000Z</time>
      </trkpt>
      <trkpt lat="48.4084" lon="2.41505">
        <ele>86</ele>
        <time>2025-06-07T13:42:09.000Z</time>
      </trkpt>
      <trkpt lat="48.40839" lon="2.415">
        <ele>86.199996948242</ele>
        <time>2025-06-07T13:42:10.000Z</time>
      </trkpt>
      <trkpt lat="48.40829" lon="2.41486">
        <ele>86.400001525879</ele>
        <time>2025-06-07T13:42:14.000Z</time>
      </trkpt>
      <trkpt lat="48.4082" lon="2.41464">
        <ele>86.599998474121</ele>
        <time>2025-06-07T13:42:19.000Z</time>
      </trkpt>
      <trkpt lat="48.40815" lon="2.41446">
        <ele>86.800003051758</ele>
        <time>2025-06-07T13:42:23.000Z</time>
      </trkpt>
      <trkpt lat="48.40812" lon="2.41437">
        <ele>86.800003051758</ele>
        <time>2025-06-07T13:42:25.000Z</time>
      </trkpt>
      <trkpt lat="48.40812" lon="2.41416">
        <ele>86.800003051758</ele>
        <time>2025-06-07T13:42:30.000Z</time>
      </trkpt>
      <trkpt lat="48.40813" lon="2.41405">
        <ele>87.400001525879</ele>
        <time>2025-06-07T13:42:33.000Z</time>
      </trkpt>
      <trkpt lat="48.40812" lon="2.41402">
        <ele>87.800003051758</ele>
        <time>2025-06-07T13:42:34.000Z</time>
      </trkpt>
      <trkpt lat="48.4081" lon="2.41398">
        <ele>88.199996948242</ele>
        <time>2025-06-07T13:42:35.000Z</time>
      </trkpt>
      <trkpt lat="48.40804" lon="2.41387">
        <ele>89.199996948242</ele>
        <time>2025-06-07T13:42:38.000Z</time>
      </trkpt>
      <trkpt lat="48.408" lon="2.41378">
        <ele>90</ele>
        <time>2025-06-07T13:42:40.000Z</time>
      </trkpt>
      <trkpt lat="48.40799" lon="2.41373">
        <ele>90.199996948242</ele>
        <time>2025-06-07T13:42:41.000Z</time>
      </trkpt>
      <trkpt lat="48.40793" lon="2.41348">
        <ele>90.599998474121</ele>
        <time>2025-06-07T13:42:45.000Z</time>
      </trkpt>
      <trkpt lat="48.40791" lon="2.41343">
        <ele>90.599998474121</ele>
        <time>2025-06-07T13:42:46.000Z</time>
      </trkpt>
      <trkpt lat="48.40788" lon="2.41338">
        <ele>90.599998474121</ele>
        <time>2025-06-07T13:42:47.000Z</time>
      </trkpt>
      <trkpt lat="48.40781" lon="2.4133">
        <ele>90.800003051758</ele>
        <time>2025-06-07T13:42:49.000Z</time>
      </trkpt>
      <trkpt lat="48.40779" lon="2.41315">
        <ele>90.599998474121</ele>
        <time>2025-06-07T13:42:52.000Z</time>
      </trkpt>
      <trkpt lat="48.40786" lon="2.41311">
        <ele>90.400001525879</ele>
        <time>2025-06-07T13:42:55.000Z</time>
      </trkpt>
      <trkpt lat="48.40793" lon="2.41299">
        <ele>90.400001525879</ele>
        <time>2025-06-07T13:42:58.000Z</time>
      </trkpt>
      <trkpt lat="48.40794" lon="2.41275">
        <ele>90.199996948242</ele>
        <time>2025-06-07T13:43:02.000Z</time>
      </trkpt>
      <trkpt lat="48.40793" lon="2.41263">
        <ele>90.199996948242</ele>
        <time>2025-06-07T13:43:04.000Z</time>
      </trkpt>
      <trkpt lat="48.4079" lon="2.41253">
        <ele>90</ele>
        <time>2025-06-07T13:43:06.000Z</time>
      </trkpt>
      <trkpt lat="48.40792" lon="2.41238">
        <ele>90</ele>
        <time>2025-06-07T13:43:09.000Z</time>
      </trkpt>
      <trkpt lat="48.40795" lon="2.41234">
        <ele>90</ele>
        <time>2025-06-07T13:43:10.000Z</time>
      </trkpt>
      <trkpt lat="48.40803" lon="2.41219">
        <ele>90</ele>
        <time>2025-06-07T13:43:13.000Z</time>
      </trkpt>
      <trkpt lat="48.40806" lon="2.41213">
        <ele>90</ele>
        <time>2025-06-07T13:43:14.000Z</time>
      </trkpt>
      <trkpt lat="48.40816" lon="2.41201">
        <ele>90</ele>
        <time>2025-06-07T13:43:17.000Z</time>
      </trkpt>
      <trkpt lat="48.40826" lon="2.41185">
        <ele>90</ele>
        <time>2025-06-07T13:43:21.000Z</time>
      </trkpt>
      <trkpt lat="48.40825" lon="2.41163">
        <ele>90</ele>
        <time>2025-06-07T13:43:25.000Z</time>
      </trkpt>
      <trkpt lat="48.40822" lon="2.41157">
        <ele>90</ele>
        <time>2025-06-07T13:43:26.000Z</time>
      </trkpt>
      <trkpt lat="48.40819" lon="2.41152">
        <ele>90</ele>
        <time>2025-06-07T13:43:27.000Z</time>
      </trkpt>
      <trkpt lat="48.40815" lon="2.41147">
        <ele>90</ele>
        <time>2025-06-07T13:43:28.000Z</time>
      </trkpt>
      <trkpt lat="48.40812" lon="2.41144">
        <ele>90</ele>
        <time>2025-06-07T13:43:29.000Z</time>
      </trkpt>
      <trkpt lat="48.4081" lon="2.4114">
        <ele>90</ele>
        <time>2025-06-07T13:43:30.000Z</time>
      </trkpt>
      <trkpt lat="48.40809" lon="2.41131">
        <ele>90.199996948242</ele>
        <time>2025-06-07T13:43:32.000Z</time>
      </trkpt>
      <trkpt lat="48.40815" lon="2.41115">
        <ele>90.400001525879</ele>
        <time>2025-06-07T13:43:36.000Z</time>
      </trkpt>
      <trkpt lat="48.40818" lon="2.41111">
        <ele>90.400001525879</ele>
        <time>2025-06-07T13:43:37.000Z</time>
      </trkpt>
      <trkpt lat="48.4082" lon="2.41106">
        <ele>90.400001525879</ele>
        <time>2025-06-07T13:43:38.000Z</time>
      </trkpt>
      <trkpt lat="48.40821" lon="2.41095">
        <ele>90.599998474121</ele>
        <time>2025-06-07T13:43:40.000Z</time>
      </trkpt>
      <trkpt lat="48.40822" lon="2.41074">
        <ele>90.599998474121</ele>
        <time>2025-06-07T13:43:43.000Z</time>
      </trkpt>
      <trkpt lat="48.40825" lon="2.41063">
        <ele>90.800003051758</ele>
        <time>2025-06-07T13:43:45.000Z</time>
      </trkpt>
      <trkpt lat="48.40824" lon="2.41055">
        <ele>90.800003051758</ele>
        <time>2025-06-07T13:43:47.000Z</time>
      </trkpt>
      <trkpt lat="48.40821" lon="2.41046">
        <ele>90.800003051758</ele>
        <time>2025-06-07T13:43:49.000Z</time>
      </trkpt>
      <trkpt lat="48.40814" lon="2.41027">
        <ele>89.800003051758</ele>
        <time>2025-06-07T13:43:53.000Z</time>
      </trkpt>
      <trkpt lat="48.40813" lon="2.41019">
        <ele>89.800003051758</ele>
        <time>2025-06-07T13:43:54.000Z</time>
      </trkpt>
      <trkpt lat="48.40813" lon="2.41004">
        <ele>89.199996948242</ele>
        <time>2025-06-07T13:43:56.000Z</time>
      </trkpt>
      <trkpt lat="48.40815" lon="2.40998">
        <ele>89</ele>
        <time>2025-06-07T13:43:57.000Z</time>
      </trkpt>
      <trkpt lat="48.40826" lon="2.40986">
        <ele>88.400001525879</ele>
        <time>2025-06-07T13:44:00.000Z</time>
      </trkpt>
      <trkpt lat="48.40839" lon="2.40973">
        <ele>88.199996948242</ele>
        <time>2025-06-07T13:44:04.000Z</time>
      </trkpt>
      <trkpt lat="48.40846" lon="2.40964">
        <ele>88.199996948242</ele>
        <time>2025-06-07T13:44:08.000Z</time>
      </trkpt>
      <trkpt lat="48.40842" lon="2.40946">
        <ele>88.599998474121</ele>
        <time>2025-06-07T13:44:12.000Z</time>
      </trkpt>
      <trkpt lat="48.40838" lon="2.40936">
        <ele>89</ele>
        <time>2025-06-07T13:44:14.000Z</time>
      </trkpt>
      <trkpt lat="48.40826" lon="2.40909">
        <ele>89.599998474121</ele>
        <time>2025-06-07T13:44:19.000Z</time>
      </trkpt>
      <trkpt lat="48.40817" lon="2.40891">
        <ele>89.599998474121</ele>
        <time>2025-06-07T13:44:22.000Z</time>
      </trkpt>
      <trkpt lat="48.40806" lon="2.40866">
        <ele>89.400001525879</ele>
        <time>2025-06-07T13:44:26.000Z</time>
      </trkpt>
      <trkpt lat="48.40791" lon="2.40844">
        <ele>88.800003051758</ele>
        <time>2025-06-07T13:44:31.000Z</time>
      </trkpt>
      <trkpt lat="48.40769" lon="2.40821">
        <ele>88.599998474121</ele>
        <time>2025-06-07T13:44:36.000Z</time>
      </trkpt>
      <trkpt lat="48.40751" lon="2.408">
        <ele>88</ele>
        <time>2025-06-07T13:44:40.000Z</time>
      </trkpt>
      <trkpt lat="48.40737" lon="2.40783">
        <ele>87.400001525879</ele>
        <time>2025-06-07T13:44:43.000Z</time>
      </trkpt>
      <trkpt lat="48.40722" lon="2.40768">
        <ele>87</ele>
        <time>2025-06-07T13:44:46.000Z</time>
      </trkpt>
      <trkpt lat="48.40701" lon="2.40748">
        <ele>85.599998474121</ele>
        <time>2025-06-07T13:44:50.000Z</time>
      </trkpt>
      <trkpt lat="48.4067" lon="2.40717">
        <ele>84.599998474121</ele>
        <time>2025-06-07T13:44:56.000Z</time>
      </trkpt>
      <trkpt lat="48.40665" lon="2.40713">
        <ele>84.199996948242</ele>
        <time>2025-06-07T13:44:57.000Z</time>
      </trkpt>
      <trkpt lat="48.40639" lon="2.40688">
        <ele>83.400001525879</ele>
        <time>2025-06-07T13:45:02.000Z</time>
      </trkpt>
      <trkpt lat="48.40624" lon="2.40674">
        <ele>82.199996948242</ele>
        <time>2025-06-07T13:45:05.000Z</time>
      </trkpt>
      <trkpt lat="48.40591" lon="2.40644">
        <ele>81</ele>
        <time>2025-06-07T13:45:11.000Z</time>
      </trkpt>
      <trkpt lat="48.40586" lon="2.40641">
        <ele>81</ele>
        <time>2025-06-07T13:45:12.000Z</time>
      </trkpt>
      <trkpt lat="48.40561" lon="2.40622">
        <ele>80.199996948242</ele>
        <time>2025-06-07T13:45:17.000Z</time>
      </trkpt>
      <trkpt lat="48.40558" lon="2.40616">
        <ele>80</ele>
        <time>2025-06-07T13:45:18.000Z</time>
      </trkpt>
      <trkpt lat="48.40556" lon="2.40607">
        <ele>79.599998474121</ele>
        <time>2025-06-07T13:45:22.000Z</time>
      </trkpt>
      <trkpt lat="48.40558" lon="2.40607">
        <ele>79.599998474121</ele>
        <time>2025-06-07T13:45:23.000Z</time>
      </trkpt>
      <trkpt lat="48.40562" lon="2.40605">
        <ele>79.599998474121</ele>
        <time>2025-06-07T13:45:25.000Z</time>
      </trkpt>
      <trkpt lat="48.40571" lon="2.40605">
        <ele>79.800003051758</ele>
        <time>2025-06-07T13:45:30.000Z</time>
      </trkpt>
      <trkpt lat="48.40576" lon="2.40606">
        <ele>81</ele>
        <time>2025-06-07T13:45:38.000Z</time>
      </trkpt>
      <trkpt lat="48.40579" lon="2.40606">
        <ele>81.400001525879</ele>
        <time>2025-06-07T13:45:46.000Z</time>
      </trkpt>
      <trkpt lat="48.4059" lon="2.40601">
        <ele>81.599998474121</ele>
        <time>2025-06-07T13:45:52.000Z</time>
      </trkpt>
      <trkpt lat="48.40607" lon="2.40589">
        <ele>81.599998474121</ele>
        <time>2025-06-07T13:45:59.000Z</time>
      </trkpt>
      <trkpt lat="48.4062" lon="2.40576">
        <ele>82</ele>
        <time>2025-06-07T13:46:05.000Z</time>
      </trkpt>
      <trkpt lat="48.40623" lon="2.40575">
        <ele>82</ele>
        <time>2025-06-07T13:46:06.000Z</time>
      </trkpt>
      <trkpt lat="48.40637" lon="2.40566">
        <ele>82.800003051758</ele>
        <time>2025-06-07T13:46:12.000Z</time>
      </trkpt>
      <trkpt lat="48.40642" lon="2.40566">
        <ele>83</ele>
        <time>2025-06-07T13:46:13.000Z</time>
      </trkpt>
      <trkpt lat="48.40651" lon="2.40559">
        <ele>83.400001525879</ele>
        <time>2025-06-07T13:46:17.000Z</time>
      </trkpt>
      <trkpt lat="48.40666" lon="2.40546">
        <ele>83.800003051758</ele>
        <time>2025-06-07T13:46:23.000Z</time>
      </trkpt>
      <trkpt lat="48.40668" lon="2.40544">
        <ele>84.199996948242</ele>
        <time>2025-06-07T13:46:24.000Z</time>
      </trkpt>
      <trkpt lat="48.40682" lon="2.40536">
        <ele>85.199996948242</ele>
        <time>2025-06-07T13:46:29.000Z</time>
      </trkpt>
      <trkpt lat="48.40691" lon="2.40535">
        <ele>85.800003051758</ele>
        <time>2025-06-07T13:46:31.000Z</time>
      </trkpt>
      <trkpt lat="48.40698" lon="2.40534">
        <ele>86.599998474121</ele>
        <time>2025-06-07T13:46:33.000Z</time>
      </trkpt>
      <trkpt lat="48.40708" lon="2.40529">
        <ele>87.400001525879</ele>
        <time>2025-06-07T13:46:37.000Z</time>
      </trkpt>
      <trkpt lat="48.40712" lon="2.40526">
        <ele>88.199996948242</ele>
        <time>2025-06-07T13:46:39.000Z</time>
      </trkpt>
      <trkpt lat="48.40715" lon="2.40525">
        <ele>88.599998474121</ele>
        <time>2025-06-07T13:46:40.000Z</time>
      </trkpt>
      <trkpt lat="48.4073" lon="2.40522">
        <ele>90</ele>
        <time>2025-06-07T13:46:46.000Z</time>
      </trkpt>
      <trkpt lat="48.40732" lon="2.40521">
        <ele>90.199996948242</ele>
        <time>2025-06-07T13:46:47.000Z</time>
      </trkpt>
      <trkpt lat="48.4074" lon="2.40517">
        <ele>91.199996948242</ele>
        <time>2025-06-07T13:46:51.000Z</time>
      </trkpt>
      <trkpt lat="48.40744" lon="2.40514">
        <ele>92</ele>
        <time>2025-06-07T13:46:54.000Z</time>
      </trkpt>
      <trkpt lat="48.40745" lon="2.40513">
        <ele>92.400001525879</ele>
        <time>2025-06-07T13:46:55.000Z</time>
      </trkpt>
      <trkpt lat="48.40751" lon="2.40509">
        <ele>93.400001525879</ele>
        <time>2025-06-07T13:47:00.000Z</time>
      </trkpt>
      <trkpt lat="48.40752" lon="2.40508">
        <ele>93.599998474121</ele>
        <time>2025-06-07T13:47:01.000Z</time>
      </trkpt>
      <trkpt lat="48.40752" lon="2.40506">
        <ele>94</ele>
        <time>2025-06-07T13:47:02.000Z</time>
      </trkpt>
      <trkpt lat="48.40754" lon="2.40504">
        <ele>94.599998474121</ele>
        <time>2025-06-07T13:47:04.000Z</time>
      </trkpt>
      <trkpt lat="48.40757" lon="2.40499">
        <ele>95.599998474121</ele>
        <time>2025-06-07T13:47:07.000Z</time>
      </trkpt>
      <trkpt lat="48.40757" lon="2.40497">
        <ele>95.800003051758</ele>
        <time>2025-06-07T13:47:08.000Z</time>
      </trkpt>
      <trkpt lat="48.40758" lon="2.40494">
        <ele>96.199996948242</ele>
        <time>2025-06-07T13:47:10.000Z</time>
      </trkpt>
      <trkpt lat="48.40762" lon="2.4049">
        <ele>96.800003051758</ele>
        <time>2025-06-07T13:47:13.000Z</time>
      </trkpt>
      <trkpt lat="48.40767" lon="2.40484">
        <ele>97.800003051758</ele>
        <time>2025-06-07T13:47:18.000Z</time>
      </trkpt>
      <trkpt lat="48.40772" lon="2.40479">
        <ele>99</ele>
        <time>2025-06-07T13:47:24.000Z</time>
      </trkpt>
      <trkpt lat="48.40773" lon="2.40478">
        <ele>99.199996948242</ele>
        <time>2025-06-07T13:47:25.000Z</time>
      </trkpt>
      <trkpt lat="48.40777" lon="2.40478">
        <ele>100.19999694824</ele>
        <time>2025-06-07T13:47:30.000Z</time>
      </trkpt>
      <trkpt lat="48.40778" lon="2.40478">
        <ele>100.59999847412</ele>
        <time>2025-06-07T13:47:32.000Z</time>
      </trkpt>
      <trkpt lat="48.40779" lon="2.40479">
        <ele>101.19999694824</ele>
        <time>2025-06-07T13:47:36.000Z</time>
      </trkpt>
      <trkpt lat="48.40783" lon="2.40482">
        <ele>101.80000305176</ele>
        <time>2025-06-07T13:47:40.000Z</time>
      </trkpt>
      <trkpt lat="48.40788" lon="2.40484">
        <ele>102.59999847412</ele>
        <time>2025-06-07T13:47:43.000Z</time>
      </trkpt>
      <trkpt lat="48.40796" lon="2.40485">
        <ele>103.59999847412</ele>
        <time>2025-06-07T13:47:47.000Z</time>
      </trkpt>
      <trkpt lat="48.40797" lon="2.40485">
        <ele>103.80000305176</ele>
        <time>2025-06-07T13:47:48.000Z</time>
      </trkpt>
      <trkpt lat="48.40804" lon="2.40486">
        <ele>105</ele>
        <time>2025-06-07T13:47:52.000Z</time>
      </trkpt>
      <trkpt lat="48.40808" lon="2.40486">
        <ele>105.59999847412</ele>
        <time>2025-06-07T13:47:55.000Z</time>
      </trkpt>
      <trkpt lat="48.40809" lon="2.40484">
        <ele>106.19999694824</ele>
        <time>2025-06-07T13:47:57.000Z</time>
      </trkpt>
      <trkpt lat="48.40813" lon="2.40482">
        <ele>107</ele>
        <time>2025-06-07T13:48:01.000Z</time>
      </trkpt>
      <trkpt lat="48.40813" lon="2.4048">
        <ele>107.40000152588</ele>
        <time>2025-06-07T13:48:03.000Z</time>
      </trkpt>
      <trkpt lat="48.40817" lon="2.40477">
        <ele>108.40000152588</ele>
        <time>2025-06-07T13:48:09.000Z</time>
      </trkpt>
      <trkpt lat="48.40818" lon="2.40475">
        <ele>109.19999694824</ele>
        <time>2025-06-07T13:48:12.000Z</time>
      </trkpt>
      <trkpt lat="48.40819" lon="2.40474">
        <ele>109.80000305176</ele>
        <time>2025-06-07T13:48:13.000Z</time>
      </trkpt>
      <trkpt lat="48.4082" lon="2.40474">
        <ele>110.80000305176</ele>
        <time>2025-06-07T13:48:17.000Z</time>
      </trkpt>
      <trkpt lat="48.40821" lon="2.40475">
        <ele>111.19999694824</ele>
        <time>2025-06-07T13:48:18.000Z</time>
      </trkpt>
      <trkpt lat="48.40823" lon="2.40476">
        <ele>111.40000152588</ele>
        <time>2025-06-07T13:48:19.000Z</time>
      </trkpt>
      <trkpt lat="48.40829" lon="2.40478">
        <ele>112</ele>
        <time>2025-06-07T13:48:23.000Z</time>
      </trkpt>
      <trkpt lat="48.4083" lon="2.40479">
        <ele>112.19999694824</ele>
        <time>2025-06-07T13:48:24.000Z</time>
      </trkpt>
      <trkpt lat="48.40835" lon="2.40484">
        <ele>113.19999694824</ele>
        <time>2025-06-07T13:48:29.000Z</time>
      </trkpt>
      <trkpt lat="48.40838" lon="2.40486">
        <ele>113.80000305176</ele>
        <time>2025-06-07T13:48:32.000Z</time>
      </trkpt>
      <trkpt lat="48.40839" lon="2.40488">
        <ele>114.40000152588</ele>
        <time>2025-06-07T13:48:34.000Z</time>
      </trkpt>
      <trkpt lat="48.4084" lon="2.40491">
        <ele>115.40000152588</ele>
        <time>2025-06-07T13:48:38.000Z</time>
      </trkpt>
      <trkpt lat="48.40841" lon="2.40493">
        <ele>115.80000305176</ele>
        <time>2025-06-07T13:48:40.000Z</time>
      </trkpt>
      <trkpt lat="48.40842" lon="2.40495">
        <ele>116.80000305176</ele>
        <time>2025-06-07T13:48:42.000Z</time>
      </trkpt>
      <trkpt lat="48.40845" lon="2.40499">
        <ele>117.80000305176</ele>
        <time>2025-06-07T13:48:47.000Z</time>
      </trkpt>
      <trkpt lat="48.40844" lon="2.40498">
        <ele>118</ele>
        <time>2025-06-07T13:48:48.000Z</time>
      </trkpt>
      <trkpt lat="48.40847" lon="2.40501">
        <ele>118.80000305176</ele>
        <time>2025-06-07T13:48:52.000Z</time>
      </trkpt>
      <trkpt lat="48.40852" lon="2.40505">
        <ele>119.59999847412</ele>
        <time>2025-06-07T13:48:56.000Z</time>
      </trkpt>
      <trkpt lat="48.40855" lon="2.40506">
        <ele>120</ele>
        <time>2025-06-07T13:48:59.000Z</time>
      </trkpt>
      <trkpt lat="48.40857" lon="2.40507">
        <ele>120.59999847412</ele>
        <time>2025-06-07T13:49:01.000Z</time>
      </trkpt>
      <trkpt lat="48.40859" lon="2.40509">
        <ele>120.59999847412</ele>
        <time>2025-06-07T13:49:02.000Z</time>
      </trkpt>
      <trkpt lat="48.40865" lon="2.40514">
        <ele>121</ele>
        <time>2025-06-07T13:49:05.000Z</time>
      </trkpt>
      <trkpt lat="48.40871" lon="2.40519">
        <ele>121</ele>
        <time>2025-06-07T13:49:08.000Z</time>
      </trkpt>
      <trkpt lat="48.40876" lon="2.4052">
        <ele>121</ele>
        <time>2025-06-07T13:49:12.000Z</time>
      </trkpt>
      <trkpt lat="48.40878" lon="2.4052">
        <ele>121.40000152588</ele>
        <time>2025-06-07T13:49:14.000Z</time>
      </trkpt>
      <trkpt lat="48.40881" lon="2.4052">
        <ele>121.80000305176</ele>
        <time>2025-06-07T13:49:16.000Z</time>
      </trkpt>
      <trkpt lat="48.40884" lon="2.4052">
        <ele>122.19999694824</ele>
        <time>2025-06-07T13:49:18.000Z</time>
      </trkpt>
      <trkpt lat="48.40889" lon="2.40521">
        <ele>123</ele>
        <time>2025-06-07T13:49:22.000Z</time>
      </trkpt>
      <trkpt lat="48.40891" lon="2.40521">
        <ele>123.40000152588</ele>
        <time>2025-06-07T13:49:23.000Z</time>
      </trkpt>
      <trkpt lat="48.409" lon="2.40522">
        <ele>125</ele>
        <time>2025-06-07T13:49:28.000Z</time>
      </trkpt>
      <trkpt lat="48.40903" lon="2.40522">
        <ele>125.40000152588</ele>
        <time>2025-06-07T13:49:30.000Z</time>
      </trkpt>
      <trkpt lat="48.40909" lon="2.40521">
        <ele>126</ele>
        <time>2025-06-07T13:49:33.000Z</time>
      </trkpt>
      <trkpt lat="48.40914" lon="2.40519">
        <ele>127</ele>
        <time>2025-06-07T13:49:37.000Z</time>
      </trkpt>
      <trkpt lat="48.40916" lon="2.40517">
        <ele>127.40000152588</ele>
        <time>2025-06-07T13:49:39.000Z</time>
      </trkpt>
      <trkpt lat="48.4092" lon="2.40516">
        <ele>128.39999389648</ele>
        <time>2025-06-07T13:49:41.000Z</time>
      </trkpt>
      <trkpt lat="48.40922" lon="2.40513">
        <ele>129.19999694824</ele>
        <time>2025-06-07T13:49:44.000Z</time>
      </trkpt>
      <trkpt lat="48.40923" lon="2.40514">
        <ele>129.60000610352</ele>
        <time>2025-06-07T13:49:45.000Z</time>
      </trkpt>
      <trkpt lat="48.40927" lon="2.40517">
        <ele>130.80000305176</ele>
        <time>2025-06-07T13:49:49.000Z</time>
      </trkpt>
      <trkpt lat="48.40932" lon="2.40522">
        <ele>131.80000305176</ele>
        <time>2025-06-07T13:49:53.000Z</time>
      </trkpt>
      <trkpt lat="48.40934" lon="2.40523">
        <ele>131.80000305176</ele>
        <time>2025-06-07T13:49:54.000Z</time>
      </trkpt>
      <trkpt lat="48.40945" lon="2.40523">
        <ele>132.60000610352</ele>
        <time>2025-06-07T13:50:00.000Z</time>
      </trkpt>
      <trkpt lat="48.40954" lon="2.40525">
        <ele>132.80000305176</ele>
        <time>2025-06-07T13:50:03.000Z</time>
      </trkpt>
      <trkpt lat="48.40958" lon="2.40524">
        <ele>133</ele>
        <time>2025-06-07T13:50:05.000Z</time>
      </trkpt>
      <trkpt lat="48.40975" lon="2.40517">
        <ele>133.39999389648</ele>
        <time>2025-06-07T13:50:10.000Z</time>
      </trkpt>
      <trkpt lat="48.40997" lon="2.40505">
        <ele>133.80000305176</ele>
        <time>2025-06-07T13:50:16.000Z</time>
      </trkpt>
      <trkpt lat="48.41" lon="2.40503">
        <ele>133.80000305176</ele>
        <time>2025-06-07T13:50:17.000Z</time>
      </trkpt>
      <trkpt lat="48.41012" lon="2.4049">
        <ele>134</ele>
        <time>2025-06-07T13:50:21.000Z</time>
      </trkpt>
      <trkpt lat="48.41029" lon="2.40474">
        <ele>134.19999694824</ele>
        <time>2025-06-07T13:50:26.000Z</time>
      </trkpt>
      <trkpt lat="48.41049" lon="2.40448">
        <ele>134.39999389648</ele>
        <time>2025-06-07T13:50:33.000Z</time>
      </trkpt>
      <trkpt lat="48.41066" lon="2.4044">
        <ele>134.39999389648</ele>
        <time>2025-06-07T13:50:38.000Z</time>
      </trkpt>
      <trkpt lat="48.4107" lon="2.40442">
        <ele>134.19999694824</ele>
        <time>2025-06-07T13:50:40.000Z</time>
      </trkpt>
      <trkpt lat="48.41071" lon="2.40445">
        <ele>134.19999694824</ele>
        <time>2025-06-07T13:50:41.000Z</time>
      </trkpt>
      <trkpt lat="48.4108" lon="2.40454">
        <ele>133.80000305176</ele>
        <time>2025-06-07T13:50:45.000Z</time>
      </trkpt>
      <trkpt lat="48.41083" lon="2.40466">
        <ele>132.80000305176</ele>
        <time>2025-06-07T13:50:48.000Z</time>
      </trkpt>
      <trkpt lat="48.41083" lon="2.40473">
        <ele>132.39999389648</ele>
        <time>2025-06-07T13:50:50.000Z</time>
      </trkpt>
      <trkpt lat="48.41084" lon="2.40488">
        <ele>132</ele>
        <time>2025-06-07T13:50:53.000Z</time>
      </trkpt>
      <trkpt lat="48.41083" lon="2.40493">
        <ele>131.80000305176</ele>
        <time>2025-06-07T13:50:54.000Z</time>
      </trkpt>
      <trkpt lat="48.41084" lon="2.40497">
        <ele>131.80000305176</ele>
        <time>2025-06-07T13:50:55.000Z</time>
      </trkpt>
      <trkpt lat="48.41086" lon="2.405">
        <ele>131.60000610352</ele>
        <time>2025-06-07T13:50:56.000Z</time>
      </trkpt>
      <trkpt lat="48.41092" lon="2.40509">
        <ele>131.60000610352</ele>
        <time>2025-06-07T13:50:59.000Z</time>
      </trkpt>
      <trkpt lat="48.41109" lon="2.4052">
        <ele>131.39999389648</ele>
        <time>2025-06-07T13:51:03.000Z</time>
      </trkpt>
      <trkpt lat="48.41113" lon="2.40523">
        <ele>131.39999389648</ele>
        <time>2025-06-07T13:51:04.000Z</time>
      </trkpt>
      <trkpt lat="48.41121" lon="2.40535">
        <ele>130.80000305176</ele>
        <time>2025-06-07T13:51:07.000Z</time>
      </trkpt>
      <trkpt lat="48.41125" lon="2.40541">
        <ele>129.80000305176</ele>
        <time>2025-06-07T13:51:10.000Z</time>
      </trkpt>
      <trkpt lat="48.41126" lon="2.4054">
        <ele>129</ele>
        <time>2025-06-07T13:51:11.000Z</time>
      </trkpt>
      <trkpt lat="48.41129" lon="2.40539">
        <ele>128.19999694824</ele>
        <time>2025-06-07T13:51:12.000Z</time>
      </trkpt>
      <trkpt lat="48.41133" lon="2.40536">
        <ele>127.59999847412</ele>
        <time>2025-06-07T13:51:14.000Z</time>
      </trkpt>
      <trkpt lat="48.4114" lon="2.40531">
        <ele>127.40000152588</ele>
        <time>2025-06-07T13:51:16.000Z</time>
      </trkpt>
      <trkpt lat="48.41144" lon="2.40528">
        <ele>127.19999694824</ele>
        <time>2025-06-07T13:51:17.000Z</time>
      </trkpt>
      <trkpt lat="48.41149" lon="2.40524">
        <ele>127.19999694824</ele>
        <time>2025-06-07T13:51:18.000Z</time>
      </trkpt>
      <trkpt lat="48.41157" lon="2.40514">
        <ele>127.19999694824</ele>
        <time>2025-06-07T13:51:20.000Z</time>
      </trkpt>
      <trkpt lat="48.41162" lon="2.40503">
        <ele>126.40000152588</ele>
        <time>2025-06-07T13:51:22.000Z</time>
      </trkpt>
      <trkpt lat="48.41164" lon="2.40495">
        <ele>125.80000305176</ele>
        <time>2025-06-07T13:51:23.000Z</time>
      </trkpt>
      <trkpt lat="48.41166" lon="2.4049">
        <ele>125</ele>
        <time>2025-06-07T13:51:24.000Z</time>
      </trkpt>
      <trkpt lat="48.41168" lon="2.40485">
        <ele>124</ele>
        <time>2025-06-07T13:51:25.000Z</time>
      </trkpt>
      <trkpt lat="48.4117" lon="2.40482">
        <ele>123</ele>
        <time>2025-06-07T13:51:26.000Z</time>
      </trkpt>
      <trkpt lat="48.41172" lon="2.40481">
        <ele>121.80000305176</ele>
        <time>2025-06-07T13:51:27.000Z</time>
      </trkpt>
      <trkpt lat="48.41174" lon="2.40483">
        <ele>120.40000152588</ele>
        <time>2025-06-07T13:51:28.000Z</time>
      </trkpt>
      <trkpt lat="48.41177" lon="2.40485">
        <ele>118.59999847412</ele>
        <time>2025-06-07T13:51:29.000Z</time>
      </trkpt>
      <trkpt lat="48.4118" lon="2.40485">
        <ele>117</ele>
        <time>2025-06-07T13:51:30.000Z</time>
      </trkpt>
      <trkpt lat="48.41183" lon="2.40483">
        <ele>115.59999847412</ele>
        <time>2025-06-07T13:51:31.000Z</time>
      </trkpt>
      <trkpt lat="48.41184" lon="2.4048">
        <ele>114.40000152588</ele>
        <time>2025-06-07T13:51:32.000Z</time>
      </trkpt>
      <trkpt lat="48.41187" lon="2.40477">
        <ele>113.40000152588</ele>
        <time>2025-06-07T13:51:33.000Z</time>
      </trkpt>
      <trkpt lat="48.4119" lon="2.40476">
        <ele>112.59999847412</ele>
        <time>2025-06-07T13:51:34.000Z</time>
      </trkpt>
      <trkpt lat="48.41197" lon="2.40477">
        <ele>110.59999847412</ele>
        <time>2025-06-07T13:51:36.000Z</time>
      </trkpt>
      <trkpt lat="48.41201" lon="2.40476">
        <ele>108.80000305176</ele>
        <time>2025-06-07T13:51:38.000Z</time>
      </trkpt>
      <trkpt lat="48.41203" lon="2.40474">
        <ele>107.59999847412</ele>
        <time>2025-06-07T13:51:39.000Z</time>
      </trkpt>
      <trkpt lat="48.41206" lon="2.40472">
        <ele>106.40000152588</ele>
        <time>2025-06-07T13:51:40.000Z</time>
      </trkpt>
      <trkpt lat="48.41209" lon="2.40471">
        <ele>105.40000152588</ele>
        <time>2025-06-07T13:51:41.000Z</time>
      </trkpt>
      <trkpt lat="48.41213" lon="2.4047">
        <ele>104.40000152588</ele>
        <time>2025-06-07T13:51:42.000Z</time>
      </trkpt>
      <trkpt lat="48.41218" lon="2.40469">
        <ele>103.19999694824</ele>
        <time>2025-06-07T13:51:43.000Z</time>
      </trkpt>
      <trkpt lat="48.41222" lon="2.40467">
        <ele>102</ele>
        <time>2025-06-07T13:51:44.000Z</time>
      </trkpt>
      <trkpt lat="48.41228" lon="2.40466">
        <ele>100.40000152588</ele>
        <time>2025-06-07T13:51:46.000Z</time>
      </trkpt>
      <trkpt lat="48.4123" lon="2.40465">
        <ele>100</ele>
        <time>2025-06-07T13:51:47.000Z</time>
      </trkpt>
      <trkpt lat="48.41205" lon="2.40478">
        <ele>94.199996948242</ele>
        <time>2025-06-08T07:39:37.000Z</time>
      </trkpt>
      <trkpt lat="48.41208" lon="2.40484">
        <ele>94.199996948242</ele>
        <time>2025-06-08T07:39:39.000Z</time>
      </trkpt>
      <trkpt lat="48.41215" lon="2.40504">
        <ele>94.199996948242</ele>
        <time>2025-06-08T07:39:43.000Z</time>
      </trkpt>
      <trkpt lat="48.41227" lon="2.4053">
        <ele>94.400001525879</ele>
        <time>2025-06-08T07:39:49.000Z</time>
      </trkpt>
      <trkpt lat="48.41253" lon="2.40519">
        <ele>94.199996948242</ele>
        <time>2025-06-08T07:39:52.000Z</time>
      </trkpt>
      <trkpt lat="48.41261" lon="2.40514">
        <ele>94.199996948242</ele>
        <time>2025-06-08T07:39:53.000Z</time>
      </trkpt>
      <trkpt lat="48.41287" lon="2.40511">
        <ele>94.199996948242</ele>
        <time>2025-06-08T07:39:57.000Z</time>
      </trkpt>
      <trkpt lat="48.41292" lon="2.40533">
        <ele>93.800003051758</ele>
        <time>2025-06-08T07:40:00.000Z</time>
      </trkpt>
      <trkpt lat="48.41293" lon="2.4054">
        <ele>93.199996948242</ele>
        <time>2025-06-08T07:40:01.000Z</time>
      </trkpt>
      <trkpt lat="48.41294" lon="2.40547">
        <ele>92.599998474121</ele>
        <time>2025-06-08T07:40:02.000Z</time>
      </trkpt>
      <trkpt lat="48.41296" lon="2.40555">
        <ele>92.199996948242</ele>
        <time>2025-06-08T07:40:03.000Z</time>
      </trkpt>
      <trkpt lat="48.41301" lon="2.40569">
        <ele>91.800003051758</ele>
        <time>2025-06-08T07:40:05.000Z</time>
      </trkpt>
      <trkpt lat="48.41313" lon="2.40605">
        <ele>91.199996948242</ele>
        <time>2025-06-08T07:40:10.000Z</time>
      </trkpt>
      <trkpt lat="48.41317" lon="2.40621">
        <ele>91</ele>
        <time>2025-06-08T07:40:12.000Z</time>
      </trkpt>
      <trkpt lat="48.41328" lon="2.40667">
        <ele>90.599998474121</ele>
        <time>2025-06-08T07:40:18.000Z</time>
      </trkpt>
      <trkpt lat="48.41331" lon="2.40681">
        <ele>90.599998474121</ele>
        <time>2025-06-08T07:40:20.000Z</time>
      </trkpt>
      <trkpt lat="48.41333" lon="2.40699">
        <ele>90.599998474121</ele>
        <time>2025-06-08T07:40:23.000Z</time>
      </trkpt>
      <trkpt lat="48.41345" lon="2.40721">
        <ele>91.199996948242</ele>
        <time>2025-06-08T07:40:28.000Z</time>
      </trkpt>
      <trkpt lat="48.41351" lon="2.40737">
        <ele>92.400001525879</ele>
        <time>2025-06-08T07:40:31.000Z</time>
      </trkpt>
      <trkpt lat="48.41355" lon="2.40749">
        <ele>92.800003051758</ele>
        <time>2025-06-08T07:40:33.000Z</time>
      </trkpt>
      <trkpt lat="48.41366" lon="2.40782">
        <ele>93.400001525879</ele>
        <time>2025-06-08T07:40:39.000Z</time>
      </trkpt>
      <trkpt lat="48.41368" lon="2.40788">
        <ele>93.599998474121</ele>
        <time>2025-06-08T07:40:40.000Z</time>
      </trkpt>
      <trkpt lat="48.41381" lon="2.40808">
        <ele>93.800003051758</ele>
        <time>2025-06-08T07:40:45.000Z</time>
      </trkpt>
      <trkpt lat="48.41385" lon="2.40817">
        <ele>94</ele>
        <time>2025-06-08T07:40:47.000Z</time>
      </trkpt>
      <trkpt lat="48.41391" lon="2.40828">
        <ele>94</ele>
        <time>2025-06-08T07:40:49.000Z</time>
      </trkpt>
      <trkpt lat="48.41403" lon="2.40851">
        <ele>94.400001525879</ele>
        <time>2025-06-08T07:40:53.000Z</time>
      </trkpt>
      <trkpt lat="48.41409" lon="2.40869">
        <ele>94.400001525879</ele>
        <time>2025-06-08T07:40:56.000Z</time>
      </trkpt>
      <trkpt lat="48.41422" lon="2.40908">
        <ele>94.400001525879</ele>
        <time>2025-06-08T07:41:02.000Z</time>
      </trkpt>
      <trkpt lat="48.41439" lon="2.40948">
        <ele>94.199996948242</ele>
        <time>2025-06-08T07:41:09.000Z</time>
      </trkpt>
      <trkpt lat="48.41458" lon="2.40985">
        <ele>94.400001525879</ele>
        <time>2025-06-08T07:41:16.000Z</time>
      </trkpt>
      <trkpt lat="48.4146" lon="2.4099">
        <ele>94.400001525879</ele>
        <time>2025-06-08T07:41:17.000Z</time>
      </trkpt>
      <trkpt lat="48.41465" lon="2.41011">
        <ele>94.599998474121</ele>
        <time>2025-06-08T07:41:21.000Z</time>
      </trkpt>
      <trkpt lat="48.41466" lon="2.41044">
        <ele>95.599998474121</ele>
        <time>2025-06-08T07:41:27.000Z</time>
      </trkpt>
      <trkpt lat="48.41471" lon="2.41066">
        <ele>96.599998474121</ele>
        <time>2025-06-08T07:41:31.000Z</time>
      </trkpt>
      <trkpt lat="48.41472" lon="2.41072">
        <ele>96.599998474121</ele>
        <time>2025-06-08T07:41:32.000Z</time>
      </trkpt>
      <trkpt lat="48.41479" lon="2.411">
        <ele>97.599998474121</ele>
        <time>2025-06-08T07:41:38.000Z</time>
      </trkpt>
      <trkpt lat="48.41482" lon="2.41108">
        <ele>98</ele>
        <time>2025-06-08T07:41:40.000Z</time>
      </trkpt>
      <trkpt lat="48.41483" lon="2.41116">
        <ele>98.599998474121</ele>
        <time>2025-06-08T07:41:42.000Z</time>
      </trkpt>
      <trkpt lat="48.41485" lon="2.41126">
        <ele>99.800003051758</ele>
        <time>2025-06-08T07:41:45.000Z</time>
      </trkpt>
      <trkpt lat="48.41487" lon="2.41132">
        <ele>100.40000152588</ele>
        <time>2025-06-08T07:41:47.000Z</time>
      </trkpt>
      <trkpt lat="48.41488" lon="2.41135">
        <ele>100.80000305176</ele>
        <time>2025-06-08T07:41:48.000Z</time>
      </trkpt>
      <trkpt lat="48.4149" lon="2.4114">
        <ele>102</ele>
        <time>2025-06-08T07:41:50.000Z</time>
      </trkpt>
      <trkpt lat="48.41493" lon="2.41145">
        <ele>103</ele>
        <time>2025-06-08T07:41:53.000Z</time>
      </trkpt>
      <trkpt lat="48.41495" lon="2.41148">
        <ele>103.19999694824</ele>
        <time>2025-06-08T07:41:54.000Z</time>
      </trkpt>
      <trkpt lat="48.415" lon="2.41159">
        <ele>104.40000152588</ele>
        <time>2025-06-08T07:41:58.000Z</time>
      </trkpt>
      <trkpt lat="48.41501" lon="2.41162">
        <ele>104.59999847412</ele>
        <time>2025-06-08T07:41:59.000Z</time>
      </trkpt>
      <trkpt lat="48.41502" lon="2.41173">
        <ele>105.59999847412</ele>
        <time>2025-06-08T07:42:03.000Z</time>
      </trkpt>
      <trkpt lat="48.41502" lon="2.41179">
        <ele>106.19999694824</ele>
        <time>2025-06-08T07:42:05.000Z</time>
      </trkpt>
      <trkpt lat="48.41503" lon="2.41188">
        <ele>106.59999847412</ele>
        <time>2025-06-08T07:42:08.000Z</time>
      </trkpt>
      <trkpt lat="48.41504" lon="2.41203">
        <ele>107.19999694824</ele>
        <time>2025-06-08T07:42:12.000Z</time>
      </trkpt>
      <trkpt lat="48.41505" lon="2.41214">
        <ele>108</ele>
        <time>2025-06-08T07:42:15.000Z</time>
      </trkpt>
      <trkpt lat="48.41507" lon="2.4123">
        <ele>109</ele>
        <time>2025-06-08T07:42:20.000Z</time>
      </trkpt>
      <trkpt lat="48.41513" lon="2.41248">
        <ele>110.19999694824</ele>
        <time>2025-06-08T07:42:26.000Z</time>
      </trkpt>
      <trkpt lat="48.41515" lon="2.41263">
        <ele>111.40000152588</ele>
        <time>2025-06-08T07:42:31.000Z</time>
      </trkpt>
      <trkpt lat="48.41516" lon="2.41269">
        <ele>112</ele>
        <time>2025-06-08T07:42:33.000Z</time>
      </trkpt>
      <trkpt lat="48.41517" lon="2.41274">
        <ele>112.80000305176</ele>
        <time>2025-06-08T07:42:35.000Z</time>
      </trkpt>
      <trkpt lat="48.41518" lon="2.41286">
        <ele>114</ele>
        <time>2025-06-08T07:42:40.000Z</time>
      </trkpt>
      <trkpt lat="48.41517" lon="2.41297">
        <ele>115</ele>
        <time>2025-06-08T07:42:44.000Z</time>
      </trkpt>
      <trkpt lat="48.41514" lon="2.41307">
        <ele>115.80000305176</ele>
        <time>2025-06-08T07:42:47.000Z</time>
      </trkpt>
      <trkpt lat="48.41514" lon="2.41312">
        <ele>116.19999694824</ele>
        <time>2025-06-08T07:42:49.000Z</time>
      </trkpt>
      <trkpt lat="48.41514" lon="2.41326">
        <ele>117.40000152588</ele>
        <time>2025-06-08T07:42:53.000Z</time>
      </trkpt>
      <trkpt lat="48.41515" lon="2.41329">
        <ele>117.59999847412</ele>
        <time>2025-06-08T07:42:54.000Z</time>
      </trkpt>
      <trkpt lat="48.41516" lon="2.41342">
        <ele>118.59999847412</ele>
        <time>2025-06-08T07:42:59.000Z</time>
      </trkpt>
      <trkpt lat="48.41515" lon="2.41352">
        <ele>119.19999694824</ele>
        <time>2025-06-08T07:43:03.000Z</time>
      </trkpt>
      <trkpt lat="48.41516" lon="2.41357">
        <ele>119.59999847412</ele>
        <time>2025-06-08T07:43:05.000Z</time>
      </trkpt>
      <trkpt lat="48.41517" lon="2.41364">
        <ele>120.19999694824</ele>
        <time>2025-06-08T07:43:08.000Z</time>
      </trkpt>
      <trkpt lat="48.41518" lon="2.41366">
        <ele>120.59999847412</ele>
        <time>2025-06-08T07:43:09.000Z</time>
      </trkpt>
      <trkpt lat="48.41519" lon="2.41376">
        <ele>121.59999847412</ele>
        <time>2025-06-08T07:43:14.000Z</time>
      </trkpt>
      <trkpt lat="48.41519" lon="2.41378">
        <ele>121.80000305176</ele>
        <time>2025-06-08T07:43:15.000Z</time>
      </trkpt>
      <trkpt lat="48.41523" lon="2.41387">
        <ele>122.80000305176</ele>
        <time>2025-06-08T07:43:19.000Z</time>
      </trkpt>
      <trkpt lat="48.41523" lon="2.41396">
        <ele>124</ele>
        <time>2025-06-08T07:43:23.000Z</time>
      </trkpt>
      <trkpt lat="48.41526" lon="2.41402">
        <ele>125</ele>
        <time>2025-06-08T07:43:27.000Z</time>
      </trkpt>
      <trkpt lat="48.41527" lon="2.41403">
        <ele>125</ele>
        <time>2025-06-08T07:43:28.000Z</time>
      </trkpt>
      <trkpt lat="48.41528" lon="2.41404">
        <ele>125.19999694824</ele>
        <time>2025-06-08T07:43:29.000Z</time>
      </trkpt>
      <trkpt lat="48.41531" lon="2.41404">
        <ele>125.40000152588</ele>
        <time>2025-06-08T07:43:30.000Z</time>
      </trkpt>
      <trkpt lat="48.41535" lon="2.41396">
        <ele>126</ele>
        <time>2025-06-08T07:43:34.000Z</time>
      </trkpt>
      <trkpt lat="48.41538" lon="2.41391">
        <ele>126</ele>
        <time>2025-06-08T07:43:36.000Z</time>
      </trkpt>
      <trkpt lat="48.41539" lon="2.41384">
        <ele>126</ele>
        <time>2025-06-08T07:43:39.000Z</time>
      </trkpt>
      <trkpt lat="48.41539" lon="2.41382">
        <ele>126</ele>
        <time>2025-06-08T07:43:40.000Z</time>
      </trkpt>
      <trkpt lat="48.41538" lon="2.4136">
        <ele>125.80000305176</ele>
        <time>2025-06-08T07:43:45.000Z</time>
      </trkpt>
      <trkpt lat="48.41541" lon="2.41343">
        <ele>124.59999847412</ele>
        <time>2025-06-08T07:43:49.000Z</time>
      </trkpt>
      <trkpt lat="48.41541" lon="2.4134">
        <ele>124.40000152588</ele>
        <time>2025-06-08T07:43:50.000Z</time>
      </trkpt>
      <trkpt lat="48.41541" lon="2.41322">
        <ele>123.59999847412</ele>
        <time>2025-06-08T07:43:54.000Z</time>
      </trkpt>
      <trkpt lat="48.41544" lon="2.41318">
        <ele>123.40000152588</ele>
        <time>2025-06-08T07:43:55.000Z</time>
      </trkpt>
      <trkpt lat="48.41558" lon="2.41293">
        <ele>122.40000152588</ele>
        <time>2025-06-08T07:44:01.000Z</time>
      </trkpt>
      <trkpt lat="48.41556" lon="2.41282">
        <ele>121.80000305176</ele>
        <time>2025-06-08T07:44:04.000Z</time>
      </trkpt>
      <trkpt lat="48.41555" lon="2.41278">
        <ele>121.59999847412</ele>
        <time>2025-06-08T07:44:05.000Z</time>
      </trkpt>
      <trkpt lat="48.41555" lon="2.41268">
        <ele>121.40000152588</ele>
        <time>2025-06-08T07:44:07.000Z</time>
      </trkpt>
      <trkpt lat="48.41554" lon="2.4126">
        <ele>121.19999694824</ele>
        <time>2025-06-08T07:44:09.000Z</time>
      </trkpt>
      <trkpt lat="48.41557" lon="2.4123">
        <ele>119.80000305176</ele>
        <time>2025-06-08T07:44:14.000Z</time>
      </trkpt>
      <trkpt lat="48.41555" lon="2.4122">
        <ele>118.80000305176</ele>
        <time>2025-06-08T07:44:15.000Z</time>
      </trkpt>
      <trkpt lat="48.41555" lon="2.41214">
        <ele>118</ele>
        <time>2025-06-08T07:44:16.000Z</time>
      </trkpt>
      <trkpt lat="48.41558" lon="2.41201">
        <ele>115.80000305176</ele>
        <time>2025-06-08T07:44:18.000Z</time>
      </trkpt>
      <trkpt lat="48.41558" lon="2.41186">
        <ele>114.19999694824</ele>
        <time>2025-06-08T07:44:20.000Z</time>
      </trkpt>
      <trkpt lat="48.41564" lon="2.4117">
        <ele>113.59999847412</ele>
        <time>2025-06-08T07:44:22.000Z</time>
      </trkpt>
      <trkpt lat="48.41566" lon="2.41162">
        <ele>113.19999694824</ele>
        <time>2025-06-08T07:44:23.000Z</time>
      </trkpt>
      <trkpt lat="48.4157" lon="2.41148">
        <ele>112.19999694824</ele>
        <time>2025-06-08T07:44:25.000Z</time>
      </trkpt>
      <trkpt lat="48.41571" lon="2.41142">
        <ele>111.80000305176</ele>
        <time>2025-06-08T07:44:26.000Z</time>
      </trkpt>
      <trkpt lat="48.41574" lon="2.41134">
        <ele>111.19999694824</ele>
        <time>2025-06-08T07:44:28.000Z</time>
      </trkpt>
      <trkpt lat="48.41571" lon="2.41129">
        <ele>110.80000305176</ele>
        <time>2025-06-08T07:44:29.000Z</time>
      </trkpt>
      <trkpt lat="48.41567" lon="2.41114">
        <ele>110</ele>
        <time>2025-06-08T07:44:32.000Z</time>
      </trkpt>
      <trkpt lat="48.41568" lon="2.41106">
        <ele>109.59999847412</ele>
        <time>2025-06-08T07:44:34.000Z</time>
      </trkpt>
      <trkpt lat="48.41571" lon="2.41103">
        <ele>109.59999847412</ele>
        <time>2025-06-08T07:44:35.000Z</time>
      </trkpt>
      <trkpt lat="48.41573" lon="2.41101">
        <ele>109.40000152588</ele>
        <time>2025-06-08T07:44:36.000Z</time>
      </trkpt>
      <trkpt lat="48.41582" lon="2.41089">
        <ele>108.19999694824</ele>
        <time>2025-06-08T07:44:40.000Z</time>
      </trkpt>
      <trkpt lat="48.41585" lon="2.41084">
        <ele>107.80000305176</ele>
        <time>2025-06-08T07:44:42.000Z</time>
      </trkpt>
      <trkpt lat="48.41583" lon="2.41076">
        <ele>107.59999847412</ele>
        <time>2025-06-08T07:44:44.000Z</time>
      </trkpt>
      <trkpt lat="48.41584" lon="2.41067">
        <ele>107.19999694824</ele>
        <time>2025-06-08T07:44:46.000Z</time>
      </trkpt>
      <trkpt lat="48.41589" lon="2.4106">
        <ele>106.80000305176</ele>
        <time>2025-06-08T07:44:48.000Z</time>
      </trkpt>
      <trkpt lat="48.41603" lon="2.4104">
        <ele>107.40000152588</ele>
        <time>2025-06-08T07:44:55.000Z</time>
      </trkpt>
      <trkpt lat="48.41628" lon="2.41027">
        <ele>108.19999694824</ele>
        <time>2025-06-08T07:45:01.000Z</time>
      </trkpt>
      <trkpt lat="48.41633" lon="2.41021">
        <ele>108.40000152588</ele>
        <time>2025-06-08T07:45:03.000Z</time>
      </trkpt>
      <trkpt lat="48.41642" lon="2.41008">
        <ele>109</ele>
        <time>2025-06-08T07:45:07.000Z</time>
      </trkpt>
      <trkpt lat="48.41653" lon="2.40991">
        <ele>109</ele>
        <time>2025-06-08T07:45:12.000Z</time>
      </trkpt>
      <trkpt lat="48.41667" lon="2.40975">
        <ele>109</ele>
        <time>2025-06-08T07:45:18.000Z</time>
      </trkpt>
      <trkpt lat="48.41669" lon="2.40962">
        <ele>108.40000152588</ele>
        <time>2025-06-08T07:45:21.000Z</time>
      </trkpt>
      <trkpt lat="48.41667" lon="2.40958">
        <ele>108.19999694824</ele>
        <time>2025-06-08T07:45:22.000Z</time>
      </trkpt>
      <trkpt lat="48.41663" lon="2.40928">
        <ele>107.80000305176</ele>
        <time>2025-06-08T07:45:26.000Z</time>
      </trkpt>
      <trkpt lat="48.4166" lon="2.40912">
        <ele>107.80000305176</ele>
        <time>2025-06-08T07:45:28.000Z</time>
      </trkpt>
      <trkpt lat="48.4166" lon="2.40897">
        <ele>107.19999694824</ele>
        <time>2025-06-08T07:45:30.000Z</time>
      </trkpt>
      <trkpt lat="48.41662" lon="2.40884">
        <ele>105.80000305176</ele>
        <time>2025-06-08T07:45:32.000Z</time>
      </trkpt>
      <trkpt lat="48.41664" lon="2.40876">
        <ele>104.80000305176</ele>
        <time>2025-06-08T07:45:33.000Z</time>
      </trkpt>
      <trkpt lat="48.41667" lon="2.40868">
        <ele>104</ele>
        <time>2025-06-08T07:45:34.000Z</time>
      </trkpt>
      <trkpt lat="48.41669" lon="2.40859">
        <ele>103.59999847412</ele>
        <time>2025-06-08T07:45:35.000Z</time>
      </trkpt>
      <trkpt lat="48.41672" lon="2.40851">
        <ele>102.59999847412</ele>
        <time>2025-06-08T07:45:36.000Z</time>
      </trkpt>
      <trkpt lat="48.41675" lon="2.40844">
        <ele>101.40000152588</ele>
        <time>2025-06-08T07:45:37.000Z</time>
      </trkpt>
      <trkpt lat="48.41678" lon="2.40837">
        <ele>100</ele>
        <time>2025-06-08T07:45:38.000Z</time>
      </trkpt>
      <trkpt lat="48.4168" lon="2.40831">
        <ele>98.800003051758</ele>
        <time>2025-06-08T07:45:39.000Z</time>
      </trkpt>
      <trkpt lat="48.41689" lon="2.40819">
        <ele>97.599998474121</ele>
        <time>2025-06-08T07:45:41.000Z</time>
      </trkpt>
      <trkpt lat="48.41691" lon="2.40815">
        <ele>96.800003051758</ele>
        <time>2025-06-08T07:45:42.000Z</time>
      </trkpt>
      <trkpt lat="48.41695" lon="2.40813">
        <ele>96</ele>
        <time>2025-06-08T07:45:43.000Z</time>
      </trkpt>
      <trkpt lat="48.417" lon="2.40814">
        <ele>94.800003051758</ele>
        <time>2025-06-08T07:45:44.000Z</time>
      </trkpt>
      <trkpt lat="48.41703" lon="2.40816">
        <ele>93.800003051758</ele>
        <time>2025-06-08T07:45:45.000Z</time>
      </trkpt>
      <trkpt lat="48.41706" lon="2.4082">
        <ele>92.800003051758</ele>
        <time>2025-06-08T07:45:46.000Z</time>
      </trkpt>
      <trkpt lat="48.41712" lon="2.40833">
        <ele>92</ele>
        <time>2025-06-08T07:45:49.000Z</time>
      </trkpt>
      <trkpt lat="48.41714" lon="2.40842">
        <ele>91.800003051758</ele>
        <time>2025-06-08T07:45:53.000Z</time>
      </trkpt>
      <trkpt lat="48.41714" lon="2.40856">
        <ele>93</ele>
        <time>2025-06-08T07:45:59.000Z</time>
      </trkpt>
      <trkpt lat="48.41715" lon="2.40859">
        <ele>93.800003051758</ele>
        <time>2025-06-08T07:46:01.000Z</time>
      </trkpt>
      <trkpt lat="48.41714" lon="2.40862">
        <ele>95</ele>
        <time>2025-06-08T07:46:03.000Z</time>
      </trkpt>
      <trkpt lat="48.41713" lon="2.40866">
        <ele>95.800003051758</ele>
        <time>2025-06-08T07:46:06.000Z</time>
      </trkpt>
      <trkpt lat="48.41713" lon="2.40868">
        <ele>96</ele>
        <time>2025-06-08T07:46:07.000Z</time>
      </trkpt>
      <trkpt lat="48.41716" lon="2.40879">
        <ele>97.199996948242</ele>
        <time>2025-06-08T07:46:12.000Z</time>
      </trkpt>
      <trkpt lat="48.41719" lon="2.40885">
        <ele>98.400001525879</ele>
        <time>2025-06-08T07:46:16.000Z</time>
      </trkpt>
      <trkpt lat="48.41721" lon="2.40886">
        <ele>98.599998474121</ele>
        <time>2025-06-08T07:46:17.000Z</time>
      </trkpt>
      <trkpt lat="48.41723" lon="2.40889">
        <ele>98.800003051758</ele>
        <time>2025-06-08T07:46:19.000Z</time>
      </trkpt>
      <trkpt lat="48.41727" lon="2.40896">
        <ele>99.599998474121</ele>
        <time>2025-06-08T07:46:23.000Z</time>
      </trkpt>
      <trkpt lat="48.41728" lon="2.409">
        <ele>100.19999694824</ele>
        <time>2025-06-08T07:46:25.000Z</time>
      </trkpt>
      <trkpt lat="48.4173" lon="2.40902">
        <ele>100.80000305176</ele>
        <time>2025-06-08T07:46:27.000Z</time>
      </trkpt>
      <trkpt lat="48.41734" lon="2.40908">
        <ele>102</ele>
        <time>2025-06-08T07:46:31.000Z</time>
      </trkpt>
      <trkpt lat="48.41735" lon="2.40912">
        <ele>102.80000305176</ele>
        <time>2025-06-08T07:46:33.000Z</time>
      </trkpt>
      <trkpt lat="48.41737" lon="2.40913">
        <ele>103</ele>
        <time>2025-06-08T07:46:34.000Z</time>
      </trkpt>
      <trkpt lat="48.41738" lon="2.40914">
        <ele>103.40000152588</ele>
        <time>2025-06-08T07:46:35.000Z</time>
      </trkpt>
      <trkpt lat="48.41739" lon="2.40916">
        <ele>104.19999694824</ele>
        <time>2025-06-08T07:46:37.000Z</time>
      </trkpt>
      <trkpt lat="48.4174" lon="2.40917">
        <ele>104.59999847412</ele>
        <time>2025-06-08T07:46:38.000Z</time>
      </trkpt>
      <trkpt lat="48.41742" lon="2.40918">
        <ele>105.19999694824</ele>
        <time>2025-06-08T07:46:40.000Z</time>
      </trkpt>
      <trkpt lat="48.41749" lon="2.4092">
        <ele>106.59999847412</ele>
        <time>2025-06-08T07:46:44.000Z</time>
      </trkpt>
      <trkpt lat="48.41757" lon="2.4092">
        <ele>107.59999847412</ele>
        <time>2025-06-08T07:46:48.000Z</time>
      </trkpt>
      <trkpt lat="48.41761" lon="2.40922">
        <ele>108.40000152588</ele>
        <time>2025-06-08T07:46:51.000Z</time>
      </trkpt>
      <trkpt lat="48.41765" lon="2.40924">
        <ele>109</ele>
        <time>2025-06-08T07:46:53.000Z</time>
      </trkpt>
      <trkpt lat="48.41769" lon="2.40924">
        <ele>109.40000152588</ele>
        <time>2025-06-08T07:46:55.000Z</time>
      </trkpt>
      <trkpt lat="48.41772" lon="2.40925">
        <ele>109.40000152588</ele>
        <time>2025-06-08T07:46:56.000Z</time>
      </trkpt>
      <trkpt lat="48.4178" lon="2.40942">
        <ele>109.40000152588</ele>
        <time>2025-06-08T07:47:00.000Z</time>
      </trkpt>
      <trkpt lat="48.41791" lon="2.40968">
        <ele>108</ele>
        <time>2025-06-08T07:47:06.000Z</time>
      </trkpt>
      <trkpt lat="48.41797" lon="2.40986">
        <ele>107.40000152588</ele>
        <time>2025-06-08T07:47:11.000Z</time>
      </trkpt>
      <trkpt lat="48.4181" lon="2.41">
        <ele>107.19999694824</ele>
        <time>2025-06-08T07:47:16.000Z</time>
      </trkpt>
      <trkpt lat="48.41813" lon="2.41">
        <ele>107.40000152588</ele>
        <time>2025-06-08T07:47:17.000Z</time>
      </trkpt>
      <trkpt lat="48.41824" lon="2.40997">
        <ele>107.59999847412</ele>
        <time>2025-06-08T07:47:19.000Z</time>
      </trkpt>
      <trkpt lat="48.41855" lon="2.40994">
        <ele>108</ele>
        <time>2025-06-08T07:47:25.000Z</time>
      </trkpt>
      <trkpt lat="48.41869" lon="2.40997">
        <ele>108.19999694824</ele>
        <time>2025-06-08T07:47:29.000Z</time>
      </trkpt>
      <trkpt lat="48.41885" lon="2.40994">
        <ele>108.80000305176</ele>
        <time>2025-06-08T07:47:34.000Z</time>
      </trkpt>
      <trkpt lat="48.41886" lon="2.40995">
        <ele>109</ele>
        <time>2025-06-08T07:47:35.000Z</time>
      </trkpt>
      <trkpt lat="48.4189" lon="2.40995">
        <ele>109.40000152588</ele>
        <time>2025-06-08T07:47:38.000Z</time>
      </trkpt>
      <trkpt lat="48.41894" lon="2.40995">
        <ele>109.80000305176</ele>
        <time>2025-06-08T07:47:40.000Z</time>
      </trkpt>
      <trkpt lat="48.41896" lon="2.40993">
        <ele>110.19999694824</ele>
        <time>2025-06-08T07:47:41.000Z</time>
      </trkpt>
      <trkpt lat="48.41903" lon="2.40985">
        <ele>111.40000152588</ele>
        <time>2025-06-08T07:47:44.000Z</time>
      </trkpt>
      <trkpt lat="48.41905" lon="2.40983">
        <ele>111.80000305176</ele>
        <time>2025-06-08T07:47:45.000Z</time>
      </trkpt>
      <trkpt lat="48.41907" lon="2.40978">
        <ele>112.59999847412</ele>
        <time>2025-06-08T07:47:47.000Z</time>
      </trkpt>
      <trkpt lat="48.41909" lon="2.40971">
        <ele>113.80000305176</ele>
        <time>2025-06-08T07:47:50.000Z</time>
      </trkpt>
      <trkpt lat="48.41911" lon="2.40968">
        <ele>114.19999694824</ele>
        <time>2025-06-08T07:47:51.000Z</time>
      </trkpt>
      <trkpt lat="48.41915" lon="2.40961">
        <ele>115</ele>
        <time>2025-06-08T07:47:54.000Z</time>
      </trkpt>
      <trkpt lat="48.41918" lon="2.4095">
        <ele>115.19999694824</ele>
        <time>2025-06-08T07:47:58.000Z</time>
      </trkpt>
      <trkpt lat="48.41917" lon="2.40945">
        <ele>115.40000152588</ele>
        <time>2025-06-08T07:48:00.000Z</time>
      </trkpt>
      <trkpt lat="48.41916" lon="2.40942">
        <ele>115.40000152588</ele>
        <time>2025-06-08T07:48:02.000Z</time>
      </trkpt>
      <trkpt lat="48.41914" lon="2.40939">
        <ele>115.80000305176</ele>
        <time>2025-06-08T07:48:04.000Z</time>
      </trkpt>
      <trkpt lat="48.41913" lon="2.40934">
        <ele>116.59999847412</ele>
        <time>2025-06-08T07:48:06.000Z</time>
      </trkpt>
      <trkpt lat="48.41912" lon="2.40932">
        <ele>116.80000305176</ele>
        <time>2025-06-08T07:48:07.000Z</time>
      </trkpt>
      <trkpt lat="48.41909" lon="2.40929">
        <ele>117.40000152588</ele>
        <time>2025-06-08T07:48:09.000Z</time>
      </trkpt>
      <trkpt lat="48.419" lon="2.40927">
        <ele>117.40000152588</ele>
        <time>2025-06-08T07:48:13.000Z</time>
      </trkpt>
      <trkpt lat="48.41894" lon="2.40926">
        <ele>117.40000152588</ele>
        <time>2025-06-08T07:48:15.000Z</time>
      </trkpt>
      <trkpt lat="48.41878" lon="2.40926">
        <ele>116.80000305176</ele>
        <time>2025-06-08T07:48:20.000Z</time>
      </trkpt>
      <trkpt lat="48.41865" lon="2.40921">
        <ele>115.40000152588</ele>
        <time>2025-06-08T07:48:24.000Z</time>
      </trkpt>
      <trkpt lat="48.41862" lon="2.4092">
        <ele>115</ele>
        <time>2025-06-08T07:48:25.000Z</time>
      </trkpt>
      <trkpt lat="48.41852" lon="2.40914">
        <ele>114</ele>
        <time>2025-06-08T07:48:28.000Z</time>
      </trkpt>
      <trkpt lat="48.41846" lon="2.40907">
        <ele>113.59999847412</ele>
        <time>2025-06-08T07:48:30.000Z</time>
      </trkpt>
      <trkpt lat="48.41842" lon="2.40896">
        <ele>113</ele>
        <time>2025-06-08T07:48:33.000Z</time>
      </trkpt>
      <trkpt lat="48.41838" lon="2.40889">
        <ele>112.80000305176</ele>
        <time>2025-06-08T07:48:35.000Z</time>
      </trkpt>
      <trkpt lat="48.41825" lon="2.40866">
        <ele>112.80000305176</ele>
        <time>2025-06-08T07:48:41.000Z</time>
      </trkpt>
      <trkpt lat="48.4182" lon="2.40863">
        <ele>113</ele>
        <time>2025-06-08T07:48:43.000Z</time>
      </trkpt>
      <trkpt lat="48.41816" lon="2.40854">
        <ele>113.80000305176</ele>
        <time>2025-06-08T07:48:46.000Z</time>
      </trkpt>
      <trkpt lat="48.41815" lon="2.4085">
        <ele>113.59999847412</ele>
        <time>2025-06-08T07:48:47.000Z</time>
      </trkpt>
      <trkpt lat="48.4181" lon="2.4083">
        <ele>114</ele>
        <time>2025-06-08T07:48:52.000Z</time>
      </trkpt>
      <trkpt lat="48.41808" lon="2.40797">
        <ele>115.40000152588</ele>
        <time>2025-06-08T07:49:00.000Z</time>
      </trkpt>
      <trkpt lat="48.41808" lon="2.40759">
        <ele>115.59999847412</ele>
        <time>2025-06-08T07:49:08.000Z</time>
      </trkpt>
      <trkpt lat="48.41811" lon="2.40735">
        <ele>115.40000152588</ele>
        <time>2025-06-08T07:49:13.000Z</time>
      </trkpt>
      <trkpt lat="48.41821" lon="2.40719">
        <ele>114</ele>
        <time>2025-06-08T07:49:17.000Z</time>
      </trkpt>
      <trkpt lat="48.41824" lon="2.40715">
        <ele>113.40000152588</ele>
        <time>2025-06-08T07:49:18.000Z</time>
      </trkpt>
      <trkpt lat="48.41826" lon="2.40706">
        <ele>112.59999847412</ele>
        <time>2025-06-08T07:49:20.000Z</time>
      </trkpt>
      <trkpt lat="48.4183" lon="2.40697">
        <ele>112.19999694824</ele>
        <time>2025-06-08T07:49:22.000Z</time>
      </trkpt>
      <trkpt lat="48.41837" lon="2.4067">
        <ele>111.59999847412</ele>
        <time>2025-06-08T07:49:26.000Z</time>
      </trkpt>
      <trkpt lat="48.41839" lon="2.40664">
        <ele>111.59999847412</ele>
        <time>2025-06-08T07:49:27.000Z</time>
      </trkpt>
      <trkpt lat="48.41851" lon="2.40647">
        <ele>110.80000305176</ele>
        <time>2025-06-08T07:49:31.000Z</time>
      </trkpt>
      <trkpt lat="48.41854" lon="2.40643">
        <ele>110.19999694824</ele>
        <time>2025-06-08T07:49:32.000Z</time>
      </trkpt>
      <trkpt lat="48.41859" lon="2.40636">
        <ele>109</ele>
        <time>2025-06-08T07:49:34.000Z</time>
      </trkpt>
      <trkpt lat="48.41864" lon="2.40633">
        <ele>108</ele>
        <time>2025-06-08T07:49:36.000Z</time>
      </trkpt>
      <trkpt lat="48.41865" lon="2.40634">
        <ele>107.80000305176</ele>
        <time>2025-06-08T07:49:37.000Z</time>
      </trkpt>
      <trkpt lat="48.41873" lon="2.40638">
        <ele>107.59999847412</ele>
        <time>2025-06-08T07:49:41.000Z</time>
      </trkpt>
      <trkpt lat="48.41885" lon="2.40653">
        <ele>108.59999847412</ele>
        <time>2025-06-08T07:49:49.000Z</time>
      </trkpt>
      <trkpt lat="48.41887" lon="2.40654">
        <ele>109</ele>
        <time>2025-06-08T07:49:50.000Z</time>
      </trkpt>
      <trkpt lat="48.4189" lon="2.40658">
        <ele>110.19999694824</ele>
        <time>2025-06-08T07:49:52.000Z</time>
      </trkpt>
      <trkpt lat="48.41896" lon="2.40663">
        <ele>111.40000152588</ele>
        <time>2025-06-08T07:49:56.000Z</time>
      </trkpt>
      <trkpt lat="48.41897" lon="2.40664">
        <ele>111.59999847412</ele>
        <time>2025-06-08T07:49:57.000Z</time>
      </trkpt>
      <trkpt lat="48.41909" lon="2.40677">
        <ele>112.19999694824</ele>
        <time>2025-06-08T07:50:02.000Z</time>
      </trkpt>
      <trkpt lat="48.41923" lon="2.40697">
        <ele>112.19999694824</ele>
        <time>2025-06-08T07:50:08.000Z</time>
      </trkpt>
      <trkpt lat="48.41932" lon="2.40726">
        <ele>111.59999847412</ele>
        <time>2025-06-08T07:50:14.000Z</time>
      </trkpt>
      <trkpt lat="48.41941" lon="2.40735">
        <ele>111.59999847412</ele>
        <time>2025-06-08T07:50:17.000Z</time>
      </trkpt>
      <trkpt lat="48.41941" lon="2.40737">
        <ele>111.59999847412</ele>
        <time>2025-06-08T07:50:18.000Z</time>
      </trkpt>
      <trkpt lat="48.41941" lon="2.40746">
        <ele>111.59999847412</ele>
        <time>2025-06-08T07:50:21.000Z</time>
      </trkpt>
      <trkpt lat="48.41941" lon="2.40753">
        <ele>111.80000305176</ele>
        <time>2025-06-08T07:50:23.000Z</time>
      </trkpt>
      <trkpt lat="48.41945" lon="2.40769">
        <ele>112.40000152588</ele>
        <time>2025-06-08T07:50:28.000Z</time>
      </trkpt>
      <trkpt lat="48.41945" lon="2.40771">
        <ele>112.59999847412</ele>
        <time>2025-06-08T07:50:29.000Z</time>
      </trkpt>
      <trkpt lat="48.41945" lon="2.40772">
        <ele>112.80000305176</ele>
        <time>2025-06-08T07:50:30.000Z</time>
      </trkpt>
      <trkpt lat="48.41945" lon="2.40776">
        <ele>113.19999694824</ele>
        <time>2025-06-08T07:50:34.000Z</time>
      </trkpt>
      <trkpt lat="48.41946" lon="2.40779">
        <ele>113.59999847412</ele>
        <time>2025-06-08T07:50:36.000Z</time>
      </trkpt>
      <trkpt lat="48.41947" lon="2.40784">
        <ele>114.80000305176</ele>
        <time>2025-06-08T07:50:39.000Z</time>
      </trkpt>
      <trkpt lat="48.41946" lon="2.40787">
        <ele>115</ele>
        <time>2025-06-08T07:50:40.000Z</time>
      </trkpt>
      <trkpt lat="48.41944" lon="2.40793">
        <ele>116</ele>
        <time>2025-06-08T07:50:42.000Z</time>
      </trkpt>
      <trkpt lat="48.41941" lon="2.40816">
        <ele>116.80000305176</ele>
        <time>2025-06-08T07:50:49.000Z</time>
      </trkpt>
      <trkpt lat="48.4194" lon="2.4083">
        <ele>117</ele>
        <time>2025-06-08T07:50:52.000Z</time>
      </trkpt>
      <trkpt lat="48.41939" lon="2.40833">
        <ele>117</ele>
        <time>2025-06-08T07:50:53.000Z</time>
      </trkpt>
      <trkpt lat="48.41935" lon="2.40861">
        <ele>116.80000305176</ele>
        <time>2025-06-08T07:51:01.000Z</time>
      </trkpt>
      <trkpt lat="48.41936" lon="2.40896">
        <ele>116.19999694824</ele>
        <time>2025-06-08T07:51:07.000Z</time>
      </trkpt>
      <trkpt lat="48.41938" lon="2.40905">
        <ele>116.19999694824</ele>
        <time>2025-06-08T07:51:11.000Z</time>
      </trkpt>
      <trkpt lat="48.4194" lon="2.4091">
        <ele>116</ele>
        <time>2025-06-08T07:51:13.000Z</time>
      </trkpt>
      <trkpt lat="48.41943" lon="2.40919">
        <ele>116</ele>
        <time>2025-06-08T07:51:15.000Z</time>
      </trkpt>
      <trkpt lat="48.41943" lon="2.40923">
        <ele>115.80000305176</ele>
        <time>2025-06-08T07:51:16.000Z</time>
      </trkpt>
      <trkpt lat="48.41944" lon="2.40926">
        <ele>115.59999847412</ele>
        <time>2025-06-08T07:51:17.000Z</time>
      </trkpt>
      <trkpt lat="48.41956" lon="2.40939">
        <ele>115.40000152588</ele>
        <time>2025-06-08T07:51:23.000Z</time>
      </trkpt>
      <trkpt lat="48.41957" lon="2.40938">
        <ele>115.59999847412</ele>
        <time>2025-06-08T07:51:24.000Z</time>
      </trkpt>
      <trkpt lat="48.41963" lon="2.40936">
        <ele>115.80000305176</ele>
        <time>2025-06-08T07:51:31.000Z</time>
      </trkpt>
      <trkpt lat="48.41973" lon="2.40937">
        <ele>117</ele>
        <time>2025-06-08T07:51:38.000Z</time>
      </trkpt>
      <trkpt lat="48.42004" lon="2.40916">
        <ele>107.40000152588</ele>
        <time>2025-06-08T08:01:11.000Z</time>
      </trkpt>
      <trkpt lat="48.42008" lon="2.40913">
        <ele>107.40000152588</ele>
        <time>2025-06-08T08:01:17.000Z</time>
      </trkpt>
      <trkpt lat="48.42011" lon="2.40909">
        <ele>104.59999847412</ele>
        <time>2025-06-08T08:01:19.000Z</time>
      </trkpt>
      <trkpt lat="48.42012" lon="2.40907">
        <ele>106.40000152588</ele>
        <time>2025-06-08T08:01:20.000Z</time>
      </trkpt>
      <trkpt lat="48.42018" lon="2.40902">
        <ele>107.80000305176</ele>
        <time>2025-06-08T08:01:22.000Z</time>
      </trkpt>
      <trkpt lat="48.42021" lon="2.40899">
        <ele>108</ele>
        <time>2025-06-08T08:01:23.000Z</time>
      </trkpt>
      <trkpt lat="48.42028" lon="2.4088">
        <ele>106.40000152588</ele>
        <time>2025-06-08T08:01:27.000Z</time>
      </trkpt>
      <trkpt lat="48.4203" lon="2.40878">
        <ele>104.59999847412</ele>
        <time>2025-06-08T08:01:28.000Z</time>
      </trkpt>
      <trkpt lat="48.42033" lon="2.40877">
        <ele>102.40000152588</ele>
        <time>2025-06-08T08:01:29.000Z</time>
      </trkpt>
      <trkpt lat="48.42035" lon="2.40877">
        <ele>100.59999847412</ele>
        <time>2025-06-08T08:01:30.000Z</time>
      </trkpt>
      <trkpt lat="48.42037" lon="2.40878">
        <ele>99.599998474121</ele>
        <time>2025-06-08T08:01:31.000Z</time>
      </trkpt>
      <trkpt lat="48.42039" lon="2.40878">
        <ele>99</ele>
        <time>2025-06-08T08:01:32.000Z</time>
      </trkpt>
      <trkpt lat="48.42042" lon="2.40879">
        <ele>98.400001525879</ele>
        <time>2025-06-08T08:01:33.000Z</time>
      </trkpt>
      <trkpt lat="48.42048" lon="2.40883">
        <ele>97</ele>
        <time>2025-06-08T08:01:35.000Z</time>
      </trkpt>
      <trkpt lat="48.42055" lon="2.40889">
        <ele>96.599998474121</ele>
        <time>2025-06-08T08:01:37.000Z</time>
      </trkpt>
      <trkpt lat="48.42075" lon="2.40908">
        <ele>96.400001525879</ele>
        <time>2025-06-08T08:01:43.000Z</time>
      </trkpt>
      <trkpt lat="48.42087" lon="2.4092">
        <ele>97</ele>
        <time>2025-06-08T08:01:48.000Z</time>
      </trkpt>
      <trkpt lat="48.4209" lon="2.40922">
        <ele>97.400001525879</ele>
        <time>2025-06-08T08:01:49.000Z</time>
      </trkpt>
      <trkpt lat="48.42095" lon="2.40924">
        <ele>98.599998474121</ele>
        <time>2025-06-08T08:01:51.000Z</time>
      </trkpt>
      <trkpt lat="48.42101" lon="2.40926">
        <ele>99.800003051758</ele>
        <time>2025-06-08T08:01:54.000Z</time>
      </trkpt>
      <trkpt lat="48.42103" lon="2.40927">
        <ele>100.19999694824</ele>
        <time>2025-06-08T08:01:55.000Z</time>
      </trkpt>
      <trkpt lat="48.42107" lon="2.40931">
        <ele>100.80000305176</ele>
        <time>2025-06-08T08:01:57.000Z</time>
      </trkpt>
      <trkpt lat="48.42112" lon="2.40935">
        <ele>102</ele>
        <time>2025-06-08T08:02:00.000Z</time>
      </trkpt>
      <trkpt lat="48.42113" lon="2.40934">
        <ele>102.80000305176</ele>
        <time>2025-06-08T08:02:01.000Z</time>
      </trkpt>
      <trkpt lat="48.42114" lon="2.40933">
        <ele>103.40000152588</ele>
        <time>2025-06-08T08:02:02.000Z</time>
      </trkpt>
      <trkpt lat="48.42118" lon="2.40928">
        <ele>104.80000305176</ele>
        <time>2025-06-08T08:02:05.000Z</time>
      </trkpt>
      <trkpt lat="48.42119" lon="2.40926">
        <ele>105.40000152588</ele>
        <time>2025-06-08T08:02:06.000Z</time>
      </trkpt>
      <trkpt lat="48.4212" lon="2.40925">
        <ele>105.80000305176</ele>
        <time>2025-06-08T08:02:07.000Z</time>
      </trkpt>
      <trkpt lat="48.42125" lon="2.40924">
        <ele>107.19999694824</ele>
        <time>2025-06-08T08:02:10.000Z</time>
      </trkpt>
      <trkpt lat="48.42126" lon="2.40924">
        <ele>107.59999847412</ele>
        <time>2025-06-08T08:02:11.000Z</time>
      </trkpt>
      <trkpt lat="48.42127" lon="2.40926">
        <ele>107.80000305176</ele>
        <time>2025-06-08T08:02:12.000Z</time>
      </trkpt>
      <trkpt lat="48.4213" lon="2.40929">
        <ele>108.40000152588</ele>
        <time>2025-06-08T08:02:14.000Z</time>
      </trkpt>
      <trkpt lat="48.42138" lon="2.40929">
        <ele>109.19999694824</ele>
        <time>2025-06-08T08:02:18.000Z</time>
      </trkpt>
      <trkpt lat="48.4214" lon="2.40928">
        <ele>109.40000152588</ele>
        <time>2025-06-08T08:02:19.000Z</time>
      </trkpt>
      <trkpt lat="48.42145" lon="2.40918">
        <ele>110</ele>
        <time>2025-06-08T08:02:24.000Z</time>
      </trkpt>
      <trkpt lat="48.42146" lon="2.40916">
        <ele>110.19999694824</ele>
        <time>2025-06-08T08:02:25.000Z</time>
      </trkpt>
      <trkpt lat="48.42152" lon="2.40914">
        <ele>110.59999847412</ele>
        <time>2025-06-08T08:02:28.000Z</time>
      </trkpt>
      <trkpt lat="48.4216" lon="2.40921">
        <ele>110.80000305176</ele>
        <time>2025-06-08T08:02:33.000Z</time>
      </trkpt>
      <trkpt lat="48.42162" lon="2.40923">
        <ele>110.80000305176</ele>
        <time>2025-06-08T08:02:34.000Z</time>
      </trkpt>
      <trkpt lat="48.42169" lon="2.40929">
        <ele>111.40000152588</ele>
        <time>2025-06-08T08:02:38.000Z</time>
      </trkpt>
      <trkpt lat="48.42171" lon="2.40927">
        <ele>111.40000152588</ele>
        <time>2025-06-08T08:02:39.000Z</time>
      </trkpt>
      <trkpt lat="48.42178" lon="2.40907">
        <ele>111.40000152588</ele>
        <time>2025-06-08T08:02:43.000Z</time>
      </trkpt>
      <trkpt lat="48.42175" lon="2.40894">
        <ele>111</ele>
        <time>2025-06-08T08:02:47.000Z</time>
      </trkpt>
      <trkpt lat="48.42172" lon="2.40886">
        <ele>109</ele>
        <time>2025-06-08T08:02:50.000Z</time>
      </trkpt>
      <trkpt lat="48.42168" lon="2.40877">
        <ele>108.19999694824</ele>
        <time>2025-06-08T08:02:52.000Z</time>
      </trkpt>
      <trkpt lat="48.42163" lon="2.40871">
        <ele>108</ele>
        <time>2025-06-08T08:02:54.000Z</time>
      </trkpt>
      <trkpt lat="48.42152" lon="2.40863">
        <ele>107.80000305176</ele>
        <time>2025-06-08T08:02:57.000Z</time>
      </trkpt>
      <trkpt lat="48.42141" lon="2.40862">
        <ele>107.80000305176</ele>
        <time>2025-06-08T08:02:59.000Z</time>
      </trkpt>
      <trkpt lat="48.42134" lon="2.40862">
        <ele>107.80000305176</ele>
        <time>2025-06-08T08:03:00.000Z</time>
      </trkpt>
      <trkpt lat="48.42127" lon="2.40864">
        <ele>107.80000305176</ele>
        <time>2025-06-08T08:03:01.000Z</time>
      </trkpt>
      <trkpt lat="48.4211" lon="2.40868">
        <ele>106.40000152588</ele>
        <time>2025-06-08T08:03:04.000Z</time>
      </trkpt>
      <trkpt lat="48.42106" lon="2.40864">
        <ele>105.19999694824</ele>
        <time>2025-06-08T08:03:05.000Z</time>
      </trkpt>
      <trkpt lat="48.42101" lon="2.40859">
        <ele>104.19999694824</ele>
        <time>2025-06-08T08:03:06.000Z</time>
      </trkpt>
      <trkpt lat="48.42097" lon="2.40846">
        <ele>102.80000305176</ele>
        <time>2025-06-08T08:03:08.000Z</time>
      </trkpt>
      <trkpt lat="48.42095" lon="2.40839">
        <ele>102.40000152588</ele>
        <time>2025-06-08T08:03:09.000Z</time>
      </trkpt>
      <trkpt lat="48.42092" lon="2.40819">
        <ele>101.80000305176</ele>
        <time>2025-06-08T08:03:11.000Z</time>
      </trkpt>
      <trkpt lat="48.42091" lon="2.40809">
        <ele>101.59999847412</ele>
        <time>2025-06-08T08:03:12.000Z</time>
      </trkpt>
      <trkpt lat="48.42094" lon="2.40789">
        <ele>99.800003051758</ele>
        <time>2025-06-08T08:03:14.000Z</time>
      </trkpt>
      <trkpt lat="48.42095" lon="2.40771">
        <ele>98.800003051758</ele>
        <time>2025-06-08T08:03:16.000Z</time>
      </trkpt>
      <trkpt lat="48.42096" lon="2.40761">
        <ele>97.800003051758</ele>
        <time>2025-06-08T08:03:17.000Z</time>
      </trkpt>
      <trkpt lat="48.42097" lon="2.40742">
        <ele>95.800003051758</ele>
        <time>2025-06-08T08:03:19.000Z</time>
      </trkpt>
      <trkpt lat="48.42099" lon="2.40734">
        <ele>94.199996948242</ele>
        <time>2025-06-08T08:03:20.000Z</time>
      </trkpt>
      <trkpt lat="48.421" lon="2.40726">
        <ele>93</ele>
        <time>2025-06-08T08:03:21.000Z</time>
      </trkpt>
      <trkpt lat="48.421" lon="2.40718">
        <ele>92</ele>
        <time>2025-06-08T08:03:22.000Z</time>
      </trkpt>
      <trkpt lat="48.42099" lon="2.40709">
        <ele>91.400001525879</ele>
        <time>2025-06-08T08:03:23.000Z</time>
      </trkpt>
      <trkpt lat="48.42094" lon="2.40696">
        <ele>89.400001525879</ele>
        <time>2025-06-08T08:03:25.000Z</time>
      </trkpt>
      <trkpt lat="48.42092" lon="2.40689">
        <ele>88</ele>
        <time>2025-06-08T08:03:26.000Z</time>
      </trkpt>
      <trkpt lat="48.42091" lon="2.40673">
        <ele>86.800003051758</ele>
        <time>2025-06-08T08:03:28.000Z</time>
      </trkpt>
      <trkpt lat="48.42092" lon="2.40665">
        <ele>86</ele>
        <time>2025-06-08T08:03:29.000Z</time>
      </trkpt>
      <trkpt lat="48.42094" lon="2.40657">
        <ele>85.199996948242</ele>
        <time>2025-06-08T08:03:30.000Z</time>
      </trkpt>
      <trkpt lat="48.42101" lon="2.40641">
        <ele>84</ele>
        <time>2025-06-08T08:03:32.000Z</time>
      </trkpt>
      <trkpt lat="48.42104" lon="2.40633">
        <ele>82.599998474121</ele>
        <time>2025-06-08T08:03:33.000Z</time>
      </trkpt>
      <trkpt lat="48.42104" lon="2.40623">
        <ele>82</ele>
        <time>2025-06-08T08:03:34.000Z</time>
      </trkpt>
      <trkpt lat="48.42105" lon="2.40612">
        <ele>81.599998474121</ele>
        <time>2025-06-08T08:03:35.000Z</time>
      </trkpt>
      <trkpt lat="48.42106" lon="2.40602">
        <ele>81.199996948242</ele>
        <time>2025-06-08T08:03:36.000Z</time>
      </trkpt>
      <trkpt lat="48.42104" lon="2.40582">
        <ele>80</ele>
        <time>2025-06-08T08:03:38.000Z</time>
      </trkpt>
      <trkpt lat="48.42101" lon="2.40562">
        <ele>78.400001525879</ele>
        <time>2025-06-08T08:03:40.000Z</time>
      </trkpt>
      <trkpt lat="48.42099" lon="2.40552">
        <ele>77.800003051758</ele>
        <time>2025-06-08T08:03:41.000Z</time>
      </trkpt>
      <trkpt lat="48.42096" lon="2.40542">
        <ele>77.199996948242</ele>
        <time>2025-06-08T08:03:42.000Z</time>
      </trkpt>
      <trkpt lat="48.42093" lon="2.40524">
        <ele>76.199996948242</ele>
        <time>2025-06-08T08:03:44.000Z</time>
      </trkpt>
      <trkpt lat="48.42095" lon="2.40506">
        <ele>75.599998474121</ele>
        <time>2025-06-08T08:03:46.000Z</time>
      </trkpt>
      <trkpt lat="48.42095" lon="2.40486">
        <ele>75.199996948242</ele>
        <time>2025-06-08T08:03:48.000Z</time>
      </trkpt>
      <trkpt lat="48.42095" lon="2.40456">
        <ele>74.800003051758</ele>
        <time>2025-06-08T08:03:51.000Z</time>
      </trkpt>
      <trkpt lat="48.42099" lon="2.40408">
        <ele>74</ele>
        <time>2025-06-08T08:03:56.000Z</time>
      </trkpt>
      <trkpt lat="48.42099" lon="2.40397">
        <ele>73.599998474121</ele>
        <time>2025-06-08T08:03:57.000Z</time>
      </trkpt>
      <trkpt lat="48.42097" lon="2.40361">
        <ele>73</ele>
        <time>2025-06-08T08:04:01.000Z</time>
      </trkpt>
      <trkpt lat="48.42095" lon="2.40352">
        <ele>72.800003051758</ele>
        <time>2025-06-08T08:04:02.000Z</time>
      </trkpt>
      <trkpt lat="48.42092" lon="2.40341">
        <ele>72.800003051758</ele>
        <time>2025-06-08T08:04:03.000Z</time>
      </trkpt>
      <trkpt lat="48.42081" lon="2.40301">
        <ele>72.199996948242</ele>
        <time>2025-06-08T08:04:07.000Z</time>
      </trkpt>
      <trkpt lat="48.42073" lon="2.40272">
        <ele>71.800003051758</ele>
        <time>2025-06-08T08:04:10.000Z</time>
      </trkpt>
      <trkpt lat="48.42062" lon="2.40237">
        <ele>71.400001525879</ele>
        <time>2025-06-08T08:04:14.000Z</time>
      </trkpt>
      <trkpt lat="48.42049" lon="2.40204">
        <ele>70.599998474121</ele>
        <time>2025-06-08T08:04:18.000Z</time>
      </trkpt>
      <trkpt lat="48.42045" lon="2.40195">
        <ele>70.400001525879</ele>
        <time>2025-06-08T08:04:19.000Z</time>
      </trkpt>
      <trkpt lat="48.42028" lon="2.40148">
        <ele>69.800003051758</ele>
        <time>2025-06-08T08:04:25.000Z</time>
      </trkpt>
      <trkpt lat="48.42021" lon="2.4012">
        <ele>69.800003051758</ele>
        <time>2025-06-08T08:04:30.000Z</time>
      </trkpt>
      <trkpt lat="48.42021" lon="2.40109">
        <ele>69.800003051758</ele>
        <time>2025-06-08T08:04:32.000Z</time>
      </trkpt>
      <trkpt lat="48.42022" lon="2.40099">
        <ele>70.199996948242</ele>
        <time>2025-06-08T08:04:34.000Z</time>
      </trkpt>
      <trkpt lat="48.42031" lon="2.4007">
        <ele>70.800003051758</ele>
        <time>2025-06-08T08:04:40.000Z</time>
      </trkpt>
      <trkpt lat="48.42034" lon="2.40043">
        <ele>71.800003051758</ele>
        <time>2025-06-08T08:04:45.000Z</time>
      </trkpt>
      <trkpt lat="48.42032" lon="2.40036">
        <ele>72.199996948242</ele>
        <time>2025-06-08T08:04:46.000Z</time>
      </trkpt>
      <trkpt lat="48.42029" lon="2.4002">
        <ele>73</ele>
        <time>2025-06-08T08:04:49.000Z</time>
      </trkpt>
      <trkpt lat="48.42026" lon="2.40007">
        <ele>73.400001525879</ele>
        <time>2025-06-08T08:04:51.000Z</time>
      </trkpt>
      <trkpt lat="48.42022" lon="2.39982">
        <ele>74.199996948242</ele>
        <time>2025-06-08T08:04:55.000Z</time>
      </trkpt>
      <trkpt lat="48.4202" lon="2.39962">
        <ele>74.599998474121</ele>
        <time>2025-06-08T08:04:58.000Z</time>
      </trkpt>
      <trkpt lat="48.42017" lon="2.39939">
        <ele>75</ele>
        <time>2025-06-08T08:05:02.000Z</time>
      </trkpt>
      <trkpt lat="48.42017" lon="2.39934">
        <ele>75.199996948242</ele>
        <time>2025-06-08T08:05:03.000Z</time>
      </trkpt>
      <trkpt lat="48.42013" lon="2.39912">
        <ele>75.800003051758</ele>
        <time>2025-06-08T08:05:07.000Z</time>
      </trkpt>
      <trkpt lat="48.4201" lon="2.39902">
        <ele>76.199996948242</ele>
        <time>2025-06-08T08:05:09.000Z</time>
      </trkpt>
      <trkpt lat="48.42005" lon="2.39889">
        <ele>77</ele>
        <time>2025-06-08T08:05:12.000Z</time>
      </trkpt>
      <trkpt lat="48.42002" lon="2.39883">
        <ele>77.400001525879</ele>
        <time>2025-06-08T08:05:13.000Z</time>
      </trkpt>
      <trkpt lat="48.41986" lon="2.39852">
        <ele>77.599998474121</ele>
        <time>2025-06-08T08:05:18.000Z</time>
      </trkpt>
      <trkpt lat="48.41982" lon="2.39826">
        <ele>77.599998474121</ele>
        <time>2025-06-08T08:05:22.000Z</time>
      </trkpt>
      <trkpt lat="48.4198" lon="2.39782">
        <ele>77.599998474121</ele>
        <time>2025-06-08T08:05:28.000Z</time>
      </trkpt>
      <trkpt lat="48.41975" lon="2.39744">
        <ele>77.599998474121</ele>
        <time>2025-06-08T08:05:34.000Z</time>
      </trkpt>
      <trkpt lat="48.41973" lon="2.39706">
        <ele>77.800003051758</ele>
        <time>2025-06-08T08:05:39.000Z</time>
      </trkpt>
      <trkpt lat="48.41969" lon="2.3967">
        <ele>78</ele>
        <time>2025-06-08T08:05:44.000Z</time>
      </trkpt>
      <trkpt lat="48.41964" lon="2.39652">
        <ele>78</ele>
        <time>2025-06-08T08:05:46.000Z</time>
      </trkpt>
      <trkpt lat="48.41956" lon="2.39628">
        <ele>77.599998474121</ele>
        <time>2025-06-08T08:05:49.000Z</time>
      </trkpt>
      <trkpt lat="48.41944" lon="2.39594">
        <ele>76.800003051758</ele>
        <time>2025-06-08T08:05:53.000Z</time>
      </trkpt>
      <trkpt lat="48.41944" lon="2.39585">
        <ele>76.400001525879</ele>
        <time>2025-06-08T08:05:54.000Z</time>
      </trkpt>
      <trkpt lat="48.41947" lon="2.39568">
        <ele>75.800003051758</ele>
        <time>2025-06-08T08:05:56.000Z</time>
      </trkpt>
      <trkpt lat="48.41948" lon="2.3956">
        <ele>75.199996948242</ele>
        <time>2025-06-08T08:05:57.000Z</time>
      </trkpt>
      <trkpt lat="48.41949" lon="2.39551">
        <ele>74.599998474121</ele>
        <time>2025-06-08T08:05:58.000Z</time>
      </trkpt>
      <trkpt lat="48.41949" lon="2.39533">
        <ele>72.800003051758</ele>
        <time>2025-06-08T08:06:00.000Z</time>
      </trkpt>
      <trkpt lat="48.41947" lon="2.39507">
        <ele>72.199996948242</ele>
        <time>2025-06-08T08:06:03.000Z</time>
      </trkpt>
      <trkpt lat="48.41944" lon="2.3949">
        <ele>72</ele>
        <time>2025-06-08T08:06:07.000Z</time>
      </trkpt>
      <trkpt lat="48.4194" lon="2.39468">
        <ele>71.800003051758</ele>
        <time>2025-06-08T08:06:12.000Z</time>
      </trkpt>
      <trkpt lat="48.41934" lon="2.39427">
        <ele>71.400001525879</ele>
        <time>2025-06-08T08:06:18.000Z</time>
      </trkpt>
      <trkpt lat="48.4193" lon="2.39417">
        <ele>71.400001525879</ele>
        <time>2025-06-08T08:06:20.000Z</time>
      </trkpt>
      <trkpt lat="48.41926" lon="2.39416">
        <ele>71.199996948242</ele>
        <time>2025-06-08T08:06:21.000Z</time>
      </trkpt>
      <trkpt lat="48.41912" lon="2.39422">
        <ele>70.800003051758</ele>
        <time>2025-06-08T08:06:24.000Z</time>
      </trkpt>
      <trkpt lat="48.41901" lon="2.39409">
        <ele>70.199996948242</ele>
        <time>2025-06-08T08:06:27.000Z</time>
      </trkpt>
      <trkpt lat="48.41898" lon="2.39384">
        <ele>70</ele>
        <time>2025-06-08T08:06:30.000Z</time>
      </trkpt>
      <trkpt lat="48.41898" lon="2.39374">
        <ele>69.800003051758</ele>
        <time>2025-06-08T08:06:31.000Z</time>
      </trkpt>
      <trkpt lat="48.41897" lon="2.39365">
        <ele>69.599998474121</ele>
        <time>2025-06-08T08:06:32.000Z</time>
      </trkpt>
      <trkpt lat="48.41896" lon="2.39347">
        <ele>68.599998474121</ele>
        <time>2025-06-08T08:06:34.000Z</time>
      </trkpt>
      <trkpt lat="48.41895" lon="2.39338">
        <ele>68.199996948242</ele>
        <time>2025-06-08T08:06:35.000Z</time>
      </trkpt>
      <trkpt lat="48.41893" lon="2.39319">
        <ele>67.400001525879</ele>
        <time>2025-06-08T08:06:37.000Z</time>
      </trkpt>
      <trkpt lat="48.41892" lon="2.39309">
        <ele>67.199996948242</ele>
        <time>2025-06-08T08:06:38.000Z</time>
      </trkpt>
      <trkpt lat="48.4189" lon="2.393">
        <ele>67.199996948242</ele>
        <time>2025-06-08T08:06:39.000Z</time>
      </trkpt>
      <trkpt lat="48.41886" lon="2.39262">
        <ele>66.599998474121</ele>
        <time>2025-06-08T08:06:43.000Z</time>
      </trkpt>
      <trkpt lat="48.41884" lon="2.39236">
        <ele>66.400001525879</ele>
        <time>2025-06-08T08:06:46.000Z</time>
      </trkpt>
      <trkpt lat="48.41882" lon="2.39213">
        <ele>66</ele>
        <time>2025-06-08T08:06:49.000Z</time>
      </trkpt>
      <trkpt lat="48.4188" lon="2.39164">
        <ele>65.800003051758</ele>
        <time>2025-06-08T08:06:56.000Z</time>
      </trkpt>
      <trkpt lat="48.41876" lon="2.39124">
        <ele>66.199996948242</ele>
        <time>2025-06-08T08:07:03.000Z</time>
      </trkpt>
      <trkpt lat="48.41874" lon="2.39097">
        <ele>66.199996948242</ele>
        <time>2025-06-08T08:07:08.000Z</time>
      </trkpt>
      <trkpt lat="48.41879" lon="2.39076">
        <ele>66.199996948242</ele>
        <time>2025-06-08T08:07:12.000Z</time>
      </trkpt>
      <trkpt lat="48.41882" lon="2.39071">
        <ele>66</ele>
        <time>2025-06-08T08:07:13.000Z</time>
      </trkpt>
      <trkpt lat="48.41884" lon="2.39051">
        <ele>66</ele>
        <time>2025-06-08T08:07:16.000Z</time>
      </trkpt>
      <trkpt lat="48.41884" lon="2.39044">
        <ele>65.800003051758</ele>
        <time>2025-06-08T08:07:17.000Z</time>
      </trkpt>
      <trkpt lat="48.41884" lon="2.39007">
        <ele>65.599998474121</ele>
        <time>2025-06-08T08:07:22.000Z</time>
      </trkpt>
      <trkpt lat="48.41883" lon="2.38998">
        <ele>65.400001525879</ele>
        <time>2025-06-08T08:07:23.000Z</time>
      </trkpt>
      <trkpt lat="48.41878" lon="2.3898">
        <ele>65.199996948242</ele>
        <time>2025-06-08T08:07:25.000Z</time>
      </trkpt>
      <trkpt lat="48.41876" lon="2.38971">
        <ele>65</ele>
        <time>2025-06-08T08:07:26.000Z</time>
      </trkpt>
      <trkpt lat="48.41865" lon="2.38912">
        <ele>64.400001525879</ele>
        <time>2025-06-08T08:07:33.000Z</time>
      </trkpt>
      <trkpt lat="48.41864" lon="2.38903">
        <ele>64.199996948242</ele>
        <time>2025-06-08T08:07:34.000Z</time>
      </trkpt>
      <trkpt lat="48.41864" lon="2.38886">
        <ele>63.799999237061</ele>
        <time>2025-06-08T08:07:36.000Z</time>
      </trkpt>
      <trkpt lat="48.41864" lon="2.38863">
        <ele>63.400001525879</ele>
        <time>2025-06-08T08:07:39.000Z</time>
      </trkpt>
      <trkpt lat="48.41863" lon="2.38847">
        <ele>63.200000762939</ele>
        <time>2025-06-08T08:07:41.000Z</time>
      </trkpt>
      <trkpt lat="48.41861" lon="2.38824">
        <ele>63.200000762939</ele>
        <time>2025-06-08T08:07:44.000Z</time>
      </trkpt>
      <trkpt lat="48.41868" lon="2.38806">
        <ele>63.200000762939</ele>
        <time>2025-06-08T08:07:47.000Z</time>
      </trkpt>
      <trkpt lat="48.41881" lon="2.388">
        <ele>63.200000762939</ele>
        <time>2025-06-08T08:07:50.000Z</time>
      </trkpt>
      <trkpt lat="48.4189" lon="2.38796">
        <ele>63.200000762939</ele>
        <time>2025-06-08T08:07:52.000Z</time>
      </trkpt>
      <trkpt lat="48.4191" lon="2.38786">
        <ele>62.799999237061</ele>
        <time>2025-06-08T08:07:56.000Z</time>
      </trkpt>
      <trkpt lat="48.41944" lon="2.38767">
        <ele>63</ele>
        <time>2025-06-08T08:08:03.000Z</time>
      </trkpt>
      <trkpt lat="48.41981" lon="2.38745">
        <ele>62.599998474121</ele>
        <time>2025-06-08T08:08:10.000Z</time>
      </trkpt>
      <trkpt lat="48.42014" lon="2.38724">
        <ele>62.200000762939</ele>
        <time>2025-06-08T08:08:16.000Z</time>
      </trkpt>
      <trkpt lat="48.42026" lon="2.38718">
        <ele>62</ele>
        <time>2025-06-08T08:08:18.000Z</time>
      </trkpt>
      <trkpt lat="48.42032" lon="2.38714">
        <ele>61.799999237061</ele>
        <time>2025-06-08T08:08:19.000Z</time>
      </trkpt>
      <trkpt lat="48.42059" lon="2.38696">
        <ele>61.400001525879</ele>
        <time>2025-06-08T08:08:24.000Z</time>
      </trkpt>
      <trkpt lat="48.42095" lon="2.38674">
        <ele>61.400001525879</ele>
        <time>2025-06-08T08:08:31.000Z</time>
      </trkpt>
      <trkpt lat="48.42121" lon="2.38658">
        <ele>61.799999237061</ele>
        <time>2025-06-08T08:08:36.000Z</time>
      </trkpt>
      <trkpt lat="48.42136" lon="2.38649">
        <ele>62</ele>
        <time>2025-06-08T08:08:39.000Z</time>
      </trkpt>
      <trkpt lat="48.42156" lon="2.38637">
        <ele>62</ele>
        <time>2025-06-08T08:08:43.000Z</time>
      </trkpt>
      <trkpt lat="48.42197" lon="2.38613">
        <ele>62</ele>
        <time>2025-06-08T08:08:51.000Z</time>
      </trkpt>
      <trkpt lat="48.42233" lon="2.38589">
        <ele>61.400001525879</ele>
        <time>2025-06-08T08:08:58.000Z</time>
      </trkpt>
      <trkpt lat="48.4228" lon="2.38558">
        <ele>61.400001525879</ele>
        <time>2025-06-08T08:09:06.000Z</time>
      </trkpt>
      <trkpt lat="48.42329" lon="2.38529">
        <ele>61.400001525879</ele>
        <time>2025-06-08T08:09:14.000Z</time>
      </trkpt>
      <trkpt lat="48.4234" lon="2.38523">
        <ele>61</ele>
        <time>2025-06-08T08:09:16.000Z</time>
      </trkpt>
      <trkpt lat="48.42362" lon="2.38509">
        <ele>60.599998474121</ele>
        <time>2025-06-08T08:09:20.000Z</time>
      </trkpt>
      <trkpt lat="48.42393" lon="2.38486">
        <ele>60.599998474121</ele>
        <time>2025-06-08T08:09:26.000Z</time>
      </trkpt>
      <trkpt lat="48.42424" lon="2.38464">
        <ele>61</ele>
        <time>2025-06-08T08:09:32.000Z</time>
      </trkpt>
      <trkpt lat="48.42457" lon="2.3844">
        <ele>61</ele>
        <time>2025-06-08T08:09:38.000Z</time>
      </trkpt>
      <trkpt lat="48.425" lon="2.38408">
        <ele>60.400001525879</ele>
        <time>2025-06-08T08:09:46.000Z</time>
      </trkpt>
      <trkpt lat="48.42536" lon="2.38381">
        <ele>60.400001525879</ele>
        <time>2025-06-08T08:09:53.000Z</time>
      </trkpt>
      <trkpt lat="48.42564" lon="2.38358">
        <ele>60.400001525879</ele>
        <time>2025-06-08T08:09:59.000Z</time>
      </trkpt>
      <trkpt lat="48.42567" lon="2.38352">
        <ele>60.400001525879</ele>
        <time>2025-06-08T08:10:00.000Z</time>
      </trkpt>
      <trkpt lat="48.42568" lon="2.38328">
        <ele>60.400001525879</ele>
        <time>2025-06-08T08:10:03.000Z</time>
      </trkpt>
      <trkpt lat="48.42572" lon="2.38306">
        <ele>60.400001525879</ele>
        <time>2025-06-08T08:10:06.000Z</time>
      </trkpt>
      <trkpt lat="48.42586" lon="2.38285">
        <ele>60.599998474121</ele>
        <time>2025-06-08T08:10:10.000Z</time>
      </trkpt>
      <trkpt lat="48.42603" lon="2.38272">
        <ele>60.599998474121</ele>
        <time>2025-06-08T08:10:14.000Z</time>
      </trkpt>
      <trkpt lat="48.42608" lon="2.3827">
        <ele>60.599998474121</ele>
        <time>2025-06-08T08:10:15.000Z</time>
      </trkpt>
      <trkpt lat="48.42637" lon="2.38261">
        <ele>60.599998474121</ele>
        <time>2025-06-08T08:10:20.000Z</time>
      </trkpt>
      <trkpt lat="48.42649" lon="2.38259">
        <ele>60.599998474121</ele>
        <time>2025-06-08T08:10:22.000Z</time>
      </trkpt>
      <trkpt lat="48.4266" lon="2.38254">
        <ele>60.599998474121</ele>
        <time>2025-06-08T08:10:24.000Z</time>
      </trkpt>
      <trkpt lat="48.42665" lon="2.3825">
        <ele>60.599998474121</ele>
        <time>2025-06-08T08:10:25.000Z</time>
      </trkpt>
      <trkpt lat="48.42684" lon="2.38235">
        <ele>60.599998474121</ele>
        <time>2025-06-08T08:10:29.000Z</time>
      </trkpt>
      <trkpt lat="48.42715" lon="2.38212">
        <ele>60.599998474121</ele>
        <time>2025-06-08T08:10:35.000Z</time>
      </trkpt>
      <trkpt lat="48.42743" lon="2.38194">
        <ele>60.799999237061</ele>
        <time>2025-06-08T08:10:40.000Z</time>
      </trkpt>
      <trkpt lat="48.42748" lon="2.3819">
        <ele>61</ele>
        <time>2025-06-08T08:10:41.000Z</time>
      </trkpt>
      <trkpt lat="48.42773" lon="2.38164">
        <ele>60.599998474121</ele>
        <time>2025-06-08T08:10:47.000Z</time>
      </trkpt>
      <trkpt lat="48.42791" lon="2.38146">
        <ele>60.400001525879</ele>
        <time>2025-06-08T08:10:51.000Z</time>
      </trkpt>
      <trkpt lat="48.42801" lon="2.38136">
        <ele>60.400001525879</ele>
        <time>2025-06-08T08:10:53.000Z</time>
      </trkpt>
      <trkpt lat="48.42814" lon="2.38121">
        <ele>60.400001525879</ele>
        <time>2025-06-08T08:10:56.000Z</time>
      </trkpt>
      <trkpt lat="48.42823" lon="2.38107">
        <ele>60.400001525879</ele>
        <time>2025-06-08T08:10:59.000Z</time>
      </trkpt>
      <trkpt lat="48.42841" lon="2.38093">
        <ele>61</ele>
        <time>2025-06-08T08:11:03.000Z</time>
      </trkpt>
      <trkpt lat="48.4285" lon="2.38085">
        <ele>61.400001525879</ele>
        <time>2025-06-08T08:11:05.000Z</time>
      </trkpt>
      <trkpt lat="48.4286" lon="2.38075">
        <ele>61.799999237061</ele>
        <time>2025-06-08T08:11:07.000Z</time>
      </trkpt>
      <trkpt lat="48.42866" lon="2.3807">
        <ele>61.799999237061</ele>
        <time>2025-06-08T08:11:08.000Z</time>
      </trkpt>
      <trkpt lat="48.42897" lon="2.38034">
        <ele>61.799999237061</ele>
        <time>2025-06-08T08:11:15.000Z</time>
      </trkpt>
      <trkpt lat="48.42902" lon="2.38033">
        <ele>61.799999237061</ele>
        <time>2025-06-08T08:11:16.000Z</time>
      </trkpt>
      <trkpt lat="48.4291" lon="2.38036">
        <ele>61.799999237061</ele>
        <time>2025-06-08T08:11:18.000Z</time>
      </trkpt>
      <trkpt lat="48.42921" lon="2.38056">
        <ele>61.799999237061</ele>
        <time>2025-06-08T08:11:22.000Z</time>
      </trkpt>
      <trkpt lat="48.42927" lon="2.38074">
        <ele>61.799999237061</ele>
        <time>2025-06-08T08:11:25.000Z</time>
      </trkpt>
      <trkpt lat="48.42933" lon="2.38091">
        <ele>62.400001525879</ele>
        <time>2025-06-08T08:11:28.000Z</time>
      </trkpt>
      <trkpt lat="48.42945" lon="2.38139">
        <ele>63</ele>
        <time>2025-06-08T08:11:35.000Z</time>
      </trkpt>
      <trkpt lat="48.42952" lon="2.38152">
        <ele>63</ele>
        <time>2025-06-08T08:11:38.000Z</time>
      </trkpt>
      <trkpt lat="48.42956" lon="2.38151">
        <ele>63</ele>
        <time>2025-06-08T08:11:39.000Z</time>
      </trkpt>
      <trkpt lat="48.42975" lon="2.38138">
        <ele>63.200000762939</ele>
        <time>2025-06-08T08:11:44.000Z</time>
      </trkpt>
      <trkpt lat="48.42984" lon="2.38133">
        <ele>63.599998474121</ele>
        <time>2025-06-08T08:11:46.000Z</time>
      </trkpt>
      <trkpt lat="48.42999" lon="2.38127">
        <ele>64.599998474121</ele>
        <time>2025-06-08T08:11:51.000Z</time>
      </trkpt>
      <trkpt lat="48.43001" lon="2.38126">
        <ele>65</ele>
        <time>2025-06-08T08:11:57.000Z</time>
      </trkpt>
      <trkpt lat="48.43003" lon="2.38125">
        <ele>65.199996948242</ele>
        <time>2025-06-08T08:11:58.000Z</time>
      </trkpt>
      <trkpt lat="48.43013" lon="2.38122">
        <ele>65.199996948242</ele>
        <time>2025-06-08T08:12:01.000Z</time>
      </trkpt>
      <trkpt lat="48.43034" lon="2.38118">
        <ele>65.599998474121</ele>
        <time>2025-06-08T08:12:06.000Z</time>
      </trkpt>
      <trkpt lat="48.43038" lon="2.38119">
        <ele>65.800003051758</ele>
        <time>2025-06-08T08:12:07.000Z</time>
      </trkpt>
      <trkpt lat="48.43047" lon="2.3813">
        <ele>66</ele>
        <time>2025-06-08T08:12:10.000Z</time>
      </trkpt>
      <trkpt lat="48.4305" lon="2.38143">
        <ele>66</ele>
        <time>2025-06-08T08:12:12.000Z</time>
      </trkpt>
      <trkpt lat="48.43055" lon="2.38163">
        <ele>66</ele>
        <time>2025-06-08T08:12:16.000Z</time>
      </trkpt>
      <trkpt lat="48.43059" lon="2.38168">
        <ele>66.199996948242</ele>
        <time>2025-06-08T08:12:18.000Z</time>
      </trkpt>
      <trkpt lat="48.43062" lon="2.38168">
        <ele>66.400001525879</ele>
        <time>2025-06-08T08:12:19.000Z</time>
      </trkpt>
      <trkpt lat="48.43069" lon="2.38163">
        <ele>67</ele>
        <time>2025-06-08T08:12:21.000Z</time>
      </trkpt>
      <trkpt lat="48.43076" lon="2.38154">
        <ele>67.199996948242</ele>
        <time>2025-06-08T08:12:23.000Z</time>
      </trkpt>
      <trkpt lat="48.4308" lon="2.3815">
        <ele>67.199996948242</ele>
        <time>2025-06-08T08:12:24.000Z</time>
      </trkpt>
      <trkpt lat="48.43105" lon="2.38124">
        <ele>67.599998474121</ele>
        <time>2025-06-08T08:12:30.000Z</time>
      </trkpt>
      <trkpt lat="48.43137" lon="2.38086">
        <ele>67.599998474121</ele>
        <time>2025-06-08T08:12:38.000Z</time>
      </trkpt>
      <trkpt lat="48.43157" lon="2.38061">
        <ele>67.599998474121</ele>
        <time>2025-06-08T08:12:43.000Z</time>
      </trkpt>
      <trkpt lat="48.43161" lon="2.38057">
        <ele>67.599998474121</ele>
        <time>2025-06-08T08:12:44.000Z</time>
      </trkpt>
      <trkpt lat="48.43169" lon="2.38048">
        <ele>67.800003051758</ele>
        <time>2025-06-08T08:12:46.000Z</time>
      </trkpt>
      <trkpt lat="48.43177" lon="2.38038">
        <ele>68</ele>
        <time>2025-06-08T08:12:48.000Z</time>
      </trkpt>
      <trkpt lat="48.43186" lon="2.38029">
        <ele>68</ele>
        <time>2025-06-08T08:12:50.000Z</time>
      </trkpt>
      <trkpt lat="48.43219" lon="2.38006">
        <ele>68.400001525879</ele>
        <time>2025-06-08T08:12:57.000Z</time>
      </trkpt>
      <trkpt lat="48.43256" lon="2.37977">
        <ele>68.599998474121</ele>
        <time>2025-06-08T08:13:05.000Z</time>
      </trkpt>
      <trkpt lat="48.43294" lon="2.3795">
        <ele>68.599998474121</ele>
        <time>2025-06-08T08:13:13.000Z</time>
      </trkpt>
      <trkpt lat="48.43334" lon="2.37927">
        <ele>68.599998474121</ele>
        <time>2025-06-08T08:13:20.000Z</time>
      </trkpt>
      <trkpt lat="48.43378" lon="2.37904">
        <ele>68.400001525879</ele>
        <time>2025-06-08T08:13:27.000Z</time>
      </trkpt>
      <trkpt lat="48.43407" lon="2.37883">
        <ele>67.400001525879</ele>
        <time>2025-06-08T08:13:32.000Z</time>
      </trkpt>
      <trkpt lat="48.43417" lon="2.37873">
        <ele>67.199996948242</ele>
        <time>2025-06-08T08:13:34.000Z</time>
      </trkpt>
      <trkpt lat="48.43426" lon="2.37864">
        <ele>67</ele>
        <time>2025-06-08T08:13:36.000Z</time>
      </trkpt>
      <trkpt lat="48.43434" lon="2.37857">
        <ele>66.400001525879</ele>
        <time>2025-06-08T08:13:38.000Z</time>
      </trkpt>
      <trkpt lat="48.43438" lon="2.3786">
        <ele>66.199996948242</ele>
        <time>2025-06-08T08:13:39.000Z</time>
      </trkpt>
      <trkpt lat="48.43446" lon="2.3788">
        <ele>66.199996948242</ele>
        <time>2025-06-08T08:13:42.000Z</time>
      </trkpt>
      <trkpt lat="48.43447" lon="2.37886">
        <ele>66.199996948242</ele>
        <time>2025-06-08T08:13:43.000Z</time>
      </trkpt>
      <trkpt lat="48.43459" lon="2.37924">
        <ele>67.400001525879</ele>
        <time>2025-06-08T08:13:50.000Z</time>
      </trkpt>
      <trkpt lat="48.43461" lon="2.37928">
        <ele>68</ele>
        <time>2025-06-08T08:13:51.000Z</time>
      </trkpt>
      <trkpt lat="48.43466" lon="2.3794">
        <ele>69</ele>
        <time>2025-06-08T08:13:54.000Z</time>
      </trkpt>
      <trkpt lat="48.43471" lon="2.3795">
        <ele>70</ele>
        <time>2025-06-08T08:13:57.000Z</time>
      </trkpt>
      <trkpt lat="48.43473" lon="2.37954">
        <ele>70.199996948242</ele>
        <time>2025-06-08T08:13:58.000Z</time>
      </trkpt>
      <trkpt lat="48.43478" lon="2.37963">
        <ele>71.199996948242</ele>
        <time>2025-06-08T08:14:01.000Z</time>
      </trkpt>
      <trkpt lat="48.43485" lon="2.37977">
        <ele>72.400001525879</ele>
        <time>2025-06-08T08:14:05.000Z</time>
      </trkpt>
      <trkpt lat="48.43493" lon="2.37993">
        <ele>73.400001525879</ele>
        <time>2025-06-08T08:14:09.000Z</time>
      </trkpt>
      <trkpt lat="48.43497" lon="2.38">
        <ele>73.800003051758</ele>
        <time>2025-06-08T08:14:11.000Z</time>
      </trkpt>
      <trkpt lat="48.43509" lon="2.38019">
        <ele>74.800003051758</ele>
        <time>2025-06-08T08:14:16.000Z</time>
      </trkpt>
      <trkpt lat="48.43514" lon="2.38028">
        <ele>75.199996948242</ele>
        <time>2025-06-08T08:14:18.000Z</time>
      </trkpt>
      <trkpt lat="48.43524" lon="2.38052">
        <ele>76</ele>
        <time>2025-06-08T08:14:23.000Z</time>
      </trkpt>
      <trkpt lat="48.43526" lon="2.38058">
        <ele>76.199996948242</ele>
        <time>2025-06-08T08:14:24.000Z</time>
      </trkpt>
      <trkpt lat="48.4354" lon="2.381">
        <ele>77</ele>
        <time>2025-06-08T08:14:31.000Z</time>
      </trkpt>
      <trkpt lat="48.43542" lon="2.38106">
        <ele>77</ele>
        <time>2025-06-08T08:14:32.000Z</time>
      </trkpt>
      <trkpt lat="48.43553" lon="2.38146">
        <ele>77.599998474121</ele>
        <time>2025-06-08T08:14:38.000Z</time>
      </trkpt>
      <trkpt lat="48.43566" lon="2.38187">
        <ele>77.800003051758</ele>
        <time>2025-06-08T08:14:44.000Z</time>
      </trkpt>
      <trkpt lat="48.43574" lon="2.38217">
        <ele>78</ele>
        <time>2025-06-08T08:14:48.000Z</time>
      </trkpt>
      <trkpt lat="48.43575" lon="2.38224">
        <ele>78</ele>
        <time>2025-06-08T08:14:49.000Z</time>
      </trkpt>
      <trkpt lat="48.43576" lon="2.3823">
        <ele>78</ele>
        <time>2025-06-08T08:14:50.000Z</time>
      </trkpt>
      <trkpt lat="48.43582" lon="2.3825">
        <ele>78.199996948242</ele>
        <time>2025-06-08T08:14:53.000Z</time>
      </trkpt>
      <trkpt lat="48.43584" lon="2.38264">
        <ele>78.199996948242</ele>
        <time>2025-06-08T08:14:55.000Z</time>
      </trkpt>
      <trkpt lat="48.43585" lon="2.38278">
        <ele>78.199996948242</ele>
        <time>2025-06-08T08:14:57.000Z</time>
      </trkpt>
      <trkpt lat="48.43586" lon="2.38299">
        <ele>78.599998474121</ele>
        <time>2025-06-08T08:15:00.000Z</time>
      </trkpt>
      <trkpt lat="48.43585" lon="2.38312">
        <ele>79.199996948242</ele>
        <time>2025-06-08T08:15:02.000Z</time>
      </trkpt>
      <trkpt lat="48.43585" lon="2.38319">
        <ele>79.199996948242</ele>
        <time>2025-06-08T08:15:03.000Z</time>
      </trkpt>
      <trkpt lat="48.43579" lon="2.38367">
        <ele>80.400001525879</ele>
        <time>2025-06-08T08:15:10.000Z</time>
      </trkpt>
      <trkpt lat="48.43578" lon="2.38374">
        <ele>80.400001525879</ele>
        <time>2025-06-08T08:15:11.000Z</time>
      </trkpt>
      <trkpt lat="48.43573" lon="2.38403">
        <ele>81.400001525879</ele>
        <time>2025-06-08T08:15:15.000Z</time>
      </trkpt>
      <trkpt lat="48.43567" lon="2.38431">
        <ele>82</ele>
        <time>2025-06-08T08:15:19.000Z</time>
      </trkpt>
      <trkpt lat="48.43563" lon="2.38453">
        <ele>82.400001525879</ele>
        <time>2025-06-08T08:15:22.000Z</time>
      </trkpt>
      <trkpt lat="48.43557" lon="2.38489">
        <ele>83.400001525879</ele>
        <time>2025-06-08T08:15:27.000Z</time>
      </trkpt>
      <trkpt lat="48.43555" lon="2.38502">
        <ele>83.400001525879</ele>
        <time>2025-06-08T08:15:29.000Z</time>
      </trkpt>
      <trkpt lat="48.43553" lon="2.38515">
        <ele>83.800003051758</ele>
        <time>2025-06-08T08:15:31.000Z</time>
      </trkpt>
      <trkpt lat="48.43551" lon="2.38527">
        <ele>84</ele>
        <time>2025-06-08T08:15:33.000Z</time>
      </trkpt>
      <trkpt lat="48.43551" lon="2.3854">
        <ele>84.199996948242</ele>
        <time>2025-06-08T08:15:35.000Z</time>
      </trkpt>
      <trkpt lat="48.43551" lon="2.38546">
        <ele>84.800003051758</ele>
        <time>2025-06-08T08:15:36.000Z</time>
      </trkpt>
      <trkpt lat="48.43551" lon="2.38565">
        <ele>85.800003051758</ele>
        <time>2025-06-08T08:15:39.000Z</time>
      </trkpt>
      <trkpt lat="48.43551" lon="2.38571">
        <ele>86</ele>
        <time>2025-06-08T08:15:40.000Z</time>
      </trkpt>
      <trkpt lat="48.43552" lon="2.38577">
        <ele>86</ele>
        <time>2025-06-08T08:15:41.000Z</time>
      </trkpt>
      <trkpt lat="48.43557" lon="2.38601">
        <ele>87.199996948242</ele>
        <time>2025-06-08T08:15:45.000Z</time>
      </trkpt>
      <trkpt lat="48.43566" lon="2.38627">
        <ele>88.199996948242</ele>
        <time>2025-06-08T08:15:50.000Z</time>
      </trkpt>
      <trkpt lat="48.43582" lon="2.38651">
        <ele>89.199996948242</ele>
        <time>2025-06-08T08:15:55.000Z</time>
      </trkpt>
      <trkpt lat="48.43585" lon="2.38655">
        <ele>89.400001525879</ele>
        <time>2025-06-08T08:15:56.000Z</time>
      </trkpt>
      <trkpt lat="48.436" lon="2.38678">
        <ele>90.400001525879</ele>
        <time>2025-06-08T08:16:01.000Z</time>
      </trkpt>
      <trkpt lat="48.43602" lon="2.38683">
        <ele>90.599998474121</ele>
        <time>2025-06-08T08:16:02.000Z</time>
      </trkpt>
      <trkpt lat="48.43605" lon="2.38689">
        <ele>90.599998474121</ele>
        <time>2025-06-08T08:16:03.000Z</time>
      </trkpt>
      <trkpt lat="48.43615" lon="2.38717">
        <ele>91.599998474121</ele>
        <time>2025-06-08T08:16:08.000Z</time>
      </trkpt>
      <trkpt lat="48.43618" lon="2.38728">
        <ele>92.199996948242</ele>
        <time>2025-06-08T08:16:10.000Z</time>
      </trkpt>
      <trkpt lat="48.43624" lon="2.38752">
        <ele>92.599998474121</ele>
        <time>2025-06-08T08:16:14.000Z</time>
      </trkpt>
      <trkpt lat="48.43629" lon="2.38776">
        <ele>94</ele>
        <time>2025-06-08T08:16:18.000Z</time>
      </trkpt>
      <trkpt lat="48.43633" lon="2.38793">
        <ele>94.800003051758</ele>
        <time>2025-06-08T08:16:21.000Z</time>
      </trkpt>
      <trkpt lat="48.43636" lon="2.3881">
        <ele>95</ele>
        <time>2025-06-08T08:16:24.000Z</time>
      </trkpt>
      <trkpt lat="48.43641" lon="2.38839">
        <ele>96</ele>
        <time>2025-06-08T08:16:29.000Z</time>
      </trkpt>
      <trkpt lat="48.43643" lon="2.38868">
        <ele>97.199996948242</ele>
        <time>2025-06-08T08:16:34.000Z</time>
      </trkpt>
      <trkpt lat="48.43643" lon="2.38874">
        <ele>97.599998474121</ele>
        <time>2025-06-08T08:16:35.000Z</time>
      </trkpt>
      <trkpt lat="48.43639" lon="2.38892">
        <ele>98.400001525879</ele>
        <time>2025-06-08T08:16:38.000Z</time>
      </trkpt>
      <trkpt lat="48.43635" lon="2.38907">
        <ele>99.199996948242</ele>
        <time>2025-06-08T08:16:41.000Z</time>
      </trkpt>
      <trkpt lat="48.43633" lon="2.38912">
        <ele>99.400001525879</ele>
        <time>2025-06-08T08:16:42.000Z</time>
      </trkpt>
      <trkpt lat="48.43623" lon="2.3894">
        <ele>101.19999694824</ele>
        <time>2025-06-08T08:16:48.000Z</time>
      </trkpt>
      <trkpt lat="48.43622" lon="2.38944">
        <ele>101.59999847412</ele>
        <time>2025-06-08T08:16:49.000Z</time>
      </trkpt>
      <trkpt lat="48.43618" lon="2.38953">
        <ele>102.40000152588</ele>
        <time>2025-06-08T08:16:51.000Z</time>
      </trkpt>
      <trkpt lat="48.43608" lon="2.38971">
        <ele>103.59999847412</ele>
        <time>2025-06-08T08:16:56.000Z</time>
      </trkpt>
      <trkpt lat="48.43602" lon="2.38984">
        <ele>104.59999847412</ele>
        <time>2025-06-08T08:17:00.000Z</time>
      </trkpt>
      <trkpt lat="48.43597" lon="2.38996">
        <ele>105.40000152588</ele>
        <time>2025-06-08T08:17:03.000Z</time>
      </trkpt>
      <trkpt lat="48.43594" lon="2.39004">
        <ele>105.80000305176</ele>
        <time>2025-06-08T08:17:05.000Z</time>
      </trkpt>
      <trkpt lat="48.43587" lon="2.39017">
        <ele>106.59999847412</ele>
        <time>2025-06-08T08:17:09.000Z</time>
      </trkpt>
      <trkpt lat="48.43582" lon="2.3902">
        <ele>107</ele>
        <time>2025-06-08T08:17:11.000Z</time>
      </trkpt>
      <trkpt lat="48.43574" lon="2.39023">
        <ele>107.80000305176</ele>
        <time>2025-06-08T08:17:14.000Z</time>
      </trkpt>
      <trkpt lat="48.43569" lon="2.39028">
        <ele>108.19999694824</ele>
        <time>2025-06-08T08:17:16.000Z</time>
      </trkpt>
      <trkpt lat="48.43564" lon="2.39039">
        <ele>108.80000305176</ele>
        <time>2025-06-08T08:17:19.000Z</time>
      </trkpt>
      <trkpt lat="48.4356" lon="2.39046">
        <ele>109.40000152588</ele>
        <time>2025-06-08T08:17:21.000Z</time>
      </trkpt>
      <trkpt lat="48.43553" lon="2.39052">
        <ele>109.80000305176</ele>
        <time>2025-06-08T08:17:24.000Z</time>
      </trkpt>
      <trkpt lat="48.4355" lon="2.39052">
        <ele>110.19999694824</ele>
        <time>2025-06-08T08:17:25.000Z</time>
      </trkpt>
      <trkpt lat="48.43545" lon="2.39049">
        <ele>110.59999847412</ele>
        <time>2025-06-08T08:17:27.000Z</time>
      </trkpt>
      <trkpt lat="48.43543" lon="2.39042">
        <ele>111</ele>
        <time>2025-06-08T08:17:29.000Z</time>
      </trkpt>
      <trkpt lat="48.43544" lon="2.39031">
        <ele>111.59999847412</ele>
        <time>2025-06-08T08:17:32.000Z</time>
      </trkpt>
      <trkpt lat="48.43544" lon="2.39028">
        <ele>111.80000305176</ele>
        <time>2025-06-08T08:17:33.000Z</time>
      </trkpt>
      <trkpt lat="48.43542" lon="2.39017">
        <ele>112.80000305176</ele>
        <time>2025-06-08T08:17:36.000Z</time>
      </trkpt>
      <trkpt lat="48.43538" lon="2.39011">
        <ele>113</ele>
        <time>2025-06-08T08:17:38.000Z</time>
      </trkpt>
      <trkpt lat="48.43527" lon="2.39006">
        <ele>113.80000305176</ele>
        <time>2025-06-08T08:17:42.000Z</time>
      </trkpt>
      <trkpt lat="48.43522" lon="2.3901">
        <ele>114.59999847412</ele>
        <time>2025-06-08T08:17:44.000Z</time>
      </trkpt>
      <trkpt lat="48.4352" lon="2.39013">
        <ele>115</ele>
        <time>2025-06-08T08:17:45.000Z</time>
      </trkpt>
      <trkpt lat="48.43519" lon="2.39016">
        <ele>115.59999847412</ele>
        <time>2025-06-08T08:17:46.000Z</time>
      </trkpt>
      <trkpt lat="48.4352" lon="2.39029">
        <ele>116.19999694824</ele>
        <time>2025-06-08T08:17:49.000Z</time>
      </trkpt>
      <trkpt lat="48.4352" lon="2.39037">
        <ele>116.40000152588</ele>
        <time>2025-06-08T08:17:51.000Z</time>
      </trkpt>
      <trkpt lat="48.43517" lon="2.3906">
        <ele>117</ele>
        <time>2025-06-08T08:17:57.000Z</time>
      </trkpt>
      <trkpt lat="48.43511" lon="2.39061">
        <ele>117.19999694824</ele>
        <time>2025-06-08T08:17:59.000Z</time>
      </trkpt>
      <trkpt lat="48.43506" lon="2.39058">
        <ele>117.59999847412</ele>
        <time>2025-06-08T08:18:01.000Z</time>
      </trkpt>
      <trkpt lat="48.43502" lon="2.3905">
        <ele>118.40000152588</ele>
        <time>2025-06-08T08:18:04.000Z</time>
      </trkpt>
      <trkpt lat="48.43503" lon="2.39046">
        <ele>118.59999847412</ele>
        <time>2025-06-08T08:18:05.000Z</time>
      </trkpt>
      <trkpt lat="48.43505" lon="2.39036">
        <ele>119.40000152588</ele>
        <time>2025-06-08T08:18:08.000Z</time>
      </trkpt>
      <trkpt lat="48.43505" lon="2.39032">
        <ele>119.59999847412</ele>
        <time>2025-06-08T08:18:09.000Z</time>
      </trkpt>
      <trkpt lat="48.43504" lon="2.39023">
        <ele>120.19999694824</ele>
        <time>2025-06-08T08:18:11.000Z</time>
      </trkpt>
      <trkpt lat="48.43502" lon="2.39015">
        <ele>120.59999847412</ele>
        <time>2025-06-08T08:18:13.000Z</time>
      </trkpt>
      <trkpt lat="48.43495" lon="2.39009">
        <ele>121.80000305176</ele>
        <time>2025-06-08T08:18:16.000Z</time>
      </trkpt>
      <trkpt lat="48.43479" lon="2.39006">
        <ele>123</ele>
        <time>2025-06-08T08:18:21.000Z</time>
      </trkpt>
      <trkpt lat="48.43476" lon="2.39006">
        <ele>123.19999694824</ele>
        <time>2025-06-08T08:18:22.000Z</time>
      </trkpt>
      <trkpt lat="48.43466" lon="2.38999">
        <ele>124.19999694824</ele>
        <time>2025-06-08T08:18:26.000Z</time>
      </trkpt>
      <trkpt lat="48.43464" lon="2.38997">
        <ele>124.19999694824</ele>
        <time>2025-06-08T08:18:27.000Z</time>
      </trkpt>
      <trkpt lat="48.43463" lon="2.38995">
        <ele>124.40000152588</ele>
        <time>2025-06-08T08:18:28.000Z</time>
      </trkpt>
      <trkpt lat="48.43464" lon="2.38986">
        <ele>124.80000305176</ele>
        <time>2025-06-08T08:18:31.000Z</time>
      </trkpt>
      <trkpt lat="48.43463" lon="2.38979">
        <ele>125.19999694824</ele>
        <time>2025-06-08T08:18:33.000Z</time>
      </trkpt>
      <trkpt lat="48.43462" lon="2.38971">
        <ele>126</ele>
        <time>2025-06-08T08:18:36.000Z</time>
      </trkpt>
      <trkpt lat="48.43462" lon="2.38968">
        <ele>126.19999694824</ele>
        <time>2025-06-08T08:18:37.000Z</time>
      </trkpt>
      <trkpt lat="48.43462" lon="2.38965">
        <ele>126.19999694824</ele>
        <time>2025-06-08T08:18:38.000Z</time>
      </trkpt>
      <trkpt lat="48.43462" lon="2.38945">
        <ele>127.19999694824</ele>
        <time>2025-06-08T08:18:43.000Z</time>
      </trkpt>
      <trkpt lat="48.43462" lon="2.38941">
        <ele>127.40000152588</ele>
        <time>2025-06-08T08:18:44.000Z</time>
      </trkpt>
      <trkpt lat="48.43466" lon="2.38923">
        <ele>127.80000305176</ele>
        <time>2025-06-08T08:18:48.000Z</time>
      </trkpt>
      <trkpt lat="48.43469" lon="2.38916">
        <ele>128</ele>
        <time>2025-06-08T08:18:49.000Z</time>
      </trkpt>
      <trkpt lat="48.43476" lon="2.38899">
        <ele>128</ele>
        <time>2025-06-08T08:18:51.000Z</time>
      </trkpt>
      <trkpt lat="48.4348" lon="2.38892">
        <ele>128</ele>
        <time>2025-06-08T08:18:52.000Z</time>
      </trkpt>
      <trkpt lat="48.43486" lon="2.38878">
        <ele>127.59999847412</ele>
        <time>2025-06-08T08:18:54.000Z</time>
      </trkpt>
      <trkpt lat="48.43488" lon="2.38871">
        <ele>127</ele>
        <time>2025-06-08T08:18:55.000Z</time>
      </trkpt>
      <trkpt lat="48.43487" lon="2.38862">
        <ele>126</ele>
        <time>2025-06-08T08:18:56.000Z</time>
      </trkpt>
      <trkpt lat="48.43486" lon="2.38843">
        <ele>124</ele>
        <time>2025-06-08T08:18:58.000Z</time>
      </trkpt>
      <trkpt lat="48.43486" lon="2.38834">
        <ele>122.80000305176</ele>
        <time>2025-06-08T08:18:59.000Z</time>
      </trkpt>
      <trkpt lat="48.43485" lon="2.38825">
        <ele>121</ele>
        <time>2025-06-08T08:19:00.000Z</time>
      </trkpt>
      <trkpt lat="48.43484" lon="2.38817">
        <ele>119.40000152588</ele>
        <time>2025-06-08T08:19:01.000Z</time>
      </trkpt>
      <trkpt lat="48.4348" lon="2.38811">
        <ele>117.80000305176</ele>
        <time>2025-06-08T08:19:02.000Z</time>
      </trkpt>
      <trkpt lat="48.43477" lon="2.38807">
        <ele>116.19999694824</ele>
        <time>2025-06-08T08:19:03.000Z</time>
      </trkpt>
      <trkpt lat="48.43476" lon="2.38807">
        <ele>114.40000152588</ele>
        <time>2025-06-08T08:19:04.000Z</time>
      </trkpt>
      <trkpt lat="48.43476" lon="2.38806">
        <ele>113</ele>
        <time>2025-06-08T08:19:05.000Z</time>
      </trkpt>
      <trkpt lat="48.43477" lon="2.38807">
        <ele>111.80000305176</ele>
        <time>2025-06-08T08:19:06.000Z</time>
      </trkpt>
      <trkpt lat="48.43477" lon="2.38808">
        <ele>110.19999694824</ele>
        <time>2025-06-08T08:19:08.000Z</time>
      </trkpt>
      <trkpt lat="48.43475" lon="2.38809">
        <ele>109.80000305176</ele>
        <time>2025-06-08T08:19:10.000Z</time>
      </trkpt>
      <trkpt lat="48.43474" lon="2.38809">
        <ele>109.80000305176</ele>
        <time>2025-06-08T08:19:11.000Z</time>
      </trkpt>
      <trkpt lat="48.43467" lon="2.38808">
        <ele>109.59999847412</ele>
        <time>2025-06-08T08:19:14.000Z</time>
      </trkpt>
      <trkpt lat="48.43463" lon="2.38805">
        <ele>109.80000305176</ele>
        <time>2025-06-08T08:19:17.000Z</time>
      </trkpt>
      <trkpt lat="48.43457" lon="2.38799">
        <ele>111.59999847412</ele>
        <time>2025-06-08T08:19:22.000Z</time>
      </trkpt>
      <trkpt lat="48.43455" lon="2.38798">
        <ele>112.80000305176</ele>
        <time>2025-06-08T08:19:24.000Z</time>
      </trkpt>
      <trkpt lat="48.43454" lon="2.38799">
        <ele>113.40000152588</ele>
        <time>2025-06-08T08:19:25.000Z</time>
      </trkpt>
      <trkpt lat="48.43452" lon="2.38799">
        <ele>114.19999694824</ele>
        <time>2025-06-08T08:19:26.000Z</time>
      </trkpt>
      <trkpt lat="48.4345" lon="2.388">
        <ele>115.19999694824</ele>
        <time>2025-06-08T08:19:28.000Z</time>
      </trkpt>
      <trkpt lat="48.43445" lon="2.38799">
        <ele>116.40000152588</ele>
        <time>2025-06-08T08:19:31.000Z</time>
      </trkpt>
      <trkpt lat="48.43444" lon="2.38798">
        <ele>116.80000305176</ele>
        <time>2025-06-08T08:19:32.000Z</time>
      </trkpt>
      <trkpt lat="48.43441" lon="2.38797">
        <ele>117.80000305176</ele>
        <time>2025-06-08T08:19:34.000Z</time>
      </trkpt>
      <trkpt lat="48.43437" lon="2.38795">
        <ele>119.40000152588</ele>
        <time>2025-06-08T08:19:37.000Z</time>
      </trkpt>
      <trkpt lat="48.43436" lon="2.38794">
        <ele>120</ele>
        <time>2025-06-08T08:19:38.000Z</time>
      </trkpt>
      <trkpt lat="48.43434" lon="2.38793">
        <ele>120.59999847412</ele>
        <time>2025-06-08T08:19:39.000Z</time>
      </trkpt>
      <trkpt lat="48.43433" lon="2.38791">
        <ele>121</ele>
        <time>2025-06-08T08:19:40.000Z</time>
      </trkpt>
      <trkpt lat="48.43433" lon="2.3879">
        <ele>121.59999847412</ele>
        <time>2025-06-08T08:19:41.000Z</time>
      </trkpt>
      <trkpt lat="48.43432" lon="2.38787">
        <ele>123</ele>
        <time>2025-06-08T08:19:43.000Z</time>
      </trkpt>
      <trkpt lat="48.4343" lon="2.38782">
        <ele>124.19999694824</ele>
        <time>2025-06-08T08:19:45.000Z</time>
      </trkpt>
      <trkpt lat="48.43427" lon="2.38772">
        <ele>125.19999694824</ele>
        <time>2025-06-08T08:19:49.000Z</time>
      </trkpt>
      <trkpt lat="48.43426" lon="2.38764">
        <ele>125.19999694824</ele>
        <time>2025-06-08T08:19:51.000Z</time>
      </trkpt>
      <trkpt lat="48.43422" lon="2.38749">
        <ele>125.19999694824</ele>
        <time>2025-06-08T08:19:56.000Z</time>
      </trkpt>
      <trkpt lat="48.43423" lon="2.38729">
        <ele>124.59999847412</ele>
        <time>2025-06-08T08:20:00.000Z</time>
      </trkpt>
      <trkpt lat="48.43419" lon="2.38713">
        <ele>124.19999694824</ele>
        <time>2025-06-08T08:20:03.000Z</time>
      </trkpt>
      <trkpt lat="48.43416" lon="2.3871">
        <ele>124</ele>
        <time>2025-06-08T08:20:04.000Z</time>
      </trkpt>
      <trkpt lat="48.43416" lon="2.38709">
        <ele>123.59999847412</ele>
        <time>2025-06-08T08:20:05.000Z</time>
      </trkpt>
      <trkpt lat="48.43415" lon="2.38709">
        <ele>123</ele>
        <time>2025-06-08T08:20:06.000Z</time>
      </trkpt>
      <trkpt lat="48.43415" lon="2.3871">
        <ele>122.80000305176</ele>
        <time>2025-06-08T08:20:07.000Z</time>
      </trkpt>
      <trkpt lat="48.43412" lon="2.38719">
        <ele>122.40000152588</ele>
        <time>2025-06-08T08:20:12.000Z</time>
      </trkpt>
      <trkpt lat="48.43408" lon="2.3873">
        <ele>123.80000305176</ele>
        <time>2025-06-08T08:20:19.000Z</time>
      </trkpt>
      <trkpt lat="48.43407" lon="2.38731">
        <ele>124.19999694824</ele>
        <time>2025-06-08T08:20:20.000Z</time>
      </trkpt>
      <trkpt lat="48.43403" lon="2.38734">
        <ele>125.80000305176</ele>
        <time>2025-06-08T08:20:23.000Z</time>
      </trkpt>
      <trkpt lat="48.434" lon="2.38735">
        <ele>126.59999847412</ele>
        <time>2025-06-08T08:20:25.000Z</time>
      </trkpt>
      <trkpt lat="48.43399" lon="2.38736">
        <ele>126.80000305176</ele>
        <time>2025-06-08T08:20:26.000Z</time>
      </trkpt>
      <trkpt lat="48.43392" lon="2.38734">
        <ele>128</ele>
        <time>2025-06-08T08:20:31.000Z</time>
      </trkpt>
      <trkpt lat="48.43391" lon="2.38734">
        <ele>128.19999694824</ele>
        <time>2025-06-08T08:20:32.000Z</time>
      </trkpt>
      <trkpt lat="48.43388" lon="2.38734">
        <ele>128.39999389648</ele>
        <time>2025-06-08T08:20:33.000Z</time>
      </trkpt>
      <trkpt lat="48.43384" lon="2.38739">
        <ele>129</ele>
        <time>2025-06-08T08:20:36.000Z</time>
      </trkpt>
      <trkpt lat="48.43378" lon="2.3875">
        <ele>130.19999694824</ele>
        <time>2025-06-08T08:20:41.000Z</time>
      </trkpt>
      <trkpt lat="48.43376" lon="2.38751">
        <ele>130.19999694824</ele>
        <time>2025-06-08T08:20:42.000Z</time>
      </trkpt>
      <trkpt lat="48.43369" lon="2.38755">
        <ele>130.80000305176</ele>
        <time>2025-06-08T08:20:45.000Z</time>
      </trkpt>
      <trkpt lat="48.43367" lon="2.38759">
        <ele>131.19999694824</ele>
        <time>2025-06-08T08:20:47.000Z</time>
      </trkpt>
      <trkpt lat="48.43356" lon="2.38772">
        <ele>131.80000305176</ele>
        <time>2025-06-08T08:20:52.000Z</time>
      </trkpt>
      <trkpt lat="48.4335" lon="2.38775">
        <ele>132</ele>
        <time>2025-06-08T08:20:54.000Z</time>
      </trkpt>
      <trkpt lat="48.43347" lon="2.38773">
        <ele>132</ele>
        <time>2025-06-08T08:20:55.000Z</time>
      </trkpt>
      <trkpt lat="48.43343" lon="2.38761">
        <ele>132.19999694824</ele>
        <time>2025-06-08T08:20:59.000Z</time>
      </trkpt>
      <trkpt lat="48.43338" lon="2.38746">
        <ele>132</ele>
        <time>2025-06-08T08:21:03.000Z</time>
      </trkpt>
      <trkpt lat="48.43335" lon="2.38745">
        <ele>131.80000305176</ele>
        <time>2025-06-08T08:21:04.000Z</time>
      </trkpt>
      <trkpt lat="48.4332" lon="2.38749">
        <ele>131</ele>
        <time>2025-06-08T08:21:08.000Z</time>
      </trkpt>
      <trkpt lat="48.43315" lon="2.38749">
        <ele>130</ele>
        <time>2025-06-08T08:21:09.000Z</time>
      </trkpt>
      <trkpt lat="48.4331" lon="2.3875">
        <ele>129.80000305176</ele>
        <time>2025-06-08T08:21:10.000Z</time>
      </trkpt>
      <trkpt lat="48.43298" lon="2.3875">
        <ele>129.39999389648</ele>
        <time>2025-06-08T08:21:12.000Z</time>
      </trkpt>
      <trkpt lat="48.43293" lon="2.38749">
        <ele>129.19999694824</ele>
        <time>2025-06-08T08:21:13.000Z</time>
      </trkpt>
      <trkpt lat="48.43286" lon="2.38748">
        <ele>129</ele>
        <time>2025-06-08T08:21:14.000Z</time>
      </trkpt>
      <trkpt lat="48.43276" lon="2.38745">
        <ele>128</ele>
        <time>2025-06-08T08:21:16.000Z</time>
      </trkpt>
      <trkpt lat="48.43271" lon="2.38743">
        <ele>127.59999847412</ele>
        <time>2025-06-08T08:21:17.000Z</time>
      </trkpt>
      <trkpt lat="48.43266" lon="2.38742">
        <ele>126.80000305176</ele>
        <time>2025-06-08T08:21:18.000Z</time>
      </trkpt>
      <trkpt lat="48.43261" lon="2.38742">
        <ele>126.19999694824</ele>
        <time>2025-06-08T08:21:19.000Z</time>
      </trkpt>
      <trkpt lat="48.43253" lon="2.38739">
        <ele>125.19999694824</ele>
        <time>2025-06-08T08:21:21.000Z</time>
      </trkpt>
      <trkpt lat="48.43248" lon="2.38737">
        <ele>125</ele>
        <time>2025-06-08T08:21:22.000Z</time>
      </trkpt>
      <trkpt lat="48.43241" lon="2.38735">
        <ele>124</ele>
        <time>2025-06-08T08:21:24.000Z</time>
      </trkpt>
      <trkpt lat="48.43229" lon="2.38728">
        <ele>123.19999694824</ele>
        <time>2025-06-08T08:21:27.000Z</time>
      </trkpt>
      <trkpt lat="48.4322" lon="2.38725">
        <ele>122.59999847412</ele>
        <time>2025-06-08T08:21:29.000Z</time>
      </trkpt>
      <trkpt lat="48.43211" lon="2.38726">
        <ele>122.40000152588</ele>
        <time>2025-06-08T08:21:31.000Z</time>
      </trkpt>
      <trkpt lat="48.43203" lon="2.38735">
        <ele>122.19999694824</ele>
        <time>2025-06-08T08:21:35.000Z</time>
      </trkpt>
      <trkpt lat="48.43196" lon="2.38746">
        <ele>123.59999847412</ele>
        <time>2025-06-08T08:21:40.000Z</time>
      </trkpt>
      <trkpt lat="48.43195" lon="2.38748">
        <ele>124.40000152588</ele>
        <time>2025-06-08T08:21:41.000Z</time>
      </trkpt>
      <trkpt lat="48.43195" lon="2.38751">
        <ele>125</ele>
        <time>2025-06-08T08:21:42.000Z</time>
      </trkpt>
      <trkpt lat="48.43195" lon="2.3876">
        <ele>126.40000152588</ele>
        <time>2025-06-08T08:21:45.000Z</time>
      </trkpt>
      <trkpt lat="48.43195" lon="2.38766">
        <ele>127</ele>
        <time>2025-06-08T08:21:47.000Z</time>
      </trkpt>
      <trkpt lat="48.43195" lon="2.38772">
        <ele>127.59999847412</ele>
        <time>2025-06-08T08:21:49.000Z</time>
      </trkpt>
      <trkpt lat="48.43195" lon="2.38782">
        <ele>128.60000610352</ele>
        <time>2025-06-08T08:21:53.000Z</time>
      </trkpt>
      <trkpt lat="48.43195" lon="2.38785">
        <ele>128.80000305176</ele>
        <time>2025-06-08T08:21:54.000Z</time>
      </trkpt>
      <trkpt lat="48.432" lon="2.38802">
        <ele>130</ele>
        <time>2025-06-08T08:21:59.000Z</time>
      </trkpt>
      <trkpt lat="48.43201" lon="2.38805">
        <ele>130.39999389648</ele>
        <time>2025-06-08T08:22:00.000Z</time>
      </trkpt>
      <trkpt lat="48.43207" lon="2.38813">
        <ele>130.80000305176</ele>
        <time>2025-06-08T08:22:04.000Z</time>
      </trkpt>
      <trkpt lat="48.43211" lon="2.38813">
        <ele>131.19999694824</ele>
        <time>2025-06-08T08:22:07.000Z</time>
      </trkpt>
      <trkpt lat="48.43212" lon="2.38813">
        <ele>131.39999389648</ele>
        <time>2025-06-08T08:22:10.000Z</time>
      </trkpt>
      <trkpt lat="48.43219" lon="2.38807">
        <ele>131.39999389648</ele>
        <time>2025-06-08T08:22:14.000Z</time>
      </trkpt>
      <trkpt lat="48.43239" lon="2.38794">
        <ele>131</ele>
        <time>2025-06-08T08:22:20.000Z</time>
      </trkpt>
      <trkpt lat="48.43247" lon="2.38795">
        <ele>130.19999694824</ele>
        <time>2025-06-08T08:22:22.000Z</time>
      </trkpt>
      <trkpt lat="48.43249" lon="2.38797">
        <ele>129.80000305176</ele>
        <time>2025-06-08T08:22:23.000Z</time>
      </trkpt>
      <trkpt lat="48.43249" lon="2.38806">
        <ele>129.19999694824</ele>
        <time>2025-06-08T08:22:26.000Z</time>
      </trkpt>
      <trkpt lat="48.43244" lon="2.38812">
        <ele>129.19999694824</ele>
        <time>2025-06-08T08:22:29.000Z</time>
      </trkpt>
      <trkpt lat="48.4324" lon="2.38816">
        <ele>129.19999694824</ele>
        <time>2025-06-08T08:22:31.000Z</time>
      </trkpt>
      <trkpt lat="48.43233" lon="2.38828">
        <ele>129.80000305176</ele>
        <time>2025-06-08T08:22:36.000Z</time>
      </trkpt>
      <trkpt lat="48.4323" lon="2.38829">
        <ele>130</ele>
        <time>2025-06-08T08:22:37.000Z</time>
      </trkpt>
      <trkpt lat="48.4322" lon="2.38832">
        <ele>131</ele>
        <time>2025-06-08T08:22:41.000Z</time>
      </trkpt>
      <trkpt lat="48.43217" lon="2.38834">
        <ele>131.19999694824</ele>
        <time>2025-06-08T08:22:42.000Z</time>
      </trkpt>
      <trkpt lat="48.43204" lon="2.38841">
        <ele>131.80000305176</ele>
        <time>2025-06-08T08:22:47.000Z</time>
      </trkpt>
      <trkpt lat="48.43199" lon="2.38848">
        <ele>132.19999694824</ele>
        <time>2025-06-08T08:22:49.000Z</time>
      </trkpt>
      <trkpt lat="48.43194" lon="2.38861">
        <ele>132.60000610352</ele>
        <time>2025-06-08T08:22:52.000Z</time>
      </trkpt>
      <trkpt lat="48.43194" lon="2.38865">
        <ele>132.60000610352</ele>
        <time>2025-06-08T08:22:53.000Z</time>
      </trkpt>
      <trkpt lat="48.43196" lon="2.38877">
        <ele>132.80000305176</ele>
        <time>2025-06-08T08:22:56.000Z</time>
      </trkpt>
      <trkpt lat="48.43199" lon="2.38883">
        <ele>132.80000305176</ele>
        <time>2025-06-08T08:22:59.000Z</time>
      </trkpt>
      <trkpt lat="48.43201" lon="2.38885">
        <ele>132.80000305176</ele>
        <time>2025-06-08T08:23:00.000Z</time>
      </trkpt>
      <trkpt lat="48.43201" lon="2.38889">
        <ele>132.80000305176</ele>
        <time>2025-06-08T08:23:01.000Z</time>
      </trkpt>
      <trkpt lat="48.43198" lon="2.38905">
        <ele>132.80000305176</ele>
        <time>2025-06-08T08:23:06.000Z</time>
      </trkpt>
      <trkpt lat="48.43193" lon="2.38909">
        <ele>133</ele>
        <time>2025-06-08T08:23:11.000Z</time>
      </trkpt>
      <trkpt lat="48.4319" lon="2.3891">
        <ele>133</ele>
        <time>2025-06-08T08:23:14.000Z</time>
      </trkpt>
      <trkpt lat="48.4318" lon="2.38905">
        <ele>133</ele>
        <time>2025-06-08T08:23:20.000Z</time>
      </trkpt>
      <trkpt lat="48.43175" lon="2.38911">
        <ele>133</ele>
        <time>2025-06-08T08:23:24.000Z</time>
      </trkpt>
      <trkpt lat="48.43176" lon="2.3892">
        <ele>132.80000305176</ele>
        <time>2025-06-08T08:23:26.000Z</time>
      </trkpt>
      <trkpt lat="48.43178" lon="2.38932">
        <ele>132.60000610352</ele>
        <time>2025-06-08T08:23:28.000Z</time>
      </trkpt>
      <trkpt lat="48.43186" lon="2.3898">
        <ele>131.60000610352</ele>
        <time>2025-06-08T08:23:35.000Z</time>
      </trkpt>
      <trkpt lat="48.43191" lon="2.39002">
        <ele>131</ele>
        <time>2025-06-08T08:23:38.000Z</time>
      </trkpt>
      <trkpt lat="48.43197" lon="2.39029">
        <ele>130.60000610352</ele>
        <time>2025-06-08T08:23:42.000Z</time>
      </trkpt>
      <trkpt lat="48.43199" lon="2.39036">
        <ele>130.60000610352</ele>
        <time>2025-06-08T08:23:43.000Z</time>
      </trkpt>
      <trkpt lat="48.43207" lon="2.39067">
        <ele>130.39999389648</ele>
        <time>2025-06-08T08:23:47.000Z</time>
      </trkpt>
      <trkpt lat="48.43208" lon="2.3909">
        <ele>130.39999389648</ele>
        <time>2025-06-08T08:23:51.000Z</time>
      </trkpt>
      <trkpt lat="48.43197" lon="2.39107">
        <ele>130.39999389648</ele>
        <time>2025-06-08T08:23:55.000Z</time>
      </trkpt>
      <trkpt lat="48.43193" lon="2.3911">
        <ele>130.39999389648</ele>
        <time>2025-06-08T08:23:56.000Z</time>
      </trkpt>
      <trkpt lat="48.43182" lon="2.39122">
        <ele>130.39999389648</ele>
        <time>2025-06-08T08:23:59.000Z</time>
      </trkpt>
      <trkpt lat="48.43179" lon="2.39142">
        <ele>130.19999694824</ele>
        <time>2025-06-08T08:24:02.000Z</time>
      </trkpt>
      <trkpt lat="48.43179" lon="2.39152">
        <ele>129.80000305176</ele>
        <time>2025-06-08T08:24:04.000Z</time>
      </trkpt>
      <trkpt lat="48.43182" lon="2.39157">
        <ele>129.19999694824</ele>
        <time>2025-06-08T08:24:06.000Z</time>
      </trkpt>
      <trkpt lat="48.43193" lon="2.39153">
        <ele>129</ele>
        <time>2025-06-08T08:24:10.000Z</time>
      </trkpt>
      <trkpt lat="48.4321" lon="2.39152">
        <ele>129</ele>
        <time>2025-06-08T08:24:15.000Z</time>
      </trkpt>
      <trkpt lat="48.43218" lon="2.39171">
        <ele>129.39999389648</ele>
        <time>2025-06-08T08:24:19.000Z</time>
      </trkpt>
      <trkpt lat="48.4322" lon="2.39176">
        <ele>129.39999389648</ele>
        <time>2025-06-08T08:24:20.000Z</time>
      </trkpt>
      <trkpt lat="48.43228" lon="2.39187">
        <ele>130.19999694824</ele>
        <time>2025-06-08T08:24:23.000Z</time>
      </trkpt>
      <trkpt lat="48.43236" lon="2.39187">
        <ele>131</ele>
        <time>2025-06-08T08:24:26.000Z</time>
      </trkpt>
      <trkpt lat="48.43238" lon="2.39186">
        <ele>131</ele>
        <time>2025-06-08T08:24:27.000Z</time>
      </trkpt>
      <trkpt lat="48.4325" lon="2.39182">
        <ele>131.80000305176</ele>
        <time>2025-06-08T08:24:31.000Z</time>
      </trkpt>
      <trkpt lat="48.43252" lon="2.39182">
        <ele>132</ele>
        <time>2025-06-08T08:24:32.000Z</time>
      </trkpt>
      <trkpt lat="48.43268" lon="2.39182">
        <ele>132.39999389648</ele>
        <time>2025-06-08T08:24:37.000Z</time>
      </trkpt>
      <trkpt lat="48.43278" lon="2.39181">
        <ele>132.39999389648</ele>
        <time>2025-06-08T08:24:41.000Z</time>
      </trkpt>
      <trkpt lat="48.4328" lon="2.39181">
        <ele>132.39999389648</ele>
        <time>2025-06-08T08:24:42.000Z</time>
      </trkpt>
      <trkpt lat="48.43283" lon="2.39181">
        <ele>132.39999389648</ele>
        <time>2025-06-08T08:24:43.000Z</time>
      </trkpt>
      <trkpt lat="48.43293" lon="2.39185">
        <ele>132.80000305176</ele>
        <time>2025-06-08T08:24:47.000Z</time>
      </trkpt>
      <trkpt lat="48.43304" lon="2.39197">
        <ele>133</ele>
        <time>2025-06-08T08:24:52.000Z</time>
      </trkpt>
      <trkpt lat="48.43305" lon="2.392">
        <ele>133</ele>
        <time>2025-06-08T08:24:53.000Z</time>
      </trkpt>
      <trkpt lat="48.43303" lon="2.39207">
        <ele>133</ele>
        <time>2025-06-08T08:24:56.000Z</time>
      </trkpt>
      <trkpt lat="48.43303" lon="2.3921">
        <ele>133</ele>
        <time>2025-06-08T08:24:57.000Z</time>
      </trkpt>
      <trkpt lat="48.43303" lon="2.39218">
        <ele>133.19999694824</ele>
        <time>2025-06-08T08:25:00.000Z</time>
      </trkpt>
      <trkpt lat="48.433" lon="2.39243">
        <ele>133.19999694824</ele>
        <time>2025-06-08T08:25:06.000Z</time>
      </trkpt>
      <trkpt lat="48.43303" lon="2.39269">
        <ele>133.19999694824</ele>
        <time>2025-06-08T08:25:11.000Z</time>
      </trkpt>
      <trkpt lat="48.43298" lon="2.39276">
        <ele>133.19999694824</ele>
        <time>2025-06-08T08:25:13.000Z</time>
      </trkpt>
      <trkpt lat="48.43294" lon="2.39277">
        <ele>133.19999694824</ele>
        <time>2025-06-08T08:25:14.000Z</time>
      </trkpt>
      <trkpt lat="48.43277" lon="2.39281">
        <ele>133.19999694824</ele>
        <time>2025-06-08T08:25:19.000Z</time>
      </trkpt>
      <trkpt lat="48.43266" lon="2.3929">
        <ele>133.19999694824</ele>
        <time>2025-06-08T08:25:22.000Z</time>
      </trkpt>
      <trkpt lat="48.43264" lon="2.39295">
        <ele>133.19999694824</ele>
        <time>2025-06-08T08:25:23.000Z</time>
      </trkpt>
      <trkpt lat="48.43256" lon="2.39315">
        <ele>132.39999389648</ele>
        <time>2025-06-08T08:25:28.000Z</time>
      </trkpt>
      <trkpt lat="48.4325" lon="2.39331">
        <ele>132</ele>
        <time>2025-06-08T08:25:31.000Z</time>
      </trkpt>
      <trkpt lat="48.43247" lon="2.39336">
        <ele>131.80000305176</ele>
        <time>2025-06-08T08:25:32.000Z</time>
      </trkpt>
      <trkpt lat="48.43242" lon="2.39352">
        <ele>131.80000305176</ele>
        <time>2025-06-08T08:25:37.000Z</time>
      </trkpt>
      <trkpt lat="48.4324" lon="2.39359">
        <ele>131.80000305176</ele>
        <time>2025-06-08T08:25:39.000Z</time>
      </trkpt>
      <trkpt lat="48.43237" lon="2.39366">
        <ele>131.60000610352</ele>
        <time>2025-06-08T08:25:41.000Z</time>
      </trkpt>
      <trkpt lat="48.43234" lon="2.39375">
        <ele>131.60000610352</ele>
        <time>2025-06-08T08:25:43.000Z</time>
      </trkpt>
      <trkpt lat="48.43233" lon="2.39387">
        <ele>131.60000610352</ele>
        <time>2025-06-08T08:25:45.000Z</time>
      </trkpt>
      <trkpt lat="48.43234" lon="2.394">
        <ele>131.39999389648</ele>
        <time>2025-06-08T08:25:47.000Z</time>
      </trkpt>
      <trkpt lat="48.43233" lon="2.39417">
        <ele>131.19999694824</ele>
        <time>2025-06-08T08:25:50.000Z</time>
      </trkpt>
      <trkpt lat="48.43229" lon="2.39425">
        <ele>130.80000305176</ele>
        <time>2025-06-08T08:25:52.000Z</time>
      </trkpt>
      <trkpt lat="48.43225" lon="2.39425">
        <ele>130.60000610352</ele>
        <time>2025-06-08T08:25:54.000Z</time>
      </trkpt>
      <trkpt lat="48.43219" lon="2.39424">
        <ele>130.39999389648</ele>
        <time>2025-06-08T08:25:56.000Z</time>
      </trkpt>
      <trkpt lat="48.43212" lon="2.3942">
        <ele>130.19999694824</ele>
        <time>2025-06-08T08:25:58.000Z</time>
      </trkpt>
      <trkpt lat="48.43207" lon="2.3941">
        <ele>129.80000305176</ele>
        <time>2025-06-08T08:26:01.000Z</time>
      </trkpt>
      <trkpt lat="48.43207" lon="2.39407">
        <ele>129.60000610352</ele>
        <time>2025-06-08T08:26:02.000Z</time>
      </trkpt>
      <trkpt lat="48.4321" lon="2.39388">
        <ele>128.80000305176</ele>
        <time>2025-06-08T08:26:07.000Z</time>
      </trkpt>
      <trkpt lat="48.4321" lon="2.39384">
        <ele>128.80000305176</ele>
        <time>2025-06-08T08:26:08.000Z</time>
      </trkpt>
      <trkpt lat="48.43207" lon="2.3937">
        <ele>128.60000610352</ele>
        <time>2025-06-08T08:26:11.000Z</time>
      </trkpt>
      <trkpt lat="48.43195" lon="2.39352">
        <ele>128.39999389648</ele>
        <time>2025-06-08T08:26:15.000Z</time>
      </trkpt>
      <trkpt lat="48.43183" lon="2.39333">
        <ele>128.39999389648</ele>
        <time>2025-06-08T08:26:19.000Z</time>
      </trkpt>
      <trkpt lat="48.43176" lon="2.39327">
        <ele>128.39999389648</ele>
        <time>2025-06-08T08:26:21.000Z</time>
      </trkpt>
      <trkpt lat="48.43165" lon="2.39316">
        <ele>127.59999847412</ele>
        <time>2025-06-08T08:26:24.000Z</time>
      </trkpt>
      <trkpt lat="48.43156" lon="2.39309">
        <ele>127.19999694824</ele>
        <time>2025-06-08T08:26:27.000Z</time>
      </trkpt>
      <trkpt lat="48.43153" lon="2.39309">
        <ele>127</ele>
        <time>2025-06-08T08:26:28.000Z</time>
      </trkpt>
      <trkpt lat="48.43145" lon="2.39317">
        <ele>126.80000305176</ele>
        <time>2025-06-08T08:26:32.000Z</time>
      </trkpt>
      <trkpt lat="48.43143" lon="2.3932">
        <ele>126.59999847412</ele>
        <time>2025-06-08T08:26:33.000Z</time>
      </trkpt>
      <trkpt lat="48.43141" lon="2.39322">
        <ele>126.59999847412</ele>
        <time>2025-06-08T08:26:34.000Z</time>
      </trkpt>
      <trkpt lat="48.4314" lon="2.39329">
        <ele>126.40000152588</ele>
        <time>2025-06-08T08:26:36.000Z</time>
      </trkpt>
      <trkpt lat="48.43142" lon="2.39339">
        <ele>126.19999694824</ele>
        <time>2025-06-08T08:26:38.000Z</time>
      </trkpt>
      <trkpt lat="48.43144" lon="2.39351">
        <ele>125.80000305176</ele>
        <time>2025-06-08T08:26:41.000Z</time>
      </trkpt>
      <trkpt lat="48.43145" lon="2.39356">
        <ele>125.59999847412</ele>
        <time>2025-06-08T08:26:43.000Z</time>
      </trkpt>
      <trkpt lat="48.43148" lon="2.39369">
        <ele>125.19999694824</ele>
        <time>2025-06-08T08:26:47.000Z</time>
      </trkpt>
      <trkpt lat="48.43152" lon="2.39395">
        <ele>125.19999694824</ele>
        <time>2025-06-08T08:26:52.000Z</time>
      </trkpt>
      <trkpt lat="48.43158" lon="2.39427">
        <ele>125.19999694824</ele>
        <time>2025-06-08T08:26:58.000Z</time>
      </trkpt>
      <trkpt lat="48.43169" lon="2.39461">
        <ele>125.40000152588</ele>
        <time>2025-06-08T08:27:04.000Z</time>
      </trkpt>
      <trkpt lat="48.43183" lon="2.39498">
        <ele>125.59999847412</ele>
        <time>2025-06-08T08:27:11.000Z</time>
      </trkpt>
      <trkpt lat="48.43193" lon="2.39521">
        <ele>125.80000305176</ele>
        <time>2025-06-08T08:27:15.000Z</time>
      </trkpt>
      <trkpt lat="48.43198" lon="2.39533">
        <ele>125.80000305176</ele>
        <time>2025-06-08T08:27:17.000Z</time>
      </trkpt>
      <trkpt lat="48.43206" lon="2.39553">
        <ele>126</ele>
        <time>2025-06-08T08:27:20.000Z</time>
      </trkpt>
      <trkpt lat="48.43214" lon="2.39563">
        <ele>126</ele>
        <time>2025-06-08T08:27:22.000Z</time>
      </trkpt>
      <trkpt lat="48.43238" lon="2.39591">
        <ele>126.19999694824</ele>
        <time>2025-06-08T08:27:28.000Z</time>
      </trkpt>
      <trkpt lat="48.43253" lon="2.396">
        <ele>126.40000152588</ele>
        <time>2025-06-08T08:27:31.000Z</time>
      </trkpt>
      <trkpt lat="48.43263" lon="2.39603">
        <ele>126.59999847412</ele>
        <time>2025-06-08T08:27:33.000Z</time>
      </trkpt>
      <trkpt lat="48.43267" lon="2.39604">
        <ele>126.59999847412</ele>
        <time>2025-06-08T08:27:34.000Z</time>
      </trkpt>
      <trkpt lat="48.43282" lon="2.39608">
        <ele>127.40000152588</ele>
        <time>2025-06-08T08:27:38.000Z</time>
      </trkpt>
      <trkpt lat="48.43307" lon="2.39617">
        <ele>127.40000152588</ele>
        <time>2025-06-08T08:27:42.000Z</time>
      </trkpt>
      <trkpt lat="48.43326" lon="2.39636">
        <ele>127.40000152588</ele>
        <time>2025-06-08T08:27:45.000Z</time>
      </trkpt>
      <trkpt lat="48.4333" lon="2.39644">
        <ele>127.40000152588</ele>
        <time>2025-06-08T08:27:46.000Z</time>
      </trkpt>
      <trkpt lat="48.43339" lon="2.39669">
        <ele>126.59999847412</ele>
        <time>2025-06-08T08:27:49.000Z</time>
      </trkpt>
      <trkpt lat="48.43341" lon="2.39686">
        <ele>126.19999694824</ele>
        <time>2025-06-08T08:27:51.000Z</time>
      </trkpt>
      <trkpt lat="48.43343" lon="2.39702">
        <ele>126</ele>
        <time>2025-06-08T08:27:53.000Z</time>
      </trkpt>
      <trkpt lat="48.43344" lon="2.39709">
        <ele>126</ele>
        <time>2025-06-08T08:27:54.000Z</time>
      </trkpt>
      <trkpt lat="48.4335" lon="2.39728">
        <ele>126</ele>
        <time>2025-06-08T08:27:57.000Z</time>
      </trkpt>
      <trkpt lat="48.43363" lon="2.39768">
        <ele>127.59999847412</ele>
        <time>2025-06-08T08:28:04.000Z</time>
      </trkpt>
      <trkpt lat="48.43364" lon="2.39773">
        <ele>127.80000305176</ele>
        <time>2025-06-08T08:28:05.000Z</time>
      </trkpt>
      <trkpt lat="48.43365" lon="2.3978">
        <ele>128.60000610352</ele>
        <time>2025-06-08T08:28:07.000Z</time>
      </trkpt>
      <trkpt lat="48.43364" lon="2.39783">
        <ele>128.60000610352</ele>
        <time>2025-06-08T08:28:08.000Z</time>
      </trkpt>
      <trkpt lat="48.43356" lon="2.39784">
        <ele>128.80000305176</ele>
        <time>2025-06-08T08:28:11.000Z</time>
      </trkpt>
      <trkpt lat="48.43353" lon="2.39783">
        <ele>128.80000305176</ele>
        <time>2025-06-08T08:28:12.000Z</time>
      </trkpt>
      <trkpt lat="48.43346" lon="2.39786">
        <ele>128.80000305176</ele>
        <time>2025-06-08T08:28:14.000Z</time>
      </trkpt>
      <trkpt lat="48.43343" lon="2.39792">
        <ele>128.80000305176</ele>
        <time>2025-06-08T08:28:16.000Z</time>
      </trkpt>
      <trkpt lat="48.43341" lon="2.39808">
        <ele>128</ele>
        <time>2025-06-08T08:28:20.000Z</time>
      </trkpt>
      <trkpt lat="48.43342" lon="2.39818">
        <ele>126.40000152588</ele>
        <time>2025-06-08T08:28:22.000Z</time>
      </trkpt>
      <trkpt lat="48.43342" lon="2.39822">
        <ele>126</ele>
        <time>2025-06-08T08:28:23.000Z</time>
      </trkpt>
      <trkpt lat="48.43344" lon="2.39832">
        <ele>125.59999847412</ele>
        <time>2025-06-08T08:28:25.000Z</time>
      </trkpt>
      <trkpt lat="48.43345" lon="2.39845">
        <ele>125.40000152588</ele>
        <time>2025-06-08T08:28:28.000Z</time>
      </trkpt>
      <trkpt lat="48.43341" lon="2.39858">
        <ele>125</ele>
        <time>2025-06-08T08:28:31.000Z</time>
      </trkpt>
      <trkpt lat="48.43331" lon="2.39875">
        <ele>124.80000305176</ele>
        <time>2025-06-08T08:28:35.000Z</time>
      </trkpt>
      <trkpt lat="48.43327" lon="2.39894">
        <ele>124</ele>
        <time>2025-06-08T08:28:38.000Z</time>
      </trkpt>
      <trkpt lat="48.4332" lon="2.39894">
        <ele>123</ele>
        <time>2025-06-08T08:28:40.000Z</time>
      </trkpt>
      <trkpt lat="48.43316" lon="2.39893">
        <ele>122.40000152588</ele>
        <time>2025-06-08T08:28:41.000Z</time>
      </trkpt>
      <trkpt lat="48.43308" lon="2.39893">
        <ele>121</ele>
        <time>2025-06-08T08:28:43.000Z</time>
      </trkpt>
      <trkpt lat="48.43306" lon="2.39898">
        <ele>120.59999847412</ele>
        <time>2025-06-08T08:28:44.000Z</time>
      </trkpt>
      <trkpt lat="48.43304" lon="2.39903">
        <ele>119.80000305176</ele>
        <time>2025-06-08T08:28:45.000Z</time>
      </trkpt>
      <trkpt lat="48.43304" lon="2.39916">
        <ele>118.80000305176</ele>
        <time>2025-06-08T08:28:47.000Z</time>
      </trkpt>
      <trkpt lat="48.43302" lon="2.39921">
        <ele>117.40000152588</ele>
        <time>2025-06-08T08:28:48.000Z</time>
      </trkpt>
      <trkpt lat="48.433" lon="2.39924">
        <ele>117</ele>
        <time>2025-06-08T08:28:49.000Z</time>
      </trkpt>
      <trkpt lat="48.43297" lon="2.39924">
        <ele>116.80000305176</ele>
        <time>2025-06-08T08:28:50.000Z</time>
      </trkpt>
      <trkpt lat="48.43289" lon="2.39929">
        <ele>116.19999694824</ele>
        <time>2025-06-08T08:28:52.000Z</time>
      </trkpt>
      <trkpt lat="48.43285" lon="2.39933">
        <ele>115.40000152588</ele>
        <time>2025-06-08T08:28:53.000Z</time>
      </trkpt>
      <trkpt lat="48.43282" lon="2.39939">
        <ele>114.40000152588</ele>
        <time>2025-06-08T08:28:54.000Z</time>
      </trkpt>
      <trkpt lat="48.43278" lon="2.39953">
        <ele>113.19999694824</ele>
        <time>2025-06-08T08:28:56.000Z</time>
      </trkpt>
      <trkpt lat="48.43278" lon="2.39961">
        <ele>112.59999847412</ele>
        <time>2025-06-08T08:28:57.000Z</time>
      </trkpt>
      <trkpt lat="48.43278" lon="2.39968">
        <ele>111.80000305176</ele>
        <time>2025-06-08T08:28:58.000Z</time>
      </trkpt>
      <trkpt lat="48.43279" lon="2.39983">
        <ele>110.80000305176</ele>
        <time>2025-06-08T08:29:00.000Z</time>
      </trkpt>
      <trkpt lat="48.43279" lon="2.39991">
        <ele>109.80000305176</ele>
        <time>2025-06-08T08:29:01.000Z</time>
      </trkpt>
      <trkpt lat="48.43279" lon="2.39998">
        <ele>109</ele>
        <time>2025-06-08T08:29:02.000Z</time>
      </trkpt>
      <trkpt lat="48.43279" lon="2.40005">
        <ele>108.19999694824</ele>
        <time>2025-06-08T08:29:03.000Z</time>
      </trkpt>
      <trkpt lat="48.43282" lon="2.40015">
        <ele>107.19999694824</ele>
        <time>2025-06-08T08:29:05.000Z</time>
      </trkpt>
      <trkpt lat="48.43284" lon="2.40016">
        <ele>106.59999847412</ele>
        <time>2025-06-08T08:29:06.000Z</time>
      </trkpt>
      <trkpt lat="48.43292" lon="2.40016">
        <ele>105.40000152588</ele>
        <time>2025-06-08T08:29:09.000Z</time>
      </trkpt>
      <trkpt lat="48.43298" lon="2.40016">
        <ele>105.19999694824</ele>
        <time>2025-06-08T08:29:11.000Z</time>
      </trkpt>
      <trkpt lat="48.43314" lon="2.40011">
        <ele>105.19999694824</ele>
        <time>2025-06-08T08:29:17.000Z</time>
      </trkpt>
      <trkpt lat="48.43325" lon="2.40005">
        <ele>106.59999847412</ele>
        <time>2025-06-08T08:29:23.000Z</time>
      </trkpt>
      <trkpt lat="48.43328" lon="2.40004">
        <ele>106.80000305176</ele>
        <time>2025-06-08T08:29:24.000Z</time>
      </trkpt>
      <trkpt lat="48.43333" lon="2.4">
        <ele>107.80000305176</ele>
        <time>2025-06-08T08:29:27.000Z</time>
      </trkpt>
      <trkpt lat="48.43336" lon="2.39997">
        <ele>109</ele>
        <time>2025-06-08T08:29:29.000Z</time>
      </trkpt>
      <trkpt lat="48.43337" lon="2.39995">
        <ele>109.59999847412</ele>
        <time>2025-06-08T08:29:30.000Z</time>
      </trkpt>
      <trkpt lat="48.43339" lon="2.39994">
        <ele>110</ele>
        <time>2025-06-08T08:29:31.000Z</time>
      </trkpt>
      <trkpt lat="48.43342" lon="2.39992">
        <ele>111.19999694824</ele>
        <time>2025-06-08T08:29:33.000Z</time>
      </trkpt>
      <trkpt lat="48.43347" lon="2.39987">
        <ele>112.40000152588</ele>
        <time>2025-06-08T08:29:36.000Z</time>
      </trkpt>
      <trkpt lat="48.43352" lon="2.3998">
        <ele>113.40000152588</ele>
        <time>2025-06-08T08:29:41.000Z</time>
      </trkpt>
      <trkpt lat="48.43352" lon="2.39979">
        <ele>113.59999847412</ele>
        <time>2025-06-08T08:29:42.000Z</time>
      </trkpt>
      <trkpt lat="48.43356" lon="2.39974">
        <ele>114.40000152588</ele>
        <time>2025-06-08T08:29:46.000Z</time>
      </trkpt>
      <trkpt lat="48.4336" lon="2.3997">
        <ele>115</ele>
        <time>2025-06-08T08:29:49.000Z</time>
      </trkpt>
      <trkpt lat="48.43363" lon="2.39967">
        <ele>115.80000305176</ele>
        <time>2025-06-08T08:29:51.000Z</time>
      </trkpt>
      <trkpt lat="48.4337" lon="2.39963">
        <ele>117</ele>
        <time>2025-06-08T08:29:55.000Z</time>
      </trkpt>
      <trkpt lat="48.43376" lon="2.39963">
        <ele>118</ele>
        <time>2025-06-08T08:29:59.000Z</time>
      </trkpt>
      <trkpt lat="48.43381" lon="2.39962">
        <ele>118.80000305176</ele>
        <time>2025-06-08T08:30:02.000Z</time>
      </trkpt>
      <trkpt lat="48.43385" lon="2.39962">
        <ele>119</ele>
        <time>2025-06-08T08:30:04.000Z</time>
      </trkpt>
      <trkpt lat="48.43391" lon="2.39959">
        <ele>120.19999694824</ele>
        <time>2025-06-08T08:30:08.000Z</time>
      </trkpt>
      <trkpt lat="48.43392" lon="2.39959">
        <ele>120.40000152588</ele>
        <time>2025-06-08T08:30:09.000Z</time>
      </trkpt>
      <trkpt lat="48.43397" lon="2.39957">
        <ele>121.40000152588</ele>
        <time>2025-06-08T08:30:12.000Z</time>
      </trkpt>
      <trkpt lat="48.43399" lon="2.39956">
        <ele>122.40000152588</ele>
        <time>2025-06-08T08:30:14.000Z</time>
      </trkpt>
      <trkpt lat="48.43405" lon="2.39954">
        <ele>123.59999847412</ele>
        <time>2025-06-08T08:30:18.000Z</time>
      </trkpt>
      <trkpt lat="48.43411" lon="2.39953">
        <ele>124.59999847412</ele>
        <time>2025-06-08T08:30:21.000Z</time>
      </trkpt>
      <trkpt lat="48.43417" lon="2.39954">
        <ele>125.80000305176</ele>
        <time>2025-06-08T08:30:24.000Z</time>
      </trkpt>
      <trkpt lat="48.43418" lon="2.39954">
        <ele>126.19999694824</ele>
        <time>2025-06-08T08:30:25.000Z</time>
      </trkpt>
      <trkpt lat="48.43423" lon="2.39955">
        <ele>126.80000305176</ele>
        <time>2025-06-08T08:30:28.000Z</time>
      </trkpt>
      <trkpt lat="48.43429" lon="2.39955">
        <ele>127.59999847412</ele>
        <time>2025-06-08T08:30:32.000Z</time>
      </trkpt>
      <trkpt lat="48.43431" lon="2.39955">
        <ele>127.80000305176</ele>
        <time>2025-06-08T08:30:33.000Z</time>
      </trkpt>
      <trkpt lat="48.43432" lon="2.39955">
        <ele>128.19999694824</ele>
        <time>2025-06-08T08:30:34.000Z</time>
      </trkpt>
      <trkpt lat="48.43435" lon="2.3996">
        <ele>129</ele>
        <time>2025-06-08T08:30:37.000Z</time>
      </trkpt>
      <trkpt lat="48.43436" lon="2.39961">
        <ele>129.19999694824</ele>
        <time>2025-06-08T08:30:38.000Z</time>
      </trkpt>
      <trkpt lat="48.43438" lon="2.39971">
        <ele>130.19999694824</ele>
        <time>2025-06-08T08:30:41.000Z</time>
      </trkpt>
      <trkpt lat="48.4344" lon="2.3998">
        <ele>130.60000610352</ele>
        <time>2025-06-08T08:30:44.000Z</time>
      </trkpt>
      <trkpt lat="48.43446" lon="2.40003">
        <ele>131.19999694824</ele>
        <time>2025-06-08T08:30:50.000Z</time>
      </trkpt>
      <trkpt lat="48.43447" lon="2.40008">
        <ele>131.19999694824</ele>
        <time>2025-06-08T08:30:51.000Z</time>
      </trkpt>
      <trkpt lat="48.43451" lon="2.40034">
        <ele>131.60000610352</ele>
        <time>2025-06-08T08:30:56.000Z</time>
      </trkpt>
      <trkpt lat="48.43457" lon="2.40072">
        <ele>131.60000610352</ele>
        <time>2025-06-08T08:31:02.000Z</time>
      </trkpt>
      <trkpt lat="48.43467" lon="2.40117">
        <ele>131.60000610352</ele>
        <time>2025-06-08T08:31:09.000Z</time>
      </trkpt>
      <trkpt lat="48.43472" lon="2.40146">
        <ele>131.60000610352</ele>
        <time>2025-06-08T08:31:13.000Z</time>
      </trkpt>
      <trkpt lat="48.43474" lon="2.40161">
        <ele>131.80000305176</ele>
        <time>2025-06-08T08:31:15.000Z</time>
      </trkpt>
      <trkpt lat="48.43477" lon="2.40217">
        <ele>132.19999694824</ele>
        <time>2025-06-08T08:31:22.000Z</time>
      </trkpt>
      <trkpt lat="48.43477" lon="2.40234">
        <ele>132.39999389648</ele>
        <time>2025-06-08T08:31:24.000Z</time>
      </trkpt>
      <trkpt lat="48.43481" lon="2.40268">
        <ele>132.60000610352</ele>
        <time>2025-06-08T08:31:28.000Z</time>
      </trkpt>
      <trkpt lat="48.43482" lon="2.40276">
        <ele>132.60000610352</ele>
        <time>2025-06-08T08:31:29.000Z</time>
      </trkpt>
      <trkpt lat="48.4349" lon="2.40311">
        <ele>132.60000610352</ele>
        <time>2025-06-08T08:31:34.000Z</time>
      </trkpt>
      <trkpt lat="48.4349" lon="2.40317">
        <ele>132.60000610352</ele>
        <time>2025-06-08T08:31:35.000Z</time>
      </trkpt>
      <trkpt lat="48.43483" lon="2.40326">
        <ele>132.60000610352</ele>
        <time>2025-06-08T08:31:38.000Z</time>
      </trkpt>
      <trkpt lat="48.43476" lon="2.40327">
        <ele>132.60000610352</ele>
        <time>2025-06-08T08:31:40.000Z</time>
      </trkpt>
      <trkpt lat="48.43474" lon="2.40329">
        <ele>132.39999389648</ele>
        <time>2025-06-08T08:31:41.000Z</time>
      </trkpt>
      <trkpt lat="48.43472" lon="2.40332">
        <ele>132.39999389648</ele>
        <time>2025-06-08T08:31:42.000Z</time>
      </trkpt>
      <trkpt lat="48.43462" lon="2.40346">
        <ele>131.60000610352</ele>
        <time>2025-06-08T08:31:46.000Z</time>
      </trkpt>
      <trkpt lat="48.4346" lon="2.40356">
        <ele>131.19999694824</ele>
        <time>2025-06-08T08:31:48.000Z</time>
      </trkpt>
      <trkpt lat="48.43462" lon="2.40362">
        <ele>131.19999694824</ele>
        <time>2025-06-08T08:31:49.000Z</time>
      </trkpt>
      <trkpt lat="48.43461" lon="2.40379">
        <ele>130</ele>
        <time>2025-06-08T08:31:52.000Z</time>
      </trkpt>
      <trkpt lat="48.43461" lon="2.40384">
        <ele>129.60000610352</ele>
        <time>2025-06-08T08:31:53.000Z</time>
      </trkpt>
      <trkpt lat="48.4346" lon="2.4039">
        <ele>128.80000305176</ele>
        <time>2025-06-08T08:31:54.000Z</time>
      </trkpt>
      <trkpt lat="48.43462" lon="2.40406">
        <ele>127.59999847412</ele>
        <time>2025-06-08T08:31:57.000Z</time>
      </trkpt>
      <trkpt lat="48.43461" lon="2.4041">
        <ele>127.40000152588</ele>
        <time>2025-06-08T08:31:58.000Z</time>
      </trkpt>
      <trkpt lat="48.43452" lon="2.40418">
        <ele>126.80000305176</ele>
        <time>2025-06-08T08:32:01.000Z</time>
      </trkpt>
      <trkpt lat="48.43448" lon="2.40419">
        <ele>126.59999847412</ele>
        <time>2025-06-08T08:32:02.000Z</time>
      </trkpt>
      <trkpt lat="48.43443" lon="2.40419">
        <ele>125.59999847412</ele>
        <time>2025-06-08T08:32:04.000Z</time>
      </trkpt>
      <trkpt lat="48.43438" lon="2.40421">
        <ele>124</ele>
        <time>2025-06-08T08:32:06.000Z</time>
      </trkpt>
      <trkpt lat="48.43434" lon="2.40422">
        <ele>123</ele>
        <time>2025-06-08T08:32:07.000Z</time>
      </trkpt>
      <trkpt lat="48.43431" lon="2.40423">
        <ele>121.80000305176</ele>
        <time>2025-06-08T08:32:08.000Z</time>
      </trkpt>
      <trkpt lat="48.43427" lon="2.40423">
        <ele>120</ele>
        <time>2025-06-08T08:32:09.000Z</time>
      </trkpt>
      <trkpt lat="48.43424" lon="2.40424">
        <ele>118.59999847412</ele>
        <time>2025-06-08T08:32:10.000Z</time>
      </trkpt>
      <trkpt lat="48.43417" lon="2.40427">
        <ele>117</ele>
        <time>2025-06-08T08:32:12.000Z</time>
      </trkpt>
      <trkpt lat="48.43413" lon="2.40426">
        <ele>116.59999847412</ele>
        <time>2025-06-08T08:32:13.000Z</time>
      </trkpt>
      <trkpt lat="48.43404" lon="2.40421">
        <ele>115.40000152588</ele>
        <time>2025-06-08T08:32:15.000Z</time>
      </trkpt>
      <trkpt lat="48.434" lon="2.40416">
        <ele>114.19999694824</ele>
        <time>2025-06-08T08:32:16.000Z</time>
      </trkpt>
      <trkpt lat="48.43396" lon="2.40411">
        <ele>113.19999694824</ele>
        <time>2025-06-08T08:32:17.000Z</time>
      </trkpt>
      <trkpt lat="48.43393" lon="2.40406">
        <ele>112</ele>
        <time>2025-06-08T08:32:18.000Z</time>
      </trkpt>
      <trkpt lat="48.43391" lon="2.40401">
        <ele>110.80000305176</ele>
        <time>2025-06-08T08:32:19.000Z</time>
      </trkpt>
      <trkpt lat="48.4339" lon="2.40397">
        <ele>109.59999847412</ele>
        <time>2025-06-08T08:32:20.000Z</time>
      </trkpt>
      <trkpt lat="48.43388" lon="2.40392">
        <ele>108.19999694824</ele>
        <time>2025-06-08T08:32:21.000Z</time>
      </trkpt>
      <trkpt lat="48.43386" lon="2.40389">
        <ele>107.19999694824</ele>
        <time>2025-06-08T08:32:22.000Z</time>
      </trkpt>
      <trkpt lat="48.43383" lon="2.40385">
        <ele>106.19999694824</ele>
        <time>2025-06-08T08:32:23.000Z</time>
      </trkpt>
      <trkpt lat="48.43377" lon="2.40377">
        <ele>105.19999694824</ele>
        <time>2025-06-08T08:32:25.000Z</time>
      </trkpt>
      <trkpt lat="48.43374" lon="2.40374">
        <ele>105.19999694824</ele>
        <time>2025-06-08T08:32:26.000Z</time>
      </trkpt>
      <trkpt lat="48.43369" lon="2.40362">
        <ele>104.80000305176</ele>
        <time>2025-06-08T08:32:30.000Z</time>
      </trkpt>
      <trkpt lat="48.43369" lon="2.40358">
        <ele>105</ele>
        <time>2025-06-08T08:32:32.000Z</time>
      </trkpt>
      <trkpt lat="48.43372" lon="2.40352">
        <ele>105.19999694824</ele>
        <time>2025-06-08T08:32:35.000Z</time>
      </trkpt>
      <trkpt lat="48.43375" lon="2.40349">
        <ele>106</ele>
        <time>2025-06-08T08:32:37.000Z</time>
      </trkpt>
      <trkpt lat="48.43376" lon="2.40344">
        <ele>107.19999694824</ele>
        <time>2025-06-08T08:32:39.000Z</time>
      </trkpt>
      <trkpt lat="48.43375" lon="2.40338">
        <ele>108.40000152588</ele>
        <time>2025-06-08T08:32:41.000Z</time>
      </trkpt>
      <trkpt lat="48.43375" lon="2.40335">
        <ele>108.59999847412</ele>
        <time>2025-06-08T08:32:42.000Z</time>
      </trkpt>
      <trkpt lat="48.43373" lon="2.40326">
        <ele>109.59999847412</ele>
        <time>2025-06-08T08:32:46.000Z</time>
      </trkpt>
      <trkpt lat="48.43373" lon="2.40321">
        <ele>110.19999694824</ele>
        <time>2025-06-08T08:32:48.000Z</time>
      </trkpt>
      <trkpt lat="48.43373" lon="2.40316">
        <ele>110.80000305176</ele>
        <time>2025-06-08T08:32:50.000Z</time>
      </trkpt>
      <trkpt lat="48.43372" lon="2.40308">
        <ele>112</ele>
        <time>2025-06-08T08:32:53.000Z</time>
      </trkpt>
      <trkpt lat="48.43371" lon="2.40305">
        <ele>112.40000152588</ele>
        <time>2025-06-08T08:32:54.000Z</time>
      </trkpt>
      <trkpt lat="48.4337" lon="2.40297">
        <ele>113.19999694824</ele>
        <time>2025-06-08T08:32:57.000Z</time>
      </trkpt>
      <trkpt lat="48.43371" lon="2.40289">
        <ele>114</ele>
        <time>2025-06-08T08:33:00.000Z</time>
      </trkpt>
      <trkpt lat="48.43371" lon="2.40284">
        <ele>114.59999847412</ele>
        <time>2025-06-08T08:33:02.000Z</time>
      </trkpt>
      <trkpt lat="48.43373" lon="2.4028">
        <ele>115.40000152588</ele>
        <time>2025-06-08T08:33:05.000Z</time>
      </trkpt>
      <trkpt lat="48.43373" lon="2.40279">
        <ele>115.80000305176</ele>
        <time>2025-06-08T08:33:06.000Z</time>
      </trkpt>
      <trkpt lat="48.43375" lon="2.40274">
        <ele>116.80000305176</ele>
        <time>2025-06-08T08:33:09.000Z</time>
      </trkpt>
      <trkpt lat="48.43375" lon="2.40272">
        <ele>117.59999847412</ele>
        <time>2025-06-08T08:33:10.000Z</time>
      </trkpt>
      <trkpt lat="48.43379" lon="2.40268">
        <ele>118.59999847412</ele>
        <time>2025-06-08T08:33:13.000Z</time>
      </trkpt>
      <trkpt lat="48.4338" lon="2.40267">
        <ele>118.80000305176</ele>
        <time>2025-06-08T08:33:14.000Z</time>
      </trkpt>
      <trkpt lat="48.43386" lon="2.40261">
        <ele>119.80000305176</ele>
        <time>2025-06-08T08:33:19.000Z</time>
      </trkpt>
      <trkpt lat="48.43389" lon="2.40258">
        <ele>120</ele>
        <time>2025-06-08T08:33:21.000Z</time>
      </trkpt>
      <trkpt lat="48.43393" lon="2.40254">
        <ele>120.80000305176</ele>
        <time>2025-06-08T08:33:24.000Z</time>
      </trkpt>
      <trkpt lat="48.43397" lon="2.40249">
        <ele>121.59999847412</ele>
        <time>2025-06-08T08:33:27.000Z</time>
      </trkpt>
      <trkpt lat="48.43401" lon="2.40246">
        <ele>122</ele>
        <time>2025-06-08T08:33:29.000Z</time>
      </trkpt>
      <trkpt lat="48.43408" lon="2.40234">
        <ele>122.40000152588</ele>
        <time>2025-06-08T08:33:33.000Z</time>
      </trkpt>
      <trkpt lat="48.43415" lon="2.40217">
        <ele>123</ele>
        <time>2025-06-08T08:33:37.000Z</time>
      </trkpt>
      <trkpt lat="48.43415" lon="2.40206">
        <ele>123.19999694824</ele>
        <time>2025-06-08T08:33:39.000Z</time>
      </trkpt>
      <trkpt lat="48.43416" lon="2.4019">
        <ele>123.59999847412</ele>
        <time>2025-06-08T08:33:43.000Z</time>
      </trkpt>
      <trkpt lat="48.43416" lon="2.40189">
        <ele>123.59999847412</ele>
        <time>2025-06-08T08:33:44.000Z</time>
      </trkpt>
      <trkpt lat="48.43412" lon="2.40189">
        <ele>124.19999694824</ele>
        <time>2025-06-08T08:33:50.000Z</time>
      </trkpt>
      <trkpt lat="48.434" lon="2.40186">
        <ele>124.59999847412</ele>
        <time>2025-06-08T08:33:56.000Z</time>
      </trkpt>
      <trkpt lat="48.43397" lon="2.40184">
        <ele>124.59999847412</ele>
        <time>2025-06-08T08:33:57.000Z</time>
      </trkpt>
      <trkpt lat="48.43391" lon="2.40183">
        <ele>124.59999847412</ele>
        <time>2025-06-08T08:33:59.000Z</time>
      </trkpt>
      <trkpt lat="48.4339" lon="2.40185">
        <ele>124.59999847412</ele>
        <time>2025-06-08T08:34:00.000Z</time>
      </trkpt>
      <trkpt lat="48.43389" lon="2.40194">
        <ele>124.19999694824</ele>
        <time>2025-06-08T08:34:03.000Z</time>
      </trkpt>
      <trkpt lat="48.43388" lon="2.40197">
        <ele>123.80000305176</ele>
        <time>2025-06-08T08:34:04.000Z</time>
      </trkpt>
      <trkpt lat="48.43388" lon="2.40199">
        <ele>123.59999847412</ele>
        <time>2025-06-08T08:34:05.000Z</time>
      </trkpt>
      <trkpt lat="48.43385" lon="2.40199">
        <ele>123.19999694824</ele>
        <time>2025-06-08T08:34:07.000Z</time>
      </trkpt>
      <trkpt lat="48.43383" lon="2.40197">
        <ele>123.19999694824</ele>
        <time>2025-06-08T08:34:08.000Z</time>
      </trkpt>
      <trkpt lat="48.43372" lon="2.40183">
        <ele>123.19999694824</ele>
        <time>2025-06-08T08:34:13.000Z</time>
      </trkpt>
      <trkpt lat="48.43362" lon="2.40167">
        <ele>123.19999694824</ele>
        <time>2025-06-08T08:34:18.000Z</time>
      </trkpt>
      <trkpt lat="48.43358" lon="2.4015">
        <ele>123.19999694824</ele>
        <time>2025-06-08T08:34:22.000Z</time>
      </trkpt>
      <trkpt lat="48.43356" lon="2.40147">
        <ele>123.19999694824</ele>
        <time>2025-06-08T08:34:23.000Z</time>
      </trkpt>
      <trkpt lat="48.43345" lon="2.40142">
        <ele>123</ele>
        <time>2025-06-08T08:34:27.000Z</time>
      </trkpt>
      <trkpt lat="48.43337" lon="2.40151">
        <ele>122.80000305176</ele>
        <time>2025-06-08T08:34:31.000Z</time>
      </trkpt>
      <trkpt lat="48.43335" lon="2.40156">
        <ele>122.80000305176</ele>
        <time>2025-06-08T08:34:32.000Z</time>
      </trkpt>
      <trkpt lat="48.43328" lon="2.40169">
        <ele>122.40000152588</ele>
        <time>2025-06-08T08:34:36.000Z</time>
      </trkpt>
      <trkpt lat="48.43326" lon="2.40176">
        <ele>121.80000305176</ele>
        <time>2025-06-08T08:34:38.000Z</time>
      </trkpt>
      <trkpt lat="48.43323" lon="2.40181">
        <ele>120.59999847412</ele>
        <time>2025-06-08T08:34:40.000Z</time>
      </trkpt>
      <trkpt lat="48.43314" lon="2.40175">
        <ele>119.80000305176</ele>
        <time>2025-06-08T08:34:44.000Z</time>
      </trkpt>
      <trkpt lat="48.4331" lon="2.40163">
        <ele>119.59999847412</ele>
        <time>2025-06-08T08:34:47.000Z</time>
      </trkpt>
      <trkpt lat="48.43307" lon="2.40156">
        <ele>118.80000305176</ele>
        <time>2025-06-08T08:34:49.000Z</time>
      </trkpt>
      <trkpt lat="48.43306" lon="2.40153">
        <ele>118.19999694824</ele>
        <time>2025-06-08T08:34:50.000Z</time>
      </trkpt>
      <trkpt lat="48.43302" lon="2.40152">
        <ele>117.19999694824</ele>
        <time>2025-06-08T08:34:52.000Z</time>
      </trkpt>
      <trkpt lat="48.43301" lon="2.40151">
        <ele>116.40000152588</ele>
        <time>2025-06-08T08:34:53.000Z</time>
      </trkpt>
      <trkpt lat="48.43299" lon="2.4015">
        <ele>115.80000305176</ele>
        <time>2025-06-08T08:34:54.000Z</time>
      </trkpt>
      <trkpt lat="48.43297" lon="2.4015">
        <ele>114</ele>
        <time>2025-06-08T08:34:56.000Z</time>
      </trkpt>
      <trkpt lat="48.43295" lon="2.40151">
        <ele>113</ele>
        <time>2025-06-08T08:34:57.000Z</time>
      </trkpt>
      <trkpt lat="48.43292" lon="2.4015">
        <ele>112.19999694824</ele>
        <time>2025-06-08T08:34:58.000Z</time>
      </trkpt>
      <trkpt lat="48.43289" lon="2.40147">
        <ele>110.59999847412</ele>
        <time>2025-06-08T08:35:00.000Z</time>
      </trkpt>
      <trkpt lat="48.43288" lon="2.40144">
        <ele>110</ele>
        <time>2025-06-08T08:35:01.000Z</time>
      </trkpt>
      <trkpt lat="48.43287" lon="2.40141">
        <ele>109.19999694824</ele>
        <time>2025-06-08T08:35:02.000Z</time>
      </trkpt>
      <trkpt lat="48.43285" lon="2.40132">
        <ele>107.40000152588</ele>
        <time>2025-06-08T08:35:04.000Z</time>
      </trkpt>
      <trkpt lat="48.43283" lon="2.40126">
        <ele>105.40000152588</ele>
        <time>2025-06-08T08:35:05.000Z</time>
      </trkpt>
      <trkpt lat="48.43281" lon="2.40121">
        <ele>104.40000152588</ele>
        <time>2025-06-08T08:35:06.000Z</time>
      </trkpt>
      <trkpt lat="48.43276" lon="2.40109">
        <ele>103</ele>
        <time>2025-06-08T08:35:08.000Z</time>
      </trkpt>
      <trkpt lat="48.43271" lon="2.40098">
        <ele>102</ele>
        <time>2025-06-08T08:35:10.000Z</time>
      </trkpt>
      <trkpt lat="48.43268" lon="2.40093">
        <ele>101.40000152588</ele>
        <time>2025-06-08T08:35:11.000Z</time>
      </trkpt>
      <trkpt lat="48.43262" lon="2.40083">
        <ele>100.80000305176</ele>
        <time>2025-06-08T08:35:13.000Z</time>
      </trkpt>
      <trkpt lat="48.43255" lon="2.40073">
        <ele>100.59999847412</ele>
        <time>2025-06-08T08:35:15.000Z</time>
      </trkpt>
      <trkpt lat="48.4324" lon="2.40055">
        <ele>100.40000152588</ele>
        <time>2025-06-08T08:35:19.000Z</time>
      </trkpt>
      <trkpt lat="48.43229" lon="2.40054">
        <ele>100.19999694824</ele>
        <time>2025-06-08T08:35:22.000Z</time>
      </trkpt>
      <trkpt lat="48.43224" lon="2.40055">
        <ele>100</ele>
        <time>2025-06-08T08:35:23.000Z</time>
      </trkpt>
      <trkpt lat="48.43218" lon="2.40057">
        <ele>99.599998474121</ele>
        <time>2025-06-08T08:35:24.000Z</time>
      </trkpt>
      <trkpt lat="48.43205" lon="2.40061">
        <ele>99.199996948242</ele>
        <time>2025-06-08T08:35:26.000Z</time>
      </trkpt>
      <trkpt lat="48.43166" lon="2.40078">
        <ele>98.199996948242</ele>
        <time>2025-06-08T08:35:31.000Z</time>
      </trkpt>
      <trkpt lat="48.43158" lon="2.40081">
        <ele>97.400001525879</ele>
        <time>2025-06-08T08:35:32.000Z</time>
      </trkpt>
      <trkpt lat="48.43149" lon="2.40084">
        <ele>96.599998474121</ele>
        <time>2025-06-08T08:35:33.000Z</time>
      </trkpt>
      <trkpt lat="48.4314" lon="2.40087">
        <ele>94.599998474121</ele>
        <time>2025-06-08T08:35:34.000Z</time>
      </trkpt>
      <trkpt lat="48.43123" lon="2.40093">
        <ele>92.599998474121</ele>
        <time>2025-06-08T08:35:36.000Z</time>
      </trkpt>
      <trkpt lat="48.43105" lon="2.40097">
        <ele>91.400001525879</ele>
        <time>2025-06-08T08:35:38.000Z</time>
      </trkpt>
      <trkpt lat="48.43088" lon="2.40103">
        <ele>90</ele>
        <time>2025-06-08T08:35:40.000Z</time>
      </trkpt>
      <trkpt lat="48.4308" lon="2.40105">
        <ele>89</ele>
        <time>2025-06-08T08:35:41.000Z</time>
      </trkpt>
      <trkpt lat="48.43063" lon="2.4011">
        <ele>87</ele>
        <time>2025-06-08T08:35:43.000Z</time>
      </trkpt>
      <trkpt lat="48.43047" lon="2.40115">
        <ele>86</ele>
        <time>2025-06-08T08:35:45.000Z</time>
      </trkpt>
      <trkpt lat="48.43032" lon="2.40122">
        <ele>85</ele>
        <time>2025-06-08T08:35:47.000Z</time>
      </trkpt>
      <trkpt lat="48.43017" lon="2.40131">
        <ele>83.599998474121</ele>
        <time>2025-06-08T08:35:49.000Z</time>
      </trkpt>
      <trkpt lat="48.43003" lon="2.4014">
        <ele>83</ele>
        <time>2025-06-08T08:35:51.000Z</time>
      </trkpt>
      <trkpt lat="48.4298" lon="2.40151">
        <ele>82.199996948242</ele>
        <time>2025-06-08T08:35:54.000Z</time>
      </trkpt>
      <trkpt lat="48.42957" lon="2.40157">
        <ele>81.199996948242</ele>
        <time>2025-06-08T08:35:57.000Z</time>
      </trkpt>
      <trkpt lat="48.42949" lon="2.40158">
        <ele>80.800003051758</ele>
        <time>2025-06-08T08:35:58.000Z</time>
      </trkpt>
      <trkpt lat="48.42933" lon="2.40159">
        <ele>79.800003051758</ele>
        <time>2025-06-08T08:36:00.000Z</time>
      </trkpt>
      <trkpt lat="48.42909" lon="2.4016">
        <ele>78.599998474121</ele>
        <time>2025-06-08T08:36:03.000Z</time>
      </trkpt>
      <trkpt lat="48.42901" lon="2.4016">
        <ele>78.199996948242</ele>
        <time>2025-06-08T08:36:04.000Z</time>
      </trkpt>
      <trkpt lat="48.42879" lon="2.40164">
        <ele>77.400001525879</ele>
        <time>2025-06-08T08:36:07.000Z</time>
      </trkpt>
      <trkpt lat="48.42864" lon="2.40168">
        <ele>76.199996948242</ele>
        <time>2025-06-08T08:36:09.000Z</time>
      </trkpt>
      <trkpt lat="48.42856" lon="2.4017">
        <ele>75.800003051758</ele>
        <time>2025-06-08T08:36:10.000Z</time>
      </trkpt>
      <trkpt lat="48.42841" lon="2.40173">
        <ele>74.800003051758</ele>
        <time>2025-06-08T08:36:12.000Z</time>
      </trkpt>
      <trkpt lat="48.42819" lon="2.40177">
        <ele>74.199996948242</ele>
        <time>2025-06-08T08:36:15.000Z</time>
      </trkpt>
      <trkpt lat="48.42805" lon="2.40179">
        <ele>74</ele>
        <time>2025-06-08T08:36:17.000Z</time>
      </trkpt>
      <trkpt lat="48.42792" lon="2.40179">
        <ele>73.800003051758</ele>
        <time>2025-06-08T08:36:19.000Z</time>
      </trkpt>
      <trkpt lat="48.42786" lon="2.40178">
        <ele>73.800003051758</ele>
        <time>2025-06-08T08:36:20.000Z</time>
      </trkpt>
      <trkpt lat="48.4278" lon="2.40176">
        <ele>73.400001525879</ele>
        <time>2025-06-08T08:36:21.000Z</time>
      </trkpt>
      <trkpt lat="48.42769" lon="2.40156">
        <ele>72.800003051758</ele>
        <time>2025-06-08T08:36:24.000Z</time>
      </trkpt>
      <trkpt lat="48.42772" lon="2.40127">
        <ele>72.599998474121</ele>
        <time>2025-06-08T08:36:27.000Z</time>
      </trkpt>
      <trkpt lat="48.42773" lon="2.40117">
        <ele>72.400001525879</ele>
        <time>2025-06-08T08:36:28.000Z</time>
      </trkpt>
      <trkpt lat="48.42772" lon="2.40088">
        <ele>72.199996948242</ele>
        <time>2025-06-08T08:36:31.000Z</time>
      </trkpt>
      <trkpt lat="48.42771" lon="2.40058">
        <ele>71.599998474121</ele>
        <time>2025-06-08T08:36:34.000Z</time>
      </trkpt>
      <trkpt lat="48.42772" lon="2.4002">
        <ele>70.400001525879</ele>
        <time>2025-06-08T08:36:38.000Z</time>
      </trkpt>
      <trkpt lat="48.42767" lon="2.39965">
        <ele>69.400001525879</ele>
        <time>2025-06-08T08:36:44.000Z</time>
      </trkpt>
      <trkpt lat="48.42765" lon="2.3994">
        <ele>69.400001525879</ele>
        <time>2025-06-08T08:36:47.000Z</time>
      </trkpt>
      <trkpt lat="48.4276" lon="2.39908">
        <ele>69</ele>
        <time>2025-06-08T08:36:51.000Z</time>
      </trkpt>
      <trkpt lat="48.42752" lon="2.39849">
        <ele>68.599998474121</ele>
        <time>2025-06-08T08:36:59.000Z</time>
      </trkpt>
      <trkpt lat="48.4275" lon="2.3984">
        <ele>68.599998474121</ele>
        <time>2025-06-08T08:37:01.000Z</time>
      </trkpt>
      <trkpt lat="48.42747" lon="2.39838">
        <ele>68.599998474121</ele>
        <time>2025-06-08T08:37:02.000Z</time>
      </trkpt>
      <trkpt lat="48.42737" lon="2.39839">
        <ele>68.599998474121</ele>
        <time>2025-06-08T08:37:05.000Z</time>
      </trkpt>
      <trkpt lat="48.42733" lon="2.3984">
        <ele>68.599998474121</ele>
        <time>2025-06-08T08:37:06.000Z</time>
      </trkpt>
      <trkpt lat="48.42702" lon="2.39846">
        <ele>69.599998474121</ele>
        <time>2025-06-08T08:37:13.000Z</time>
      </trkpt>
      <trkpt lat="48.42692" lon="2.39852">
        <ele>69.800003051758</ele>
        <time>2025-06-08T08:37:17.000Z</time>
      </trkpt>
      <trkpt lat="48.42688" lon="2.39874">
        <ele>70</ele>
        <time>2025-06-08T08:37:21.000Z</time>
      </trkpt>
      <trkpt lat="48.42687" lon="2.39887">
        <ele>70.599998474121</ele>
        <time>2025-06-08T08:37:23.000Z</time>
      </trkpt>
      <trkpt lat="48.42686" lon="2.3993">
        <ele>71.199996948242</ele>
        <time>2025-06-08T08:37:29.000Z</time>
      </trkpt>
      <trkpt lat="48.42686" lon="2.39958">
        <ele>71.599998474121</ele>
        <time>2025-06-08T08:37:33.000Z</time>
      </trkpt>
      <trkpt lat="48.42686" lon="2.40001">
        <ele>72.199996948242</ele>
        <time>2025-06-08T08:37:39.000Z</time>
      </trkpt>
      <trkpt lat="48.42684" lon="2.4003">
        <ele>72.800003051758</ele>
        <time>2025-06-08T08:37:43.000Z</time>
      </trkpt>
      <trkpt lat="48.42682" lon="2.40057">
        <ele>73.599998474121</ele>
        <time>2025-06-08T08:37:47.000Z</time>
      </trkpt>
      <trkpt lat="48.42681" lon="2.40064">
        <ele>73.800003051758</ele>
        <time>2025-06-08T08:37:48.000Z</time>
      </trkpt>
      <trkpt lat="48.42677" lon="2.40093">
        <ele>74.800003051758</ele>
        <time>2025-06-08T08:37:53.000Z</time>
      </trkpt>
      <trkpt lat="48.42675" lon="2.40098">
        <ele>75</ele>
        <time>2025-06-08T08:37:54.000Z</time>
      </trkpt>
      <trkpt lat="48.42672" lon="2.40102">
        <ele>75.400001525879</ele>
        <time>2025-06-08T08:37:55.000Z</time>
      </trkpt>
      <trkpt lat="48.42664" lon="2.40109">
        <ele>75.599998474121</ele>
        <time>2025-06-08T08:37:57.000Z</time>
      </trkpt>
      <trkpt lat="48.42647" lon="2.40115">
        <ele>75.800003051758</ele>
        <time>2025-06-08T08:38:01.000Z</time>
      </trkpt>
      <trkpt lat="48.42642" lon="2.40116">
        <ele>75.800003051758</ele>
        <time>2025-06-08T08:38:02.000Z</time>
      </trkpt>
      <trkpt lat="48.42626" lon="2.40131">
        <ele>76</ele>
        <time>2025-06-08T08:38:07.000Z</time>
      </trkpt>
      <trkpt lat="48.42616" lon="2.40151">
        <ele>76.199996948242</ele>
        <time>2025-06-08T08:38:13.000Z</time>
      </trkpt>
      <trkpt lat="48.42614" lon="2.40154">
        <ele>76.400001525879</ele>
        <time>2025-06-08T08:38:14.000Z</time>
      </trkpt>
      <trkpt lat="48.4261" lon="2.40174">
        <ele>77.199996948242</ele>
        <time>2025-06-08T08:38:19.000Z</time>
      </trkpt>
      <trkpt lat="48.4261" lon="2.40178">
        <ele>77.599998474121</ele>
        <time>2025-06-08T08:38:20.000Z</time>
      </trkpt>
      <trkpt lat="48.42607" lon="2.40198">
        <ele>78.400001525879</ele>
        <time>2025-06-08T08:38:25.000Z</time>
      </trkpt>
      <trkpt lat="48.42605" lon="2.40213">
        <ele>79.400001525879</ele>
        <time>2025-06-08T08:38:29.000Z</time>
      </trkpt>
      <trkpt lat="48.42604" lon="2.40216">
        <ele>79.400001525879</ele>
        <time>2025-06-08T08:38:30.000Z</time>
      </trkpt>
      <trkpt lat="48.42602" lon="2.40235">
        <ele>80.199996948242</ele>
        <time>2025-06-08T08:38:35.000Z</time>
      </trkpt>
      <trkpt lat="48.42602" lon="2.40238">
        <ele>80.599998474121</ele>
        <time>2025-06-08T08:38:36.000Z</time>
      </trkpt>
      <trkpt lat="48.426" lon="2.4025">
        <ele>81.599998474121</ele>
        <time>2025-06-08T08:38:40.000Z</time>
      </trkpt>
      <trkpt lat="48.42599" lon="2.40254">
        <ele>81.800003051758</ele>
        <time>2025-06-08T08:38:41.000Z</time>
      </trkpt>
      <trkpt lat="48.42598" lon="2.40271">
        <ele>83.199996948242</ele>
        <time>2025-06-08T08:38:46.000Z</time>
      </trkpt>
      <trkpt lat="48.42597" lon="2.40291">
        <ele>84.199996948242</ele>
        <time>2025-06-08T08:38:51.000Z</time>
      </trkpt>
      <trkpt lat="48.42598" lon="2.40298">
        <ele>84.599998474121</ele>
        <time>2025-06-08T08:38:53.000Z</time>
      </trkpt>
      <trkpt lat="48.42598" lon="2.40308">
        <ele>85.199996948242</ele>
        <time>2025-06-08T08:38:56.000Z</time>
      </trkpt>
      <trkpt lat="48.42599" lon="2.40325">
        <ele>86.199996948242</ele>
        <time>2025-06-08T08:39:01.000Z</time>
      </trkpt>
      <trkpt lat="48.42599" lon="2.40328">
        <ele>86.599998474121</ele>
        <time>2025-06-08T08:39:02.000Z</time>
      </trkpt>
      <trkpt lat="48.42601" lon="2.40343">
        <ele>87.599998474121</ele>
        <time>2025-06-08T08:39:06.000Z</time>
      </trkpt>
      <trkpt lat="48.42602" lon="2.40349">
        <ele>88</ele>
        <time>2025-06-08T08:39:08.000Z</time>
      </trkpt>
      <trkpt lat="48.42604" lon="2.40354">
        <ele>88.599998474121</ele>
        <time>2025-06-08T08:39:10.000Z</time>
      </trkpt>
      <trkpt lat="48.42609" lon="2.40367">
        <ele>89.599998474121</ele>
        <time>2025-06-08T08:39:14.000Z</time>
      </trkpt>
      <trkpt lat="48.4261" lon="2.4037">
        <ele>89.800003051758</ele>
        <time>2025-06-08T08:39:15.000Z</time>
      </trkpt>
      <trkpt lat="48.42612" lon="2.4038">
        <ele>90.400001525879</ele>
        <time>2025-06-08T08:39:18.000Z</time>
      </trkpt>
      <trkpt lat="48.42615" lon="2.40394">
        <ele>91.400001525879</ele>
        <time>2025-06-08T08:39:22.000Z</time>
      </trkpt>
      <trkpt lat="48.42616" lon="2.404">
        <ele>91.800003051758</ele>
        <time>2025-06-08T08:39:24.000Z</time>
      </trkpt>
      <trkpt lat="48.42619" lon="2.4041">
        <ele>92.800003051758</ele>
        <time>2025-06-08T08:39:27.000Z</time>
      </trkpt>
      <trkpt lat="48.42621" lon="2.40415">
        <ele>93.400001525879</ele>
        <time>2025-06-08T08:39:29.000Z</time>
      </trkpt>
      <trkpt lat="48.42623" lon="2.40422">
        <ele>94</ele>
        <time>2025-06-08T08:39:32.000Z</time>
      </trkpt>
      <trkpt lat="48.42626" lon="2.40428">
        <ele>94.800003051758</ele>
        <time>2025-06-08T08:39:35.000Z</time>
      </trkpt>
      <trkpt lat="48.42628" lon="2.40433">
        <ele>95.199996948242</ele>
        <time>2025-06-08T08:39:37.000Z</time>
      </trkpt>
      <trkpt lat="48.42629" lon="2.40441">
        <ele>96.199996948242</ele>
        <time>2025-06-08T08:39:41.000Z</time>
      </trkpt>
      <trkpt lat="48.42629" lon="2.40443">
        <ele>96.400001525879</ele>
        <time>2025-06-08T08:39:42.000Z</time>
      </trkpt>
      <trkpt lat="48.42629" lon="2.4045">
        <ele>97.199996948242</ele>
        <time>2025-06-08T08:39:45.000Z</time>
      </trkpt>
      <trkpt lat="48.42627" lon="2.4046">
        <ele>98.199996948242</ele>
        <time>2025-06-08T08:39:49.000Z</time>
      </trkpt>
      <trkpt lat="48.42627" lon="2.40463">
        <ele>98.400001525879</ele>
        <time>2025-06-08T08:39:50.000Z</time>
      </trkpt>
      <trkpt lat="48.42625" lon="2.4048">
        <ele>99.599998474121</ele>
        <time>2025-06-08T08:39:56.000Z</time>
      </trkpt>
      <trkpt lat="48.42625" lon="2.40483">
        <ele>100</ele>
        <time>2025-06-08T08:39:57.000Z</time>
      </trkpt>
      <trkpt lat="48.42624" lon="2.40491">
        <ele>100.80000305176</ele>
        <time>2025-06-08T08:40:00.000Z</time>
      </trkpt>
      <trkpt lat="48.42622" lon="2.40504">
        <ele>101.80000305176</ele>
        <time>2025-06-08T08:40:05.000Z</time>
      </trkpt>
      <trkpt lat="48.42622" lon="2.40507">
        <ele>101.80000305176</ele>
        <time>2025-06-08T08:40:06.000Z</time>
      </trkpt>
      <trkpt lat="48.4262" lon="2.40516">
        <ele>103</ele>
        <time>2025-06-08T08:40:10.000Z</time>
      </trkpt>
      <trkpt lat="48.4262" lon="2.40522">
        <ele>103.59999847412</ele>
        <time>2025-06-08T08:40:12.000Z</time>
      </trkpt>
      <trkpt lat="48.42619" lon="2.40529">
        <ele>104</ele>
        <time>2025-06-08T08:40:15.000Z</time>
      </trkpt>
      <trkpt lat="48.42619" lon="2.40539">
        <ele>105</ele>
        <time>2025-06-08T08:40:19.000Z</time>
      </trkpt>
      <trkpt lat="48.42619" lon="2.40541">
        <ele>105.40000152588</ele>
        <time>2025-06-08T08:40:20.000Z</time>
      </trkpt>
      <trkpt lat="48.42617" lon="2.40554">
        <ele>106.40000152588</ele>
        <time>2025-06-08T08:40:25.000Z</time>
      </trkpt>
      <trkpt lat="48.42616" lon="2.40556">
        <ele>106.80000305176</ele>
        <time>2025-06-08T08:40:26.000Z</time>
      </trkpt>
      <trkpt lat="48.42614" lon="2.40567">
        <ele>108</ele>
        <time>2025-06-08T08:40:31.000Z</time>
      </trkpt>
      <trkpt lat="48.42614" lon="2.40569">
        <ele>108.19999694824</ele>
        <time>2025-06-08T08:40:32.000Z</time>
      </trkpt>
      <trkpt lat="48.42612" lon="2.40575">
        <ele>109.19999694824</ele>
        <time>2025-06-08T08:40:35.000Z</time>
      </trkpt>
      <trkpt lat="48.4261" lon="2.40584">
        <ele>110.40000152588</ele>
        <time>2025-06-08T08:40:39.000Z</time>
      </trkpt>
      <trkpt lat="48.42608" lon="2.40588">
        <ele>111</ele>
        <time>2025-06-08T08:40:41.000Z</time>
      </trkpt>
      <trkpt lat="48.42607" lon="2.40592">
        <ele>111.40000152588</ele>
        <time>2025-06-08T08:40:43.000Z</time>
      </trkpt>
      <trkpt lat="48.42607" lon="2.40594">
        <ele>111.80000305176</ele>
        <time>2025-06-08T08:40:44.000Z</time>
      </trkpt>
      <trkpt lat="48.42607" lon="2.40601">
        <ele>112.59999847412</ele>
        <time>2025-06-08T08:40:47.000Z</time>
      </trkpt>
      <trkpt lat="48.42606" lon="2.40608">
        <ele>113.80000305176</ele>
        <time>2025-06-08T08:40:51.000Z</time>
      </trkpt>
      <trkpt lat="48.42605" lon="2.40616">
        <ele>115</ele>
        <time>2025-06-08T08:40:55.000Z</time>
      </trkpt>
      <trkpt lat="48.42604" lon="2.40624">
        <ele>116.19999694824</ele>
        <time>2025-06-08T08:40:59.000Z</time>
      </trkpt>
      <trkpt lat="48.42604" lon="2.40629">
        <ele>117.59999847412</ele>
        <time>2025-06-08T08:41:03.000Z</time>
      </trkpt>
      <trkpt lat="48.42603" lon="2.40632">
        <ele>118.59999847412</ele>
        <time>2025-06-08T08:41:09.000Z</time>
      </trkpt>
      <trkpt lat="48.42602" lon="2.40631">
        <ele>118.80000305176</ele>
        <time>2025-06-08T08:41:20.000Z</time>
      </trkpt>
      <trkpt lat="48.426" lon="2.40624">
        <ele>119.80000305176</ele>
        <time>2025-06-08T08:41:31.000Z</time>
      </trkpt>
      <trkpt lat="48.42601" lon="2.40622">
        <ele>120</ele>
        <time>2025-06-08T08:41:32.000Z</time>
      </trkpt>
      <trkpt lat="48.42601" lon="2.40608">
        <ele>120.40000152588</ele>
        <time>2025-06-08T08:41:38.000Z</time>
      </trkpt>
      <trkpt lat="48.42599" lon="2.40594">
        <ele>120.19999694824</ele>
        <time>2025-06-08T08:41:43.000Z</time>
      </trkpt>
      <trkpt lat="48.42598" lon="2.40593">
        <ele>120.19999694824</ele>
        <time>2025-06-08T08:41:44.000Z</time>
      </trkpt>
      <trkpt lat="48.42589" lon="2.4059">
        <ele>120.19999694824</ele>
        <time>2025-06-08T08:41:49.000Z</time>
      </trkpt>
      <trkpt lat="48.42588" lon="2.40589">
        <ele>120.19999694824</ele>
        <time>2025-06-08T08:41:50.000Z</time>
      </trkpt>
      <trkpt lat="48.42586" lon="2.40589">
        <ele>120.19999694824</ele>
        <time>2025-06-08T08:41:51.000Z</time>
      </trkpt>
      <trkpt lat="48.42581" lon="2.40587">
        <ele>120.40000152588</ele>
        <time>2025-06-08T08:41:54.000Z</time>
      </trkpt>
      <trkpt lat="48.4258" lon="2.40587">
        <ele>120.59999847412</ele>
        <time>2025-06-08T08:41:55.000Z</time>
      </trkpt>
      <trkpt lat="48.42572" lon="2.40588">
        <ele>120.80000305176</ele>
        <time>2025-06-08T08:41:59.000Z</time>
      </trkpt>
      <trkpt lat="48.4257" lon="2.40589">
        <ele>120.80000305176</ele>
        <time>2025-06-08T08:42:00.000Z</time>
      </trkpt>
      <trkpt lat="48.42566" lon="2.4059">
        <ele>121</ele>
        <time>2025-06-08T08:42:02.000Z</time>
      </trkpt>
      <trkpt lat="48.42562" lon="2.40592">
        <ele>121</ele>
        <time>2025-06-08T08:42:04.000Z</time>
      </trkpt>
      <trkpt lat="48.42555" lon="2.40594">
        <ele>121</ele>
        <time>2025-06-08T08:42:07.000Z</time>
      </trkpt>
      <trkpt lat="48.42549" lon="2.40594">
        <ele>121</ele>
        <time>2025-06-08T08:42:09.000Z</time>
      </trkpt>
      <trkpt lat="48.42539" lon="2.40598">
        <ele>121</ele>
        <time>2025-06-08T08:42:12.000Z</time>
      </trkpt>
      <trkpt lat="48.42534" lon="2.406">
        <ele>121</ele>
        <time>2025-06-08T08:42:14.000Z</time>
      </trkpt>
      <trkpt lat="48.42513" lon="2.40604">
        <ele>120.59999847412</ele>
        <time>2025-06-08T08:42:21.000Z</time>
      </trkpt>
      <trkpt lat="48.42497" lon="2.40598">
        <ele>120.19999694824</ele>
        <time>2025-06-08T08:42:26.000Z</time>
      </trkpt>
      <trkpt lat="48.42479" lon="2.40585">
        <ele>120.19999694824</ele>
        <time>2025-06-08T08:42:31.000Z</time>
      </trkpt>
      <trkpt lat="48.42477" lon="2.40582">
        <ele>120</ele>
        <time>2025-06-08T08:42:32.000Z</time>
      </trkpt>
      <trkpt lat="48.42472" lon="2.4057">
        <ele>118.19999694824</ele>
        <time>2025-06-08T08:42:35.000Z</time>
      </trkpt>
      <trkpt lat="48.42471" lon="2.40565">
        <ele>117.19999694824</ele>
        <time>2025-06-08T08:42:36.000Z</time>
      </trkpt>
      <trkpt lat="48.42469" lon="2.40559">
        <ele>115.80000305176</ele>
        <time>2025-06-08T08:42:37.000Z</time>
      </trkpt>
      <trkpt lat="48.42467" lon="2.40553">
        <ele>114.80000305176</ele>
        <time>2025-06-08T08:42:38.000Z</time>
      </trkpt>
      <trkpt lat="48.42461" lon="2.40541">
        <ele>113.80000305176</ele>
        <time>2025-06-08T08:42:40.000Z</time>
      </trkpt>
      <trkpt lat="48.42459" lon="2.40535">
        <ele>113.40000152588</ele>
        <time>2025-06-08T08:42:41.000Z</time>
      </trkpt>
      <trkpt lat="48.42454" lon="2.40522">
        <ele>112</ele>
        <time>2025-06-08T08:42:43.000Z</time>
      </trkpt>
      <trkpt lat="48.42449" lon="2.40511">
        <ele>110.59999847412</ele>
        <time>2025-06-08T08:42:45.000Z</time>
      </trkpt>
      <trkpt lat="48.42446" lon="2.40506">
        <ele>109.80000305176</ele>
        <time>2025-06-08T08:42:46.000Z</time>
      </trkpt>
      <trkpt lat="48.42444" lon="2.40503">
        <ele>109</ele>
        <time>2025-06-08T08:42:47.000Z</time>
      </trkpt>
      <trkpt lat="48.4244" lon="2.40501">
        <ele>107.80000305176</ele>
        <time>2025-06-08T08:42:48.000Z</time>
      </trkpt>
      <trkpt lat="48.42434" lon="2.40499">
        <ele>105.40000152588</ele>
        <time>2025-06-08T08:42:50.000Z</time>
      </trkpt>
      <trkpt lat="48.42426" lon="2.405">
        <ele>104</ele>
        <time>2025-06-08T08:42:52.000Z</time>
      </trkpt>
      <trkpt lat="48.42417" lon="2.405">
        <ele>103.59999847412</ele>
        <time>2025-06-08T08:42:55.000Z</time>
      </trkpt>
      <trkpt lat="48.42408" lon="2.40501">
        <ele>103.59999847412</ele>
        <time>2025-06-08T08:42:59.000Z</time>
      </trkpt>
      <trkpt lat="48.42403" lon="2.40502">
        <ele>103.59999847412</ele>
        <time>2025-06-08T08:43:01.000Z</time>
      </trkpt>
      <trkpt lat="48.42386" lon="2.40505">
        <ele>104.80000305176</ele>
        <time>2025-06-08T08:43:07.000Z</time>
      </trkpt>
      <trkpt lat="48.42369" lon="2.40514">
        <ele>104.80000305176</ele>
        <time>2025-06-08T08:43:12.000Z</time>
      </trkpt>
      <trkpt lat="48.4236" lon="2.40522">
        <ele>104.80000305176</ele>
        <time>2025-06-08T08:43:14.000Z</time>
      </trkpt>
      <trkpt lat="48.42351" lon="2.40533">
        <ele>104.80000305176</ele>
        <time>2025-06-08T08:43:16.000Z</time>
      </trkpt>
      <trkpt lat="48.42344" lon="2.40544">
        <ele>104.40000152588</ele>
        <time>2025-06-08T08:43:18.000Z</time>
      </trkpt>
      <trkpt lat="48.42341" lon="2.40556">
        <ele>102.59999847412</ele>
        <time>2025-06-08T08:43:20.000Z</time>
      </trkpt>
      <trkpt lat="48.42342" lon="2.40575">
        <ele>102</ele>
        <time>2025-06-08T08:43:24.000Z</time>
      </trkpt>
      <trkpt lat="48.42342" lon="2.40581">
        <ele>102</ele>
        <time>2025-06-08T08:43:25.000Z</time>
      </trkpt>
      <trkpt lat="48.42339" lon="2.40602">
        <ele>101.80000305176</ele>
        <time>2025-06-08T08:43:29.000Z</time>
      </trkpt>
      <trkpt lat="48.42337" lon="2.40609">
        <ele>101.80000305176</ele>
        <time>2025-06-08T08:43:30.000Z</time>
      </trkpt>
      <trkpt lat="48.42334" lon="2.40621">
        <ele>101.59999847412</ele>
        <time>2025-06-08T08:43:32.000Z</time>
      </trkpt>
      <trkpt lat="48.42332" lon="2.40628">
        <ele>101.59999847412</ele>
        <time>2025-06-08T08:43:33.000Z</time>
      </trkpt>
      <trkpt lat="48.42327" lon="2.40646">
        <ele>101.59999847412</ele>
        <time>2025-06-08T08:43:36.000Z</time>
      </trkpt>
      <trkpt lat="48.42325" lon="2.40649">
        <ele>101.59999847412</ele>
        <time>2025-06-08T08:43:37.000Z</time>
      </trkpt>
      <trkpt lat="48.42319" lon="2.40652">
        <ele>100.19999694824</ele>
        <time>2025-06-08T08:43:40.000Z</time>
      </trkpt>
      <trkpt lat="48.42318" lon="2.40654">
        <ele>99.800003051758</ele>
        <time>2025-06-08T08:43:41.000Z</time>
      </trkpt>
      <trkpt lat="48.42318" lon="2.40658">
        <ele>98.800003051758</ele>
        <time>2025-06-08T08:43:43.000Z</time>
      </trkpt>
      <trkpt lat="48.42319" lon="2.40665">
        <ele>97.199996948242</ele>
        <time>2025-06-08T08:43:45.000Z</time>
      </trkpt>
      <trkpt lat="48.42321" lon="2.4068">
        <ele>96.599998474121</ele>
        <time>2025-06-08T08:43:50.000Z</time>
      </trkpt>
      <trkpt lat="48.4233" lon="2.40701">
        <ele>97</ele>
        <time>2025-06-08T08:43:58.000Z</time>
      </trkpt>
      <trkpt lat="48.42338" lon="2.40713">
        <ele>98.400001525879</ele>
        <time>2025-06-08T08:44:03.000Z</time>
      </trkpt>
      <trkpt lat="48.4234" lon="2.40716">
        <ele>98.400001525879</ele>
        <time>2025-06-08T08:44:04.000Z</time>
      </trkpt>
      <trkpt lat="48.4235" lon="2.40733">
        <ele>99.199996948242</ele>
        <time>2025-06-08T08:44:10.000Z</time>
      </trkpt>
      <trkpt lat="48.42352" lon="2.40735">
        <ele>99.400001525879</ele>
        <time>2025-06-08T08:44:11.000Z</time>
      </trkpt>
      <trkpt lat="48.4236" lon="2.40745">
        <ele>100</ele>
        <time>2025-06-08T08:44:16.000Z</time>
      </trkpt>
      <trkpt lat="48.42363" lon="2.40749">
        <ele>100.40000152588</ele>
        <time>2025-06-08T08:44:18.000Z</time>
      </trkpt>
      <trkpt lat="48.42371" lon="2.40761">
        <ele>101.19999694824</ele>
        <time>2025-06-08T08:44:23.000Z</time>
      </trkpt>
      <trkpt lat="48.42372" lon="2.40764">
        <ele>101.59999847412</ele>
        <time>2025-06-08T08:44:24.000Z</time>
      </trkpt>
      <trkpt lat="48.42379" lon="2.40773">
        <ele>102.59999847412</ele>
        <time>2025-06-08T08:44:28.000Z</time>
      </trkpt>
      <trkpt lat="48.42381" lon="2.40775">
        <ele>102.80000305176</ele>
        <time>2025-06-08T08:44:29.000Z</time>
      </trkpt>
      <trkpt lat="48.42384" lon="2.4078">
        <ele>103.40000152588</ele>
        <time>2025-06-08T08:44:31.000Z</time>
      </trkpt>
      <trkpt lat="48.42385" lon="2.40782">
        <ele>103.59999847412</ele>
        <time>2025-06-08T08:44:32.000Z</time>
      </trkpt>
      <trkpt lat="48.42388" lon="2.4079">
        <ele>104.40000152588</ele>
        <time>2025-06-08T08:44:35.000Z</time>
      </trkpt>
      <trkpt lat="48.42389" lon="2.40796">
        <ele>104.80000305176</ele>
        <time>2025-06-08T08:44:37.000Z</time>
      </trkpt>
      <trkpt lat="48.42393" lon="2.40804">
        <ele>105.59999847412</ele>
        <time>2025-06-08T08:44:41.000Z</time>
      </trkpt>
      <trkpt lat="48.42393" lon="2.40806">
        <ele>106.19999694824</ele>
        <time>2025-06-08T08:44:42.000Z</time>
      </trkpt>
      <trkpt lat="48.42396" lon="2.40815">
        <ele>107.40000152588</ele>
        <time>2025-06-08T08:44:47.000Z</time>
      </trkpt>
      <trkpt lat="48.42397" lon="2.40816">
        <ele>107.59999847412</ele>
        <time>2025-06-08T08:44:48.000Z</time>
      </trkpt>
      <trkpt lat="48.42401" lon="2.40822">
        <ele>108.59999847412</ele>
        <time>2025-06-08T08:44:52.000Z</time>
      </trkpt>
      <trkpt lat="48.42405" lon="2.40826">
        <ele>109.40000152588</ele>
        <time>2025-06-08T08:44:55.000Z</time>
      </trkpt>
      <trkpt lat="48.42407" lon="2.40828">
        <ele>109.80000305176</ele>
        <time>2025-06-08T08:44:56.000Z</time>
      </trkpt>
      <trkpt lat="48.42411" lon="2.40834">
        <ele>111</ele>
        <time>2025-06-08T08:45:00.000Z</time>
      </trkpt>
      <trkpt lat="48.42413" lon="2.40837">
        <ele>112</ele>
        <time>2025-06-08T08:45:02.000Z</time>
      </trkpt>
      <trkpt lat="48.42414" lon="2.40839">
        <ele>112.40000152588</ele>
        <time>2025-06-08T08:45:03.000Z</time>
      </trkpt>
      <trkpt lat="48.42416" lon="2.40841">
        <ele>112.80000305176</ele>
        <time>2025-06-08T08:45:05.000Z</time>
      </trkpt>
      <trkpt lat="48.4242" lon="2.40846">
        <ele>113.40000152588</ele>
        <time>2025-06-08T08:45:08.000Z</time>
      </trkpt>
      <trkpt lat="48.42421" lon="2.40848">
        <ele>113.59999847412</ele>
        <time>2025-06-08T08:45:09.000Z</time>
      </trkpt>
      <trkpt lat="48.42423" lon="2.40854">
        <ele>114.40000152588</ele>
        <time>2025-06-08T08:45:12.000Z</time>
      </trkpt>
      <trkpt lat="48.42427" lon="2.4086">
        <ele>115.80000305176</ele>
        <time>2025-06-08T08:45:15.000Z</time>
      </trkpt>
      <trkpt lat="48.42428" lon="2.40863">
        <ele>116.19999694824</ele>
        <time>2025-06-08T08:45:16.000Z</time>
      </trkpt>
      <trkpt lat="48.42429" lon="2.40869">
        <ele>117</ele>
        <time>2025-06-08T08:45:19.000Z</time>
      </trkpt>
      <trkpt lat="48.42431" lon="2.40878">
        <ele>118</ele>
        <time>2025-06-08T08:45:24.000Z</time>
      </trkpt>
      <trkpt lat="48.42432" lon="2.40883">
        <ele>118.80000305176</ele>
        <time>2025-06-08T08:45:27.000Z</time>
      </trkpt>
      <trkpt lat="48.42431" lon="2.40885">
        <ele>119.19999694824</ele>
        <time>2025-06-08T08:45:28.000Z</time>
      </trkpt>
      <trkpt lat="48.4243" lon="2.40889">
        <ele>119.80000305176</ele>
        <time>2025-06-08T08:45:30.000Z</time>
      </trkpt>
      <trkpt lat="48.42428" lon="2.40892">
        <ele>120.19999694824</ele>
        <time>2025-06-08T08:45:32.000Z</time>
      </trkpt>
      <trkpt lat="48.42425" lon="2.40905">
        <ele>121</ele>
        <time>2025-06-08T08:45:38.000Z</time>
      </trkpt>
      <trkpt lat="48.42425" lon="2.40908">
        <ele>121.40000152588</ele>
        <time>2025-06-08T08:45:39.000Z</time>
      </trkpt>
      <trkpt lat="48.42422" lon="2.40916">
        <ele>122.59999847412</ele>
        <time>2025-06-08T08:45:43.000Z</time>
      </trkpt>
      <trkpt lat="48.42422" lon="2.40921">
        <ele>123.40000152588</ele>
        <time>2025-06-08T08:45:45.000Z</time>
      </trkpt>
      <trkpt lat="48.42422" lon="2.40926">
        <ele>123.80000305176</ele>
        <time>2025-06-08T08:45:47.000Z</time>
      </trkpt>
      <trkpt lat="48.4242" lon="2.40933">
        <ele>124.59999847412</ele>
        <time>2025-06-08T08:45:51.000Z</time>
      </trkpt>
      <trkpt lat="48.42418" lon="2.40933">
        <ele>125</ele>
        <time>2025-06-08T08:45:52.000Z</time>
      </trkpt>
      <trkpt lat="48.42409" lon="2.40932">
        <ele>125.59999847412</ele>
        <time>2025-06-08T08:45:56.000Z</time>
      </trkpt>
      <trkpt lat="48.42406" lon="2.40932">
        <ele>125.59999847412</ele>
        <time>2025-06-08T08:45:57.000Z</time>
      </trkpt>
      <trkpt lat="48.42395" lon="2.40933">
        <ele>125.59999847412</ele>
        <time>2025-06-08T08:46:02.000Z</time>
      </trkpt>
      <trkpt lat="48.42379" lon="2.40931">
        <ele>124.19999694824</ele>
        <time>2025-06-08T08:46:07.000Z</time>
      </trkpt>
      <trkpt lat="48.42375" lon="2.40928">
        <ele>124</ele>
        <time>2025-06-08T08:46:08.000Z</time>
      </trkpt>
      <trkpt lat="48.42355" lon="2.40919">
        <ele>123.59999847412</ele>
        <time>2025-06-08T08:46:12.000Z</time>
      </trkpt>
      <trkpt lat="48.4235" lon="2.40917">
        <ele>123.59999847412</ele>
        <time>2025-06-08T08:46:13.000Z</time>
      </trkpt>
      <trkpt lat="48.42346" lon="2.40915">
        <ele>123</ele>
        <time>2025-06-08T08:46:14.000Z</time>
      </trkpt>
      <trkpt lat="48.42339" lon="2.40912">
        <ele>121.80000305176</ele>
        <time>2025-06-08T08:46:16.000Z</time>
      </trkpt>
      <trkpt lat="48.42337" lon="2.40911">
        <ele>121.40000152588</ele>
        <time>2025-06-08T08:46:17.000Z</time>
      </trkpt>
      <trkpt lat="48.42325" lon="2.40905">
        <ele>121</ele>
        <time>2025-06-08T08:46:22.000Z</time>
      </trkpt>
      <trkpt lat="48.4232" lon="2.40892">
        <ele>121.19999694824</ele>
        <time>2025-06-08T08:46:27.000Z</time>
      </trkpt>
      <trkpt lat="48.42319" lon="2.40889">
        <ele>121.40000152588</ele>
        <time>2025-06-08T08:46:28.000Z</time>
      </trkpt>
      <trkpt lat="48.42317" lon="2.40885">
        <ele>121.59999847412</ele>
        <time>2025-06-08T08:46:30.000Z</time>
      </trkpt>
      <trkpt lat="48.42313" lon="2.40885">
        <ele>121.80000305176</ele>
        <time>2025-06-08T08:46:32.000Z</time>
      </trkpt>
      <trkpt lat="48.42309" lon="2.40885">
        <ele>121.80000305176</ele>
        <time>2025-06-08T08:46:34.000Z</time>
      </trkpt>
      <trkpt lat="48.42307" lon="2.40884">
        <ele>121.80000305176</ele>
        <time>2025-06-08T08:46:37.000Z</time>
      </trkpt>
      <trkpt lat="48.42304" lon="2.40882">
        <ele>121.80000305176</ele>
        <time>2025-06-08T08:46:39.000Z</time>
      </trkpt>
      <trkpt lat="48.42295" lon="2.40877">
        <ele>121.80000305176</ele>
        <time>2025-06-08T08:46:43.000Z</time>
      </trkpt>
      <trkpt lat="48.42293" lon="2.40874">
        <ele>121.40000152588</ele>
        <time>2025-06-08T08:46:45.000Z</time>
      </trkpt>
      <trkpt lat="48.42289" lon="2.40867">
        <ele>120.59999847412</ele>
        <time>2025-06-08T08:46:48.000Z</time>
      </trkpt>
      <trkpt lat="48.42285" lon="2.40864">
        <ele>119.40000152588</ele>
        <time>2025-06-08T08:46:50.000Z</time>
      </trkpt>
      <trkpt lat="48.4228" lon="2.40863">
        <ele>117.80000305176</ele>
        <time>2025-06-08T08:46:52.000Z</time>
      </trkpt>
      <trkpt lat="48.42275" lon="2.40861">
        <ele>116.80000305176</ele>
        <time>2025-06-08T08:46:54.000Z</time>
      </trkpt>
      <trkpt lat="48.42272" lon="2.40856">
        <ele>115.59999847412</ele>
        <time>2025-06-08T08:46:56.000Z</time>
      </trkpt>
      <trkpt lat="48.42269" lon="2.40856">
        <ele>114.19999694824</ele>
        <time>2025-06-08T08:46:58.000Z</time>
      </trkpt>
      <trkpt lat="48.42266" lon="2.40855">
        <ele>112.59999847412</ele>
        <time>2025-06-08T08:47:00.000Z</time>
      </trkpt>
      <trkpt lat="48.42264" lon="2.40854">
        <ele>111.19999694824</ele>
        <time>2025-06-08T08:47:01.000Z</time>
      </trkpt>
      <trkpt lat="48.42261" lon="2.40852">
        <ele>110</ele>
        <time>2025-06-08T08:47:02.000Z</time>
      </trkpt>
      <trkpt lat="48.42259" lon="2.40851">
        <ele>108.59999847412</ele>
        <time>2025-06-08T08:47:03.000Z</time>
      </trkpt>
      <trkpt lat="48.42257" lon="2.40849">
        <ele>107.40000152588</ele>
        <time>2025-06-08T08:47:04.000Z</time>
      </trkpt>
      <trkpt lat="48.42255" lon="2.4085">
        <ele>106.40000152588</ele>
        <time>2025-06-08T08:47:05.000Z</time>
      </trkpt>
      <trkpt lat="48.42254" lon="2.40852">
        <ele>105.80000305176</ele>
        <time>2025-06-08T08:47:06.000Z</time>
      </trkpt>
      <trkpt lat="48.42253" lon="2.40856">
        <ele>105.19999694824</ele>
        <time>2025-06-08T08:47:07.000Z</time>
      </trkpt>
      <trkpt lat="48.42252" lon="2.40863">
        <ele>103.19999694824</ele>
        <time>2025-06-08T08:47:09.000Z</time>
      </trkpt>
      <trkpt lat="48.42251" lon="2.40867">
        <ele>102</ele>
        <time>2025-06-08T08:47:10.000Z</time>
      </trkpt>
      <trkpt lat="48.42249" lon="2.4087">
        <ele>100.40000152588</ele>
        <time>2025-06-08T08:47:11.000Z</time>
      </trkpt>
      <trkpt lat="48.42246" lon="2.40877">
        <ele>98.599998474121</ele>
        <time>2025-06-08T08:47:13.000Z</time>
      </trkpt>
      <trkpt lat="48.42242" lon="2.40878">
        <ele>96.800003051758</ele>
        <time>2025-06-08T08:47:15.000Z</time>
      </trkpt>
      <trkpt lat="48.42239" lon="2.40873">
        <ele>95.599998474121</ele>
        <time>2025-06-08T08:47:17.000Z</time>
      </trkpt>
      <trkpt lat="48.42236" lon="2.40864">
        <ele>94.199996948242</ele>
        <time>2025-06-08T08:47:19.000Z</time>
      </trkpt>
      <trkpt lat="48.42232" lon="2.4085">
        <ele>93.599998474121</ele>
        <time>2025-06-08T08:47:21.000Z</time>
      </trkpt>
      <trkpt lat="48.42226" lon="2.40837">
        <ele>93</ele>
        <time>2025-06-08T08:47:23.000Z</time>
      </trkpt>
      <trkpt lat="48.42218" lon="2.40814">
        <ele>91.400001525879</ele>
        <time>2025-06-08T08:47:26.000Z</time>
      </trkpt>
      <trkpt lat="48.42216" lon="2.40797">
        <ele>90</ele>
        <time>2025-06-08T08:47:28.000Z</time>
      </trkpt>
      <trkpt lat="48.4221" lon="2.40784">
        <ele>88.400001525879</ele>
        <time>2025-06-08T08:47:30.000Z</time>
      </trkpt>
      <trkpt lat="48.42207" lon="2.4078">
        <ele>87.800003051758</ele>
        <time>2025-06-08T08:47:31.000Z</time>
      </trkpt>
      <trkpt lat="48.42204" lon="2.40778">
        <ele>87</ele>
        <time>2025-06-08T08:47:32.000Z</time>
      </trkpt>
      <trkpt lat="48.42194" lon="2.40781">
        <ele>85.400001525879</ele>
        <time>2025-06-08T08:47:35.000Z</time>
      </trkpt>
      <trkpt lat="48.42187" lon="2.40788">
        <ele>84.599998474121</ele>
        <time>2025-06-08T08:47:39.000Z</time>
      </trkpt>
      <trkpt lat="48.42187" lon="2.40789">
        <ele>84.599998474121</ele>
        <time>2025-06-08T08:47:40.000Z</time>
      </trkpt>
      <trkpt lat="48.42186" lon="2.40791">
        <ele>84.599998474121</ele>
        <time>2025-06-08T08:47:41.000Z</time>
      </trkpt>
      <trkpt lat="48.42184" lon="2.40796">
        <ele>85.599998474121</ele>
        <time>2025-06-08T08:47:45.000Z</time>
      </trkpt>
      <trkpt lat="48.42182" lon="2.40798">
        <ele>87</ele>
        <time>2025-06-08T08:47:47.000Z</time>
      </trkpt>
      <trkpt lat="48.4218" lon="2.40797">
        <ele>88.199996948242</ele>
        <time>2025-06-08T08:47:49.000Z</time>
      </trkpt>
      <trkpt lat="48.42179" lon="2.40796">
        <ele>88.599998474121</ele>
        <time>2025-06-08T08:47:50.000Z</time>
      </trkpt>
      <trkpt lat="48.42177" lon="2.40793">
        <ele>89.599998474121</ele>
        <time>2025-06-08T08:47:52.000Z</time>
      </trkpt>
      <trkpt lat="48.42172" lon="2.40788">
        <ele>90.800003051758</ele>
        <time>2025-06-08T08:47:55.000Z</time>
      </trkpt>
      <trkpt lat="48.42167" lon="2.40783">
        <ele>91</ele>
        <time>2025-06-08T08:47:57.000Z</time>
      </trkpt>
      <trkpt lat="48.42161" lon="2.40781">
        <ele>91</ele>
        <time>2025-06-08T08:48:00.000Z</time>
      </trkpt>
      <trkpt lat="48.4216" lon="2.40782">
        <ele>91.199996948242</ele>
        <time>2025-06-08T08:48:01.000Z</time>
      </trkpt>
      <trkpt lat="48.4216" lon="2.40785">
        <ele>91.199996948242</ele>
        <time>2025-06-08T08:48:03.000Z</time>
      </trkpt>
      <trkpt lat="48.42162" lon="2.4079">
        <ele>91.400001525879</ele>
        <time>2025-06-08T08:48:06.000Z</time>
      </trkpt>
      <trkpt lat="48.42164" lon="2.40795">
        <ele>91.599998474121</ele>
        <time>2025-06-08T08:48:09.000Z</time>
      </trkpt>
      <trkpt lat="48.42165" lon="2.40797">
        <ele>92</ele>
        <time>2025-06-08T08:48:10.000Z</time>
      </trkpt>
      <trkpt lat="48.42167" lon="2.40801">
        <ele>93.400001525879</ele>
        <time>2025-06-08T08:48:13.000Z</time>
      </trkpt>
      <trkpt lat="48.42167" lon="2.40803">
        <ele>93.599998474121</ele>
        <time>2025-06-08T08:48:14.000Z</time>
      </trkpt>
      <trkpt lat="48.42167" lon="2.40805">
        <ele>94.199996948242</ele>
        <time>2025-06-08T08:48:16.000Z</time>
      </trkpt>
      <trkpt lat="48.42168" lon="2.40807">
        <ele>94.400001525879</ele>
        <time>2025-06-08T08:48:17.000Z</time>
      </trkpt>
      <trkpt lat="48.42169" lon="2.40811">
        <ele>94.800003051758</ele>
        <time>2025-06-08T08:48:19.000Z</time>
      </trkpt>
      <trkpt lat="48.4217" lon="2.40813">
        <ele>95.199996948242</ele>
        <time>2025-06-08T08:48:20.000Z</time>
      </trkpt>
      <trkpt lat="48.42171" lon="2.40816">
        <ele>95.400001525879</ele>
        <time>2025-06-08T08:48:21.000Z</time>
      </trkpt>
      <trkpt lat="48.42174" lon="2.40827">
        <ele>96</ele>
        <time>2025-06-08T08:48:25.000Z</time>
      </trkpt>
      <trkpt lat="48.42173" lon="2.40832">
        <ele>96.599998474121</ele>
        <time>2025-06-08T08:48:27.000Z</time>
      </trkpt>
      <trkpt lat="48.42173" lon="2.40838">
        <ele>97</ele>
        <time>2025-06-08T08:48:30.000Z</time>
      </trkpt>
      <trkpt lat="48.42174" lon="2.40839">
        <ele>97</ele>
        <time>2025-06-08T08:48:31.000Z</time>
      </trkpt>
      <trkpt lat="48.42174" lon="2.40844">
        <ele>97.400001525879</ele>
        <time>2025-06-08T08:48:33.000Z</time>
      </trkpt>
      <trkpt lat="48.42174" lon="2.40848">
        <ele>97.800003051758</ele>
        <time>2025-06-08T08:48:35.000Z</time>
      </trkpt>
      <trkpt lat="48.42174" lon="2.40853">
        <ele>99</ele>
        <time>2025-06-08T08:48:38.000Z</time>
      </trkpt>
      <trkpt lat="48.42175" lon="2.40859">
        <ele>100.19999694824</ele>
        <time>2025-06-08T08:48:43.000Z</time>
      </trkpt>
      <trkpt lat="48.42176" lon="2.40865">
        <ele>101.19999694824</ele>
        <time>2025-06-08T08:48:47.000Z</time>
      </trkpt>
      <trkpt lat="48.42179" lon="2.40871">
        <ele>101.59999847412</ele>
        <time>2025-06-08T08:48:50.000Z</time>
      </trkpt>
      <trkpt lat="48.42184" lon="2.40896">
        <ele>101.80000305176</ele>
        <time>2025-06-08T08:48:59.000Z</time>
      </trkpt>
      <trkpt lat="48.42186" lon="2.40903">
        <ele>102</ele>
        <time>2025-06-08T08:49:02.000Z</time>
      </trkpt>
      <trkpt lat="48.42189" lon="2.40909">
        <ele>102.19999694824</ele>
        <time>2025-06-08T08:49:04.000Z</time>
      </trkpt>
      <trkpt lat="48.42189" lon="2.40912">
        <ele>102.40000152588</ele>
        <time>2025-06-08T08:49:05.000Z</time>
      </trkpt>
      <trkpt lat="48.42189" lon="2.40917">
        <ele>103.40000152588</ele>
        <time>2025-06-08T08:49:07.000Z</time>
      </trkpt>
      <trkpt lat="48.42189" lon="2.40918">
        <ele>103.59999847412</ele>
        <time>2025-06-08T08:49:08.000Z</time>
      </trkpt>
      <trkpt lat="48.42184" lon="2.40927">
        <ele>104.80000305176</ele>
        <time>2025-06-08T08:49:15.000Z</time>
      </trkpt>
      <trkpt lat="48.42181" lon="2.40929">
        <ele>105.59999847412</ele>
        <time>2025-06-08T08:49:17.000Z</time>
      </trkpt>
      <trkpt lat="48.4218" lon="2.40931">
        <ele>106.19999694824</ele>
        <time>2025-06-08T08:49:18.000Z</time>
      </trkpt>
      <trkpt lat="48.42178" lon="2.40933">
        <ele>107.19999694824</ele>
        <time>2025-06-08T08:49:20.000Z</time>
      </trkpt>
      <trkpt lat="48.42174" lon="2.40938">
        <ele>108.19999694824</ele>
        <time>2025-06-08T08:49:23.000Z</time>
      </trkpt>
      <trkpt lat="48.42173" lon="2.40941">
        <ele>108.40000152588</ele>
        <time>2025-06-08T08:49:24.000Z</time>
      </trkpt>
      <trkpt lat="48.42171" lon="2.40942">
        <ele>108.59999847412</ele>
        <time>2025-06-08T08:49:25.000Z</time>
      </trkpt>
      <trkpt lat="48.42163" lon="2.40946">
        <ele>109.19999694824</ele>
        <time>2025-06-08T08:49:28.000Z</time>
      </trkpt>
      <trkpt lat="48.42153" lon="2.40951">
        <ele>109.40000152588</ele>
        <time>2025-06-08T08:49:32.000Z</time>
      </trkpt>
      <trkpt lat="48.42144" lon="2.4096">
        <ele>109.59999847412</ele>
        <time>2025-06-08T08:49:37.000Z</time>
      </trkpt>
      <trkpt lat="48.42132" lon="2.40973">
        <ele>109.59999847412</ele>
        <time>2025-06-08T08:49:41.000Z</time>
      </trkpt>
      <trkpt lat="48.42124" lon="2.40982">
        <ele>110.59999847412</ele>
        <time>2025-06-08T08:49:46.000Z</time>
      </trkpt>
      <trkpt lat="48.42123" lon="2.40983">
        <ele>110.80000305176</ele>
        <time>2025-06-08T08:49:47.000Z</time>
      </trkpt>
      <trkpt lat="48.42118" lon="2.40982">
        <ele>112</ele>
        <time>2025-06-08T08:49:53.000Z</time>
      </trkpt>
      <trkpt lat="48.42116" lon="2.40982">
        <ele>112.19999694824</ele>
        <time>2025-06-08T08:49:54.000Z</time>
      </trkpt>
      <trkpt lat="48.42103" lon="2.40977">
        <ele>112.80000305176</ele>
        <time>2025-06-08T08:50:01.000Z</time>
      </trkpt>
      <trkpt lat="48.42101" lon="2.40976">
        <ele>113</ele>
        <time>2025-06-08T08:50:02.000Z</time>
      </trkpt>
      <trkpt lat="48.42094" lon="2.40973">
        <ele>113.19999694824</ele>
        <time>2025-06-08T08:50:06.000Z</time>
      </trkpt>
      <trkpt lat="48.42082" lon="2.40971">
        <ele>113.59999847412</ele>
        <time>2025-06-08T08:50:13.000Z</time>
      </trkpt>
      <trkpt lat="48.4208" lon="2.40972">
        <ele>114</ele>
        <time>2025-06-08T08:50:16.000Z</time>
      </trkpt>
      <trkpt lat="48.42078" lon="2.40974">
        <ele>114.19999694824</ele>
        <time>2025-06-08T08:50:19.000Z</time>
      </trkpt>
      <trkpt lat="48.42076" lon="2.40975">
        <ele>115.40000152588</ele>
        <time>2025-06-08T08:50:21.000Z</time>
      </trkpt>
      <trkpt lat="48.42074" lon="2.40977">
        <ele>116.59999847412</ele>
        <time>2025-06-08T08:50:23.000Z</time>
      </trkpt>
      <trkpt lat="48.42071" lon="2.4098">
        <ele>117.40000152588</ele>
        <time>2025-06-08T08:50:27.000Z</time>
      </trkpt>
      <trkpt lat="48.42069" lon="2.40981">
        <ele>117.80000305176</ele>
        <time>2025-06-08T08:50:28.000Z</time>
      </trkpt>
      <trkpt lat="48.42067" lon="2.40982">
        <ele>118</ele>
        <time>2025-06-08T08:50:30.000Z</time>
      </trkpt>
      <trkpt lat="48.42063" lon="2.40984">
        <ele>119.19999694824</ele>
        <time>2025-06-08T08:50:33.000Z</time>
      </trkpt>
      <trkpt lat="48.42058" lon="2.40987">
        <ele>120.40000152588</ele>
        <time>2025-06-08T08:50:38.000Z</time>
      </trkpt>
      <trkpt lat="48.42057" lon="2.40988">
        <ele>120.59999847412</ele>
        <time>2025-06-08T08:50:39.000Z</time>
      </trkpt>
      <trkpt lat="48.4205" lon="2.40994">
        <ele>121.40000152588</ele>
        <time>2025-06-08T08:50:44.000Z</time>
      </trkpt>
      <trkpt lat="48.42049" lon="2.40994">
        <ele>121.40000152588</ele>
        <time>2025-06-08T08:50:45.000Z</time>
      </trkpt>
      <trkpt lat="48.42045" lon="2.40995">
        <ele>121.59999847412</ele>
        <time>2025-06-08T08:50:47.000Z</time>
      </trkpt>
      <trkpt lat="48.42034" lon="2.41006">
        <ele>121.59999847412</ele>
        <time>2025-06-08T08:50:52.000Z</time>
      </trkpt>
      <trkpt lat="48.42025" lon="2.4102">
        <ele>121.40000152588</ele>
        <time>2025-06-08T08:50:56.000Z</time>
      </trkpt>
      <trkpt lat="48.4202" lon="2.41032">
        <ele>120</ele>
        <time>2025-06-08T08:50:59.000Z</time>
      </trkpt>
      <trkpt lat="48.42019" lon="2.41041">
        <ele>117.40000152588</ele>
        <time>2025-06-08T08:51:01.000Z</time>
      </trkpt>
      <trkpt lat="48.42017" lon="2.41053">
        <ele>116.19999694824</ele>
        <time>2025-06-08T08:51:04.000Z</time>
      </trkpt>
      <trkpt lat="48.42016" lon="2.41062">
        <ele>115.59999847412</ele>
        <time>2025-06-08T08:51:06.000Z</time>
      </trkpt>
      <trkpt lat="48.42016" lon="2.41081">
        <ele>115.40000152588</ele>
        <time>2025-06-08T08:51:12.000Z</time>
      </trkpt>
      <trkpt lat="48.42016" lon="2.41097">
        <ele>116.80000305176</ele>
        <time>2025-06-08T08:51:18.000Z</time>
      </trkpt>
      <trkpt lat="48.42017" lon="2.41102">
        <ele>117.59999847412</ele>
        <time>2025-06-08T08:51:20.000Z</time>
      </trkpt>
      <trkpt lat="48.42017" lon="2.4111">
        <ele>118.59999847412</ele>
        <time>2025-06-08T08:51:23.000Z</time>
      </trkpt>
      <trkpt lat="48.42016" lon="2.41117">
        <ele>119.59999847412</ele>
        <time>2025-06-08T08:51:26.000Z</time>
      </trkpt>
      <trkpt lat="48.42015" lon="2.41119">
        <ele>119.80000305176</ele>
        <time>2025-06-08T08:51:27.000Z</time>
      </trkpt>
      <trkpt lat="48.42013" lon="2.41129">
        <ele>120.80000305176</ele>
        <time>2025-06-08T08:51:31.000Z</time>
      </trkpt>
      <trkpt lat="48.42012" lon="2.4113">
        <ele>121</ele>
        <time>2025-06-08T08:51:32.000Z</time>
      </trkpt>
      <trkpt lat="48.4201" lon="2.41132">
        <ele>121.40000152588</ele>
        <time>2025-06-08T08:51:33.000Z</time>
      </trkpt>
      <trkpt lat="48.42009" lon="2.41135">
        <ele>121.80000305176</ele>
        <time>2025-06-08T08:51:35.000Z</time>
      </trkpt>
      <trkpt lat="48.42008" lon="2.41136">
        <ele>122.19999694824</ele>
        <time>2025-06-08T08:51:36.000Z</time>
      </trkpt>
      <trkpt lat="48.42006" lon="2.41142">
        <ele>122.80000305176</ele>
        <time>2025-06-08T08:51:39.000Z</time>
      </trkpt>
      <trkpt lat="48.42005" lon="2.41146">
        <ele>123.19999694824</ele>
        <time>2025-06-08T08:51:41.000Z</time>
      </trkpt>
      <trkpt lat="48.42007" lon="2.41153">
        <ele>124.19999694824</ele>
        <time>2025-06-08T08:51:44.000Z</time>
      </trkpt>
      <trkpt lat="48.42009" lon="2.41154">
        <ele>124.40000152588</ele>
        <time>2025-06-08T08:51:45.000Z</time>
      </trkpt>
      <trkpt lat="48.4201" lon="2.41155">
        <ele>124.59999847412</ele>
        <time>2025-06-08T08:51:46.000Z</time>
      </trkpt>
      <trkpt lat="48.42011" lon="2.41157">
        <ele>125</ele>
        <time>2025-06-08T08:51:47.000Z</time>
      </trkpt>
      <trkpt lat="48.42011" lon="2.41162">
        <ele>125</ele>
        <time>2025-06-08T08:51:49.000Z</time>
      </trkpt>
      <trkpt lat="48.42011" lon="2.41168">
        <ele>125.19999694824</ele>
        <time>2025-06-08T08:51:51.000Z</time>
      </trkpt>
      <trkpt lat="48.42011" lon="2.41181">
        <ele>125.59999847412</ele>
        <time>2025-06-08T08:51:54.000Z</time>
      </trkpt>
      <trkpt lat="48.42013" lon="2.41191">
        <ele>125.80000305176</ele>
        <time>2025-06-08T08:51:56.000Z</time>
      </trkpt>
      <trkpt lat="48.42016" lon="2.41212">
        <ele>125.80000305176</ele>
        <time>2025-06-08T08:52:00.000Z</time>
      </trkpt>
      <trkpt lat="48.42017" lon="2.41235">
        <ele>125.80000305176</ele>
        <time>2025-06-08T08:52:03.000Z</time>
      </trkpt>
      <trkpt lat="48.42014" lon="2.41242">
        <ele>125.59999847412</ele>
        <time>2025-06-08T08:52:04.000Z</time>
      </trkpt>
      <trkpt lat="48.42002" lon="2.4127">
        <ele>124.19999694824</ele>
        <time>2025-06-08T08:52:08.000Z</time>
      </trkpt>
      <trkpt lat="48.4199" lon="2.41274">
        <ele>122.40000152588</ele>
        <time>2025-06-08T08:52:10.000Z</time>
      </trkpt>
      <trkpt lat="48.41983" lon="2.41275">
        <ele>121.40000152588</ele>
        <time>2025-06-08T08:52:11.000Z</time>
      </trkpt>
      <trkpt lat="48.41975" lon="2.41276">
        <ele>120.19999694824</ele>
        <time>2025-06-08T08:52:12.000Z</time>
      </trkpt>
      <trkpt lat="48.41967" lon="2.41277">
        <ele>118.59999847412</ele>
        <time>2025-06-08T08:52:13.000Z</time>
      </trkpt>
      <trkpt lat="48.4196" lon="2.4128">
        <ele>117</ele>
        <time>2025-06-08T08:52:14.000Z</time>
      </trkpt>
      <trkpt lat="48.41952" lon="2.41284">
        <ele>115.80000305176</ele>
        <time>2025-06-08T08:52:15.000Z</time>
      </trkpt>
      <trkpt lat="48.41946" lon="2.41289">
        <ele>115</ele>
        <time>2025-06-08T08:52:16.000Z</time>
      </trkpt>
      <trkpt lat="48.41939" lon="2.41293">
        <ele>114.19999694824</ele>
        <time>2025-06-08T08:52:17.000Z</time>
      </trkpt>
      <trkpt lat="48.41933" lon="2.41298">
        <ele>113.19999694824</ele>
        <time>2025-06-08T08:52:18.000Z</time>
      </trkpt>
      <trkpt lat="48.41928" lon="2.41302">
        <ele>112.19999694824</ele>
        <time>2025-06-08T08:52:19.000Z</time>
      </trkpt>
      <trkpt lat="48.41918" lon="2.41307">
        <ele>110.80000305176</ele>
        <time>2025-06-08T08:52:21.000Z</time>
      </trkpt>
      <trkpt lat="48.41915" lon="2.41308">
        <ele>110.40000152588</ele>
        <time>2025-06-08T08:52:22.000Z</time>
      </trkpt>
      <trkpt lat="48.41906" lon="2.41304">
        <ele>110.19999694824</ele>
        <time>2025-06-08T08:52:26.000Z</time>
      </trkpt>
      <trkpt lat="48.41898" lon="2.413">
        <ele>111.80000305176</ele>
        <time>2025-06-08T08:52:30.000Z</time>
      </trkpt>
      <trkpt lat="48.41895" lon="2.41299">
        <ele>113</ele>
        <time>2025-06-08T08:52:32.000Z</time>
      </trkpt>
      <trkpt lat="48.41893" lon="2.41301">
        <ele>113.80000305176</ele>
        <time>2025-06-08T08:52:34.000Z</time>
      </trkpt>
      <trkpt lat="48.41892" lon="2.41306">
        <ele>114.19999694824</ele>
        <time>2025-06-08T08:52:37.000Z</time>
      </trkpt>
      <trkpt lat="48.41891" lon="2.41314">
        <ele>115.19999694824</ele>
        <time>2025-06-08T08:52:41.000Z</time>
      </trkpt>
      <trkpt lat="48.4189" lon="2.4132">
        <ele>116.40000152588</ele>
        <time>2025-06-08T08:52:44.000Z</time>
      </trkpt>
      <trkpt lat="48.41891" lon="2.41326">
        <ele>117.40000152588</ele>
        <time>2025-06-08T08:52:47.000Z</time>
      </trkpt>
      <trkpt lat="48.41891" lon="2.41333">
        <ele>118.59999847412</ele>
        <time>2025-06-08T08:52:51.000Z</time>
      </trkpt>
      <trkpt lat="48.41892" lon="2.41335">
        <ele>119.40000152588</ele>
        <time>2025-06-08T08:52:53.000Z</time>
      </trkpt>
      <trkpt lat="48.41893" lon="2.41336">
        <ele>119.80000305176</ele>
        <time>2025-06-08T08:52:54.000Z</time>
      </trkpt>
      <trkpt lat="48.41897" lon="2.41337">
        <ele>121.19999694824</ele>
        <time>2025-06-08T08:52:57.000Z</time>
      </trkpt>
      <trkpt lat="48.41898" lon="2.41338">
        <ele>121.59999847412</ele>
        <time>2025-06-08T08:52:58.000Z</time>
      </trkpt>
      <trkpt lat="48.41898" lon="2.41339">
        <ele>121.80000305176</ele>
        <time>2025-06-08T08:52:59.000Z</time>
      </trkpt>
      <trkpt lat="48.41904" lon="2.41342">
        <ele>122.19999694824</ele>
        <time>2025-06-08T08:53:03.000Z</time>
      </trkpt>
      <trkpt lat="48.41915" lon="2.41352">
        <ele>122.19999694824</ele>
        <time>2025-06-08T08:53:07.000Z</time>
      </trkpt>
      <trkpt lat="48.41922" lon="2.41366">
        <ele>122.19999694824</ele>
        <time>2025-06-08T08:53:10.000Z</time>
      </trkpt>
      <trkpt lat="48.41924" lon="2.41369">
        <ele>121.40000152588</ele>
        <time>2025-06-08T08:53:11.000Z</time>
      </trkpt>
      <trkpt lat="48.41926" lon="2.41375">
        <ele>119.80000305176</ele>
        <time>2025-06-08T08:53:13.000Z</time>
      </trkpt>
      <trkpt lat="48.41929" lon="2.41383">
        <ele>118.80000305176</ele>
        <time>2025-06-08T08:53:17.000Z</time>
      </trkpt>
      <trkpt lat="48.4193" lon="2.41385">
        <ele>118.80000305176</ele>
        <time>2025-06-08T08:53:18.000Z</time>
      </trkpt>
      <trkpt lat="48.41933" lon="2.41399">
        <ele>119</ele>
        <time>2025-06-08T08:53:24.000Z</time>
      </trkpt>
      <trkpt lat="48.41935" lon="2.41404">
        <ele>119.80000305176</ele>
        <time>2025-06-08T08:53:26.000Z</time>
      </trkpt>
      <trkpt lat="48.41939" lon="2.41412">
        <ele>121</ele>
        <time>2025-06-08T08:53:29.000Z</time>
      </trkpt>
      <trkpt lat="48.41941" lon="2.41418">
        <ele>121.80000305176</ele>
        <time>2025-06-08T08:53:31.000Z</time>
      </trkpt>
      <trkpt lat="48.41941" lon="2.41421">
        <ele>122.19999694824</ele>
        <time>2025-06-08T08:53:32.000Z</time>
      </trkpt>
      <trkpt lat="48.41941" lon="2.41435">
        <ele>122.80000305176</ele>
        <time>2025-06-08T08:53:37.000Z</time>
      </trkpt>
      <trkpt lat="48.41942" lon="2.41443">
        <ele>123.40000152588</ele>
        <time>2025-06-08T08:53:40.000Z</time>
      </trkpt>
      <trkpt lat="48.41941" lon="2.41449">
        <ele>123.59999847412</ele>
        <time>2025-06-08T08:53:42.000Z</time>
      </trkpt>
      <trkpt lat="48.41939" lon="2.41454">
        <ele>124.19999694824</ele>
        <time>2025-06-08T08:53:44.000Z</time>
      </trkpt>
      <trkpt lat="48.41938" lon="2.41457">
        <ele>124.59999847412</ele>
        <time>2025-06-08T08:53:45.000Z</time>
      </trkpt>
      <trkpt lat="48.41936" lon="2.41464">
        <ele>125.19999694824</ele>
        <time>2025-06-08T08:53:48.000Z</time>
      </trkpt>
      <trkpt lat="48.41936" lon="2.41467">
        <ele>125.40000152588</ele>
        <time>2025-06-08T08:53:49.000Z</time>
      </trkpt>
      <trkpt lat="48.41928" lon="2.41481">
        <ele>126.19999694824</ele>
        <time>2025-06-08T08:53:55.000Z</time>
      </trkpt>
      <trkpt lat="48.41926" lon="2.41483">
        <ele>126.40000152588</ele>
        <time>2025-06-08T08:53:56.000Z</time>
      </trkpt>
      <trkpt lat="48.41913" lon="2.41497">
        <ele>126.80000305176</ele>
        <time>2025-06-08T08:54:02.000Z</time>
      </trkpt>
      <trkpt lat="48.41899" lon="2.41502">
        <ele>127</ele>
        <time>2025-06-08T08:54:08.000Z</time>
      </trkpt>
      <trkpt lat="48.41881" lon="2.41501">
        <ele>127.19999694824</ele>
        <time>2025-06-08T08:54:14.000Z</time>
      </trkpt>
      <trkpt lat="48.41866" lon="2.41496">
        <ele>127.19999694824</ele>
        <time>2025-06-08T08:54:19.000Z</time>
      </trkpt>
      <trkpt lat="48.41848" lon="2.41495">
        <ele>127</ele>
        <time>2025-06-08T08:54:25.000Z</time>
      </trkpt>
      <trkpt lat="48.41835" lon="2.41496">
        <ele>127</ele>
        <time>2025-06-08T08:54:29.000Z</time>
      </trkpt>
      <trkpt lat="48.41821" lon="2.41505">
        <ele>127</ele>
        <time>2025-06-08T08:54:34.000Z</time>
      </trkpt>
      <trkpt lat="48.41807" lon="2.41519">
        <ele>127</ele>
        <time>2025-06-08T08:54:39.000Z</time>
      </trkpt>
      <trkpt lat="48.41804" lon="2.41545">
        <ele>126.80000305176</ele>
        <time>2025-06-08T08:54:44.000Z</time>
      </trkpt>
      <trkpt lat="48.41803" lon="2.41577">
        <ele>126.59999847412</ele>
        <time>2025-06-08T08:54:49.000Z</time>
      </trkpt>
      <trkpt lat="48.41805" lon="2.4161">
        <ele>126.59999847412</ele>
        <time>2025-06-08T08:54:54.000Z</time>
      </trkpt>
      <trkpt lat="48.41806" lon="2.41623">
        <ele>126.40000152588</ele>
        <time>2025-06-08T08:54:56.000Z</time>
      </trkpt>
      <trkpt lat="48.41809" lon="2.41648">
        <ele>126.40000152588</ele>
        <time>2025-06-08T08:55:00.000Z</time>
      </trkpt>
      <trkpt lat="48.41811" lon="2.4167">
        <ele>126.40000152588</ele>
        <time>2025-06-08T08:55:03.000Z</time>
      </trkpt>
      <trkpt lat="48.41813" lon="2.41696">
        <ele>126.19999694824</ele>
        <time>2025-06-08T08:55:06.000Z</time>
      </trkpt>
      <trkpt lat="48.41818" lon="2.41743">
        <ele>126.19999694824</ele>
        <time>2025-06-08T08:55:13.000Z</time>
      </trkpt>
      <trkpt lat="48.41823" lon="2.41783">
        <ele>126.19999694824</ele>
        <time>2025-06-08T08:55:19.000Z</time>
      </trkpt>
      <trkpt lat="48.41832" lon="2.41815">
        <ele>126.59999847412</ele>
        <time>2025-06-08T08:55:24.000Z</time>
      </trkpt>
      <trkpt lat="48.41854" lon="2.41873">
        <ele>126.80000305176</ele>
        <time>2025-06-08T08:55:32.000Z</time>
      </trkpt>
      <trkpt lat="48.41863" lon="2.41893">
        <ele>126.80000305176</ele>
        <time>2025-06-08T08:55:35.000Z</time>
      </trkpt>
      <trkpt lat="48.41876" lon="2.41918">
        <ele>127</ele>
        <time>2025-06-08T08:55:39.000Z</time>
      </trkpt>
      <trkpt lat="48.41885" lon="2.41938">
        <ele>127</ele>
        <time>2025-06-08T08:55:42.000Z</time>
      </trkpt>
      <trkpt lat="48.41888" lon="2.41954">
        <ele>127.19999694824</ele>
        <time>2025-06-08T08:55:45.000Z</time>
      </trkpt>
      <trkpt lat="48.4188" lon="2.41957">
        <ele>127.19999694824</ele>
        <time>2025-06-08T08:55:48.000Z</time>
      </trkpt>
      <trkpt lat="48.41872" lon="2.41956">
        <ele>127.19999694824</ele>
        <time>2025-06-08T08:55:50.000Z</time>
      </trkpt>
      <trkpt lat="48.41863" lon="2.41955">
        <ele>127</ele>
        <time>2025-06-08T08:55:52.000Z</time>
      </trkpt>
      <trkpt lat="48.41835" lon="2.41942">
        <ele>126.80000305176</ele>
        <time>2025-06-08T08:55:58.000Z</time>
      </trkpt>
      <trkpt lat="48.41814" lon="2.41928">
        <ele>126.59999847412</ele>
        <time>2025-06-08T08:56:04.000Z</time>
      </trkpt>
      <trkpt lat="48.41795" lon="2.41906">
        <ele>126.40000152588</ele>
        <time>2025-06-08T08:56:10.000Z</time>
      </trkpt>
      <trkpt lat="48.41768" lon="2.41868">
        <ele>126</ele>
        <time>2025-06-08T08:56:18.000Z</time>
      </trkpt>
      <trkpt lat="48.41742" lon="2.41839">
        <ele>125.40000152588</ele>
        <time>2025-06-08T08:56:24.000Z</time>
      </trkpt>
      <trkpt lat="48.41738" lon="2.41834">
        <ele>125.40000152588</ele>
        <time>2025-06-08T08:56:25.000Z</time>
      </trkpt>
      <trkpt lat="48.41714" lon="2.41809">
        <ele>125.19999694824</ele>
        <time>2025-06-08T08:56:30.000Z</time>
      </trkpt>
      <trkpt lat="48.41677" lon="2.41774">
        <ele>124.59999847412</ele>
        <time>2025-06-08T08:56:37.000Z</time>
      </trkpt>
      <trkpt lat="48.41648" lon="2.41751">
        <ele>124.19999694824</ele>
        <time>2025-06-08T08:56:43.000Z</time>
      </trkpt>
      <trkpt lat="48.41643" lon="2.41748">
        <ele>124.19999694824</ele>
        <time>2025-06-08T08:56:44.000Z</time>
      </trkpt>
      <trkpt lat="48.41639" lon="2.41745">
        <ele>124.19999694824</ele>
        <time>2025-06-08T08:56:45.000Z</time>
      </trkpt>
      <trkpt lat="48.41624" lon="2.41734">
        <ele>124.19999694824</ele>
        <time>2025-06-08T08:56:48.000Z</time>
      </trkpt>
      <trkpt lat="48.41618" lon="2.41729">
        <ele>124.19999694824</ele>
        <time>2025-06-08T08:56:49.000Z</time>
      </trkpt>
      <trkpt lat="48.41592" lon="2.41706">
        <ele>124.19999694824</ele>
        <time>2025-06-08T08:56:54.000Z</time>
      </trkpt>
      <trkpt lat="48.41577" lon="2.41701">
        <ele>124.40000152588</ele>
        <time>2025-06-08T08:56:58.000Z</time>
      </trkpt>
      <trkpt lat="48.41573" lon="2.41713">
        <ele>124.59999847412</ele>
        <time>2025-06-08T08:57:01.000Z</time>
      </trkpt>
      <trkpt lat="48.41572" lon="2.41719">
        <ele>124.80000305176</ele>
        <time>2025-06-08T08:57:02.000Z</time>
      </trkpt>
      <trkpt lat="48.4157" lon="2.41731">
        <ele>124.80000305176</ele>
        <time>2025-06-08T08:57:04.000Z</time>
      </trkpt>
      <trkpt lat="48.41568" lon="2.41743">
        <ele>124.80000305176</ele>
        <time>2025-06-08T08:57:06.000Z</time>
      </trkpt>
      <trkpt lat="48.4156" lon="2.41779">
        <ele>125</ele>
        <time>2025-06-08T08:57:12.000Z</time>
      </trkpt>
      <trkpt lat="48.41553" lon="2.41818">
        <ele>125.19999694824</ele>
        <time>2025-06-08T08:57:18.000Z</time>
      </trkpt>
      <trkpt lat="48.41552" lon="2.41824">
        <ele>125.40000152588</ele>
        <time>2025-06-08T08:57:19.000Z</time>
      </trkpt>
      <trkpt lat="48.41548" lon="2.41861">
        <ele>125.40000152588</ele>
        <time>2025-06-08T08:57:24.000Z</time>
      </trkpt>
      <trkpt lat="48.41546" lon="2.41868">
        <ele>125.40000152588</ele>
        <time>2025-06-08T08:57:25.000Z</time>
      </trkpt>
      <trkpt lat="48.4154" lon="2.41888">
        <ele>125.40000152588</ele>
        <time>2025-06-08T08:57:28.000Z</time>
      </trkpt>
      <trkpt lat="48.41538" lon="2.41895">
        <ele>125.40000152588</ele>
        <time>2025-06-08T08:57:29.000Z</time>
      </trkpt>
      <trkpt lat="48.41536" lon="2.41932">
        <ele>125.40000152588</ele>
        <time>2025-06-08T08:57:34.000Z</time>
      </trkpt>
      <trkpt lat="48.41534" lon="2.41985">
        <ele>125.19999694824</ele>
        <time>2025-06-08T08:57:40.000Z</time>
      </trkpt>
      <trkpt lat="48.41533" lon="2.42013">
        <ele>125.19999694824</ele>
        <time>2025-06-08T08:57:43.000Z</time>
      </trkpt>
      <trkpt lat="48.41531" lon="2.42027">
        <ele>125.19999694824</ele>
        <time>2025-06-08T08:57:45.000Z</time>
      </trkpt>
      <trkpt lat="48.41525" lon="2.42073">
        <ele>125</ele>
        <time>2025-06-08T08:57:50.000Z</time>
      </trkpt>
      <trkpt lat="48.41521" lon="2.4211">
        <ele>124.40000152588</ele>
        <time>2025-06-08T08:57:54.000Z</time>
      </trkpt>
      <trkpt lat="48.41522" lon="2.42125">
        <ele>124.19999694824</ele>
        <time>2025-06-08T08:57:56.000Z</time>
      </trkpt>
      <trkpt lat="48.41525" lon="2.42165">
        <ele>124</ele>
        <time>2025-06-08T08:58:01.000Z</time>
      </trkpt>
      <trkpt lat="48.41526" lon="2.42174">
        <ele>124</ele>
        <time>2025-06-08T08:58:02.000Z</time>
      </trkpt>
      <trkpt lat="48.41525" lon="2.4221">
        <ele>124</ele>
        <time>2025-06-08T08:58:06.000Z</time>
      </trkpt>
      <trkpt lat="48.41526" lon="2.42226">
        <ele>124</ele>
        <time>2025-06-08T08:58:08.000Z</time>
      </trkpt>
      <trkpt lat="48.41527" lon="2.42262">
        <ele>124</ele>
        <time>2025-06-08T08:58:13.000Z</time>
      </trkpt>
      <trkpt lat="48.41528" lon="2.4232">
        <ele>123.59999847412</ele>
        <time>2025-06-08T08:58:19.000Z</time>
      </trkpt>
      <trkpt lat="48.41529" lon="2.42347">
        <ele>123.19999694824</ele>
        <time>2025-06-08T08:58:22.000Z</time>
      </trkpt>
      <trkpt lat="48.41531" lon="2.42364">
        <ele>123</ele>
        <time>2025-06-08T08:58:24.000Z</time>
      </trkpt>
      <trkpt lat="48.41533" lon="2.42373">
        <ele>123</ele>
        <time>2025-06-08T08:58:25.000Z</time>
      </trkpt>
      <trkpt lat="48.41543" lon="2.42417">
        <ele>122.59999847412</ele>
        <time>2025-06-08T08:58:30.000Z</time>
      </trkpt>
      <trkpt lat="48.41547" lon="2.42443">
        <ele>122.59999847412</ele>
        <time>2025-06-08T08:58:33.000Z</time>
      </trkpt>
      <trkpt lat="48.41546" lon="2.42461">
        <ele>122.59999847412</ele>
        <time>2025-06-08T08:58:35.000Z</time>
      </trkpt>
      <trkpt lat="48.41542" lon="2.42474">
        <ele>122.40000152588</ele>
        <time>2025-06-08T08:58:37.000Z</time>
      </trkpt>
      <trkpt lat="48.4154" lon="2.4248">
        <ele>122.40000152588</ele>
        <time>2025-06-08T08:58:38.000Z</time>
      </trkpt>
      <trkpt lat="48.41529" lon="2.42514">
        <ele>122.40000152588</ele>
        <time>2025-06-08T08:58:44.000Z</time>
      </trkpt>
      <trkpt lat="48.41524" lon="2.4254">
        <ele>124</ele>
        <time>2025-06-08T08:58:48.000Z</time>
      </trkpt>
      <trkpt lat="48.41523" lon="2.42547">
        <ele>124.40000152588</ele>
        <time>2025-06-08T08:58:49.000Z</time>
      </trkpt>
      <trkpt lat="48.41519" lon="2.42559">
        <ele>124.80000305176</ele>
        <time>2025-06-08T08:58:51.000Z</time>
      </trkpt>
      <trkpt lat="48.41517" lon="2.42578">
        <ele>125</ele>
        <time>2025-06-08T08:58:54.000Z</time>
      </trkpt>
      <trkpt lat="48.41516" lon="2.42584">
        <ele>125</ele>
        <time>2025-06-08T08:58:55.000Z</time>
      </trkpt>
      <trkpt lat="48.4151" lon="2.42619">
        <ele>125.40000152588</ele>
        <time>2025-06-08T08:59:01.000Z</time>
      </trkpt>
      <trkpt lat="48.41507" lon="2.4265">
        <ele>125.59999847412</ele>
        <time>2025-06-08T08:59:06.000Z</time>
      </trkpt>
      <trkpt lat="48.41503" lon="2.42697">
        <ele>125.59999847412</ele>
        <time>2025-06-08T08:59:13.000Z</time>
      </trkpt>
      <trkpt lat="48.41498" lon="2.42746">
        <ele>125.80000305176</ele>
        <time>2025-06-08T08:59:20.000Z</time>
      </trkpt>
      <trkpt lat="48.41497" lon="2.42754">
        <ele>125.80000305176</ele>
        <time>2025-06-08T08:59:21.000Z</time>
      </trkpt>
      <trkpt lat="48.41494" lon="2.42788">
        <ele>125.80000305176</ele>
        <time>2025-06-08T08:59:26.000Z</time>
      </trkpt>
      <trkpt lat="48.41491" lon="2.42826">
        <ele>126</ele>
        <time>2025-06-08T08:59:32.000Z</time>
      </trkpt>
      <trkpt lat="48.4149" lon="2.42832">
        <ele>126</ele>
        <time>2025-06-08T08:59:33.000Z</time>
      </trkpt>
      <trkpt lat="48.41486" lon="2.42866">
        <ele>126.19999694824</ele>
        <time>2025-06-08T08:59:38.000Z</time>
      </trkpt>
      <trkpt lat="48.41482" lon="2.42886">
        <ele>126.19999694824</ele>
        <time>2025-06-08T08:59:42.000Z</time>
      </trkpt>
      <trkpt lat="48.41482" lon="2.42892">
        <ele>125.80000305176</ele>
        <time>2025-06-08T08:59:43.000Z</time>
      </trkpt>
      <trkpt lat="48.41482" lon="2.42896">
        <ele>124.19999694824</ele>
        <time>2025-06-08T08:59:44.000Z</time>
      </trkpt>
      <trkpt lat="48.41484" lon="2.42907">
        <ele>122</ele>
        <time>2025-06-08T08:59:46.000Z</time>
      </trkpt>
      <trkpt lat="48.41485" lon="2.42913">
        <ele>121.40000152588</ele>
        <time>2025-06-08T08:59:47.000Z</time>
      </trkpt>
      <trkpt lat="48.41486" lon="2.4292">
        <ele>120.80000305176</ele>
        <time>2025-06-08T08:59:48.000Z</time>
      </trkpt>
      <trkpt lat="48.41484" lon="2.42941">
        <ele>119.40000152588</ele>
        <time>2025-06-08T08:59:51.000Z</time>
      </trkpt>
      <trkpt lat="48.41484" lon="2.42955">
        <ele>118.40000152588</ele>
        <time>2025-06-08T08:59:53.000Z</time>
      </trkpt>
      <trkpt lat="48.41487" lon="2.42968">
        <ele>116.59999847412</ele>
        <time>2025-06-08T08:59:55.000Z</time>
      </trkpt>
      <trkpt lat="48.41487" lon="2.42974">
        <ele>115.19999694824</ele>
        <time>2025-06-08T08:59:56.000Z</time>
      </trkpt>
      <trkpt lat="48.41487" lon="2.42982">
        <ele>114.19999694824</ele>
        <time>2025-06-08T08:59:57.000Z</time>
      </trkpt>
      <trkpt lat="48.41486" lon="2.42998">
        <ele>111.80000305176</ele>
        <time>2025-06-08T08:59:59.000Z</time>
      </trkpt>
      <trkpt lat="48.41485" lon="2.43014">
        <ele>109.80000305176</ele>
        <time>2025-06-08T09:00:01.000Z</time>
      </trkpt>
      <trkpt lat="48.41483" lon="2.43022">
        <ele>109.19999694824</ele>
        <time>2025-06-08T09:00:02.000Z</time>
      </trkpt>
      <trkpt lat="48.41481" lon="2.4303">
        <ele>108.40000152588</ele>
        <time>2025-06-08T09:00:03.000Z</time>
      </trkpt>
      <trkpt lat="48.41477" lon="2.43048">
        <ele>107</ele>
        <time>2025-06-08T09:00:05.000Z</time>
      </trkpt>
      <trkpt lat="48.4147" lon="2.4307">
        <ele>105.40000152588</ele>
        <time>2025-06-08T09:00:07.000Z</time>
      </trkpt>
      <trkpt lat="48.41466" lon="2.4308">
        <ele>104.80000305176</ele>
        <time>2025-06-08T09:00:08.000Z</time>
      </trkpt>
      <trkpt lat="48.41461" lon="2.43091">
        <ele>104</ele>
        <time>2025-06-08T09:00:09.000Z</time>
      </trkpt>
      <trkpt lat="48.41451" lon="2.43111">
        <ele>102.19999694824</ele>
        <time>2025-06-08T09:00:11.000Z</time>
      </trkpt>
      <trkpt lat="48.41442" lon="2.43131">
        <ele>100</ele>
        <time>2025-06-08T09:00:13.000Z</time>
      </trkpt>
      <trkpt lat="48.41439" lon="2.43142">
        <ele>99</ele>
        <time>2025-06-08T09:00:14.000Z</time>
      </trkpt>
      <trkpt lat="48.41434" lon="2.43154">
        <ele>98</ele>
        <time>2025-06-08T09:00:15.000Z</time>
      </trkpt>
      <trkpt lat="48.41427" lon="2.43174">
        <ele>96</ele>
        <time>2025-06-08T09:00:17.000Z</time>
      </trkpt>
      <trkpt lat="48.41424" lon="2.43184">
        <ele>94.599998474121</ele>
        <time>2025-06-08T09:00:18.000Z</time>
      </trkpt>
      <trkpt lat="48.41423" lon="2.43194">
        <ele>93.800003051758</ele>
        <time>2025-06-08T09:00:19.000Z</time>
      </trkpt>
      <trkpt lat="48.41421" lon="2.43204">
        <ele>93.199996948242</ele>
        <time>2025-06-08T09:00:20.000Z</time>
      </trkpt>
      <trkpt lat="48.41418" lon="2.43212">
        <ele>93</ele>
        <time>2025-06-08T09:00:21.000Z</time>
      </trkpt>
      <trkpt lat="48.41415" lon="2.4322">
        <ele>92.199996948242</ele>
        <time>2025-06-08T09:00:22.000Z</time>
      </trkpt>
      <trkpt lat="48.41407" lon="2.43232">
        <ele>91</ele>
        <time>2025-06-08T09:00:24.000Z</time>
      </trkpt>
      <trkpt lat="48.41401" lon="2.43243">
        <ele>89.800003051758</ele>
        <time>2025-06-08T09:00:26.000Z</time>
      </trkpt>
      <trkpt lat="48.41396" lon="2.43259">
        <ele>89</ele>
        <time>2025-06-08T09:00:28.000Z</time>
      </trkpt>
      <trkpt lat="48.41394" lon="2.43268">
        <ele>88.599998474121</ele>
        <time>2025-06-08T09:00:29.000Z</time>
      </trkpt>
      <trkpt lat="48.41392" lon="2.43276">
        <ele>88.400001525879</ele>
        <time>2025-06-08T09:00:30.000Z</time>
      </trkpt>
      <trkpt lat="48.41388" lon="2.43291">
        <ele>87.400001525879</ele>
        <time>2025-06-08T09:00:32.000Z</time>
      </trkpt>
      <trkpt lat="48.41385" lon="2.43297">
        <ele>87</ele>
        <time>2025-06-08T09:00:33.000Z</time>
      </trkpt>
      <trkpt lat="48.41383" lon="2.43304">
        <ele>86.199996948242</ele>
        <time>2025-06-08T09:00:34.000Z</time>
      </trkpt>
      <trkpt lat="48.4138" lon="2.43319">
        <ele>85</ele>
        <time>2025-06-08T09:00:36.000Z</time>
      </trkpt>
      <trkpt lat="48.41377" lon="2.43326">
        <ele>84.599998474121</ele>
        <time>2025-06-08T09:00:37.000Z</time>
      </trkpt>
      <trkpt lat="48.41375" lon="2.43332">
        <ele>84</ele>
        <time>2025-06-08T09:00:38.000Z</time>
      </trkpt>
      <trkpt lat="48.41369" lon="2.43353">
        <ele>83</ele>
        <time>2025-06-08T09:00:41.000Z</time>
      </trkpt>
      <trkpt lat="48.41364" lon="2.43369">
        <ele>82.400001525879</ele>
        <time>2025-06-08T09:00:43.000Z</time>
      </trkpt>
      <trkpt lat="48.4136" lon="2.43377">
        <ele>81.800003051758</ele>
        <time>2025-06-08T09:00:44.000Z</time>
      </trkpt>
      <trkpt lat="48.41357" lon="2.43385">
        <ele>81.199996948242</ele>
        <time>2025-06-08T09:00:45.000Z</time>
      </trkpt>
      <trkpt lat="48.41353" lon="2.43392">
        <ele>80.800003051758</ele>
        <time>2025-06-08T09:00:46.000Z</time>
      </trkpt>
      <trkpt lat="48.41347" lon="2.43405">
        <ele>79.599998474121</ele>
        <time>2025-06-08T09:00:48.000Z</time>
      </trkpt>
      <trkpt lat="48.41339" lon="2.43419">
        <ele>78</ele>
        <time>2025-06-08T09:00:50.000Z</time>
      </trkpt>
      <trkpt lat="48.41335" lon="2.43424">
        <ele>77.400001525879</ele>
        <time>2025-06-08T09:00:51.000Z</time>
      </trkpt>
      <trkpt lat="48.41329" lon="2.43427">
        <ele>76.599998474121</ele>
        <time>2025-06-08T09:00:52.000Z</time>
      </trkpt>
      <trkpt lat="48.41324" lon="2.43427">
        <ele>76.199996948242</ele>
        <time>2025-06-08T09:00:53.000Z</time>
      </trkpt>
      <trkpt lat="48.41315" lon="2.43422">
        <ele>75.599998474121</ele>
        <time>2025-06-08T09:00:55.000Z</time>
      </trkpt>
      <trkpt lat="48.41307" lon="2.43415">
        <ele>75</ele>
        <time>2025-06-08T09:00:57.000Z</time>
      </trkpt>
      <trkpt lat="48.41302" lon="2.43411">
        <ele>74.400001525879</ele>
        <time>2025-06-08T09:00:58.000Z</time>
      </trkpt>
      <trkpt lat="48.41277" lon="2.43394">
        <ele>73.199996948242</ele>
        <time>2025-06-08T09:01:04.000Z</time>
      </trkpt>
      <trkpt lat="48.41256" lon="2.43383">
        <ele>73.400001525879</ele>
        <time>2025-06-08T09:01:10.000Z</time>
      </trkpt>
      <trkpt lat="48.41232" lon="2.4337">
        <ele>74.599998474121</ele>
        <time>2025-06-08T09:01:17.000Z</time>
      </trkpt>
      <trkpt lat="48.4121" lon="2.4336">
        <ele>75</ele>
        <time>2025-06-08T09:01:23.000Z</time>
      </trkpt>
      <trkpt lat="48.41188" lon="2.4336">
        <ele>74.800003051758</ele>
        <time>2025-06-08T09:01:28.000Z</time>
      </trkpt>
      <trkpt lat="48.41164" lon="2.43352">
        <ele>74.800003051758</ele>
        <time>2025-06-08T09:01:33.000Z</time>
      </trkpt>
      <trkpt lat="48.41159" lon="2.4335">
        <ele>74.800003051758</ele>
        <time>2025-06-08T09:01:34.000Z</time>
      </trkpt>
      <trkpt lat="48.41126" lon="2.4334">
        <ele>74.800003051758</ele>
        <time>2025-06-08T09:01:40.000Z</time>
      </trkpt>
      <trkpt lat="48.41121" lon="2.4334">
        <ele>74.400001525879</ele>
        <time>2025-06-08T09:01:41.000Z</time>
      </trkpt>
      <trkpt lat="48.41101" lon="2.43329">
        <ele>74.400001525879</ele>
        <time>2025-06-08T09:01:46.000Z</time>
      </trkpt>
      <trkpt lat="48.41092" lon="2.43307">
        <ele>74.400001525879</ele>
        <time>2025-06-08T09:01:51.000Z</time>
      </trkpt>
      <trkpt lat="48.41085" lon="2.43287">
        <ele>74.599998474121</ele>
        <time>2025-06-08T09:01:56.000Z</time>
      </trkpt>
      <trkpt lat="48.41081" lon="2.43277">
        <ele>75</ele>
        <time>2025-06-08T09:02:00.000Z</time>
      </trkpt>
      <trkpt lat="48.4108" lon="2.43271">
        <ele>75.199996948242</ele>
        <time>2025-06-08T09:02:02.000Z</time>
      </trkpt>
      <trkpt lat="48.41081" lon="2.43261">
        <ele>76</ele>
        <time>2025-06-08T09:02:06.000Z</time>
      </trkpt>
      <trkpt lat="48.4108" lon="2.43252">
        <ele>76.400001525879</ele>
        <time>2025-06-08T09:02:08.000Z</time>
      </trkpt>
      <trkpt lat="48.4108" lon="2.43242">
        <ele>76.599998474121</ele>
        <time>2025-06-08T09:02:10.000Z</time>
      </trkpt>
      <trkpt lat="48.41082" lon="2.43214">
        <ele>77.400001525879</ele>
        <time>2025-06-08T09:02:16.000Z</time>
      </trkpt>
      <trkpt lat="48.41082" lon="2.43208">
        <ele>77.400001525879</ele>
        <time>2025-06-08T09:02:17.000Z</time>
      </trkpt>
      <trkpt lat="48.41085" lon="2.43177">
        <ele>77.800003051758</ele>
        <time>2025-06-08T09:02:23.000Z</time>
      </trkpt>
      <trkpt lat="48.41088" lon="2.43148">
        <ele>78.599998474121</ele>
        <time>2025-06-08T09:02:29.000Z</time>
      </trkpt>
      <trkpt lat="48.41088" lon="2.43141">
        <ele>78.599998474121</ele>
        <time>2025-06-08T09:02:30.000Z</time>
      </trkpt>
      <trkpt lat="48.41086" lon="2.43119">
        <ele>79.199996948242</ele>
        <time>2025-06-08T09:02:36.000Z</time>
      </trkpt>
      <trkpt lat="48.4108" lon="2.43108">
        <ele>79.599998474121</ele>
        <time>2025-06-08T09:02:40.000Z</time>
      </trkpt>
      <trkpt lat="48.41075" lon="2.431">
        <ele>80</ele>
        <time>2025-06-08T09:02:43.000Z</time>
      </trkpt>
      <trkpt lat="48.41071" lon="2.4309">
        <ele>80.800003051758</ele>
        <time>2025-06-08T09:02:46.000Z</time>
      </trkpt>
      <trkpt lat="48.41066" lon="2.43081">
        <ele>82</ele>
        <time>2025-06-08T09:02:49.000Z</time>
      </trkpt>
      <trkpt lat="48.41065" lon="2.43078">
        <ele>82.400001525879</ele>
        <time>2025-06-08T09:02:50.000Z</time>
      </trkpt>
      <trkpt lat="48.41062" lon="2.43072">
        <ele>83</ele>
        <time>2025-06-08T09:02:52.000Z</time>
      </trkpt>
      <trkpt lat="48.41056" lon="2.43056">
        <ele>83.800003051758</ele>
        <time>2025-06-08T09:02:57.000Z</time>
      </trkpt>
      <trkpt lat="48.41054" lon="2.4305">
        <ele>84</ele>
        <time>2025-06-08T09:02:59.000Z</time>
      </trkpt>
      <trkpt lat="48.41047" lon="2.43038">
        <ele>84.599998474121</ele>
        <time>2025-06-08T09:03:04.000Z</time>
      </trkpt>
      <trkpt lat="48.41044" lon="2.43034">
        <ele>85.199996948242</ele>
        <time>2025-06-08T09:03:06.000Z</time>
      </trkpt>
      <trkpt lat="48.41041" lon="2.4303">
        <ele>86.199996948242</ele>
        <time>2025-06-08T09:03:08.000Z</time>
      </trkpt>
      <trkpt lat="48.41036" lon="2.43025">
        <ele>87.400001525879</ele>
        <time>2025-06-08T09:03:11.000Z</time>
      </trkpt>
      <trkpt lat="48.41035" lon="2.43023">
        <ele>87.599998474121</ele>
        <time>2025-06-08T09:03:12.000Z</time>
      </trkpt>
      <trkpt lat="48.41022" lon="2.43011">
        <ele>88.599998474121</ele>
        <time>2025-06-08T09:03:19.000Z</time>
      </trkpt>
      <trkpt lat="48.41015" lon="2.42993">
        <ele>89.599998474121</ele>
        <time>2025-06-08T09:03:25.000Z</time>
      </trkpt>
      <trkpt lat="48.41013" lon="2.42973">
        <ele>90.400001525879</ele>
        <time>2025-06-08T09:03:32.000Z</time>
      </trkpt>
      <trkpt lat="48.41013" lon="2.42966">
        <ele>90.800003051758</ele>
        <time>2025-06-08T09:03:34.000Z</time>
      </trkpt>
      <trkpt lat="48.41011" lon="2.42952">
        <ele>91.400001525879</ele>
        <time>2025-06-08T09:03:38.000Z</time>
      </trkpt>
      <trkpt lat="48.41011" lon="2.42945">
        <ele>91.800003051758</ele>
        <time>2025-06-08T09:03:40.000Z</time>
      </trkpt>
      <trkpt lat="48.41011" lon="2.42929">
        <ele>92.199996948242</ele>
        <time>2025-06-08T09:03:45.000Z</time>
      </trkpt>
      <trkpt lat="48.41011" lon="2.42918">
        <ele>92.800003051758</ele>
        <time>2025-06-08T09:03:49.000Z</time>
      </trkpt>
      <trkpt lat="48.41007" lon="2.42908">
        <ele>93.400001525879</ele>
        <time>2025-06-08T09:03:52.000Z</time>
      </trkpt>
      <trkpt lat="48.41004" lon="2.42894">
        <ele>93.800003051758</ele>
        <time>2025-06-08T09:03:56.000Z</time>
      </trkpt>
      <trkpt lat="48.41002" lon="2.42884">
        <ele>94.599998474121</ele>
        <time>2025-06-08T09:03:59.000Z</time>
      </trkpt>
      <trkpt lat="48.41001" lon="2.42878">
        <ele>95</ele>
        <time>2025-06-08T09:04:01.000Z</time>
      </trkpt>
      <trkpt lat="48.40998" lon="2.42859">
        <ele>96</ele>
        <time>2025-06-08T09:04:06.000Z</time>
      </trkpt>
      <trkpt lat="48.40995" lon="2.42853">
        <ele>96.800003051758</ele>
        <time>2025-06-08T09:04:08.000Z</time>
      </trkpt>
      <trkpt lat="48.4099" lon="2.4285">
        <ele>97</ele>
        <time>2025-06-08T09:04:11.000Z</time>
      </trkpt>
      <trkpt lat="48.40979" lon="2.42843">
        <ele>98</ele>
        <time>2025-06-08T09:04:19.000Z</time>
      </trkpt>
      <trkpt lat="48.40977" lon="2.42842">
        <ele>98.199996948242</ele>
        <time>2025-06-08T09:04:20.000Z</time>
      </trkpt>
      <trkpt lat="48.40973" lon="2.4284">
        <ele>98.800003051758</ele>
        <time>2025-06-08T09:04:23.000Z</time>
      </trkpt>
      <trkpt lat="48.40971" lon="2.4284">
        <ele>99.199996948242</ele>
        <time>2025-06-08T09:04:25.000Z</time>
      </trkpt>
      <trkpt lat="48.40965" lon="2.42839">
        <ele>100.40000152588</ele>
        <time>2025-06-08T09:04:29.000Z</time>
      </trkpt>
      <trkpt lat="48.4096" lon="2.42837">
        <ele>101.19999694824</ele>
        <time>2025-06-08T09:04:32.000Z</time>
      </trkpt>
      <trkpt lat="48.40959" lon="2.42836">
        <ele>101.59999847412</ele>
        <time>2025-06-08T09:04:33.000Z</time>
      </trkpt>
      <trkpt lat="48.40954" lon="2.42834">
        <ele>102.59999847412</ele>
        <time>2025-06-08T09:04:36.000Z</time>
      </trkpt>
      <trkpt lat="48.40949" lon="2.42831">
        <ele>103.80000305176</ele>
        <time>2025-06-08T09:04:40.000Z</time>
      </trkpt>
      <trkpt lat="48.40944" lon="2.42826">
        <ele>105.19999694824</ele>
        <time>2025-06-08T09:04:45.000Z</time>
      </trkpt>
      <trkpt lat="48.40943" lon="2.42824">
        <ele>105.59999847412</ele>
        <time>2025-06-08T09:04:47.000Z</time>
      </trkpt>
      <trkpt lat="48.40942" lon="2.42821">
        <ele>106.19999694824</ele>
        <time>2025-06-08T09:04:49.000Z</time>
      </trkpt>
      <trkpt lat="48.40941" lon="2.42816">
        <ele>107.40000152588</ele>
        <time>2025-06-08T09:04:53.000Z</time>
      </trkpt>
      <trkpt lat="48.40939" lon="2.42813">
        <ele>108</ele>
        <time>2025-06-08T09:04:55.000Z</time>
      </trkpt>
      <trkpt lat="48.40939" lon="2.42812">
        <ele>108.40000152588</ele>
        <time>2025-06-08T09:04:56.000Z</time>
      </trkpt>
      <trkpt lat="48.40938" lon="2.42807">
        <ele>109.40000152588</ele>
        <time>2025-06-08T09:05:00.000Z</time>
      </trkpt>
      <trkpt lat="48.40936" lon="2.42801">
        <ele>110.59999847412</ele>
        <time>2025-06-08T09:05:04.000Z</time>
      </trkpt>
      <trkpt lat="48.40935" lon="2.42799">
        <ele>111</ele>
        <time>2025-06-08T09:05:05.000Z</time>
      </trkpt>
      <trkpt lat="48.40935" lon="2.42797">
        <ele>112</ele>
        <time>2025-06-08T09:05:06.000Z</time>
      </trkpt>
      <trkpt lat="48.40932" lon="2.42789">
        <ele>113</ele>
        <time>2025-06-08T09:05:10.000Z</time>
      </trkpt>
      <trkpt lat="48.40929" lon="2.42779">
        <ele>114.19999694824</ele>
        <time>2025-06-08T09:05:15.000Z</time>
      </trkpt>
      <trkpt lat="48.40928" lon="2.42773">
        <ele>115</ele>
        <time>2025-06-08T09:05:18.000Z</time>
      </trkpt>
      <trkpt lat="48.40927" lon="2.42769">
        <ele>115.40000152588</ele>
        <time>2025-06-08T09:05:20.000Z</time>
      </trkpt>
      <trkpt lat="48.40924" lon="2.42761">
        <ele>116.40000152588</ele>
        <time>2025-06-08T09:05:26.000Z</time>
      </trkpt>
      <trkpt lat="48.40922" lon="2.42754">
        <ele>117.19999694824</ele>
        <time>2025-06-08T09:05:30.000Z</time>
      </trkpt>
      <trkpt lat="48.40921" lon="2.4275">
        <ele>117.59999847412</ele>
        <time>2025-06-08T09:05:32.000Z</time>
      </trkpt>
      <trkpt lat="48.40917" lon="2.42742">
        <ele>118.59999847412</ele>
        <time>2025-06-08T09:05:36.000Z</time>
      </trkpt>
      <trkpt lat="48.40914" lon="2.42735">
        <ele>119.40000152588</ele>
        <time>2025-06-08T09:05:39.000Z</time>
      </trkpt>
      <trkpt lat="48.40909" lon="2.42727">
        <ele>119.80000305176</ele>
        <time>2025-06-08T09:05:43.000Z</time>
      </trkpt>
      <trkpt lat="48.40905" lon="2.42718">
        <ele>120</ele>
        <time>2025-06-08T09:05:47.000Z</time>
      </trkpt>
      <trkpt lat="48.40895" lon="2.42705">
        <ele>121</ele>
        <time>2025-06-08T09:05:53.000Z</time>
      </trkpt>
      <trkpt lat="48.40893" lon="2.42702">
        <ele>121</ele>
        <time>2025-06-08T09:05:54.000Z</time>
      </trkpt>
      <trkpt lat="48.40884" lon="2.42684">
        <ele>121.59999847412</ele>
        <time>2025-06-08T09:06:01.000Z</time>
      </trkpt>
      <trkpt lat="48.40877" lon="2.42672">
        <ele>122</ele>
        <time>2025-06-08T09:06:05.000Z</time>
      </trkpt>
      <trkpt lat="48.40873" lon="2.42664">
        <ele>122.19999694824</ele>
        <time>2025-06-08T09:06:07.000Z</time>
      </trkpt>
      <trkpt lat="48.40863" lon="2.42644">
        <ele>122.19999694824</ele>
        <time>2025-06-08T09:06:12.000Z</time>
      </trkpt>
      <trkpt lat="48.40847" lon="2.42617">
        <ele>122.40000152588</ele>
        <time>2025-06-08T09:06:19.000Z</time>
      </trkpt>
      <trkpt lat="48.40829" lon="2.42587">
        <ele>122.40000152588</ele>
        <time>2025-06-08T09:06:25.000Z</time>
      </trkpt>
      <trkpt lat="48.40811" lon="2.42564">
        <ele>122.19999694824</ele>
        <time>2025-06-08T09:06:31.000Z</time>
      </trkpt>
      <trkpt lat="48.40799" lon="2.42571">
        <ele>121.80000305176</ele>
        <time>2025-06-08T09:06:34.000Z</time>
      </trkpt>
      <trkpt lat="48.40791" lon="2.42579">
        <ele>121.80000305176</ele>
        <time>2025-06-08T09:06:36.000Z</time>
      </trkpt>
      <trkpt lat="48.40773" lon="2.42597">
        <ele>121.59999847412</ele>
        <time>2025-06-08T09:06:40.000Z</time>
      </trkpt>
      <trkpt lat="48.40766" lon="2.42607">
        <ele>121.40000152588</ele>
        <time>2025-06-08T09:06:43.000Z</time>
      </trkpt>
      <trkpt lat="48.40767" lon="2.4261">
        <ele>121.19999694824</ele>
        <time>2025-06-08T09:06:44.000Z</time>
      </trkpt>
      <trkpt lat="48.40772" lon="2.42613">
        <ele>121</ele>
        <time>2025-06-08T09:06:46.000Z</time>
      </trkpt>
      <trkpt lat="48.40775" lon="2.42615">
        <ele>120.80000305176</ele>
        <time>2025-06-08T09:06:47.000Z</time>
      </trkpt>
      <trkpt lat="48.40778" lon="2.42617">
        <ele>120.80000305176</ele>
        <time>2025-06-08T09:06:48.000Z</time>
      </trkpt>
      <trkpt lat="48.40781" lon="2.42622">
        <ele>120.80000305176</ele>
        <time>2025-06-08T09:06:49.000Z</time>
      </trkpt>
      <trkpt lat="48.40784" lon="2.42635">
        <ele>120.59999847412</ele>
        <time>2025-06-08T09:06:51.000Z</time>
      </trkpt>
      <trkpt lat="48.40785" lon="2.42648">
        <ele>120.59999847412</ele>
        <time>2025-06-08T09:06:53.000Z</time>
      </trkpt>
      <trkpt lat="48.40786" lon="2.42661">
        <ele>120.59999847412</ele>
        <time>2025-06-08T09:06:55.000Z</time>
      </trkpt>
      <trkpt lat="48.4079" lon="2.42672">
        <ele>120.40000152588</ele>
        <time>2025-06-08T09:06:57.000Z</time>
      </trkpt>
      <trkpt lat="48.40793" lon="2.42675">
        <ele>120.19999694824</ele>
        <time>2025-06-08T09:06:58.000Z</time>
      </trkpt>
      <trkpt lat="48.40801" lon="2.42689">
        <ele>120.19999694824</ele>
        <time>2025-06-08T09:07:01.000Z</time>
      </trkpt>
      <trkpt lat="48.40803" lon="2.42697">
        <ele>120.19999694824</ele>
        <time>2025-06-08T09:07:02.000Z</time>
      </trkpt>
      <trkpt lat="48.40805" lon="2.42724">
        <ele>120</ele>
        <time>2025-06-08T09:07:06.000Z</time>
      </trkpt>
      <trkpt lat="48.40805" lon="2.42731">
        <ele>120</ele>
        <time>2025-06-08T09:07:07.000Z</time>
      </trkpt>
      <trkpt lat="48.40807" lon="2.4276">
        <ele>119.80000305176</ele>
        <time>2025-06-08T09:07:11.000Z</time>
      </trkpt>
      <trkpt lat="48.4081" lon="2.42772">
        <ele>119.80000305176</ele>
        <time>2025-06-08T09:07:13.000Z</time>
      </trkpt>
      <trkpt lat="48.40817" lon="2.42785">
        <ele>119.80000305176</ele>
        <time>2025-06-08T09:07:15.000Z</time>
      </trkpt>
      <trkpt lat="48.40821" lon="2.42791">
        <ele>119.59999847412</ele>
        <time>2025-06-08T09:07:16.000Z</time>
      </trkpt>
      <trkpt lat="48.40825" lon="2.42811">
        <ele>119.59999847412</ele>
        <time>2025-06-08T09:07:19.000Z</time>
      </trkpt>
      <trkpt lat="48.40825" lon="2.42831">
        <ele>119.59999847412</ele>
        <time>2025-06-08T09:07:22.000Z</time>
      </trkpt>
      <trkpt lat="48.40824" lon="2.42844">
        <ele>119.59999847412</ele>
        <time>2025-06-08T09:07:24.000Z</time>
      </trkpt>
      <trkpt lat="48.40823" lon="2.4285">
        <ele>119.59999847412</ele>
        <time>2025-06-08T09:07:25.000Z</time>
      </trkpt>
      <trkpt lat="48.40815" lon="2.42869">
        <ele>119.59999847412</ele>
        <time>2025-06-08T09:07:29.000Z</time>
      </trkpt>
      <trkpt lat="48.40798" lon="2.429">
        <ele>119.80000305176</ele>
        <time>2025-06-08T09:07:35.000Z</time>
      </trkpt>
      <trkpt lat="48.40795" lon="2.42907">
        <ele>119.80000305176</ele>
        <time>2025-06-08T09:07:36.000Z</time>
      </trkpt>
      <trkpt lat="48.40791" lon="2.42927">
        <ele>119.80000305176</ele>
        <time>2025-06-08T09:07:39.000Z</time>
      </trkpt>
      <trkpt lat="48.40791" lon="2.42933">
        <ele>119.80000305176</ele>
        <time>2025-06-08T09:07:40.000Z</time>
      </trkpt>
      <trkpt lat="48.40791" lon="2.4298">
        <ele>119.80000305176</ele>
        <time>2025-06-08T09:07:46.000Z</time>
      </trkpt>
      <trkpt lat="48.40792" lon="2.42988">
        <ele>119.59999847412</ele>
        <time>2025-06-08T09:07:47.000Z</time>
      </trkpt>
      <trkpt lat="48.40793" lon="2.43018">
        <ele>119.40000152588</ele>
        <time>2025-06-08T09:07:51.000Z</time>
      </trkpt>
      <trkpt lat="48.40785" lon="2.43027">
        <ele>118.80000305176</ele>
        <time>2025-06-08T09:07:54.000Z</time>
      </trkpt>
      <trkpt lat="48.40769" lon="2.43018">
        <ele>118.40000152588</ele>
        <time>2025-06-08T09:07:58.000Z</time>
      </trkpt>
      <trkpt lat="48.40766" lon="2.43015">
        <ele>117.80000305176</ele>
        <time>2025-06-08T09:07:59.000Z</time>
      </trkpt>
      <trkpt lat="48.40762" lon="2.4301">
        <ele>117.59999847412</ele>
        <time>2025-06-08T09:08:00.000Z</time>
      </trkpt>
      <trkpt lat="48.4075" lon="2.42995">
        <ele>117</ele>
        <time>2025-06-08T09:08:03.000Z</time>
      </trkpt>
      <trkpt lat="48.40747" lon="2.42989">
        <ele>116.80000305176</ele>
        <time>2025-06-08T09:08:04.000Z</time>
      </trkpt>
      <trkpt lat="48.40735" lon="2.42964">
        <ele>116.19999694824</ele>
        <time>2025-06-08T09:08:08.000Z</time>
      </trkpt>
      <trkpt lat="48.40732" lon="2.42957">
        <ele>116</ele>
        <time>2025-06-08T09:08:09.000Z</time>
      </trkpt>
      <trkpt lat="48.4073" lon="2.42949">
        <ele>115.80000305176</ele>
        <time>2025-06-08T09:08:10.000Z</time>
      </trkpt>
      <trkpt lat="48.40728" lon="2.4294">
        <ele>115.59999847412</ele>
        <time>2025-06-08T09:08:11.000Z</time>
      </trkpt>
      <trkpt lat="48.40726" lon="2.42923">
        <ele>115.40000152588</ele>
        <time>2025-06-08T09:08:13.000Z</time>
      </trkpt>
      <trkpt lat="48.40724" lon="2.42914">
        <ele>115</ele>
        <time>2025-06-08T09:08:14.000Z</time>
      </trkpt>
      <trkpt lat="48.40722" lon="2.42906">
        <ele>114.80000305176</ele>
        <time>2025-06-08T09:08:15.000Z</time>
      </trkpt>
      <trkpt lat="48.40714" lon="2.42893">
        <ele>114</ele>
        <time>2025-06-08T09:08:17.000Z</time>
      </trkpt>
      <trkpt lat="48.40709" lon="2.42887">
        <ele>113.80000305176</ele>
        <time>2025-06-08T09:08:18.000Z</time>
      </trkpt>
      <trkpt lat="48.40695" lon="2.42869">
        <ele>113.59999847412</ele>
        <time>2025-06-08T09:08:21.000Z</time>
      </trkpt>
      <trkpt lat="48.4069" lon="2.42863">
        <ele>113.59999847412</ele>
        <time>2025-06-08T09:08:22.000Z</time>
      </trkpt>
      <trkpt lat="48.40679" lon="2.42853">
        <ele>113.59999847412</ele>
        <time>2025-06-08T09:08:24.000Z</time>
      </trkpt>
      <trkpt lat="48.4066" lon="2.42842">
        <ele>112.19999694824</ele>
        <time>2025-06-08T09:08:27.000Z</time>
      </trkpt>
      <trkpt lat="48.40648" lon="2.42834">
        <ele>111</ele>
        <time>2025-06-08T09:08:29.000Z</time>
      </trkpt>
      <trkpt lat="48.40635" lon="2.42828">
        <ele>110.80000305176</ele>
        <time>2025-06-08T09:08:31.000Z</time>
      </trkpt>
      <trkpt lat="48.40623" lon="2.42823">
        <ele>110.59999847412</ele>
        <time>2025-06-08T09:08:33.000Z</time>
      </trkpt>
      <trkpt lat="48.40604" lon="2.42815">
        <ele>110.40000152588</ele>
        <time>2025-06-08T09:08:36.000Z</time>
      </trkpt>
      <trkpt lat="48.40589" lon="2.42803">
        <ele>110</ele>
        <time>2025-06-08T09:08:39.000Z</time>
      </trkpt>
      <trkpt lat="48.40576" lon="2.42793">
        <ele>110</ele>
        <time>2025-06-08T09:08:43.000Z</time>
      </trkpt>
      <trkpt lat="48.40573" lon="2.4279">
        <ele>110</ele>
        <time>2025-06-08T09:08:44.000Z</time>
      </trkpt>
      <trkpt lat="48.40561" lon="2.4278">
        <ele>110.19999694824</ele>
        <time>2025-06-08T09:08:48.000Z</time>
      </trkpt>
      <trkpt lat="48.40545" lon="2.42762">
        <ele>110.80000305176</ele>
        <time>2025-06-08T09:08:53.000Z</time>
      </trkpt>
      <trkpt lat="48.40533" lon="2.42742">
        <ele>111.59999847412</ele>
        <time>2025-06-08T09:08:59.000Z</time>
      </trkpt>
      <trkpt lat="48.40528" lon="2.42738">
        <ele>112</ele>
        <time>2025-06-08T09:09:01.000Z</time>
      </trkpt>
      <trkpt lat="48.40519" lon="2.42733">
        <ele>112.40000152588</ele>
        <time>2025-06-08T09:09:04.000Z</time>
      </trkpt>
      <trkpt lat="48.40502" lon="2.42723">
        <ele>112.80000305176</ele>
        <time>2025-06-08T09:09:10.000Z</time>
      </trkpt>
      <trkpt lat="48.40485" lon="2.42728">
        <ele>112.59999847412</ele>
        <time>2025-06-08T09:09:15.000Z</time>
      </trkpt>
      <trkpt lat="48.40466" lon="2.42731">
        <ele>112.40000152588</ele>
        <time>2025-06-08T09:09:20.000Z</time>
      </trkpt>
      <trkpt lat="48.40457" lon="2.4273">
        <ele>111.40000152588</ele>
        <time>2025-06-08T09:09:22.000Z</time>
      </trkpt>
      <trkpt lat="48.40453" lon="2.42728">
        <ele>110.80000305176</ele>
        <time>2025-06-08T09:09:23.000Z</time>
      </trkpt>
      <trkpt lat="48.40449" lon="2.42726">
        <ele>109.80000305176</ele>
        <time>2025-06-08T09:09:24.000Z</time>
      </trkpt>
      <trkpt lat="48.40446" lon="2.42724">
        <ele>108.80000305176</ele>
        <time>2025-06-08T09:09:25.000Z</time>
      </trkpt>
      <trkpt lat="48.40442" lon="2.42725">
        <ele>107.19999694824</ele>
        <time>2025-06-08T09:09:26.000Z</time>
      </trkpt>
      <trkpt lat="48.40434" lon="2.42723">
        <ele>105.59999847412</ele>
        <time>2025-06-08T09:09:28.000Z</time>
      </trkpt>
      <trkpt lat="48.40429" lon="2.42721">
        <ele>104.59999847412</ele>
        <time>2025-06-08T09:09:29.000Z</time>
      </trkpt>
      <trkpt lat="48.40426" lon="2.42718">
        <ele>104.19999694824</ele>
        <time>2025-06-08T09:09:30.000Z</time>
      </trkpt>
      <trkpt lat="48.40423" lon="2.42715">
        <ele>103.80000305176</ele>
        <time>2025-06-08T09:09:31.000Z</time>
      </trkpt>
      <trkpt lat="48.40419" lon="2.42708">
        <ele>103.19999694824</ele>
        <time>2025-06-08T09:09:33.000Z</time>
      </trkpt>
      <trkpt lat="48.40417" lon="2.42705">
        <ele>103</ele>
        <time>2025-06-08T09:09:34.000Z</time>
      </trkpt>
      <trkpt lat="48.40412" lon="2.42698">
        <ele>103</ele>
        <time>2025-06-08T09:09:37.000Z</time>
      </trkpt>
      <trkpt lat="48.40404" lon="2.42687">
        <ele>103.19999694824</ele>
        <time>2025-06-08T09:09:43.000Z</time>
      </trkpt>
      <trkpt lat="48.404" lon="2.42682">
        <ele>104</ele>
        <time>2025-06-08T09:09:46.000Z</time>
      </trkpt>
      <trkpt lat="48.40397" lon="2.42678">
        <ele>105.19999694824</ele>
        <time>2025-06-08T09:09:49.000Z</time>
      </trkpt>
      <trkpt lat="48.40396" lon="2.42677">
        <ele>105.59999847412</ele>
        <time>2025-06-08T09:09:50.000Z</time>
      </trkpt>
      <trkpt lat="48.40393" lon="2.42673">
        <ele>106.40000152588</ele>
        <time>2025-06-08T09:09:52.000Z</time>
      </trkpt>
      <trkpt lat="48.40391" lon="2.42665">
        <ele>107.59999847412</ele>
        <time>2025-06-08T09:09:56.000Z</time>
      </trkpt>
      <trkpt lat="48.40391" lon="2.42663">
        <ele>107.80000305176</ele>
        <time>2025-06-08T09:09:57.000Z</time>
      </trkpt>
      <trkpt lat="48.40387" lon="2.42657">
        <ele>108.80000305176</ele>
        <time>2025-06-08T09:10:01.000Z</time>
      </trkpt>
      <trkpt lat="48.40385" lon="2.42651">
        <ele>109.40000152588</ele>
        <time>2025-06-08T09:10:04.000Z</time>
      </trkpt>
      <trkpt lat="48.40384" lon="2.42647">
        <ele>109.80000305176</ele>
        <time>2025-06-08T09:10:06.000Z</time>
      </trkpt>
      <trkpt lat="48.40384" lon="2.42638">
        <ele>111</ele>
        <time>2025-06-08T09:10:10.000Z</time>
      </trkpt>
      <trkpt lat="48.40385" lon="2.42632">
        <ele>111.80000305176</ele>
        <time>2025-06-08T09:10:13.000Z</time>
      </trkpt>
      <trkpt lat="48.40386" lon="2.4263">
        <ele>112.19999694824</ele>
        <time>2025-06-08T09:10:14.000Z</time>
      </trkpt>
      <trkpt lat="48.40388" lon="2.42626">
        <ele>113.40000152588</ele>
        <time>2025-06-08T09:10:17.000Z</time>
      </trkpt>
      <trkpt lat="48.4039" lon="2.42619">
        <ele>114.59999847412</ele>
        <time>2025-06-08T09:10:21.000Z</time>
      </trkpt>
      <trkpt lat="48.4039" lon="2.42618">
        <ele>114.80000305176</ele>
        <time>2025-06-08T09:10:22.000Z</time>
      </trkpt>
      <trkpt lat="48.40391" lon="2.42616">
        <ele>115</ele>
        <time>2025-06-08T09:10:23.000Z</time>
      </trkpt>
      <trkpt lat="48.40393" lon="2.42609">
        <ele>115.59999847412</ele>
        <time>2025-06-08T09:10:26.000Z</time>
      </trkpt>
      <trkpt lat="48.40394" lon="2.42603">
        <ele>116.19999694824</ele>
        <time>2025-06-08T09:10:29.000Z</time>
      </trkpt>
      <trkpt lat="48.40393" lon="2.42599">
        <ele>116.59999847412</ele>
        <time>2025-06-08T09:10:31.000Z</time>
      </trkpt>
      <trkpt lat="48.40393" lon="2.42591">
        <ele>117.40000152588</ele>
        <time>2025-06-08T09:10:35.000Z</time>
      </trkpt>
      <trkpt lat="48.40394" lon="2.42587">
        <ele>117.80000305176</ele>
        <time>2025-06-08T09:10:37.000Z</time>
      </trkpt>
      <trkpt lat="48.40395" lon="2.42579">
        <ele>118</ele>
        <time>2025-06-08T09:10:40.000Z</time>
      </trkpt>
      <trkpt lat="48.40395" lon="2.42574">
        <ele>118.19999694824</ele>
        <time>2025-06-08T09:10:42.000Z</time>
      </trkpt>
      <trkpt lat="48.40396" lon="2.42565">
        <ele>118.59999847412</ele>
        <time>2025-06-08T09:10:45.000Z</time>
      </trkpt>
      <trkpt lat="48.40396" lon="2.42562">
        <ele>118.80000305176</ele>
        <time>2025-06-08T09:10:46.000Z</time>
      </trkpt>
      <trkpt lat="48.40396" lon="2.4255">
        <ele>119.19999694824</ele>
        <time>2025-06-08T09:10:49.000Z</time>
      </trkpt>
      <trkpt lat="48.40395" lon="2.42533">
        <ele>120</ele>
        <time>2025-06-08T09:10:54.000Z</time>
      </trkpt>
      <trkpt lat="48.40394" lon="2.42531">
        <ele>120.19999694824</ele>
        <time>2025-06-08T09:10:55.000Z</time>
      </trkpt>
      <trkpt lat="48.40393" lon="2.42529">
        <ele>120.19999694824</ele>
        <time>2025-06-08T09:10:56.000Z</time>
      </trkpt>
      <trkpt lat="48.40385" lon="2.42523">
        <ele>121</ele>
        <time>2025-06-08T09:11:00.000Z</time>
      </trkpt>
      <trkpt lat="48.40384" lon="2.4252">
        <ele>121</ele>
        <time>2025-06-08T09:11:01.000Z</time>
      </trkpt>
      <trkpt lat="48.40383" lon="2.42516">
        <ele>121.19999694824</ele>
        <time>2025-06-08T09:11:02.000Z</time>
      </trkpt>
      <trkpt lat="48.40384" lon="2.42498">
        <ele>121.40000152588</ele>
        <time>2025-06-08T09:11:05.000Z</time>
      </trkpt>
      <trkpt lat="48.40385" lon="2.42484">
        <ele>121.40000152588</ele>
        <time>2025-06-08T09:11:07.000Z</time>
      </trkpt>
      <trkpt lat="48.4039" lon="2.4245">
        <ele>121.80000305176</ele>
        <time>2025-06-08T09:11:13.000Z</time>
      </trkpt>
      <trkpt lat="48.40403" lon="2.42428">
        <ele>122</ele>
        <time>2025-06-08T09:11:19.000Z</time>
      </trkpt>
      <trkpt lat="48.40404" lon="2.42422">
        <ele>122</ele>
        <time>2025-06-08T09:11:20.000Z</time>
      </trkpt>
      <trkpt lat="48.40405" lon="2.42403">
        <ele>122.40000152588</ele>
        <time>2025-06-08T09:11:23.000Z</time>
      </trkpt>
      <trkpt lat="48.40406" lon="2.42374">
        <ele>122.40000152588</ele>
        <time>2025-06-08T09:11:28.000Z</time>
      </trkpt>
      <trkpt lat="48.40405" lon="2.42363">
        <ele>122.59999847412</ele>
        <time>2025-06-08T09:11:30.000Z</time>
      </trkpt>
      <trkpt lat="48.40403" lon="2.42341">
        <ele>122.80000305176</ele>
        <time>2025-06-08T09:11:34.000Z</time>
      </trkpt>
      <trkpt lat="48.40398" lon="2.42309">
        <ele>123</ele>
        <time>2025-06-08T09:11:40.000Z</time>
      </trkpt>
      <trkpt lat="48.40398" lon="2.42303">
        <ele>123.19999694824</ele>
        <time>2025-06-08T09:11:41.000Z</time>
      </trkpt>
      <trkpt lat="48.40396" lon="2.42276">
        <ele>123.40000152588</ele>
        <time>2025-06-08T09:11:46.000Z</time>
      </trkpt>
      <trkpt lat="48.40391" lon="2.42241">
        <ele>123.80000305176</ele>
        <time>2025-06-08T09:11:51.000Z</time>
      </trkpt>
      <trkpt lat="48.40385" lon="2.4221">
        <ele>124</ele>
        <time>2025-06-08T09:11:56.000Z</time>
      </trkpt>
      <trkpt lat="48.40381" lon="2.42202">
        <ele>124</ele>
        <time>2025-06-08T09:11:58.000Z</time>
      </trkpt>
      <trkpt lat="48.40376" lon="2.42199">
        <ele>124.19999694824</ele>
        <time>2025-06-08T09:12:00.000Z</time>
      </trkpt>
      <trkpt lat="48.4037" lon="2.42199">
        <ele>124.59999847412</ele>
        <time>2025-06-08T09:12:02.000Z</time>
      </trkpt>
      <trkpt lat="48.40356" lon="2.422">
        <ele>124.80000305176</ele>
        <time>2025-06-08T09:12:06.000Z</time>
      </trkpt>
      <trkpt lat="48.40337" lon="2.42204">
        <ele>125</ele>
        <time>2025-06-08T09:12:11.000Z</time>
      </trkpt>
      <trkpt lat="48.40332" lon="2.42202">
        <ele>125</ele>
        <time>2025-06-08T09:12:12.000Z</time>
      </trkpt>
      <trkpt lat="48.40323" lon="2.42196">
        <ele>125.19999694824</ele>
        <time>2025-06-08T09:12:14.000Z</time>
      </trkpt>
      <trkpt lat="48.40318" lon="2.42193">
        <ele>125.19999694824</ele>
        <time>2025-06-08T09:12:15.000Z</time>
      </trkpt>
      <trkpt lat="48.40292" lon="2.42181">
        <ele>125.59999847412</ele>
        <time>2025-06-08T09:12:21.000Z</time>
      </trkpt>
      <trkpt lat="48.40267" lon="2.42186">
        <ele>125.80000305176</ele>
        <time>2025-06-08T09:12:27.000Z</time>
      </trkpt>
      <trkpt lat="48.40238" lon="2.42189">
        <ele>126</ele>
        <time>2025-06-08T09:12:34.000Z</time>
      </trkpt>
      <trkpt lat="48.40232" lon="2.42175">
        <ele>126</ele>
        <time>2025-06-08T09:12:37.000Z</time>
      </trkpt>
      <trkpt lat="48.40231" lon="2.4217">
        <ele>126</ele>
        <time>2025-06-08T09:12:38.000Z</time>
      </trkpt>
      <trkpt lat="48.40227" lon="2.4216">
        <ele>126</ele>
        <time>2025-06-08T09:12:40.000Z</time>
      </trkpt>
      <trkpt lat="48.40223" lon="2.42155">
        <ele>126</ele>
        <time>2025-06-08T09:12:41.000Z</time>
      </trkpt>
      <trkpt lat="48.402" lon="2.4214">
        <ele>126</ele>
        <time>2025-06-08T09:12:46.000Z</time>
      </trkpt>
      <trkpt lat="48.40195" lon="2.4214">
        <ele>125.80000305176</ele>
        <time>2025-06-08T09:12:47.000Z</time>
      </trkpt>
      <trkpt lat="48.4018" lon="2.42139">
        <ele>125.80000305176</ele>
        <time>2025-06-08T09:12:50.000Z</time>
      </trkpt>
      <trkpt lat="48.40169" lon="2.42137">
        <ele>125.80000305176</ele>
        <time>2025-06-08T09:12:52.000Z</time>
      </trkpt>
      <trkpt lat="48.40152" lon="2.42132">
        <ele>125.80000305176</ele>
        <time>2025-06-08T09:12:55.000Z</time>
      </trkpt>
      <trkpt lat="48.40142" lon="2.42127">
        <ele>125.80000305176</ele>
        <time>2025-06-08T09:12:57.000Z</time>
      </trkpt>
      <trkpt lat="48.40137" lon="2.42126">
        <ele>125.80000305176</ele>
        <time>2025-06-08T09:12:58.000Z</time>
      </trkpt>
      <trkpt lat="48.40112" lon="2.42116">
        <ele>125.80000305176</ele>
        <time>2025-06-08T09:13:03.000Z</time>
      </trkpt>
      <trkpt lat="48.40092" lon="2.42108">
        <ele>125.40000152588</ele>
        <time>2025-06-08T09:13:07.000Z</time>
      </trkpt>
      <trkpt lat="48.40087" lon="2.42107">
        <ele>125.40000152588</ele>
        <time>2025-06-08T09:13:08.000Z</time>
      </trkpt>
      <trkpt lat="48.40053" lon="2.42096">
        <ele>125.40000152588</ele>
        <time>2025-06-08T09:13:15.000Z</time>
      </trkpt>
      <trkpt lat="48.40021" lon="2.42085">
        <ele>125.40000152588</ele>
        <time>2025-06-08T09:13:21.000Z</time>
      </trkpt>
      <trkpt lat="48.40003" lon="2.42079">
        <ele>125.59999847412</ele>
        <time>2025-06-08T09:13:26.000Z</time>
      </trkpt>
      <trkpt lat="48.39989" lon="2.42081">
        <ele>126.19999694824</ele>
        <time>2025-06-08T09:13:30.000Z</time>
      </trkpt>
      <trkpt lat="48.39986" lon="2.42083">
        <ele>126.19999694824</ele>
        <time>2025-06-08T09:13:31.000Z</time>
      </trkpt>
      <trkpt lat="48.39982" lon="2.42085">
        <ele>126.19999694824</ele>
        <time>2025-06-08T09:13:32.000Z</time>
      </trkpt>
      <trkpt lat="48.3997" lon="2.42098">
        <ele>126.59999847412</ele>
        <time>2025-06-08T09:13:36.000Z</time>
      </trkpt>
      <trkpt lat="48.39959" lon="2.42111">
        <ele>127</ele>
        <time>2025-06-08T09:13:39.000Z</time>
      </trkpt>
      <trkpt lat="48.39956" lon="2.42116">
        <ele>127.19999694824</ele>
        <time>2025-06-08T09:13:40.000Z</time>
      </trkpt>
      <trkpt lat="48.39953" lon="2.42122">
        <ele>127.19999694824</ele>
        <time>2025-06-08T09:13:41.000Z</time>
      </trkpt>
      <trkpt lat="48.39947" lon="2.42132">
        <ele>127.19999694824</ele>
        <time>2025-06-08T09:13:43.000Z</time>
      </trkpt>
      <trkpt lat="48.39932" lon="2.42151">
        <ele>127.19999694824</ele>
        <time>2025-06-08T09:13:47.000Z</time>
      </trkpt>
      <trkpt lat="48.39893" lon="2.42194">
        <ele>126.80000305176</ele>
        <time>2025-06-08T09:13:56.000Z</time>
      </trkpt>
      <trkpt lat="48.39883" lon="2.42201">
        <ele>126.80000305176</ele>
        <time>2025-06-08T09:13:58.000Z</time>
      </trkpt>
      <trkpt lat="48.39861" lon="2.42213">
        <ele>126.40000152588</ele>
        <time>2025-06-08T09:14:02.000Z</time>
      </trkpt>
      <trkpt lat="48.3984" lon="2.4222">
        <ele>126.19999694824</ele>
        <time>2025-06-08T09:14:06.000Z</time>
      </trkpt>
      <trkpt lat="48.3983" lon="2.42223">
        <ele>126.19999694824</ele>
        <time>2025-06-08T09:14:08.000Z</time>
      </trkpt>
      <trkpt lat="48.3981" lon="2.42229">
        <ele>126.19999694824</ele>
        <time>2025-06-08T09:14:13.000Z</time>
      </trkpt>
      <trkpt lat="48.39784" lon="2.42232">
        <ele>127.19999694824</ele>
        <time>2025-06-08T09:14:18.000Z</time>
      </trkpt>
      <trkpt lat="48.39744" lon="2.42235">
        <ele>127.40000152588</ele>
        <time>2025-06-08T09:14:25.000Z</time>
      </trkpt>
      <trkpt lat="48.39706" lon="2.42239">
        <ele>126.80000305176</ele>
        <time>2025-06-08T09:14:32.000Z</time>
      </trkpt>
      <trkpt lat="48.39688" lon="2.42231">
        <ele>126.59999847412</ele>
        <time>2025-06-08T09:14:36.000Z</time>
      </trkpt>
      <trkpt lat="48.39684" lon="2.42229">
        <ele>126.59999847412</ele>
        <time>2025-06-08T09:14:37.000Z</time>
      </trkpt>
      <trkpt lat="48.39679" lon="2.42227">
        <ele>126.59999847412</ele>
        <time>2025-06-08T09:14:38.000Z</time>
      </trkpt>
      <trkpt lat="48.39669" lon="2.42229">
        <ele>126.59999847412</ele>
        <time>2025-06-08T09:14:40.000Z</time>
      </trkpt>
      <trkpt lat="48.39657" lon="2.42246">
        <ele>126.80000305176</ele>
        <time>2025-06-08T09:14:43.000Z</time>
      </trkpt>
      <trkpt lat="48.39653" lon="2.42272">
        <ele>127.19999694824</ele>
        <time>2025-06-08T09:14:46.000Z</time>
      </trkpt>
      <trkpt lat="48.39663" lon="2.42292">
        <ele>127.19999694824</ele>
        <time>2025-06-08T09:14:49.000Z</time>
      </trkpt>
      <trkpt lat="48.39666" lon="2.42299">
        <ele>127.19999694824</ele>
        <time>2025-06-08T09:14:50.000Z</time>
      </trkpt>
      <trkpt lat="48.3967" lon="2.42316">
        <ele>127</ele>
        <time>2025-06-08T09:14:52.000Z</time>
      </trkpt>
      <trkpt lat="48.39673" lon="2.42356">
        <ele>126.80000305176</ele>
        <time>2025-06-08T09:14:56.000Z</time>
      </trkpt>
      <trkpt lat="48.39674" lon="2.42366">
        <ele>126.59999847412</ele>
        <time>2025-06-08T09:14:57.000Z</time>
      </trkpt>
      <trkpt lat="48.39681" lon="2.42439">
        <ele>126.40000152588</ele>
        <time>2025-06-08T09:15:04.000Z</time>
      </trkpt>
      <trkpt lat="48.39684" lon="2.4247">
        <ele>126.19999694824</ele>
        <time>2025-06-08T09:15:07.000Z</time>
      </trkpt>
      <trkpt lat="48.3969" lon="2.42555">
        <ele>126</ele>
        <time>2025-06-08T09:15:15.000Z</time>
      </trkpt>
      <trkpt lat="48.39692" lon="2.42576">
        <ele>125.80000305176</ele>
        <time>2025-06-08T09:15:17.000Z</time>
      </trkpt>
      <trkpt lat="48.39695" lon="2.4263">
        <ele>125.40000152588</ele>
        <time>2025-06-08T09:15:22.000Z</time>
      </trkpt>
      <trkpt lat="48.397" lon="2.42706">
        <ele>124.80000305176</ele>
        <time>2025-06-08T09:15:29.000Z</time>
      </trkpt>
      <trkpt lat="48.39706" lon="2.42778">
        <ele>124.59999847412</ele>
        <time>2025-06-08T09:15:36.000Z</time>
      </trkpt>
      <trkpt lat="48.39706" lon="2.42851">
        <ele>124.40000152588</ele>
        <time>2025-06-08T09:15:43.000Z</time>
      </trkpt>
      <trkpt lat="48.397" lon="2.42905">
        <ele>124.19999694824</ele>
        <time>2025-06-08T09:15:48.000Z</time>
      </trkpt>
      <trkpt lat="48.39696" lon="2.42925">
        <ele>124.19999694824</ele>
        <time>2025-06-08T09:15:50.000Z</time>
      </trkpt>
      <trkpt lat="48.3968" lon="2.42983">
        <ele>123.80000305176</ele>
        <time>2025-06-08T09:15:56.000Z</time>
      </trkpt>
      <trkpt lat="48.39653" lon="2.43044">
        <ele>123</ele>
        <time>2025-06-08T09:16:03.000Z</time>
      </trkpt>
      <trkpt lat="48.39624" lon="2.43104">
        <ele>122</ele>
        <time>2025-06-08T09:16:10.000Z</time>
      </trkpt>
      <trkpt lat="48.39617" lon="2.43123">
        <ele>121.40000152588</ele>
        <time>2025-06-08T09:16:12.000Z</time>
      </trkpt>
      <trkpt lat="48.39607" lon="2.4315">
        <ele>120.80000305176</ele>
        <time>2025-06-08T09:16:15.000Z</time>
      </trkpt>
      <trkpt lat="48.39595" lon="2.4316">
        <ele>120.59999847412</ele>
        <time>2025-06-08T09:16:17.000Z</time>
      </trkpt>
      <trkpt lat="48.3957" lon="2.4316">
        <ele>120.19999694824</ele>
        <time>2025-06-08T09:16:21.000Z</time>
      </trkpt>
      <trkpt lat="48.39558" lon="2.43156">
        <ele>119.80000305176</ele>
        <time>2025-06-08T09:16:23.000Z</time>
      </trkpt>
      <trkpt lat="48.39534" lon="2.43143">
        <ele>119.59999847412</ele>
        <time>2025-06-08T09:16:27.000Z</time>
      </trkpt>
      <trkpt lat="48.39498" lon="2.43117">
        <ele>118.80000305176</ele>
        <time>2025-06-08T09:16:33.000Z</time>
      </trkpt>
      <trkpt lat="48.39493" lon="2.43111">
        <ele>118.59999847412</ele>
        <time>2025-06-08T09:16:34.000Z</time>
      </trkpt>
      <trkpt lat="48.39479" lon="2.43075">
        <ele>118.40000152588</ele>
        <time>2025-06-08T09:16:38.000Z</time>
      </trkpt>
      <trkpt lat="48.39474" lon="2.43057">
        <ele>117.80000305176</ele>
        <time>2025-06-08T09:16:40.000Z</time>
      </trkpt>
      <trkpt lat="48.39471" lon="2.43049">
        <ele>117.40000152588</ele>
        <time>2025-06-08T09:16:41.000Z</time>
      </trkpt>
      <trkpt lat="48.39466" lon="2.43046">
        <ele>117.40000152588</ele>
        <time>2025-06-08T09:16:42.000Z</time>
      </trkpt>
      <trkpt lat="48.39459" lon="2.43052">
        <ele>117</ele>
        <time>2025-06-08T09:16:44.000Z</time>
      </trkpt>
      <trkpt lat="48.39459" lon="2.43067">
        <ele>117</ele>
        <time>2025-06-08T09:16:46.000Z</time>
      </trkpt>
      <trkpt lat="48.39459" lon="2.43076">
        <ele>116.80000305176</ele>
        <time>2025-06-08T09:16:47.000Z</time>
      </trkpt>
      <trkpt lat="48.39463" lon="2.43127">
        <ele>116.40000152588</ele>
        <time>2025-06-08T09:16:52.000Z</time>
      </trkpt>
      <trkpt lat="48.39464" lon="2.43138">
        <ele>116.40000152588</ele>
        <time>2025-06-08T09:16:53.000Z</time>
      </trkpt>
      <trkpt lat="48.39469" lon="2.43195">
        <ele>115.40000152588</ele>
        <time>2025-06-08T09:16:58.000Z</time>
      </trkpt>
      <trkpt lat="48.39471" lon="2.43218">
        <ele>114.59999847412</ele>
        <time>2025-06-08T09:17:00.000Z</time>
      </trkpt>
      <trkpt lat="48.39472" lon="2.43229">
        <ele>114.19999694824</ele>
        <time>2025-06-08T09:17:01.000Z</time>
      </trkpt>
      <trkpt lat="48.39477" lon="2.43272">
        <ele>112.80000305176</ele>
        <time>2025-06-08T09:17:05.000Z</time>
      </trkpt>
      <trkpt lat="48.39479" lon="2.43282">
        <ele>112.19999694824</ele>
        <time>2025-06-08T09:17:06.000Z</time>
      </trkpt>
      <trkpt lat="48.39481" lon="2.43292">
        <ele>112</ele>
        <time>2025-06-08T09:17:07.000Z</time>
      </trkpt>
      <trkpt lat="48.39484" lon="2.43302">
        <ele>111.40000152588</ele>
        <time>2025-06-08T09:17:08.000Z</time>
      </trkpt>
      <trkpt lat="48.39492" lon="2.43331">
        <ele>110.80000305176</ele>
        <time>2025-06-08T09:17:11.000Z</time>
      </trkpt>
      <trkpt lat="48.39499" lon="2.4335">
        <ele>110.40000152588</ele>
        <time>2025-06-08T09:17:13.000Z</time>
      </trkpt>
      <trkpt lat="48.39511" lon="2.43388">
        <ele>109</ele>
        <time>2025-06-08T09:17:17.000Z</time>
      </trkpt>
      <trkpt lat="48.39513" lon="2.43398">
        <ele>108.80000305176</ele>
        <time>2025-06-08T09:17:18.000Z</time>
      </trkpt>
      <trkpt lat="48.39524" lon="2.43438">
        <ele>108</ele>
        <time>2025-06-08T09:17:22.000Z</time>
      </trkpt>
      <trkpt lat="48.39535" lon="2.4348">
        <ele>107</ele>
        <time>2025-06-08T09:17:26.000Z</time>
      </trkpt>
      <trkpt lat="48.39537" lon="2.43491">
        <ele>106.59999847412</ele>
        <time>2025-06-08T09:17:27.000Z</time>
      </trkpt>
      <trkpt lat="48.39549" lon="2.43534">
        <ele>105.19999694824</ele>
        <time>2025-06-08T09:17:31.000Z</time>
      </trkpt>
      <trkpt lat="48.39556" lon="2.43554">
        <ele>103.80000305176</ele>
        <time>2025-06-08T09:17:33.000Z</time>
      </trkpt>
      <trkpt lat="48.3956" lon="2.43564">
        <ele>103.40000152588</ele>
        <time>2025-06-08T09:17:34.000Z</time>
      </trkpt>
      <trkpt lat="48.39565" lon="2.43573">
        <ele>103</ele>
        <time>2025-06-08T09:17:35.000Z</time>
      </trkpt>
      <trkpt lat="48.39571" lon="2.43581">
        <ele>102.80000305176</ele>
        <time>2025-06-08T09:17:36.000Z</time>
      </trkpt>
      <trkpt lat="48.39583" lon="2.43596">
        <ele>102.59999847412</ele>
        <time>2025-06-08T09:17:38.000Z</time>
      </trkpt>
      <trkpt lat="48.39604" lon="2.43609">
        <ele>102.40000152588</ele>
        <time>2025-06-08T09:17:41.000Z</time>
      </trkpt>
      <trkpt lat="48.39612" lon="2.43614">
        <ele>102.19999694824</ele>
        <time>2025-06-08T09:17:42.000Z</time>
      </trkpt>
      <trkpt lat="48.39619" lon="2.43619">
        <ele>101.80000305176</ele>
        <time>2025-06-08T09:17:43.000Z</time>
      </trkpt>
      <trkpt lat="48.39633" lon="2.43631">
        <ele>100.59999847412</ele>
        <time>2025-06-08T09:17:45.000Z</time>
      </trkpt>
      <trkpt lat="48.39646" lon="2.43643">
        <ele>99.599998474121</ele>
        <time>2025-06-08T09:17:47.000Z</time>
      </trkpt>
      <trkpt lat="48.39653" lon="2.4365">
        <ele>99.199996948242</ele>
        <time>2025-06-08T09:17:48.000Z</time>
      </trkpt>
      <trkpt lat="48.39663" lon="2.43666">
        <ele>98.800003051758</ele>
        <time>2025-06-08T09:17:50.000Z</time>
      </trkpt>
      <trkpt lat="48.39672" lon="2.43685">
        <ele>98.199996948242</ele>
        <time>2025-06-08T09:17:52.000Z</time>
      </trkpt>
      <trkpt lat="48.39681" lon="2.43728">
        <ele>97.400001525879</ele>
        <time>2025-06-08T09:17:56.000Z</time>
      </trkpt>
      <trkpt lat="48.39683" lon="2.43752">
        <ele>97.199996948242</ele>
        <time>2025-06-08T09:17:58.000Z</time>
      </trkpt>
      <trkpt lat="48.39684" lon="2.43777">
        <ele>97</ele>
        <time>2025-06-08T09:18:00.000Z</time>
      </trkpt>
      <trkpt lat="48.39685" lon="2.4379">
        <ele>96</ele>
        <time>2025-06-08T09:18:01.000Z</time>
      </trkpt>
      <trkpt lat="48.39685" lon="2.43803">
        <ele>95.800003051758</ele>
        <time>2025-06-08T09:18:02.000Z</time>
      </trkpt>
      <trkpt lat="48.3969" lon="2.43839">
        <ele>94.400001525879</ele>
        <time>2025-06-08T09:18:05.000Z</time>
      </trkpt>
      <trkpt lat="48.39695" lon="2.43863">
        <ele>93.400001525879</ele>
        <time>2025-06-08T09:18:07.000Z</time>
      </trkpt>
      <trkpt lat="48.39701" lon="2.43885">
        <ele>92</ele>
        <time>2025-06-08T09:18:09.000Z</time>
      </trkpt>
      <trkpt lat="48.39705" lon="2.43896">
        <ele>91.599998474121</ele>
        <time>2025-06-08T09:18:10.000Z</time>
      </trkpt>
      <trkpt lat="48.39715" lon="2.43916">
        <ele>91</ele>
        <time>2025-06-08T09:18:12.000Z</time>
      </trkpt>
      <trkpt lat="48.39721" lon="2.43926">
        <ele>90.800003051758</ele>
        <time>2025-06-08T09:18:13.000Z</time>
      </trkpt>
      <trkpt lat="48.39742" lon="2.43967">
        <ele>90.400001525879</ele>
        <time>2025-06-08T09:18:17.000Z</time>
      </trkpt>
      <trkpt lat="48.39761" lon="2.43998">
        <ele>89.599998474121</ele>
        <time>2025-06-08T09:18:20.000Z</time>
      </trkpt>
      <trkpt lat="48.39778" lon="2.4403">
        <ele>88.199996948242</ele>
        <time>2025-06-08T09:18:23.000Z</time>
      </trkpt>
      <trkpt lat="48.39795" lon="2.44063">
        <ele>86.800003051758</ele>
        <time>2025-06-08T09:18:26.000Z</time>
      </trkpt>
      <trkpt lat="48.39805" lon="2.44088">
        <ele>86.199996948242</ele>
        <time>2025-06-08T09:18:28.000Z</time>
      </trkpt>
      <trkpt lat="48.39808" lon="2.441">
        <ele>86.199996948242</ele>
        <time>2025-06-08T09:18:29.000Z</time>
      </trkpt>
      <trkpt lat="48.39811" lon="2.44113">
        <ele>85.199996948242</ele>
        <time>2025-06-08T09:18:30.000Z</time>
      </trkpt>
      <trkpt lat="48.39814" lon="2.44141">
        <ele>84.599998474121</ele>
        <time>2025-06-08T09:18:32.000Z</time>
      </trkpt>
      <trkpt lat="48.39819" lon="2.44198">
        <ele>83.800003051758</ele>
        <time>2025-06-08T09:18:36.000Z</time>
      </trkpt>
      <trkpt lat="48.3982" lon="2.44212">
        <ele>83.400001525879</ele>
        <time>2025-06-08T09:18:37.000Z</time>
      </trkpt>
      <trkpt lat="48.39821" lon="2.44239">
        <ele>82.599998474121</ele>
        <time>2025-06-08T09:18:39.000Z</time>
      </trkpt>
      <trkpt lat="48.39822" lon="2.44264">
        <ele>81.599998474121</ele>
        <time>2025-06-08T09:18:41.000Z</time>
      </trkpt>
      <trkpt lat="48.39822" lon="2.44289">
        <ele>80.800003051758</ele>
        <time>2025-06-08T09:18:43.000Z</time>
      </trkpt>
      <trkpt lat="48.39823" lon="2.44302">
        <ele>80.400001525879</ele>
        <time>2025-06-08T09:18:44.000Z</time>
      </trkpt>
      <trkpt lat="48.39824" lon="2.44341">
        <ele>79.400001525879</ele>
        <time>2025-06-08T09:18:47.000Z</time>
      </trkpt>
      <trkpt lat="48.39827" lon="2.44367">
        <ele>78.599998474121</ele>
        <time>2025-06-08T09:18:49.000Z</time>
      </trkpt>
      <trkpt lat="48.39829" lon="2.44409">
        <ele>78</ele>
        <time>2025-06-08T09:18:52.000Z</time>
      </trkpt>
      <trkpt lat="48.39832" lon="2.4445">
        <ele>77.599998474121</ele>
        <time>2025-06-08T09:18:55.000Z</time>
      </trkpt>
      <trkpt lat="48.39835" lon="2.44477">
        <ele>76.599998474121</ele>
        <time>2025-06-08T09:18:57.000Z</time>
      </trkpt>
      <trkpt lat="48.39837" lon="2.44505">
        <ele>75</ele>
        <time>2025-06-08T09:18:59.000Z</time>
      </trkpt>
      <trkpt lat="48.3984" lon="2.44531">
        <ele>74</ele>
        <time>2025-06-08T09:19:01.000Z</time>
      </trkpt>
      <trkpt lat="48.39843" lon="2.44544">
        <ele>73.400001525879</ele>
        <time>2025-06-08T09:19:02.000Z</time>
      </trkpt>
      <trkpt lat="48.39852" lon="2.44583">
        <ele>72.800003051758</ele>
        <time>2025-06-08T09:19:05.000Z</time>
      </trkpt>
      <trkpt lat="48.39856" lon="2.44594">
        <ele>72.400001525879</ele>
        <time>2025-06-08T09:19:06.000Z</time>
      </trkpt>
      <trkpt lat="48.39873" lon="2.4463">
        <ele>71.199996948242</ele>
        <time>2025-06-08T09:19:09.000Z</time>
      </trkpt>
      <trkpt lat="48.39884" lon="2.4465">
        <ele>70.800003051758</ele>
        <time>2025-06-08T09:19:11.000Z</time>
      </trkpt>
      <trkpt lat="48.39907" lon="2.44688">
        <ele>69.800003051758</ele>
        <time>2025-06-08T09:19:15.000Z</time>
      </trkpt>
      <trkpt lat="48.39923" lon="2.44718">
        <ele>68.400001525879</ele>
        <time>2025-06-08T09:19:18.000Z</time>
      </trkpt>
      <trkpt lat="48.39947" lon="2.44758">
        <ele>67.400001525879</ele>
        <time>2025-06-08T09:19:22.000Z</time>
      </trkpt>
      <trkpt lat="48.39962" lon="2.44789">
        <ele>66.800003051758</ele>
        <time>2025-06-08T09:19:25.000Z</time>
      </trkpt>
      <trkpt lat="48.39974" lon="2.4481">
        <ele>66.400001525879</ele>
        <time>2025-06-08T09:19:27.000Z</time>
      </trkpt>
      <trkpt lat="48.39989" lon="2.44838">
        <ele>65</ele>
        <time>2025-06-08T09:19:30.000Z</time>
      </trkpt>
      <trkpt lat="48.40006" lon="2.44875">
        <ele>64</ele>
        <time>2025-06-08T09:19:34.000Z</time>
      </trkpt>
      <trkpt lat="48.40016" lon="2.44892">
        <ele>63.799999237061</ele>
        <time>2025-06-08T09:19:36.000Z</time>
      </trkpt>
      <trkpt lat="48.40028" lon="2.44919">
        <ele>63.599998474121</ele>
        <time>2025-06-08T09:19:39.000Z</time>
      </trkpt>
      <trkpt lat="48.40034" lon="2.44941">
        <ele>63.400001525879</ele>
        <time>2025-06-08T09:19:41.000Z</time>
      </trkpt>
      <trkpt lat="48.40037" lon="2.44951">
        <ele>63.400001525879</ele>
        <time>2025-06-08T09:19:42.000Z</time>
      </trkpt>
      <trkpt lat="48.4005" lon="2.44977">
        <ele>63.200000762939</ele>
        <time>2025-06-08T09:19:45.000Z</time>
      </trkpt>
      <trkpt lat="48.4007" lon="2.45019">
        <ele>63.200000762939</ele>
        <time>2025-06-08T09:19:50.000Z</time>
      </trkpt>
      <trkpt lat="48.40074" lon="2.45025">
        <ele>63.200000762939</ele>
        <time>2025-06-08T09:19:51.000Z</time>
      </trkpt>
      <trkpt lat="48.40077" lon="2.45032">
        <ele>63.200000762939</ele>
        <time>2025-06-08T09:19:52.000Z</time>
      </trkpt>
      <trkpt lat="48.40083" lon="2.45056">
        <ele>63.599998474121</ele>
        <time>2025-06-08T09:19:55.000Z</time>
      </trkpt>
      <trkpt lat="48.40079" lon="2.45089">
        <ele>64.199996948242</ele>
        <time>2025-06-08T09:19:59.000Z</time>
      </trkpt>
      <trkpt lat="48.40077" lon="2.45098">
        <ele>64.199996948242</ele>
        <time>2025-06-08T09:20:00.000Z</time>
      </trkpt>
      <trkpt lat="48.40076" lon="2.45107">
        <ele>64.400001525879</ele>
        <time>2025-06-08T09:20:01.000Z</time>
      </trkpt>
      <trkpt lat="48.40078" lon="2.45125">
        <ele>64.400001525879</ele>
        <time>2025-06-08T09:20:03.000Z</time>
      </trkpt>
      <trkpt lat="48.40093" lon="2.45156">
        <ele>64.400001525879</ele>
        <time>2025-06-08T09:20:07.000Z</time>
      </trkpt>
      <trkpt lat="48.40097" lon="2.45164">
        <ele>64.400001525879</ele>
        <time>2025-06-08T09:20:08.000Z</time>
      </trkpt>
      <trkpt lat="48.40105" lon="2.45193">
        <ele>64</ele>
        <time>2025-06-08T09:20:11.000Z</time>
      </trkpt>
      <trkpt lat="48.40119" lon="2.45275">
        <ele>63.400001525879</ele>
        <time>2025-06-08T09:20:19.000Z</time>
      </trkpt>
      <trkpt lat="48.40119" lon="2.45317">
        <ele>62.799999237061</ele>
        <time>2025-06-08T09:20:23.000Z</time>
      </trkpt>
      <trkpt lat="48.40118" lon="2.45359">
        <ele>62.599998474121</ele>
        <time>2025-06-08T09:20:27.000Z</time>
      </trkpt>
      <trkpt lat="48.40118" lon="2.4539">
        <ele>62.200000762939</ele>
        <time>2025-06-08T09:20:30.000Z</time>
      </trkpt>
      <trkpt lat="48.40115" lon="2.45407">
        <ele>62.200000762939</ele>
        <time>2025-06-08T09:20:32.000Z</time>
      </trkpt>
      <trkpt lat="48.40103" lon="2.45409">
        <ele>62</ele>
        <time>2025-06-08T09:20:35.000Z</time>
      </trkpt>
      <trkpt lat="48.40083" lon="2.45395">
        <ele>62</ele>
        <time>2025-06-08T09:20:39.000Z</time>
      </trkpt>
      <trkpt lat="48.40049" lon="2.45389">
        <ele>61.799999237061</ele>
        <time>2025-06-08T09:20:45.000Z</time>
      </trkpt>
      <trkpt lat="48.40011" lon="2.45385">
        <ele>62</ele>
        <time>2025-06-08T09:20:52.000Z</time>
      </trkpt>
      <trkpt lat="48.3998" lon="2.4538">
        <ele>61.799999237061</ele>
        <time>2025-06-08T09:20:58.000Z</time>
      </trkpt>
      <trkpt lat="48.39943" lon="2.45384">
        <ele>62.400001525879</ele>
        <time>2025-06-08T09:21:05.000Z</time>
      </trkpt>
      <trkpt lat="48.399" lon="2.454">
        <ele>62.799999237061</ele>
        <time>2025-06-08T09:21:13.000Z</time>
      </trkpt>
      <trkpt lat="48.39861" lon="2.4541">
        <ele>62.799999237061</ele>
        <time>2025-06-08T09:21:20.000Z</time>
      </trkpt>
      <trkpt lat="48.39856" lon="2.45411">
        <ele>62.799999237061</ele>
        <time>2025-06-08T09:21:21.000Z</time>
      </trkpt>
      <trkpt lat="48.39807" lon="2.45417">
        <ele>62.799999237061</ele>
        <time>2025-06-08T09:21:30.000Z</time>
      </trkpt>
      <trkpt lat="48.39764" lon="2.45426">
        <ele>63.400001525879</ele>
        <time>2025-06-08T09:21:38.000Z</time>
      </trkpt>
      <trkpt lat="48.39719" lon="2.4544">
        <ele>63.799999237061</ele>
        <time>2025-06-08T09:21:46.000Z</time>
      </trkpt>
      <trkpt lat="48.39713" lon="2.45441">
        <ele>63.799999237061</ele>
        <time>2025-06-08T09:21:47.000Z</time>
      </trkpt>
      <trkpt lat="48.39702" lon="2.45444">
        <ele>63.799999237061</ele>
        <time>2025-06-08T09:21:49.000Z</time>
      </trkpt>
      <trkpt lat="48.39679" lon="2.45449">
        <ele>64.199996948242</ele>
        <time>2025-06-08T09:21:53.000Z</time>
      </trkpt>
      <trkpt lat="48.3965" lon="2.45453">
        <ele>64.400001525879</ele>
        <time>2025-06-08T09:21:59.000Z</time>
      </trkpt>
      <trkpt lat="48.3964" lon="2.45455">
        <ele>64.800003051758</ele>
        <time>2025-06-08T09:22:03.000Z</time>
      </trkpt>
      <trkpt lat="48.39638" lon="2.45454">
        <ele>64.800003051758</ele>
        <time>2025-06-08T09:22:04.000Z</time>
      </trkpt>
      <trkpt lat="48.39626" lon="2.45452">
        <ele>65</ele>
        <time>2025-06-08T09:22:08.000Z</time>
      </trkpt>
      <trkpt lat="48.39599" lon="2.45445">
        <ele>64.800003051758</ele>
        <time>2025-06-08T09:22:14.000Z</time>
      </trkpt>
      <trkpt lat="48.39561" lon="2.45431">
        <ele>64.599998474121</ele>
        <time>2025-06-08T09:22:22.000Z</time>
      </trkpt>
      <trkpt lat="48.39523" lon="2.45417">
        <ele>64.800003051758</ele>
        <time>2025-06-08T09:22:30.000Z</time>
      </trkpt>
      <trkpt lat="48.395" lon="2.45406">
        <ele>65.599998474121</ele>
        <time>2025-06-08T09:22:35.000Z</time>
      </trkpt>
      <trkpt lat="48.39496" lon="2.45407">
        <ele>65.800003051758</ele>
        <time>2025-06-08T09:22:36.000Z</time>
      </trkpt>
      <trkpt lat="48.39492" lon="2.4541">
        <ele>65.800003051758</ele>
        <time>2025-06-08T09:22:37.000Z</time>
      </trkpt>
      <trkpt lat="48.39487" lon="2.45422">
        <ele>66</ele>
        <time>2025-06-08T09:22:39.000Z</time>
      </trkpt>
      <trkpt lat="48.39487" lon="2.45452">
        <ele>66.199996948242</ele>
        <time>2025-06-08T09:22:43.000Z</time>
      </trkpt>
      <trkpt lat="48.39494" lon="2.45498">
        <ele>66.599998474121</ele>
        <time>2025-06-08T09:22:49.000Z</time>
      </trkpt>
      <trkpt lat="48.395" lon="2.45522">
        <ele>67</ele>
        <time>2025-06-08T09:22:52.000Z</time>
      </trkpt>
      <trkpt lat="48.39505" lon="2.45546">
        <ele>67</ele>
        <time>2025-06-08T09:22:55.000Z</time>
      </trkpt>
      <trkpt lat="48.39516" lon="2.45592">
        <ele>67</ele>
        <time>2025-06-08T09:23:01.000Z</time>
      </trkpt>
      <trkpt lat="48.39536" lon="2.45634">
        <ele>67</ele>
        <time>2025-06-08T09:23:07.000Z</time>
      </trkpt>
      <trkpt lat="48.39559" lon="2.45676">
        <ele>66.800003051758</ele>
        <time>2025-06-08T09:23:14.000Z</time>
      </trkpt>
      <trkpt lat="48.39563" lon="2.45699">
        <ele>66.800003051758</ele>
        <time>2025-06-08T09:23:18.000Z</time>
      </trkpt>
      <trkpt lat="48.39556" lon="2.45703">
        <ele>67</ele>
        <time>2025-06-08T09:23:22.000Z</time>
      </trkpt>
      <trkpt lat="48.39555" lon="2.45705">
        <ele>67.199996948242</ele>
        <time>2025-06-08T09:23:23.000Z</time>
      </trkpt>
      <trkpt lat="48.39551" lon="2.45707">
        <ele>68</ele>
        <time>2025-06-08T09:23:25.000Z</time>
      </trkpt>
      <trkpt lat="48.39545" lon="2.4571">
        <ele>69.199996948242</ele>
        <time>2025-06-08T09:23:28.000Z</time>
      </trkpt>
      <trkpt lat="48.3954" lon="2.45714">
        <ele>69.800003051758</ele>
        <time>2025-06-08T09:23:30.000Z</time>
      </trkpt>
      <trkpt lat="48.39536" lon="2.45715">
        <ele>70.400001525879</ele>
        <time>2025-06-08T09:23:32.000Z</time>
      </trkpt>
      <trkpt lat="48.39528" lon="2.45721">
        <ele>71.599998474121</ele>
        <time>2025-06-08T09:23:36.000Z</time>
      </trkpt>
      <trkpt lat="48.39523" lon="2.45725">
        <ele>72.599998474121</ele>
        <time>2025-06-08T09:23:38.000Z</time>
      </trkpt>
      <trkpt lat="48.39521" lon="2.45727">
        <ele>72.800003051758</ele>
        <time>2025-06-08T09:23:39.000Z</time>
      </trkpt>
      <trkpt lat="48.39511" lon="2.45733">
        <ele>73.800003051758</ele>
        <time>2025-06-08T09:23:44.000Z</time>
      </trkpt>
      <trkpt lat="48.39509" lon="2.45735">
        <ele>74</ele>
        <time>2025-06-08T09:23:45.000Z</time>
      </trkpt>
      <trkpt lat="48.395" lon="2.4574">
        <ele>75</ele>
        <time>2025-06-08T09:23:49.000Z</time>
      </trkpt>
      <trkpt lat="48.39493" lon="2.45743">
        <ele>75.599998474121</ele>
        <time>2025-06-08T09:23:51.000Z</time>
      </trkpt>
      <trkpt lat="48.39488" lon="2.45744">
        <ele>76</ele>
        <time>2025-06-08T09:23:53.000Z</time>
      </trkpt>
      <trkpt lat="48.3948" lon="2.45746">
        <ele>76.400001525879</ele>
        <time>2025-06-08T09:23:56.000Z</time>
      </trkpt>
      <trkpt lat="48.39471" lon="2.45753">
        <ele>77</ele>
        <time>2025-06-08T09:24:00.000Z</time>
      </trkpt>
      <trkpt lat="48.39469" lon="2.45756">
        <ele>77.400001525879</ele>
        <time>2025-06-08T09:24:01.000Z</time>
      </trkpt>
      <trkpt lat="48.39465" lon="2.45764">
        <ele>78.199996948242</ele>
        <time>2025-06-08T09:24:04.000Z</time>
      </trkpt>
      <trkpt lat="48.39459" lon="2.45777">
        <ele>78.800003051758</ele>
        <time>2025-06-08T09:24:09.000Z</time>
      </trkpt>
      <trkpt lat="48.39457" lon="2.45785">
        <ele>79.400001525879</ele>
        <time>2025-06-08T09:24:11.000Z</time>
      </trkpt>
      <trkpt lat="48.39457" lon="2.45791">
        <ele>80</ele>
        <time>2025-06-08T09:24:13.000Z</time>
      </trkpt>
      <trkpt lat="48.39458" lon="2.45793">
        <ele>80.199996948242</ele>
        <time>2025-06-08T09:24:14.000Z</time>
      </trkpt>
      <trkpt lat="48.39465" lon="2.45799">
        <ele>80.400001525879</ele>
        <time>2025-06-08T09:24:18.000Z</time>
      </trkpt>
      <trkpt lat="48.39468" lon="2.45801">
        <ele>80.400001525879</ele>
        <time>2025-06-08T09:24:19.000Z</time>
      </trkpt>
      <trkpt lat="48.39472" lon="2.45815">
        <ele>80.400001525879</ele>
        <time>2025-06-08T09:24:23.000Z</time>
      </trkpt>
      <trkpt lat="48.39474" lon="2.4584">
        <ele>80.400001525879</ele>
        <time>2025-06-08T09:24:27.000Z</time>
      </trkpt>
      <trkpt lat="48.39475" lon="2.45847">
        <ele>80.199996948242</ele>
        <time>2025-06-08T09:24:28.000Z</time>
      </trkpt>
      <trkpt lat="48.39478" lon="2.45861">
        <ele>79.199996948242</ele>
        <time>2025-06-08T09:24:30.000Z</time>
      </trkpt>
      <trkpt lat="48.39479" lon="2.45876">
        <ele>78.599998474121</ele>
        <time>2025-06-08T09:24:32.000Z</time>
      </trkpt>
      <trkpt lat="48.39479" lon="2.45882">
        <ele>78</ele>
        <time>2025-06-08T09:24:33.000Z</time>
      </trkpt>
      <trkpt lat="48.39476" lon="2.45895">
        <ele>76.400001525879</ele>
        <time>2025-06-08T09:24:35.000Z</time>
      </trkpt>
      <trkpt lat="48.39475" lon="2.45909">
        <ele>74.800003051758</ele>
        <time>2025-06-08T09:24:37.000Z</time>
      </trkpt>
      <trkpt lat="48.39475" lon="2.45916">
        <ele>73.400001525879</ele>
        <time>2025-06-08T09:24:38.000Z</time>
      </trkpt>
      <trkpt lat="48.39476" lon="2.45929">
        <ele>71.800003051758</ele>
        <time>2025-06-08T09:24:40.000Z</time>
      </trkpt>
      <trkpt lat="48.39476" lon="2.45936">
        <ele>71.400001525879</ele>
        <time>2025-06-08T09:24:41.000Z</time>
      </trkpt>
      <trkpt lat="48.39476" lon="2.45942">
        <ele>71.199996948242</ele>
        <time>2025-06-08T09:24:42.000Z</time>
      </trkpt>
      <trkpt lat="48.39472" lon="2.45962">
        <ele>70.800003051758</ele>
        <time>2025-06-08T09:24:46.000Z</time>
      </trkpt>
      <trkpt lat="48.39458" lon="2.45979">
        <ele>70.199996948242</ele>
        <time>2025-06-08T09:24:51.000Z</time>
      </trkpt>
      <trkpt lat="48.39444" lon="2.45997">
        <ele>70.199996948242</ele>
        <time>2025-06-08T09:24:57.000Z</time>
      </trkpt>
      <trkpt lat="48.39433" lon="2.46021">
        <ele>71.199996948242</ele>
        <time>2025-06-08T09:25:03.000Z</time>
      </trkpt>
      <trkpt lat="48.39425" lon="2.46035">
        <ele>71.199996948242</ele>
        <time>2025-06-08T09:25:06.000Z</time>
      </trkpt>
      <trkpt lat="48.39422" lon="2.46035">
        <ele>71.400001525879</ele>
        <time>2025-06-08T09:25:07.000Z</time>
      </trkpt>
      <trkpt lat="48.39413" lon="2.46033">
        <ele>71.800003051758</ele>
        <time>2025-06-08T09:25:10.000Z</time>
      </trkpt>
      <trkpt lat="48.39407" lon="2.46029">
        <ele>72.199996948242</ele>
        <time>2025-06-08T09:25:12.000Z</time>
      </trkpt>
      <trkpt lat="48.39396" lon="2.46023">
        <ele>72.599998474121</ele>
        <time>2025-06-08T09:25:17.000Z</time>
      </trkpt>
      <trkpt lat="48.39391" lon="2.46021">
        <ele>72.800003051758</ele>
        <time>2025-06-08T09:25:19.000Z</time>
      </trkpt>
      <trkpt lat="48.3938" lon="2.46018">
        <ele>74.199996948242</ele>
        <time>2025-06-08T09:25:23.000Z</time>
      </trkpt>
      <trkpt lat="48.39375" lon="2.46017">
        <ele>75.199996948242</ele>
        <time>2025-06-08T09:25:25.000Z</time>
      </trkpt>
      <trkpt lat="48.39371" lon="2.46017">
        <ele>76</ele>
        <time>2025-06-08T09:25:27.000Z</time>
      </trkpt>
      <trkpt lat="48.39369" lon="2.4602">
        <ele>76.199996948242</ele>
        <time>2025-06-08T09:25:28.000Z</time>
      </trkpt>
      <trkpt lat="48.39367" lon="2.46024">
        <ele>76.400001525879</ele>
        <time>2025-06-08T09:25:29.000Z</time>
      </trkpt>
      <trkpt lat="48.39365" lon="2.46034">
        <ele>76.800003051758</ele>
        <time>2025-06-08T09:25:31.000Z</time>
      </trkpt>
      <trkpt lat="48.39364" lon="2.46042">
        <ele>77.199996948242</ele>
        <time>2025-06-08T09:25:33.000Z</time>
      </trkpt>
      <trkpt lat="48.39363" lon="2.46047">
        <ele>77.199996948242</ele>
        <time>2025-06-08T09:25:34.000Z</time>
      </trkpt>
      <trkpt lat="48.39358" lon="2.46065">
        <ele>77.599998474121</ele>
        <time>2025-06-08T09:25:39.000Z</time>
      </trkpt>
      <trkpt lat="48.3935" lon="2.46081">
        <ele>77.599998474121</ele>
        <time>2025-06-08T09:25:43.000Z</time>
      </trkpt>
      <trkpt lat="48.39349" lon="2.46086">
        <ele>77.599998474121</ele>
        <time>2025-06-08T09:25:44.000Z</time>
      </trkpt>
      <trkpt lat="48.39334" lon="2.46108">
        <ele>77.199996948242</ele>
        <time>2025-06-08T09:25:49.000Z</time>
      </trkpt>
      <trkpt lat="48.39322" lon="2.46116">
        <ele>76.199996948242</ele>
        <time>2025-06-08T09:25:52.000Z</time>
      </trkpt>
      <trkpt lat="48.39309" lon="2.46126">
        <ele>75.599998474121</ele>
        <time>2025-06-08T09:25:55.000Z</time>
      </trkpt>
      <trkpt lat="48.39305" lon="2.46131">
        <ele>75.400001525879</ele>
        <time>2025-06-08T09:25:56.000Z</time>
      </trkpt>
      <trkpt lat="48.39292" lon="2.46147">
        <ele>75.199996948242</ele>
        <time>2025-06-08T09:26:00.000Z</time>
      </trkpt>
      <trkpt lat="48.39291" lon="2.46149">
        <ele>75.199996948242</ele>
        <time>2025-06-08T09:26:02.000Z</time>
      </trkpt>
      <trkpt lat="48.3929" lon="2.46148">
        <ele>75</ele>
        <time>2025-06-08T09:26:04.000Z</time>
      </trkpt>
      <trkpt lat="48.39285" lon="2.46147">
        <ele>75.800003051758</ele>
        <time>2025-06-08T09:26:14.000Z</time>
      </trkpt>
      <trkpt lat="48.39284" lon="2.46146">
        <ele>76.199996948242</ele>
        <time>2025-06-08T09:26:17.000Z</time>
      </trkpt>
      <trkpt lat="48.39282" lon="2.46148">
        <ele>76.400001525879</ele>
        <time>2025-06-08T09:26:25.000Z</time>
      </trkpt>
      <trkpt lat="48.39281" lon="2.4615">
        <ele>76.400001525879</ele>
        <time>2025-06-08T09:26:38.000Z</time>
      </trkpt>
      <trkpt lat="48.39279" lon="2.4614">
        <ele>76.400001525879</ele>
        <time>2025-06-08T09:26:45.000Z</time>
      </trkpt>
      <trkpt lat="48.39279" lon="2.46136">
        <ele>76.800003051758</ele>
        <time>2025-06-08T09:26:47.000Z</time>
      </trkpt>
      <trkpt lat="48.39277" lon="2.46132">
        <ele>77.400001525879</ele>
        <time>2025-06-08T09:26:49.000Z</time>
      </trkpt>
      <trkpt lat="48.39275" lon="2.46122">
        <ele>78.400001525879</ele>
        <time>2025-06-08T09:26:53.000Z</time>
      </trkpt>
      <trkpt lat="48.39275" lon="2.4611">
        <ele>79.400001525879</ele>
        <time>2025-06-08T09:26:56.000Z</time>
      </trkpt>
      <trkpt lat="48.39275" lon="2.46107">
        <ele>79.800003051758</ele>
        <time>2025-06-08T09:26:57.000Z</time>
      </trkpt>
      <trkpt lat="48.3927" lon="2.46102">
        <ele>80.199996948242</ele>
        <time>2025-06-08T09:27:00.000Z</time>
      </trkpt>
      <trkpt lat="48.39269" lon="2.461">
        <ele>80.400001525879</ele>
        <time>2025-06-08T09:27:01.000Z</time>
      </trkpt>
      <trkpt lat="48.39262" lon="2.46098">
        <ele>80.400001525879</ele>
        <time>2025-06-08T09:27:04.000Z</time>
      </trkpt>
      <trkpt lat="48.39254" lon="2.4609">
        <ele>80.599998474121</ele>
        <time>2025-06-08T09:27:08.000Z</time>
      </trkpt>
      <trkpt lat="48.39253" lon="2.46087">
        <ele>80.599998474121</ele>
        <time>2025-06-08T09:27:09.000Z</time>
      </trkpt>
      <trkpt lat="48.39254" lon="2.46085">
        <ele>80.800003051758</ele>
        <time>2025-06-08T09:27:10.000Z</time>
      </trkpt>
      <trkpt lat="48.39258" lon="2.46077">
        <ele>81</ele>
        <time>2025-06-08T09:27:13.000Z</time>
      </trkpt>
      <trkpt lat="48.39263" lon="2.46054">
        <ele>81.400001525879</ele>
        <time>2025-06-08T09:27:18.000Z</time>
      </trkpt>
      <trkpt lat="48.39266" lon="2.46049">
        <ele>81.599998474121</ele>
        <time>2025-06-08T09:27:20.000Z</time>
      </trkpt>
      <trkpt lat="48.3927" lon="2.46049">
        <ele>81.800003051758</ele>
        <time>2025-06-08T09:27:22.000Z</time>
      </trkpt>
      <trkpt lat="48.39273" lon="2.46047">
        <ele>82</ele>
        <time>2025-06-08T09:27:24.000Z</time>
      </trkpt>
      <trkpt lat="48.39274" lon="2.46044">
        <ele>82.400001525879</ele>
        <time>2025-06-08T09:27:27.000Z</time>
      </trkpt>
      <trkpt lat="48.39275" lon="2.46043">
        <ele>82.599998474121</ele>
        <time>2025-06-08T09:27:28.000Z</time>
      </trkpt>
      <trkpt lat="48.39276" lon="2.46038">
        <ele>84.199996948242</ele>
        <time>2025-06-08T09:27:31.000Z</time>
      </trkpt>
      <trkpt lat="48.39279" lon="2.46035">
        <ele>85.199996948242</ele>
        <time>2025-06-08T09:27:33.000Z</time>
      </trkpt>
      <trkpt lat="48.3928" lon="2.46032">
        <ele>85.599998474121</ele>
        <time>2025-06-08T09:27:34.000Z</time>
      </trkpt>
      <trkpt lat="48.39284" lon="2.46022">
        <ele>86.599998474121</ele>
        <time>2025-06-08T09:27:38.000Z</time>
      </trkpt>
      <trkpt lat="48.39285" lon="2.46022">
        <ele>86.599998474121</ele>
        <time>2025-06-08T09:27:39.000Z</time>
      </trkpt>
      <trkpt lat="48.39287" lon="2.46027">
        <ele>86.800003051758</ele>
        <time>2025-06-08T09:27:43.000Z</time>
      </trkpt>
      <trkpt lat="48.39287" lon="2.46029">
        <ele>86.800003051758</ele>
        <time>2025-06-08T09:27:44.000Z</time>
      </trkpt>
      <trkpt lat="48.39288" lon="2.46037">
        <ele>86.800003051758</ele>
        <time>2025-06-08T09:27:47.000Z</time>
      </trkpt>
      <trkpt lat="48.3929" lon="2.4604">
        <ele>86.800003051758</ele>
        <time>2025-06-08T09:27:48.000Z</time>
      </trkpt>
      <trkpt lat="48.393" lon="2.46041">
        <ele>86.800003051758</ele>
        <time>2025-06-08T09:27:51.000Z</time>
      </trkpt>
      <trkpt lat="48.39308" lon="2.46039">
        <ele>86.800003051758</ele>
        <time>2025-06-08T09:27:53.000Z</time>
      </trkpt>
      <trkpt lat="48.3932" lon="2.46032">
        <ele>85</ele>
        <time>2025-06-08T09:27:56.000Z</time>
      </trkpt>
      <trkpt lat="48.39325" lon="2.46027">
        <ele>83.599998474121</ele>
        <time>2025-06-08T09:27:58.000Z</time>
      </trkpt>
      <trkpt lat="48.39329" lon="2.46021">
        <ele>82.599998474121</ele>
        <time>2025-06-08T09:28:00.000Z</time>
      </trkpt>
      <trkpt lat="48.3933" lon="2.46017">
        <ele>82.400001525879</ele>
        <time>2025-06-08T09:28:01.000Z</time>
      </trkpt>
      <trkpt lat="48.39332" lon="2.45999">
        <ele>82</ele>
        <time>2025-06-08T09:28:05.000Z</time>
      </trkpt>
      <trkpt lat="48.39331" lon="2.4598">
        <ele>81.199996948242</ele>
        <time>2025-06-08T09:28:09.000Z</time>
      </trkpt>
      <trkpt lat="48.39339" lon="2.45974">
        <ele>80.800003051758</ele>
        <time>2025-06-08T09:28:12.000Z</time>
      </trkpt>
      <trkpt lat="48.39343" lon="2.45973">
        <ele>80.599998474121</ele>
        <time>2025-06-08T09:28:13.000Z</time>
      </trkpt>
      <trkpt lat="48.39349" lon="2.45968">
        <ele>80.199996948242</ele>
        <time>2025-06-08T09:28:16.000Z</time>
      </trkpt>
      <trkpt lat="48.3935" lon="2.45965">
        <ele>80.199996948242</ele>
        <time>2025-06-08T09:28:17.000Z</time>
      </trkpt>
      <trkpt lat="48.39352" lon="2.45943">
        <ele>80.199996948242</ele>
        <time>2025-06-08T09:28:23.000Z</time>
      </trkpt>
      <trkpt lat="48.39356" lon="2.45925">
        <ele>80.800003051758</ele>
        <time>2025-06-08T09:28:29.000Z</time>
      </trkpt>
      <trkpt lat="48.3936" lon="2.45923">
        <ele>81.400001525879</ele>
        <time>2025-06-08T09:28:31.000Z</time>
      </trkpt>
      <trkpt lat="48.39368" lon="2.45921">
        <ele>82.400001525879</ele>
        <time>2025-06-08T09:28:34.000Z</time>
      </trkpt>
      <trkpt lat="48.39378" lon="2.45924">
        <ele>83.199996948242</ele>
        <time>2025-06-08T09:28:38.000Z</time>
      </trkpt>
      <trkpt lat="48.3938" lon="2.45925">
        <ele>83.400001525879</ele>
        <time>2025-06-08T09:28:39.000Z</time>
      </trkpt>
      <trkpt lat="48.39386" lon="2.45933">
        <ele>84</ele>
        <time>2025-06-08T09:28:43.000Z</time>
      </trkpt>
      <trkpt lat="48.39388" lon="2.45933">
        <ele>84</ele>
        <time>2025-06-08T09:28:44.000Z</time>
      </trkpt>
      <trkpt lat="48.39392" lon="2.45929">
        <ele>84.800003051758</ele>
        <time>2025-06-08T09:28:47.000Z</time>
      </trkpt>
      <trkpt lat="48.39395" lon="2.45927">
        <ele>85.400001525879</ele>
        <time>2025-06-08T09:28:49.000Z</time>
      </trkpt>
      <trkpt lat="48.39397" lon="2.45925">
        <ele>86</ele>
        <time>2025-06-08T09:28:50.000Z</time>
      </trkpt>
      <trkpt lat="48.394" lon="2.45922">
        <ele>86.599998474121</ele>
        <time>2025-06-08T09:28:52.000Z</time>
      </trkpt>
      <trkpt lat="48.39402" lon="2.45916">
        <ele>87</ele>
        <time>2025-06-08T09:28:54.000Z</time>
      </trkpt>
      <trkpt lat="48.39408" lon="2.45914">
        <ele>87.400001525879</ele>
        <time>2025-06-08T09:28:57.000Z</time>
      </trkpt>
      <trkpt lat="48.39411" lon="2.45925">
        <ele>88</ele>
        <time>2025-06-08T09:29:01.000Z</time>
      </trkpt>
      <trkpt lat="48.39415" lon="2.45919">
        <ele>88</ele>
        <time>2025-06-08T09:29:04.000Z</time>
      </trkpt>
      <trkpt lat="48.3942" lon="2.45907">
        <ele>87.800003051758</ele>
        <time>2025-06-08T09:29:09.000Z</time>
      </trkpt>
      <trkpt lat="48.39422" lon="2.45897">
        <ele>86.800003051758</ele>
        <time>2025-06-08T09:29:13.000Z</time>
      </trkpt>
      <trkpt lat="48.39421" lon="2.45894">
        <ele>86.800003051758</ele>
        <time>2025-06-08T09:29:15.000Z</time>
      </trkpt>
      <trkpt lat="48.3942" lon="2.45885">
        <ele>86.800003051758</ele>
        <time>2025-06-08T09:29:19.000Z</time>
      </trkpt>
      <trkpt lat="48.39419" lon="2.45885">
        <ele>86.800003051758</ele>
        <time>2025-06-08T09:29:20.000Z</time>
      </trkpt>
      <trkpt lat="48.39412" lon="2.45887">
        <ele>88</ele>
        <time>2025-06-08T09:29:25.000Z</time>
      </trkpt>
      <trkpt lat="48.3941" lon="2.45887">
        <ele>88</ele>
        <time>2025-06-08T09:29:26.000Z</time>
      </trkpt>
      <trkpt lat="48.394" lon="2.45892">
        <ele>88.199996948242</ele>
        <time>2025-06-08T09:29:30.000Z</time>
      </trkpt>
      <trkpt lat="48.39397" lon="2.45894">
        <ele>88.199996948242</ele>
        <time>2025-06-08T09:29:31.000Z</time>
      </trkpt>
      <trkpt lat="48.39395" lon="2.45893">
        <ele>88.199996948242</ele>
        <time>2025-06-08T09:29:32.000Z</time>
      </trkpt>
      <trkpt lat="48.39394" lon="2.45886">
        <ele>88.199996948242</ele>
        <time>2025-06-08T09:29:34.000Z</time>
      </trkpt>
      <trkpt lat="48.39395" lon="2.45868">
        <ele>87</ele>
        <time>2025-06-08T09:29:38.000Z</time>
      </trkpt>
      <trkpt lat="48.39395" lon="2.45861">
        <ele>86.800003051758</ele>
        <time>2025-06-08T09:29:40.000Z</time>
      </trkpt>
      <trkpt lat="48.39395" lon="2.45841">
        <ele>86.800003051758</ele>
        <time>2025-06-08T09:29:45.000Z</time>
      </trkpt>
      <trkpt lat="48.39396" lon="2.45838">
        <ele>87</ele>
        <time>2025-06-08T09:29:46.000Z</time>
      </trkpt>
      <trkpt lat="48.39401" lon="2.45823">
        <ele>87.400001525879</ele>
        <time>2025-06-08T09:29:51.000Z</time>
      </trkpt>
      <trkpt lat="48.39403" lon="2.45809">
        <ele>87.400001525879</ele>
        <time>2025-06-08T09:29:54.000Z</time>
      </trkpt>
      <trkpt lat="48.39403" lon="2.45805">
        <ele>87.400001525879</ele>
        <time>2025-06-08T09:29:55.000Z</time>
      </trkpt>
      <trkpt lat="48.39405" lon="2.45784">
        <ele>87.400001525879</ele>
        <time>2025-06-08T09:30:00.000Z</time>
      </trkpt>
      <trkpt lat="48.39405" lon="2.45781">
        <ele>87.400001525879</ele>
        <time>2025-06-08T09:30:01.000Z</time>
      </trkpt>
      <trkpt lat="48.39405" lon="2.45773">
        <ele>86.400001525879</ele>
        <time>2025-06-08T09:30:04.000Z</time>
      </trkpt>
      <trkpt lat="48.394" lon="2.45775">
        <ele>85.800003051758</ele>
        <time>2025-06-08T09:30:07.000Z</time>
      </trkpt>
      <trkpt lat="48.3939" lon="2.45764">
        <ele>85.199996948242</ele>
        <time>2025-06-08T09:30:11.000Z</time>
      </trkpt>
      <trkpt lat="48.39383" lon="2.45759">
        <ele>85</ele>
        <time>2025-06-08T09:30:13.000Z</time>
      </trkpt>
      <trkpt lat="48.39374" lon="2.45758">
        <ele>84.400001525879</ele>
        <time>2025-06-08T09:30:15.000Z</time>
      </trkpt>
      <trkpt lat="48.39363" lon="2.45755">
        <ele>83</ele>
        <time>2025-06-08T09:30:18.000Z</time>
      </trkpt>
      <trkpt lat="48.39362" lon="2.45752">
        <ele>82.199996948242</ele>
        <time>2025-06-08T09:30:19.000Z</time>
      </trkpt>
      <trkpt lat="48.39363" lon="2.45749">
        <ele>81.599998474121</ele>
        <time>2025-06-08T09:30:20.000Z</time>
      </trkpt>
      <trkpt lat="48.39366" lon="2.45742">
        <ele>80.199996948242</ele>
        <time>2025-06-08T09:30:22.000Z</time>
      </trkpt>
      <trkpt lat="48.39376" lon="2.45726">
        <ele>79.199996948242</ele>
        <time>2025-06-08T09:30:26.000Z</time>
      </trkpt>
      <trkpt lat="48.3938" lon="2.45722">
        <ele>78.599998474121</ele>
        <time>2025-06-08T09:30:27.000Z</time>
      </trkpt>
      <trkpt lat="48.39384" lon="2.45718">
        <ele>78</ele>
        <time>2025-06-08T09:30:28.000Z</time>
      </trkpt>
      <trkpt lat="48.39395" lon="2.45704">
        <ele>77.199996948242</ele>
        <time>2025-06-08T09:30:31.000Z</time>
      </trkpt>
      <trkpt lat="48.39399" lon="2.45701">
        <ele>77</ele>
        <time>2025-06-08T09:30:32.000Z</time>
      </trkpt>
      <trkpt lat="48.39416" lon="2.45692">
        <ele>76.199996948242</ele>
        <time>2025-06-08T09:30:36.000Z</time>
      </trkpt>
      <trkpt lat="48.39419" lon="2.4569">
        <ele>75.599998474121</ele>
        <time>2025-06-08T09:30:37.000Z</time>
      </trkpt>
      <trkpt lat="48.39425" lon="2.45683">
        <ele>75.199996948242</ele>
        <time>2025-06-08T09:30:40.000Z</time>
      </trkpt>
      <trkpt lat="48.39432" lon="2.45656">
        <ele>74.599998474121</ele>
        <time>2025-06-08T09:30:45.000Z</time>
      </trkpt>
      <trkpt lat="48.39434" lon="2.45649">
        <ele>74.400001525879</ele>
        <time>2025-06-08T09:30:46.000Z</time>
      </trkpt>
      <trkpt lat="48.39445" lon="2.45632">
        <ele>74.199996948242</ele>
        <time>2025-06-08T09:30:49.000Z</time>
      </trkpt>
      <trkpt lat="48.39454" lon="2.45603">
        <ele>74</ele>
        <time>2025-06-08T09:30:53.000Z</time>
      </trkpt>
      <trkpt lat="48.39456" lon="2.45592">
        <ele>73.400001525879</ele>
        <time>2025-06-08T09:30:55.000Z</time>
      </trkpt>
      <trkpt lat="48.39458" lon="2.45585">
        <ele>72.400001525879</ele>
        <time>2025-06-08T09:30:57.000Z</time>
      </trkpt>
      <trkpt lat="48.39459" lon="2.45582">
        <ele>72</ele>
        <time>2025-06-08T09:30:58.000Z</time>
      </trkpt>
      <trkpt lat="48.39462" lon="2.45563">
        <ele>71.400001525879</ele>
        <time>2025-06-08T09:31:02.000Z</time>
      </trkpt>
      <trkpt lat="48.39461" lon="2.45558">
        <ele>71.400001525879</ele>
        <time>2025-06-08T09:31:03.000Z</time>
      </trkpt>
      <trkpt lat="48.39457" lon="2.45547">
        <ele>71.199996948242</ele>
        <time>2025-06-08T09:31:06.000Z</time>
      </trkpt>
      <trkpt lat="48.39447" lon="2.45545">
        <ele>71.199996948242</ele>
        <time>2025-06-08T09:31:10.000Z</time>
      </trkpt>
      <trkpt lat="48.39435" lon="2.45549">
        <ele>71.599998474121</ele>
        <time>2025-06-08T09:31:16.000Z</time>
      </trkpt>
      <trkpt lat="48.39424" lon="2.45547">
        <ele>73.400001525879</ele>
        <time>2025-06-08T09:31:21.000Z</time>
      </trkpt>
      <trkpt lat="48.39418" lon="2.45553">
        <ele>74.199996948242</ele>
        <time>2025-06-08T09:31:25.000Z</time>
      </trkpt>
      <trkpt lat="48.39415" lon="2.45558">
        <ele>74.400001525879</ele>
        <time>2025-06-08T09:31:27.000Z</time>
      </trkpt>
      <trkpt lat="48.3941" lon="2.4557">
        <ele>75.199996948242</ele>
        <time>2025-06-08T09:31:32.000Z</time>
      </trkpt>
      <trkpt lat="48.3941" lon="2.45572">
        <ele>75.599998474121</ele>
        <time>2025-06-08T09:31:33.000Z</time>
      </trkpt>
      <trkpt lat="48.39406" lon="2.45584">
        <ele>76.800003051758</ele>
        <time>2025-06-08T09:31:38.000Z</time>
      </trkpt>
      <trkpt lat="48.39404" lon="2.45587">
        <ele>77.400001525879</ele>
        <time>2025-06-08T09:31:39.000Z</time>
      </trkpt>
      <trkpt lat="48.39402" lon="2.45588">
        <ele>77.599998474121</ele>
        <time>2025-06-08T09:31:40.000Z</time>
      </trkpt>
      <trkpt lat="48.39394" lon="2.45589">
        <ele>77.800003051758</ele>
        <time>2025-06-08T09:31:42.000Z</time>
      </trkpt>
      <trkpt lat="48.39381" lon="2.45592">
        <ele>77.800003051758</ele>
        <time>2025-06-08T09:31:45.000Z</time>
      </trkpt>
      <trkpt lat="48.39377" lon="2.45595">
        <ele>77.800003051758</ele>
        <time>2025-06-08T09:31:46.000Z</time>
      </trkpt>
      <trkpt lat="48.39374" lon="2.456">
        <ele>77.800003051758</ele>
        <time>2025-06-08T09:31:47.000Z</time>
      </trkpt>
      <trkpt lat="48.39363" lon="2.45615">
        <ele>76.599998474121</ele>
        <time>2025-06-08T09:31:50.000Z</time>
      </trkpt>
      <trkpt lat="48.39359" lon="2.45619">
        <ele>75.800003051758</ele>
        <time>2025-06-08T09:31:51.000Z</time>
      </trkpt>
      <trkpt lat="48.39352" lon="2.45621">
        <ele>74.599998474121</ele>
        <time>2025-06-08T09:31:53.000Z</time>
      </trkpt>
      <trkpt lat="48.39343" lon="2.45623">
        <ele>74.199996948242</ele>
        <time>2025-06-08T09:31:57.000Z</time>
      </trkpt>
      <trkpt lat="48.39342" lon="2.45624">
        <ele>74.199996948242</ele>
        <time>2025-06-08T09:31:58.000Z</time>
      </trkpt>
      <trkpt lat="48.39336" lon="2.45627">
        <ele>74.199996948242</ele>
        <time>2025-06-08T09:32:01.000Z</time>
      </trkpt>
      <trkpt lat="48.39332" lon="2.45634">
        <ele>74.800003051758</ele>
        <time>2025-06-08T09:32:04.000Z</time>
      </trkpt>
      <trkpt lat="48.39331" lon="2.45639">
        <ele>75.800003051758</ele>
        <time>2025-06-08T09:32:06.000Z</time>
      </trkpt>
      <trkpt lat="48.3933" lon="2.45641">
        <ele>76.199996948242</ele>
        <time>2025-06-08T09:32:07.000Z</time>
      </trkpt>
      <trkpt lat="48.39329" lon="2.45646">
        <ele>77</ele>
        <time>2025-06-08T09:32:10.000Z</time>
      </trkpt>
      <trkpt lat="48.39329" lon="2.45652">
        <ele>78</ele>
        <time>2025-06-08T09:32:14.000Z</time>
      </trkpt>
      <trkpt lat="48.39328" lon="2.45654">
        <ele>78.400001525879</ele>
        <time>2025-06-08T09:32:15.000Z</time>
      </trkpt>
      <trkpt lat="48.39326" lon="2.45656">
        <ele>78.599998474121</ele>
        <time>2025-06-08T09:32:16.000Z</time>
      </trkpt>
      <trkpt lat="48.39324" lon="2.45655">
        <ele>79.199996948242</ele>
        <time>2025-06-08T09:32:18.000Z</time>
      </trkpt>
      <trkpt lat="48.39322" lon="2.45655">
        <ele>79.599998474121</ele>
        <time>2025-06-08T09:32:19.000Z</time>
      </trkpt>
      <trkpt lat="48.39318" lon="2.45655">
        <ele>80</ele>
        <time>2025-06-08T09:32:21.000Z</time>
      </trkpt>
      <trkpt lat="48.39315" lon="2.45658">
        <ele>80.400001525879</ele>
        <time>2025-06-08T09:32:23.000Z</time>
      </trkpt>
      <trkpt lat="48.3931" lon="2.45663">
        <ele>81</ele>
        <time>2025-06-08T09:32:26.000Z</time>
      </trkpt>
      <trkpt lat="48.39306" lon="2.45666">
        <ele>81.599998474121</ele>
        <time>2025-06-08T09:32:29.000Z</time>
      </trkpt>
      <trkpt lat="48.393" lon="2.45667">
        <ele>82.599998474121</ele>
        <time>2025-06-08T09:32:33.000Z</time>
      </trkpt>
      <trkpt lat="48.39295" lon="2.45666">
        <ele>83.800003051758</ele>
        <time>2025-06-08T09:32:37.000Z</time>
      </trkpt>
      <trkpt lat="48.39294" lon="2.45664">
        <ele>84</ele>
        <time>2025-06-08T09:32:38.000Z</time>
      </trkpt>
      <trkpt lat="48.39291" lon="2.45661">
        <ele>84.599998474121</ele>
        <time>2025-06-08T09:32:40.000Z</time>
      </trkpt>
      <trkpt lat="48.3929" lon="2.4566">
        <ele>85</ele>
        <time>2025-06-08T09:32:41.000Z</time>
      </trkpt>
      <trkpt lat="48.39285" lon="2.45653">
        <ele>85.599998474121</ele>
        <time>2025-06-08T09:32:45.000Z</time>
      </trkpt>
      <trkpt lat="48.3928" lon="2.45649">
        <ele>85.800003051758</ele>
        <time>2025-06-08T09:32:48.000Z</time>
      </trkpt>
      <trkpt lat="48.39277" lon="2.45647">
        <ele>85.800003051758</ele>
        <time>2025-06-08T09:32:50.000Z</time>
      </trkpt>
      <trkpt lat="48.39274" lon="2.45647">
        <ele>85.800003051758</ele>
        <time>2025-06-08T09:32:51.000Z</time>
      </trkpt>
      <trkpt lat="48.39265" lon="2.45642">
        <ele>85.599998474121</ele>
        <time>2025-06-08T09:32:54.000Z</time>
      </trkpt>
      <trkpt lat="48.39259" lon="2.45628">
        <ele>85.599998474121</ele>
        <time>2025-06-08T09:32:57.000Z</time>
      </trkpt>
      <trkpt lat="48.39257" lon="2.45623">
        <ele>85.400001525879</ele>
        <time>2025-06-08T09:32:58.000Z</time>
      </trkpt>
      <trkpt lat="48.39254" lon="2.45605">
        <ele>84.599998474121</ele>
        <time>2025-06-08T09:33:02.000Z</time>
      </trkpt>
      <trkpt lat="48.39252" lon="2.45595">
        <ele>83.800003051758</ele>
        <time>2025-06-08T09:33:04.000Z</time>
      </trkpt>
      <trkpt lat="48.39249" lon="2.45592">
        <ele>83.599998474121</ele>
        <time>2025-06-08T09:33:05.000Z</time>
      </trkpt>
      <trkpt lat="48.39246" lon="2.4559">
        <ele>83.400001525879</ele>
        <time>2025-06-08T09:33:06.000Z</time>
      </trkpt>
      <trkpt lat="48.39239" lon="2.45585">
        <ele>82.599998474121</ele>
        <time>2025-06-08T09:33:09.000Z</time>
      </trkpt>
      <trkpt lat="48.39234" lon="2.45583">
        <ele>81.199996948242</ele>
        <time>2025-06-08T09:33:11.000Z</time>
      </trkpt>
      <trkpt lat="48.39226" lon="2.45578">
        <ele>80</ele>
        <time>2025-06-08T09:33:14.000Z</time>
      </trkpt>
      <trkpt lat="48.39224" lon="2.45573">
        <ele>79.400001525879</ele>
        <time>2025-06-08T09:33:15.000Z</time>
      </trkpt>
      <trkpt lat="48.39219" lon="2.45564">
        <ele>79</ele>
        <time>2025-06-08T09:33:17.000Z</time>
      </trkpt>
      <trkpt lat="48.39217" lon="2.45559">
        <ele>78.800003051758</ele>
        <time>2025-06-08T09:33:18.000Z</time>
      </trkpt>
      <trkpt lat="48.39213" lon="2.45554">
        <ele>78.599998474121</ele>
        <time>2025-06-08T09:33:20.000Z</time>
      </trkpt>
      <trkpt lat="48.39212" lon="2.45554">
        <ele>78.400001525879</ele>
        <time>2025-06-08T09:33:21.000Z</time>
      </trkpt>
      <trkpt lat="48.3921" lon="2.45555">
        <ele>77.400001525879</ele>
        <time>2025-06-08T09:33:22.000Z</time>
      </trkpt>
      <trkpt lat="48.39204" lon="2.45563">
        <ele>76.400001525879</ele>
        <time>2025-06-08T09:33:26.000Z</time>
      </trkpt>
      <trkpt lat="48.39197" lon="2.45562">
        <ele>76.400001525879</ele>
        <time>2025-06-08T09:33:29.000Z</time>
      </trkpt>
      <trkpt lat="48.3919" lon="2.4554">
        <ele>76.800003051758</ele>
        <time>2025-06-08T09:33:34.000Z</time>
      </trkpt>
      <trkpt lat="48.39181" lon="2.45521">
        <ele>76.800003051758</ele>
        <time>2025-06-08T09:33:38.000Z</time>
      </trkpt>
      <trkpt lat="48.39168" lon="2.45503">
        <ele>76.400001525879</ele>
        <time>2025-06-08T09:33:42.000Z</time>
      </trkpt>
      <trkpt lat="48.39163" lon="2.45499">
        <ele>75.800003051758</ele>
        <time>2025-06-08T09:33:43.000Z</time>
      </trkpt>
      <trkpt lat="48.39146" lon="2.45489">
        <ele>75.400001525879</ele>
        <time>2025-06-08T09:33:48.000Z</time>
      </trkpt>
      <trkpt lat="48.39136" lon="2.45483">
        <ele>75.599998474121</ele>
        <time>2025-06-08T09:33:53.000Z</time>
      </trkpt>
      <trkpt lat="48.3913" lon="2.45478">
        <ele>77.599998474121</ele>
        <time>2025-06-08T09:33:56.000Z</time>
      </trkpt>
      <trkpt lat="48.39124" lon="2.45472">
        <ele>79.199996948242</ele>
        <time>2025-06-08T09:33:59.000Z</time>
      </trkpt>
      <trkpt lat="48.39112" lon="2.4546">
        <ele>79.400001525879</ele>
        <time>2025-06-08T09:34:03.000Z</time>
      </trkpt>
      <trkpt lat="48.39097" lon="2.45446">
        <ele>79.400001525879</ele>
        <time>2025-06-08T09:34:07.000Z</time>
      </trkpt>
      <trkpt lat="48.39073" lon="2.45426">
        <ele>79.599998474121</ele>
        <time>2025-06-08T09:34:14.000Z</time>
      </trkpt>
      <trkpt lat="48.39053" lon="2.45416">
        <ele>79.599998474121</ele>
        <time>2025-06-08T09:34:20.000Z</time>
      </trkpt>
      <trkpt lat="48.39035" lon="2.45404">
        <ele>79.800003051758</ele>
        <time>2025-06-08T09:34:26.000Z</time>
      </trkpt>
      <trkpt lat="48.39025" lon="2.45398">
        <ele>80</ele>
        <time>2025-06-08T09:34:29.000Z</time>
      </trkpt>
      <trkpt lat="48.39018" lon="2.45396">
        <ele>80</ele>
        <time>2025-06-08T09:34:31.000Z</time>
      </trkpt>
      <trkpt lat="48.39008" lon="2.45402">
        <ele>80.199996948242</ele>
        <time>2025-06-08T09:34:35.000Z</time>
      </trkpt>
      <trkpt lat="48.38999" lon="2.45408">
        <ele>81.199996948242</ele>
        <time>2025-06-08T09:34:40.000Z</time>
      </trkpt>
      <trkpt lat="48.38994" lon="2.45411">
        <ele>82</ele>
        <time>2025-06-08T09:34:42.000Z</time>
      </trkpt>
      <trkpt lat="48.38991" lon="2.45412">
        <ele>82.400001525879</ele>
        <time>2025-06-08T09:34:43.000Z</time>
      </trkpt>
      <trkpt lat="48.3898" lon="2.45418">
        <ele>83.400001525879</ele>
        <time>2025-06-08T09:34:47.000Z</time>
      </trkpt>
      <trkpt lat="48.38978" lon="2.45421">
        <ele>83.400001525879</ele>
        <time>2025-06-08T09:34:48.000Z</time>
      </trkpt>
      <trkpt lat="48.38965" lon="2.45449">
        <ele>84</ele>
        <time>2025-06-08T09:34:55.000Z</time>
      </trkpt>
      <trkpt lat="48.38958" lon="2.45461">
        <ele>84.400001525879</ele>
        <time>2025-06-08T09:34:59.000Z</time>
      </trkpt>
      <trkpt lat="48.38954" lon="2.45472">
        <ele>85.199996948242</ele>
        <time>2025-06-08T09:35:02.000Z</time>
      </trkpt>
      <trkpt lat="48.38951" lon="2.45477">
        <ele>85.599998474121</ele>
        <time>2025-06-08T09:35:04.000Z</time>
      </trkpt>
      <trkpt lat="48.38946" lon="2.45486">
        <ele>86.400001525879</ele>
        <time>2025-06-08T09:35:08.000Z</time>
      </trkpt>
      <trkpt lat="48.38944" lon="2.45488">
        <ele>86.800003051758</ele>
        <time>2025-06-08T09:35:09.000Z</time>
      </trkpt>
      <trkpt lat="48.38937" lon="2.45499">
        <ele>87.800003051758</ele>
        <time>2025-06-08T09:35:14.000Z</time>
      </trkpt>
      <trkpt lat="48.38927" lon="2.45517">
        <ele>89</ele>
        <time>2025-06-08T09:35:20.000Z</time>
      </trkpt>
      <trkpt lat="48.38922" lon="2.45531">
        <ele>89.400001525879</ele>
        <time>2025-06-08T09:35:25.000Z</time>
      </trkpt>
      <trkpt lat="48.38918" lon="2.45539">
        <ele>90</ele>
        <time>2025-06-08T09:35:28.000Z</time>
      </trkpt>
      <trkpt lat="48.38913" lon="2.45548">
        <ele>90.599998474121</ele>
        <time>2025-06-08T09:35:31.000Z</time>
      </trkpt>
      <trkpt lat="48.38911" lon="2.45552">
        <ele>90.800003051758</ele>
        <time>2025-06-08T09:35:32.000Z</time>
      </trkpt>
      <trkpt lat="48.38908" lon="2.45558">
        <ele>91.199996948242</ele>
        <time>2025-06-08T09:35:34.000Z</time>
      </trkpt>
      <trkpt lat="48.38901" lon="2.45571">
        <ele>91.800003051758</ele>
        <time>2025-06-08T09:35:38.000Z</time>
      </trkpt>
      <trkpt lat="48.38895" lon="2.45576">
        <ele>92.400001525879</ele>
        <time>2025-06-08T09:35:41.000Z</time>
      </trkpt>
      <trkpt lat="48.38889" lon="2.4558">
        <ele>92.800003051758</ele>
        <time>2025-06-08T09:35:44.000Z</time>
      </trkpt>
      <trkpt lat="48.38883" lon="2.45584">
        <ele>93.599998474121</ele>
        <time>2025-06-08T09:35:47.000Z</time>
      </trkpt>
      <trkpt lat="48.38875" lon="2.45589">
        <ele>94.599998474121</ele>
        <time>2025-06-08T09:35:51.000Z</time>
      </trkpt>
      <trkpt lat="48.38873" lon="2.4559">
        <ele>94.800003051758</ele>
        <time>2025-06-08T09:35:52.000Z</time>
      </trkpt>
      <trkpt lat="48.38868" lon="2.45595">
        <ele>95.599998474121</ele>
        <time>2025-06-08T09:35:55.000Z</time>
      </trkpt>
      <trkpt lat="48.38863" lon="2.45599">
        <ele>96.400001525879</ele>
        <time>2025-06-08T09:35:59.000Z</time>
      </trkpt>
      <trkpt lat="48.38861" lon="2.45599">
        <ele>96.800003051758</ele>
        <time>2025-06-08T09:36:00.000Z</time>
      </trkpt>
      <trkpt lat="48.3885" lon="2.45604">
        <ele>97.599998474121</ele>
        <time>2025-06-08T09:36:07.000Z</time>
      </trkpt>
      <trkpt lat="48.38844" lon="2.45607">
        <ele>98.800003051758</ele>
        <time>2025-06-08T09:36:11.000Z</time>
      </trkpt>
      <trkpt lat="48.3884" lon="2.45609">
        <ele>100</ele>
        <time>2025-06-08T09:36:14.000Z</time>
      </trkpt>
      <trkpt lat="48.38836" lon="2.45612">
        <ele>101</ele>
        <time>2025-06-08T09:36:17.000Z</time>
      </trkpt>
      <trkpt lat="48.38832" lon="2.45617">
        <ele>102.19999694824</ele>
        <time>2025-06-08T09:36:21.000Z</time>
      </trkpt>
      <trkpt lat="48.3883" lon="2.45618">
        <ele>102.59999847412</ele>
        <time>2025-06-08T09:36:23.000Z</time>
      </trkpt>
      <trkpt lat="48.38827" lon="2.45618">
        <ele>103.19999694824</ele>
        <time>2025-06-08T09:36:25.000Z</time>
      </trkpt>
      <trkpt lat="48.38822" lon="2.4562">
        <ele>104.19999694824</ele>
        <time>2025-06-08T09:36:28.000Z</time>
      </trkpt>
      <trkpt lat="48.38817" lon="2.45621">
        <ele>105.40000152588</ele>
        <time>2025-06-08T09:36:31.000Z</time>
      </trkpt>
      <trkpt lat="48.38812" lon="2.4562">
        <ele>106.40000152588</ele>
        <time>2025-06-08T09:36:35.000Z</time>
      </trkpt>
      <trkpt lat="48.38804" lon="2.45618">
        <ele>107.40000152588</ele>
        <time>2025-06-08T09:36:39.000Z</time>
      </trkpt>
      <trkpt lat="48.38803" lon="2.45617">
        <ele>107.59999847412</ele>
        <time>2025-06-08T09:36:40.000Z</time>
      </trkpt>
      <trkpt lat="48.38802" lon="2.45611">
        <ele>108.19999694824</ele>
        <time>2025-06-08T09:36:44.000Z</time>
      </trkpt>
      <trkpt lat="48.38802" lon="2.45608">
        <ele>108.19999694824</ele>
        <time>2025-06-08T09:36:45.000Z</time>
      </trkpt>
      <trkpt lat="48.38803" lon="2.45589">
        <ele>108.19999694824</ele>
        <time>2025-06-08T09:36:48.000Z</time>
      </trkpt>
      <trkpt lat="48.38802" lon="2.45581">
        <ele>108.19999694824</ele>
        <time>2025-06-08T09:36:49.000Z</time>
      </trkpt>
      <trkpt lat="48.38801" lon="2.45566">
        <ele>108.19999694824</ele>
        <time>2025-06-08T09:36:51.000Z</time>
      </trkpt>
      <trkpt lat="48.388" lon="2.45543">
        <ele>106.59999847412</ele>
        <time>2025-06-08T09:36:54.000Z</time>
      </trkpt>
      <trkpt lat="48.38799" lon="2.45536">
        <ele>104.80000305176</ele>
        <time>2025-06-08T09:36:55.000Z</time>
      </trkpt>
      <trkpt lat="48.38796" lon="2.45524">
        <ele>102.59999847412</ele>
        <time>2025-06-08T09:36:57.000Z</time>
      </trkpt>
      <trkpt lat="48.38792" lon="2.45516">
        <ele>101.40000152588</ele>
        <time>2025-06-08T09:36:59.000Z</time>
      </trkpt>
      <trkpt lat="48.38787" lon="2.45508">
        <ele>99.599998474121</ele>
        <time>2025-06-08T09:37:01.000Z</time>
      </trkpt>
      <trkpt lat="48.38784" lon="2.45505">
        <ele>98.800003051758</ele>
        <time>2025-06-08T09:37:02.000Z</time>
      </trkpt>
      <trkpt lat="48.3878" lon="2.45503">
        <ele>98.400001525879</ele>
        <time>2025-06-08T09:37:03.000Z</time>
      </trkpt>
      <trkpt lat="48.38767" lon="2.45493">
        <ele>97.800003051758</ele>
        <time>2025-06-08T09:37:08.000Z</time>
      </trkpt>
      <trkpt lat="48.38755" lon="2.45483">
        <ele>99.199996948242</ele>
        <time>2025-06-08T09:37:14.000Z</time>
      </trkpt>
      <trkpt lat="48.38754" lon="2.4548">
        <ele>99.599998474121</ele>
        <time>2025-06-08T09:37:15.000Z</time>
      </trkpt>
      <trkpt lat="48.38746" lon="2.45469">
        <ele>100</ele>
        <time>2025-06-08T09:37:18.000Z</time>
      </trkpt>
      <trkpt lat="48.38743" lon="2.45465">
        <ele>100</ele>
        <time>2025-06-08T09:37:19.000Z</time>
      </trkpt>
      <trkpt lat="48.38732" lon="2.45457">
        <ele>100</ele>
        <time>2025-06-08T09:37:22.000Z</time>
      </trkpt>
      <trkpt lat="48.38728" lon="2.45454">
        <ele>100</ele>
        <time>2025-06-08T09:37:23.000Z</time>
      </trkpt>
      <trkpt lat="48.38712" lon="2.45453">
        <ele>98</ele>
        <time>2025-06-08T09:37:27.000Z</time>
      </trkpt>
      <trkpt lat="48.38703" lon="2.45453">
        <ele>97</ele>
        <time>2025-06-08T09:37:30.000Z</time>
      </trkpt>
      <trkpt lat="48.38699" lon="2.45451">
        <ele>97</ele>
        <time>2025-06-08T09:37:31.000Z</time>
      </trkpt>
      <trkpt lat="48.38696" lon="2.45448">
        <ele>96.800003051758</ele>
        <time>2025-06-08T09:37:32.000Z</time>
      </trkpt>
      <trkpt lat="48.38686" lon="2.45437">
        <ele>96.599998474121</ele>
        <time>2025-06-08T09:37:35.000Z</time>
      </trkpt>
      <trkpt lat="48.38684" lon="2.45433">
        <ele>96.400001525879</ele>
        <time>2025-06-08T09:37:36.000Z</time>
      </trkpt>
      <trkpt lat="48.38669" lon="2.45421">
        <ele>95.800003051758</ele>
        <time>2025-06-08T09:37:40.000Z</time>
      </trkpt>
      <trkpt lat="48.38654" lon="2.45416">
        <ele>95.400001525879</ele>
        <time>2025-06-08T09:37:43.000Z</time>
      </trkpt>
      <trkpt lat="48.38647" lon="2.45412">
        <ele>94</ele>
        <time>2025-06-08T09:37:45.000Z</time>
      </trkpt>
      <trkpt lat="48.38641" lon="2.45404">
        <ele>92.599998474121</ele>
        <time>2025-06-08T09:37:47.000Z</time>
      </trkpt>
      <trkpt lat="48.38639" lon="2.45398">
        <ele>92.199996948242</ele>
        <time>2025-06-08T09:37:48.000Z</time>
      </trkpt>
      <trkpt lat="48.38639" lon="2.45392">
        <ele>91.800003051758</ele>
        <time>2025-06-08T09:37:49.000Z</time>
      </trkpt>
      <trkpt lat="48.38638" lon="2.45385">
        <ele>91.599998474121</ele>
        <time>2025-06-08T09:37:50.000Z</time>
      </trkpt>
      <trkpt lat="48.38638" lon="2.45369">
        <ele>91.400001525879</ele>
        <time>2025-06-08T09:37:52.000Z</time>
      </trkpt>
      <trkpt lat="48.38638" lon="2.45363">
        <ele>91.199996948242</ele>
        <time>2025-06-08T09:37:53.000Z</time>
      </trkpt>
      <trkpt lat="48.38638" lon="2.4535">
        <ele>91</ele>
        <time>2025-06-08T09:37:55.000Z</time>
      </trkpt>
      <trkpt lat="48.38638" lon="2.45343">
        <ele>90.599998474121</ele>
        <time>2025-06-08T09:37:56.000Z</time>
      </trkpt>
      <trkpt lat="48.38638" lon="2.45337">
        <ele>90</ele>
        <time>2025-06-08T09:37:57.000Z</time>
      </trkpt>
      <trkpt lat="48.38636" lon="2.45331">
        <ele>89.199996948242</ele>
        <time>2025-06-08T09:37:58.000Z</time>
      </trkpt>
      <trkpt lat="48.3863" lon="2.4532">
        <ele>88</ele>
        <time>2025-06-08T09:38:00.000Z</time>
      </trkpt>
      <trkpt lat="48.38626" lon="2.45313">
        <ele>87.599998474121</ele>
        <time>2025-06-08T09:38:01.000Z</time>
      </trkpt>
      <trkpt lat="48.38623" lon="2.45306">
        <ele>87.400001525879</ele>
        <time>2025-06-08T09:38:02.000Z</time>
      </trkpt>
      <trkpt lat="48.38619" lon="2.45301">
        <ele>87</ele>
        <time>2025-06-08T09:38:03.000Z</time>
      </trkpt>
      <trkpt lat="48.38615" lon="2.45296">
        <ele>86.400001525879</ele>
        <time>2025-06-08T09:38:04.000Z</time>
      </trkpt>
      <trkpt lat="48.38611" lon="2.45292">
        <ele>86</ele>
        <time>2025-06-08T09:38:05.000Z</time>
      </trkpt>
      <trkpt lat="48.38603" lon="2.45285">
        <ele>85</ele>
        <time>2025-06-08T09:38:07.000Z</time>
      </trkpt>
      <trkpt lat="48.38603" lon="2.45281">
        <ele>84.199996948242</ele>
        <time>2025-06-08T09:38:08.000Z</time>
      </trkpt>
      <trkpt lat="48.38604" lon="2.45277">
        <ele>83</ele>
        <time>2025-06-08T09:38:09.000Z</time>
      </trkpt>
      <trkpt lat="48.38605" lon="2.45271">
        <ele>81.800003051758</ele>
        <time>2025-06-08T09:38:10.000Z</time>
      </trkpt>
      <trkpt lat="48.38606" lon="2.45258">
        <ele>80.199996948242</ele>
        <time>2025-06-08T09:38:12.000Z</time>
      </trkpt>
      <trkpt lat="48.38611" lon="2.45249">
        <ele>79</ele>
        <time>2025-06-08T09:38:14.000Z</time>
      </trkpt>
      <trkpt lat="48.38613" lon="2.45243">
        <ele>78.800003051758</ele>
        <time>2025-06-08T09:38:15.000Z</time>
      </trkpt>
      <trkpt lat="48.38615" lon="2.45224">
        <ele>77.599998474121</ele>
        <time>2025-06-08T09:38:18.000Z</time>
      </trkpt>
      <trkpt lat="48.38616" lon="2.45217">
        <ele>77.199996948242</ele>
        <time>2025-06-08T09:38:19.000Z</time>
      </trkpt>
      <trkpt lat="48.38618" lon="2.45202">
        <ele>76.400001525879</ele>
        <time>2025-06-08T09:38:21.000Z</time>
      </trkpt>
      <trkpt lat="48.38625" lon="2.45168">
        <ele>75.599998474121</ele>
        <time>2025-06-08T09:38:25.000Z</time>
      </trkpt>
      <trkpt lat="48.38627" lon="2.4516">
        <ele>74.800003051758</ele>
        <time>2025-06-08T09:38:26.000Z</time>
      </trkpt>
      <trkpt lat="48.3863" lon="2.45145">
        <ele>74</ele>
        <time>2025-06-08T09:38:28.000Z</time>
      </trkpt>
      <trkpt lat="48.38631" lon="2.45137">
        <ele>73.800003051758</ele>
        <time>2025-06-08T09:38:29.000Z</time>
      </trkpt>
      <trkpt lat="48.38632" lon="2.45122">
        <ele>73.599998474121</ele>
        <time>2025-06-08T09:38:31.000Z</time>
      </trkpt>
      <trkpt lat="48.38625" lon="2.45095">
        <ele>73.599998474121</ele>
        <time>2025-06-08T09:38:35.000Z</time>
      </trkpt>
      <trkpt lat="48.38619" lon="2.45085">
        <ele>73.599998474121</ele>
        <time>2025-06-08T09:38:37.000Z</time>
      </trkpt>
      <trkpt lat="48.38611" lon="2.45071">
        <ele>74.199996948242</ele>
        <time>2025-06-08T09:38:40.000Z</time>
      </trkpt>
      <trkpt lat="48.38605" lon="2.45061">
        <ele>75</ele>
        <time>2025-06-08T09:38:42.000Z</time>
      </trkpt>
      <trkpt lat="48.38595" lon="2.45042">
        <ele>75.599998474121</ele>
        <time>2025-06-08T09:38:46.000Z</time>
      </trkpt>
      <trkpt lat="48.38583" lon="2.45022">
        <ele>75.599998474121</ele>
        <time>2025-06-08T09:38:50.000Z</time>
      </trkpt>
      <trkpt lat="48.38578" lon="2.45011">
        <ele>75.599998474121</ele>
        <time>2025-06-08T09:38:52.000Z</time>
      </trkpt>
      <trkpt lat="48.38555" lon="2.44969">
        <ele>75.599998474121</ele>
        <time>2025-06-08T09:39:00.000Z</time>
      </trkpt>
      <trkpt lat="48.38548" lon="2.44961">
        <ele>75.599998474121</ele>
        <time>2025-06-08T09:39:02.000Z</time>
      </trkpt>
      <trkpt lat="48.38538" lon="2.44948">
        <ele>75.800003051758</ele>
        <time>2025-06-08T09:39:05.000Z</time>
      </trkpt>
      <trkpt lat="48.38532" lon="2.44939">
        <ele>76</ele>
        <time>2025-06-08T09:39:07.000Z</time>
      </trkpt>
      <trkpt lat="48.38497" lon="2.44899">
        <ele>76.400001525879</ele>
        <time>2025-06-08T09:39:16.000Z</time>
      </trkpt>
      <trkpt lat="48.38481" lon="2.44881">
        <ele>76.800003051758</ele>
        <time>2025-06-08T09:39:20.000Z</time>
      </trkpt>
      <trkpt lat="48.38461" lon="2.44858">
        <ele>77.800003051758</ele>
        <time>2025-06-08T09:39:26.000Z</time>
      </trkpt>
      <trkpt lat="48.38451" lon="2.44847">
        <ele>78</ele>
        <time>2025-06-08T09:39:29.000Z</time>
      </trkpt>
      <trkpt lat="48.38428" lon="2.44823">
        <ele>78.199996948242</ele>
        <time>2025-06-08T09:39:36.000Z</time>
      </trkpt>
      <trkpt lat="48.38395" lon="2.44787">
        <ele>78.800003051758</ele>
        <time>2025-06-08T09:39:46.000Z</time>
      </trkpt>
      <trkpt lat="48.38381" lon="2.44773">
        <ele>79</ele>
        <time>2025-06-08T09:39:50.000Z</time>
      </trkpt>
      <trkpt lat="48.38368" lon="2.44759">
        <ele>80</ele>
        <time>2025-06-08T09:39:54.000Z</time>
      </trkpt>
      <trkpt lat="48.38339" lon="2.44724">
        <ele>80.199996948242</ele>
        <time>2025-06-08T09:40:03.000Z</time>
      </trkpt>
      <trkpt lat="48.38312" lon="2.44696">
        <ele>80.199996948242</ele>
        <time>2025-06-08T09:40:11.000Z</time>
      </trkpt>
      <trkpt lat="48.38279" lon="2.44666">
        <ele>80.599998474121</ele>
        <time>2025-06-08T09:40:20.000Z</time>
      </trkpt>
      <trkpt lat="48.38256" lon="2.44645">
        <ele>80.800003051758</ele>
        <time>2025-06-08T09:40:26.000Z</time>
      </trkpt>
      <trkpt lat="48.38242" lon="2.44628">
        <ele>80.800003051758</ele>
        <time>2025-06-08T09:40:30.000Z</time>
      </trkpt>
      <trkpt lat="48.38223" lon="2.4459">
        <ele>80.800003051758</ele>
        <time>2025-06-08T09:40:37.000Z</time>
      </trkpt>
      <trkpt lat="48.38218" lon="2.44573">
        <ele>81</ele>
        <time>2025-06-08T09:40:40.000Z</time>
      </trkpt>
      <trkpt lat="48.38212" lon="2.44556">
        <ele>81.400001525879</ele>
        <time>2025-06-08T09:40:43.000Z</time>
      </trkpt>
      <trkpt lat="48.3821" lon="2.44551">
        <ele>81.599998474121</ele>
        <time>2025-06-08T09:40:44.000Z</time>
      </trkpt>
      <trkpt lat="48.38204" lon="2.44541">
        <ele>81.800003051758</ele>
        <time>2025-06-08T09:40:46.000Z</time>
      </trkpt>
      <trkpt lat="48.38196" lon="2.44527">
        <ele>82.199996948242</ele>
        <time>2025-06-08T09:40:49.000Z</time>
      </trkpt>
      <trkpt lat="48.3819" lon="2.44518">
        <ele>82.199996948242</ele>
        <time>2025-06-08T09:40:51.000Z</time>
      </trkpt>
      <trkpt lat="48.38169" lon="2.44481">
        <ele>82.599998474121</ele>
        <time>2025-06-08T09:40:59.000Z</time>
      </trkpt>
      <trkpt lat="48.38154" lon="2.44441">
        <ele>83.199996948242</ele>
        <time>2025-06-08T09:41:06.000Z</time>
      </trkpt>
      <trkpt lat="48.38153" lon="2.44436">
        <ele>83.199996948242</ele>
        <time>2025-06-08T09:41:07.000Z</time>
      </trkpt>
      <trkpt lat="48.3814" lon="2.44398">
        <ele>83.599998474121</ele>
        <time>2025-06-08T09:41:14.000Z</time>
      </trkpt>
      <trkpt lat="48.38134" lon="2.44376">
        <ele>83.800003051758</ele>
        <time>2025-06-08T09:41:19.000Z</time>
      </trkpt>
      <trkpt lat="48.38127" lon="2.44369">
        <ele>84</ele>
        <time>2025-06-08T09:41:24.000Z</time>
      </trkpt>
      <trkpt lat="48.38119" lon="2.44377">
        <ele>84.199996948242</ele>
        <time>2025-06-08T09:41:28.000Z</time>
      </trkpt>
      <trkpt lat="48.38118" lon="2.44378">
        <ele>84.199996948242</ele>
        <time>2025-06-08T09:41:29.000Z</time>
      </trkpt>
      <trkpt lat="48.38116" lon="2.44378">
        <ele>84.400001525879</ele>
        <time>2025-06-08T09:41:30.000Z</time>
      </trkpt>
      <trkpt lat="48.38107" lon="2.44381">
        <ele>85</ele>
        <time>2025-06-08T09:41:34.000Z</time>
      </trkpt>
      <trkpt lat="48.38105" lon="2.44383">
        <ele>85</ele>
        <time>2025-06-08T09:41:35.000Z</time>
      </trkpt>
      <trkpt lat="48.38103" lon="2.44391">
        <ele>86.199996948242</ele>
        <time>2025-06-08T09:41:38.000Z</time>
      </trkpt>
      <trkpt lat="48.38102" lon="2.44394">
        <ele>87</ele>
        <time>2025-06-08T09:41:39.000Z</time>
      </trkpt>
      <trkpt lat="48.381" lon="2.44396">
        <ele>87.400001525879</ele>
        <time>2025-06-08T09:41:40.000Z</time>
      </trkpt>
      <trkpt lat="48.38093" lon="2.44399">
        <ele>87.599998474121</ele>
        <time>2025-06-08T09:41:43.000Z</time>
      </trkpt>
      <trkpt lat="48.38086" lon="2.44401">
        <ele>88</ele>
        <time>2025-06-08T09:41:47.000Z</time>
      </trkpt>
      <trkpt lat="48.38081" lon="2.44403">
        <ele>88.400001525879</ele>
        <time>2025-06-08T09:41:50.000Z</time>
      </trkpt>
      <trkpt lat="48.38079" lon="2.44403">
        <ele>88.599998474121</ele>
        <time>2025-06-08T09:41:51.000Z</time>
      </trkpt>
      <trkpt lat="48.3807" lon="2.44404">
        <ele>89.800003051758</ele>
        <time>2025-06-08T09:41:56.000Z</time>
      </trkpt>
      <trkpt lat="48.38068" lon="2.44404">
        <ele>90.199996948242</ele>
        <time>2025-06-08T09:41:57.000Z</time>
      </trkpt>
      <trkpt lat="48.38064" lon="2.44405">
        <ele>91</ele>
        <time>2025-06-08T09:41:59.000Z</time>
      </trkpt>
      <trkpt lat="48.3806" lon="2.44404">
        <ele>92</ele>
        <time>2025-06-08T09:42:03.000Z</time>
      </trkpt>
      <trkpt lat="48.38058" lon="2.44405">
        <ele>92.400001525879</ele>
        <time>2025-06-08T09:42:04.000Z</time>
      </trkpt>
      <trkpt lat="48.38055" lon="2.44414">
        <ele>93.199996948242</ele>
        <time>2025-06-08T09:42:07.000Z</time>
      </trkpt>
      <trkpt lat="48.38054" lon="2.44417">
        <ele>94</ele>
        <time>2025-06-08T09:42:08.000Z</time>
      </trkpt>
      <trkpt lat="48.38053" lon="2.4442">
        <ele>94</ele>
        <time>2025-06-08T09:42:09.000Z</time>
      </trkpt>
      <trkpt lat="48.38052" lon="2.44422">
        <ele>94.199996948242</ele>
        <time>2025-06-08T09:42:10.000Z</time>
      </trkpt>
      <trkpt lat="48.3805" lon="2.44431">
        <ele>94.800003051758</ele>
        <time>2025-06-08T09:42:15.000Z</time>
      </trkpt>
      <trkpt lat="48.3805" lon="2.44436">
        <ele>95.199996948242</ele>
        <time>2025-06-08T09:42:18.000Z</time>
      </trkpt>
      <trkpt lat="48.38049" lon="2.44444">
        <ele>96.400001525879</ele>
        <time>2025-06-08T09:42:22.000Z</time>
      </trkpt>
      <trkpt lat="48.38049" lon="2.44446">
        <ele>96.599998474121</ele>
        <time>2025-06-08T09:42:23.000Z</time>
      </trkpt>
      <trkpt lat="48.38048" lon="2.44448">
        <ele>97</ele>
        <time>2025-06-08T09:42:24.000Z</time>
      </trkpt>
      <trkpt lat="48.38047" lon="2.44453">
        <ele>97.599998474121</ele>
        <time>2025-06-08T09:42:26.000Z</time>
      </trkpt>
      <trkpt lat="48.38046" lon="2.44459">
        <ele>98.599998474121</ele>
        <time>2025-06-08T09:42:29.000Z</time>
      </trkpt>
      <trkpt lat="48.38046" lon="2.44464">
        <ele>99.199996948242</ele>
        <time>2025-06-08T09:42:31.000Z</time>
      </trkpt>
      <trkpt lat="48.38044" lon="2.44467">
        <ele>100</ele>
        <time>2025-06-08T09:42:33.000Z</time>
      </trkpt>
      <trkpt lat="48.38042" lon="2.44473">
        <ele>101</ele>
        <time>2025-06-08T09:42:36.000Z</time>
      </trkpt>
      <trkpt lat="48.38039" lon="2.4448">
        <ele>102</ele>
        <time>2025-06-08T09:42:40.000Z</time>
      </trkpt>
      <trkpt lat="48.38037" lon="2.44483">
        <ele>102.19999694824</ele>
        <time>2025-06-08T09:42:42.000Z</time>
      </trkpt>
      <trkpt lat="48.38033" lon="2.44491">
        <ele>103.40000152588</ele>
        <time>2025-06-08T09:42:47.000Z</time>
      </trkpt>
      <trkpt lat="48.38033" lon="2.44492">
        <ele>103.59999847412</ele>
        <time>2025-06-08T09:42:48.000Z</time>
      </trkpt>
      <trkpt lat="48.3803" lon="2.44497">
        <ele>104.59999847412</ele>
        <time>2025-06-08T09:42:51.000Z</time>
      </trkpt>
      <trkpt lat="48.3803" lon="2.44499">
        <ele>104.80000305176</ele>
        <time>2025-06-08T09:42:52.000Z</time>
      </trkpt>
      <trkpt lat="48.38028" lon="2.44507">
        <ele>105.59999847412</ele>
        <time>2025-06-08T09:42:55.000Z</time>
      </trkpt>
      <trkpt lat="48.38025" lon="2.44512">
        <ele>106</ele>
        <time>2025-06-08T09:42:57.000Z</time>
      </trkpt>
      <trkpt lat="48.38022" lon="2.44519">
        <ele>106.40000152588</ele>
        <time>2025-06-08T09:43:00.000Z</time>
      </trkpt>
      <trkpt lat="48.38017" lon="2.44524">
        <ele>106.59999847412</ele>
        <time>2025-06-08T09:43:04.000Z</time>
      </trkpt>
      <trkpt lat="48.38016" lon="2.44525">
        <ele>107</ele>
        <time>2025-06-08T09:43:05.000Z</time>
      </trkpt>
      <trkpt lat="48.38015" lon="2.44525">
        <ele>107.19999694824</ele>
        <time>2025-06-08T09:43:06.000Z</time>
      </trkpt>
      <trkpt lat="48.38014" lon="2.44526">
        <ele>107.80000305176</ele>
        <time>2025-06-08T09:43:07.000Z</time>
      </trkpt>
      <trkpt lat="48.38011" lon="2.44527">
        <ele>109</ele>
        <time>2025-06-08T09:43:10.000Z</time>
      </trkpt>
      <trkpt lat="48.38006" lon="2.44532">
        <ele>110.40000152588</ele>
        <time>2025-06-08T09:43:15.000Z</time>
      </trkpt>
      <trkpt lat="48.38002" lon="2.44536">
        <ele>111</ele>
        <time>2025-06-08T09:43:18.000Z</time>
      </trkpt>
      <trkpt lat="48.38" lon="2.44538">
        <ele>111.40000152588</ele>
        <time>2025-06-08T09:43:20.000Z</time>
      </trkpt>
      <trkpt lat="48.37991" lon="2.44553">
        <ele>112</ele>
        <time>2025-06-08T09:43:26.000Z</time>
      </trkpt>
      <trkpt lat="48.37987" lon="2.44579">
        <ele>112</ele>
        <time>2025-06-08T09:43:33.000Z</time>
      </trkpt>
      <trkpt lat="48.37983" lon="2.44606">
        <ele>111.59999847412</ele>
        <time>2025-06-08T09:43:39.000Z</time>
      </trkpt>
      <trkpt lat="48.37975" lon="2.44636">
        <ele>111.59999847412</ele>
        <time>2025-06-08T09:43:45.000Z</time>
      </trkpt>
      <trkpt lat="48.37975" lon="2.44668">
        <ele>111.59999847412</ele>
        <time>2025-06-08T09:43:50.000Z</time>
      </trkpt>
      <trkpt lat="48.37979" lon="2.44689">
        <ele>111.40000152588</ele>
        <time>2025-06-08T09:43:54.000Z</time>
      </trkpt>
      <trkpt lat="48.37984" lon="2.44698">
        <ele>110.40000152588</ele>
        <time>2025-06-08T09:43:56.000Z</time>
      </trkpt>
      <trkpt lat="48.37992" lon="2.44713">
        <ele>110</ele>
        <time>2025-06-08T09:44:00.000Z</time>
      </trkpt>
      <trkpt lat="48.38004" lon="2.44722">
        <ele>109.59999847412</ele>
        <time>2025-06-08T09:44:05.000Z</time>
      </trkpt>
      <trkpt lat="48.38017" lon="2.44732">
        <ele>109.59999847412</ele>
        <time>2025-06-08T09:44:10.000Z</time>
      </trkpt>
      <trkpt lat="48.38027" lon="2.44749">
        <ele>109.59999847412</ele>
        <time>2025-06-08T09:44:15.000Z</time>
      </trkpt>
      <trkpt lat="48.38038" lon="2.44769">
        <ele>109.80000305176</ele>
        <time>2025-06-08T09:44:21.000Z</time>
      </trkpt>
      <trkpt lat="48.38041" lon="2.44774">
        <ele>110</ele>
        <time>2025-06-08T09:44:23.000Z</time>
      </trkpt>
      <trkpt lat="48.38044" lon="2.44777">
        <ele>110.19999694824</ele>
        <time>2025-06-08T09:44:25.000Z</time>
      </trkpt>
      <trkpt lat="48.38055" lon="2.448">
        <ele>110.19999694824</ele>
        <time>2025-06-08T09:44:30.000Z</time>
      </trkpt>
      <trkpt lat="48.38065" lon="2.44826">
        <ele>109.80000305176</ele>
        <time>2025-06-08T09:44:35.000Z</time>
      </trkpt>
      <trkpt lat="48.38068" lon="2.4485">
        <ele>109.40000152588</ele>
        <time>2025-06-08T09:44:39.000Z</time>
      </trkpt>
      <trkpt lat="48.38068" lon="2.44856">
        <ele>109.19999694824</ele>
        <time>2025-06-08T09:44:40.000Z</time>
      </trkpt>
      <trkpt lat="48.38071" lon="2.44872">
        <ele>108.59999847412</ele>
        <time>2025-06-08T09:44:44.000Z</time>
      </trkpt>
      <trkpt lat="48.38073" lon="2.44878">
        <ele>108.59999847412</ele>
        <time>2025-06-08T09:44:46.000Z</time>
      </trkpt>
      <trkpt lat="48.38076" lon="2.44889">
        <ele>108.80000305176</ele>
        <time>2025-06-08T09:44:50.000Z</time>
      </trkpt>
      <trkpt lat="48.38078" lon="2.44896">
        <ele>109</ele>
        <time>2025-06-08T09:44:52.000Z</time>
      </trkpt>
      <trkpt lat="48.38081" lon="2.44907">
        <ele>110</ele>
        <time>2025-06-08T09:44:56.000Z</time>
      </trkpt>
      <trkpt lat="48.38083" lon="2.44908">
        <ele>110.59999847412</ele>
        <time>2025-06-08T09:44:57.000Z</time>
      </trkpt>
      <trkpt lat="48.38088" lon="2.44907">
        <ele>111.59999847412</ele>
        <time>2025-06-08T09:45:00.000Z</time>
      </trkpt>
      <trkpt lat="48.38091" lon="2.44908">
        <ele>111.80000305176</ele>
        <time>2025-06-08T09:45:01.000Z</time>
      </trkpt>
      <trkpt lat="48.38094" lon="2.44908">
        <ele>112.59999847412</ele>
        <time>2025-06-08T09:45:03.000Z</time>
      </trkpt>
      <trkpt lat="48.38097" lon="2.44908">
        <ele>112.80000305176</ele>
        <time>2025-06-08T09:45:04.000Z</time>
      </trkpt>
      <trkpt lat="48.381" lon="2.4491">
        <ele>112.80000305176</ele>
        <time>2025-06-08T09:45:06.000Z</time>
      </trkpt>
      <trkpt lat="48.38103" lon="2.44908">
        <ele>112.80000305176</ele>
        <time>2025-06-08T09:45:07.000Z</time>
      </trkpt>
      <trkpt lat="48.38107" lon="2.44905">
        <ele>112.80000305176</ele>
        <time>2025-06-08T09:45:09.000Z</time>
      </trkpt>
      <trkpt lat="48.38116" lon="2.44903">
        <ele>112.80000305176</ele>
        <time>2025-06-08T09:45:12.000Z</time>
      </trkpt>
      <trkpt lat="48.38119" lon="2.44907">
        <ele>112.80000305176</ele>
        <time>2025-06-08T09:45:13.000Z</time>
      </trkpt>
      <trkpt lat="48.38124" lon="2.44918">
        <ele>112.80000305176</ele>
        <time>2025-06-08T09:45:17.000Z</time>
      </trkpt>
      <trkpt lat="48.38131" lon="2.44937">
        <ele>113.19999694824</ele>
        <time>2025-06-08T09:45:23.000Z</time>
      </trkpt>
      <trkpt lat="48.38138" lon="2.44944">
        <ele>114</ele>
        <time>2025-06-08T09:45:26.000Z</time>
      </trkpt>
      <trkpt lat="48.3814" lon="2.44949">
        <ele>114.19999694824</ele>
        <time>2025-06-08T09:45:27.000Z</time>
      </trkpt>
      <trkpt lat="48.38141" lon="2.44952">
        <ele>114.59999847412</ele>
        <time>2025-06-08T09:45:28.000Z</time>
      </trkpt>
      <trkpt lat="48.38142" lon="2.44963">
        <ele>115</ele>
        <time>2025-06-08T09:45:31.000Z</time>
      </trkpt>
      <trkpt lat="48.38143" lon="2.44972">
        <ele>115.19999694824</ele>
        <time>2025-06-08T09:45:33.000Z</time>
      </trkpt>
      <trkpt lat="48.38151" lon="2.44982">
        <ele>115.19999694824</ele>
        <time>2025-06-08T09:45:37.000Z</time>
      </trkpt>
      <trkpt lat="48.3815" lon="2.44997">
        <ele>115.19999694824</ele>
        <time>2025-06-08T09:45:41.000Z</time>
      </trkpt>
      <trkpt lat="48.38149" lon="2.45001">
        <ele>115.19999694824</ele>
        <time>2025-06-08T09:45:42.000Z</time>
      </trkpt>
      <trkpt lat="48.38141" lon="2.45016">
        <ele>115.19999694824</ele>
        <time>2025-06-08T09:45:47.000Z</time>
      </trkpt>
      <trkpt lat="48.38139" lon="2.4502">
        <ele>115.40000152588</ele>
        <time>2025-06-08T09:45:48.000Z</time>
      </trkpt>
      <trkpt lat="48.38134" lon="2.45032">
        <ele>115.40000152588</ele>
        <time>2025-06-08T09:45:51.000Z</time>
      </trkpt>
      <trkpt lat="48.38131" lon="2.4505">
        <ele>115.40000152588</ele>
        <time>2025-06-08T09:45:55.000Z</time>
      </trkpt>
      <trkpt lat="48.38133" lon="2.45056">
        <ele>115.40000152588</ele>
        <time>2025-06-08T09:45:56.000Z</time>
      </trkpt>
      <trkpt lat="48.38142" lon="2.45081">
        <ele>115.59999847412</ele>
        <time>2025-06-08T09:46:01.000Z</time>
      </trkpt>
      <trkpt lat="48.38149" lon="2.45107">
        <ele>115.80000305176</ele>
        <time>2025-06-08T09:46:06.000Z</time>
      </trkpt>
      <trkpt lat="48.38157" lon="2.45134">
        <ele>115.80000305176</ele>
        <time>2025-06-08T09:46:12.000Z</time>
      </trkpt>
      <trkpt lat="48.38161" lon="2.45151">
        <ele>115.80000305176</ele>
        <time>2025-06-08T09:46:14.000Z</time>
      </trkpt>
      <trkpt lat="48.38168" lon="2.45164">
        <ele>115.80000305176</ele>
        <time>2025-06-08T09:46:16.000Z</time>
      </trkpt>
      <trkpt lat="48.38172" lon="2.45171">
        <ele>115.80000305176</ele>
        <time>2025-06-08T09:46:17.000Z</time>
      </trkpt>
      <trkpt lat="48.38187" lon="2.45204">
        <ele>115.40000152588</ele>
        <time>2025-06-08T09:46:22.000Z</time>
      </trkpt>
      <trkpt lat="48.38207" lon="2.4525">
        <ele>114.80000305176</ele>
        <time>2025-06-08T09:46:28.000Z</time>
      </trkpt>
      <trkpt lat="48.38214" lon="2.45265">
        <ele>114.40000152588</ele>
        <time>2025-06-08T09:46:30.000Z</time>
      </trkpt>
      <trkpt lat="48.38221" lon="2.45279">
        <ele>114</ele>
        <time>2025-06-08T09:46:32.000Z</time>
      </trkpt>
      <trkpt lat="48.38228" lon="2.45291">
        <ele>114</ele>
        <time>2025-06-08T09:46:34.000Z</time>
      </trkpt>
      <trkpt lat="48.3825" lon="2.45323">
        <ele>114</ele>
        <time>2025-06-08T09:46:40.000Z</time>
      </trkpt>
      <trkpt lat="48.3827" lon="2.45355">
        <ele>114.19999694824</ele>
        <time>2025-06-08T09:46:46.000Z</time>
      </trkpt>
      <trkpt lat="48.38291" lon="2.45389">
        <ele>115.19999694824</ele>
        <time>2025-06-08T09:46:52.000Z</time>
      </trkpt>
      <trkpt lat="48.38295" lon="2.45394">
        <ele>115.19999694824</ele>
        <time>2025-06-08T09:46:53.000Z</time>
      </trkpt>
      <trkpt lat="48.38321" lon="2.45444">
        <ele>115.40000152588</ele>
        <time>2025-06-08T09:47:01.000Z</time>
      </trkpt>
      <trkpt lat="48.38324" lon="2.4545">
        <ele>115.40000152588</ele>
        <time>2025-06-08T09:47:02.000Z</time>
      </trkpt>
      <trkpt lat="48.38331" lon="2.45469">
        <ele>115.40000152588</ele>
        <time>2025-06-08T09:47:05.000Z</time>
      </trkpt>
      <trkpt lat="48.38334" lon="2.45473">
        <ele>115.40000152588</ele>
        <time>2025-06-08T09:47:06.000Z</time>
      </trkpt>
      <trkpt lat="48.38348" lon="2.45507">
        <ele>116.19999694824</ele>
        <time>2025-06-08T09:47:12.000Z</time>
      </trkpt>
      <trkpt lat="48.38352" lon="2.45512">
        <ele>116.40000152588</ele>
        <time>2025-06-08T09:47:13.000Z</time>
      </trkpt>
      <trkpt lat="48.38356" lon="2.45517">
        <ele>116.59999847412</ele>
        <time>2025-06-08T09:47:14.000Z</time>
      </trkpt>
      <trkpt lat="48.38364" lon="2.45527">
        <ele>116.80000305176</ele>
        <time>2025-06-08T09:47:16.000Z</time>
      </trkpt>
      <trkpt lat="48.38383" lon="2.45544">
        <ele>116.80000305176</ele>
        <time>2025-06-08T09:47:20.000Z</time>
      </trkpt>
      <trkpt lat="48.38413" lon="2.45556">
        <ele>116.80000305176</ele>
        <time>2025-06-08T09:47:26.000Z</time>
      </trkpt>
      <trkpt lat="48.38422" lon="2.45557">
        <ele>117</ele>
        <time>2025-06-08T09:47:28.000Z</time>
      </trkpt>
      <trkpt lat="48.38435" lon="2.45554">
        <ele>117</ele>
        <time>2025-06-08T09:47:31.000Z</time>
      </trkpt>
      <trkpt lat="48.38448" lon="2.45554">
        <ele>117.19999694824</ele>
        <time>2025-06-08T09:47:34.000Z</time>
      </trkpt>
      <trkpt lat="48.38457" lon="2.45558">
        <ele>117.40000152588</ele>
        <time>2025-06-08T09:47:36.000Z</time>
      </trkpt>
      <trkpt lat="48.38486" lon="2.45569">
        <ele>117.59999847412</ele>
        <time>2025-06-08T09:47:43.000Z</time>
      </trkpt>
      <trkpt lat="48.38514" lon="2.45581">
        <ele>117.59999847412</ele>
        <time>2025-06-08T09:47:49.000Z</time>
      </trkpt>
      <trkpt lat="48.38524" lon="2.45585">
        <ele>117.59999847412</ele>
        <time>2025-06-08T09:47:51.000Z</time>
      </trkpt>
      <trkpt lat="48.3854" lon="2.45592">
        <ele>117.80000305176</ele>
        <time>2025-06-08T09:47:55.000Z</time>
      </trkpt>
      <trkpt lat="48.38554" lon="2.45598">
        <ele>117.80000305176</ele>
        <time>2025-06-08T09:47:58.000Z</time>
      </trkpt>
      <trkpt lat="48.38565" lon="2.45601">
        <ele>117.59999847412</ele>
        <time>2025-06-08T09:48:00.000Z</time>
      </trkpt>
      <trkpt lat="48.38579" lon="2.45607">
        <ele>117.40000152588</ele>
        <time>2025-06-08T09:48:03.000Z</time>
      </trkpt>
      <trkpt lat="48.38591" lon="2.45611">
        <ele>117.59999847412</ele>
        <time>2025-06-08T09:48:06.000Z</time>
      </trkpt>
      <trkpt lat="48.3862" lon="2.45616">
        <ele>117.40000152588</ele>
        <time>2025-06-08T09:48:11.000Z</time>
      </trkpt>
      <trkpt lat="48.38642" lon="2.4562">
        <ele>117.40000152588</ele>
        <time>2025-06-08T09:48:16.000Z</time>
      </trkpt>
      <trkpt lat="48.38671" lon="2.45627">
        <ele>117.40000152588</ele>
        <time>2025-06-08T09:48:22.000Z</time>
      </trkpt>
      <trkpt lat="48.38693" lon="2.45634">
        <ele>117.19999694824</ele>
        <time>2025-06-08T09:48:27.000Z</time>
      </trkpt>
      <trkpt lat="48.3873" lon="2.4564">
        <ele>117.19999694824</ele>
        <time>2025-06-08T09:48:34.000Z</time>
      </trkpt>
      <trkpt lat="48.38766" lon="2.4565">
        <ele>116.80000305176</ele>
        <time>2025-06-08T09:48:40.000Z</time>
      </trkpt>
      <trkpt lat="48.38787" lon="2.45657">
        <ele>116</ele>
        <time>2025-06-08T09:48:43.000Z</time>
      </trkpt>
      <trkpt lat="48.38811" lon="2.45661">
        <ele>114.59999847412</ele>
        <time>2025-06-08T09:48:46.000Z</time>
      </trkpt>
      <trkpt lat="48.38826" lon="2.45667">
        <ele>113.19999694824</ele>
        <time>2025-06-08T09:48:48.000Z</time>
      </trkpt>
      <trkpt lat="48.38841" lon="2.45671">
        <ele>111.40000152588</ele>
        <time>2025-06-08T09:48:50.000Z</time>
      </trkpt>
      <trkpt lat="48.38854" lon="2.45676">
        <ele>111</ele>
        <time>2025-06-08T09:48:52.000Z</time>
      </trkpt>
      <trkpt lat="48.3886" lon="2.45679">
        <ele>111</ele>
        <time>2025-06-08T09:48:53.000Z</time>
      </trkpt>
      <trkpt lat="48.38884" lon="2.45685">
        <ele>110.80000305176</ele>
        <time>2025-06-08T09:48:57.000Z</time>
      </trkpt>
      <trkpt lat="48.38922" lon="2.45698">
        <ele>111</ele>
        <time>2025-06-08T09:49:04.000Z</time>
      </trkpt>
      <trkpt lat="48.38958" lon="2.45707">
        <ele>111.19999694824</ele>
        <time>2025-06-08T09:49:10.000Z</time>
      </trkpt>
      <trkpt lat="48.38985" lon="2.45715">
        <ele>111</ele>
        <time>2025-06-08T09:49:15.000Z</time>
      </trkpt>
      <trkpt lat="48.39009" lon="2.4572">
        <ele>110.80000305176</ele>
        <time>2025-06-08T09:49:20.000Z</time>
      </trkpt>
      <trkpt lat="48.39015" lon="2.45721">
        <ele>110.80000305176</ele>
        <time>2025-06-08T09:49:21.000Z</time>
      </trkpt>
      <trkpt lat="48.39052" lon="2.45729">
        <ele>110.59999847412</ele>
        <time>2025-06-08T09:49:28.000Z</time>
      </trkpt>
      <trkpt lat="48.39058" lon="2.4573">
        <ele>110.40000152588</ele>
        <time>2025-06-08T09:49:29.000Z</time>
      </trkpt>
      <trkpt lat="48.39083" lon="2.45735">
        <ele>109.80000305176</ele>
        <time>2025-06-08T09:49:33.000Z</time>
      </trkpt>
      <trkpt lat="48.39112" lon="2.45742">
        <ele>109.80000305176</ele>
        <time>2025-06-08T09:49:39.000Z</time>
      </trkpt>
      <trkpt lat="48.39128" lon="2.45748">
        <ele>110.19999694824</ele>
        <time>2025-06-08T09:49:44.000Z</time>
      </trkpt>
      <trkpt lat="48.3914" lon="2.45748">
        <ele>111.80000305176</ele>
        <time>2025-06-08T09:49:47.000Z</time>
      </trkpt>
      <trkpt lat="48.39149" lon="2.4575">
        <ele>112.80000305176</ele>
        <time>2025-06-08T09:49:49.000Z</time>
      </trkpt>
      <trkpt lat="48.39154" lon="2.45752">
        <ele>113.19999694824</ele>
        <time>2025-06-08T09:49:50.000Z</time>
      </trkpt>
      <trkpt lat="48.39164" lon="2.45754">
        <ele>113.19999694824</ele>
        <time>2025-06-08T09:49:52.000Z</time>
      </trkpt>
      <trkpt lat="48.39178" lon="2.45759">
        <ele>113.40000152588</ele>
        <time>2025-06-08T09:49:55.000Z</time>
      </trkpt>
      <trkpt lat="48.39191" lon="2.45768">
        <ele>113.19999694824</ele>
        <time>2025-06-08T09:49:59.000Z</time>
      </trkpt>
      <trkpt lat="48.39202" lon="2.45788">
        <ele>111.80000305176</ele>
        <time>2025-06-08T09:50:04.000Z</time>
      </trkpt>
      <trkpt lat="48.39205" lon="2.458">
        <ele>110.40000152588</ele>
        <time>2025-06-08T09:50:07.000Z</time>
      </trkpt>
      <trkpt lat="48.39206" lon="2.45805">
        <ele>109.80000305176</ele>
        <time>2025-06-08T09:50:08.000Z</time>
      </trkpt>
      <trkpt lat="48.39206" lon="2.45811">
        <ele>109</ele>
        <time>2025-06-08T09:50:09.000Z</time>
      </trkpt>
      <trkpt lat="48.39205" lon="2.45815">
        <ele>107.80000305176</ele>
        <time>2025-06-08T09:50:10.000Z</time>
      </trkpt>
      <trkpt lat="48.39203" lon="2.45821">
        <ele>106.40000152588</ele>
        <time>2025-06-08T09:50:11.000Z</time>
      </trkpt>
      <trkpt lat="48.39203" lon="2.45826">
        <ele>105.19999694824</ele>
        <time>2025-06-08T09:50:12.000Z</time>
      </trkpt>
      <trkpt lat="48.392" lon="2.45834">
        <ele>103.59999847412</ele>
        <time>2025-06-08T09:50:14.000Z</time>
      </trkpt>
      <trkpt lat="48.39197" lon="2.45836">
        <ele>102.59999847412</ele>
        <time>2025-06-08T09:50:15.000Z</time>
      </trkpt>
      <trkpt lat="48.39195" lon="2.45837">
        <ele>101.59999847412</ele>
        <time>2025-06-08T09:50:16.000Z</time>
      </trkpt>
      <trkpt lat="48.39193" lon="2.45837">
        <ele>100.59999847412</ele>
        <time>2025-06-08T09:50:17.000Z</time>
      </trkpt>
      <trkpt lat="48.39191" lon="2.45837">
        <ele>100</ele>
        <time>2025-06-08T09:50:18.000Z</time>
      </trkpt>
      <trkpt lat="48.39188" lon="2.45838">
        <ele>97.800003051758</ele>
        <time>2025-06-08T09:50:19.000Z</time>
      </trkpt>
      <trkpt lat="48.39186" lon="2.45838">
        <ele>96.400001525879</ele>
        <time>2025-06-08T09:50:20.000Z</time>
      </trkpt>
      <trkpt lat="48.39182" lon="2.4584">
        <ele>95.199996948242</ele>
        <time>2025-06-08T09:50:22.000Z</time>
      </trkpt>
      <trkpt lat="48.3918" lon="2.45842">
        <ele>95</ele>
        <time>2025-06-08T09:50:23.000Z</time>
      </trkpt>
      <trkpt lat="48.39176" lon="2.45845">
        <ele>94.800003051758</ele>
        <time>2025-06-08T09:50:25.000Z</time>
      </trkpt>
      <trkpt lat="48.39168" lon="2.45847">
        <ele>94.800003051758</ele>
        <time>2025-06-08T09:50:30.000Z</time>
      </trkpt>
      <trkpt lat="48.39164" lon="2.45849">
        <ele>95</ele>
        <time>2025-06-08T09:50:33.000Z</time>
      </trkpt>
      <trkpt lat="48.3916" lon="2.45851">
        <ele>96</ele>
        <time>2025-06-08T09:50:36.000Z</time>
      </trkpt>
      <trkpt lat="48.39159" lon="2.45852">
        <ele>96.599998474121</ele>
        <time>2025-06-08T09:50:37.000Z</time>
      </trkpt>
      <trkpt lat="48.39155" lon="2.45853">
        <ele>97.599998474121</ele>
        <time>2025-06-08T09:50:39.000Z</time>
      </trkpt>
      <trkpt lat="48.39149" lon="2.45854">
        <ele>98.400001525879</ele>
        <time>2025-06-08T09:50:42.000Z</time>
      </trkpt>
      <trkpt lat="48.39132" lon="2.45862">
        <ele>98.400001525879</ele>
        <time>2025-06-08T09:50:47.000Z</time>
      </trkpt>
      <trkpt lat="48.39122" lon="2.45865">
        <ele>98.400001525879</ele>
        <time>2025-06-08T09:50:50.000Z</time>
      </trkpt>
      <trkpt lat="48.39119" lon="2.45865">
        <ele>98.400001525879</ele>
        <time>2025-06-08T09:50:52.000Z</time>
      </trkpt>
      <trkpt lat="48.39107" lon="2.45869">
        <ele>99.599998474121</ele>
        <time>2025-06-08T09:50:59.000Z</time>
      </trkpt>
      <trkpt lat="48.39105" lon="2.45869">
        <ele>100.19999694824</ele>
        <time>2025-06-08T09:51:00.000Z</time>
      </trkpt>
      <trkpt lat="48.39103" lon="2.45869">
        <ele>100.80000305176</ele>
        <time>2025-06-08T09:51:02.000Z</time>
      </trkpt>
      <trkpt lat="48.39097" lon="2.45869">
        <ele>101.80000305176</ele>
        <time>2025-06-08T09:51:06.000Z</time>
      </trkpt>
      <trkpt lat="48.39095" lon="2.45869">
        <ele>102.19999694824</ele>
        <time>2025-06-08T09:51:07.000Z</time>
      </trkpt>
      <trkpt lat="48.39091" lon="2.45869">
        <ele>103.19999694824</ele>
        <time>2025-06-08T09:51:10.000Z</time>
      </trkpt>
      <trkpt lat="48.39083" lon="2.45873">
        <ele>104.40000152588</ele>
        <time>2025-06-08T09:51:15.000Z</time>
      </trkpt>
      <trkpt lat="48.39078" lon="2.45875">
        <ele>105.59999847412</ele>
        <time>2025-06-08T09:51:18.000Z</time>
      </trkpt>
      <trkpt lat="48.39074" lon="2.45874">
        <ele>106.59999847412</ele>
        <time>2025-06-08T09:51:21.000Z</time>
      </trkpt>
      <trkpt lat="48.39069" lon="2.45875">
        <ele>107.59999847412</ele>
        <time>2025-06-08T09:51:25.000Z</time>
      </trkpt>
      <trkpt lat="48.39064" lon="2.45875">
        <ele>108.80000305176</ele>
        <time>2025-06-08T09:51:28.000Z</time>
      </trkpt>
      <trkpt lat="48.39052" lon="2.45883">
        <ele>109.40000152588</ele>
        <time>2025-06-08T09:51:33.000Z</time>
      </trkpt>
      <trkpt lat="48.39034" lon="2.45895">
        <ele>109.40000152588</ele>
        <time>2025-06-08T09:51:40.000Z</time>
      </trkpt>
      <trkpt lat="48.39017" lon="2.45897">
        <ele>109.40000152588</ele>
        <time>2025-06-08T09:51:45.000Z</time>
      </trkpt>
      <trkpt lat="48.39009" lon="2.45895">
        <ele>109.40000152588</ele>
        <time>2025-06-08T09:51:48.000Z</time>
      </trkpt>
      <trkpt lat="48.39007" lon="2.45891">
        <ele>109.40000152588</ele>
        <time>2025-06-08T09:51:50.000Z</time>
      </trkpt>
      <trkpt lat="48.39003" lon="2.45886">
        <ele>109.40000152588</ele>
        <time>2025-06-08T09:51:53.000Z</time>
      </trkpt>
      <trkpt lat="48.38994" lon="2.45879">
        <ele>109.80000305176</ele>
        <time>2025-06-08T09:51:58.000Z</time>
      </trkpt>
      <trkpt lat="48.38993" lon="2.45878">
        <ele>110.19999694824</ele>
        <time>2025-06-08T09:51:59.000Z</time>
      </trkpt>
      <trkpt lat="48.38986" lon="2.45872">
        <ele>111.40000152588</ele>
        <time>2025-06-08T09:52:03.000Z</time>
      </trkpt>
      <trkpt lat="48.38983" lon="2.45869">
        <ele>112</ele>
        <time>2025-06-08T09:52:05.000Z</time>
      </trkpt>
      <trkpt lat="48.38977" lon="2.45866">
        <ele>112.40000152588</ele>
        <time>2025-06-08T09:52:07.000Z</time>
      </trkpt>
      <trkpt lat="48.3897" lon="2.45859">
        <ele>113.19999694824</ele>
        <time>2025-06-08T09:52:11.000Z</time>
      </trkpt>
      <trkpt lat="48.38969" lon="2.45857">
        <ele>113.40000152588</ele>
        <time>2025-06-08T09:52:12.000Z</time>
      </trkpt>
      <trkpt lat="48.38967" lon="2.45846">
        <ele>114.19999694824</ele>
        <time>2025-06-08T09:52:16.000Z</time>
      </trkpt>
      <trkpt lat="48.38966" lon="2.45841">
        <ele>114.59999847412</ele>
        <time>2025-06-08T09:52:18.000Z</time>
      </trkpt>
      <trkpt lat="48.38964" lon="2.45832">
        <ele>115.80000305176</ele>
        <time>2025-06-08T09:52:22.000Z</time>
      </trkpt>
      <trkpt lat="48.38963" lon="2.45829">
        <ele>115.80000305176</ele>
        <time>2025-06-08T09:52:23.000Z</time>
      </trkpt>
      <trkpt lat="48.38953" lon="2.4581">
        <ele>116.80000305176</ele>
        <time>2025-06-08T09:52:29.000Z</time>
      </trkpt>
      <trkpt lat="48.38947" lon="2.45804">
        <ele>117.19999694824</ele>
        <time>2025-06-08T09:52:31.000Z</time>
      </trkpt>
      <trkpt lat="48.38941" lon="2.45802">
        <ele>117.40000152588</ele>
        <time>2025-06-08T09:52:34.000Z</time>
      </trkpt>
      <trkpt lat="48.38935" lon="2.45806">
        <ele>117.80000305176</ele>
        <time>2025-06-08T09:52:38.000Z</time>
      </trkpt>
      <trkpt lat="48.38933" lon="2.45805">
        <ele>117.80000305176</ele>
        <time>2025-06-08T09:52:39.000Z</time>
      </trkpt>
      <trkpt lat="48.38916" lon="2.45803">
        <ele>118.19999694824</ele>
        <time>2025-06-08T09:52:47.000Z</time>
      </trkpt>
      <trkpt lat="48.38901" lon="2.45813">
        <ele>118.19999694824</ele>
        <time>2025-06-08T09:52:52.000Z</time>
      </trkpt>
      <trkpt lat="48.38885" lon="2.45819">
        <ele>118</ele>
        <time>2025-06-08T09:52:57.000Z</time>
      </trkpt>
      <trkpt lat="48.38864" lon="2.45821">
        <ele>118</ele>
        <time>2025-06-08T09:53:03.000Z</time>
      </trkpt>
      <trkpt lat="48.38845" lon="2.45815">
        <ele>118</ele>
        <time>2025-06-08T09:53:08.000Z</time>
      </trkpt>
      <trkpt lat="48.38832" lon="2.45822">
        <ele>118</ele>
        <time>2025-06-08T09:53:13.000Z</time>
      </trkpt>
      <trkpt lat="48.38815" lon="2.45823">
        <ele>117.80000305176</ele>
        <time>2025-06-08T09:53:17.000Z</time>
      </trkpt>
      <trkpt lat="48.38792" lon="2.45825">
        <ele>117</ele>
        <time>2025-06-08T09:53:22.000Z</time>
      </trkpt>
      <trkpt lat="48.38777" lon="2.45825">
        <ele>116.80000305176</ele>
        <time>2025-06-08T09:53:25.000Z</time>
      </trkpt>
      <trkpt lat="48.38772" lon="2.45828">
        <ele>116.80000305176</ele>
        <time>2025-06-08T09:53:27.000Z</time>
      </trkpt>
      <trkpt lat="48.38761" lon="2.45831">
        <ele>116.59999847412</ele>
        <time>2025-06-08T09:53:33.000Z</time>
      </trkpt>
      <trkpt lat="48.38757" lon="2.45831">
        <ele>116.59999847412</ele>
        <time>2025-06-08T09:53:35.000Z</time>
      </trkpt>
      <trkpt lat="48.38749" lon="2.45832">
        <ele>116.80000305176</ele>
        <time>2025-06-08T09:53:39.000Z</time>
      </trkpt>
      <trkpt lat="48.38746" lon="2.45832">
        <ele>116.80000305176</ele>
        <time>2025-06-08T09:53:41.000Z</time>
      </trkpt>
      <trkpt lat="48.38734" lon="2.45833">
        <ele>116.59999847412</ele>
        <time>2025-06-08T09:53:47.000Z</time>
      </trkpt>
      <trkpt lat="48.38732" lon="2.45833">
        <ele>116.40000152588</ele>
        <time>2025-06-08T09:53:48.000Z</time>
      </trkpt>
      <trkpt lat="48.38726" lon="2.45829">
        <ele>115.80000305176</ele>
        <time>2025-06-08T09:53:51.000Z</time>
      </trkpt>
      <trkpt lat="48.38719" lon="2.45834">
        <ele>115.59999847412</ele>
        <time>2025-06-08T09:53:55.000Z</time>
      </trkpt>
      <trkpt lat="48.38718" lon="2.45843">
        <ele>115.59999847412</ele>
        <time>2025-06-08T09:53:58.000Z</time>
      </trkpt>
      <trkpt lat="48.38716" lon="2.45847">
        <ele>115.59999847412</ele>
        <time>2025-06-08T09:53:59.000Z</time>
      </trkpt>
      <trkpt lat="48.38714" lon="2.4585">
        <ele>115.40000152588</ele>
        <time>2025-06-08T09:54:00.000Z</time>
      </trkpt>
      <trkpt lat="48.38703" lon="2.45867">
        <ele>115</ele>
        <time>2025-06-08T09:54:04.000Z</time>
      </trkpt>
      <trkpt lat="48.38696" lon="2.45885">
        <ele>114.19999694824</ele>
        <time>2025-06-08T09:54:07.000Z</time>
      </trkpt>
      <trkpt lat="48.38688" lon="2.45899">
        <ele>113.40000152588</ele>
        <time>2025-06-08T09:54:09.000Z</time>
      </trkpt>
      <trkpt lat="48.38685" lon="2.45905">
        <ele>112.80000305176</ele>
        <time>2025-06-08T09:54:10.000Z</time>
      </trkpt>
      <trkpt lat="48.38677" lon="2.45917">
        <ele>111.80000305176</ele>
        <time>2025-06-08T09:54:12.000Z</time>
      </trkpt>
      <trkpt lat="48.38671" lon="2.4593">
        <ele>110.19999694824</ele>
        <time>2025-06-08T09:54:14.000Z</time>
      </trkpt>
      <trkpt lat="48.38668" lon="2.4594">
        <ele>108.59999847412</ele>
        <time>2025-06-08T09:54:16.000Z</time>
      </trkpt>
      <trkpt lat="48.38666" lon="2.45948">
        <ele>107.80000305176</ele>
        <time>2025-06-08T09:54:18.000Z</time>
      </trkpt>
      <trkpt lat="48.38658" lon="2.45959">
        <ele>107.59999847412</ele>
        <time>2025-06-08T09:54:23.000Z</time>
      </trkpt>
      <trkpt lat="48.38646" lon="2.45974">
        <ele>109.19999694824</ele>
        <time>2025-06-08T09:54:31.000Z</time>
      </trkpt>
      <trkpt lat="48.38643" lon="2.45979">
        <ele>109.80000305176</ele>
        <time>2025-06-08T09:54:33.000Z</time>
      </trkpt>
      <trkpt lat="48.38636" lon="2.45989">
        <ele>111</ele>
        <time>2025-06-08T09:54:36.000Z</time>
      </trkpt>
      <trkpt lat="48.38633" lon="2.45991">
        <ele>111.40000152588</ele>
        <time>2025-06-08T09:54:37.000Z</time>
      </trkpt>
      <trkpt lat="48.38621" lon="2.45997">
        <ele>112</ele>
        <time>2025-06-08T09:54:42.000Z</time>
      </trkpt>
      <trkpt lat="48.38619" lon="2.45998">
        <ele>112.19999694824</ele>
        <time>2025-06-08T09:54:43.000Z</time>
      </trkpt>
      <trkpt lat="48.38616" lon="2.46">
        <ele>112.59999847412</ele>
        <time>2025-06-08T09:54:44.000Z</time>
      </trkpt>
      <trkpt lat="48.3861" lon="2.46007">
        <ele>113.19999694824</ele>
        <time>2025-06-08T09:54:47.000Z</time>
      </trkpt>
      <trkpt lat="48.38609" lon="2.46009">
        <ele>113.40000152588</ele>
        <time>2025-06-08T09:54:48.000Z</time>
      </trkpt>
      <trkpt lat="48.38603" lon="2.46021">
        <ele>114.19999694824</ele>
        <time>2025-06-08T09:54:51.000Z</time>
      </trkpt>
      <trkpt lat="48.38602" lon="2.46025">
        <ele>114.40000152588</ele>
        <time>2025-06-08T09:54:52.000Z</time>
      </trkpt>
      <trkpt lat="48.38601" lon="2.4603">
        <ele>114.40000152588</ele>
        <time>2025-06-08T09:54:53.000Z</time>
      </trkpt>
      <trkpt lat="48.38598" lon="2.46038">
        <ele>114.40000152588</ele>
        <time>2025-06-08T09:54:55.000Z</time>
      </trkpt>
      <trkpt lat="48.38592" lon="2.46046">
        <ele>114.40000152588</ele>
        <time>2025-06-08T09:54:57.000Z</time>
      </trkpt>
      <trkpt lat="48.38579" lon="2.46059">
        <ele>114.59999847412</ele>
        <time>2025-06-08T09:55:01.000Z</time>
      </trkpt>
      <trkpt lat="48.38573" lon="2.46064">
        <ele>114.59999847412</ele>
        <time>2025-06-08T09:55:03.000Z</time>
      </trkpt>
      <trkpt lat="48.38551" lon="2.4609">
        <ele>115.40000152588</ele>
        <time>2025-06-08T09:55:11.000Z</time>
      </trkpt>
      <trkpt lat="48.38548" lon="2.46092">
        <ele>115.59999847412</ele>
        <time>2025-06-08T09:55:12.000Z</time>
      </trkpt>
      <trkpt lat="48.38542" lon="2.461">
        <ele>116.59999847412</ele>
        <time>2025-06-08T09:55:15.000Z</time>
      </trkpt>
      <trkpt lat="48.38532" lon="2.46115">
        <ele>117.59999847412</ele>
        <time>2025-06-08T09:55:19.000Z</time>
      </trkpt>
      <trkpt lat="48.38508" lon="2.46141">
        <ele>118.40000152588</ele>
        <time>2025-06-08T09:55:27.000Z</time>
      </trkpt>
      <trkpt lat="48.38482" lon="2.46168">
        <ele>118.59999847412</ele>
        <time>2025-06-08T09:55:35.000Z</time>
      </trkpt>
      <trkpt lat="48.38464" lon="2.4619">
        <ele>118.59999847412</ele>
        <time>2025-06-08T09:55:41.000Z</time>
      </trkpt>
      <trkpt lat="48.38464" lon="2.46196">
        <ele>118.59999847412</ele>
        <time>2025-06-08T09:55:42.000Z</time>
      </trkpt>
      <trkpt lat="48.3847" lon="2.46211">
        <ele>118.80000305176</ele>
        <time>2025-06-08T09:55:45.000Z</time>
      </trkpt>
      <trkpt lat="48.38489" lon="2.4626">
        <ele>119</ele>
        <time>2025-06-08T09:55:53.000Z</time>
      </trkpt>
      <trkpt lat="48.38503" lon="2.463">
        <ele>119.19999694824</ele>
        <time>2025-06-08T09:55:59.000Z</time>
      </trkpt>
      <trkpt lat="48.38505" lon="2.46307">
        <ele>119.19999694824</ele>
        <time>2025-06-08T09:56:00.000Z</time>
      </trkpt>
      <trkpt lat="48.38519" lon="2.46343">
        <ele>119.19999694824</ele>
        <time>2025-06-08T09:56:06.000Z</time>
      </trkpt>
      <trkpt lat="48.38522" lon="2.46346">
        <ele>119.19999694824</ele>
        <time>2025-06-08T09:56:07.000Z</time>
      </trkpt>
      <trkpt lat="48.38533" lon="2.46365">
        <ele>119.19999694824</ele>
        <time>2025-06-08T09:56:12.000Z</time>
      </trkpt>
      <trkpt lat="48.38543" lon="2.46389">
        <ele>119</ele>
        <time>2025-06-08T09:56:18.000Z</time>
      </trkpt>
      <trkpt lat="48.38551" lon="2.46417">
        <ele>119</ele>
        <time>2025-06-08T09:56:24.000Z</time>
      </trkpt>
      <trkpt lat="48.38558" lon="2.46445">
        <ele>119.19999694824</ele>
        <time>2025-06-08T09:56:30.000Z</time>
      </trkpt>
      <trkpt lat="48.38569" lon="2.46471">
        <ele>119.19999694824</ele>
        <time>2025-06-08T09:56:37.000Z</time>
      </trkpt>
      <trkpt lat="48.38575" lon="2.465">
        <ele>119.19999694824</ele>
        <time>2025-06-08T09:56:42.000Z</time>
      </trkpt>
      <trkpt lat="48.38582" lon="2.46524">
        <ele>119</ele>
        <time>2025-06-08T09:56:47.000Z</time>
      </trkpt>
      <trkpt lat="48.38595" lon="2.46558">
        <ele>118.59999847412</ele>
        <time>2025-06-08T09:56:53.000Z</time>
      </trkpt>
      <trkpt lat="48.38604" lon="2.46582">
        <ele>118.40000152588</ele>
        <time>2025-06-08T09:56:58.000Z</time>
      </trkpt>
      <trkpt lat="48.38608" lon="2.46594">
        <ele>118.19999694824</ele>
        <time>2025-06-08T09:57:02.000Z</time>
      </trkpt>
      <trkpt lat="48.38607" lon="2.46595">
        <ele>118.19999694824</ele>
        <time>2025-06-08T09:57:03.000Z</time>
      </trkpt>
      <trkpt lat="48.386" lon="2.46603">
        <ele>118</ele>
        <time>2025-06-08T09:57:08.000Z</time>
      </trkpt>
      <trkpt lat="48.38591" lon="2.46615">
        <ele>118</ele>
        <time>2025-06-08T09:57:15.000Z</time>
      </trkpt>
      <trkpt lat="48.38584" lon="2.46617">
        <ele>117.59999847412</ele>
        <time>2025-06-08T09:57:19.000Z</time>
      </trkpt>
      <trkpt lat="48.38582" lon="2.46617">
        <ele>117.40000152588</ele>
        <time>2025-06-08T09:57:20.000Z</time>
      </trkpt>
      <trkpt lat="48.38575" lon="2.46619">
        <ele>117.19999694824</ele>
        <time>2025-06-08T09:57:25.000Z</time>
      </trkpt>
      <trkpt lat="48.38569" lon="2.46629">
        <ele>117</ele>
        <time>2025-06-08T09:57:29.000Z</time>
      </trkpt>
      <trkpt lat="48.38575" lon="2.46634">
        <ele>116.80000305176</ele>
        <time>2025-06-08T09:57:32.000Z</time>
      </trkpt>
      <trkpt lat="48.38577" lon="2.46636">
        <ele>116.80000305176</ele>
        <time>2025-06-08T09:57:33.000Z</time>
      </trkpt>
      <trkpt lat="48.38587" lon="2.46642">
        <ele>116.40000152588</ele>
        <time>2025-06-08T09:57:37.000Z</time>
      </trkpt>
      <trkpt lat="48.38592" lon="2.46647">
        <ele>115.40000152588</ele>
        <time>2025-06-08T09:57:39.000Z</time>
      </trkpt>
      <trkpt lat="48.38594" lon="2.46649">
        <ele>113.59999847412</ele>
        <time>2025-06-08T09:57:40.000Z</time>
      </trkpt>
      <trkpt lat="48.38598" lon="2.46654">
        <ele>112</ele>
        <time>2025-06-08T09:57:42.000Z</time>
      </trkpt>
      <trkpt lat="48.38604" lon="2.46663">
        <ele>110.59999847412</ele>
        <time>2025-06-08T09:57:45.000Z</time>
      </trkpt>
      <trkpt lat="48.38607" lon="2.46667">
        <ele>109.59999847412</ele>
        <time>2025-06-08T09:57:47.000Z</time>
      </trkpt>
      <trkpt lat="48.38608" lon="2.46669">
        <ele>108.19999694824</ele>
        <time>2025-06-08T09:57:49.000Z</time>
      </trkpt>
      <trkpt lat="48.38611" lon="2.46676">
        <ele>107.19999694824</ele>
        <time>2025-06-08T09:57:53.000Z</time>
      </trkpt>
      <trkpt lat="48.38612" lon="2.4668">
        <ele>107</ele>
        <time>2025-06-08T09:57:55.000Z</time>
      </trkpt>
      <trkpt lat="48.38606" lon="2.46681">
        <ele>106.80000305176</ele>
        <time>2025-06-08T09:57:59.000Z</time>
      </trkpt>
      <trkpt lat="48.38605" lon="2.46681">
        <ele>106.80000305176</ele>
        <time>2025-06-08T09:58:00.000Z</time>
      </trkpt>
      <trkpt lat="48.38602" lon="2.46686">
        <ele>106</ele>
        <time>2025-06-08T09:58:03.000Z</time>
      </trkpt>
      <trkpt lat="48.386" lon="2.46691">
        <ele>105.19999694824</ele>
        <time>2025-06-08T09:58:04.000Z</time>
      </trkpt>
      <trkpt lat="48.38599" lon="2.46697">
        <ele>104.80000305176</ele>
        <time>2025-06-08T09:58:05.000Z</time>
      </trkpt>
      <trkpt lat="48.38598" lon="2.46705">
        <ele>104.40000152588</ele>
        <time>2025-06-08T09:58:06.000Z</time>
      </trkpt>
      <trkpt lat="48.38597" lon="2.46717">
        <ele>103.80000305176</ele>
        <time>2025-06-08T09:58:07.000Z</time>
      </trkpt>
      <trkpt lat="48.38596" lon="2.46742">
        <ele>102.80000305176</ele>
        <time>2025-06-08T09:58:09.000Z</time>
      </trkpt>
      <trkpt lat="48.38595" lon="2.46759">
        <ele>101.80000305176</ele>
        <time>2025-06-08T09:58:10.000Z</time>
      </trkpt>
      <trkpt lat="48.38593" lon="2.46776">
        <ele>100.19999694824</ele>
        <time>2025-06-08T09:58:11.000Z</time>
      </trkpt>
      <trkpt lat="48.38593" lon="2.46794">
        <ele>98.199996948242</ele>
        <time>2025-06-08T09:58:12.000Z</time>
      </trkpt>
      <trkpt lat="48.38593" lon="2.46813">
        <ele>95.800003051758</ele>
        <time>2025-06-08T09:58:13.000Z</time>
      </trkpt>
      <trkpt lat="48.38593" lon="2.4683">
        <ele>93.400001525879</ele>
        <time>2025-06-08T09:58:14.000Z</time>
      </trkpt>
      <trkpt lat="48.38595" lon="2.46847">
        <ele>91</ele>
        <time>2025-06-08T09:58:15.000Z</time>
      </trkpt>
      <trkpt lat="48.38596" lon="2.46862">
        <ele>89</ele>
        <time>2025-06-08T09:58:16.000Z</time>
      </trkpt>
      <trkpt lat="48.38598" lon="2.46878">
        <ele>86.400001525879</ele>
        <time>2025-06-08T09:58:17.000Z</time>
      </trkpt>
      <trkpt lat="48.38601" lon="2.46894">
        <ele>84.199996948242</ele>
        <time>2025-06-08T09:58:18.000Z</time>
      </trkpt>
      <trkpt lat="48.38605" lon="2.46909">
        <ele>81.400001525879</ele>
        <time>2025-06-08T09:58:19.000Z</time>
      </trkpt>
      <trkpt lat="48.38609" lon="2.46924">
        <ele>79.400001525879</ele>
        <time>2025-06-08T09:58:20.000Z</time>
      </trkpt>
      <trkpt lat="48.38617" lon="2.46939">
        <ele>78</ele>
        <time>2025-06-08T09:58:21.000Z</time>
      </trkpt>
      <trkpt lat="48.38622" lon="2.46953">
        <ele>77</ele>
        <time>2025-06-08T09:58:22.000Z</time>
      </trkpt>
      <trkpt lat="48.38632" lon="2.46977">
        <ele>75.800003051758</ele>
        <time>2025-06-08T09:58:24.000Z</time>
      </trkpt>
      <trkpt lat="48.38638" lon="2.46996">
        <ele>74.800003051758</ele>
        <time>2025-06-08T09:58:26.000Z</time>
      </trkpt>
      <trkpt lat="48.38639" lon="2.47003">
        <ele>74.599998474121</ele>
        <time>2025-06-08T09:58:27.000Z</time>
      </trkpt>
      <trkpt lat="48.38634" lon="2.47017">
        <ele>74.199996948242</ele>
        <time>2025-06-08T09:58:30.000Z</time>
      </trkpt>
      <trkpt lat="48.38632" lon="2.47018">
        <ele>74.199996948242</ele>
        <time>2025-06-08T09:58:31.000Z</time>
      </trkpt>
      <trkpt lat="48.38627" lon="2.47012">
        <ele>74.199996948242</ele>
        <time>2025-06-08T09:58:33.000Z</time>
      </trkpt>
      <trkpt lat="48.38611" lon="2.47005">
        <ele>74.400001525879</ele>
        <time>2025-06-08T09:58:38.000Z</time>
      </trkpt>
      <trkpt lat="48.38602" lon="2.46998">
        <ele>75.599998474121</ele>
        <time>2025-06-08T09:58:43.000Z</time>
      </trkpt>
      <trkpt lat="48.38596" lon="2.46986">
        <ele>76.800003051758</ele>
        <time>2025-06-08T09:58:47.000Z</time>
      </trkpt>
      <trkpt lat="48.38595" lon="2.46984">
        <ele>77.199996948242</ele>
        <time>2025-06-08T09:58:48.000Z</time>
      </trkpt>
      <trkpt lat="48.38591" lon="2.4698">
        <ele>77.800003051758</ele>
        <time>2025-06-08T09:58:51.000Z</time>
      </trkpt>
      <trkpt lat="48.38588" lon="2.46979">
        <ele>78.199996948242</ele>
        <time>2025-06-08T09:58:52.000Z</time>
      </trkpt>
      <trkpt lat="48.38587" lon="2.46978">
        <ele>78.400001525879</ele>
        <time>2025-06-08T09:58:53.000Z</time>
      </trkpt>
      <trkpt lat="48.38581" lon="2.46973">
        <ele>79.400001525879</ele>
        <time>2025-06-08T09:58:56.000Z</time>
      </trkpt>
      <trkpt lat="48.38576" lon="2.46965">
        <ele>80.199996948242</ele>
        <time>2025-06-08T09:59:00.000Z</time>
      </trkpt>
      <trkpt lat="48.38575" lon="2.46963">
        <ele>80.400001525879</ele>
        <time>2025-06-08T09:59:01.000Z</time>
      </trkpt>
      <trkpt lat="48.38567" lon="2.46959">
        <ele>81.199996948242</ele>
        <time>2025-06-08T09:59:05.000Z</time>
      </trkpt>
      <trkpt lat="48.38565" lon="2.46959">
        <ele>81.800003051758</ele>
        <time>2025-06-08T09:59:06.000Z</time>
      </trkpt>
      <trkpt lat="48.38562" lon="2.46961">
        <ele>82.400001525879</ele>
        <time>2025-06-08T09:59:09.000Z</time>
      </trkpt>
      <trkpt lat="48.38557" lon="2.46963">
        <ele>82.800003051758</ele>
        <time>2025-06-08T09:59:11.000Z</time>
      </trkpt>
      <trkpt lat="48.38552" lon="2.46963">
        <ele>83.599998474121</ele>
        <time>2025-06-08T09:59:14.000Z</time>
      </trkpt>
      <trkpt lat="48.3855" lon="2.46963">
        <ele>84</ele>
        <time>2025-06-08T09:59:15.000Z</time>
      </trkpt>
      <trkpt lat="48.38546" lon="2.46964">
        <ele>84.599998474121</ele>
        <time>2025-06-08T09:59:18.000Z</time>
      </trkpt>
      <trkpt lat="48.3854" lon="2.46965">
        <ele>85.199996948242</ele>
        <time>2025-06-08T09:59:21.000Z</time>
      </trkpt>
      <trkpt lat="48.38536" lon="2.46966">
        <ele>86.599998474121</ele>
        <time>2025-06-08T09:59:24.000Z</time>
      </trkpt>
      <trkpt lat="48.38532" lon="2.46967">
        <ele>87.400001525879</ele>
        <time>2025-06-08T09:59:26.000Z</time>
      </trkpt>
      <trkpt lat="48.3853" lon="2.46968">
        <ele>87.800003051758</ele>
        <time>2025-06-08T09:59:27.000Z</time>
      </trkpt>
      <trkpt lat="48.38527" lon="2.46969">
        <ele>88.199996948242</ele>
        <time>2025-06-08T09:59:29.000Z</time>
      </trkpt>
      <trkpt lat="48.3852" lon="2.46967">
        <ele>88.800003051758</ele>
        <time>2025-06-08T09:59:32.000Z</time>
      </trkpt>
      <trkpt lat="48.38516" lon="2.46969">
        <ele>89.400001525879</ele>
        <time>2025-06-08T09:59:35.000Z</time>
      </trkpt>
      <trkpt lat="48.38514" lon="2.46975">
        <ele>89.400001525879</ele>
        <time>2025-06-08T09:59:37.000Z</time>
      </trkpt>
      <trkpt lat="48.38509" lon="2.46999">
        <ele>89.400001525879</ele>
        <time>2025-06-08T09:59:42.000Z</time>
      </trkpt>
      <trkpt lat="48.38508" lon="2.47004">
        <ele>89.400001525879</ele>
        <time>2025-06-08T09:59:43.000Z</time>
      </trkpt>
      <trkpt lat="48.38503" lon="2.47028">
        <ele>87</ele>
        <time>2025-06-08T09:59:48.000Z</time>
      </trkpt>
      <trkpt lat="48.38502" lon="2.47032">
        <ele>86.199996948242</ele>
        <time>2025-06-08T09:59:49.000Z</time>
      </trkpt>
      <trkpt lat="48.38502" lon="2.47036">
        <ele>85.599998474121</ele>
        <time>2025-06-08T09:59:50.000Z</time>
      </trkpt>
      <trkpt lat="48.38499" lon="2.47055">
        <ele>84.400001525879</ele>
        <time>2025-06-08T09:59:54.000Z</time>
      </trkpt>
      <trkpt lat="48.38494" lon="2.47067">
        <ele>84</ele>
        <time>2025-06-08T09:59:57.000Z</time>
      </trkpt>
      <trkpt lat="48.38491" lon="2.47069">
        <ele>83.800003051758</ele>
        <time>2025-06-08T09:59:59.000Z</time>
      </trkpt>
      <trkpt lat="48.38479" lon="2.47079">
        <ele>84</ele>
        <time>2025-06-08T10:00:05.000Z</time>
      </trkpt>
      <trkpt lat="48.38475" lon="2.47096">
        <ele>84</ele>
        <time>2025-06-08T10:00:09.000Z</time>
      </trkpt>
      <trkpt lat="48.38475" lon="2.4711">
        <ele>84</ele>
        <time>2025-06-08T10:00:13.000Z</time>
      </trkpt>
      <trkpt lat="48.38476" lon="2.47111">
        <ele>84</ele>
        <time>2025-06-08T10:00:14.000Z</time>
      </trkpt>
      <trkpt lat="48.3848" lon="2.47122">
        <ele>83.599998474121</ele>
        <time>2025-06-08T10:00:18.000Z</time>
      </trkpt>
      <trkpt lat="48.38478" lon="2.4713">
        <ele>83.400001525879</ele>
        <time>2025-06-08T10:00:20.000Z</time>
      </trkpt>
      <trkpt lat="48.38476" lon="2.47137">
        <ele>83.199996948242</ele>
        <time>2025-06-08T10:00:22.000Z</time>
      </trkpt>
      <trkpt lat="48.38475" lon="2.47141">
        <ele>83.199996948242</ele>
        <time>2025-06-08T10:00:23.000Z</time>
      </trkpt>
      <trkpt lat="48.38472" lon="2.47166">
        <ele>82.599998474121</ele>
        <time>2025-06-08T10:00:28.000Z</time>
      </trkpt>
      <trkpt lat="48.38472" lon="2.47171">
        <ele>82.400001525879</ele>
        <time>2025-06-08T10:00:29.000Z</time>
      </trkpt>
      <trkpt lat="48.3847" lon="2.47178">
        <ele>81.800003051758</ele>
        <time>2025-06-08T10:00:32.000Z</time>
      </trkpt>
      <trkpt lat="48.38468" lon="2.47179">
        <ele>81</ele>
        <time>2025-06-08T10:00:33.000Z</time>
      </trkpt>
      <trkpt lat="48.38462" lon="2.47174">
        <ele>80</ele>
        <time>2025-06-08T10:00:37.000Z</time>
      </trkpt>
      <trkpt lat="48.38459" lon="2.47173">
        <ele>79.800003051758</ele>
        <time>2025-06-08T10:00:38.000Z</time>
      </trkpt>
      <trkpt lat="48.38451" lon="2.47164">
        <ele>79.199996948242</ele>
        <time>2025-06-08T10:00:42.000Z</time>
      </trkpt>
      <trkpt lat="48.38443" lon="2.47158">
        <ele>79.199996948242</ele>
        <time>2025-06-08T10:00:47.000Z</time>
      </trkpt>
      <trkpt lat="48.38434" lon="2.47147">
        <ele>79.599998474121</ele>
        <time>2025-06-08T10:00:52.000Z</time>
      </trkpt>
      <trkpt lat="48.38431" lon="2.47142">
        <ele>79.800003051758</ele>
        <time>2025-06-08T10:00:54.000Z</time>
      </trkpt>
      <trkpt lat="48.38429" lon="2.47137">
        <ele>79.800003051758</ele>
        <time>2025-06-08T10:00:57.000Z</time>
      </trkpt>
      <trkpt lat="48.38428" lon="2.47128">
        <ele>81</ele>
        <time>2025-06-08T10:01:01.000Z</time>
      </trkpt>
      <trkpt lat="48.38428" lon="2.47124">
        <ele>82</ele>
        <time>2025-06-08T10:01:03.000Z</time>
      </trkpt>
      <trkpt lat="48.38428" lon="2.47122">
        <ele>82.199996948242</ele>
        <time>2025-06-08T10:01:05.000Z</time>
      </trkpt>
      <trkpt lat="48.38432" lon="2.47119">
        <ele>83.199996948242</ele>
        <time>2025-06-08T10:01:09.000Z</time>
      </trkpt>
      <trkpt lat="48.38434" lon="2.47118">
        <ele>83.599998474121</ele>
        <time>2025-06-08T10:01:10.000Z</time>
      </trkpt>
      <trkpt lat="48.38439" lon="2.47112">
        <ele>84.800003051758</ele>
        <time>2025-06-08T10:01:14.000Z</time>
      </trkpt>
      <trkpt lat="48.38439" lon="2.47107">
        <ele>85</ele>
        <time>2025-06-08T10:01:16.000Z</time>
      </trkpt>
      <trkpt lat="48.38441" lon="2.47094">
        <ele>86</ele>
        <time>2025-06-08T10:01:22.000Z</time>
      </trkpt>
      <trkpt lat="48.38441" lon="2.47091">
        <ele>86</ele>
        <time>2025-06-08T10:01:23.000Z</time>
      </trkpt>
      <trkpt lat="48.38442" lon="2.4709">
        <ele>86.400001525879</ele>
        <time>2025-06-08T10:01:24.000Z</time>
      </trkpt>
      <trkpt lat="48.38446" lon="2.47084">
        <ele>87.199996948242</ele>
        <time>2025-06-08T10:01:27.000Z</time>
      </trkpt>
      <trkpt lat="48.38447" lon="2.47083">
        <ele>87.199996948242</ele>
        <time>2025-06-08T10:01:28.000Z</time>
      </trkpt>
      <trkpt lat="48.38457" lon="2.47078">
        <ele>87.800003051758</ele>
        <time>2025-06-08T10:01:33.000Z</time>
      </trkpt>
      <trkpt lat="48.38459" lon="2.47075">
        <ele>87.800003051758</ele>
        <time>2025-06-08T10:01:35.000Z</time>
      </trkpt>
      <trkpt lat="48.38463" lon="2.47069">
        <ele>87.800003051758</ele>
        <time>2025-06-08T10:01:37.000Z</time>
      </trkpt>
      <trkpt lat="48.38466" lon="2.47057">
        <ele>87.800003051758</ele>
        <time>2025-06-08T10:01:40.000Z</time>
      </trkpt>
      <trkpt lat="48.38467" lon="2.4705">
        <ele>87.599998474121</ele>
        <time>2025-06-08T10:01:42.000Z</time>
      </trkpt>
      <trkpt lat="48.38466" lon="2.47026">
        <ele>87.400001525879</ele>
        <time>2025-06-08T10:01:48.000Z</time>
      </trkpt>
      <trkpt lat="48.38465" lon="2.47003">
        <ele>87.800003051758</ele>
        <time>2025-06-08T10:01:54.000Z</time>
      </trkpt>
      <trkpt lat="48.38465" lon="2.46984">
        <ele>88.400001525879</ele>
        <time>2025-06-08T10:01:59.000Z</time>
      </trkpt>
      <trkpt lat="48.38464" lon="2.46978">
        <ele>89.199996948242</ele>
        <time>2025-06-08T10:02:01.000Z</time>
      </trkpt>
      <trkpt lat="48.38464" lon="2.46975">
        <ele>89.400001525879</ele>
        <time>2025-06-08T10:02:02.000Z</time>
      </trkpt>
      <trkpt lat="48.38464" lon="2.46956">
        <ele>90.400001525879</ele>
        <time>2025-06-08T10:02:07.000Z</time>
      </trkpt>
      <trkpt lat="48.38467" lon="2.46943">
        <ele>90.400001525879</ele>
        <time>2025-06-08T10:02:10.000Z</time>
      </trkpt>
      <trkpt lat="48.38468" lon="2.46941">
        <ele>90.400001525879</ele>
        <time>2025-06-08T10:02:11.000Z</time>
      </trkpt>
      <trkpt lat="48.38473" lon="2.46939">
        <ele>90.599998474121</ele>
        <time>2025-06-08T10:02:14.000Z</time>
      </trkpt>
      <trkpt lat="48.38476" lon="2.46939">
        <ele>90.599998474121</ele>
        <time>2025-06-08T10:02:16.000Z</time>
      </trkpt>
      <trkpt lat="48.38477" lon="2.4694">
        <ele>90.599998474121</ele>
        <time>2025-06-08T10:02:17.000Z</time>
      </trkpt>
      <trkpt lat="48.38482" lon="2.46945">
        <ele>91.199996948242</ele>
        <time>2025-06-08T10:02:20.000Z</time>
      </trkpt>
      <trkpt lat="48.38484" lon="2.46944">
        <ele>91.400001525879</ele>
        <time>2025-06-08T10:02:21.000Z</time>
      </trkpt>
      <trkpt lat="48.38486" lon="2.46943">
        <ele>92</ele>
        <time>2025-06-08T10:02:22.000Z</time>
      </trkpt>
      <trkpt lat="48.38491" lon="2.46936">
        <ele>93</ele>
        <time>2025-06-08T10:02:25.000Z</time>
      </trkpt>
      <trkpt lat="48.38496" lon="2.46933">
        <ele>93.199996948242</ele>
        <time>2025-06-08T10:02:27.000Z</time>
      </trkpt>
      <trkpt lat="48.38498" lon="2.46931">
        <ele>93.199996948242</ele>
        <time>2025-06-08T10:02:28.000Z</time>
      </trkpt>
      <trkpt lat="48.3851" lon="2.46917">
        <ele>93.199996948242</ele>
        <time>2025-06-08T10:02:33.000Z</time>
      </trkpt>
      <trkpt lat="48.38509" lon="2.46899">
        <ele>93.199996948242</ele>
        <time>2025-06-08T10:02:36.000Z</time>
      </trkpt>
      <trkpt lat="48.38506" lon="2.46883">
        <ele>93</ele>
        <time>2025-06-08T10:02:40.000Z</time>
      </trkpt>
      <trkpt lat="48.38507" lon="2.46874">
        <ele>93</ele>
        <time>2025-06-08T10:02:42.000Z</time>
      </trkpt>
      <trkpt lat="48.38506" lon="2.46857">
        <ele>93</ele>
        <time>2025-06-08T10:02:47.000Z</time>
      </trkpt>
      <trkpt lat="48.38501" lon="2.46833">
        <ele>93.800003051758</ele>
        <time>2025-06-08T10:02:52.000Z</time>
      </trkpt>
      <trkpt lat="48.38503" lon="2.4682">
        <ele>93.800003051758</ele>
        <time>2025-06-08T10:02:56.000Z</time>
      </trkpt>
      <trkpt lat="48.38512" lon="2.46807">
        <ele>93.599998474121</ele>
        <time>2025-06-08T10:03:00.000Z</time>
      </trkpt>
      <trkpt lat="48.38515" lon="2.46798">
        <ele>93.400001525879</ele>
        <time>2025-06-08T10:03:02.000Z</time>
      </trkpt>
      <trkpt lat="48.38523" lon="2.46781">
        <ele>92</ele>
        <time>2025-06-08T10:03:06.000Z</time>
      </trkpt>
      <trkpt lat="48.38529" lon="2.4677">
        <ele>91.800003051758</ele>
        <time>2025-06-08T10:03:11.000Z</time>
      </trkpt>
      <trkpt lat="48.3853" lon="2.46767">
        <ele>91.599998474121</ele>
        <time>2025-06-08T10:03:12.000Z</time>
      </trkpt>
      <trkpt lat="48.38533" lon="2.46762">
        <ele>91.599998474121</ele>
        <time>2025-06-08T10:03:14.000Z</time>
      </trkpt>
      <trkpt lat="48.38534" lon="2.46761">
        <ele>91.800003051758</ele>
        <time>2025-06-08T10:03:15.000Z</time>
      </trkpt>
      <trkpt lat="48.38546" lon="2.46754">
        <ele>92</ele>
        <time>2025-06-08T10:03:19.000Z</time>
      </trkpt>
      <trkpt lat="48.38552" lon="2.46739">
        <ele>92</ele>
        <time>2025-06-08T10:03:23.000Z</time>
      </trkpt>
      <trkpt lat="48.38554" lon="2.46731">
        <ele>92.199996948242</ele>
        <time>2025-06-08T10:03:26.000Z</time>
      </trkpt>
      <trkpt lat="48.38555" lon="2.46726">
        <ele>92.800003051758</ele>
        <time>2025-06-08T10:03:28.000Z</time>
      </trkpt>
      <trkpt lat="48.38556" lon="2.46723">
        <ele>93</ele>
        <time>2025-06-08T10:03:29.000Z</time>
      </trkpt>
      <trkpt lat="48.38557" lon="2.46717">
        <ele>93.400001525879</ele>
        <time>2025-06-08T10:03:31.000Z</time>
      </trkpt>
      <trkpt lat="48.3856" lon="2.46714">
        <ele>94.199996948242</ele>
        <time>2025-06-08T10:03:33.000Z</time>
      </trkpt>
      <trkpt lat="48.38563" lon="2.46712">
        <ele>95.199996948242</ele>
        <time>2025-06-08T10:03:35.000Z</time>
      </trkpt>
      <trkpt lat="48.38565" lon="2.4671">
        <ele>95.800003051758</ele>
        <time>2025-06-08T10:03:36.000Z</time>
      </trkpt>
      <trkpt lat="48.38569" lon="2.46705">
        <ele>96.800003051758</ele>
        <time>2025-06-08T10:03:39.000Z</time>
      </trkpt>
      <trkpt lat="48.38571" lon="2.46703">
        <ele>97.199996948242</ele>
        <time>2025-06-08T10:03:41.000Z</time>
      </trkpt>
      <trkpt lat="48.38579" lon="2.46695">
        <ele>98</ele>
        <time>2025-06-08T10:03:47.000Z</time>
      </trkpt>
      <trkpt lat="48.3858" lon="2.46694">
        <ele>98</ele>
        <time>2025-06-08T10:03:48.000Z</time>
      </trkpt>
      <trkpt lat="48.38581" lon="2.46693">
        <ele>98</ele>
        <time>2025-06-08T10:03:49.000Z</time>
      </trkpt>
      <trkpt lat="48.38585" lon="2.46685">
        <ele>99.199996948242</ele>
        <time>2025-06-08T10:03:53.000Z</time>
      </trkpt>
      <trkpt lat="48.38586" lon="2.46682">
        <ele>99.800003051758</ele>
        <time>2025-06-08T10:03:55.000Z</time>
      </trkpt>
      <trkpt lat="48.38587" lon="2.46681">
        <ele>100.59999847412</ele>
        <time>2025-06-08T10:03:56.000Z</time>
      </trkpt>
      <trkpt lat="48.38586" lon="2.46677">
        <ele>101.80000305176</ele>
        <time>2025-06-08T10:03:59.000Z</time>
      </trkpt>
      <trkpt lat="48.38585" lon="2.46675">
        <ele>102.40000152588</ele>
        <time>2025-06-08T10:04:01.000Z</time>
      </trkpt>
      <trkpt lat="48.38585" lon="2.46674">
        <ele>102.80000305176</ele>
        <time>2025-06-08T10:04:02.000Z</time>
      </trkpt>
      <trkpt lat="48.38581" lon="2.46672">
        <ele>103.80000305176</ele>
        <time>2025-06-08T10:04:06.000Z</time>
      </trkpt>
      <trkpt lat="48.38579" lon="2.46672">
        <ele>104.19999694824</ele>
        <time>2025-06-08T10:04:08.000Z</time>
      </trkpt>
      <trkpt lat="48.38575" lon="2.46675">
        <ele>104.59999847412</ele>
        <time>2025-06-08T10:04:12.000Z</time>
      </trkpt>
      <trkpt lat="48.38575" lon="2.46678">
        <ele>104.59999847412</ele>
        <time>2025-06-08T10:04:13.000Z</time>
      </trkpt>
      <trkpt lat="48.3857" lon="2.46697">
        <ele>104.59999847412</ele>
        <time>2025-06-08T10:04:17.000Z</time>
      </trkpt>
      <trkpt lat="48.38563" lon="2.4671">
        <ele>104.40000152588</ele>
        <time>2025-06-08T10:04:21.000Z</time>
      </trkpt>
      <trkpt lat="48.38561" lon="2.46715">
        <ele>102.59999847412</ele>
        <time>2025-06-08T10:04:23.000Z</time>
      </trkpt>
      <trkpt lat="48.38559" lon="2.46716">
        <ele>100.19999694824</ele>
        <time>2025-06-08T10:04:24.000Z</time>
      </trkpt>
      <trkpt lat="48.38557" lon="2.46718">
        <ele>99</ele>
        <time>2025-06-08T10:04:25.000Z</time>
      </trkpt>
      <trkpt lat="48.38552" lon="2.46725">
        <ele>97.800003051758</ele>
        <time>2025-06-08T10:04:27.000Z</time>
      </trkpt>
      <trkpt lat="48.38545" lon="2.46732">
        <ele>97.199996948242</ele>
        <time>2025-06-08T10:04:30.000Z</time>
      </trkpt>
      <trkpt lat="48.38539" lon="2.46734">
        <ele>97.199996948242</ele>
        <time>2025-06-08T10:04:32.000Z</time>
      </trkpt>
      <trkpt lat="48.3853" lon="2.46731">
        <ele>97.199996948242</ele>
        <time>2025-06-08T10:04:37.000Z</time>
      </trkpt>
      <trkpt lat="48.38529" lon="2.4673">
        <ele>97.199996948242</ele>
        <time>2025-06-08T10:04:38.000Z</time>
      </trkpt>
      <trkpt lat="48.38526" lon="2.4673">
        <ele>97.400001525879</ele>
        <time>2025-06-08T10:04:40.000Z</time>
      </trkpt>
      <trkpt lat="48.38518" lon="2.46733">
        <ele>98.400001525879</ele>
        <time>2025-06-08T10:04:43.000Z</time>
      </trkpt>
      <trkpt lat="48.38516" lon="2.46734">
        <ele>99</ele>
        <time>2025-06-08T10:04:44.000Z</time>
      </trkpt>
      <trkpt lat="48.38511" lon="2.46737">
        <ele>100.40000152588</ele>
        <time>2025-06-08T10:04:47.000Z</time>
      </trkpt>
      <trkpt lat="48.38507" lon="2.4674">
        <ele>100.80000305176</ele>
        <time>2025-06-08T10:04:49.000Z</time>
      </trkpt>
      <trkpt lat="48.38503" lon="2.46741">
        <ele>101</ele>
        <time>2025-06-08T10:04:52.000Z</time>
      </trkpt>
      <trkpt lat="48.38501" lon="2.46738">
        <ele>101</ele>
        <time>2025-06-08T10:04:54.000Z</time>
      </trkpt>
      <trkpt lat="48.38499" lon="2.46736">
        <ele>101.40000152588</ele>
        <time>2025-06-08T10:04:57.000Z</time>
      </trkpt>
      <trkpt lat="48.38497" lon="2.46732">
        <ele>102.80000305176</ele>
        <time>2025-06-08T10:05:00.000Z</time>
      </trkpt>
      <trkpt lat="48.38497" lon="2.46731">
        <ele>103</ele>
        <time>2025-06-08T10:05:01.000Z</time>
      </trkpt>
      <trkpt lat="48.38496" lon="2.46729">
        <ele>103.19999694824</ele>
        <time>2025-06-08T10:05:02.000Z</time>
      </trkpt>
      <trkpt lat="48.38494" lon="2.46728">
        <ele>103.80000305176</ele>
        <time>2025-06-08T10:05:05.000Z</time>
      </trkpt>
      <trkpt lat="48.38491" lon="2.46725">
        <ele>104.59999847412</ele>
        <time>2025-06-08T10:05:08.000Z</time>
      </trkpt>
      <trkpt lat="48.38487" lon="2.46725">
        <ele>105</ele>
        <time>2025-06-08T10:05:11.000Z</time>
      </trkpt>
      <trkpt lat="48.3848" lon="2.46734">
        <ele>106</ele>
        <time>2025-06-08T10:05:15.000Z</time>
      </trkpt>
      <trkpt lat="48.38479" lon="2.46739">
        <ele>106</ele>
        <time>2025-06-08T10:05:16.000Z</time>
      </trkpt>
      <trkpt lat="48.38475" lon="2.46762">
        <ele>106</ele>
        <time>2025-06-08T10:05:20.000Z</time>
      </trkpt>
      <trkpt lat="48.3847" lon="2.46767">
        <ele>106</ele>
        <time>2025-06-08T10:05:22.000Z</time>
      </trkpt>
      <trkpt lat="48.38467" lon="2.46767">
        <ele>105.59999847412</ele>
        <time>2025-06-08T10:05:23.000Z</time>
      </trkpt>
      <trkpt lat="48.38458" lon="2.46764">
        <ele>103.40000152588</ele>
        <time>2025-06-08T10:05:26.000Z</time>
      </trkpt>
      <trkpt lat="48.38452" lon="2.46765">
        <ele>102.59999847412</ele>
        <time>2025-06-08T10:05:28.000Z</time>
      </trkpt>
      <trkpt lat="48.38449" lon="2.46768">
        <ele>102.19999694824</ele>
        <time>2025-06-08T10:05:29.000Z</time>
      </trkpt>
      <trkpt lat="48.38436" lon="2.46784">
        <ele>101.59999847412</ele>
        <time>2025-06-08T10:05:33.000Z</time>
      </trkpt>
      <trkpt lat="48.38426" lon="2.46787">
        <ele>101.40000152588</ele>
        <time>2025-06-08T10:05:35.000Z</time>
      </trkpt>
      <trkpt lat="48.38415" lon="2.46792">
        <ele>101.19999694824</ele>
        <time>2025-06-08T10:05:37.000Z</time>
      </trkpt>
      <trkpt lat="48.38409" lon="2.46795">
        <ele>100</ele>
        <time>2025-06-08T10:05:39.000Z</time>
      </trkpt>
      <trkpt lat="48.38406" lon="2.46794">
        <ele>99.599998474121</ele>
        <time>2025-06-08T10:05:40.000Z</time>
      </trkpt>
      <trkpt lat="48.38403" lon="2.46794">
        <ele>99</ele>
        <time>2025-06-08T10:05:41.000Z</time>
      </trkpt>
      <trkpt lat="48.38396" lon="2.46794">
        <ele>97</ele>
        <time>2025-06-08T10:05:43.000Z</time>
      </trkpt>
      <trkpt lat="48.38383" lon="2.46794">
        <ele>96.199996948242</ele>
        <time>2025-06-08T10:05:46.000Z</time>
      </trkpt>
      <trkpt lat="48.38378" lon="2.46795">
        <ele>96</ele>
        <time>2025-06-08T10:05:47.000Z</time>
      </trkpt>
      <trkpt lat="48.38368" lon="2.468">
        <ele>96</ele>
        <time>2025-06-08T10:05:49.000Z</time>
      </trkpt>
      <trkpt lat="48.38358" lon="2.46803">
        <ele>95.800003051758</ele>
        <time>2025-06-08T10:05:51.000Z</time>
      </trkpt>
      <trkpt lat="48.38347" lon="2.46798">
        <ele>95.199996948242</ele>
        <time>2025-06-08T10:05:54.000Z</time>
      </trkpt>
      <trkpt lat="48.38344" lon="2.46793">
        <ele>94.400001525879</ele>
        <time>2025-06-08T10:05:55.000Z</time>
      </trkpt>
      <trkpt lat="48.38339" lon="2.4678">
        <ele>92.800003051758</ele>
        <time>2025-06-08T10:05:58.000Z</time>
      </trkpt>
      <trkpt lat="48.38338" lon="2.46776">
        <ele>92</ele>
        <time>2025-06-08T10:05:59.000Z</time>
      </trkpt>
      <trkpt lat="48.38336" lon="2.46772">
        <ele>91.400001525879</ele>
        <time>2025-06-08T10:06:00.000Z</time>
      </trkpt>
      <trkpt lat="48.38333" lon="2.46758">
        <ele>90.400001525879</ele>
        <time>2025-06-08T10:06:03.000Z</time>
      </trkpt>
      <trkpt lat="48.38332" lon="2.46753">
        <ele>90.400001525879</ele>
        <time>2025-06-08T10:06:04.000Z</time>
      </trkpt>
      <trkpt lat="48.38332" lon="2.46737">
        <ele>90.199996948242</ele>
        <time>2025-06-08T10:06:08.000Z</time>
      </trkpt>
      <trkpt lat="48.38334" lon="2.46712">
        <ele>91.199996948242</ele>
        <time>2025-06-08T10:06:14.000Z</time>
      </trkpt>
      <trkpt lat="48.38334" lon="2.46709">
        <ele>91.599998474121</ele>
        <time>2025-06-08T10:06:15.000Z</time>
      </trkpt>
      <trkpt lat="48.38336" lon="2.46704">
        <ele>92</ele>
        <time>2025-06-08T10:06:17.000Z</time>
      </trkpt>
      <trkpt lat="48.38338" lon="2.467">
        <ele>92.199996948242</ele>
        <time>2025-06-08T10:06:19.000Z</time>
      </trkpt>
      <trkpt lat="48.38341" lon="2.46698">
        <ele>93</ele>
        <time>2025-06-08T10:06:21.000Z</time>
      </trkpt>
      <trkpt lat="48.38341" lon="2.46697">
        <ele>93.199996948242</ele>
        <time>2025-06-08T10:06:22.000Z</time>
      </trkpt>
      <trkpt lat="48.38344" lon="2.46692">
        <ele>94</ele>
        <time>2025-06-08T10:06:25.000Z</time>
      </trkpt>
      <trkpt lat="48.38348" lon="2.46687">
        <ele>95.199996948242</ele>
        <time>2025-06-08T10:06:30.000Z</time>
      </trkpt>
      <trkpt lat="48.3835" lon="2.46684">
        <ele>96</ele>
        <time>2025-06-08T10:06:32.000Z</time>
      </trkpt>
      <trkpt lat="48.38351" lon="2.46681">
        <ele>96.199996948242</ele>
        <time>2025-06-08T10:06:34.000Z</time>
      </trkpt>
      <trkpt lat="48.38351" lon="2.46679">
        <ele>96.400001525879</ele>
        <time>2025-06-08T10:06:35.000Z</time>
      </trkpt>
      <trkpt lat="48.3835" lon="2.46675">
        <ele>96.800003051758</ele>
        <time>2025-06-08T10:06:37.000Z</time>
      </trkpt>
      <trkpt lat="48.38347" lon="2.4667">
        <ele>97.400001525879</ele>
        <time>2025-06-08T10:06:39.000Z</time>
      </trkpt>
      <trkpt lat="48.38342" lon="2.4666">
        <ele>98</ele>
        <time>2025-06-08T10:06:42.000Z</time>
      </trkpt>
      <trkpt lat="48.38338" lon="2.46654">
        <ele>98.400001525879</ele>
        <time>2025-06-08T10:06:45.000Z</time>
      </trkpt>
      <trkpt lat="48.38335" lon="2.46653">
        <ele>98.599998474121</ele>
        <time>2025-06-08T10:06:46.000Z</time>
      </trkpt>
      <trkpt lat="48.38322" lon="2.46654">
        <ele>98.800003051758</ele>
        <time>2025-06-08T10:06:50.000Z</time>
      </trkpt>
      <trkpt lat="48.38308" lon="2.46647">
        <ele>98.199996948242</ele>
        <time>2025-06-08T10:06:54.000Z</time>
      </trkpt>
      <trkpt lat="48.38301" lon="2.46642">
        <ele>97.599998474121</ele>
        <time>2025-06-08T10:06:56.000Z</time>
      </trkpt>
      <trkpt lat="48.38293" lon="2.46641">
        <ele>96.199996948242</ele>
        <time>2025-06-08T10:06:58.000Z</time>
      </trkpt>
      <trkpt lat="48.38289" lon="2.46642">
        <ele>95.599998474121</ele>
        <time>2025-06-08T10:06:59.000Z</time>
      </trkpt>
      <trkpt lat="48.38284" lon="2.46642">
        <ele>95</ele>
        <time>2025-06-08T10:07:00.000Z</time>
      </trkpt>
      <trkpt lat="48.38271" lon="2.46635">
        <ele>93.599998474121</ele>
        <time>2025-06-08T10:07:03.000Z</time>
      </trkpt>
      <trkpt lat="48.38265" lon="2.46627">
        <ele>92.599998474121</ele>
        <time>2025-06-08T10:07:05.000Z</time>
      </trkpt>
      <trkpt lat="48.38263" lon="2.46623">
        <ele>91.599998474121</ele>
        <time>2025-06-08T10:07:06.000Z</time>
      </trkpt>
      <trkpt lat="48.3826" lon="2.46619">
        <ele>90.599998474121</ele>
        <time>2025-06-08T10:07:07.000Z</time>
      </trkpt>
      <trkpt lat="48.38257" lon="2.46616">
        <ele>89.400001525879</ele>
        <time>2025-06-08T10:07:08.000Z</time>
      </trkpt>
      <trkpt lat="48.38254" lon="2.46612">
        <ele>88.400001525879</ele>
        <time>2025-06-08T10:07:09.000Z</time>
      </trkpt>
      <trkpt lat="48.38251" lon="2.46609">
        <ele>87.800003051758</ele>
        <time>2025-06-08T10:07:10.000Z</time>
      </trkpt>
      <trkpt lat="48.3824" lon="2.46591">
        <ele>87</ele>
        <time>2025-06-08T10:07:15.000Z</time>
      </trkpt>
      <trkpt lat="48.38237" lon="2.4658">
        <ele>86.800003051758</ele>
        <time>2025-06-08T10:07:18.000Z</time>
      </trkpt>
      <trkpt lat="48.38238" lon="2.46573">
        <ele>86.800003051758</ele>
        <time>2025-06-08T10:07:20.000Z</time>
      </trkpt>
      <trkpt lat="48.38241" lon="2.46569">
        <ele>87</ele>
        <time>2025-06-08T10:07:22.000Z</time>
      </trkpt>
      <trkpt lat="48.38247" lon="2.46562">
        <ele>87</ele>
        <time>2025-06-08T10:07:26.000Z</time>
      </trkpt>
      <trkpt lat="48.38252" lon="2.46552">
        <ele>88.800003051758</ele>
        <time>2025-06-08T10:07:31.000Z</time>
      </trkpt>
      <trkpt lat="48.38254" lon="2.46548">
        <ele>89.400001525879</ele>
        <time>2025-06-08T10:07:33.000Z</time>
      </trkpt>
      <trkpt lat="48.38255" lon="2.46547">
        <ele>90</ele>
        <time>2025-06-08T10:07:34.000Z</time>
      </trkpt>
      <trkpt lat="48.38257" lon="2.46541">
        <ele>91.199996948242</ele>
        <time>2025-06-08T10:07:38.000Z</time>
      </trkpt>
      <trkpt lat="48.38257" lon="2.46539">
        <ele>91.400001525879</ele>
        <time>2025-06-08T10:07:39.000Z</time>
      </trkpt>
      <trkpt lat="48.38257" lon="2.46534">
        <ele>92.199996948242</ele>
        <time>2025-06-08T10:07:42.000Z</time>
      </trkpt>
      <trkpt lat="48.38258" lon="2.46527">
        <ele>93.400001525879</ele>
        <time>2025-06-08T10:07:46.000Z</time>
      </trkpt>
      <trkpt lat="48.38259" lon="2.46525">
        <ele>93.800003051758</ele>
        <time>2025-06-08T10:07:47.000Z</time>
      </trkpt>
      <trkpt lat="48.3826" lon="2.46519">
        <ele>94.599998474121</ele>
        <time>2025-06-08T10:07:50.000Z</time>
      </trkpt>
      <trkpt lat="48.38259" lon="2.46515">
        <ele>95.199996948242</ele>
        <time>2025-06-08T10:07:52.000Z</time>
      </trkpt>
      <trkpt lat="48.38258" lon="2.4651">
        <ele>95.800003051758</ele>
        <time>2025-06-08T10:07:54.000Z</time>
      </trkpt>
      <trkpt lat="48.38251" lon="2.46492">
        <ele>96.199996948242</ele>
        <time>2025-06-08T10:07:58.000Z</time>
      </trkpt>
      <trkpt lat="48.38251" lon="2.46479">
        <ele>96.599998474121</ele>
        <time>2025-06-08T10:08:02.000Z</time>
      </trkpt>
      <trkpt lat="48.38253" lon="2.46471">
        <ele>97</ele>
        <time>2025-06-08T10:08:05.000Z</time>
      </trkpt>
      <trkpt lat="48.38256" lon="2.46468">
        <ele>97.199996948242</ele>
        <time>2025-06-08T10:08:08.000Z</time>
      </trkpt>
      <trkpt lat="48.38259" lon="2.46461">
        <ele>98</ele>
        <time>2025-06-08T10:08:13.000Z</time>
      </trkpt>
      <trkpt lat="48.3826" lon="2.46457">
        <ele>98.800003051758</ele>
        <time>2025-06-08T10:08:16.000Z</time>
      </trkpt>
      <trkpt lat="48.38261" lon="2.46456">
        <ele>99.599998474121</ele>
        <time>2025-06-08T10:08:17.000Z</time>
      </trkpt>
      <trkpt lat="48.38263" lon="2.46448">
        <ele>100.80000305176</ele>
        <time>2025-06-08T10:08:21.000Z</time>
      </trkpt>
      <trkpt lat="48.38264" lon="2.46443">
        <ele>101.59999847412</ele>
        <time>2025-06-08T10:08:24.000Z</time>
      </trkpt>
      <trkpt lat="48.38265" lon="2.4644">
        <ele>102</ele>
        <time>2025-06-08T10:08:25.000Z</time>
      </trkpt>
      <trkpt lat="48.38269" lon="2.4643">
        <ele>103.19999694824</ele>
        <time>2025-06-08T10:08:30.000Z</time>
      </trkpt>
      <trkpt lat="48.38269" lon="2.46429">
        <ele>103.40000152588</ele>
        <time>2025-06-08T10:08:31.000Z</time>
      </trkpt>
      <trkpt lat="48.38272" lon="2.46425">
        <ele>104.19999694824</ele>
        <time>2025-06-08T10:08:34.000Z</time>
      </trkpt>
      <trkpt lat="48.38273" lon="2.46423">
        <ele>104.40000152588</ele>
        <time>2025-06-08T10:08:35.000Z</time>
      </trkpt>
      <trkpt lat="48.38276" lon="2.46415">
        <ele>105.19999694824</ele>
        <time>2025-06-08T10:08:39.000Z</time>
      </trkpt>
      <trkpt lat="48.38277" lon="2.46413">
        <ele>105.40000152588</ele>
        <time>2025-06-08T10:08:40.000Z</time>
      </trkpt>
      <trkpt lat="48.38281" lon="2.46404">
        <ele>106</ele>
        <time>2025-06-08T10:08:45.000Z</time>
      </trkpt>
      <trkpt lat="48.38282" lon="2.46398">
        <ele>106.19999694824</ele>
        <time>2025-06-08T10:08:47.000Z</time>
      </trkpt>
      <trkpt lat="48.38282" lon="2.46396">
        <ele>106.40000152588</ele>
        <time>2025-06-08T10:08:48.000Z</time>
      </trkpt>
      <trkpt lat="48.38281" lon="2.46388">
        <ele>107.40000152588</ele>
        <time>2025-06-08T10:08:51.000Z</time>
      </trkpt>
      <trkpt lat="48.38279" lon="2.46384">
        <ele>107.80000305176</ele>
        <time>2025-06-08T10:08:53.000Z</time>
      </trkpt>
      <trkpt lat="48.38269" lon="2.46375">
        <ele>108.19999694824</ele>
        <time>2025-06-08T10:08:59.000Z</time>
      </trkpt>
      <trkpt lat="48.38266" lon="2.46374">
        <ele>108.40000152588</ele>
        <time>2025-06-08T10:09:01.000Z</time>
      </trkpt>
      <trkpt lat="48.38262" lon="2.46365">
        <ele>108.40000152588</ele>
        <time>2025-06-08T10:09:04.000Z</time>
      </trkpt>
      <trkpt lat="48.38262" lon="2.46355">
        <ele>108.40000152588</ele>
        <time>2025-06-08T10:09:07.000Z</time>
      </trkpt>
      <trkpt lat="48.38264" lon="2.4635">
        <ele>108.59999847412</ele>
        <time>2025-06-08T10:09:09.000Z</time>
      </trkpt>
      <trkpt lat="48.38265" lon="2.46348">
        <ele>108.59999847412</ele>
        <time>2025-06-08T10:09:10.000Z</time>
      </trkpt>
      <trkpt lat="48.38271" lon="2.46336">
        <ele>109.40000152588</ele>
        <time>2025-06-08T10:09:16.000Z</time>
      </trkpt>
      <trkpt lat="48.38275" lon="2.46329">
        <ele>110.59999847412</ele>
        <time>2025-06-08T10:09:20.000Z</time>
      </trkpt>
      <trkpt lat="48.38279" lon="2.46317">
        <ele>111.59999847412</ele>
        <time>2025-06-08T10:09:25.000Z</time>
      </trkpt>
      <trkpt lat="48.38286" lon="2.46299">
        <ele>112.80000305176</ele>
        <time>2025-06-08T10:09:32.000Z</time>
      </trkpt>
      <trkpt lat="48.38292" lon="2.46278">
        <ele>114</ele>
        <time>2025-06-08T10:09:38.000Z</time>
      </trkpt>
      <trkpt lat="48.38293" lon="2.46271">
        <ele>114.19999694824</ele>
        <time>2025-06-08T10:09:40.000Z</time>
      </trkpt>
      <trkpt lat="48.38302" lon="2.46251">
        <ele>114.59999847412</ele>
        <time>2025-06-08T10:09:46.000Z</time>
      </trkpt>
      <trkpt lat="48.38305" lon="2.4624">
        <ele>114.59999847412</ele>
        <time>2025-06-08T10:09:49.000Z</time>
      </trkpt>
      <trkpt lat="48.38303" lon="2.46231">
        <ele>114.59999847412</ele>
        <time>2025-06-08T10:09:51.000Z</time>
      </trkpt>
      <trkpt lat="48.38299" lon="2.46222">
        <ele>114.80000305176</ele>
        <time>2025-06-08T10:09:53.000Z</time>
      </trkpt>
      <trkpt lat="48.38294" lon="2.46206">
        <ele>114.80000305176</ele>
        <time>2025-06-08T10:09:56.000Z</time>
      </trkpt>
      <trkpt lat="48.38279" lon="2.4617">
        <ele>114.59999847412</ele>
        <time>2025-06-08T10:10:03.000Z</time>
      </trkpt>
      <trkpt lat="48.38254" lon="2.46122">
        <ele>113.80000305176</ele>
        <time>2025-06-08T10:10:12.000Z</time>
      </trkpt>
      <trkpt lat="48.38229" lon="2.46074">
        <ele>114.59999847412</ele>
        <time>2025-06-08T10:10:20.000Z</time>
      </trkpt>
      <trkpt lat="48.38202" lon="2.46024">
        <ele>114.59999847412</ele>
        <time>2025-06-08T10:10:28.000Z</time>
      </trkpt>
      <trkpt lat="48.3818" lon="2.45984">
        <ele>114.40000152588</ele>
        <time>2025-06-08T10:10:35.000Z</time>
      </trkpt>
      <trkpt lat="48.3816" lon="2.45951">
        <ele>114.19999694824</ele>
        <time>2025-06-08T10:10:41.000Z</time>
      </trkpt>
      <trkpt lat="48.38127" lon="2.45903">
        <ele>114.19999694824</ele>
        <time>2025-06-08T10:10:50.000Z</time>
      </trkpt>
      <trkpt lat="48.38094" lon="2.4586">
        <ele>114</ele>
        <time>2025-06-08T10:10:58.000Z</time>
      </trkpt>
      <trkpt lat="48.38069" lon="2.45825">
        <ele>113.59999847412</ele>
        <time>2025-06-08T10:11:04.000Z</time>
      </trkpt>
      <trkpt lat="48.38037" lon="2.45782">
        <ele>113.19999694824</ele>
        <time>2025-06-08T10:11:11.000Z</time>
      </trkpt>
      <trkpt lat="48.38001" lon="2.45736">
        <ele>113</ele>
        <time>2025-06-08T10:11:18.000Z</time>
      </trkpt>
      <trkpt lat="48.37996" lon="2.4573">
        <ele>112.80000305176</ele>
        <time>2025-06-08T10:11:19.000Z</time>
      </trkpt>
      <trkpt lat="48.37967" lon="2.45688">
        <ele>112.40000152588</ele>
        <time>2025-06-08T10:11:25.000Z</time>
      </trkpt>
      <trkpt lat="48.37941" lon="2.45634">
        <ele>111.80000305176</ele>
        <time>2025-06-08T10:11:31.000Z</time>
      </trkpt>
      <trkpt lat="48.3793" lon="2.45607">
        <ele>110.59999847412</ele>
        <time>2025-06-08T10:11:34.000Z</time>
      </trkpt>
      <trkpt lat="48.37918" lon="2.45582">
        <ele>110.19999694824</ele>
        <time>2025-06-08T10:11:37.000Z</time>
      </trkpt>
      <trkpt lat="48.37892" lon="2.45543">
        <ele>110.19999694824</ele>
        <time>2025-06-08T10:11:43.000Z</time>
      </trkpt>
      <trkpt lat="48.37852" lon="2.45489">
        <ele>110.80000305176</ele>
        <time>2025-06-08T10:11:52.000Z</time>
      </trkpt>
      <trkpt lat="48.37821" lon="2.45448">
        <ele>111.59999847412</ele>
        <time>2025-06-08T10:11:59.000Z</time>
      </trkpt>
      <trkpt lat="48.37816" lon="2.45442">
        <ele>111.59999847412</ele>
        <time>2025-06-08T10:12:00.000Z</time>
      </trkpt>
      <trkpt lat="48.37776" lon="2.45404">
        <ele>111.59999847412</ele>
        <time>2025-06-08T10:12:08.000Z</time>
      </trkpt>
      <trkpt lat="48.37741" lon="2.45388">
        <ele>111.40000152588</ele>
        <time>2025-06-08T10:12:14.000Z</time>
      </trkpt>
      <trkpt lat="48.37697" lon="2.45378">
        <ele>110.59999847412</ele>
        <time>2025-06-08T10:12:21.000Z</time>
      </trkpt>
      <trkpt lat="48.37684" lon="2.45371">
        <ele>110.59999847412</ele>
        <time>2025-06-08T10:12:23.000Z</time>
      </trkpt>
      <trkpt lat="48.37677" lon="2.45367">
        <ele>110.59999847412</ele>
        <time>2025-06-08T10:12:24.000Z</time>
      </trkpt>
      <trkpt lat="48.37671" lon="2.45361">
        <ele>110.40000152588</ele>
        <time>2025-06-08T10:12:25.000Z</time>
      </trkpt>
      <trkpt lat="48.37657" lon="2.45339">
        <ele>110.19999694824</ele>
        <time>2025-06-08T10:12:28.000Z</time>
      </trkpt>
      <trkpt lat="48.37653" lon="2.45331">
        <ele>110.19999694824</ele>
        <time>2025-06-08T10:12:29.000Z</time>
      </trkpt>
      <trkpt lat="48.37632" lon="2.4528">
        <ele>109.80000305176</ele>
        <time>2025-06-08T10:12:35.000Z</time>
      </trkpt>
      <trkpt lat="48.37608" lon="2.45244">
        <ele>109.59999847412</ele>
        <time>2025-06-08T10:12:40.000Z</time>
      </trkpt>
      <trkpt lat="48.37585" lon="2.45222">
        <ele>109.40000152588</ele>
        <time>2025-06-08T10:12:44.000Z</time>
      </trkpt>
      <trkpt lat="48.37573" lon="2.45213">
        <ele>109.40000152588</ele>
        <time>2025-06-08T10:12:46.000Z</time>
      </trkpt>
      <trkpt lat="48.37535" lon="2.45184">
        <ele>109.40000152588</ele>
        <time>2025-06-08T10:12:53.000Z</time>
      </trkpt>
      <trkpt lat="48.37507" lon="2.45161">
        <ele>109.40000152588</ele>
        <time>2025-06-08T10:12:59.000Z</time>
      </trkpt>
      <trkpt lat="48.37503" lon="2.45156">
        <ele>109.40000152588</ele>
        <time>2025-06-08T10:13:00.000Z</time>
      </trkpt>
      <trkpt lat="48.37501" lon="2.45134">
        <ele>109.40000152588</ele>
        <time>2025-06-08T10:13:03.000Z</time>
      </trkpt>
      <trkpt lat="48.37503" lon="2.45119">
        <ele>109.40000152588</ele>
        <time>2025-06-08T10:13:05.000Z</time>
      </trkpt>
      <trkpt lat="48.37509" lon="2.45092">
        <ele>109.40000152588</ele>
        <time>2025-06-08T10:13:09.000Z</time>
      </trkpt>
      <trkpt lat="48.3751" lon="2.45085">
        <ele>109.40000152588</ele>
        <time>2025-06-08T10:13:10.000Z</time>
      </trkpt>
      <trkpt lat="48.3752" lon="2.45043">
        <ele>110</ele>
        <time>2025-06-08T10:13:17.000Z</time>
      </trkpt>
      <trkpt lat="48.37522" lon="2.45037">
        <ele>110.19999694824</ele>
        <time>2025-06-08T10:13:18.000Z</time>
      </trkpt>
      <trkpt lat="48.37525" lon="2.45026">
        <ele>111.80000305176</ele>
        <time>2025-06-08T10:13:20.000Z</time>
      </trkpt>
      <trkpt lat="48.3753" lon="2.45009">
        <ele>113.19999694824</ele>
        <time>2025-06-08T10:13:23.000Z</time>
      </trkpt>
      <trkpt lat="48.37533" lon="2.44998">
        <ele>113.19999694824</ele>
        <time>2025-06-08T10:13:25.000Z</time>
      </trkpt>
      <trkpt lat="48.37535" lon="2.44992">
        <ele>113.59999847412</ele>
        <time>2025-06-08T10:13:26.000Z</time>
      </trkpt>
      <trkpt lat="48.37544" lon="2.44964">
        <ele>114</ele>
        <time>2025-06-08T10:13:31.000Z</time>
      </trkpt>
      <trkpt lat="48.3755" lon="2.44942">
        <ele>115</ele>
        <time>2025-06-08T10:13:35.000Z</time>
      </trkpt>
      <trkpt lat="48.37557" lon="2.44919">
        <ele>115.19999694824</ele>
        <time>2025-06-08T10:13:39.000Z</time>
      </trkpt>
      <trkpt lat="48.37563" lon="2.44892">
        <ele>116</ele>
        <time>2025-06-08T10:13:44.000Z</time>
      </trkpt>
      <trkpt lat="48.37567" lon="2.44874">
        <ele>116.40000152588</ele>
        <time>2025-06-08T10:13:47.000Z</time>
      </trkpt>
      <trkpt lat="48.37572" lon="2.44842">
        <ele>116.40000152588</ele>
        <time>2025-06-08T10:13:52.000Z</time>
      </trkpt>
      <trkpt lat="48.37581" lon="2.44783">
        <ele>116</ele>
        <time>2025-06-08T10:14:00.000Z</time>
      </trkpt>
      <trkpt lat="48.3759" lon="2.44721">
        <ele>115.19999694824</ele>
        <time>2025-06-08T10:14:08.000Z</time>
      </trkpt>
      <trkpt lat="48.37596" lon="2.44675">
        <ele>114.80000305176</ele>
        <time>2025-06-08T10:14:14.000Z</time>
      </trkpt>
      <trkpt lat="48.37598" lon="2.44658">
        <ele>114.59999847412</ele>
        <time>2025-06-08T10:14:16.000Z</time>
      </trkpt>
      <trkpt lat="48.376" lon="2.44642">
        <ele>114.19999694824</ele>
        <time>2025-06-08T10:14:18.000Z</time>
      </trkpt>
      <trkpt lat="48.37607" lon="2.44585">
        <ele>113.59999847412</ele>
        <time>2025-06-08T10:14:25.000Z</time>
      </trkpt>
      <trkpt lat="48.37617" lon="2.44511">
        <ele>113.40000152588</ele>
        <time>2025-06-08T10:14:34.000Z</time>
      </trkpt>
      <trkpt lat="48.37627" lon="2.44442">
        <ele>113.19999694824</ele>
        <time>2025-06-08T10:14:42.000Z</time>
      </trkpt>
      <trkpt lat="48.37629" lon="2.44426">
        <ele>113.19999694824</ele>
        <time>2025-06-08T10:14:44.000Z</time>
      </trkpt>
      <trkpt lat="48.37636" lon="2.44378">
        <ele>112.59999847412</ele>
        <time>2025-06-08T10:14:50.000Z</time>
      </trkpt>
      <trkpt lat="48.37648" lon="2.44294">
        <ele>112</ele>
        <time>2025-06-08T10:15:00.000Z</time>
      </trkpt>
      <trkpt lat="48.3765" lon="2.44285">
        <ele>112</ele>
        <time>2025-06-08T10:15:01.000Z</time>
      </trkpt>
      <trkpt lat="48.37659" lon="2.44232">
        <ele>111.19999694824</ele>
        <time>2025-06-08T10:15:07.000Z</time>
      </trkpt>
      <trkpt lat="48.37667" lon="2.44188">
        <ele>111</ele>
        <time>2025-06-08T10:15:12.000Z</time>
      </trkpt>
      <trkpt lat="48.37669" lon="2.4418">
        <ele>110.59999847412</ele>
        <time>2025-06-08T10:15:13.000Z</time>
      </trkpt>
      <trkpt lat="48.37678" lon="2.44151">
        <ele>110</ele>
        <time>2025-06-08T10:15:17.000Z</time>
      </trkpt>
      <trkpt lat="48.37682" lon="2.44144">
        <ele>109.80000305176</ele>
        <time>2025-06-08T10:15:18.000Z</time>
      </trkpt>
      <trkpt lat="48.37701" lon="2.44107">
        <ele>108.80000305176</ele>
        <time>2025-06-08T10:15:23.000Z</time>
      </trkpt>
      <trkpt lat="48.37706" lon="2.44098">
        <ele>108.59999847412</ele>
        <time>2025-06-08T10:15:24.000Z</time>
      </trkpt>
      <trkpt lat="48.37717" lon="2.44081">
        <ele>107.59999847412</ele>
        <time>2025-06-08T10:15:26.000Z</time>
      </trkpt>
      <trkpt lat="48.37727" lon="2.44063">
        <ele>106.40000152588</ele>
        <time>2025-06-08T10:15:28.000Z</time>
      </trkpt>
      <trkpt lat="48.37752" lon="2.44023">
        <ele>104.80000305176</ele>
        <time>2025-06-08T10:15:33.000Z</time>
      </trkpt>
      <trkpt lat="48.37759" lon="2.44011">
        <ele>104.59999847412</ele>
        <time>2025-06-08T10:15:35.000Z</time>
      </trkpt>
      <trkpt lat="48.37771" lon="2.43998">
        <ele>104.59999847412</ele>
        <time>2025-06-08T10:15:38.000Z</time>
      </trkpt>
      <trkpt lat="48.37778" lon="2.43993">
        <ele>104.59999847412</ele>
        <time>2025-06-08T10:15:40.000Z</time>
      </trkpt>
      <trkpt lat="48.37798" lon="2.43984">
        <ele>106</ele>
        <time>2025-06-08T10:15:45.000Z</time>
      </trkpt>
      <trkpt lat="48.37811" lon="2.43976">
        <ele>106.80000305176</ele>
        <time>2025-06-08T10:15:48.000Z</time>
      </trkpt>
      <trkpt lat="48.37815" lon="2.43973">
        <ele>107.19999694824</ele>
        <time>2025-06-08T10:15:49.000Z</time>
      </trkpt>
      <trkpt lat="48.37833" lon="2.43957">
        <ele>107.19999694824</ele>
        <time>2025-06-08T10:15:53.000Z</time>
      </trkpt>
      <trkpt lat="48.37856" lon="2.43925">
        <ele>107</ele>
        <time>2025-06-08T10:15:59.000Z</time>
      </trkpt>
      <trkpt lat="48.37875" lon="2.43888">
        <ele>107</ele>
        <time>2025-06-08T10:16:06.000Z</time>
      </trkpt>
      <trkpt lat="48.37889" lon="2.43852">
        <ele>107.40000152588</ele>
        <time>2025-06-08T10:16:14.000Z</time>
      </trkpt>
      <trkpt lat="48.37899" lon="2.43826">
        <ele>108.40000152588</ele>
        <time>2025-06-08T10:16:20.000Z</time>
      </trkpt>
      <trkpt lat="48.37902" lon="2.43816">
        <ele>108.80000305176</ele>
        <time>2025-06-08T10:16:22.000Z</time>
      </trkpt>
      <trkpt lat="48.37914" lon="2.4378">
        <ele>109</ele>
        <time>2025-06-08T10:16:28.000Z</time>
      </trkpt>
      <trkpt lat="48.37932" lon="2.43745">
        <ele>107.80000305176</ele>
        <time>2025-06-08T10:16:33.000Z</time>
      </trkpt>
      <trkpt lat="48.37937" lon="2.43739">
        <ele>107.40000152588</ele>
        <time>2025-06-08T10:16:34.000Z</time>
      </trkpt>
      <trkpt lat="48.37948" lon="2.43728">
        <ele>106</ele>
        <time>2025-06-08T10:16:36.000Z</time>
      </trkpt>
      <trkpt lat="48.37959" lon="2.43719">
        <ele>104.80000305176</ele>
        <time>2025-06-08T10:16:38.000Z</time>
      </trkpt>
      <trkpt lat="48.37964" lon="2.43714">
        <ele>104.19999694824</ele>
        <time>2025-06-08T10:16:39.000Z</time>
      </trkpt>
      <trkpt lat="48.37968" lon="2.43709">
        <ele>103.59999847412</ele>
        <time>2025-06-08T10:16:40.000Z</time>
      </trkpt>
      <trkpt lat="48.37984" lon="2.43685">
        <ele>103</ele>
        <time>2025-06-08T10:16:44.000Z</time>
      </trkpt>
      <trkpt lat="48.38007" lon="2.43644">
        <ele>102.59999847412</ele>
        <time>2025-06-08T10:16:51.000Z</time>
      </trkpt>
      <trkpt lat="48.38032" lon="2.4359">
        <ele>102.80000305176</ele>
        <time>2025-06-08T10:17:00.000Z</time>
      </trkpt>
      <trkpt lat="48.38053" lon="2.43538">
        <ele>102.80000305176</ele>
        <time>2025-06-08T10:17:08.000Z</time>
      </trkpt>
      <trkpt lat="48.38072" lon="2.43493">
        <ele>103.80000305176</ele>
        <time>2025-06-08T10:17:16.000Z</time>
      </trkpt>
      <trkpt lat="48.38092" lon="2.43457">
        <ele>105</ele>
        <time>2025-06-08T10:17:24.000Z</time>
      </trkpt>
      <trkpt lat="48.38105" lon="2.43432">
        <ele>106</ele>
        <time>2025-06-08T10:17:30.000Z</time>
      </trkpt>
      <trkpt lat="48.38112" lon="2.43419">
        <ele>106.59999847412</ele>
        <time>2025-06-08T10:17:33.000Z</time>
      </trkpt>
      <trkpt lat="48.38124" lon="2.43395">
        <ele>107</ele>
        <time>2025-06-08T10:17:38.000Z</time>
      </trkpt>
      <trkpt lat="48.3813" lon="2.4338">
        <ele>107.19999694824</ele>
        <time>2025-06-08T10:17:41.000Z</time>
      </trkpt>
      <trkpt lat="48.38141" lon="2.43349">
        <ele>107.19999694824</ele>
        <time>2025-06-08T10:17:47.000Z</time>
      </trkpt>
      <trkpt lat="48.38147" lon="2.43341">
        <ele>107.19999694824</ele>
        <time>2025-06-08T10:17:49.000Z</time>
      </trkpt>
      <trkpt lat="48.38158" lon="2.43332">
        <ele>107.19999694824</ele>
        <time>2025-06-08T10:17:52.000Z</time>
      </trkpt>
      <trkpt lat="48.38183" lon="2.4331">
        <ele>107.40000152588</ele>
        <time>2025-06-08T10:18:00.000Z</time>
      </trkpt>
      <trkpt lat="48.38187" lon="2.433">
        <ele>107.59999847412</ele>
        <time>2025-06-08T10:18:03.000Z</time>
      </trkpt>
      <trkpt lat="48.38186" lon="2.43295">
        <ele>108</ele>
        <time>2025-06-08T10:18:04.000Z</time>
      </trkpt>
      <trkpt lat="48.38184" lon="2.43291">
        <ele>108.40000152588</ele>
        <time>2025-06-08T10:18:05.000Z</time>
      </trkpt>
      <trkpt lat="48.38174" lon="2.43279">
        <ele>108.59999847412</ele>
        <time>2025-06-08T10:18:08.000Z</time>
      </trkpt>
      <trkpt lat="48.38157" lon="2.43253">
        <ele>108.80000305176</ele>
        <time>2025-06-08T10:18:14.000Z</time>
      </trkpt>
      <trkpt lat="48.3816" lon="2.43237">
        <ele>108.80000305176</ele>
        <time>2025-06-08T10:18:17.000Z</time>
      </trkpt>
      <trkpt lat="48.38161" lon="2.43232">
        <ele>108.80000305176</ele>
        <time>2025-06-08T10:18:18.000Z</time>
      </trkpt>
      <trkpt lat="48.38177" lon="2.4319">
        <ele>108.59999847412</ele>
        <time>2025-06-08T10:18:26.000Z</time>
      </trkpt>
      <trkpt lat="48.38183" lon="2.43176">
        <ele>109.40000152588</ele>
        <time>2025-06-08T10:18:29.000Z</time>
      </trkpt>
      <trkpt lat="48.38192" lon="2.43154">
        <ele>110.40000152588</ele>
        <time>2025-06-08T10:18:34.000Z</time>
      </trkpt>
      <trkpt lat="48.38198" lon="2.43141">
        <ele>110.59999847412</ele>
        <time>2025-06-08T10:18:37.000Z</time>
      </trkpt>
      <trkpt lat="48.38206" lon="2.43119">
        <ele>111</ele>
        <time>2025-06-08T10:18:41.000Z</time>
      </trkpt>
      <trkpt lat="48.38229" lon="2.43071">
        <ele>111.19999694824</ele>
        <time>2025-06-08T10:18:50.000Z</time>
      </trkpt>
      <trkpt lat="48.38245" lon="2.43032">
        <ele>111.19999694824</ele>
        <time>2025-06-08T10:18:57.000Z</time>
      </trkpt>
      <trkpt lat="48.38266" lon="2.42983">
        <ele>111.19999694824</ele>
        <time>2025-06-08T10:19:06.000Z</time>
      </trkpt>
      <trkpt lat="48.38276" lon="2.42963">
        <ele>111.59999847412</ele>
        <time>2025-06-08T10:19:10.000Z</time>
      </trkpt>
      <trkpt lat="48.38282" lon="2.42946">
        <ele>111.80000305176</ele>
        <time>2025-06-08T10:19:13.000Z</time>
      </trkpt>
      <trkpt lat="48.38288" lon="2.42922">
        <ele>112.19999694824</ele>
        <time>2025-06-08T10:19:17.000Z</time>
      </trkpt>
      <trkpt lat="48.38292" lon="2.42912">
        <ele>112.40000152588</ele>
        <time>2025-06-08T10:19:19.000Z</time>
      </trkpt>
      <trkpt lat="48.38308" lon="2.42871">
        <ele>112.19999694824</ele>
        <time>2025-06-08T10:19:27.000Z</time>
      </trkpt>
      <trkpt lat="48.38316" lon="2.42852">
        <ele>112.59999847412</ele>
        <time>2025-06-08T10:19:31.000Z</time>
      </trkpt>
      <trkpt lat="48.38321" lon="2.4284">
        <ele>113.59999847412</ele>
        <time>2025-06-08T10:19:34.000Z</time>
      </trkpt>
      <trkpt lat="48.38323" lon="2.42836">
        <ele>113.80000305176</ele>
        <time>2025-06-08T10:19:35.000Z</time>
      </trkpt>
      <trkpt lat="48.38332" lon="2.42815">
        <ele>114.80000305176</ele>
        <time>2025-06-08T10:19:40.000Z</time>
      </trkpt>
      <trkpt lat="48.38336" lon="2.42806">
        <ele>115.40000152588</ele>
        <time>2025-06-08T10:19:42.000Z</time>
      </trkpt>
      <trkpt lat="48.38337" lon="2.42801">
        <ele>116</ele>
        <time>2025-06-08T10:19:43.000Z</time>
      </trkpt>
      <trkpt lat="48.38353" lon="2.42762">
        <ele>117</ele>
        <time>2025-06-08T10:19:51.000Z</time>
      </trkpt>
      <trkpt lat="48.38373" lon="2.42718">
        <ele>117.40000152588</ele>
        <time>2025-06-08T10:19:59.000Z</time>
      </trkpt>
      <trkpt lat="48.38376" lon="2.42713">
        <ele>117.40000152588</ele>
        <time>2025-06-08T10:20:00.000Z</time>
      </trkpt>
      <trkpt lat="48.38386" lon="2.42702">
        <ele>117.40000152588</ele>
        <time>2025-06-08T10:20:03.000Z</time>
      </trkpt>
      <trkpt lat="48.3839" lon="2.427">
        <ele>117.19999694824</ele>
        <time>2025-06-08T10:20:04.000Z</time>
      </trkpt>
      <trkpt lat="48.38423" lon="2.42685">
        <ele>116.59999847412</ele>
        <time>2025-06-08T10:20:12.000Z</time>
      </trkpt>
      <trkpt lat="48.38459" lon="2.42674">
        <ele>117</ele>
        <time>2025-06-08T10:20:21.000Z</time>
      </trkpt>
      <trkpt lat="48.38486" lon="2.42664">
        <ele>117.40000152588</ele>
        <time>2025-06-08T10:20:28.000Z</time>
      </trkpt>
      <trkpt lat="48.38498" lon="2.42659">
        <ele>117.80000305176</ele>
        <time>2025-06-08T10:20:31.000Z</time>
      </trkpt>
      <trkpt lat="48.38506" lon="2.42655">
        <ele>118</ele>
        <time>2025-06-08T10:20:33.000Z</time>
      </trkpt>
      <trkpt lat="48.3851" lon="2.42654">
        <ele>118</ele>
        <time>2025-06-08T10:20:34.000Z</time>
      </trkpt>
      <trkpt lat="48.38544" lon="2.42641">
        <ele>118.59999847412</ele>
        <time>2025-06-08T10:20:42.000Z</time>
      </trkpt>
      <trkpt lat="48.38564" lon="2.42635">
        <ele>118.40000152588</ele>
        <time>2025-06-08T10:20:47.000Z</time>
      </trkpt>
      <trkpt lat="48.38577" lon="2.42629">
        <ele>118.19999694824</ele>
        <time>2025-06-08T10:20:50.000Z</time>
      </trkpt>
      <trkpt lat="48.38609" lon="2.42616">
        <ele>118.40000152588</ele>
        <time>2025-06-08T10:20:57.000Z</time>
      </trkpt>
      <trkpt lat="48.3864" lon="2.42598">
        <ele>118.80000305176</ele>
        <time>2025-06-08T10:21:04.000Z</time>
      </trkpt>
      <trkpt lat="48.38644" lon="2.42594">
        <ele>118.80000305176</ele>
        <time>2025-06-08T10:21:05.000Z</time>
      </trkpt>
      <trkpt lat="48.38668" lon="2.42575">
        <ele>118.80000305176</ele>
        <time>2025-06-08T10:21:11.000Z</time>
      </trkpt>
      <trkpt lat="48.38689" lon="2.42553">
        <ele>118.80000305176</ele>
        <time>2025-06-08T10:21:17.000Z</time>
      </trkpt>
      <trkpt lat="48.38697" lon="2.42548">
        <ele>118.80000305176</ele>
        <time>2025-06-08T10:21:19.000Z</time>
      </trkpt>
      <trkpt lat="48.38708" lon="2.42541">
        <ele>119</ele>
        <time>2025-06-08T10:21:22.000Z</time>
      </trkpt>
      <trkpt lat="48.38716" lon="2.42537">
        <ele>119.19999694824</ele>
        <time>2025-06-08T10:21:24.000Z</time>
      </trkpt>
      <trkpt lat="48.38723" lon="2.42533">
        <ele>119.19999694824</ele>
        <time>2025-06-08T10:21:26.000Z</time>
      </trkpt>
      <trkpt lat="48.38733" lon="2.42527">
        <ele>120</ele>
        <time>2025-06-08T10:21:29.000Z</time>
      </trkpt>
      <trkpt lat="48.38741" lon="2.42512">
        <ele>121</ele>
        <time>2025-06-08T10:23:10.000Z</time>
      </trkpt>
      <trkpt lat="48.38741" lon="2.42512">
        <ele>121.19999694824</ele>
        <time>2025-06-08T10:23:11.000Z</time>
      </trkpt>
      <trkpt lat="48.3874" lon="2.42501">
        <ele>121.40000152588</ele>
        <time>2025-06-08T10:23:17.000Z</time>
      </trkpt>
      <trkpt lat="48.38732" lon="2.42475">
        <ele>121.19999694824</ele>
        <time>2025-06-08T10:23:22.000Z</time>
      </trkpt>
      <trkpt lat="48.38723" lon="2.42426">
        <ele>120.59999847412</ele>
        <time>2025-06-08T10:23:30.000Z</time>
      </trkpt>
      <trkpt lat="48.38713" lon="2.4237">
        <ele>120.19999694824</ele>
        <time>2025-06-08T10:23:39.000Z</time>
      </trkpt>
      <trkpt lat="48.38702" lon="2.42316">
        <ele>120.40000152588</ele>
        <time>2025-06-08T10:23:48.000Z</time>
      </trkpt>
      <trkpt lat="48.3869" lon="2.42259">
        <ele>121.40000152588</ele>
        <time>2025-06-08T10:23:57.000Z</time>
      </trkpt>
      <trkpt lat="48.38686" lon="2.42232">
        <ele>121.80000305176</ele>
        <time>2025-06-08T10:24:01.000Z</time>
      </trkpt>
      <trkpt lat="48.38683" lon="2.42218">
        <ele>121.80000305176</ele>
        <time>2025-06-08T10:24:03.000Z</time>
      </trkpt>
      <trkpt lat="48.3868" lon="2.42204">
        <ele>122</ele>
        <time>2025-06-08T10:24:05.000Z</time>
      </trkpt>
      <trkpt lat="48.38679" lon="2.42197">
        <ele>122</ele>
        <time>2025-06-08T10:24:06.000Z</time>
      </trkpt>
      <trkpt lat="48.38673" lon="2.42162">
        <ele>121.80000305176</ele>
        <time>2025-06-08T10:24:11.000Z</time>
      </trkpt>
      <trkpt lat="48.38658" lon="2.42096">
        <ele>121.19999694824</ele>
        <time>2025-06-08T10:24:20.000Z</time>
      </trkpt>
      <trkpt lat="48.38642" lon="2.42038">
        <ele>120.59999847412</ele>
        <time>2025-06-08T10:24:28.000Z</time>
      </trkpt>
      <trkpt lat="48.38637" lon="2.42017">
        <ele>120</ele>
        <time>2025-06-08T10:24:31.000Z</time>
      </trkpt>
      <trkpt lat="48.38632" lon="2.42003">
        <ele>119.80000305176</ele>
        <time>2025-06-08T10:24:33.000Z</time>
      </trkpt>
      <trkpt lat="48.38619" lon="2.41954">
        <ele>119.59999847412</ele>
        <time>2025-06-08T10:24:40.000Z</time>
      </trkpt>
      <trkpt lat="48.38617" lon="2.41947">
        <ele>119.59999847412</ele>
        <time>2025-06-08T10:24:41.000Z</time>
      </trkpt>
      <trkpt lat="48.38616" lon="2.41916">
        <ele>119.40000152588</ele>
        <time>2025-06-08T10:24:45.000Z</time>
      </trkpt>
      <trkpt lat="48.38613" lon="2.41869">
        <ele>119.19999694824</ele>
        <time>2025-06-08T10:24:52.000Z</time>
      </trkpt>
      <trkpt lat="48.38611" lon="2.41836">
        <ele>119</ele>
        <time>2025-06-08T10:24:58.000Z</time>
      </trkpt>
      <trkpt lat="48.38611" lon="2.41795">
        <ele>120.19999694824</ele>
        <time>2025-06-08T10:25:06.000Z</time>
      </trkpt>
      <trkpt lat="48.38608" lon="2.41767">
        <ele>120.80000305176</ele>
        <time>2025-06-08T10:25:12.000Z</time>
      </trkpt>
      <trkpt lat="48.38606" lon="2.41747">
        <ele>121.19999694824</ele>
        <time>2025-06-08T10:25:16.000Z</time>
      </trkpt>
      <trkpt lat="48.38606" lon="2.41736">
        <ele>121.59999847412</ele>
        <time>2025-06-08T10:25:18.000Z</time>
      </trkpt>
      <trkpt lat="48.3861" lon="2.41687">
        <ele>122</ele>
        <time>2025-06-08T10:25:27.000Z</time>
      </trkpt>
      <trkpt lat="48.3862" lon="2.4165">
        <ele>122.19999694824</ele>
        <time>2025-06-08T10:25:34.000Z</time>
      </trkpt>
      <trkpt lat="48.3864" lon="2.41611">
        <ele>123.40000152588</ele>
        <time>2025-06-08T10:25:42.000Z</time>
      </trkpt>
      <trkpt lat="48.38643" lon="2.41606">
        <ele>123.40000152588</ele>
        <time>2025-06-08T10:25:43.000Z</time>
      </trkpt>
      <trkpt lat="48.38667" lon="2.41575">
        <ele>123.59999847412</ele>
        <time>2025-06-08T10:25:50.000Z</time>
      </trkpt>
      <trkpt lat="48.38703" lon="2.41537">
        <ele>123.59999847412</ele>
        <time>2025-06-08T10:25:59.000Z</time>
      </trkpt>
      <trkpt lat="48.38728" lon="2.41511">
        <ele>123</ele>
        <time>2025-06-08T10:26:05.000Z</time>
      </trkpt>
      <trkpt lat="48.38736" lon="2.41502">
        <ele>122.80000305176</ele>
        <time>2025-06-08T10:26:07.000Z</time>
      </trkpt>
      <trkpt lat="48.3875" lon="2.41485">
        <ele>122.19999694824</ele>
        <time>2025-06-08T10:26:11.000Z</time>
      </trkpt>
      <trkpt lat="48.38764" lon="2.41468">
        <ele>122.19999694824</ele>
        <time>2025-06-08T10:26:15.000Z</time>
      </trkpt>
      <trkpt lat="48.38767" lon="2.41464">
        <ele>122</ele>
        <time>2025-06-08T10:26:16.000Z</time>
      </trkpt>
      <trkpt lat="48.38778" lon="2.41448">
        <ele>121.80000305176</ele>
        <time>2025-06-08T10:26:20.000Z</time>
      </trkpt>
      <trkpt lat="48.38783" lon="2.41439">
        <ele>121.80000305176</ele>
        <time>2025-06-08T10:26:22.000Z</time>
      </trkpt>
      <trkpt lat="48.38789" lon="2.41424">
        <ele>121.59999847412</ele>
        <time>2025-06-08T10:26:25.000Z</time>
      </trkpt>
      <trkpt lat="48.38789" lon="2.41418">
        <ele>121.40000152588</ele>
        <time>2025-06-08T10:26:26.000Z</time>
      </trkpt>
      <trkpt lat="48.38786" lon="2.41398">
        <ele>121.40000152588</ele>
        <time>2025-06-08T10:26:29.000Z</time>
      </trkpt>
      <trkpt lat="48.38784" lon="2.41384">
        <ele>121.40000152588</ele>
        <time>2025-06-08T10:26:31.000Z</time>
      </trkpt>
      <trkpt lat="48.38781" lon="2.41364">
        <ele>121.19999694824</ele>
        <time>2025-06-08T10:26:34.000Z</time>
      </trkpt>
      <trkpt lat="48.38774" lon="2.41328">
        <ele>120.40000152588</ele>
        <time>2025-06-08T10:26:39.000Z</time>
      </trkpt>
      <trkpt lat="48.3877" lon="2.413">
        <ele>120.19999694824</ele>
        <time>2025-06-08T10:26:43.000Z</time>
      </trkpt>
      <trkpt lat="48.38765" lon="2.41272">
        <ele>120</ele>
        <time>2025-06-08T10:26:47.000Z</time>
      </trkpt>
      <trkpt lat="48.38756" lon="2.41214">
        <ele>119.40000152588</ele>
        <time>2025-06-08T10:26:55.000Z</time>
      </trkpt>
      <trkpt lat="48.38753" lon="2.41199">
        <ele>119.19999694824</ele>
        <time>2025-06-08T10:26:57.000Z</time>
      </trkpt>
      <trkpt lat="48.38749" lon="2.41172">
        <ele>119</ele>
        <time>2025-06-08T10:27:01.000Z</time>
      </trkpt>
      <trkpt lat="48.38745" lon="2.41153">
        <ele>119</ele>
        <time>2025-06-08T10:27:04.000Z</time>
      </trkpt>
      <trkpt lat="48.38743" lon="2.41127">
        <ele>118.80000305176</ele>
        <time>2025-06-08T10:27:09.000Z</time>
      </trkpt>
      <trkpt lat="48.38743" lon="2.41121">
        <ele>118.80000305176</ele>
        <time>2025-06-08T10:27:10.000Z</time>
      </trkpt>
      <trkpt lat="48.38737" lon="2.4109">
        <ele>118.80000305176</ele>
        <time>2025-06-08T10:27:15.000Z</time>
      </trkpt>
      <trkpt lat="48.38728" lon="2.41034">
        <ele>118.59999847412</ele>
        <time>2025-06-08T10:27:24.000Z</time>
      </trkpt>
      <trkpt lat="48.38723" lon="2.41002">
        <ele>118</ele>
        <time>2025-06-08T10:27:29.000Z</time>
      </trkpt>
      <trkpt lat="48.38718" lon="2.40971">
        <ele>117.80000305176</ele>
        <time>2025-06-08T10:27:34.000Z</time>
      </trkpt>
      <trkpt lat="48.38707" lon="2.40901">
        <ele>118.80000305176</ele>
        <time>2025-06-08T10:27:45.000Z</time>
      </trkpt>
      <trkpt lat="48.38705" lon="2.40889">
        <ele>118.80000305176</ele>
        <time>2025-06-08T10:27:47.000Z</time>
      </trkpt>
      <trkpt lat="48.387" lon="2.40864">
        <ele>118.80000305176</ele>
        <time>2025-06-08T10:27:51.000Z</time>
      </trkpt>
      <trkpt lat="48.38693" lon="2.40813">
        <ele>119</ele>
        <time>2025-06-08T10:27:59.000Z</time>
      </trkpt>
      <trkpt lat="48.38692" lon="2.40807">
        <ele>119</ele>
        <time>2025-06-08T10:28:00.000Z</time>
      </trkpt>
      <trkpt lat="48.38695" lon="2.40793">
        <ele>119</ele>
        <time>2025-06-08T10:28:03.000Z</time>
      </trkpt>
      <trkpt lat="48.38701" lon="2.40792">
        <ele>119</ele>
        <time>2025-06-08T10:28:05.000Z</time>
      </trkpt>
      <trkpt lat="48.38704" lon="2.40792">
        <ele>119.19999694824</ele>
        <time>2025-06-08T10:28:06.000Z</time>
      </trkpt>
      <trkpt lat="48.38726" lon="2.40792">
        <ele>120</ele>
        <time>2025-06-08T10:28:12.000Z</time>
      </trkpt>
      <trkpt lat="48.38753" lon="2.40787">
        <ele>120.19999694824</ele>
        <time>2025-06-08T10:28:19.000Z</time>
      </trkpt>
      <trkpt lat="48.38786" lon="2.40782">
        <ele>120.19999694824</ele>
        <time>2025-06-08T10:28:27.000Z</time>
      </trkpt>
      <trkpt lat="48.38817" lon="2.40778">
        <ele>120.40000152588</ele>
        <time>2025-06-08T10:28:34.000Z</time>
      </trkpt>
      <trkpt lat="48.38821" lon="2.40777">
        <ele>120.40000152588</ele>
        <time>2025-06-08T10:28:35.000Z</time>
      </trkpt>
      <trkpt lat="48.38859" lon="2.4077">
        <ele>120</ele>
        <time>2025-06-08T10:28:43.000Z</time>
      </trkpt>
      <trkpt lat="48.38896" lon="2.40768">
        <ele>119.59999847412</ele>
        <time>2025-06-08T10:28:51.000Z</time>
      </trkpt>
      <trkpt lat="48.38938" lon="2.40762">
        <ele>119.40000152588</ele>
        <time>2025-06-08T10:29:00.000Z</time>
      </trkpt>
      <trkpt lat="48.3896" lon="2.40759">
        <ele>119.19999694824</ele>
        <time>2025-06-08T10:29:06.000Z</time>
      </trkpt>
      <trkpt lat="48.38968" lon="2.40757">
        <ele>119</ele>
        <time>2025-06-08T10:29:09.000Z</time>
      </trkpt>
      <trkpt lat="48.38981" lon="2.40753">
        <ele>118.80000305176</ele>
        <time>2025-06-08T10:29:13.000Z</time>
      </trkpt>
      <trkpt lat="48.38993" lon="2.4075">
        <ele>118</ele>
        <time>2025-06-08T10:29:17.000Z</time>
      </trkpt>
      <trkpt lat="48.39003" lon="2.40747">
        <ele>117.59999847412</ele>
        <time>2025-06-08T10:29:20.000Z</time>
      </trkpt>
      <trkpt lat="48.39011" lon="2.40747">
        <ele>117.59999847412</ele>
        <time>2025-06-08T10:29:24.000Z</time>
      </trkpt>
      <trkpt lat="48.3902" lon="2.40749">
        <ele>117.80000305176</ele>
        <time>2025-06-08T10:29:31.000Z</time>
      </trkpt>
      <trkpt lat="48.39026" lon="2.40751">
        <ele>118</ele>
        <time>2025-06-08T10:29:35.000Z</time>
      </trkpt>
      <trkpt lat="48.39029" lon="2.40751">
        <ele>118</ele>
        <time>2025-06-08T10:29:37.000Z</time>
      </trkpt>
      <trkpt lat="48.39035" lon="2.40741">
        <ele>117.80000305176</ele>
        <time>2025-06-08T10:29:41.000Z</time>
      </trkpt>
      <trkpt lat="48.39051" lon="2.40736">
        <ele>117</ele>
        <time>2025-06-08T10:29:47.000Z</time>
      </trkpt>
      <trkpt lat="48.39054" lon="2.40736">
        <ele>117</ele>
        <time>2025-06-08T10:29:48.000Z</time>
      </trkpt>
      <trkpt lat="48.39057" lon="2.40735">
        <ele>116.59999847412</ele>
        <time>2025-06-08T10:29:49.000Z</time>
      </trkpt>
      <trkpt lat="48.39068" lon="2.40738">
        <ele>116.40000152588</ele>
        <time>2025-06-08T10:29:52.000Z</time>
      </trkpt>
      <trkpt lat="48.39078" lon="2.4074">
        <ele>115.59999847412</ele>
        <time>2025-06-08T10:29:55.000Z</time>
      </trkpt>
      <trkpt lat="48.39088" lon="2.40745">
        <ele>115.40000152588</ele>
        <time>2025-06-08T10:29:58.000Z</time>
      </trkpt>
      <trkpt lat="48.39095" lon="2.40744">
        <ele>115.19999694824</ele>
        <time>2025-06-08T10:30:00.000Z</time>
      </trkpt>
      <trkpt lat="48.39099" lon="2.4074">
        <ele>115</ele>
        <time>2025-06-08T10:30:01.000Z</time>
      </trkpt>
      <trkpt lat="48.39109" lon="2.40726">
        <ele>114.59999847412</ele>
        <time>2025-06-08T10:30:04.000Z</time>
      </trkpt>
      <trkpt lat="48.39112" lon="2.4072">
        <ele>114.40000152588</ele>
        <time>2025-06-08T10:30:05.000Z</time>
      </trkpt>
      <trkpt lat="48.39115" lon="2.40713">
        <ele>114.19999694824</ele>
        <time>2025-06-08T10:30:06.000Z</time>
      </trkpt>
      <trkpt lat="48.39122" lon="2.40698">
        <ele>113.40000152588</ele>
        <time>2025-06-08T10:30:08.000Z</time>
      </trkpt>
      <trkpt lat="48.39128" lon="2.40685">
        <ele>112.40000152588</ele>
        <time>2025-06-08T10:30:10.000Z</time>
      </trkpt>
      <trkpt lat="48.39132" lon="2.40679">
        <ele>111.80000305176</ele>
        <time>2025-06-08T10:30:11.000Z</time>
      </trkpt>
      <trkpt lat="48.39135" lon="2.40673">
        <ele>111.19999694824</ele>
        <time>2025-06-08T10:30:12.000Z</time>
      </trkpt>
      <trkpt lat="48.39142" lon="2.40662">
        <ele>110.59999847412</ele>
        <time>2025-06-08T10:30:14.000Z</time>
      </trkpt>
      <trkpt lat="48.39166" lon="2.40634">
        <ele>110</ele>
        <time>2025-06-08T10:30:19.000Z</time>
      </trkpt>
      <trkpt lat="48.39186" lon="2.40598">
        <ele>109.40000152588</ele>
        <time>2025-06-08T10:30:25.000Z</time>
      </trkpt>
      <trkpt lat="48.39192" lon="2.40585">
        <ele>109.40000152588</ele>
        <time>2025-06-08T10:30:27.000Z</time>
      </trkpt>
      <trkpt lat="48.39209" lon="2.40554">
        <ele>109</ele>
        <time>2025-06-08T10:30:32.000Z</time>
      </trkpt>
      <trkpt lat="48.39216" lon="2.4054">
        <ele>109</ele>
        <time>2025-06-08T10:30:34.000Z</time>
      </trkpt>
      <trkpt lat="48.39222" lon="2.40519">
        <ele>109</ele>
        <time>2025-06-08T10:30:37.000Z</time>
      </trkpt>
      <trkpt lat="48.39226" lon="2.40506">
        <ele>109</ele>
        <time>2025-06-08T10:30:39.000Z</time>
      </trkpt>
      <trkpt lat="48.3923" lon="2.40486">
        <ele>108.80000305176</ele>
        <time>2025-06-08T10:30:42.000Z</time>
      </trkpt>
      <trkpt lat="48.39234" lon="2.40469">
        <ele>108.80000305176</ele>
        <time>2025-06-08T10:30:44.000Z</time>
      </trkpt>
      <trkpt lat="48.3924" lon="2.40438">
        <ele>108.59999847412</ele>
        <time>2025-06-08T10:30:47.000Z</time>
      </trkpt>
      <trkpt lat="48.39242" lon="2.40428">
        <ele>108.19999694824</ele>
        <time>2025-06-08T10:30:48.000Z</time>
      </trkpt>
      <trkpt lat="48.39245" lon="2.40409">
        <ele>107</ele>
        <time>2025-06-08T10:30:50.000Z</time>
      </trkpt>
      <trkpt lat="48.39245" lon="2.40391">
        <ele>105.80000305176</ele>
        <time>2025-06-08T10:30:52.000Z</time>
      </trkpt>
      <trkpt lat="48.39243" lon="2.40374">
        <ele>104</ele>
        <time>2025-06-08T10:30:54.000Z</time>
      </trkpt>
      <trkpt lat="48.39241" lon="2.40359">
        <ele>102.59999847412</ele>
        <time>2025-06-08T10:30:56.000Z</time>
      </trkpt>
      <trkpt lat="48.39238" lon="2.4035">
        <ele>102.19999694824</ele>
        <time>2025-06-08T10:30:58.000Z</time>
      </trkpt>
      <trkpt lat="48.39233" lon="2.40335">
        <ele>102.19999694824</ele>
        <time>2025-06-08T10:31:03.000Z</time>
      </trkpt>
      <trkpt lat="48.39227" lon="2.40306">
        <ele>103.19999694824</ele>
        <time>2025-06-08T10:31:09.000Z</time>
      </trkpt>
      <trkpt lat="48.39217" lon="2.4028">
        <ele>103.80000305176</ele>
        <time>2025-06-08T10:31:15.000Z</time>
      </trkpt>
      <trkpt lat="48.39212" lon="2.4026">
        <ele>104.19999694824</ele>
        <time>2025-06-08T10:31:20.000Z</time>
      </trkpt>
      <trkpt lat="48.39206" lon="2.40236">
        <ele>104.40000152588</ele>
        <time>2025-06-08T10:31:26.000Z</time>
      </trkpt>
      <trkpt lat="48.39198" lon="2.40203">
        <ele>104.19999694824</ele>
        <time>2025-06-08T10:31:32.000Z</time>
      </trkpt>
      <trkpt lat="48.39189" lon="2.40172">
        <ele>103.59999847412</ele>
        <time>2025-06-08T10:31:38.000Z</time>
      </trkpt>
      <trkpt lat="48.39178" lon="2.40149">
        <ele>103.40000152588</ele>
        <time>2025-06-08T10:31:44.000Z</time>
      </trkpt>
      <trkpt lat="48.39168" lon="2.40124">
        <ele>103.40000152588</ele>
        <time>2025-06-08T10:31:50.000Z</time>
      </trkpt>
      <trkpt lat="48.39161" lon="2.40104">
        <ele>103.19999694824</ele>
        <time>2025-06-08T10:31:55.000Z</time>
      </trkpt>
      <trkpt lat="48.39156" lon="2.40084">
        <ele>102.59999847412</ele>
        <time>2025-06-08T10:32:00.000Z</time>
      </trkpt>
      <trkpt lat="48.39149" lon="2.40055">
        <ele>102</ele>
        <time>2025-06-08T10:32:05.000Z</time>
      </trkpt>
      <trkpt lat="48.39148" lon="2.40031">
        <ele>102</ele>
        <time>2025-06-08T10:32:11.000Z</time>
      </trkpt>
      <trkpt lat="48.39146" lon="2.40013">
        <ele>101.40000152588</ele>
        <time>2025-06-08T10:32:14.000Z</time>
      </trkpt>
      <trkpt lat="48.39145" lon="2.40007">
        <ele>101.19999694824</ele>
        <time>2025-06-08T10:32:15.000Z</time>
      </trkpt>
      <trkpt lat="48.39144" lon="2.39995">
        <ele>100.19999694824</ele>
        <time>2025-06-08T10:32:17.000Z</time>
      </trkpt>
      <trkpt lat="48.39143" lon="2.39986">
        <ele>100</ele>
        <time>2025-06-08T10:32:19.000Z</time>
      </trkpt>
      <trkpt lat="48.39143" lon="2.39962">
        <ele>99.599998474121</ele>
        <time>2025-06-08T10:32:25.000Z</time>
      </trkpt>
      <trkpt lat="48.39141" lon="2.39936">
        <ele>99.199996948242</ele>
        <time>2025-06-08T10:32:29.000Z</time>
      </trkpt>
      <trkpt lat="48.39141" lon="2.3993">
        <ele>99.199996948242</ele>
        <time>2025-06-08T10:32:30.000Z</time>
      </trkpt>
      <trkpt lat="48.3914" lon="2.39904">
        <ele>98.199996948242</ele>
        <time>2025-06-08T10:32:35.000Z</time>
      </trkpt>
      <trkpt lat="48.39137" lon="2.39888">
        <ele>96.599998474121</ele>
        <time>2025-06-08T10:32:38.000Z</time>
      </trkpt>
      <trkpt lat="48.39136" lon="2.39883">
        <ele>95.400001525879</ele>
        <time>2025-06-08T10:32:39.000Z</time>
      </trkpt>
      <trkpt lat="48.39136" lon="2.39874">
        <ele>94.400001525879</ele>
        <time>2025-06-08T10:32:41.000Z</time>
      </trkpt>
      <trkpt lat="48.39136" lon="2.39861">
        <ele>94</ele>
        <time>2025-06-08T10:32:43.000Z</time>
      </trkpt>
      <trkpt lat="48.39135" lon="2.39845">
        <ele>93.599998474121</ele>
        <time>2025-06-08T10:32:46.000Z</time>
      </trkpt>
      <trkpt lat="48.39135" lon="2.39843">
        <ele>93.599998474121</ele>
        <time>2025-06-08T10:32:47.000Z</time>
      </trkpt>
      <trkpt lat="48.39117" lon="2.39831">
        <ele>91.800003051758</ele>
        <time>2025-06-08T10:35:37.000Z</time>
      </trkpt>
      <trkpt lat="48.39114" lon="2.39827">
        <ele>92.599998474121</ele>
        <time>2025-06-08T10:35:45.000Z</time>
      </trkpt>
      <trkpt lat="48.39114" lon="2.39826">
        <ele>92.800003051758</ele>
        <time>2025-06-08T10:35:46.000Z</time>
      </trkpt>
      <trkpt lat="48.39112" lon="2.39809">
        <ele>93.400001525879</ele>
        <time>2025-06-08T10:35:55.000Z</time>
      </trkpt>
      <trkpt lat="48.39116" lon="2.39787">
        <ele>93.599998474121</ele>
        <time>2025-06-08T10:36:02.000Z</time>
      </trkpt>
      <trkpt lat="48.39124" lon="2.39768">
        <ele>93.400001525879</ele>
        <time>2025-06-08T10:36:09.000Z</time>
      </trkpt>
      <trkpt lat="48.39128" lon="2.39754">
        <ele>93.599998474121</ele>
        <time>2025-06-08T10:36:15.000Z</time>
      </trkpt>
      <trkpt lat="48.39129" lon="2.39749">
        <ele>94.599998474121</ele>
        <time>2025-06-08T10:36:17.000Z</time>
      </trkpt>
      <trkpt lat="48.39129" lon="2.39747">
        <ele>95</ele>
        <time>2025-06-08T10:36:18.000Z</time>
      </trkpt>
      <trkpt lat="48.3913" lon="2.3974">
        <ele>96.199996948242</ele>
        <time>2025-06-08T10:36:22.000Z</time>
      </trkpt>
      <trkpt lat="48.3913" lon="2.39737">
        <ele>96.400001525879</ele>
        <time>2025-06-08T10:36:23.000Z</time>
      </trkpt>
      <trkpt lat="48.3913" lon="2.39731">
        <ele>97.400001525879</ele>
        <time>2025-06-08T10:36:26.000Z</time>
      </trkpt>
      <trkpt lat="48.39131" lon="2.39724">
        <ele>97.599998474121</ele>
        <time>2025-06-08T10:36:30.000Z</time>
      </trkpt>
      <trkpt lat="48.39131" lon="2.39708">
        <ele>98.400001525879</ele>
        <time>2025-06-08T10:36:37.000Z</time>
      </trkpt>
      <trkpt lat="48.3913" lon="2.39705">
        <ele>98.400001525879</ele>
        <time>2025-06-08T10:36:38.000Z</time>
      </trkpt>
      <trkpt lat="48.39129" lon="2.397">
        <ele>99.199996948242</ele>
        <time>2025-06-08T10:36:43.000Z</time>
      </trkpt>
      <trkpt lat="48.39129" lon="2.39695">
        <ele>99.599998474121</ele>
        <time>2025-06-08T10:36:46.000Z</time>
      </trkpt>
      <trkpt lat="48.39126" lon="2.39687">
        <ele>100.80000305176</ele>
        <time>2025-06-08T10:36:53.000Z</time>
      </trkpt>
      <trkpt lat="48.39126" lon="2.39686">
        <ele>101.19999694824</ele>
        <time>2025-06-08T10:36:54.000Z</time>
      </trkpt>
      <trkpt lat="48.39126" lon="2.39684">
        <ele>102</ele>
        <time>2025-06-08T10:36:57.000Z</time>
      </trkpt>
      <trkpt lat="48.39123" lon="2.3968">
        <ele>103.19999694824</ele>
        <time>2025-06-08T10:37:02.000Z</time>
      </trkpt>
      <trkpt lat="48.39122" lon="2.39678">
        <ele>104</ele>
        <time>2025-06-08T10:37:04.000Z</time>
      </trkpt>
      <trkpt lat="48.39123" lon="2.39677">
        <ele>104.19999694824</ele>
        <time>2025-06-08T10:37:05.000Z</time>
      </trkpt>
      <trkpt lat="48.39118" lon="2.39666">
        <ele>105.19999694824</ele>
        <time>2025-06-08T10:37:14.000Z</time>
      </trkpt>
      <trkpt lat="48.39116" lon="2.39651">
        <ele>105.19999694824</ele>
        <time>2025-06-08T10:37:18.000Z</time>
      </trkpt>
      <trkpt lat="48.39116" lon="2.39643">
        <ele>105.19999694824</ele>
        <time>2025-06-08T10:37:19.000Z</time>
      </trkpt>
      <trkpt lat="48.39115" lon="2.39605">
        <ele>103.80000305176</ele>
        <time>2025-06-08T10:37:25.000Z</time>
      </trkpt>
      <trkpt lat="48.39115" lon="2.396">
        <ele>102.80000305176</ele>
        <time>2025-06-08T10:37:26.000Z</time>
      </trkpt>
      <trkpt lat="48.39109" lon="2.39583">
        <ele>101.80000305176</ele>
        <time>2025-06-08T10:37:30.000Z</time>
      </trkpt>
      <trkpt lat="48.39099" lon="2.39574">
        <ele>101.19999694824</ele>
        <time>2025-06-08T10:37:34.000Z</time>
      </trkpt>
      <trkpt lat="48.39091" lon="2.39558">
        <ele>100.80000305176</ele>
        <time>2025-06-08T10:37:38.000Z</time>
      </trkpt>
      <trkpt lat="48.39081" lon="2.39544">
        <ele>100.40000152588</ele>
        <time>2025-06-08T10:37:43.000Z</time>
      </trkpt>
      <trkpt lat="48.39071" lon="2.39537">
        <ele>99.599998474121</ele>
        <time>2025-06-08T10:37:47.000Z</time>
      </trkpt>
      <trkpt lat="48.39065" lon="2.39533">
        <ele>97.599998474121</ele>
        <time>2025-06-08T10:37:49.000Z</time>
      </trkpt>
      <trkpt lat="48.39062" lon="2.39531">
        <ele>96.400001525879</ele>
        <time>2025-06-08T10:37:50.000Z</time>
      </trkpt>
      <trkpt lat="48.39061" lon="2.3953">
        <ele>94.199996948242</ele>
        <time>2025-06-08T10:37:52.000Z</time>
      </trkpt>
      <trkpt lat="48.39061" lon="2.39528">
        <ele>88.400001525879</ele>
        <time>2025-06-08T10:38:16.000Z</time>
      </trkpt>
      <trkpt lat="48.39052" lon="2.39523">
        <ele>88.400001525879</ele>
        <time>2025-06-08T10:38:27.000Z</time>
      </trkpt>
      <trkpt lat="48.39051" lon="2.39521">
        <ele>88.400001525879</ele>
        <time>2025-06-08T10:38:28.000Z</time>
      </trkpt>
      <trkpt lat="48.39048" lon="2.39511">
        <ele>88</ele>
        <time>2025-06-08T10:38:31.000Z</time>
      </trkpt>
      <trkpt lat="48.39048" lon="2.39508">
        <ele>87.400001525879</ele>
        <time>2025-06-08T10:38:32.000Z</time>
      </trkpt>
      <trkpt lat="48.39049" lon="2.39505">
        <ele>86.800003051758</ele>
        <time>2025-06-08T10:38:33.000Z</time>
      </trkpt>
      <trkpt lat="48.39052" lon="2.39501">
        <ele>85</ele>
        <time>2025-06-08T10:38:35.000Z</time>
      </trkpt>
      <trkpt lat="48.39056" lon="2.39493">
        <ele>83</ele>
        <time>2025-06-08T10:38:37.000Z</time>
      </trkpt>
      <trkpt lat="48.39059" lon="2.39489">
        <ele>81.800003051758</ele>
        <time>2025-06-08T10:38:38.000Z</time>
      </trkpt>
      <trkpt lat="48.39062" lon="2.39486">
        <ele>80.800003051758</ele>
        <time>2025-06-08T10:38:39.000Z</time>
      </trkpt>
      <trkpt lat="48.39065" lon="2.39484">
        <ele>80</ele>
        <time>2025-06-08T10:38:40.000Z</time>
      </trkpt>
      <trkpt lat="48.39068" lon="2.39484">
        <ele>78.800003051758</ele>
        <time>2025-06-08T10:38:41.000Z</time>
      </trkpt>
      <trkpt lat="48.39072" lon="2.39484">
        <ele>77.599998474121</ele>
        <time>2025-06-08T10:38:42.000Z</time>
      </trkpt>
      <trkpt lat="48.39075" lon="2.39484">
        <ele>76.400001525879</ele>
        <time>2025-06-08T10:38:43.000Z</time>
      </trkpt>
      <trkpt lat="48.39077" lon="2.39485">
        <ele>75.599998474121</ele>
        <time>2025-06-08T10:38:44.000Z</time>
      </trkpt>
      <trkpt lat="48.39078" lon="2.39484">
        <ele>74.400001525879</ele>
        <time>2025-06-08T10:38:45.000Z</time>
      </trkpt>
      <trkpt lat="48.39082" lon="2.39482">
        <ele>73.199996948242</ele>
        <time>2025-06-08T10:38:47.000Z</time>
      </trkpt>
      <trkpt lat="48.39087" lon="2.39478">
        <ele>72</ele>
        <time>2025-06-08T10:38:49.000Z</time>
      </trkpt>
      <trkpt lat="48.39094" lon="2.39471">
        <ele>71.800003051758</ele>
        <time>2025-06-08T10:38:51.000Z</time>
      </trkpt>
      <trkpt lat="48.39098" lon="2.39467">
        <ele>71.599998474121</ele>
        <time>2025-06-08T10:38:52.000Z</time>
      </trkpt>
      <trkpt lat="48.39108" lon="2.39459">
        <ele>71.400001525879</ele>
        <time>2025-06-08T10:38:55.000Z</time>
      </trkpt>
      <trkpt lat="48.39114" lon="2.39457">
        <ele>70.800003051758</ele>
        <time>2025-06-08T10:38:57.000Z</time>
      </trkpt>
      <trkpt lat="48.39117" lon="2.39458">
        <ele>69.800003051758</ele>
        <time>2025-06-08T10:38:58.000Z</time>
      </trkpt>
      <trkpt lat="48.3912" lon="2.3946">
        <ele>68.800003051758</ele>
        <time>2025-06-08T10:38:59.000Z</time>
      </trkpt>
      <trkpt lat="48.39126" lon="2.39464">
        <ele>67</ele>
        <time>2025-06-08T10:39:01.000Z</time>
      </trkpt>
      <trkpt lat="48.39134" lon="2.39469">
        <ele>65.800003051758</ele>
        <time>2025-06-08T10:39:04.000Z</time>
      </trkpt>
      <trkpt lat="48.39139" lon="2.39475">
        <ele>65.800003051758</ele>
        <time>2025-06-08T10:39:06.000Z</time>
      </trkpt>
      <trkpt lat="48.39151" lon="2.39486">
        <ele>65.599998474121</ele>
        <time>2025-06-08T10:39:12.000Z</time>
      </trkpt>
      <trkpt lat="48.39161" lon="2.39491">
        <ele>66.400001525879</ele>
        <time>2025-06-08T10:39:16.000Z</time>
      </trkpt>
      <trkpt lat="48.39163" lon="2.39489">
        <ele>66.599998474121</ele>
        <time>2025-06-08T10:39:17.000Z</time>
      </trkpt>
      <trkpt lat="48.39167" lon="2.39474">
        <ele>66.800003051758</ele>
        <time>2025-06-08T10:39:20.000Z</time>
      </trkpt>
      <trkpt lat="48.39166" lon="2.39452">
        <ele>66.800003051758</ele>
        <time>2025-06-08T10:39:24.000Z</time>
      </trkpt>
      <trkpt lat="48.39165" lon="2.39444">
        <ele>66.599998474121</ele>
        <time>2025-06-08T10:39:25.000Z</time>
      </trkpt>
      <trkpt lat="48.3916" lon="2.39411">
        <ele>65.400001525879</ele>
        <time>2025-06-08T10:39:29.000Z</time>
      </trkpt>
      <trkpt lat="48.39159" lon="2.39404">
        <ele>65.400001525879</ele>
        <time>2025-06-08T10:39:30.000Z</time>
      </trkpt>
      <trkpt lat="48.39156" lon="2.39394">
        <ele>64.599998474121</ele>
        <time>2025-06-08T10:39:32.000Z</time>
      </trkpt>
      <trkpt lat="48.39155" lon="2.39389">
        <ele>63.200000762939</ele>
        <time>2025-06-08T10:39:33.000Z</time>
      </trkpt>
      <trkpt lat="48.39152" lon="2.39378">
        <ele>61.799999237061</ele>
        <time>2025-06-08T10:39:35.000Z</time>
      </trkpt>
      <trkpt lat="48.39153" lon="2.39372">
        <ele>61.400001525879</ele>
        <time>2025-06-08T10:39:36.000Z</time>
      </trkpt>
      <trkpt lat="48.39151" lon="2.39349">
        <ele>60.799999237061</ele>
        <time>2025-06-08T10:39:39.000Z</time>
      </trkpt>
      <trkpt lat="48.39149" lon="2.39342">
        <ele>60.599998474121</ele>
        <time>2025-06-08T10:39:40.000Z</time>
      </trkpt>
      <trkpt lat="48.39142" lon="2.39321">
        <ele>60.200000762939</ele>
        <time>2025-06-08T10:39:43.000Z</time>
      </trkpt>
      <trkpt lat="48.39141" lon="2.39314">
        <ele>60</ele>
        <time>2025-06-08T10:39:44.000Z</time>
      </trkpt>
      <trkpt lat="48.39141" lon="2.39306">
        <ele>59.599998474121</ele>
        <time>2025-06-08T10:39:45.000Z</time>
      </trkpt>
      <trkpt lat="48.39141" lon="2.39294">
        <ele>57.799999237061</ele>
        <time>2025-06-08T10:39:47.000Z</time>
      </trkpt>
      <trkpt lat="48.39141" lon="2.39288">
        <ele>57</ele>
        <time>2025-06-08T10:39:48.000Z</time>
      </trkpt>
      <trkpt lat="48.39141" lon="2.39284">
        <ele>56.400001525879</ele>
        <time>2025-06-08T10:39:49.000Z</time>
      </trkpt>
      <trkpt lat="48.39142" lon="2.39281">
        <ele>56</ele>
        <time>2025-06-08T10:39:50.000Z</time>
      </trkpt>
      <trkpt lat="48.39143" lon="2.39279">
        <ele>55.799999237061</ele>
        <time>2025-06-08T10:39:51.000Z</time>
      </trkpt>
      <trkpt lat="48.3915" lon="2.39277">
        <ele>55.400001525879</ele>
        <time>2025-06-08T10:39:54.000Z</time>
      </trkpt>
      <trkpt lat="48.39153" lon="2.39277">
        <ele>55.200000762939</ele>
        <time>2025-06-08T10:39:55.000Z</time>
      </trkpt>
      <trkpt lat="48.39156" lon="2.39277">
        <ele>55.200000762939</ele>
        <time>2025-06-08T10:39:56.000Z</time>
      </trkpt>
      <trkpt lat="48.39171" lon="2.39286">
        <ele>55.200000762939</ele>
        <time>2025-06-08T10:40:01.000Z</time>
      </trkpt>
      <trkpt lat="48.39184" lon="2.39306">
        <ele>55.400001525879</ele>
        <time>2025-06-08T10:40:06.000Z</time>
      </trkpt>
      <trkpt lat="48.39203" lon="2.39345">
        <ele>55.400001525879</ele>
        <time>2025-06-08T10:40:14.000Z</time>
      </trkpt>
      <trkpt lat="48.39225" lon="2.3939">
        <ele>55.400001525879</ele>
        <time>2025-06-08T10:40:22.000Z</time>
      </trkpt>
      <trkpt lat="48.39239" lon="2.39429">
        <ele>55.400001525879</ele>
        <time>2025-06-08T10:40:29.000Z</time>
      </trkpt>
      <trkpt lat="48.39243" lon="2.3944">
        <ele>55.400001525879</ele>
        <time>2025-06-08T10:40:31.000Z</time>
      </trkpt>
      <trkpt lat="48.39251" lon="2.39463">
        <ele>55.400001525879</ele>
        <time>2025-06-08T10:40:35.000Z</time>
      </trkpt>
      <trkpt lat="48.39257" lon="2.39475">
        <ele>55.400001525879</ele>
        <time>2025-06-08T10:40:37.000Z</time>
      </trkpt>
      <trkpt lat="48.39267" lon="2.39492">
        <ele>55.599998474121</ele>
        <time>2025-06-08T10:40:40.000Z</time>
      </trkpt>
      <trkpt lat="48.39288" lon="2.39518">
        <ele>55.799999237061</ele>
        <time>2025-06-08T10:40:46.000Z</time>
      </trkpt>
      <trkpt lat="48.39298" lon="2.39522">
        <ele>55.799999237061</ele>
        <time>2025-06-08T10:40:49.000Z</time>
      </trkpt>
      <trkpt lat="48.39301" lon="2.39521">
        <ele>55.799999237061</ele>
        <time>2025-06-08T10:40:50.000Z</time>
      </trkpt>
      <trkpt lat="48.39306" lon="2.39504">
        <ele>55.799999237061</ele>
        <time>2025-06-08T10:40:54.000Z</time>
      </trkpt>
      <trkpt lat="48.39301" lon="2.39479">
        <ele>55.799999237061</ele>
        <time>2025-06-08T10:40:58.000Z</time>
      </trkpt>
      <trkpt lat="48.39288" lon="2.39435">
        <ele>55.200000762939</ele>
        <time>2025-06-08T10:41:05.000Z</time>
      </trkpt>
      <trkpt lat="48.39279" lon="2.39403">
        <ele>54</ele>
        <time>2025-06-08T10:41:10.000Z</time>
      </trkpt>
      <trkpt lat="48.39272" lon="2.39378">
        <ele>53.799999237061</ele>
        <time>2025-06-08T10:41:14.000Z</time>
      </trkpt>
      <trkpt lat="48.3926" lon="2.3932">
        <ele>53</ele>
        <time>2025-06-08T10:41:22.000Z</time>
      </trkpt>
      <trkpt lat="48.39253" lon="2.39268">
        <ele>52.400001525879</ele>
        <time>2025-06-08T10:41:29.000Z</time>
      </trkpt>
      <trkpt lat="48.39251" lon="2.39245">
        <ele>52.400001525879</ele>
        <time>2025-06-08T10:41:32.000Z</time>
      </trkpt>
      <trkpt lat="48.39252" lon="2.39224">
        <ele>52.200000762939</ele>
        <time>2025-06-08T10:41:35.000Z</time>
      </trkpt>
      <trkpt lat="48.39252" lon="2.39217">
        <ele>52.200000762939</ele>
        <time>2025-06-08T10:41:36.000Z</time>
      </trkpt>
      <trkpt lat="48.39253" lon="2.39198">
        <ele>52.200000762939</ele>
        <time>2025-06-08T10:41:39.000Z</time>
      </trkpt>
      <trkpt lat="48.39254" lon="2.39176">
        <ele>52.200000762939</ele>
        <time>2025-06-08T10:41:42.000Z</time>
      </trkpt>
      <trkpt lat="48.39256" lon="2.3914">
        <ele>52</ele>
        <time>2025-06-08T10:41:47.000Z</time>
      </trkpt>
      <trkpt lat="48.39257" lon="2.39126">
        <ele>52</ele>
        <time>2025-06-08T10:41:49.000Z</time>
      </trkpt>
      <trkpt lat="48.39261" lon="2.39105">
        <ele>52.200000762939</ele>
        <time>2025-06-08T10:41:52.000Z</time>
      </trkpt>
      <trkpt lat="48.39267" lon="2.39087">
        <ele>52.200000762939</ele>
        <time>2025-06-08T10:41:55.000Z</time>
      </trkpt>
      <trkpt lat="48.3927" lon="2.39068">
        <ele>52</ele>
        <time>2025-06-08T10:41:58.000Z</time>
      </trkpt>
      <trkpt lat="48.39271" lon="2.39062">
        <ele>51.799999237061</ele>
        <time>2025-06-08T10:41:59.000Z</time>
      </trkpt>
      <trkpt lat="48.39274" lon="2.39042">
        <ele>51.799999237061</ele>
        <time>2025-06-08T10:42:02.000Z</time>
      </trkpt>
      <trkpt lat="48.39275" lon="2.39035">
        <ele>52</ele>
        <time>2025-06-08T10:42:03.000Z</time>
      </trkpt>
      <trkpt lat="48.3928" lon="2.39015">
        <ele>52</ele>
        <time>2025-06-08T10:42:06.000Z</time>
      </trkpt>
      <trkpt lat="48.39284" lon="2.38993">
        <ele>52</ele>
        <time>2025-06-08T10:42:09.000Z</time>
      </trkpt>
      <trkpt lat="48.39291" lon="2.38966">
        <ele>52</ele>
        <time>2025-06-08T10:42:13.000Z</time>
      </trkpt>
      <trkpt lat="48.39296" lon="2.38954">
        <ele>52.200000762939</ele>
        <time>2025-06-08T10:42:15.000Z</time>
      </trkpt>
      <trkpt lat="48.39298" lon="2.38946">
        <ele>52.200000762939</ele>
        <time>2025-06-08T10:42:16.000Z</time>
      </trkpt>
      <trkpt lat="48.39305" lon="2.38912">
        <ele>52.200000762939</ele>
        <time>2025-06-08T10:42:21.000Z</time>
      </trkpt>
      <trkpt lat="48.39314" lon="2.38864">
        <ele>52.400001525879</ele>
        <time>2025-06-08T10:42:28.000Z</time>
      </trkpt>
      <trkpt lat="48.39324" lon="2.38814">
        <ele>52.200000762939</ele>
        <time>2025-06-08T10:42:35.000Z</time>
      </trkpt>
      <trkpt lat="48.39331" lon="2.38771">
        <ele>52</ele>
        <time>2025-06-08T10:42:41.000Z</time>
      </trkpt>
      <trkpt lat="48.3934" lon="2.38722">
        <ele>51.400001525879</ele>
        <time>2025-06-08T10:42:48.000Z</time>
      </trkpt>
      <trkpt lat="48.39347" lon="2.38689">
        <ele>51.200000762939</ele>
        <time>2025-06-08T10:42:53.000Z</time>
      </trkpt>
      <trkpt lat="48.39349" lon="2.38683">
        <ele>51.200000762939</ele>
        <time>2025-06-08T10:42:54.000Z</time>
      </trkpt>
      <trkpt lat="48.39362" lon="2.38636">
        <ele>51.200000762939</ele>
        <time>2025-06-08T10:43:01.000Z</time>
      </trkpt>
      <trkpt lat="48.39372" lon="2.38603">
        <ele>51.799999237061</ele>
        <time>2025-06-08T10:43:06.000Z</time>
      </trkpt>
      <trkpt lat="48.39376" lon="2.3859">
        <ele>51.799999237061</ele>
        <time>2025-06-08T10:43:08.000Z</time>
      </trkpt>
      <trkpt lat="48.39392" lon="2.38539">
        <ele>52</ele>
        <time>2025-06-08T10:43:16.000Z</time>
      </trkpt>
      <trkpt lat="48.39394" lon="2.38533">
        <ele>51.799999237061</ele>
        <time>2025-06-08T10:43:17.000Z</time>
      </trkpt>
      <trkpt lat="48.3941" lon="2.38493">
        <ele>51.400001525879</ele>
        <time>2025-06-08T10:43:24.000Z</time>
      </trkpt>
      <trkpt lat="48.39419" lon="2.3847">
        <ele>51.400001525879</ele>
        <time>2025-06-08T10:43:28.000Z</time>
      </trkpt>
      <trkpt lat="48.39425" lon="2.38448">
        <ele>51.400001525879</ele>
        <time>2025-06-08T10:43:32.000Z</time>
      </trkpt>
      <trkpt lat="48.39429" lon="2.38428">
        <ele>51.400001525879</ele>
        <time>2025-06-08T10:43:35.000Z</time>
      </trkpt>
      <trkpt lat="48.39431" lon="2.38407">
        <ele>51.599998474121</ele>
        <time>2025-06-08T10:43:38.000Z</time>
      </trkpt>
      <trkpt lat="48.39432" lon="2.38363">
        <ele>52</ele>
        <time>2025-06-08T10:43:44.000Z</time>
      </trkpt>
      <trkpt lat="48.39436" lon="2.38315">
        <ele>52</ele>
        <time>2025-06-08T10:43:51.000Z</time>
      </trkpt>
      <trkpt lat="48.39436" lon="2.38262">
        <ele>51.599998474121</ele>
        <time>2025-06-08T10:43:58.000Z</time>
      </trkpt>
      <trkpt lat="48.39437" lon="2.3824">
        <ele>51.200000762939</ele>
        <time>2025-06-08T10:44:01.000Z</time>
      </trkpt>
      <trkpt lat="48.39436" lon="2.38218">
        <ele>51.200000762939</ele>
        <time>2025-06-08T10:44:04.000Z</time>
      </trkpt>
      <trkpt lat="48.39434" lon="2.3817">
        <ele>51.400001525879</ele>
        <time>2025-06-08T10:44:11.000Z</time>
      </trkpt>
      <trkpt lat="48.39428" lon="2.3813">
        <ele>52</ele>
        <time>2025-06-08T10:44:17.000Z</time>
      </trkpt>
      <trkpt lat="48.39426" lon="2.38117">
        <ele>52.200000762939</ele>
        <time>2025-06-08T10:44:19.000Z</time>
      </trkpt>
      <trkpt lat="48.39424" lon="2.38094">
        <ele>52.400001525879</ele>
        <time>2025-06-08T10:44:23.000Z</time>
      </trkpt>
      <trkpt lat="48.39423" lon="2.3809">
        <ele>52.400001525879</ele>
        <time>2025-06-08T10:44:24.000Z</time>
      </trkpt>
      <trkpt lat="48.39418" lon="2.38088">
        <ele>52.400001525879</ele>
        <time>2025-06-08T10:44:26.000Z</time>
      </trkpt>
      <trkpt lat="48.39415" lon="2.3809">
        <ele>52.599998474121</ele>
        <time>2025-06-08T10:44:28.000Z</time>
      </trkpt>
      <trkpt lat="48.39413" lon="2.3809">
        <ele>52.599998474121</ele>
        <time>2025-06-08T10:44:29.000Z</time>
      </trkpt>
      <trkpt lat="48.39412" lon="2.38087">
        <ele>52.799999237061</ele>
        <time>2025-06-08T10:44:30.000Z</time>
      </trkpt>
      <trkpt lat="48.39412" lon="2.38084">
        <ele>52.799999237061</ele>
        <time>2025-06-08T10:44:31.000Z</time>
      </trkpt>
      <trkpt lat="48.39408" lon="2.38073">
        <ele>53.599998474121</ele>
        <time>2025-06-08T10:44:35.000Z</time>
      </trkpt>
      <trkpt lat="48.39405" lon="2.38072">
        <ele>53.599998474121</ele>
        <time>2025-06-08T10:44:36.000Z</time>
      </trkpt>
      <trkpt lat="48.39394" lon="2.38066">
        <ele>53.799999237061</ele>
        <time>2025-06-08T10:44:39.000Z</time>
      </trkpt>
      <trkpt lat="48.39363" lon="2.38044">
        <ele>53.599998474121</ele>
        <time>2025-06-08T10:44:47.000Z</time>
      </trkpt>
      <trkpt lat="48.39338" lon="2.38021">
        <ele>53.400001525879</ele>
        <time>2025-06-08T10:44:54.000Z</time>
      </trkpt>
      <trkpt lat="48.39323" lon="2.38007">
        <ele>53.599998474121</ele>
        <time>2025-06-08T10:44:59.000Z</time>
      </trkpt>
      <trkpt lat="48.3932" lon="2.38003">
        <ele>54</ele>
        <time>2025-06-08T10:45:02.000Z</time>
      </trkpt>
      <trkpt lat="48.3932" lon="2.38003">
        <ele>54</ele>
        <time>2025-06-08T10:45:03.000Z</time>
      </trkpt>
      <trkpt lat="48.39317" lon="2.38003">
        <ele>54.799999237061</ele>
        <time>2025-06-08T10:45:08.000Z</time>
      </trkpt>
      <trkpt lat="48.39316" lon="2.38001">
        <ele>54.799999237061</ele>
        <time>2025-06-08T10:45:10.000Z</time>
      </trkpt>
      <trkpt lat="48.39315" lon="2.37998">
        <ele>54.799999237061</ele>
        <time>2025-06-08T10:45:11.000Z</time>
      </trkpt>
      <trkpt lat="48.39316" lon="2.37988">
        <ele>54.799999237061</ele>
        <time>2025-06-08T10:45:13.000Z</time>
      </trkpt>
      <trkpt lat="48.39316" lon="2.37976">
        <ele>54.799999237061</ele>
        <time>2025-06-08T10:45:15.000Z</time>
      </trkpt>
      <trkpt lat="48.39317" lon="2.37943">
        <ele>54.599998474121</ele>
        <time>2025-06-08T10:45:20.000Z</time>
      </trkpt>
      <trkpt lat="48.39326" lon="2.37898">
        <ele>54.200000762939</ele>
        <time>2025-06-08T10:45:27.000Z</time>
      </trkpt>
      <trkpt lat="48.39331" lon="2.37862">
        <ele>54.200000762939</ele>
        <time>2025-06-08T10:45:33.000Z</time>
      </trkpt>
      <trkpt lat="48.3933" lon="2.37857">
        <ele>54.200000762939</ele>
        <time>2025-06-08T10:45:34.000Z</time>
      </trkpt>
      <trkpt lat="48.39323" lon="2.3785">
        <ele>54.799999237061</ele>
        <time>2025-06-08T10:45:36.000Z</time>
      </trkpt>
      <trkpt lat="48.39319" lon="2.37848">
        <ele>55.200000762939</ele>
        <time>2025-06-08T10:45:37.000Z</time>
      </trkpt>
      <trkpt lat="48.39306" lon="2.37848">
        <ele>56</ele>
        <time>2025-06-08T10:45:40.000Z</time>
      </trkpt>
      <trkpt lat="48.39269" lon="2.37846">
        <ele>56.200000762939</ele>
        <time>2025-06-08T10:45:47.000Z</time>
      </trkpt>
      <trkpt lat="48.39223" lon="2.37845">
        <ele>55.799999237061</ele>
        <time>2025-06-08T10:45:55.000Z</time>
      </trkpt>
      <trkpt lat="48.39169" lon="2.37845">
        <ele>54.599998474121</ele>
        <time>2025-06-08T10:46:05.000Z</time>
      </trkpt>
      <trkpt lat="48.39145" lon="2.37845">
        <ele>54.599998474121</ele>
        <time>2025-06-08T10:46:11.000Z</time>
      </trkpt>
      <trkpt lat="48.39121" lon="2.37844">
        <ele>56.200000762939</ele>
        <time>2025-06-08T10:46:18.000Z</time>
      </trkpt>
      <trkpt lat="48.39118" lon="2.37845">
        <ele>56.599998474121</ele>
        <time>2025-06-08T10:46:19.000Z</time>
      </trkpt>
      <trkpt lat="48.39112" lon="2.37854">
        <ele>57.400001525879</ele>
        <time>2025-06-08T10:46:22.000Z</time>
      </trkpt>
      <trkpt lat="48.3911" lon="2.37858">
        <ele>57.799999237061</ele>
        <time>2025-06-08T10:46:23.000Z</time>
      </trkpt>
      <trkpt lat="48.39096" lon="2.37875">
        <ele>58.599998474121</ele>
        <time>2025-06-08T10:46:27.000Z</time>
      </trkpt>
      <trkpt lat="48.39086" lon="2.37888">
        <ele>58.799999237061</ele>
        <time>2025-06-08T10:46:30.000Z</time>
      </trkpt>
      <trkpt lat="48.39082" lon="2.37893">
        <ele>58.799999237061</ele>
        <time>2025-06-08T10:46:31.000Z</time>
      </trkpt>
      <trkpt lat="48.39078" lon="2.37897">
        <ele>58.799999237061</ele>
        <time>2025-06-08T10:46:32.000Z</time>
      </trkpt>
      <trkpt lat="48.39074" lon="2.37901">
        <ele>58.799999237061</ele>
        <time>2025-06-08T10:46:33.000Z</time>
      </trkpt>
      <trkpt lat="48.39033" lon="2.37933">
        <ele>58.400001525879</ele>
        <time>2025-06-08T10:46:41.000Z</time>
      </trkpt>
      <trkpt lat="48.39009" lon="2.37949">
        <ele>57.799999237061</ele>
        <time>2025-06-08T10:46:46.000Z</time>
      </trkpt>
      <trkpt lat="48.39" lon="2.37954">
        <ele>57.599998474121</ele>
        <time>2025-06-08T10:46:48.000Z</time>
      </trkpt>
      <trkpt lat="48.38989" lon="2.37958">
        <ele>57.200000762939</ele>
        <time>2025-06-08T10:46:50.000Z</time>
      </trkpt>
      <trkpt lat="48.38984" lon="2.37959">
        <ele>57</ele>
        <time>2025-06-08T10:46:51.000Z</time>
      </trkpt>
      <trkpt lat="48.38972" lon="2.37959">
        <ele>56.599998474121</ele>
        <time>2025-06-08T10:46:53.000Z</time>
      </trkpt>
      <trkpt lat="48.38959" lon="2.37956">
        <ele>56</ele>
        <time>2025-06-08T10:46:55.000Z</time>
      </trkpt>
      <trkpt lat="48.38953" lon="2.37954">
        <ele>55.400001525879</ele>
        <time>2025-06-08T10:46:56.000Z</time>
      </trkpt>
      <trkpt lat="48.38929" lon="2.37946">
        <ele>54.400001525879</ele>
        <time>2025-06-08T10:47:00.000Z</time>
      </trkpt>
      <trkpt lat="48.38924" lon="2.37942">
        <ele>54.200000762939</ele>
        <time>2025-06-08T10:47:01.000Z</time>
      </trkpt>
      <trkpt lat="48.38919" lon="2.37938">
        <ele>54</ele>
        <time>2025-06-08T10:47:02.000Z</time>
      </trkpt>
      <trkpt lat="48.38894" lon="2.37908">
        <ele>54</ele>
        <time>2025-06-08T10:47:08.000Z</time>
      </trkpt>
      <trkpt lat="48.38866" lon="2.37875">
        <ele>54.200000762939</ele>
        <time>2025-06-08T10:47:15.000Z</time>
      </trkpt>
      <trkpt lat="48.3885" lon="2.3786">
        <ele>54.200000762939</ele>
        <time>2025-06-08T10:47:19.000Z</time>
      </trkpt>
      <trkpt lat="48.3884" lon="2.37855">
        <ele>54.400001525879</ele>
        <time>2025-06-08T10:47:21.000Z</time>
      </trkpt>
      <trkpt lat="48.3883" lon="2.37853">
        <ele>54.400001525879</ele>
        <time>2025-06-08T10:47:23.000Z</time>
      </trkpt>
      <trkpt lat="48.3882" lon="2.37853">
        <ele>54.400001525879</ele>
        <time>2025-06-08T10:47:25.000Z</time>
      </trkpt>
      <trkpt lat="48.38809" lon="2.37852">
        <ele>54.599998474121</ele>
        <time>2025-06-08T10:47:27.000Z</time>
      </trkpt>
      <trkpt lat="48.38781" lon="2.3785">
        <ele>54.400001525879</ele>
        <time>2025-06-08T10:47:32.000Z</time>
      </trkpt>
      <trkpt lat="48.38775" lon="2.3785">
        <ele>54.400001525879</ele>
        <time>2025-06-08T10:47:33.000Z</time>
      </trkpt>
      <trkpt lat="48.38746" lon="2.37855">
        <ele>54</ele>
        <time>2025-06-08T10:47:39.000Z</time>
      </trkpt>
      <trkpt lat="48.38725" lon="2.3786">
        <ele>54</ele>
        <time>2025-06-08T10:47:43.000Z</time>
      </trkpt>
      <trkpt lat="48.38716" lon="2.37861">
        <ele>54</ele>
        <time>2025-06-08T10:47:45.000Z</time>
      </trkpt>
      <trkpt lat="48.38675" lon="2.3787">
        <ele>54</ele>
        <time>2025-06-08T10:47:54.000Z</time>
      </trkpt>
      <trkpt lat="48.38647" lon="2.37872">
        <ele>54.799999237061</ele>
        <time>2025-06-08T10:48:00.000Z</time>
      </trkpt>
      <trkpt lat="48.38638" lon="2.37874">
        <ele>55.200000762939</ele>
        <time>2025-06-08T10:48:02.000Z</time>
      </trkpt>
      <trkpt lat="48.38623" lon="2.37876">
        <ele>55.400001525879</ele>
        <time>2025-06-08T10:48:05.000Z</time>
      </trkpt>
      <trkpt lat="48.38618" lon="2.37877">
        <ele>55.400001525879</ele>
        <time>2025-06-08T10:48:06.000Z</time>
      </trkpt>
      <trkpt lat="48.38591" lon="2.37876">
        <ele>55.599998474121</ele>
        <time>2025-06-08T10:48:12.000Z</time>
      </trkpt>
      <trkpt lat="48.38562" lon="2.37875">
        <ele>56.200000762939</ele>
        <time>2025-06-08T10:48:19.000Z</time>
      </trkpt>
      <trkpt lat="48.38536" lon="2.37872">
        <ele>56.799999237061</ele>
        <time>2025-06-08T10:48:25.000Z</time>
      </trkpt>
      <trkpt lat="48.38497" lon="2.37875">
        <ele>56</ele>
        <time>2025-06-08T10:48:33.000Z</time>
      </trkpt>
      <trkpt lat="48.38472" lon="2.37875">
        <ele>55.799999237061</ele>
        <time>2025-06-08T10:48:38.000Z</time>
      </trkpt>
      <trkpt lat="48.38436" lon="2.37872">
        <ele>56</ele>
        <time>2025-06-08T10:48:45.000Z</time>
      </trkpt>
      <trkpt lat="48.38404" lon="2.37867">
        <ele>56</ele>
        <time>2025-06-08T10:48:52.000Z</time>
      </trkpt>
      <trkpt lat="48.38381" lon="2.37863">
        <ele>55.599998474121</ele>
        <time>2025-06-08T10:48:57.000Z</time>
      </trkpt>
      <trkpt lat="48.38352" lon="2.37857">
        <ele>55.200000762939</ele>
        <time>2025-06-08T10:49:03.000Z</time>
      </trkpt>
      <trkpt lat="48.38311" lon="2.37849">
        <ele>55</ele>
        <time>2025-06-08T10:49:11.000Z</time>
      </trkpt>
      <trkpt lat="48.38294" lon="2.37846">
        <ele>55</ele>
        <time>2025-06-08T10:49:15.000Z</time>
      </trkpt>
    </trkseg>
  </trk>
</gpx>